<?xml version="1.0" encoding="UTF-8" standalone="no" ?>
<gpx xmlns="http://www.topografix.com/GPX/1/1" xmlns:xsi="http://www.w3.org/2001/XMLSchema-instance" xsi:schemaLocation="http://www.topografix.com/GPX/1/1 http://www.topografix.com/GPX/1/1/gpx.xsd" version="1.1" creator="VisuGPX - https://www.visugpx.com">
  <metadata>
    <name>Vallée d'Amby depuis Mozas</name>
  </metadata>
  <trk>
    <name><![CDATA[Vallée d'Amby depuis Mozas_1]]></name>
    <trkseg>
      <trkpt lat="45.61482" lon="5.27481">
        <ele>246</ele>
        <time>2021-02-28T09:05:11.786Z</time>
      </trkpt>
      <trkpt lat="45.61482" lon="5.27481">
        <ele>246</ele>
        <time>2021-02-28T09:05:12.787Z</time>
      </trkpt>
      <trkpt lat="45.61482" lon="5.2748">
        <ele>245</ele>
        <time>2021-02-28T09:05:13.788Z</time>
      </trkpt>
      <trkpt lat="45.61482" lon="5.2748">
        <ele>245</ele>
        <time>2021-02-28T09:05:14.787Z</time>
      </trkpt>
      <trkpt lat="45.61482" lon="5.2748">
        <ele>244</ele>
        <time>2021-02-28T09:05:15.787Z</time>
      </trkpt>
      <trkpt lat="45.61482" lon="5.27479">
        <ele>244</ele>
        <time>2021-02-28T09:05:16.788Z</time>
      </trkpt>
      <trkpt lat="45.61482" lon="5.27479">
        <ele>244</ele>
        <time>2021-02-28T09:05:17.787Z</time>
      </trkpt>
      <trkpt lat="45.61482" lon="5.27479">
        <ele>244</ele>
        <time>2021-02-28T09:05:18.788Z</time>
      </trkpt>
      <trkpt lat="45.61482" lon="5.27479">
        <ele>244</ele>
        <time>2021-02-28T09:05:19.788Z</time>
      </trkpt>
      <trkpt lat="45.61482" lon="5.27479">
        <ele>244</ele>
        <time>2021-02-28T09:05:20.788Z</time>
      </trkpt>
      <trkpt lat="45.61482" lon="5.27479">
        <ele>244</ele>
        <time>2021-02-28T09:05:21.788Z</time>
      </trkpt>
      <trkpt lat="45.61482" lon="5.27479">
        <ele>244</ele>
        <time>2021-02-28T09:05:22.788Z</time>
      </trkpt>
      <trkpt lat="45.61482" lon="5.27479">
        <ele>244</ele>
        <time>2021-02-28T09:05:23.788Z</time>
      </trkpt>
      <trkpt lat="45.61482" lon="5.27479">
        <ele>244</ele>
        <time>2021-02-28T09:05:24.788Z</time>
      </trkpt>
      <trkpt lat="45.61482" lon="5.27479">
        <ele>244</ele>
        <time>2021-02-28T09:05:25.787Z</time>
      </trkpt>
      <trkpt lat="45.61482" lon="5.27479">
        <ele>244</ele>
        <time>2021-02-28T09:05:26.788Z</time>
      </trkpt>
      <trkpt lat="45.61482" lon="5.27479">
        <ele>244</ele>
        <time>2021-02-28T09:05:27.788Z</time>
      </trkpt>
      <trkpt lat="45.61482" lon="5.27479">
        <ele>244</ele>
        <time>2021-02-28T09:05:28.787Z</time>
      </trkpt>
      <trkpt lat="45.61482" lon="5.27479">
        <ele>244</ele>
        <time>2021-02-28T09:05:29.788Z</time>
      </trkpt>
      <trkpt lat="45.61482" lon="5.27479">
        <ele>244</ele>
        <time>2021-02-28T09:05:30.788Z</time>
      </trkpt>
      <trkpt lat="45.61482" lon="5.27479">
        <ele>244</ele>
        <time>2021-02-28T09:05:31.787Z</time>
      </trkpt>
      <trkpt lat="45.61482" lon="5.27479">
        <ele>244</ele>
        <time>2021-02-28T09:05:32.788Z</time>
      </trkpt>
      <trkpt lat="45.61482" lon="5.27478">
        <ele>244</ele>
        <time>2021-02-28T09:05:33.788Z</time>
      </trkpt>
      <trkpt lat="45.61482" lon="5.27476">
        <ele>244</ele>
        <time>2021-02-28T09:05:34.787Z</time>
      </trkpt>
      <trkpt lat="45.61482" lon="5.27474">
        <ele>244</ele>
        <time>2021-02-28T09:05:35.787Z</time>
      </trkpt>
      <trkpt lat="45.61483" lon="5.27472">
        <ele>244</ele>
        <time>2021-02-28T09:05:36.787Z</time>
      </trkpt>
      <trkpt lat="45.61483" lon="5.2747">
        <ele>244</ele>
        <time>2021-02-28T09:05:37.787Z</time>
      </trkpt>
      <trkpt lat="45.61483" lon="5.27468">
        <ele>244</ele>
        <time>2021-02-28T09:05:38.787Z</time>
      </trkpt>
      <trkpt lat="45.61483" lon="5.27466">
        <ele>243</ele>
        <time>2021-02-28T09:05:39.787Z</time>
      </trkpt>
      <trkpt lat="45.61483" lon="5.27464">
        <ele>243</ele>
        <time>2021-02-28T09:05:40.787Z</time>
      </trkpt>
      <trkpt lat="45.61484" lon="5.27462">
        <ele>243</ele>
        <time>2021-02-28T09:05:41.787Z</time>
      </trkpt>
      <trkpt lat="45.61485" lon="5.2746">
        <ele>242</ele>
        <time>2021-02-28T09:05:42.787Z</time>
      </trkpt>
      <trkpt lat="45.61486" lon="5.2746">
        <ele>242</ele>
        <time>2021-02-28T09:05:43.787Z</time>
      </trkpt>
      <trkpt lat="45.61487" lon="5.2746">
        <ele>242</ele>
        <time>2021-02-28T09:05:44.787Z</time>
      </trkpt>
      <trkpt lat="45.61488" lon="5.2746">
        <ele>242</ele>
        <time>2021-02-28T09:05:45.787Z</time>
      </trkpt>
      <trkpt lat="45.61489" lon="5.2746">
        <ele>241</ele>
        <time>2021-02-28T09:05:46.787Z</time>
      </trkpt>
      <trkpt lat="45.61489" lon="5.2746">
        <ele>241</ele>
        <time>2021-02-28T09:05:47.787Z</time>
      </trkpt>
      <trkpt lat="45.6149" lon="5.2746">
        <ele>241</ele>
        <time>2021-02-28T09:05:48.787Z</time>
      </trkpt>
      <trkpt lat="45.6149" lon="5.2746">
        <ele>241</ele>
        <time>2021-02-28T09:05:49.787Z</time>
      </trkpt>
      <trkpt lat="45.6149" lon="5.2746">
        <ele>240</ele>
        <time>2021-02-28T09:05:50.788Z</time>
      </trkpt>
      <trkpt lat="45.6149" lon="5.2746">
        <ele>240</ele>
        <time>2021-02-28T09:05:51.787Z</time>
      </trkpt>
      <trkpt lat="45.6149" lon="5.2746">
        <ele>240</ele>
        <time>2021-02-28T09:05:52.787Z</time>
      </trkpt>
      <trkpt lat="45.61491" lon="5.2746">
        <ele>240</ele>
        <time>2021-02-28T09:05:53.787Z</time>
      </trkpt>
      <trkpt lat="45.61491" lon="5.27461">
        <ele>239</ele>
        <time>2021-02-28T09:05:54.788Z</time>
      </trkpt>
      <trkpt lat="45.61491" lon="5.27461">
        <ele>239</ele>
        <time>2021-02-28T09:05:55.788Z</time>
      </trkpt>
      <trkpt lat="45.61491" lon="5.27462">
        <ele>239</ele>
        <time>2021-02-28T09:05:56.788Z</time>
      </trkpt>
      <trkpt lat="45.61505" lon="5.27469">
        <ele>229</ele>
        <time>2021-02-28T09:05:57.788Z</time>
      </trkpt>
      <trkpt lat="45.61507" lon="5.2747">
        <ele>229</ele>
        <time>2021-02-28T09:05:58.788Z</time>
      </trkpt>
      <trkpt lat="45.61509" lon="5.2747">
        <ele>228</ele>
        <time>2021-02-28T09:05:59.788Z</time>
      </trkpt>
      <trkpt lat="45.61512" lon="5.2747">
        <ele>228</ele>
        <time>2021-02-28T09:06:00.788Z</time>
      </trkpt>
      <trkpt lat="45.61515" lon="5.27471">
        <ele>229</ele>
        <time>2021-02-28T09:06:01.788Z</time>
      </trkpt>
      <trkpt lat="45.61517" lon="5.27472">
        <ele>229</ele>
        <time>2021-02-28T09:06:02.788Z</time>
      </trkpt>
      <trkpt lat="45.6152" lon="5.27473">
        <ele>230</ele>
        <time>2021-02-28T09:06:03.787Z</time>
      </trkpt>
      <trkpt lat="45.61522" lon="5.27474">
        <ele>230</ele>
        <time>2021-02-28T09:06:04.788Z</time>
      </trkpt>
      <trkpt lat="45.61525" lon="5.27475">
        <ele>230</ele>
        <time>2021-02-28T09:06:05.788Z</time>
      </trkpt>
      <trkpt lat="45.61527" lon="5.27476">
        <ele>230</ele>
        <time>2021-02-28T09:06:06.788Z</time>
      </trkpt>
      <trkpt lat="45.6153" lon="5.27476">
        <ele>230</ele>
        <time>2021-02-28T09:06:07.788Z</time>
      </trkpt>
      <trkpt lat="45.61533" lon="5.27477">
        <ele>230</ele>
        <time>2021-02-28T09:06:08.787Z</time>
      </trkpt>
      <trkpt lat="45.61535" lon="5.27479">
        <ele>230</ele>
        <time>2021-02-28T09:06:09.788Z</time>
      </trkpt>
      <trkpt lat="45.61537" lon="5.27481">
        <ele>230</ele>
        <time>2021-02-28T09:06:10.788Z</time>
      </trkpt>
      <trkpt lat="45.61538" lon="5.27484">
        <ele>231</ele>
        <time>2021-02-28T09:06:11.788Z</time>
      </trkpt>
      <trkpt lat="45.61539" lon="5.27487">
        <ele>231</ele>
        <time>2021-02-28T09:06:12.787Z</time>
      </trkpt>
      <trkpt lat="45.61539" lon="5.27491">
        <ele>231</ele>
        <time>2021-02-28T09:06:13.788Z</time>
      </trkpt>
      <trkpt lat="45.61538" lon="5.27495">
        <ele>231</ele>
        <time>2021-02-28T09:06:14.788Z</time>
      </trkpt>
      <trkpt lat="45.61538" lon="5.27499">
        <ele>231</ele>
        <time>2021-02-28T09:06:15.788Z</time>
      </trkpt>
      <trkpt lat="45.61537" lon="5.27504">
        <ele>231</ele>
        <time>2021-02-28T09:06:16.787Z</time>
      </trkpt>
      <trkpt lat="45.61537" lon="5.27509">
        <ele>231</ele>
        <time>2021-02-28T09:06:17.788Z</time>
      </trkpt>
      <trkpt lat="45.61536" lon="5.27514">
        <ele>231</ele>
        <time>2021-02-28T09:06:18.787Z</time>
      </trkpt>
      <trkpt lat="45.61536" lon="5.27518">
        <ele>230</ele>
        <time>2021-02-28T09:06:19.788Z</time>
      </trkpt>
      <trkpt lat="45.61535" lon="5.27523">
        <ele>230</ele>
        <time>2021-02-28T09:06:20.788Z</time>
      </trkpt>
      <trkpt lat="45.61534" lon="5.27527">
        <ele>230</ele>
        <time>2021-02-28T09:06:21.788Z</time>
      </trkpt>
      <trkpt lat="45.61533" lon="5.27531">
        <ele>230</ele>
        <time>2021-02-28T09:06:22.788Z</time>
      </trkpt>
      <trkpt lat="45.61532" lon="5.27535">
        <ele>230</ele>
        <time>2021-02-28T09:06:23.788Z</time>
      </trkpt>
      <trkpt lat="45.61531" lon="5.27539">
        <ele>230</ele>
        <time>2021-02-28T09:06:24.788Z</time>
      </trkpt>
      <trkpt lat="45.6153" lon="5.27543">
        <ele>230</ele>
        <time>2021-02-28T09:06:25.788Z</time>
      </trkpt>
      <trkpt lat="45.61529" lon="5.27546">
        <ele>230</ele>
        <time>2021-02-28T09:06:26.788Z</time>
      </trkpt>
      <trkpt lat="45.61529" lon="5.27549">
        <ele>230</ele>
        <time>2021-02-28T09:06:27.788Z</time>
      </trkpt>
      <trkpt lat="45.61529" lon="5.27552">
        <ele>229</ele>
        <time>2021-02-28T09:06:28.788Z</time>
      </trkpt>
      <trkpt lat="45.61528" lon="5.27555">
        <ele>229</ele>
        <time>2021-02-28T09:06:29.788Z</time>
      </trkpt>
      <trkpt lat="45.61528" lon="5.27558">
        <ele>229</ele>
        <time>2021-02-28T09:06:30.787Z</time>
      </trkpt>
      <trkpt lat="45.61527" lon="5.2756">
        <ele>229</ele>
        <time>2021-02-28T09:06:31.788Z</time>
      </trkpt>
      <trkpt lat="45.61527" lon="5.27563">
        <ele>229</ele>
        <time>2021-02-28T09:06:32.788Z</time>
      </trkpt>
      <trkpt lat="45.61527" lon="5.27566">
        <ele>229</ele>
        <time>2021-02-28T09:06:33.788Z</time>
      </trkpt>
      <trkpt lat="45.61528" lon="5.27569">
        <ele>229</ele>
        <time>2021-02-28T09:06:34.787Z</time>
      </trkpt>
      <trkpt lat="45.61528" lon="5.27572">
        <ele>229</ele>
        <time>2021-02-28T09:06:35.788Z</time>
      </trkpt>
      <trkpt lat="45.61529" lon="5.27575">
        <ele>229</ele>
        <time>2021-02-28T09:06:36.787Z</time>
      </trkpt>
      <trkpt lat="45.6153" lon="5.27578">
        <ele>229</ele>
        <time>2021-02-28T09:06:37.788Z</time>
      </trkpt>
      <trkpt lat="45.61531" lon="5.2758">
        <ele>229</ele>
        <time>2021-02-28T09:06:38.788Z</time>
      </trkpt>
      <trkpt lat="45.61532" lon="5.27581">
        <ele>229</ele>
        <time>2021-02-28T09:06:39.788Z</time>
      </trkpt>
      <trkpt lat="45.61534" lon="5.27583">
        <ele>229</ele>
        <time>2021-02-28T09:06:40.788Z</time>
      </trkpt>
      <trkpt lat="45.61537" lon="5.27584">
        <ele>229</ele>
        <time>2021-02-28T09:06:41.788Z</time>
      </trkpt>
      <trkpt lat="45.61539" lon="5.27585">
        <ele>229</ele>
        <time>2021-02-28T09:06:42.788Z</time>
      </trkpt>
      <trkpt lat="45.61542" lon="5.27587">
        <ele>230</ele>
        <time>2021-02-28T09:06:43.788Z</time>
      </trkpt>
      <trkpt lat="45.61546" lon="5.27588">
        <ele>230</ele>
        <time>2021-02-28T09:06:44.787Z</time>
      </trkpt>
      <trkpt lat="45.61549" lon="5.2759">
        <ele>230</ele>
        <time>2021-02-28T09:06:45.788Z</time>
      </trkpt>
      <trkpt lat="45.61553" lon="5.27592">
        <ele>230</ele>
        <time>2021-02-28T09:06:46.788Z</time>
      </trkpt>
      <trkpt lat="45.61556" lon="5.27594">
        <ele>230</ele>
        <time>2021-02-28T09:06:47.788Z</time>
      </trkpt>
      <trkpt lat="45.6156" lon="5.27596">
        <ele>230</ele>
        <time>2021-02-28T09:06:48.787Z</time>
      </trkpt>
      <trkpt lat="45.61564" lon="5.27598">
        <ele>230</ele>
        <time>2021-02-28T09:06:49.788Z</time>
      </trkpt>
      <trkpt lat="45.61568" lon="5.276">
        <ele>230</ele>
        <time>2021-02-28T09:06:50.788Z</time>
      </trkpt>
      <trkpt lat="45.61572" lon="5.27602">
        <ele>230</ele>
        <time>2021-02-28T09:06:51.788Z</time>
      </trkpt>
      <trkpt lat="45.61575" lon="5.27603">
        <ele>230</ele>
        <time>2021-02-28T09:06:52.788Z</time>
      </trkpt>
      <trkpt lat="45.61579" lon="5.27605">
        <ele>230</ele>
        <time>2021-02-28T09:06:53.787Z</time>
      </trkpt>
      <trkpt lat="45.61582" lon="5.27607">
        <ele>230</ele>
        <time>2021-02-28T09:06:54.788Z</time>
      </trkpt>
      <trkpt lat="45.61586" lon="5.27608">
        <ele>230</ele>
        <time>2021-02-28T09:06:55.787Z</time>
      </trkpt>
      <trkpt lat="45.6159" lon="5.2761">
        <ele>230</ele>
        <time>2021-02-28T09:06:56.788Z</time>
      </trkpt>
      <trkpt lat="45.61594" lon="5.27612">
        <ele>230</ele>
        <time>2021-02-28T09:06:57.788Z</time>
      </trkpt>
      <trkpt lat="45.61598" lon="5.27613">
        <ele>229</ele>
        <time>2021-02-28T09:06:58.788Z</time>
      </trkpt>
      <trkpt lat="45.61602" lon="5.27614">
        <ele>229</ele>
        <time>2021-02-28T09:06:59.787Z</time>
      </trkpt>
      <trkpt lat="45.61606" lon="5.27615">
        <ele>229</ele>
        <time>2021-02-28T09:07:00.787Z</time>
      </trkpt>
      <trkpt lat="45.6161" lon="5.27616">
        <ele>230</ele>
        <time>2021-02-28T09:07:01.788Z</time>
      </trkpt>
      <trkpt lat="45.61614" lon="5.27618">
        <ele>230</ele>
        <time>2021-02-28T09:07:02.788Z</time>
      </trkpt>
      <trkpt lat="45.61618" lon="5.2762">
        <ele>230</ele>
        <time>2021-02-28T09:07:03.788Z</time>
      </trkpt>
      <trkpt lat="45.61622" lon="5.27622">
        <ele>230</ele>
        <time>2021-02-28T09:07:04.788Z</time>
      </trkpt>
      <trkpt lat="45.61626" lon="5.27624">
        <ele>230</ele>
        <time>2021-02-28T09:07:05.788Z</time>
      </trkpt>
      <trkpt lat="45.6163" lon="5.27626">
        <ele>230</ele>
        <time>2021-02-28T09:07:06.788Z</time>
      </trkpt>
      <trkpt lat="45.61634" lon="5.27628">
        <ele>229</ele>
        <time>2021-02-28T09:07:07.787Z</time>
      </trkpt>
      <trkpt lat="45.61638" lon="5.2763">
        <ele>229</ele>
        <time>2021-02-28T09:07:08.788Z</time>
      </trkpt>
      <trkpt lat="45.61642" lon="5.27632">
        <ele>228</ele>
        <time>2021-02-28T09:07:09.788Z</time>
      </trkpt>
      <trkpt lat="45.61646" lon="5.27635">
        <ele>228</ele>
        <time>2021-02-28T09:07:10.788Z</time>
      </trkpt>
      <trkpt lat="45.61651" lon="5.27637">
        <ele>228</ele>
        <time>2021-02-28T09:07:11.788Z</time>
      </trkpt>
      <trkpt lat="45.61655" lon="5.27639">
        <ele>228</ele>
        <time>2021-02-28T09:07:12.788Z</time>
      </trkpt>
      <trkpt lat="45.61659" lon="5.27642">
        <ele>228</ele>
        <time>2021-02-28T09:07:13.788Z</time>
      </trkpt>
      <trkpt lat="45.61664" lon="5.27644">
        <ele>228</ele>
        <time>2021-02-28T09:07:14.787Z</time>
      </trkpt>
      <trkpt lat="45.61668" lon="5.27647">
        <ele>227</ele>
        <time>2021-02-28T09:07:15.788Z</time>
      </trkpt>
      <trkpt lat="45.61673" lon="5.2765">
        <ele>227</ele>
        <time>2021-02-28T09:07:16.787Z</time>
      </trkpt>
      <trkpt lat="45.61678" lon="5.27653">
        <ele>227</ele>
        <time>2021-02-28T09:07:17.788Z</time>
      </trkpt>
      <trkpt lat="45.61682" lon="5.27655">
        <ele>226</ele>
        <time>2021-02-28T09:07:18.788Z</time>
      </trkpt>
      <trkpt lat="45.61687" lon="5.27658">
        <ele>226</ele>
        <time>2021-02-28T09:07:19.788Z</time>
      </trkpt>
      <trkpt lat="45.61692" lon="5.27661">
        <ele>225</ele>
        <time>2021-02-28T09:07:20.788Z</time>
      </trkpt>
      <trkpt lat="45.61697" lon="5.27664">
        <ele>225</ele>
        <time>2021-02-28T09:07:21.788Z</time>
      </trkpt>
      <trkpt lat="45.61702" lon="5.27666">
        <ele>226</ele>
        <time>2021-02-28T09:07:22.788Z</time>
      </trkpt>
      <trkpt lat="45.61707" lon="5.27669">
        <ele>226</ele>
        <time>2021-02-28T09:07:23.788Z</time>
      </trkpt>
      <trkpt lat="45.61711" lon="5.27671">
        <ele>226</ele>
        <time>2021-02-28T09:07:24.788Z</time>
      </trkpt>
      <trkpt lat="45.61718" lon="5.27673">
        <ele>226</ele>
        <time>2021-02-28T09:07:25.788Z</time>
      </trkpt>
      <trkpt lat="45.61723" lon="5.27676">
        <ele>227</ele>
        <time>2021-02-28T09:07:26.788Z</time>
      </trkpt>
      <trkpt lat="45.61728" lon="5.27678">
        <ele>227</ele>
        <time>2021-02-28T09:07:27.787Z</time>
      </trkpt>
      <trkpt lat="45.61733" lon="5.27681">
        <ele>227</ele>
        <time>2021-02-28T09:07:28.788Z</time>
      </trkpt>
      <trkpt lat="45.61739" lon="5.27684">
        <ele>227</ele>
        <time>2021-02-28T09:07:29.788Z</time>
      </trkpt>
      <trkpt lat="45.61744" lon="5.27686">
        <ele>227</ele>
        <time>2021-02-28T09:07:30.788Z</time>
      </trkpt>
      <trkpt lat="45.61749" lon="5.27688">
        <ele>227</ele>
        <time>2021-02-28T09:07:31.787Z</time>
      </trkpt>
      <trkpt lat="45.61753" lon="5.27691">
        <ele>227</ele>
        <time>2021-02-28T09:07:32.788Z</time>
      </trkpt>
      <trkpt lat="45.61758" lon="5.27693">
        <ele>227</ele>
        <time>2021-02-28T09:07:33.788Z</time>
      </trkpt>
      <trkpt lat="45.61762" lon="5.27696">
        <ele>227</ele>
        <time>2021-02-28T09:07:34.788Z</time>
      </trkpt>
      <trkpt lat="45.61766" lon="5.27697">
        <ele>226</ele>
        <time>2021-02-28T09:07:35.787Z</time>
      </trkpt>
      <trkpt lat="45.6177" lon="5.27698">
        <ele>226</ele>
        <time>2021-02-28T09:07:36.788Z</time>
      </trkpt>
      <trkpt lat="45.61774" lon="5.27696">
        <ele>226</ele>
        <time>2021-02-28T09:07:37.788Z</time>
      </trkpt>
      <trkpt lat="45.61778" lon="5.27693">
        <ele>225</ele>
        <time>2021-02-28T09:07:38.788Z</time>
      </trkpt>
      <trkpt lat="45.61781" lon="5.27688">
        <ele>226</ele>
        <time>2021-02-28T09:07:39.788Z</time>
      </trkpt>
      <trkpt lat="45.61784" lon="5.27682">
        <ele>226</ele>
        <time>2021-02-28T09:07:40.788Z</time>
      </trkpt>
      <trkpt lat="45.61787" lon="5.27675">
        <ele>226</ele>
        <time>2021-02-28T09:07:41.788Z</time>
      </trkpt>
      <trkpt lat="45.6179" lon="5.27667">
        <ele>226</ele>
        <time>2021-02-28T09:07:42.788Z</time>
      </trkpt>
      <trkpt lat="45.61792" lon="5.27658">
        <ele>225</ele>
        <time>2021-02-28T09:07:43.788Z</time>
      </trkpt>
      <trkpt lat="45.61795" lon="5.2765">
        <ele>225</ele>
        <time>2021-02-28T09:07:44.788Z</time>
      </trkpt>
      <trkpt lat="45.61797" lon="5.27641">
        <ele>225</ele>
        <time>2021-02-28T09:07:45.788Z</time>
      </trkpt>
      <trkpt lat="45.618" lon="5.27632">
        <ele>225</ele>
        <time>2021-02-28T09:07:46.788Z</time>
      </trkpt>
      <trkpt lat="45.61802" lon="5.27623">
        <ele>225</ele>
        <time>2021-02-28T09:07:47.788Z</time>
      </trkpt>
      <trkpt lat="45.61805" lon="5.27613">
        <ele>224</ele>
        <time>2021-02-28T09:07:48.787Z</time>
      </trkpt>
      <trkpt lat="45.61807" lon="5.27604">
        <ele>224</ele>
        <time>2021-02-28T09:07:49.788Z</time>
      </trkpt>
      <trkpt lat="45.6181" lon="5.27595">
        <ele>224</ele>
        <time>2021-02-28T09:07:50.788Z</time>
      </trkpt>
      <trkpt lat="45.61812" lon="5.27586">
        <ele>224</ele>
        <time>2021-02-28T09:07:51.788Z</time>
      </trkpt>
      <trkpt lat="45.61815" lon="5.27577">
        <ele>223</ele>
        <time>2021-02-28T09:07:52.788Z</time>
      </trkpt>
      <trkpt lat="45.61817" lon="5.27568">
        <ele>223</ele>
        <time>2021-02-28T09:07:53.788Z</time>
      </trkpt>
      <trkpt lat="45.6182" lon="5.27559">
        <ele>223</ele>
        <time>2021-02-28T09:07:54.788Z</time>
      </trkpt>
      <trkpt lat="45.61822" lon="5.2755">
        <ele>223</ele>
        <time>2021-02-28T09:07:55.788Z</time>
      </trkpt>
      <trkpt lat="45.61824" lon="5.27542">
        <ele>223</ele>
        <time>2021-02-28T09:07:56.788Z</time>
      </trkpt>
      <trkpt lat="45.61826" lon="5.27534">
        <ele>222</ele>
        <time>2021-02-28T09:07:57.788Z</time>
      </trkpt>
      <trkpt lat="45.61829" lon="5.27526">
        <ele>222</ele>
        <time>2021-02-28T09:07:58.788Z</time>
      </trkpt>
      <trkpt lat="45.61831" lon="5.27518">
        <ele>222</ele>
        <time>2021-02-28T09:07:59.788Z</time>
      </trkpt>
      <trkpt lat="45.61834" lon="5.27511">
        <ele>222</ele>
        <time>2021-02-28T09:08:00.788Z</time>
      </trkpt>
      <trkpt lat="45.61837" lon="5.27504">
        <ele>222</ele>
        <time>2021-02-28T09:08:01.788Z</time>
      </trkpt>
      <trkpt lat="45.61841" lon="5.27498">
        <ele>222</ele>
        <time>2021-02-28T09:08:02.787Z</time>
      </trkpt>
      <trkpt lat="45.61846" lon="5.27495">
        <ele>222</ele>
        <time>2021-02-28T09:08:03.788Z</time>
      </trkpt>
      <trkpt lat="45.61851" lon="5.27493">
        <ele>222</ele>
        <time>2021-02-28T09:08:04.788Z</time>
      </trkpt>
      <trkpt lat="45.61856" lon="5.27493">
        <ele>221</ele>
        <time>2021-02-28T09:08:05.788Z</time>
      </trkpt>
      <trkpt lat="45.61861" lon="5.27496">
        <ele>221</ele>
        <time>2021-02-28T09:08:06.788Z</time>
      </trkpt>
      <trkpt lat="45.61866" lon="5.27499">
        <ele>221</ele>
        <time>2021-02-28T09:08:07.787Z</time>
      </trkpt>
      <trkpt lat="45.61871" lon="5.27504">
        <ele>221</ele>
        <time>2021-02-28T09:08:08.788Z</time>
      </trkpt>
      <trkpt lat="45.61876" lon="5.27508">
        <ele>221</ele>
        <time>2021-02-28T09:08:09.788Z</time>
      </trkpt>
      <trkpt lat="45.61881" lon="5.27512">
        <ele>222</ele>
        <time>2021-02-28T09:08:10.788Z</time>
      </trkpt>
      <trkpt lat="45.61886" lon="5.27516">
        <ele>222</ele>
        <time>2021-02-28T09:08:11.787Z</time>
      </trkpt>
      <trkpt lat="45.61891" lon="5.2752">
        <ele>222</ele>
        <time>2021-02-28T09:08:12.788Z</time>
      </trkpt>
      <trkpt lat="45.61896" lon="5.27524">
        <ele>222</ele>
        <time>2021-02-28T09:08:13.788Z</time>
      </trkpt>
      <trkpt lat="45.61901" lon="5.27528">
        <ele>222</ele>
        <time>2021-02-28T09:08:14.787Z</time>
      </trkpt>
      <trkpt lat="45.61905" lon="5.27532">
        <ele>222</ele>
        <time>2021-02-28T09:08:15.788Z</time>
      </trkpt>
      <trkpt lat="45.6191" lon="5.27537">
        <ele>221</ele>
        <time>2021-02-28T09:08:16.788Z</time>
      </trkpt>
      <trkpt lat="45.61915" lon="5.27541">
        <ele>222</ele>
        <time>2021-02-28T09:08:17.787Z</time>
      </trkpt>
      <trkpt lat="45.6192" lon="5.27545">
        <ele>222</ele>
        <time>2021-02-28T09:08:18.788Z</time>
      </trkpt>
      <trkpt lat="45.61925" lon="5.27549">
        <ele>222</ele>
        <time>2021-02-28T09:08:19.788Z</time>
      </trkpt>
      <trkpt lat="45.61929" lon="5.27553">
        <ele>222</ele>
        <time>2021-02-28T09:08:20.788Z</time>
      </trkpt>
      <trkpt lat="45.61934" lon="5.27557">
        <ele>222</ele>
        <time>2021-02-28T09:08:21.788Z</time>
      </trkpt>
      <trkpt lat="45.61938" lon="5.27561">
        <ele>222</ele>
        <time>2021-02-28T09:08:22.788Z</time>
      </trkpt>
      <trkpt lat="45.61943" lon="5.27565">
        <ele>222</ele>
        <time>2021-02-28T09:08:23.787Z</time>
      </trkpt>
      <trkpt lat="45.61947" lon="5.2757">
        <ele>223</ele>
        <time>2021-02-28T09:08:24.788Z</time>
      </trkpt>
      <trkpt lat="45.61951" lon="5.27574">
        <ele>223</ele>
        <time>2021-02-28T09:08:25.788Z</time>
      </trkpt>
      <trkpt lat="45.61955" lon="5.27578">
        <ele>223</ele>
        <time>2021-02-28T09:08:26.787Z</time>
      </trkpt>
      <trkpt lat="45.61959" lon="5.27583">
        <ele>223</ele>
        <time>2021-02-28T09:08:27.788Z</time>
      </trkpt>
      <trkpt lat="45.61963" lon="5.27588">
        <ele>222</ele>
        <time>2021-02-28T09:08:28.788Z</time>
      </trkpt>
      <trkpt lat="45.61967" lon="5.27593">
        <ele>222</ele>
        <time>2021-02-28T09:08:29.788Z</time>
      </trkpt>
      <trkpt lat="45.6197" lon="5.27598">
        <ele>222</ele>
        <time>2021-02-28T09:08:30.788Z</time>
      </trkpt>
      <trkpt lat="45.61973" lon="5.27604">
        <ele>222</ele>
        <time>2021-02-28T09:08:31.787Z</time>
      </trkpt>
      <trkpt lat="45.61976" lon="5.2761">
        <ele>222</ele>
        <time>2021-02-28T09:08:32.788Z</time>
      </trkpt>
      <trkpt lat="45.61978" lon="5.27615">
        <ele>221</ele>
        <time>2021-02-28T09:08:33.788Z</time>
      </trkpt>
      <trkpt lat="45.6198" lon="5.2762">
        <ele>221</ele>
        <time>2021-02-28T09:08:34.788Z</time>
      </trkpt>
      <trkpt lat="45.61983" lon="5.27624">
        <ele>221</ele>
        <time>2021-02-28T09:08:35.788Z</time>
      </trkpt>
      <trkpt lat="45.61985" lon="5.27628">
        <ele>221</ele>
        <time>2021-02-28T09:08:36.787Z</time>
      </trkpt>
      <trkpt lat="45.61987" lon="5.2763">
        <ele>221</ele>
        <time>2021-02-28T09:08:37.788Z</time>
      </trkpt>
      <trkpt lat="45.6199" lon="5.27631">
        <ele>222</ele>
        <time>2021-02-28T09:08:38.788Z</time>
      </trkpt>
      <trkpt lat="45.61992" lon="5.27632">
        <ele>222</ele>
        <time>2021-02-28T09:08:39.788Z</time>
      </trkpt>
      <trkpt lat="45.61994" lon="5.27634">
        <ele>223</ele>
        <time>2021-02-28T09:08:40.788Z</time>
      </trkpt>
      <trkpt lat="45.61996" lon="5.27636">
        <ele>223</ele>
        <time>2021-02-28T09:08:41.787Z</time>
      </trkpt>
      <trkpt lat="45.61998" lon="5.27639">
        <ele>223</ele>
        <time>2021-02-28T09:08:42.788Z</time>
      </trkpt>
      <trkpt lat="45.62" lon="5.27643">
        <ele>223</ele>
        <time>2021-02-28T09:08:43.788Z</time>
      </trkpt>
      <trkpt lat="45.62002" lon="5.27648">
        <ele>223</ele>
        <time>2021-02-28T09:08:44.787Z</time>
      </trkpt>
      <trkpt lat="45.62004" lon="5.27653">
        <ele>223</ele>
        <time>2021-02-28T09:08:45.787Z</time>
      </trkpt>
      <trkpt lat="45.62006" lon="5.27659">
        <ele>223</ele>
        <time>2021-02-28T09:08:46.788Z</time>
      </trkpt>
      <trkpt lat="45.62008" lon="5.27665">
        <ele>223</ele>
        <time>2021-02-28T09:08:47.787Z</time>
      </trkpt>
      <trkpt lat="45.6201" lon="5.27672">
        <ele>223</ele>
        <time>2021-02-28T09:08:48.788Z</time>
      </trkpt>
      <trkpt lat="45.62013" lon="5.27679">
        <ele>223</ele>
        <time>2021-02-28T09:08:49.787Z</time>
      </trkpt>
      <trkpt lat="45.62015" lon="5.27686">
        <ele>224</ele>
        <time>2021-02-28T09:08:50.788Z</time>
      </trkpt>
      <trkpt lat="45.62017" lon="5.27693">
        <ele>224</ele>
        <time>2021-02-28T09:08:51.787Z</time>
      </trkpt>
      <trkpt lat="45.6202" lon="5.27699">
        <ele>224</ele>
        <time>2021-02-28T09:08:52.787Z</time>
      </trkpt>
      <trkpt lat="45.62022" lon="5.27706">
        <ele>224</ele>
        <time>2021-02-28T09:08:53.788Z</time>
      </trkpt>
      <trkpt lat="45.62024" lon="5.27713">
        <ele>224</ele>
        <time>2021-02-28T09:08:54.788Z</time>
      </trkpt>
      <trkpt lat="45.62026" lon="5.2772">
        <ele>224</ele>
        <time>2021-02-28T09:08:55.787Z</time>
      </trkpt>
      <trkpt lat="45.62028" lon="5.27726">
        <ele>224</ele>
        <time>2021-02-28T09:08:56.788Z</time>
      </trkpt>
      <trkpt lat="45.6203" lon="5.27733">
        <ele>224</ele>
        <time>2021-02-28T09:08:57.787Z</time>
      </trkpt>
      <trkpt lat="45.62032" lon="5.27739">
        <ele>224</ele>
        <time>2021-02-28T09:08:58.788Z</time>
      </trkpt>
      <trkpt lat="45.62034" lon="5.27745">
        <ele>224</ele>
        <time>2021-02-28T09:08:59.787Z</time>
      </trkpt>
      <trkpt lat="45.62036" lon="5.27751">
        <ele>224</ele>
        <time>2021-02-28T09:09:00.787Z</time>
      </trkpt>
      <trkpt lat="45.62038" lon="5.27755">
        <ele>224</ele>
        <time>2021-02-28T09:09:01.787Z</time>
      </trkpt>
      <trkpt lat="45.6204" lon="5.27762">
        <ele>224</ele>
        <time>2021-02-28T09:09:02.787Z</time>
      </trkpt>
      <trkpt lat="45.62042" lon="5.27768">
        <ele>224</ele>
        <time>2021-02-28T09:09:03.788Z</time>
      </trkpt>
      <trkpt lat="45.62044" lon="5.27774">
        <ele>224</ele>
        <time>2021-02-28T09:09:04.787Z</time>
      </trkpt>
      <trkpt lat="45.62046" lon="5.2778">
        <ele>224</ele>
        <time>2021-02-28T09:09:05.787Z</time>
      </trkpt>
      <trkpt lat="45.62048" lon="5.27785">
        <ele>224</ele>
        <time>2021-02-28T09:09:06.787Z</time>
      </trkpt>
      <trkpt lat="45.62049" lon="5.27791">
        <ele>224</ele>
        <time>2021-02-28T09:09:07.787Z</time>
      </trkpt>
      <trkpt lat="45.62051" lon="5.27796">
        <ele>224</ele>
        <time>2021-02-28T09:09:08.788Z</time>
      </trkpt>
      <trkpt lat="45.62052" lon="5.27802">
        <ele>224</ele>
        <time>2021-02-28T09:09:09.788Z</time>
      </trkpt>
      <trkpt lat="45.62054" lon="5.27808">
        <ele>225</ele>
        <time>2021-02-28T09:09:10.787Z</time>
      </trkpt>
      <trkpt lat="45.62056" lon="5.27813">
        <ele>225</ele>
        <time>2021-02-28T09:09:11.788Z</time>
      </trkpt>
      <trkpt lat="45.62058" lon="5.27819">
        <ele>225</ele>
        <time>2021-02-28T09:09:12.787Z</time>
      </trkpt>
      <trkpt lat="45.62061" lon="5.27824">
        <ele>225</ele>
        <time>2021-02-28T09:09:13.788Z</time>
      </trkpt>
      <trkpt lat="45.62062" lon="5.27828">
        <ele>224</ele>
        <time>2021-02-28T09:09:14.787Z</time>
      </trkpt>
      <trkpt lat="45.62065" lon="5.27835">
        <ele>224</ele>
        <time>2021-02-28T09:09:15.788Z</time>
      </trkpt>
      <trkpt lat="45.62067" lon="5.2784">
        <ele>224</ele>
        <time>2021-02-28T09:09:16.788Z</time>
      </trkpt>
      <trkpt lat="45.62069" lon="5.27845">
        <ele>224</ele>
        <time>2021-02-28T09:09:17.788Z</time>
      </trkpt>
      <trkpt lat="45.62071" lon="5.2785">
        <ele>224</ele>
        <time>2021-02-28T09:09:18.787Z</time>
      </trkpt>
      <trkpt lat="45.62073" lon="5.27855">
        <ele>224</ele>
        <time>2021-02-28T09:09:19.788Z</time>
      </trkpt>
      <trkpt lat="45.62075" lon="5.2786">
        <ele>224</ele>
        <time>2021-02-28T09:09:20.787Z</time>
      </trkpt>
      <trkpt lat="45.62078" lon="5.27864">
        <ele>224</ele>
        <time>2021-02-28T09:09:21.787Z</time>
      </trkpt>
      <trkpt lat="45.6208" lon="5.27868">
        <ele>224</ele>
        <time>2021-02-28T09:09:22.788Z</time>
      </trkpt>
      <trkpt lat="45.62082" lon="5.27873">
        <ele>224</ele>
        <time>2021-02-28T09:09:23.787Z</time>
      </trkpt>
      <trkpt lat="45.62084" lon="5.27879">
        <ele>225</ele>
        <time>2021-02-28T09:09:24.787Z</time>
      </trkpt>
      <trkpt lat="45.62087" lon="5.27883">
        <ele>225</ele>
        <time>2021-02-28T09:09:25.788Z</time>
      </trkpt>
      <trkpt lat="45.62089" lon="5.27888">
        <ele>225</ele>
        <time>2021-02-28T09:09:26.787Z</time>
      </trkpt>
      <trkpt lat="45.62091" lon="5.27891">
        <ele>225</ele>
        <time>2021-02-28T09:09:27.788Z</time>
      </trkpt>
      <trkpt lat="45.62093" lon="5.27896">
        <ele>225</ele>
        <time>2021-02-28T09:09:28.787Z</time>
      </trkpt>
      <trkpt lat="45.62095" lon="5.27901">
        <ele>226</ele>
        <time>2021-02-28T09:09:29.787Z</time>
      </trkpt>
      <trkpt lat="45.62097" lon="5.27906">
        <ele>226</ele>
        <time>2021-02-28T09:09:30.788Z</time>
      </trkpt>
      <trkpt lat="45.62099" lon="5.27909">
        <ele>226</ele>
        <time>2021-02-28T09:09:31.788Z</time>
      </trkpt>
      <trkpt lat="45.62101" lon="5.27914">
        <ele>226</ele>
        <time>2021-02-28T09:09:32.787Z</time>
      </trkpt>
      <trkpt lat="45.62104" lon="5.2792">
        <ele>227</ele>
        <time>2021-02-28T09:09:33.788Z</time>
      </trkpt>
      <trkpt lat="45.62107" lon="5.27925">
        <ele>227</ele>
        <time>2021-02-28T09:09:34.787Z</time>
      </trkpt>
      <trkpt lat="45.6211" lon="5.2793">
        <ele>227</ele>
        <time>2021-02-28T09:09:35.787Z</time>
      </trkpt>
      <trkpt lat="45.62112" lon="5.27935">
        <ele>228</ele>
        <time>2021-02-28T09:09:36.787Z</time>
      </trkpt>
      <trkpt lat="45.62114" lon="5.27939">
        <ele>228</ele>
        <time>2021-02-28T09:09:37.788Z</time>
      </trkpt>
      <trkpt lat="45.62117" lon="5.27945">
        <ele>227</ele>
        <time>2021-02-28T09:09:38.788Z</time>
      </trkpt>
      <trkpt lat="45.62119" lon="5.2795">
        <ele>227</ele>
        <time>2021-02-28T09:09:39.788Z</time>
      </trkpt>
      <trkpt lat="45.62122" lon="5.27955">
        <ele>227</ele>
        <time>2021-02-28T09:09:40.787Z</time>
      </trkpt>
      <trkpt lat="45.62125" lon="5.27959">
        <ele>228</ele>
        <time>2021-02-28T09:09:41.787Z</time>
      </trkpt>
      <trkpt lat="45.62127" lon="5.27964">
        <ele>228</ele>
        <time>2021-02-28T09:09:42.788Z</time>
      </trkpt>
      <trkpt lat="45.62131" lon="5.27969">
        <ele>228</ele>
        <time>2021-02-28T09:09:43.788Z</time>
      </trkpt>
      <trkpt lat="45.62134" lon="5.27973">
        <ele>228</ele>
        <time>2021-02-28T09:09:44.787Z</time>
      </trkpt>
      <trkpt lat="45.62137" lon="5.27979">
        <ele>228</ele>
        <time>2021-02-28T09:09:45.787Z</time>
      </trkpt>
      <trkpt lat="45.62141" lon="5.27984">
        <ele>228</ele>
        <time>2021-02-28T09:09:46.787Z</time>
      </trkpt>
      <trkpt lat="45.62144" lon="5.27989">
        <ele>228</ele>
        <time>2021-02-28T09:09:47.787Z</time>
      </trkpt>
      <trkpt lat="45.62147" lon="5.27994">
        <ele>228</ele>
        <time>2021-02-28T09:09:48.788Z</time>
      </trkpt>
      <trkpt lat="45.6215" lon="5.27999">
        <ele>228</ele>
        <time>2021-02-28T09:09:49.787Z</time>
      </trkpt>
      <trkpt lat="45.62154" lon="5.28005">
        <ele>227</ele>
        <time>2021-02-28T09:09:50.787Z</time>
      </trkpt>
      <trkpt lat="45.62157" lon="5.28009">
        <ele>228</ele>
        <time>2021-02-28T09:09:51.788Z</time>
      </trkpt>
      <trkpt lat="45.6216" lon="5.28015">
        <ele>228</ele>
        <time>2021-02-28T09:09:52.787Z</time>
      </trkpt>
      <trkpt lat="45.62164" lon="5.28019">
        <ele>228</ele>
        <time>2021-02-28T09:09:53.788Z</time>
      </trkpt>
      <trkpt lat="45.62167" lon="5.28024">
        <ele>229</ele>
        <time>2021-02-28T09:09:54.787Z</time>
      </trkpt>
      <trkpt lat="45.62171" lon="5.28029">
        <ele>229</ele>
        <time>2021-02-28T09:09:55.787Z</time>
      </trkpt>
      <trkpt lat="45.62175" lon="5.28034">
        <ele>230</ele>
        <time>2021-02-28T09:09:56.787Z</time>
      </trkpt>
      <trkpt lat="45.62178" lon="5.28039">
        <ele>230</ele>
        <time>2021-02-28T09:09:57.787Z</time>
      </trkpt>
      <trkpt lat="45.62182" lon="5.28044">
        <ele>230</ele>
        <time>2021-02-28T09:09:58.788Z</time>
      </trkpt>
      <trkpt lat="45.62186" lon="5.28049">
        <ele>230</ele>
        <time>2021-02-28T09:09:59.788Z</time>
      </trkpt>
      <trkpt lat="45.62189" lon="5.28053">
        <ele>230</ele>
        <time>2021-02-28T09:10:00.787Z</time>
      </trkpt>
      <trkpt lat="45.62192" lon="5.28057">
        <ele>230</ele>
        <time>2021-02-28T09:10:01.787Z</time>
      </trkpt>
      <trkpt lat="45.62196" lon="5.28061">
        <ele>230</ele>
        <time>2021-02-28T09:10:02.787Z</time>
      </trkpt>
      <trkpt lat="45.62199" lon="5.28065">
        <ele>231</ele>
        <time>2021-02-28T09:10:03.788Z</time>
      </trkpt>
      <trkpt lat="45.62202" lon="5.28069">
        <ele>231</ele>
        <time>2021-02-28T09:10:04.787Z</time>
      </trkpt>
      <trkpt lat="45.62204" lon="5.28072">
        <ele>231</ele>
        <time>2021-02-28T09:10:05.787Z</time>
      </trkpt>
      <trkpt lat="45.62207" lon="5.28076">
        <ele>232</ele>
        <time>2021-02-28T09:10:06.787Z</time>
      </trkpt>
      <trkpt lat="45.62209" lon="5.28079">
        <ele>232</ele>
        <time>2021-02-28T09:10:07.787Z</time>
      </trkpt>
      <trkpt lat="45.62212" lon="5.28081">
        <ele>232</ele>
        <time>2021-02-28T09:10:08.788Z</time>
      </trkpt>
      <trkpt lat="45.62215" lon="5.28086">
        <ele>232</ele>
        <time>2021-02-28T09:10:09.788Z</time>
      </trkpt>
      <trkpt lat="45.62218" lon="5.2809">
        <ele>231</ele>
        <time>2021-02-28T09:10:10.787Z</time>
      </trkpt>
      <trkpt lat="45.62222" lon="5.28094">
        <ele>231</ele>
        <time>2021-02-28T09:10:11.788Z</time>
      </trkpt>
      <trkpt lat="45.62226" lon="5.28099">
        <ele>231</ele>
        <time>2021-02-28T09:10:12.788Z</time>
      </trkpt>
      <trkpt lat="45.62229" lon="5.28104">
        <ele>231</ele>
        <time>2021-02-28T09:10:13.788Z</time>
      </trkpt>
      <trkpt lat="45.62234" lon="5.28109">
        <ele>231</ele>
        <time>2021-02-28T09:10:14.787Z</time>
      </trkpt>
      <trkpt lat="45.62238" lon="5.28114">
        <ele>231</ele>
        <time>2021-02-28T09:10:15.787Z</time>
      </trkpt>
      <trkpt lat="45.62242" lon="5.28119">
        <ele>231</ele>
        <time>2021-02-28T09:10:16.788Z</time>
      </trkpt>
      <trkpt lat="45.62245" lon="5.28123">
        <ele>230</ele>
        <time>2021-02-28T09:10:17.788Z</time>
      </trkpt>
      <trkpt lat="45.6225" lon="5.28128">
        <ele>230</ele>
        <time>2021-02-28T09:10:18.788Z</time>
      </trkpt>
      <trkpt lat="45.62255" lon="5.28135">
        <ele>230</ele>
        <time>2021-02-28T09:10:19.787Z</time>
      </trkpt>
      <trkpt lat="45.6226" lon="5.2814">
        <ele>229</ele>
        <time>2021-02-28T09:10:20.788Z</time>
      </trkpt>
      <trkpt lat="45.62264" lon="5.28146">
        <ele>229</ele>
        <time>2021-02-28T09:10:21.787Z</time>
      </trkpt>
      <trkpt lat="45.62269" lon="5.28151">
        <ele>229</ele>
        <time>2021-02-28T09:10:22.787Z</time>
      </trkpt>
      <trkpt lat="45.62274" lon="5.28157">
        <ele>229</ele>
        <time>2021-02-28T09:10:23.788Z</time>
      </trkpt>
      <trkpt lat="45.62279" lon="5.28163">
        <ele>228</ele>
        <time>2021-02-28T09:10:24.787Z</time>
      </trkpt>
      <trkpt lat="45.62284" lon="5.28169">
        <ele>229</ele>
        <time>2021-02-28T09:10:25.788Z</time>
      </trkpt>
      <trkpt lat="45.62289" lon="5.28175">
        <ele>229</ele>
        <time>2021-02-28T09:10:26.787Z</time>
      </trkpt>
      <trkpt lat="45.62295" lon="5.28182">
        <ele>229</ele>
        <time>2021-02-28T09:10:27.787Z</time>
      </trkpt>
      <trkpt lat="45.623" lon="5.28188">
        <ele>229</ele>
        <time>2021-02-28T09:10:28.788Z</time>
      </trkpt>
      <trkpt lat="45.62304" lon="5.28194">
        <ele>228</ele>
        <time>2021-02-28T09:10:29.787Z</time>
      </trkpt>
      <trkpt lat="45.62308" lon="5.28199">
        <ele>228</ele>
        <time>2021-02-28T09:10:30.788Z</time>
      </trkpt>
      <trkpt lat="45.62311" lon="5.28203">
        <ele>228</ele>
        <time>2021-02-28T09:10:31.787Z</time>
      </trkpt>
      <trkpt lat="45.62314" lon="5.28207">
        <ele>228</ele>
        <time>2021-02-28T09:10:32.788Z</time>
      </trkpt>
      <trkpt lat="45.62317" lon="5.28211">
        <ele>228</ele>
        <time>2021-02-28T09:10:33.787Z</time>
      </trkpt>
      <trkpt lat="45.6232" lon="5.28215">
        <ele>228</ele>
        <time>2021-02-28T09:10:34.787Z</time>
      </trkpt>
      <trkpt lat="45.62323" lon="5.28218">
        <ele>228</ele>
        <time>2021-02-28T09:10:35.787Z</time>
      </trkpt>
      <trkpt lat="45.62327" lon="5.28223">
        <ele>229</ele>
        <time>2021-02-28T09:10:36.787Z</time>
      </trkpt>
      <trkpt lat="45.62331" lon="5.28228">
        <ele>229</ele>
        <time>2021-02-28T09:10:37.788Z</time>
      </trkpt>
      <trkpt lat="45.62335" lon="5.28233">
        <ele>228</ele>
        <time>2021-02-28T09:10:38.788Z</time>
      </trkpt>
      <trkpt lat="45.62339" lon="5.28238">
        <ele>228</ele>
        <time>2021-02-28T09:10:39.787Z</time>
      </trkpt>
      <trkpt lat="45.62344" lon="5.28243">
        <ele>228</ele>
        <time>2021-02-28T09:10:40.788Z</time>
      </trkpt>
      <trkpt lat="45.62349" lon="5.28249">
        <ele>228</ele>
        <time>2021-02-28T09:10:41.788Z</time>
      </trkpt>
      <trkpt lat="45.62353" lon="5.28255">
        <ele>227</ele>
        <time>2021-02-28T09:10:42.787Z</time>
      </trkpt>
      <trkpt lat="45.62358" lon="5.28261">
        <ele>227</ele>
        <time>2021-02-28T09:10:43.788Z</time>
      </trkpt>
      <trkpt lat="45.62362" lon="5.28266">
        <ele>226</ele>
        <time>2021-02-28T09:10:44.788Z</time>
      </trkpt>
      <trkpt lat="45.62368" lon="5.28274">
        <ele>226</ele>
        <time>2021-02-28T09:10:45.788Z</time>
      </trkpt>
      <trkpt lat="45.62373" lon="5.2828">
        <ele>226</ele>
        <time>2021-02-28T09:10:46.788Z</time>
      </trkpt>
      <trkpt lat="45.62379" lon="5.28287">
        <ele>226</ele>
        <time>2021-02-28T09:10:47.788Z</time>
      </trkpt>
      <trkpt lat="45.62384" lon="5.28294">
        <ele>225</ele>
        <time>2021-02-28T09:10:48.787Z</time>
      </trkpt>
      <trkpt lat="45.62389" lon="5.28301">
        <ele>225</ele>
        <time>2021-02-28T09:10:49.787Z</time>
      </trkpt>
      <trkpt lat="45.62394" lon="5.28308">
        <ele>224</ele>
        <time>2021-02-28T09:10:50.787Z</time>
      </trkpt>
      <trkpt lat="45.624" lon="5.28315">
        <ele>224</ele>
        <time>2021-02-28T09:10:51.787Z</time>
      </trkpt>
      <trkpt lat="45.62405" lon="5.28321">
        <ele>224</ele>
        <time>2021-02-28T09:10:52.788Z</time>
      </trkpt>
      <trkpt lat="45.6241" lon="5.28327">
        <ele>224</ele>
        <time>2021-02-28T09:10:53.788Z</time>
      </trkpt>
      <trkpt lat="45.62416" lon="5.28334">
        <ele>225</ele>
        <time>2021-02-28T09:10:54.788Z</time>
      </trkpt>
      <trkpt lat="45.62421" lon="5.28341">
        <ele>225</ele>
        <time>2021-02-28T09:10:55.788Z</time>
      </trkpt>
      <trkpt lat="45.62427" lon="5.28348">
        <ele>225</ele>
        <time>2021-02-28T09:10:56.788Z</time>
      </trkpt>
      <trkpt lat="45.62431" lon="5.28353">
        <ele>224</ele>
        <time>2021-02-28T09:10:57.788Z</time>
      </trkpt>
      <trkpt lat="45.62437" lon="5.2836">
        <ele>224</ele>
        <time>2021-02-28T09:10:58.788Z</time>
      </trkpt>
      <trkpt lat="45.62443" lon="5.28368">
        <ele>224</ele>
        <time>2021-02-28T09:10:59.788Z</time>
      </trkpt>
      <trkpt lat="45.62448" lon="5.28376">
        <ele>224</ele>
        <time>2021-02-28T09:11:00.788Z</time>
      </trkpt>
      <trkpt lat="45.62454" lon="5.28383">
        <ele>224</ele>
        <time>2021-02-28T09:11:01.788Z</time>
      </trkpt>
      <trkpt lat="45.62457" lon="5.28389">
        <ele>224</ele>
        <time>2021-02-28T09:11:02.788Z</time>
      </trkpt>
      <trkpt lat="45.62462" lon="5.28396">
        <ele>224</ele>
        <time>2021-02-28T09:11:03.787Z</time>
      </trkpt>
      <trkpt lat="45.62467" lon="5.28406">
        <ele>224</ele>
        <time>2021-02-28T09:11:04.788Z</time>
      </trkpt>
      <trkpt lat="45.62471" lon="5.28413">
        <ele>224</ele>
        <time>2021-02-28T09:11:05.788Z</time>
      </trkpt>
      <trkpt lat="45.62475" lon="5.28422">
        <ele>224</ele>
        <time>2021-02-28T09:11:06.788Z</time>
      </trkpt>
      <trkpt lat="45.62478" lon="5.2843">
        <ele>224</ele>
        <time>2021-02-28T09:11:07.788Z</time>
      </trkpt>
      <trkpt lat="45.6248" lon="5.28439">
        <ele>224</ele>
        <time>2021-02-28T09:11:08.788Z</time>
      </trkpt>
      <trkpt lat="45.62482" lon="5.28448">
        <ele>223</ele>
        <time>2021-02-28T09:11:09.788Z</time>
      </trkpt>
      <trkpt lat="45.62484" lon="5.28458">
        <ele>223</ele>
        <time>2021-02-28T09:11:10.788Z</time>
      </trkpt>
      <trkpt lat="45.62485" lon="5.28465">
        <ele>222</ele>
        <time>2021-02-28T09:11:11.788Z</time>
      </trkpt>
      <trkpt lat="45.62487" lon="5.28474">
        <ele>222</ele>
        <time>2021-02-28T09:11:12.788Z</time>
      </trkpt>
      <trkpt lat="45.62488" lon="5.28485">
        <ele>221</ele>
        <time>2021-02-28T09:11:13.788Z</time>
      </trkpt>
      <trkpt lat="45.62489" lon="5.28494">
        <ele>221</ele>
        <time>2021-02-28T09:11:14.788Z</time>
      </trkpt>
      <trkpt lat="45.6249" lon="5.28501">
        <ele>221</ele>
        <time>2021-02-28T09:11:15.787Z</time>
      </trkpt>
      <trkpt lat="45.62491" lon="5.28509">
        <ele>221</ele>
        <time>2021-02-28T09:11:16.788Z</time>
      </trkpt>
      <trkpt lat="45.62493" lon="5.28519">
        <ele>221</ele>
        <time>2021-02-28T09:11:17.788Z</time>
      </trkpt>
      <trkpt lat="45.62494" lon="5.28528">
        <ele>221</ele>
        <time>2021-02-28T09:11:18.787Z</time>
      </trkpt>
      <trkpt lat="45.62496" lon="5.28534">
        <ele>221</ele>
        <time>2021-02-28T09:11:19.788Z</time>
      </trkpt>
      <trkpt lat="45.62498" lon="5.28542">
        <ele>220</ele>
        <time>2021-02-28T09:11:20.788Z</time>
      </trkpt>
      <trkpt lat="45.62502" lon="5.2855">
        <ele>220</ele>
        <time>2021-02-28T09:11:21.788Z</time>
      </trkpt>
      <trkpt lat="45.62505" lon="5.28557">
        <ele>221</ele>
        <time>2021-02-28T09:11:22.788Z</time>
      </trkpt>
      <trkpt lat="45.6251" lon="5.28566">
        <ele>221</ele>
        <time>2021-02-28T09:11:23.788Z</time>
      </trkpt>
      <trkpt lat="45.62514" lon="5.28573">
        <ele>221</ele>
        <time>2021-02-28T09:11:24.788Z</time>
      </trkpt>
      <trkpt lat="45.62518" lon="5.28578">
        <ele>221</ele>
        <time>2021-02-28T09:11:25.788Z</time>
      </trkpt>
      <trkpt lat="45.62522" lon="5.28585">
        <ele>221</ele>
        <time>2021-02-28T09:11:26.788Z</time>
      </trkpt>
      <trkpt lat="45.62528" lon="5.28593">
        <ele>222</ele>
        <time>2021-02-28T09:11:27.788Z</time>
      </trkpt>
      <trkpt lat="45.62532" lon="5.286">
        <ele>223</ele>
        <time>2021-02-28T09:11:28.788Z</time>
      </trkpt>
      <trkpt lat="45.62536" lon="5.28605">
        <ele>223</ele>
        <time>2021-02-28T09:11:29.788Z</time>
      </trkpt>
      <trkpt lat="45.6254" lon="5.28612">
        <ele>223</ele>
        <time>2021-02-28T09:11:30.788Z</time>
      </trkpt>
      <trkpt lat="45.62544" lon="5.28619">
        <ele>223</ele>
        <time>2021-02-28T09:11:31.787Z</time>
      </trkpt>
      <trkpt lat="45.62549" lon="5.28627">
        <ele>223</ele>
        <time>2021-02-28T09:11:32.788Z</time>
      </trkpt>
      <trkpt lat="45.62553" lon="5.28634">
        <ele>223</ele>
        <time>2021-02-28T09:11:33.788Z</time>
      </trkpt>
      <trkpt lat="45.62556" lon="5.28639">
        <ele>223</ele>
        <time>2021-02-28T09:11:34.788Z</time>
      </trkpt>
      <trkpt lat="45.62561" lon="5.28646">
        <ele>223</ele>
        <time>2021-02-28T09:11:35.788Z</time>
      </trkpt>
      <trkpt lat="45.62565" lon="5.28653">
        <ele>223</ele>
        <time>2021-02-28T09:11:36.788Z</time>
      </trkpt>
      <trkpt lat="45.62569" lon="5.28661">
        <ele>223</ele>
        <time>2021-02-28T09:11:37.788Z</time>
      </trkpt>
      <trkpt lat="45.62572" lon="5.28666">
        <ele>223</ele>
        <time>2021-02-28T09:11:38.788Z</time>
      </trkpt>
      <trkpt lat="45.62575" lon="5.28673">
        <ele>223</ele>
        <time>2021-02-28T09:11:39.788Z</time>
      </trkpt>
      <trkpt lat="45.62578" lon="5.2868">
        <ele>223</ele>
        <time>2021-02-28T09:11:40.788Z</time>
      </trkpt>
      <trkpt lat="45.6258" lon="5.28687">
        <ele>223</ele>
        <time>2021-02-28T09:11:41.787Z</time>
      </trkpt>
      <trkpt lat="45.62582" lon="5.28696">
        <ele>223</ele>
        <time>2021-02-28T09:11:42.788Z</time>
      </trkpt>
      <trkpt lat="45.62584" lon="5.28701">
        <ele>223</ele>
        <time>2021-02-28T09:11:43.788Z</time>
      </trkpt>
      <trkpt lat="45.62587" lon="5.28708">
        <ele>224</ele>
        <time>2021-02-28T09:11:44.787Z</time>
      </trkpt>
      <trkpt lat="45.62591" lon="5.28713">
        <ele>224</ele>
        <time>2021-02-28T09:11:45.787Z</time>
      </trkpt>
      <trkpt lat="45.62597" lon="5.28718">
        <ele>224</ele>
        <time>2021-02-28T09:11:46.787Z</time>
      </trkpt>
      <trkpt lat="45.62602" lon="5.28718">
        <ele>224</ele>
        <time>2021-02-28T09:11:47.788Z</time>
      </trkpt>
      <trkpt lat="45.62607" lon="5.28717">
        <ele>225</ele>
        <time>2021-02-28T09:11:48.788Z</time>
      </trkpt>
      <trkpt lat="45.62612" lon="5.28715">
        <ele>225</ele>
        <time>2021-02-28T09:11:49.788Z</time>
      </trkpt>
      <trkpt lat="45.62618" lon="5.28713">
        <ele>224</ele>
        <time>2021-02-28T09:11:50.788Z</time>
      </trkpt>
      <trkpt lat="45.62625" lon="5.28711">
        <ele>224</ele>
        <time>2021-02-28T09:11:51.788Z</time>
      </trkpt>
      <trkpt lat="45.6263" lon="5.2871">
        <ele>224</ele>
        <time>2021-02-28T09:11:52.788Z</time>
      </trkpt>
      <trkpt lat="45.62637" lon="5.2871">
        <ele>224</ele>
        <time>2021-02-28T09:11:53.787Z</time>
      </trkpt>
      <trkpt lat="45.62644" lon="5.28711">
        <ele>224</ele>
        <time>2021-02-28T09:11:54.788Z</time>
      </trkpt>
      <trkpt lat="45.62651" lon="5.28712">
        <ele>223</ele>
        <time>2021-02-28T09:11:55.788Z</time>
      </trkpt>
      <trkpt lat="45.62656" lon="5.28713">
        <ele>223</ele>
        <time>2021-02-28T09:11:56.788Z</time>
      </trkpt>
      <trkpt lat="45.62662" lon="5.28714">
        <ele>223</ele>
        <time>2021-02-28T09:11:57.788Z</time>
      </trkpt>
      <trkpt lat="45.62669" lon="5.28715">
        <ele>223</ele>
        <time>2021-02-28T09:11:58.788Z</time>
      </trkpt>
      <trkpt lat="45.62675" lon="5.28716">
        <ele>223</ele>
        <time>2021-02-28T09:11:59.787Z</time>
      </trkpt>
      <trkpt lat="45.62683" lon="5.28718">
        <ele>223</ele>
        <time>2021-02-28T09:12:00.788Z</time>
      </trkpt>
      <trkpt lat="45.62687" lon="5.28718">
        <ele>223</ele>
        <time>2021-02-28T09:12:01.788Z</time>
      </trkpt>
      <trkpt lat="45.62694" lon="5.2872">
        <ele>223</ele>
        <time>2021-02-28T09:12:02.788Z</time>
      </trkpt>
      <trkpt lat="45.62699" lon="5.28721">
        <ele>223</ele>
        <time>2021-02-28T09:12:03.788Z</time>
      </trkpt>
      <trkpt lat="45.62707" lon="5.28724">
        <ele>223</ele>
        <time>2021-02-28T09:12:04.787Z</time>
      </trkpt>
      <trkpt lat="45.62711" lon="5.28726">
        <ele>223</ele>
        <time>2021-02-28T09:12:05.787Z</time>
      </trkpt>
      <trkpt lat="45.62717" lon="5.28729">
        <ele>223</ele>
        <time>2021-02-28T09:12:06.787Z</time>
      </trkpt>
      <trkpt lat="45.62722" lon="5.28732">
        <ele>223</ele>
        <time>2021-02-28T09:12:07.788Z</time>
      </trkpt>
      <trkpt lat="45.62727" lon="5.28737">
        <ele>222</ele>
        <time>2021-02-28T09:12:08.788Z</time>
      </trkpt>
      <trkpt lat="45.62733" lon="5.28743">
        <ele>222</ele>
        <time>2021-02-28T09:12:09.788Z</time>
      </trkpt>
      <trkpt lat="45.62738" lon="5.28749">
        <ele>222</ele>
        <time>2021-02-28T09:12:10.788Z</time>
      </trkpt>
      <trkpt lat="45.62742" lon="5.28753">
        <ele>221</ele>
        <time>2021-02-28T09:12:11.788Z</time>
      </trkpt>
      <trkpt lat="45.62747" lon="5.28759">
        <ele>221</ele>
        <time>2021-02-28T09:12:12.788Z</time>
      </trkpt>
      <trkpt lat="45.62753" lon="5.28767">
        <ele>221</ele>
        <time>2021-02-28T09:12:13.788Z</time>
      </trkpt>
      <trkpt lat="45.62758" lon="5.28773">
        <ele>222</ele>
        <time>2021-02-28T09:12:14.788Z</time>
      </trkpt>
      <trkpt lat="45.62762" lon="5.28778">
        <ele>222</ele>
        <time>2021-02-28T09:12:15.788Z</time>
      </trkpt>
      <trkpt lat="45.62767" lon="5.28784">
        <ele>222</ele>
        <time>2021-02-28T09:12:16.787Z</time>
      </trkpt>
      <trkpt lat="45.62772" lon="5.28791">
        <ele>222</ele>
        <time>2021-02-28T09:12:17.787Z</time>
      </trkpt>
      <trkpt lat="45.62778" lon="5.28798">
        <ele>222</ele>
        <time>2021-02-28T09:12:18.788Z</time>
      </trkpt>
      <trkpt lat="45.62783" lon="5.28804">
        <ele>222</ele>
        <time>2021-02-28T09:12:19.788Z</time>
      </trkpt>
      <trkpt lat="45.62786" lon="5.28809">
        <ele>221</ele>
        <time>2021-02-28T09:12:20.788Z</time>
      </trkpt>
      <trkpt lat="45.62791" lon="5.28815">
        <ele>221</ele>
        <time>2021-02-28T09:12:21.788Z</time>
      </trkpt>
      <trkpt lat="45.62795" lon="5.28821">
        <ele>221</ele>
        <time>2021-02-28T09:12:22.787Z</time>
      </trkpt>
      <trkpt lat="45.62801" lon="5.28828">
        <ele>221</ele>
        <time>2021-02-28T09:12:23.788Z</time>
      </trkpt>
      <trkpt lat="45.62805" lon="5.28833">
        <ele>222</ele>
        <time>2021-02-28T09:12:24.788Z</time>
      </trkpt>
      <trkpt lat="45.6281" lon="5.28839">
        <ele>222</ele>
        <time>2021-02-28T09:12:25.788Z</time>
      </trkpt>
      <trkpt lat="45.62815" lon="5.28845">
        <ele>222</ele>
        <time>2021-02-28T09:12:26.788Z</time>
      </trkpt>
      <trkpt lat="45.6282" lon="5.28851">
        <ele>222</ele>
        <time>2021-02-28T09:12:27.788Z</time>
      </trkpt>
      <trkpt lat="45.62826" lon="5.28858">
        <ele>222</ele>
        <time>2021-02-28T09:12:28.787Z</time>
      </trkpt>
      <trkpt lat="45.6283" lon="5.28862">
        <ele>222</ele>
        <time>2021-02-28T09:12:29.788Z</time>
      </trkpt>
      <trkpt lat="45.62835" lon="5.28869">
        <ele>222</ele>
        <time>2021-02-28T09:12:30.788Z</time>
      </trkpt>
      <trkpt lat="45.62839" lon="5.28875">
        <ele>222</ele>
        <time>2021-02-28T09:12:31.788Z</time>
      </trkpt>
      <trkpt lat="45.62844" lon="5.28883">
        <ele>222</ele>
        <time>2021-02-28T09:12:32.788Z</time>
      </trkpt>
      <trkpt lat="45.62849" lon="5.28889">
        <ele>222</ele>
        <time>2021-02-28T09:12:33.788Z</time>
      </trkpt>
      <trkpt lat="45.62853" lon="5.28894">
        <ele>222</ele>
        <time>2021-02-28T09:12:34.788Z</time>
      </trkpt>
      <trkpt lat="45.62858" lon="5.289">
        <ele>222</ele>
        <time>2021-02-28T09:12:35.788Z</time>
      </trkpt>
      <trkpt lat="45.62864" lon="5.28907">
        <ele>222</ele>
        <time>2021-02-28T09:12:36.788Z</time>
      </trkpt>
      <trkpt lat="45.62868" lon="5.28912">
        <ele>222</ele>
        <time>2021-02-28T09:12:37.788Z</time>
      </trkpt>
      <trkpt lat="45.62873" lon="5.28918">
        <ele>222</ele>
        <time>2021-02-28T09:12:38.788Z</time>
      </trkpt>
      <trkpt lat="45.62877" lon="5.28923">
        <ele>222</ele>
        <time>2021-02-28T09:12:39.788Z</time>
      </trkpt>
      <trkpt lat="45.62881" lon="5.28928">
        <ele>223</ele>
        <time>2021-02-28T09:12:40.787Z</time>
      </trkpt>
      <trkpt lat="45.62886" lon="5.28933">
        <ele>223</ele>
        <time>2021-02-28T09:12:41.788Z</time>
      </trkpt>
      <trkpt lat="45.62889" lon="5.28938">
        <ele>222</ele>
        <time>2021-02-28T09:12:42.788Z</time>
      </trkpt>
      <trkpt lat="45.62893" lon="5.28943">
        <ele>223</ele>
        <time>2021-02-28T09:12:43.788Z</time>
      </trkpt>
      <trkpt lat="45.62897" lon="5.28947">
        <ele>223</ele>
        <time>2021-02-28T09:12:44.788Z</time>
      </trkpt>
      <trkpt lat="45.629" lon="5.28951">
        <ele>223</ele>
        <time>2021-02-28T09:12:45.788Z</time>
      </trkpt>
      <trkpt lat="45.62904" lon="5.28956">
        <ele>223</ele>
        <time>2021-02-28T09:12:46.788Z</time>
      </trkpt>
      <trkpt lat="45.62908" lon="5.28961">
        <ele>224</ele>
        <time>2021-02-28T09:12:47.788Z</time>
      </trkpt>
      <trkpt lat="45.62911" lon="5.28966">
        <ele>223</ele>
        <time>2021-02-28T09:12:48.788Z</time>
      </trkpt>
      <trkpt lat="45.62915" lon="5.28971">
        <ele>223</ele>
        <time>2021-02-28T09:12:49.787Z</time>
      </trkpt>
      <trkpt lat="45.62919" lon="5.28976">
        <ele>223</ele>
        <time>2021-02-28T09:12:50.788Z</time>
      </trkpt>
      <trkpt lat="45.62923" lon="5.28982">
        <ele>223</ele>
        <time>2021-02-28T09:12:51.788Z</time>
      </trkpt>
      <trkpt lat="45.62927" lon="5.28987">
        <ele>223</ele>
        <time>2021-02-28T09:12:52.788Z</time>
      </trkpt>
      <trkpt lat="45.62932" lon="5.28993">
        <ele>223</ele>
        <time>2021-02-28T09:12:53.788Z</time>
      </trkpt>
      <trkpt lat="45.62936" lon="5.28998">
        <ele>223</ele>
        <time>2021-02-28T09:12:54.788Z</time>
      </trkpt>
      <trkpt lat="45.6294" lon="5.29004">
        <ele>223</ele>
        <time>2021-02-28T09:12:55.788Z</time>
      </trkpt>
      <trkpt lat="45.62945" lon="5.29009">
        <ele>223</ele>
        <time>2021-02-28T09:12:56.788Z</time>
      </trkpt>
      <trkpt lat="45.62949" lon="5.29015">
        <ele>223</ele>
        <time>2021-02-28T09:12:57.788Z</time>
      </trkpt>
      <trkpt lat="45.62953" lon="5.29021">
        <ele>223</ele>
        <time>2021-02-28T09:12:58.787Z</time>
      </trkpt>
      <trkpt lat="45.62957" lon="5.29027">
        <ele>222</ele>
        <time>2021-02-28T09:12:59.788Z</time>
      </trkpt>
      <trkpt lat="45.62962" lon="5.29033">
        <ele>222</ele>
        <time>2021-02-28T09:13:00.788Z</time>
      </trkpt>
      <trkpt lat="45.62966" lon="5.29039">
        <ele>221</ele>
        <time>2021-02-28T09:13:01.788Z</time>
      </trkpt>
      <trkpt lat="45.6297" lon="5.29044">
        <ele>221</ele>
        <time>2021-02-28T09:13:02.788Z</time>
      </trkpt>
      <trkpt lat="45.62974" lon="5.29049">
        <ele>220</ele>
        <time>2021-02-28T09:13:03.788Z</time>
      </trkpt>
      <trkpt lat="45.62978" lon="5.29055">
        <ele>221</ele>
        <time>2021-02-28T09:13:04.788Z</time>
      </trkpt>
      <trkpt lat="45.62982" lon="5.2906">
        <ele>221</ele>
        <time>2021-02-28T09:13:05.788Z</time>
      </trkpt>
      <trkpt lat="45.62986" lon="5.29065">
        <ele>221</ele>
        <time>2021-02-28T09:13:06.788Z</time>
      </trkpt>
      <trkpt lat="45.62991" lon="5.2907">
        <ele>221</ele>
        <time>2021-02-28T09:13:07.787Z</time>
      </trkpt>
      <trkpt lat="45.62995" lon="5.29075">
        <ele>221</ele>
        <time>2021-02-28T09:13:08.788Z</time>
      </trkpt>
      <trkpt lat="45.62998" lon="5.2908">
        <ele>221</ele>
        <time>2021-02-28T09:13:09.788Z</time>
      </trkpt>
      <trkpt lat="45.63002" lon="5.29085">
        <ele>221</ele>
        <time>2021-02-28T09:13:10.788Z</time>
      </trkpt>
      <trkpt lat="45.63006" lon="5.2909">
        <ele>221</ele>
        <time>2021-02-28T09:13:11.788Z</time>
      </trkpt>
      <trkpt lat="45.6301" lon="5.29096">
        <ele>221</ele>
        <time>2021-02-28T09:13:12.788Z</time>
      </trkpt>
      <trkpt lat="45.63014" lon="5.29101">
        <ele>220</ele>
        <time>2021-02-28T09:13:13.788Z</time>
      </trkpt>
      <trkpt lat="45.63019" lon="5.29107">
        <ele>220</ele>
        <time>2021-02-28T09:13:14.788Z</time>
      </trkpt>
      <trkpt lat="45.63023" lon="5.29112">
        <ele>220</ele>
        <time>2021-02-28T09:13:15.788Z</time>
      </trkpt>
      <trkpt lat="45.63028" lon="5.29118">
        <ele>219</ele>
        <time>2021-02-28T09:13:16.788Z</time>
      </trkpt>
      <trkpt lat="45.63032" lon="5.29124">
        <ele>219</ele>
        <time>2021-02-28T09:13:17.788Z</time>
      </trkpt>
      <trkpt lat="45.63037" lon="5.2913">
        <ele>219</ele>
        <time>2021-02-28T09:13:18.788Z</time>
      </trkpt>
      <trkpt lat="45.63041" lon="5.29136">
        <ele>219</ele>
        <time>2021-02-28T09:13:19.788Z</time>
      </trkpt>
      <trkpt lat="45.63046" lon="5.29142">
        <ele>219</ele>
        <time>2021-02-28T09:13:20.788Z</time>
      </trkpt>
      <trkpt lat="45.6305" lon="5.29146">
        <ele>218</ele>
        <time>2021-02-28T09:13:21.788Z</time>
      </trkpt>
      <trkpt lat="45.63055" lon="5.29152">
        <ele>218</ele>
        <time>2021-02-28T09:13:22.788Z</time>
      </trkpt>
      <trkpt lat="45.63059" lon="5.29158">
        <ele>218</ele>
        <time>2021-02-28T09:13:23.788Z</time>
      </trkpt>
      <trkpt lat="45.63064" lon="5.29164">
        <ele>217</ele>
        <time>2021-02-28T09:13:24.787Z</time>
      </trkpt>
      <trkpt lat="45.63069" lon="5.2917">
        <ele>217</ele>
        <time>2021-02-28T09:13:25.788Z</time>
      </trkpt>
      <trkpt lat="45.63073" lon="5.29176">
        <ele>217</ele>
        <time>2021-02-28T09:13:26.787Z</time>
      </trkpt>
      <trkpt lat="45.63078" lon="5.29182">
        <ele>216</ele>
        <time>2021-02-28T09:13:27.787Z</time>
      </trkpt>
      <trkpt lat="45.63082" lon="5.29188">
        <ele>216</ele>
        <time>2021-02-28T09:13:28.787Z</time>
      </trkpt>
      <trkpt lat="45.63087" lon="5.29194">
        <ele>216</ele>
        <time>2021-02-28T09:13:29.787Z</time>
      </trkpt>
      <trkpt lat="45.63092" lon="5.292">
        <ele>216</ele>
        <time>2021-02-28T09:13:30.788Z</time>
      </trkpt>
      <trkpt lat="45.63096" lon="5.29205">
        <ele>216</ele>
        <time>2021-02-28T09:13:31.787Z</time>
      </trkpt>
      <trkpt lat="45.631" lon="5.29211">
        <ele>216</ele>
        <time>2021-02-28T09:13:32.787Z</time>
      </trkpt>
      <trkpt lat="45.63105" lon="5.29218">
        <ele>216</ele>
        <time>2021-02-28T09:13:33.788Z</time>
      </trkpt>
      <trkpt lat="45.63109" lon="5.29222">
        <ele>217</ele>
        <time>2021-02-28T09:13:34.788Z</time>
      </trkpt>
      <trkpt lat="45.63113" lon="5.29227">
        <ele>217</ele>
        <time>2021-02-28T09:13:35.787Z</time>
      </trkpt>
      <trkpt lat="45.63118" lon="5.29233">
        <ele>217</ele>
        <time>2021-02-28T09:13:36.788Z</time>
      </trkpt>
      <trkpt lat="45.63122" lon="5.29239">
        <ele>217</ele>
        <time>2021-02-28T09:13:37.788Z</time>
      </trkpt>
      <trkpt lat="45.63127" lon="5.29244">
        <ele>217</ele>
        <time>2021-02-28T09:13:38.788Z</time>
      </trkpt>
      <trkpt lat="45.63132" lon="5.2925">
        <ele>218</ele>
        <time>2021-02-28T09:13:39.788Z</time>
      </trkpt>
      <trkpt lat="45.63136" lon="5.29256">
        <ele>218</ele>
        <time>2021-02-28T09:13:40.788Z</time>
      </trkpt>
      <trkpt lat="45.63141" lon="5.29262">
        <ele>218</ele>
        <time>2021-02-28T09:13:41.788Z</time>
      </trkpt>
      <trkpt lat="45.63146" lon="5.29268">
        <ele>218</ele>
        <time>2021-02-28T09:13:42.788Z</time>
      </trkpt>
      <trkpt lat="45.63151" lon="5.29274">
        <ele>219</ele>
        <time>2021-02-28T09:13:43.788Z</time>
      </trkpt>
      <trkpt lat="45.63156" lon="5.29281">
        <ele>219</ele>
        <time>2021-02-28T09:13:44.788Z</time>
      </trkpt>
      <trkpt lat="45.6316" lon="5.29286">
        <ele>219</ele>
        <time>2021-02-28T09:13:45.788Z</time>
      </trkpt>
      <trkpt lat="45.63165" lon="5.29292">
        <ele>219</ele>
        <time>2021-02-28T09:13:46.788Z</time>
      </trkpt>
      <trkpt lat="45.6317" lon="5.29298">
        <ele>219</ele>
        <time>2021-02-28T09:13:47.787Z</time>
      </trkpt>
      <trkpt lat="45.63175" lon="5.29304">
        <ele>220</ele>
        <time>2021-02-28T09:13:48.788Z</time>
      </trkpt>
      <trkpt lat="45.6318" lon="5.2931">
        <ele>220</ele>
        <time>2021-02-28T09:13:49.788Z</time>
      </trkpt>
      <trkpt lat="45.63184" lon="5.29316">
        <ele>220</ele>
        <time>2021-02-28T09:13:50.787Z</time>
      </trkpt>
      <trkpt lat="45.63189" lon="5.29323">
        <ele>220</ele>
        <time>2021-02-28T09:13:51.788Z</time>
      </trkpt>
      <trkpt lat="45.63194" lon="5.29329">
        <ele>221</ele>
        <time>2021-02-28T09:13:52.788Z</time>
      </trkpt>
      <trkpt lat="45.63199" lon="5.29335">
        <ele>221</ele>
        <time>2021-02-28T09:13:53.788Z</time>
      </trkpt>
      <trkpt lat="45.63204" lon="5.29341">
        <ele>221</ele>
        <time>2021-02-28T09:13:54.788Z</time>
      </trkpt>
      <trkpt lat="45.63209" lon="5.29347">
        <ele>220</ele>
        <time>2021-02-28T09:13:55.788Z</time>
      </trkpt>
      <trkpt lat="45.63214" lon="5.29353">
        <ele>220</ele>
        <time>2021-02-28T09:13:56.788Z</time>
      </trkpt>
      <trkpt lat="45.63218" lon="5.29359">
        <ele>220</ele>
        <time>2021-02-28T09:13:57.787Z</time>
      </trkpt>
      <trkpt lat="45.63224" lon="5.29366">
        <ele>220</ele>
        <time>2021-02-28T09:13:58.787Z</time>
      </trkpt>
      <trkpt lat="45.63227" lon="5.29371">
        <ele>220</ele>
        <time>2021-02-28T09:13:59.787Z</time>
      </trkpt>
      <trkpt lat="45.63232" lon="5.29377">
        <ele>220</ele>
        <time>2021-02-28T09:14:00.788Z</time>
      </trkpt>
      <trkpt lat="45.63238" lon="5.29384">
        <ele>220</ele>
        <time>2021-02-28T09:14:01.788Z</time>
      </trkpt>
      <trkpt lat="45.63242" lon="5.29389">
        <ele>220</ele>
        <time>2021-02-28T09:14:02.788Z</time>
      </trkpt>
      <trkpt lat="45.63246" lon="5.29395">
        <ele>220</ele>
        <time>2021-02-28T09:14:03.787Z</time>
      </trkpt>
      <trkpt lat="45.63251" lon="5.29402">
        <ele>220</ele>
        <time>2021-02-28T09:14:04.788Z</time>
      </trkpt>
      <trkpt lat="45.63256" lon="5.29408">
        <ele>220</ele>
        <time>2021-02-28T09:14:05.788Z</time>
      </trkpt>
      <trkpt lat="45.63261" lon="5.29413">
        <ele>221</ele>
        <time>2021-02-28T09:14:06.788Z</time>
      </trkpt>
      <trkpt lat="45.63266" lon="5.2942">
        <ele>221</ele>
        <time>2021-02-28T09:14:07.787Z</time>
      </trkpt>
      <trkpt lat="45.63269" lon="5.29425">
        <ele>221</ele>
        <time>2021-02-28T09:14:08.788Z</time>
      </trkpt>
      <trkpt lat="45.63274" lon="5.29431">
        <ele>222</ele>
        <time>2021-02-28T09:14:09.788Z</time>
      </trkpt>
      <trkpt lat="45.63278" lon="5.29437">
        <ele>222</ele>
        <time>2021-02-28T09:14:10.788Z</time>
      </trkpt>
      <trkpt lat="45.63282" lon="5.29442">
        <ele>222</ele>
        <time>2021-02-28T09:14:11.788Z</time>
      </trkpt>
      <trkpt lat="45.63287" lon="5.29449">
        <ele>222</ele>
        <time>2021-02-28T09:14:12.788Z</time>
      </trkpt>
      <trkpt lat="45.63291" lon="5.29453">
        <ele>221</ele>
        <time>2021-02-28T09:14:13.788Z</time>
      </trkpt>
      <trkpt lat="45.63295" lon="5.29458">
        <ele>221</ele>
        <time>2021-02-28T09:14:14.788Z</time>
      </trkpt>
      <trkpt lat="45.63299" lon="5.29464">
        <ele>221</ele>
        <time>2021-02-28T09:14:15.788Z</time>
      </trkpt>
      <trkpt lat="45.63303" lon="5.2947">
        <ele>220</ele>
        <time>2021-02-28T09:14:16.788Z</time>
      </trkpt>
      <trkpt lat="45.63307" lon="5.29475">
        <ele>220</ele>
        <time>2021-02-28T09:14:17.787Z</time>
      </trkpt>
      <trkpt lat="45.6331" lon="5.29479">
        <ele>220</ele>
        <time>2021-02-28T09:14:18.788Z</time>
      </trkpt>
      <trkpt lat="45.63313" lon="5.29483">
        <ele>220</ele>
        <time>2021-02-28T09:14:19.788Z</time>
      </trkpt>
      <trkpt lat="45.63317" lon="5.29488">
        <ele>220</ele>
        <time>2021-02-28T09:14:20.788Z</time>
      </trkpt>
      <trkpt lat="45.6332" lon="5.29493">
        <ele>220</ele>
        <time>2021-02-28T09:14:21.788Z</time>
      </trkpt>
      <trkpt lat="45.63324" lon="5.29497">
        <ele>220</ele>
        <time>2021-02-28T09:14:22.788Z</time>
      </trkpt>
      <trkpt lat="45.63327" lon="5.29502">
        <ele>220</ele>
        <time>2021-02-28T09:14:23.788Z</time>
      </trkpt>
      <trkpt lat="45.63332" lon="5.29507">
        <ele>220</ele>
        <time>2021-02-28T09:14:24.788Z</time>
      </trkpt>
      <trkpt lat="45.63335" lon="5.29511">
        <ele>221</ele>
        <time>2021-02-28T09:14:25.788Z</time>
      </trkpt>
      <trkpt lat="45.63338" lon="5.29515">
        <ele>221</ele>
        <time>2021-02-28T09:14:26.788Z</time>
      </trkpt>
      <trkpt lat="45.63343" lon="5.29519">
        <ele>221</ele>
        <time>2021-02-28T09:14:27.787Z</time>
      </trkpt>
      <trkpt lat="45.63347" lon="5.29523">
        <ele>221</ele>
        <time>2021-02-28T09:14:28.788Z</time>
      </trkpt>
      <trkpt lat="45.63352" lon="5.29527">
        <ele>221</ele>
        <time>2021-02-28T09:14:29.788Z</time>
      </trkpt>
      <trkpt lat="45.63356" lon="5.29531">
        <ele>221</ele>
        <time>2021-02-28T09:14:30.788Z</time>
      </trkpt>
      <trkpt lat="45.63361" lon="5.29535">
        <ele>222</ele>
        <time>2021-02-28T09:14:31.788Z</time>
      </trkpt>
      <trkpt lat="45.63365" lon="5.29539">
        <ele>222</ele>
        <time>2021-02-28T09:14:32.788Z</time>
      </trkpt>
      <trkpt lat="45.6337" lon="5.29543">
        <ele>222</ele>
        <time>2021-02-28T09:14:33.787Z</time>
      </trkpt>
      <trkpt lat="45.63375" lon="5.29547">
        <ele>222</ele>
        <time>2021-02-28T09:14:34.788Z</time>
      </trkpt>
      <trkpt lat="45.6338" lon="5.29551">
        <ele>222</ele>
        <time>2021-02-28T09:14:35.788Z</time>
      </trkpt>
      <trkpt lat="45.63384" lon="5.29554">
        <ele>222</ele>
        <time>2021-02-28T09:14:36.788Z</time>
      </trkpt>
      <trkpt lat="45.63389" lon="5.29558">
        <ele>222</ele>
        <time>2021-02-28T09:14:37.788Z</time>
      </trkpt>
      <trkpt lat="45.63394" lon="5.29561">
        <ele>223</ele>
        <time>2021-02-28T09:14:38.788Z</time>
      </trkpt>
      <trkpt lat="45.63399" lon="5.29564">
        <ele>223</ele>
        <time>2021-02-28T09:14:39.788Z</time>
      </trkpt>
      <trkpt lat="45.63404" lon="5.29567">
        <ele>223</ele>
        <time>2021-02-28T09:14:40.788Z</time>
      </trkpt>
      <trkpt lat="45.63409" lon="5.29569">
        <ele>223</ele>
        <time>2021-02-28T09:14:41.788Z</time>
      </trkpt>
      <trkpt lat="45.63414" lon="5.29572">
        <ele>223</ele>
        <time>2021-02-28T09:14:42.788Z</time>
      </trkpt>
      <trkpt lat="45.63419" lon="5.29574">
        <ele>223</ele>
        <time>2021-02-28T09:14:43.788Z</time>
      </trkpt>
      <trkpt lat="45.63425" lon="5.29576">
        <ele>223</ele>
        <time>2021-02-28T09:14:44.788Z</time>
      </trkpt>
      <trkpt lat="45.63431" lon="5.29577">
        <ele>224</ele>
        <time>2021-02-28T09:14:45.788Z</time>
      </trkpt>
      <trkpt lat="45.63436" lon="5.29578">
        <ele>224</ele>
        <time>2021-02-28T09:14:46.788Z</time>
      </trkpt>
      <trkpt lat="45.63442" lon="5.2958">
        <ele>225</ele>
        <time>2021-02-28T09:14:47.788Z</time>
      </trkpt>
      <trkpt lat="45.63448" lon="5.29582">
        <ele>224</ele>
        <time>2021-02-28T09:14:48.788Z</time>
      </trkpt>
      <trkpt lat="45.63455" lon="5.29583">
        <ele>224</ele>
        <time>2021-02-28T09:14:49.788Z</time>
      </trkpt>
      <trkpt lat="45.6346" lon="5.29584">
        <ele>224</ele>
        <time>2021-02-28T09:14:50.788Z</time>
      </trkpt>
      <trkpt lat="45.63466" lon="5.29586">
        <ele>224</ele>
        <time>2021-02-28T09:14:51.788Z</time>
      </trkpt>
      <trkpt lat="45.63471" lon="5.29587">
        <ele>223</ele>
        <time>2021-02-28T09:14:52.788Z</time>
      </trkpt>
      <trkpt lat="45.63478" lon="5.29588">
        <ele>223</ele>
        <time>2021-02-28T09:14:53.788Z</time>
      </trkpt>
      <trkpt lat="45.63486" lon="5.29589">
        <ele>223</ele>
        <time>2021-02-28T09:14:54.788Z</time>
      </trkpt>
      <trkpt lat="45.63491" lon="5.2959">
        <ele>223</ele>
        <time>2021-02-28T09:14:55.788Z</time>
      </trkpt>
      <trkpt lat="45.63497" lon="5.29591">
        <ele>223</ele>
        <time>2021-02-28T09:14:56.788Z</time>
      </trkpt>
      <trkpt lat="45.63503" lon="5.29592">
        <ele>224</ele>
        <time>2021-02-28T09:14:57.787Z</time>
      </trkpt>
      <trkpt lat="45.6351" lon="5.29593">
        <ele>224</ele>
        <time>2021-02-28T09:14:58.788Z</time>
      </trkpt>
      <trkpt lat="45.63514" lon="5.29593">
        <ele>224</ele>
        <time>2021-02-28T09:14:59.788Z</time>
      </trkpt>
      <trkpt lat="45.6352" lon="5.29594">
        <ele>224</ele>
        <time>2021-02-28T09:15:00.788Z</time>
      </trkpt>
      <trkpt lat="45.63525" lon="5.29595">
        <ele>225</ele>
        <time>2021-02-28T09:15:01.788Z</time>
      </trkpt>
      <trkpt lat="45.63532" lon="5.29596">
        <ele>225</ele>
        <time>2021-02-28T09:15:02.788Z</time>
      </trkpt>
      <trkpt lat="45.63537" lon="5.29597">
        <ele>225</ele>
        <time>2021-02-28T09:15:03.787Z</time>
      </trkpt>
      <trkpt lat="45.63542" lon="5.29598">
        <ele>225</ele>
        <time>2021-02-28T09:15:04.788Z</time>
      </trkpt>
      <trkpt lat="45.63548" lon="5.29599">
        <ele>225</ele>
        <time>2021-02-28T09:15:05.788Z</time>
      </trkpt>
      <trkpt lat="45.63554" lon="5.29599">
        <ele>224</ele>
        <time>2021-02-28T09:15:06.788Z</time>
      </trkpt>
      <trkpt lat="45.63561" lon="5.296">
        <ele>224</ele>
        <time>2021-02-28T09:15:07.788Z</time>
      </trkpt>
      <trkpt lat="45.63565" lon="5.29601">
        <ele>223</ele>
        <time>2021-02-28T09:15:08.788Z</time>
      </trkpt>
      <trkpt lat="45.63571" lon="5.29601">
        <ele>223</ele>
        <time>2021-02-28T09:15:09.788Z</time>
      </trkpt>
      <trkpt lat="45.63576" lon="5.29602">
        <ele>223</ele>
        <time>2021-02-28T09:15:10.787Z</time>
      </trkpt>
      <trkpt lat="45.63581" lon="5.29603">
        <ele>223</ele>
        <time>2021-02-28T09:15:11.787Z</time>
      </trkpt>
      <trkpt lat="45.63588" lon="5.29604">
        <ele>223</ele>
        <time>2021-02-28T09:15:12.788Z</time>
      </trkpt>
      <trkpt lat="45.63594" lon="5.29604">
        <ele>223</ele>
        <time>2021-02-28T09:15:13.788Z</time>
      </trkpt>
      <trkpt lat="45.63599" lon="5.29605">
        <ele>223</ele>
        <time>2021-02-28T09:15:14.788Z</time>
      </trkpt>
      <trkpt lat="45.63605" lon="5.29606">
        <ele>223</ele>
        <time>2021-02-28T09:15:15.788Z</time>
      </trkpt>
      <trkpt lat="45.6361" lon="5.29607">
        <ele>223</ele>
        <time>2021-02-28T09:15:16.788Z</time>
      </trkpt>
      <trkpt lat="45.63615" lon="5.29608">
        <ele>222</ele>
        <time>2021-02-28T09:15:17.788Z</time>
      </trkpt>
      <trkpt lat="45.63621" lon="5.29608">
        <ele>222</ele>
        <time>2021-02-28T09:15:18.787Z</time>
      </trkpt>
      <trkpt lat="45.63626" lon="5.29609">
        <ele>222</ele>
        <time>2021-02-28T09:15:19.788Z</time>
      </trkpt>
      <trkpt lat="45.63631" lon="5.2961">
        <ele>222</ele>
        <time>2021-02-28T09:15:20.788Z</time>
      </trkpt>
      <trkpt lat="45.63636" lon="5.2961">
        <ele>222</ele>
        <time>2021-02-28T09:15:21.788Z</time>
      </trkpt>
      <trkpt lat="45.63642" lon="5.29611">
        <ele>222</ele>
        <time>2021-02-28T09:15:22.787Z</time>
      </trkpt>
      <trkpt lat="45.63648" lon="5.29612">
        <ele>222</ele>
        <time>2021-02-28T09:15:23.788Z</time>
      </trkpt>
      <trkpt lat="45.63653" lon="5.29612">
        <ele>222</ele>
        <time>2021-02-28T09:15:24.788Z</time>
      </trkpt>
      <trkpt lat="45.63658" lon="5.29613">
        <ele>222</ele>
        <time>2021-02-28T09:15:25.788Z</time>
      </trkpt>
      <trkpt lat="45.63664" lon="5.29614">
        <ele>222</ele>
        <time>2021-02-28T09:15:26.788Z</time>
      </trkpt>
      <trkpt lat="45.6367" lon="5.29615">
        <ele>221</ele>
        <time>2021-02-28T09:15:27.787Z</time>
      </trkpt>
      <trkpt lat="45.63675" lon="5.29616">
        <ele>221</ele>
        <time>2021-02-28T09:15:28.788Z</time>
      </trkpt>
      <trkpt lat="45.63681" lon="5.29617">
        <ele>221</ele>
        <time>2021-02-28T09:15:29.787Z</time>
      </trkpt>
      <trkpt lat="45.63686" lon="5.29618">
        <ele>221</ele>
        <time>2021-02-28T09:15:30.788Z</time>
      </trkpt>
      <trkpt lat="45.63692" lon="5.29618">
        <ele>221</ele>
        <time>2021-02-28T09:15:31.787Z</time>
      </trkpt>
      <trkpt lat="45.63697" lon="5.29619">
        <ele>221</ele>
        <time>2021-02-28T09:15:32.788Z</time>
      </trkpt>
      <trkpt lat="45.63703" lon="5.2962">
        <ele>221</ele>
        <time>2021-02-28T09:15:33.788Z</time>
      </trkpt>
      <trkpt lat="45.63708" lon="5.29621">
        <ele>221</ele>
        <time>2021-02-28T09:15:34.788Z</time>
      </trkpt>
      <trkpt lat="45.63714" lon="5.29622">
        <ele>222</ele>
        <time>2021-02-28T09:15:35.788Z</time>
      </trkpt>
      <trkpt lat="45.63719" lon="5.29622">
        <ele>222</ele>
        <time>2021-02-28T09:15:36.788Z</time>
      </trkpt>
      <trkpt lat="45.63725" lon="5.29623">
        <ele>222</ele>
        <time>2021-02-28T09:15:37.787Z</time>
      </trkpt>
      <trkpt lat="45.63731" lon="5.29624">
        <ele>223</ele>
        <time>2021-02-28T09:15:38.788Z</time>
      </trkpt>
      <trkpt lat="45.63737" lon="5.29625">
        <ele>223</ele>
        <time>2021-02-28T09:15:39.787Z</time>
      </trkpt>
      <trkpt lat="45.63742" lon="5.29625">
        <ele>223</ele>
        <time>2021-02-28T09:15:40.788Z</time>
      </trkpt>
      <trkpt lat="45.63748" lon="5.29626">
        <ele>223</ele>
        <time>2021-02-28T09:15:41.788Z</time>
      </trkpt>
      <trkpt lat="45.63754" lon="5.29627">
        <ele>223</ele>
        <time>2021-02-28T09:15:42.787Z</time>
      </trkpt>
      <trkpt lat="45.6376" lon="5.29628">
        <ele>223</ele>
        <time>2021-02-28T09:15:43.787Z</time>
      </trkpt>
      <trkpt lat="45.63764" lon="5.29629">
        <ele>223</ele>
        <time>2021-02-28T09:15:44.788Z</time>
      </trkpt>
      <trkpt lat="45.6377" lon="5.2963">
        <ele>224</ele>
        <time>2021-02-28T09:15:45.787Z</time>
      </trkpt>
      <trkpt lat="45.63776" lon="5.29631">
        <ele>224</ele>
        <time>2021-02-28T09:15:46.788Z</time>
      </trkpt>
      <trkpt lat="45.63782" lon="5.29631">
        <ele>224</ele>
        <time>2021-02-28T09:15:47.787Z</time>
      </trkpt>
      <trkpt lat="45.63789" lon="5.29632">
        <ele>224</ele>
        <time>2021-02-28T09:15:48.787Z</time>
      </trkpt>
      <trkpt lat="45.63794" lon="5.29633">
        <ele>224</ele>
        <time>2021-02-28T09:15:49.787Z</time>
      </trkpt>
      <trkpt lat="45.638" lon="5.29634">
        <ele>224</ele>
        <time>2021-02-28T09:15:50.788Z</time>
      </trkpt>
      <trkpt lat="45.63806" lon="5.29635">
        <ele>225</ele>
        <time>2021-02-28T09:15:51.787Z</time>
      </trkpt>
      <trkpt lat="45.63813" lon="5.29636">
        <ele>225</ele>
        <time>2021-02-28T09:15:52.788Z</time>
      </trkpt>
      <trkpt lat="45.63818" lon="5.29637">
        <ele>225</ele>
        <time>2021-02-28T09:15:53.788Z</time>
      </trkpt>
      <trkpt lat="45.63825" lon="5.29638">
        <ele>226</ele>
        <time>2021-02-28T09:15:54.788Z</time>
      </trkpt>
      <trkpt lat="45.63832" lon="5.29639">
        <ele>226</ele>
        <time>2021-02-28T09:15:55.788Z</time>
      </trkpt>
      <trkpt lat="45.63838" lon="5.2964">
        <ele>226</ele>
        <time>2021-02-28T09:15:56.788Z</time>
      </trkpt>
      <trkpt lat="45.63844" lon="5.29641">
        <ele>225</ele>
        <time>2021-02-28T09:15:57.788Z</time>
      </trkpt>
      <trkpt lat="45.6385" lon="5.29642">
        <ele>225</ele>
        <time>2021-02-28T09:15:58.788Z</time>
      </trkpt>
      <trkpt lat="45.63856" lon="5.29643">
        <ele>225</ele>
        <time>2021-02-28T09:15:59.788Z</time>
      </trkpt>
      <trkpt lat="45.63863" lon="5.29644">
        <ele>225</ele>
        <time>2021-02-28T09:16:00.787Z</time>
      </trkpt>
      <trkpt lat="45.63869" lon="5.29645">
        <ele>225</ele>
        <time>2021-02-28T09:16:01.788Z</time>
      </trkpt>
      <trkpt lat="45.63876" lon="5.29646">
        <ele>225</ele>
        <time>2021-02-28T09:16:02.788Z</time>
      </trkpt>
      <trkpt lat="45.63882" lon="5.29647">
        <ele>225</ele>
        <time>2021-02-28T09:16:03.788Z</time>
      </trkpt>
      <trkpt lat="45.63888" lon="5.29647">
        <ele>225</ele>
        <time>2021-02-28T09:16:04.787Z</time>
      </trkpt>
      <trkpt lat="45.63895" lon="5.29648">
        <ele>225</ele>
        <time>2021-02-28T09:16:05.788Z</time>
      </trkpt>
      <trkpt lat="45.63901" lon="5.29649">
        <ele>225</ele>
        <time>2021-02-28T09:16:06.787Z</time>
      </trkpt>
      <trkpt lat="45.63908" lon="5.2965">
        <ele>225</ele>
        <time>2021-02-28T09:16:07.788Z</time>
      </trkpt>
      <trkpt lat="45.63915" lon="5.29651">
        <ele>225</ele>
        <time>2021-02-28T09:16:08.788Z</time>
      </trkpt>
      <trkpt lat="45.63922" lon="5.29652">
        <ele>225</ele>
        <time>2021-02-28T09:16:09.788Z</time>
      </trkpt>
      <trkpt lat="45.63928" lon="5.29653">
        <ele>225</ele>
        <time>2021-02-28T09:16:10.788Z</time>
      </trkpt>
      <trkpt lat="45.63933" lon="5.29653">
        <ele>224</ele>
        <time>2021-02-28T09:16:11.787Z</time>
      </trkpt>
      <trkpt lat="45.63939" lon="5.29655">
        <ele>224</ele>
        <time>2021-02-28T09:16:12.788Z</time>
      </trkpt>
      <trkpt lat="45.63947" lon="5.29656">
        <ele>224</ele>
        <time>2021-02-28T09:16:13.788Z</time>
      </trkpt>
      <trkpt lat="45.63954" lon="5.29657">
        <ele>224</ele>
        <time>2021-02-28T09:16:14.787Z</time>
      </trkpt>
      <trkpt lat="45.6396" lon="5.29657">
        <ele>224</ele>
        <time>2021-02-28T09:16:15.788Z</time>
      </trkpt>
      <trkpt lat="45.63967" lon="5.29659">
        <ele>224</ele>
        <time>2021-02-28T09:16:16.788Z</time>
      </trkpt>
      <trkpt lat="45.63973" lon="5.2966">
        <ele>225</ele>
        <time>2021-02-28T09:16:17.788Z</time>
      </trkpt>
      <trkpt lat="45.63979" lon="5.29661">
        <ele>225</ele>
        <time>2021-02-28T09:16:18.788Z</time>
      </trkpt>
      <trkpt lat="45.63985" lon="5.29661">
        <ele>224</ele>
        <time>2021-02-28T09:16:19.788Z</time>
      </trkpt>
      <trkpt lat="45.63992" lon="5.29662">
        <ele>224</ele>
        <time>2021-02-28T09:16:20.788Z</time>
      </trkpt>
      <trkpt lat="45.63998" lon="5.29663">
        <ele>224</ele>
        <time>2021-02-28T09:16:21.788Z</time>
      </trkpt>
      <trkpt lat="45.64004" lon="5.29664">
        <ele>224</ele>
        <time>2021-02-28T09:16:22.788Z</time>
      </trkpt>
      <trkpt lat="45.64011" lon="5.29665">
        <ele>224</ele>
        <time>2021-02-28T09:16:23.788Z</time>
      </trkpt>
      <trkpt lat="45.64017" lon="5.29666">
        <ele>224</ele>
        <time>2021-02-28T09:16:24.788Z</time>
      </trkpt>
      <trkpt lat="45.64023" lon="5.29667">
        <ele>223</ele>
        <time>2021-02-28T09:16:25.788Z</time>
      </trkpt>
      <trkpt lat="45.64029" lon="5.29668">
        <ele>223</ele>
        <time>2021-02-28T09:16:26.788Z</time>
      </trkpt>
      <trkpt lat="45.64036" lon="5.29669">
        <ele>222</ele>
        <time>2021-02-28T09:16:27.787Z</time>
      </trkpt>
      <trkpt lat="45.64042" lon="5.2967">
        <ele>222</ele>
        <time>2021-02-28T09:16:28.788Z</time>
      </trkpt>
      <trkpt lat="45.64048" lon="5.29671">
        <ele>221</ele>
        <time>2021-02-28T09:16:29.788Z</time>
      </trkpt>
      <trkpt lat="45.64055" lon="5.29672">
        <ele>221</ele>
        <time>2021-02-28T09:16:30.787Z</time>
      </trkpt>
      <trkpt lat="45.64062" lon="5.29672">
        <ele>221</ele>
        <time>2021-02-28T09:16:31.788Z</time>
      </trkpt>
      <trkpt lat="45.64068" lon="5.29673">
        <ele>221</ele>
        <time>2021-02-28T09:16:32.787Z</time>
      </trkpt>
      <trkpt lat="45.64075" lon="5.29675">
        <ele>221</ele>
        <time>2021-02-28T09:16:33.788Z</time>
      </trkpt>
      <trkpt lat="45.64081" lon="5.29676">
        <ele>221</ele>
        <time>2021-02-28T09:16:34.788Z</time>
      </trkpt>
      <trkpt lat="45.64087" lon="5.29677">
        <ele>222</ele>
        <time>2021-02-28T09:16:35.788Z</time>
      </trkpt>
      <trkpt lat="45.64093" lon="5.29678">
        <ele>222</ele>
        <time>2021-02-28T09:16:36.788Z</time>
      </trkpt>
      <trkpt lat="45.64099" lon="5.29679">
        <ele>222</ele>
        <time>2021-02-28T09:16:37.788Z</time>
      </trkpt>
      <trkpt lat="45.64105" lon="5.2968">
        <ele>222</ele>
        <time>2021-02-28T09:16:38.788Z</time>
      </trkpt>
      <trkpt lat="45.64111" lon="5.29681">
        <ele>222</ele>
        <time>2021-02-28T09:16:39.788Z</time>
      </trkpt>
      <trkpt lat="45.64118" lon="5.29681">
        <ele>222</ele>
        <time>2021-02-28T09:16:40.788Z</time>
      </trkpt>
      <trkpt lat="45.64124" lon="5.29682">
        <ele>222</ele>
        <time>2021-02-28T09:16:41.788Z</time>
      </trkpt>
      <trkpt lat="45.6413" lon="5.29683">
        <ele>222</ele>
        <time>2021-02-28T09:16:42.788Z</time>
      </trkpt>
      <trkpt lat="45.64136" lon="5.29684">
        <ele>222</ele>
        <time>2021-02-28T09:16:43.788Z</time>
      </trkpt>
      <trkpt lat="45.64142" lon="5.29685">
        <ele>222</ele>
        <time>2021-02-28T09:16:44.788Z</time>
      </trkpt>
      <trkpt lat="45.64148" lon="5.29686">
        <ele>222</ele>
        <time>2021-02-28T09:16:45.788Z</time>
      </trkpt>
      <trkpt lat="45.64154" lon="5.29687">
        <ele>222</ele>
        <time>2021-02-28T09:16:46.787Z</time>
      </trkpt>
      <trkpt lat="45.6416" lon="5.29688">
        <ele>222</ele>
        <time>2021-02-28T09:16:47.788Z</time>
      </trkpt>
      <trkpt lat="45.64166" lon="5.29689">
        <ele>222</ele>
        <time>2021-02-28T09:16:48.787Z</time>
      </trkpt>
      <trkpt lat="45.64172" lon="5.2969">
        <ele>223</ele>
        <time>2021-02-28T09:16:49.788Z</time>
      </trkpt>
      <trkpt lat="45.64178" lon="5.29692">
        <ele>223</ele>
        <time>2021-02-28T09:16:50.788Z</time>
      </trkpt>
      <trkpt lat="45.64184" lon="5.29693">
        <ele>223</ele>
        <time>2021-02-28T09:16:51.788Z</time>
      </trkpt>
      <trkpt lat="45.64191" lon="5.29695">
        <ele>224</ele>
        <time>2021-02-28T09:16:52.788Z</time>
      </trkpt>
      <trkpt lat="45.64197" lon="5.29697">
        <ele>224</ele>
        <time>2021-02-28T09:16:53.788Z</time>
      </trkpt>
      <trkpt lat="45.64202" lon="5.29699">
        <ele>224</ele>
        <time>2021-02-28T09:16:54.788Z</time>
      </trkpt>
      <trkpt lat="45.64208" lon="5.297">
        <ele>224</ele>
        <time>2021-02-28T09:16:55.788Z</time>
      </trkpt>
      <trkpt lat="45.64214" lon="5.29703">
        <ele>224</ele>
        <time>2021-02-28T09:16:56.788Z</time>
      </trkpt>
      <trkpt lat="45.6422" lon="5.29705">
        <ele>224</ele>
        <time>2021-02-28T09:16:57.788Z</time>
      </trkpt>
      <trkpt lat="45.64225" lon="5.29708">
        <ele>223</ele>
        <time>2021-02-28T09:16:58.788Z</time>
      </trkpt>
      <trkpt lat="45.64231" lon="5.2971">
        <ele>223</ele>
        <time>2021-02-28T09:16:59.788Z</time>
      </trkpt>
      <trkpt lat="45.64236" lon="5.29713">
        <ele>222</ele>
        <time>2021-02-28T09:17:00.788Z</time>
      </trkpt>
      <trkpt lat="45.64241" lon="5.29716">
        <ele>222</ele>
        <time>2021-02-28T09:17:01.787Z</time>
      </trkpt>
      <trkpt lat="45.64246" lon="5.2972">
        <ele>222</ele>
        <time>2021-02-28T09:17:02.788Z</time>
      </trkpt>
      <trkpt lat="45.64251" lon="5.29724">
        <ele>222</ele>
        <time>2021-02-28T09:17:03.788Z</time>
      </trkpt>
      <trkpt lat="45.64257" lon="5.29728">
        <ele>222</ele>
        <time>2021-02-28T09:17:04.787Z</time>
      </trkpt>
      <trkpt lat="45.64262" lon="5.29732">
        <ele>222</ele>
        <time>2021-02-28T09:17:05.788Z</time>
      </trkpt>
      <trkpt lat="45.64267" lon="5.29736">
        <ele>222</ele>
        <time>2021-02-28T09:17:06.788Z</time>
      </trkpt>
      <trkpt lat="45.64272" lon="5.29741">
        <ele>222</ele>
        <time>2021-02-28T09:17:07.788Z</time>
      </trkpt>
      <trkpt lat="45.64276" lon="5.29745">
        <ele>222</ele>
        <time>2021-02-28T09:17:08.788Z</time>
      </trkpt>
      <trkpt lat="45.64281" lon="5.2975">
        <ele>222</ele>
        <time>2021-02-28T09:17:09.787Z</time>
      </trkpt>
      <trkpt lat="45.64285" lon="5.29755">
        <ele>222</ele>
        <time>2021-02-28T09:17:10.787Z</time>
      </trkpt>
      <trkpt lat="45.6429" lon="5.29761">
        <ele>221</ele>
        <time>2021-02-28T09:17:11.787Z</time>
      </trkpt>
      <trkpt lat="45.64294" lon="5.29766">
        <ele>221</ele>
        <time>2021-02-28T09:17:12.788Z</time>
      </trkpt>
      <trkpt lat="45.64298" lon="5.29772">
        <ele>221</ele>
        <time>2021-02-28T09:17:13.788Z</time>
      </trkpt>
      <trkpt lat="45.64302" lon="5.29777">
        <ele>221</ele>
        <time>2021-02-28T09:17:14.788Z</time>
      </trkpt>
      <trkpt lat="45.64306" lon="5.29783">
        <ele>221</ele>
        <time>2021-02-28T09:17:15.788Z</time>
      </trkpt>
      <trkpt lat="45.6431" lon="5.29789">
        <ele>221</ele>
        <time>2021-02-28T09:17:16.788Z</time>
      </trkpt>
      <trkpt lat="45.64314" lon="5.29794">
        <ele>222</ele>
        <time>2021-02-28T09:17:17.788Z</time>
      </trkpt>
      <trkpt lat="45.64318" lon="5.298">
        <ele>222</ele>
        <time>2021-02-28T09:17:18.788Z</time>
      </trkpt>
      <trkpt lat="45.64322" lon="5.29806">
        <ele>222</ele>
        <time>2021-02-28T09:17:19.787Z</time>
      </trkpt>
      <trkpt lat="45.64326" lon="5.29812">
        <ele>222</ele>
        <time>2021-02-28T09:17:20.788Z</time>
      </trkpt>
      <trkpt lat="45.6433" lon="5.29817">
        <ele>222</ele>
        <time>2021-02-28T09:17:21.788Z</time>
      </trkpt>
      <trkpt lat="45.64334" lon="5.29823">
        <ele>222</ele>
        <time>2021-02-28T09:17:22.788Z</time>
      </trkpt>
      <trkpt lat="45.64338" lon="5.29828">
        <ele>222</ele>
        <time>2021-02-28T09:17:23.788Z</time>
      </trkpt>
      <trkpt lat="45.64342" lon="5.29834">
        <ele>222</ele>
        <time>2021-02-28T09:17:24.788Z</time>
      </trkpt>
      <trkpt lat="45.64345" lon="5.29839">
        <ele>223</ele>
        <time>2021-02-28T09:17:25.788Z</time>
      </trkpt>
      <trkpt lat="45.64349" lon="5.29845">
        <ele>223</ele>
        <time>2021-02-28T09:17:26.788Z</time>
      </trkpt>
      <trkpt lat="45.64354" lon="5.29852">
        <ele>223</ele>
        <time>2021-02-28T09:17:27.788Z</time>
      </trkpt>
      <trkpt lat="45.64359" lon="5.29858">
        <ele>223</ele>
        <time>2021-02-28T09:17:28.788Z</time>
      </trkpt>
      <trkpt lat="45.64363" lon="5.29864">
        <ele>223</ele>
        <time>2021-02-28T09:17:29.788Z</time>
      </trkpt>
      <trkpt lat="45.64367" lon="5.2987">
        <ele>223</ele>
        <time>2021-02-28T09:17:30.788Z</time>
      </trkpt>
      <trkpt lat="45.64371" lon="5.29876">
        <ele>223</ele>
        <time>2021-02-28T09:17:31.788Z</time>
      </trkpt>
      <trkpt lat="45.64374" lon="5.29883">
        <ele>222</ele>
        <time>2021-02-28T09:17:32.788Z</time>
      </trkpt>
      <trkpt lat="45.64379" lon="5.29889">
        <ele>222</ele>
        <time>2021-02-28T09:17:33.787Z</time>
      </trkpt>
      <trkpt lat="45.64383" lon="5.29895">
        <ele>222</ele>
        <time>2021-02-28T09:17:34.788Z</time>
      </trkpt>
      <trkpt lat="45.64387" lon="5.29901">
        <ele>222</ele>
        <time>2021-02-28T09:17:35.788Z</time>
      </trkpt>
      <trkpt lat="45.64392" lon="5.29907">
        <ele>222</ele>
        <time>2021-02-28T09:17:36.788Z</time>
      </trkpt>
      <trkpt lat="45.64396" lon="5.29912">
        <ele>222</ele>
        <time>2021-02-28T09:17:37.788Z</time>
      </trkpt>
      <trkpt lat="45.64401" lon="5.29917">
        <ele>223</ele>
        <time>2021-02-28T09:17:38.788Z</time>
      </trkpt>
      <trkpt lat="45.64405" lon="5.29923">
        <ele>223</ele>
        <time>2021-02-28T09:17:39.788Z</time>
      </trkpt>
      <trkpt lat="45.6441" lon="5.29929">
        <ele>224</ele>
        <time>2021-02-28T09:17:40.788Z</time>
      </trkpt>
      <trkpt lat="45.64414" lon="5.29935">
        <ele>224</ele>
        <time>2021-02-28T09:17:41.787Z</time>
      </trkpt>
      <trkpt lat="45.64418" lon="5.29941">
        <ele>224</ele>
        <time>2021-02-28T09:17:42.788Z</time>
      </trkpt>
      <trkpt lat="45.64423" lon="5.29948">
        <ele>224</ele>
        <time>2021-02-28T09:17:43.788Z</time>
      </trkpt>
      <trkpt lat="45.64427" lon="5.29954">
        <ele>225</ele>
        <time>2021-02-28T09:17:44.788Z</time>
      </trkpt>
      <trkpt lat="45.64432" lon="5.2996">
        <ele>225</ele>
        <time>2021-02-28T09:17:45.788Z</time>
      </trkpt>
      <trkpt lat="45.64436" lon="5.29966">
        <ele>225</ele>
        <time>2021-02-28T09:17:46.788Z</time>
      </trkpt>
      <trkpt lat="45.64441" lon="5.29973">
        <ele>225</ele>
        <time>2021-02-28T09:17:47.788Z</time>
      </trkpt>
      <trkpt lat="45.64445" lon="5.29979">
        <ele>225</ele>
        <time>2021-02-28T09:17:48.788Z</time>
      </trkpt>
      <trkpt lat="45.6445" lon="5.29985">
        <ele>225</ele>
        <time>2021-02-28T09:17:49.788Z</time>
      </trkpt>
      <trkpt lat="45.64454" lon="5.29991">
        <ele>225</ele>
        <time>2021-02-28T09:17:50.788Z</time>
      </trkpt>
      <trkpt lat="45.64459" lon="5.29998">
        <ele>225</ele>
        <time>2021-02-28T09:17:51.788Z</time>
      </trkpt>
      <trkpt lat="45.64463" lon="5.30004">
        <ele>226</ele>
        <time>2021-02-28T09:17:52.788Z</time>
      </trkpt>
      <trkpt lat="45.64467" lon="5.3001">
        <ele>226</ele>
        <time>2021-02-28T09:17:53.788Z</time>
      </trkpt>
      <trkpt lat="45.64472" lon="5.30017">
        <ele>226</ele>
        <time>2021-02-28T09:17:54.788Z</time>
      </trkpt>
      <trkpt lat="45.64476" lon="5.30024">
        <ele>226</ele>
        <time>2021-02-28T09:17:55.788Z</time>
      </trkpt>
      <trkpt lat="45.6448" lon="5.30031">
        <ele>226</ele>
        <time>2021-02-28T09:17:56.788Z</time>
      </trkpt>
      <trkpt lat="45.64485" lon="5.30037">
        <ele>226</ele>
        <time>2021-02-28T09:17:57.788Z</time>
      </trkpt>
      <trkpt lat="45.64489" lon="5.30044">
        <ele>226</ele>
        <time>2021-02-28T09:17:58.788Z</time>
      </trkpt>
      <trkpt lat="45.64493" lon="5.30051">
        <ele>226</ele>
        <time>2021-02-28T09:17:59.787Z</time>
      </trkpt>
      <trkpt lat="45.64497" lon="5.30058">
        <ele>226</ele>
        <time>2021-02-28T09:18:00.788Z</time>
      </trkpt>
      <trkpt lat="45.64502" lon="5.30065">
        <ele>226</ele>
        <time>2021-02-28T09:18:01.788Z</time>
      </trkpt>
      <trkpt lat="45.64507" lon="5.30072">
        <ele>226</ele>
        <time>2021-02-28T09:18:02.787Z</time>
      </trkpt>
      <trkpt lat="45.64512" lon="5.30078">
        <ele>226</ele>
        <time>2021-02-28T09:18:03.788Z</time>
      </trkpt>
      <trkpt lat="45.64516" lon="5.30085">
        <ele>226</ele>
        <time>2021-02-28T09:18:04.788Z</time>
      </trkpt>
      <trkpt lat="45.64521" lon="5.30092">
        <ele>226</ele>
        <time>2021-02-28T09:18:05.788Z</time>
      </trkpt>
      <trkpt lat="45.64525" lon="5.30098">
        <ele>226</ele>
        <time>2021-02-28T09:18:06.788Z</time>
      </trkpt>
      <trkpt lat="45.64529" lon="5.30105">
        <ele>225</ele>
        <time>2021-02-28T09:18:07.788Z</time>
      </trkpt>
      <trkpt lat="45.64533" lon="5.30112">
        <ele>225</ele>
        <time>2021-02-28T09:18:08.788Z</time>
      </trkpt>
      <trkpt lat="45.64537" lon="5.3012">
        <ele>225</ele>
        <time>2021-02-28T09:18:09.788Z</time>
      </trkpt>
      <trkpt lat="45.6454" lon="5.30127">
        <ele>225</ele>
        <time>2021-02-28T09:18:10.788Z</time>
      </trkpt>
      <trkpt lat="45.64544" lon="5.30134">
        <ele>225</ele>
        <time>2021-02-28T09:18:11.788Z</time>
      </trkpt>
      <trkpt lat="45.64548" lon="5.30141">
        <ele>225</ele>
        <time>2021-02-28T09:18:12.788Z</time>
      </trkpt>
      <trkpt lat="45.64552" lon="5.30148">
        <ele>225</ele>
        <time>2021-02-28T09:18:13.788Z</time>
      </trkpt>
      <trkpt lat="45.64556" lon="5.30154">
        <ele>225</ele>
        <time>2021-02-28T09:18:14.788Z</time>
      </trkpt>
      <trkpt lat="45.64561" lon="5.3016">
        <ele>225</ele>
        <time>2021-02-28T09:18:15.788Z</time>
      </trkpt>
      <trkpt lat="45.64565" lon="5.30164">
        <ele>224</ele>
        <time>2021-02-28T09:18:16.787Z</time>
      </trkpt>
      <trkpt lat="45.64569" lon="5.30169">
        <ele>224</ele>
        <time>2021-02-28T09:18:17.788Z</time>
      </trkpt>
      <trkpt lat="45.64572" lon="5.30175">
        <ele>224</ele>
        <time>2021-02-28T09:18:18.788Z</time>
      </trkpt>
      <trkpt lat="45.64575" lon="5.30181">
        <ele>224</ele>
        <time>2021-02-28T09:18:19.788Z</time>
      </trkpt>
      <trkpt lat="45.64576" lon="5.30189">
        <ele>224</ele>
        <time>2021-02-28T09:18:20.788Z</time>
      </trkpt>
      <trkpt lat="45.64576" lon="5.30197">
        <ele>223</ele>
        <time>2021-02-28T09:18:21.787Z</time>
      </trkpt>
      <trkpt lat="45.64576" lon="5.30205">
        <ele>223</ele>
        <time>2021-02-28T09:18:22.788Z</time>
      </trkpt>
      <trkpt lat="45.64577" lon="5.30214">
        <ele>223</ele>
        <time>2021-02-28T09:18:23.787Z</time>
      </trkpt>
      <trkpt lat="45.64578" lon="5.30221">
        <ele>222</ele>
        <time>2021-02-28T09:18:24.788Z</time>
      </trkpt>
      <trkpt lat="45.64582" lon="5.30228">
        <ele>222</ele>
        <time>2021-02-28T09:18:25.788Z</time>
      </trkpt>
      <trkpt lat="45.64585" lon="5.30233">
        <ele>222</ele>
        <time>2021-02-28T09:18:26.788Z</time>
      </trkpt>
      <trkpt lat="45.64591" lon="5.30237">
        <ele>222</ele>
        <time>2021-02-28T09:18:27.788Z</time>
      </trkpt>
      <trkpt lat="45.64596" lon="5.30238">
        <ele>222</ele>
        <time>2021-02-28T09:18:28.788Z</time>
      </trkpt>
      <trkpt lat="45.64601" lon="5.30237">
        <ele>222</ele>
        <time>2021-02-28T09:18:29.788Z</time>
      </trkpt>
      <trkpt lat="45.64607" lon="5.30233">
        <ele>222</ele>
        <time>2021-02-28T09:18:30.787Z</time>
      </trkpt>
      <trkpt lat="45.64611" lon="5.30226">
        <ele>222</ele>
        <time>2021-02-28T09:18:31.788Z</time>
      </trkpt>
      <trkpt lat="45.64614" lon="5.30219">
        <ele>222</ele>
        <time>2021-02-28T09:18:32.787Z</time>
      </trkpt>
      <trkpt lat="45.64616" lon="5.30211">
        <ele>222</ele>
        <time>2021-02-28T09:18:33.787Z</time>
      </trkpt>
      <trkpt lat="45.6462" lon="5.30204">
        <ele>221</ele>
        <time>2021-02-28T09:18:34.787Z</time>
      </trkpt>
      <trkpt lat="45.64623" lon="5.30198">
        <ele>221</ele>
        <time>2021-02-28T09:18:35.788Z</time>
      </trkpt>
      <trkpt lat="45.64629" lon="5.30191">
        <ele>221</ele>
        <time>2021-02-28T09:18:36.788Z</time>
      </trkpt>
      <trkpt lat="45.64635" lon="5.30187">
        <ele>221</ele>
        <time>2021-02-28T09:18:37.788Z</time>
      </trkpt>
      <trkpt lat="45.6464" lon="5.30182">
        <ele>221</ele>
        <time>2021-02-28T09:18:38.787Z</time>
      </trkpt>
      <trkpt lat="45.64644" lon="5.30179">
        <ele>221</ele>
        <time>2021-02-28T09:18:39.787Z</time>
      </trkpt>
      <trkpt lat="45.6465" lon="5.30174">
        <ele>221</ele>
        <time>2021-02-28T09:18:40.787Z</time>
      </trkpt>
      <trkpt lat="45.64655" lon="5.3017">
        <ele>221</ele>
        <time>2021-02-28T09:18:41.788Z</time>
      </trkpt>
      <trkpt lat="45.6466" lon="5.30166">
        <ele>221</ele>
        <time>2021-02-28T09:18:42.787Z</time>
      </trkpt>
      <trkpt lat="45.64665" lon="5.30163">
        <ele>221</ele>
        <time>2021-02-28T09:18:43.787Z</time>
      </trkpt>
      <trkpt lat="45.6467" lon="5.30159">
        <ele>221</ele>
        <time>2021-02-28T09:18:44.788Z</time>
      </trkpt>
      <trkpt lat="45.64676" lon="5.30155">
        <ele>221</ele>
        <time>2021-02-28T09:18:45.787Z</time>
      </trkpt>
      <trkpt lat="45.64681" lon="5.30152">
        <ele>221</ele>
        <time>2021-02-28T09:18:46.788Z</time>
      </trkpt>
      <trkpt lat="45.64687" lon="5.30148">
        <ele>220</ele>
        <time>2021-02-28T09:18:47.788Z</time>
      </trkpt>
      <trkpt lat="45.64691" lon="5.30145">
        <ele>221</ele>
        <time>2021-02-28T09:18:48.788Z</time>
      </trkpt>
      <trkpt lat="45.64697" lon="5.30141">
        <ele>221</ele>
        <time>2021-02-28T09:18:49.788Z</time>
      </trkpt>
      <trkpt lat="45.64703" lon="5.30136">
        <ele>221</ele>
        <time>2021-02-28T09:18:50.788Z</time>
      </trkpt>
      <trkpt lat="45.64709" lon="5.30132">
        <ele>221</ele>
        <time>2021-02-28T09:18:51.788Z</time>
      </trkpt>
      <trkpt lat="45.64714" lon="5.30128">
        <ele>221</ele>
        <time>2021-02-28T09:18:52.788Z</time>
      </trkpt>
      <trkpt lat="45.64718" lon="5.30125">
        <ele>221</ele>
        <time>2021-02-28T09:18:53.788Z</time>
      </trkpt>
      <trkpt lat="45.64725" lon="5.3012">
        <ele>221</ele>
        <time>2021-02-28T09:18:54.788Z</time>
      </trkpt>
      <trkpt lat="45.6473" lon="5.30117">
        <ele>222</ele>
        <time>2021-02-28T09:18:55.788Z</time>
      </trkpt>
      <trkpt lat="45.64736" lon="5.30113">
        <ele>222</ele>
        <time>2021-02-28T09:18:56.788Z</time>
      </trkpt>
      <trkpt lat="45.64742" lon="5.30109">
        <ele>221</ele>
        <time>2021-02-28T09:18:57.788Z</time>
      </trkpt>
      <trkpt lat="45.64746" lon="5.30106">
        <ele>221</ele>
        <time>2021-02-28T09:18:58.788Z</time>
      </trkpt>
      <trkpt lat="45.64753" lon="5.30101">
        <ele>221</ele>
        <time>2021-02-28T09:18:59.788Z</time>
      </trkpt>
      <trkpt lat="45.64758" lon="5.30097">
        <ele>221</ele>
        <time>2021-02-28T09:19:00.788Z</time>
      </trkpt>
      <trkpt lat="45.64764" lon="5.30093">
        <ele>222</ele>
        <time>2021-02-28T09:19:01.788Z</time>
      </trkpt>
      <trkpt lat="45.64769" lon="5.30089">
        <ele>222</ele>
        <time>2021-02-28T09:19:02.788Z</time>
      </trkpt>
      <trkpt lat="45.64775" lon="5.30085">
        <ele>222</ele>
        <time>2021-02-28T09:19:03.788Z</time>
      </trkpt>
      <trkpt lat="45.6478" lon="5.30081">
        <ele>222</ele>
        <time>2021-02-28T09:19:04.787Z</time>
      </trkpt>
      <trkpt lat="45.64786" lon="5.30078">
        <ele>222</ele>
        <time>2021-02-28T09:19:05.788Z</time>
      </trkpt>
      <trkpt lat="45.64791" lon="5.30074">
        <ele>222</ele>
        <time>2021-02-28T09:19:06.788Z</time>
      </trkpt>
      <trkpt lat="45.64796" lon="5.3007">
        <ele>222</ele>
        <time>2021-02-28T09:19:07.788Z</time>
      </trkpt>
      <trkpt lat="45.64802" lon="5.30067">
        <ele>223</ele>
        <time>2021-02-28T09:19:08.788Z</time>
      </trkpt>
      <trkpt lat="45.64807" lon="5.30063">
        <ele>223</ele>
        <time>2021-02-28T09:19:09.787Z</time>
      </trkpt>
      <trkpt lat="45.64812" lon="5.30059">
        <ele>223</ele>
        <time>2021-02-28T09:19:10.788Z</time>
      </trkpt>
      <trkpt lat="45.64816" lon="5.30055">
        <ele>223</ele>
        <time>2021-02-28T09:19:11.788Z</time>
      </trkpt>
      <trkpt lat="45.64823" lon="5.3005">
        <ele>223</ele>
        <time>2021-02-28T09:19:12.788Z</time>
      </trkpt>
      <trkpt lat="45.64828" lon="5.30045">
        <ele>224</ele>
        <time>2021-02-28T09:19:13.788Z</time>
      </trkpt>
      <trkpt lat="45.64833" lon="5.30041">
        <ele>224</ele>
        <time>2021-02-28T09:19:14.787Z</time>
      </trkpt>
      <trkpt lat="45.64838" lon="5.30036">
        <ele>224</ele>
        <time>2021-02-28T09:19:15.788Z</time>
      </trkpt>
      <trkpt lat="45.64844" lon="5.30031">
        <ele>223</ele>
        <time>2021-02-28T09:19:16.788Z</time>
      </trkpt>
      <trkpt lat="45.64849" lon="5.30026">
        <ele>223</ele>
        <time>2021-02-28T09:19:17.787Z</time>
      </trkpt>
      <trkpt lat="45.64853" lon="5.30021">
        <ele>224</ele>
        <time>2021-02-28T09:19:18.787Z</time>
      </trkpt>
      <trkpt lat="45.64857" lon="5.30017">
        <ele>224</ele>
        <time>2021-02-28T09:19:19.788Z</time>
      </trkpt>
      <trkpt lat="45.64863" lon="5.3001">
        <ele>224</ele>
        <time>2021-02-28T09:19:20.788Z</time>
      </trkpt>
      <trkpt lat="45.64868" lon="5.30004">
        <ele>224</ele>
        <time>2021-02-28T09:19:21.787Z</time>
      </trkpt>
      <trkpt lat="45.64872" lon="5.29999">
        <ele>224</ele>
        <time>2021-02-28T09:19:22.787Z</time>
      </trkpt>
      <trkpt lat="45.64877" lon="5.29993">
        <ele>224</ele>
        <time>2021-02-28T09:19:23.788Z</time>
      </trkpt>
      <trkpt lat="45.6488" lon="5.29989">
        <ele>224</ele>
        <time>2021-02-28T09:19:24.787Z</time>
      </trkpt>
      <trkpt lat="45.64885" lon="5.29982">
        <ele>223</ele>
        <time>2021-02-28T09:19:25.787Z</time>
      </trkpt>
      <trkpt lat="45.64889" lon="5.29976">
        <ele>223</ele>
        <time>2021-02-28T09:19:26.788Z</time>
      </trkpt>
      <trkpt lat="45.64894" lon="5.2997">
        <ele>223</ele>
        <time>2021-02-28T09:19:27.788Z</time>
      </trkpt>
      <trkpt lat="45.64898" lon="5.29964">
        <ele>223</ele>
        <time>2021-02-28T09:19:28.787Z</time>
      </trkpt>
      <trkpt lat="45.64903" lon="5.29958">
        <ele>224</ele>
        <time>2021-02-28T09:19:29.788Z</time>
      </trkpt>
      <trkpt lat="45.64907" lon="5.29952">
        <ele>224</ele>
        <time>2021-02-28T09:19:30.788Z</time>
      </trkpt>
      <trkpt lat="45.64911" lon="5.29947">
        <ele>224</ele>
        <time>2021-02-28T09:19:31.788Z</time>
      </trkpt>
      <trkpt lat="45.64915" lon="5.29941">
        <ele>224</ele>
        <time>2021-02-28T09:19:32.788Z</time>
      </trkpt>
      <trkpt lat="45.6492" lon="5.29935">
        <ele>223</ele>
        <time>2021-02-28T09:19:33.788Z</time>
      </trkpt>
      <trkpt lat="45.64924" lon="5.29929">
        <ele>223</ele>
        <time>2021-02-28T09:19:34.788Z</time>
      </trkpt>
      <trkpt lat="45.64928" lon="5.29923">
        <ele>223</ele>
        <time>2021-02-28T09:19:35.788Z</time>
      </trkpt>
      <trkpt lat="45.64933" lon="5.29917">
        <ele>223</ele>
        <time>2021-02-28T09:19:36.788Z</time>
      </trkpt>
      <trkpt lat="45.64937" lon="5.29911">
        <ele>223</ele>
        <time>2021-02-28T09:19:37.787Z</time>
      </trkpt>
      <trkpt lat="45.64941" lon="5.29905">
        <ele>222</ele>
        <time>2021-02-28T09:19:38.788Z</time>
      </trkpt>
      <trkpt lat="45.64946" lon="5.29899">
        <ele>222</ele>
        <time>2021-02-28T09:19:39.788Z</time>
      </trkpt>
      <trkpt lat="45.6495" lon="5.29893">
        <ele>222</ele>
        <time>2021-02-28T09:19:40.788Z</time>
      </trkpt>
      <trkpt lat="45.64954" lon="5.29888">
        <ele>221</ele>
        <time>2021-02-28T09:19:41.788Z</time>
      </trkpt>
      <trkpt lat="45.64959" lon="5.29882">
        <ele>221</ele>
        <time>2021-02-28T09:19:42.788Z</time>
      </trkpt>
      <trkpt lat="45.64962" lon="5.29877">
        <ele>220</ele>
        <time>2021-02-28T09:19:43.788Z</time>
      </trkpt>
      <trkpt lat="45.64967" lon="5.2987">
        <ele>220</ele>
        <time>2021-02-28T09:19:44.788Z</time>
      </trkpt>
      <trkpt lat="45.64971" lon="5.29865">
        <ele>220</ele>
        <time>2021-02-28T09:19:45.788Z</time>
      </trkpt>
      <trkpt lat="45.64975" lon="5.29859">
        <ele>220</ele>
        <time>2021-02-28T09:19:46.787Z</time>
      </trkpt>
      <trkpt lat="45.64979" lon="5.29854">
        <ele>219</ele>
        <time>2021-02-28T09:19:47.788Z</time>
      </trkpt>
      <trkpt lat="45.64983" lon="5.29849">
        <ele>219</ele>
        <time>2021-02-28T09:19:48.788Z</time>
      </trkpt>
      <trkpt lat="45.64987" lon="5.29843">
        <ele>219</ele>
        <time>2021-02-28T09:19:49.788Z</time>
      </trkpt>
      <trkpt lat="45.64992" lon="5.29838">
        <ele>219</ele>
        <time>2021-02-28T09:19:50.787Z</time>
      </trkpt>
      <trkpt lat="45.64995" lon="5.29833">
        <ele>219</ele>
        <time>2021-02-28T09:19:51.788Z</time>
      </trkpt>
      <trkpt lat="45.65" lon="5.29826">
        <ele>219</ele>
        <time>2021-02-28T09:19:52.787Z</time>
      </trkpt>
      <trkpt lat="45.65005" lon="5.2982">
        <ele>219</ele>
        <time>2021-02-28T09:19:53.788Z</time>
      </trkpt>
      <trkpt lat="45.65009" lon="5.29814">
        <ele>219</ele>
        <time>2021-02-28T09:19:54.788Z</time>
      </trkpt>
      <trkpt lat="45.65014" lon="5.29808">
        <ele>219</ele>
        <time>2021-02-28T09:19:55.787Z</time>
      </trkpt>
      <trkpt lat="45.65018" lon="5.29802">
        <ele>219</ele>
        <time>2021-02-28T09:19:56.787Z</time>
      </trkpt>
      <trkpt lat="45.65023" lon="5.29797">
        <ele>219</ele>
        <time>2021-02-28T09:19:57.788Z</time>
      </trkpt>
      <trkpt lat="45.65028" lon="5.2979">
        <ele>220</ele>
        <time>2021-02-28T09:19:58.788Z</time>
      </trkpt>
      <trkpt lat="45.65032" lon="5.29784">
        <ele>220</ele>
        <time>2021-02-28T09:19:59.787Z</time>
      </trkpt>
      <trkpt lat="45.65037" lon="5.29778">
        <ele>220</ele>
        <time>2021-02-28T09:20:00.787Z</time>
      </trkpt>
      <trkpt lat="45.65042" lon="5.29772">
        <ele>221</ele>
        <time>2021-02-28T09:20:01.788Z</time>
      </trkpt>
      <trkpt lat="45.65046" lon="5.29765">
        <ele>221</ele>
        <time>2021-02-28T09:20:02.787Z</time>
      </trkpt>
      <trkpt lat="45.65051" lon="5.29759">
        <ele>221</ele>
        <time>2021-02-28T09:20:03.788Z</time>
      </trkpt>
      <trkpt lat="45.65055" lon="5.29752">
        <ele>221</ele>
        <time>2021-02-28T09:20:04.788Z</time>
      </trkpt>
      <trkpt lat="45.6506" lon="5.29746">
        <ele>221</ele>
        <time>2021-02-28T09:20:05.788Z</time>
      </trkpt>
      <trkpt lat="45.65065" lon="5.2974">
        <ele>221</ele>
        <time>2021-02-28T09:20:06.788Z</time>
      </trkpt>
      <trkpt lat="45.6507" lon="5.29734">
        <ele>221</ele>
        <time>2021-02-28T09:20:07.787Z</time>
      </trkpt>
      <trkpt lat="45.65075" lon="5.29728">
        <ele>221</ele>
        <time>2021-02-28T09:20:08.788Z</time>
      </trkpt>
      <trkpt lat="45.65079" lon="5.29723">
        <ele>222</ele>
        <time>2021-02-28T09:20:09.788Z</time>
      </trkpt>
      <trkpt lat="45.65083" lon="5.29716">
        <ele>221</ele>
        <time>2021-02-28T09:20:10.788Z</time>
      </trkpt>
      <trkpt lat="45.65087" lon="5.29709">
        <ele>221</ele>
        <time>2021-02-28T09:20:11.788Z</time>
      </trkpt>
      <trkpt lat="45.65091" lon="5.29702">
        <ele>221</ele>
        <time>2021-02-28T09:20:12.788Z</time>
      </trkpt>
      <trkpt lat="45.65095" lon="5.29698">
        <ele>221</ele>
        <time>2021-02-28T09:20:13.788Z</time>
      </trkpt>
      <trkpt lat="45.651" lon="5.29692">
        <ele>221</ele>
        <time>2021-02-28T09:20:14.788Z</time>
      </trkpt>
      <trkpt lat="45.65105" lon="5.29685">
        <ele>221</ele>
        <time>2021-02-28T09:20:15.788Z</time>
      </trkpt>
      <trkpt lat="45.65109" lon="5.29679">
        <ele>221</ele>
        <time>2021-02-28T09:20:16.787Z</time>
      </trkpt>
      <trkpt lat="45.65114" lon="5.29673">
        <ele>221</ele>
        <time>2021-02-28T09:20:17.788Z</time>
      </trkpt>
      <trkpt lat="45.65117" lon="5.29669">
        <ele>220</ele>
        <time>2021-02-28T09:20:18.788Z</time>
      </trkpt>
      <trkpt lat="45.65122" lon="5.29662">
        <ele>220</ele>
        <time>2021-02-28T09:20:19.787Z</time>
      </trkpt>
      <trkpt lat="45.65126" lon="5.29656">
        <ele>220</ele>
        <time>2021-02-28T09:20:20.787Z</time>
      </trkpt>
      <trkpt lat="45.6513" lon="5.2965">
        <ele>220</ele>
        <time>2021-02-28T09:20:21.788Z</time>
      </trkpt>
      <trkpt lat="45.65135" lon="5.29644">
        <ele>220</ele>
        <time>2021-02-28T09:20:22.787Z</time>
      </trkpt>
      <trkpt lat="45.6514" lon="5.29638">
        <ele>220</ele>
        <time>2021-02-28T09:20:23.788Z</time>
      </trkpt>
      <trkpt lat="45.65144" lon="5.29633">
        <ele>220</ele>
        <time>2021-02-28T09:20:24.787Z</time>
      </trkpt>
      <trkpt lat="45.65149" lon="5.29627">
        <ele>220</ele>
        <time>2021-02-28T09:20:25.788Z</time>
      </trkpt>
      <trkpt lat="45.65154" lon="5.29621">
        <ele>220</ele>
        <time>2021-02-28T09:20:26.788Z</time>
      </trkpt>
      <trkpt lat="45.65158" lon="5.29616">
        <ele>220</ele>
        <time>2021-02-28T09:20:27.788Z</time>
      </trkpt>
      <trkpt lat="45.65164" lon="5.29609">
        <ele>220</ele>
        <time>2021-02-28T09:20:28.788Z</time>
      </trkpt>
      <trkpt lat="45.65168" lon="5.29603">
        <ele>220</ele>
        <time>2021-02-28T09:20:29.787Z</time>
      </trkpt>
      <trkpt lat="45.65172" lon="5.29597">
        <ele>221</ele>
        <time>2021-02-28T09:20:30.788Z</time>
      </trkpt>
      <trkpt lat="45.65177" lon="5.29591">
        <ele>221</ele>
        <time>2021-02-28T09:20:31.787Z</time>
      </trkpt>
      <trkpt lat="45.65181" lon="5.29585">
        <ele>221</ele>
        <time>2021-02-28T09:20:32.788Z</time>
      </trkpt>
      <trkpt lat="45.65186" lon="5.29579">
        <ele>221</ele>
        <time>2021-02-28T09:20:33.787Z</time>
      </trkpt>
      <trkpt lat="45.65191" lon="5.29572">
        <ele>221</ele>
        <time>2021-02-28T09:20:34.788Z</time>
      </trkpt>
      <trkpt lat="45.65195" lon="5.29567">
        <ele>221</ele>
        <time>2021-02-28T09:20:35.788Z</time>
      </trkpt>
      <trkpt lat="45.652" lon="5.29559">
        <ele>221</ele>
        <time>2021-02-28T09:20:36.788Z</time>
      </trkpt>
      <trkpt lat="45.65205" lon="5.29553">
        <ele>221</ele>
        <time>2021-02-28T09:20:37.787Z</time>
      </trkpt>
      <trkpt lat="45.6521" lon="5.29547">
        <ele>221</ele>
        <time>2021-02-28T09:20:38.787Z</time>
      </trkpt>
      <trkpt lat="45.65214" lon="5.2954">
        <ele>221</ele>
        <time>2021-02-28T09:20:39.788Z</time>
      </trkpt>
      <trkpt lat="45.65218" lon="5.29535">
        <ele>221</ele>
        <time>2021-02-28T09:20:40.788Z</time>
      </trkpt>
      <trkpt lat="45.65223" lon="5.29528">
        <ele>221</ele>
        <time>2021-02-28T09:20:41.788Z</time>
      </trkpt>
      <trkpt lat="45.65228" lon="5.29521">
        <ele>221</ele>
        <time>2021-02-28T09:20:42.787Z</time>
      </trkpt>
      <trkpt lat="45.65232" lon="5.29515">
        <ele>221</ele>
        <time>2021-02-28T09:20:43.788Z</time>
      </trkpt>
      <trkpt lat="45.65237" lon="5.29508">
        <ele>221</ele>
        <time>2021-02-28T09:20:44.788Z</time>
      </trkpt>
      <trkpt lat="45.65242" lon="5.29502">
        <ele>222</ele>
        <time>2021-02-28T09:20:45.788Z</time>
      </trkpt>
      <trkpt lat="45.65247" lon="5.29496">
        <ele>222</ele>
        <time>2021-02-28T09:20:46.788Z</time>
      </trkpt>
      <trkpt lat="45.65251" lon="5.2949">
        <ele>223</ele>
        <time>2021-02-28T09:20:47.788Z</time>
      </trkpt>
      <trkpt lat="45.65256" lon="5.29484">
        <ele>223</ele>
        <time>2021-02-28T09:20:48.788Z</time>
      </trkpt>
      <trkpt lat="45.6526" lon="5.29478">
        <ele>223</ele>
        <time>2021-02-28T09:20:49.787Z</time>
      </trkpt>
      <trkpt lat="45.65264" lon="5.29472">
        <ele>222</ele>
        <time>2021-02-28T09:20:50.788Z</time>
      </trkpt>
      <trkpt lat="45.65269" lon="5.29467">
        <ele>222</ele>
        <time>2021-02-28T09:20:51.788Z</time>
      </trkpt>
      <trkpt lat="45.65273" lon="5.29461">
        <ele>221</ele>
        <time>2021-02-28T09:20:52.788Z</time>
      </trkpt>
      <trkpt lat="45.65278" lon="5.29455">
        <ele>221</ele>
        <time>2021-02-28T09:20:53.788Z</time>
      </trkpt>
      <trkpt lat="45.65282" lon="5.29449">
        <ele>221</ele>
        <time>2021-02-28T09:20:54.787Z</time>
      </trkpt>
      <trkpt lat="45.65286" lon="5.29443">
        <ele>220</ele>
        <time>2021-02-28T09:20:55.788Z</time>
      </trkpt>
      <trkpt lat="45.65291" lon="5.29437">
        <ele>220</ele>
        <time>2021-02-28T09:20:56.787Z</time>
      </trkpt>
      <trkpt lat="45.65295" lon="5.29433">
        <ele>219</ele>
        <time>2021-02-28T09:20:57.788Z</time>
      </trkpt>
      <trkpt lat="45.65299" lon="5.29427">
        <ele>219</ele>
        <time>2021-02-28T09:20:58.788Z</time>
      </trkpt>
      <trkpt lat="45.65305" lon="5.2942">
        <ele>219</ele>
        <time>2021-02-28T09:20:59.787Z</time>
      </trkpt>
      <trkpt lat="45.65309" lon="5.29414">
        <ele>218</ele>
        <time>2021-02-28T09:21:00.787Z</time>
      </trkpt>
      <trkpt lat="45.65314" lon="5.29408">
        <ele>218</ele>
        <time>2021-02-28T09:21:01.788Z</time>
      </trkpt>
      <trkpt lat="45.65318" lon="5.29403">
        <ele>218</ele>
        <time>2021-02-28T09:21:02.788Z</time>
      </trkpt>
      <trkpt lat="45.65324" lon="5.29396">
        <ele>218</ele>
        <time>2021-02-28T09:21:03.787Z</time>
      </trkpt>
      <trkpt lat="45.65329" lon="5.2939">
        <ele>218</ele>
        <time>2021-02-28T09:21:04.787Z</time>
      </trkpt>
      <trkpt lat="45.65333" lon="5.29384">
        <ele>218</ele>
        <time>2021-02-28T09:21:05.788Z</time>
      </trkpt>
      <trkpt lat="45.65338" lon="5.29379">
        <ele>219</ele>
        <time>2021-02-28T09:21:06.787Z</time>
      </trkpt>
      <trkpt lat="45.65343" lon="5.29373">
        <ele>219</ele>
        <time>2021-02-28T09:21:07.788Z</time>
      </trkpt>
      <trkpt lat="45.65348" lon="5.29368">
        <ele>219</ele>
        <time>2021-02-28T09:21:08.788Z</time>
      </trkpt>
      <trkpt lat="45.65352" lon="5.29362">
        <ele>219</ele>
        <time>2021-02-28T09:21:09.788Z</time>
      </trkpt>
      <trkpt lat="45.65357" lon="5.29357">
        <ele>219</ele>
        <time>2021-02-28T09:21:10.788Z</time>
      </trkpt>
      <trkpt lat="45.65362" lon="5.29352">
        <ele>220</ele>
        <time>2021-02-28T09:21:11.788Z</time>
      </trkpt>
      <trkpt lat="45.65366" lon="5.29346">
        <ele>219</ele>
        <time>2021-02-28T09:21:12.788Z</time>
      </trkpt>
      <trkpt lat="45.65371" lon="5.29341">
        <ele>219</ele>
        <time>2021-02-28T09:21:13.788Z</time>
      </trkpt>
      <trkpt lat="45.65376" lon="5.29336">
        <ele>219</ele>
        <time>2021-02-28T09:21:14.788Z</time>
      </trkpt>
      <trkpt lat="45.6538" lon="5.29332">
        <ele>219</ele>
        <time>2021-02-28T09:21:15.787Z</time>
      </trkpt>
      <trkpt lat="45.65385" lon="5.29326">
        <ele>219</ele>
        <time>2021-02-28T09:21:16.787Z</time>
      </trkpt>
      <trkpt lat="45.65391" lon="5.2932">
        <ele>219</ele>
        <time>2021-02-28T09:21:17.788Z</time>
      </trkpt>
      <trkpt lat="45.65395" lon="5.29314">
        <ele>219</ele>
        <time>2021-02-28T09:21:18.788Z</time>
      </trkpt>
      <trkpt lat="45.654" lon="5.29309">
        <ele>220</ele>
        <time>2021-02-28T09:21:19.788Z</time>
      </trkpt>
      <trkpt lat="45.65404" lon="5.29304">
        <ele>219</ele>
        <time>2021-02-28T09:21:20.788Z</time>
      </trkpt>
      <trkpt lat="45.6541" lon="5.29298">
        <ele>219</ele>
        <time>2021-02-28T09:21:21.787Z</time>
      </trkpt>
      <trkpt lat="45.65414" lon="5.29292">
        <ele>220</ele>
        <time>2021-02-28T09:21:22.788Z</time>
      </trkpt>
      <trkpt lat="45.65419" lon="5.29286">
        <ele>220</ele>
        <time>2021-02-28T09:21:23.787Z</time>
      </trkpt>
      <trkpt lat="45.65424" lon="5.29281">
        <ele>220</ele>
        <time>2021-02-28T09:21:24.787Z</time>
      </trkpt>
      <trkpt lat="45.65429" lon="5.29275">
        <ele>220</ele>
        <time>2021-02-28T09:21:25.788Z</time>
      </trkpt>
      <trkpt lat="45.65434" lon="5.2927">
        <ele>219</ele>
        <time>2021-02-28T09:21:26.787Z</time>
      </trkpt>
      <trkpt lat="45.65439" lon="5.29264">
        <ele>219</ele>
        <time>2021-02-28T09:21:27.788Z</time>
      </trkpt>
      <trkpt lat="45.65444" lon="5.29259">
        <ele>219</ele>
        <time>2021-02-28T09:21:28.788Z</time>
      </trkpt>
      <trkpt lat="45.65448" lon="5.29254">
        <ele>219</ele>
        <time>2021-02-28T09:21:29.788Z</time>
      </trkpt>
      <trkpt lat="45.65454" lon="5.29247">
        <ele>219</ele>
        <time>2021-02-28T09:21:30.788Z</time>
      </trkpt>
      <trkpt lat="45.65459" lon="5.29242">
        <ele>218</ele>
        <time>2021-02-28T09:21:31.788Z</time>
      </trkpt>
      <trkpt lat="45.65464" lon="5.29236">
        <ele>218</ele>
        <time>2021-02-28T09:21:32.788Z</time>
      </trkpt>
      <trkpt lat="45.65469" lon="5.2923">
        <ele>219</ele>
        <time>2021-02-28T09:21:33.788Z</time>
      </trkpt>
      <trkpt lat="45.65474" lon="5.29225">
        <ele>219</ele>
        <time>2021-02-28T09:21:34.788Z</time>
      </trkpt>
      <trkpt lat="45.65479" lon="5.29219">
        <ele>219</ele>
        <time>2021-02-28T09:21:35.788Z</time>
      </trkpt>
      <trkpt lat="45.65484" lon="5.29213">
        <ele>219</ele>
        <time>2021-02-28T09:21:36.788Z</time>
      </trkpt>
      <trkpt lat="45.65489" lon="5.29208">
        <ele>219</ele>
        <time>2021-02-28T09:21:37.787Z</time>
      </trkpt>
      <trkpt lat="45.65494" lon="5.29202">
        <ele>220</ele>
        <time>2021-02-28T09:21:38.788Z</time>
      </trkpt>
      <trkpt lat="45.65498" lon="5.29197">
        <ele>220</ele>
        <time>2021-02-28T09:21:39.788Z</time>
      </trkpt>
      <trkpt lat="45.65503" lon="5.29191">
        <ele>220</ele>
        <time>2021-02-28T09:21:40.788Z</time>
      </trkpt>
      <trkpt lat="45.65508" lon="5.29185">
        <ele>220</ele>
        <time>2021-02-28T09:21:41.788Z</time>
      </trkpt>
      <trkpt lat="45.65513" lon="5.2918">
        <ele>220</ele>
        <time>2021-02-28T09:21:42.787Z</time>
      </trkpt>
      <trkpt lat="45.65517" lon="5.29175">
        <ele>220</ele>
        <time>2021-02-28T09:21:43.788Z</time>
      </trkpt>
      <trkpt lat="45.65522" lon="5.2917">
        <ele>220</ele>
        <time>2021-02-28T09:21:44.787Z</time>
      </trkpt>
      <trkpt lat="45.65526" lon="5.29164">
        <ele>220</ele>
        <time>2021-02-28T09:21:45.788Z</time>
      </trkpt>
      <trkpt lat="45.65531" lon="5.29159">
        <ele>219</ele>
        <time>2021-02-28T09:21:46.788Z</time>
      </trkpt>
      <trkpt lat="45.65535" lon="5.29156">
        <ele>218</ele>
        <time>2021-02-28T09:21:47.788Z</time>
      </trkpt>
      <trkpt lat="45.6554" lon="5.29149">
        <ele>218</ele>
        <time>2021-02-28T09:21:48.788Z</time>
      </trkpt>
      <trkpt lat="45.65544" lon="5.29144">
        <ele>217</ele>
        <time>2021-02-28T09:21:49.788Z</time>
      </trkpt>
      <trkpt lat="45.65549" lon="5.29139">
        <ele>217</ele>
        <time>2021-02-28T09:21:50.788Z</time>
      </trkpt>
      <trkpt lat="45.65554" lon="5.29133">
        <ele>217</ele>
        <time>2021-02-28T09:21:51.787Z</time>
      </trkpt>
      <trkpt lat="45.65559" lon="5.29128">
        <ele>217</ele>
        <time>2021-02-28T09:21:52.788Z</time>
      </trkpt>
      <trkpt lat="45.65563" lon="5.29123">
        <ele>217</ele>
        <time>2021-02-28T09:21:53.788Z</time>
      </trkpt>
      <trkpt lat="45.65568" lon="5.29118">
        <ele>216</ele>
        <time>2021-02-28T09:21:54.788Z</time>
      </trkpt>
      <trkpt lat="45.65573" lon="5.29112">
        <ele>216</ele>
        <time>2021-02-28T09:21:55.787Z</time>
      </trkpt>
      <trkpt lat="45.65576" lon="5.29108">
        <ele>216</ele>
        <time>2021-02-28T09:21:56.788Z</time>
      </trkpt>
      <trkpt lat="45.65582" lon="5.29102">
        <ele>217</ele>
        <time>2021-02-28T09:21:57.788Z</time>
      </trkpt>
      <trkpt lat="45.65587" lon="5.29097">
        <ele>217</ele>
        <time>2021-02-28T09:21:58.788Z</time>
      </trkpt>
      <trkpt lat="45.65592" lon="5.29091">
        <ele>217</ele>
        <time>2021-02-28T09:21:59.788Z</time>
      </trkpt>
      <trkpt lat="45.65597" lon="5.29086">
        <ele>217</ele>
        <time>2021-02-28T09:22:00.788Z</time>
      </trkpt>
      <trkpt lat="45.65601" lon="5.2908">
        <ele>218</ele>
        <time>2021-02-28T09:22:01.788Z</time>
      </trkpt>
      <trkpt lat="45.65606" lon="5.29075">
        <ele>218</ele>
        <time>2021-02-28T09:22:02.788Z</time>
      </trkpt>
      <trkpt lat="45.65611" lon="5.29069">
        <ele>218</ele>
        <time>2021-02-28T09:22:03.788Z</time>
      </trkpt>
      <trkpt lat="45.65616" lon="5.29064">
        <ele>219</ele>
        <time>2021-02-28T09:22:04.788Z</time>
      </trkpt>
      <trkpt lat="45.6562" lon="5.29059">
        <ele>219</ele>
        <time>2021-02-28T09:22:05.787Z</time>
      </trkpt>
      <trkpt lat="45.65626" lon="5.29052">
        <ele>219</ele>
        <time>2021-02-28T09:22:06.788Z</time>
      </trkpt>
      <trkpt lat="45.6563" lon="5.29047">
        <ele>220</ele>
        <time>2021-02-28T09:22:07.787Z</time>
      </trkpt>
      <trkpt lat="45.65635" lon="5.29041">
        <ele>220</ele>
        <time>2021-02-28T09:22:08.788Z</time>
      </trkpt>
      <trkpt lat="45.6564" lon="5.29036">
        <ele>220</ele>
        <time>2021-02-28T09:22:09.788Z</time>
      </trkpt>
      <trkpt lat="45.65645" lon="5.2903">
        <ele>220</ele>
        <time>2021-02-28T09:22:10.787Z</time>
      </trkpt>
      <trkpt lat="45.65649" lon="5.29025">
        <ele>220</ele>
        <time>2021-02-28T09:22:11.787Z</time>
      </trkpt>
      <trkpt lat="45.65654" lon="5.2902">
        <ele>220</ele>
        <time>2021-02-28T09:22:12.787Z</time>
      </trkpt>
      <trkpt lat="45.65658" lon="5.29015">
        <ele>220</ele>
        <time>2021-02-28T09:22:13.788Z</time>
      </trkpt>
      <trkpt lat="45.65663" lon="5.2901">
        <ele>219</ele>
        <time>2021-02-28T09:22:14.788Z</time>
      </trkpt>
      <trkpt lat="45.65668" lon="5.29004">
        <ele>219</ele>
        <time>2021-02-28T09:22:15.788Z</time>
      </trkpt>
      <trkpt lat="45.65671" lon="5.28999">
        <ele>219</ele>
        <time>2021-02-28T09:22:16.788Z</time>
      </trkpt>
      <trkpt lat="45.65676" lon="5.28993">
        <ele>219</ele>
        <time>2021-02-28T09:22:17.788Z</time>
      </trkpt>
      <trkpt lat="45.65679" lon="5.28989">
        <ele>220</ele>
        <time>2021-02-28T09:22:18.788Z</time>
      </trkpt>
      <trkpt lat="45.65685" lon="5.28982">
        <ele>220</ele>
        <time>2021-02-28T09:22:19.788Z</time>
      </trkpt>
      <trkpt lat="45.6569" lon="5.28977">
        <ele>220</ele>
        <time>2021-02-28T09:22:20.788Z</time>
      </trkpt>
      <trkpt lat="45.65695" lon="5.28972">
        <ele>220</ele>
        <time>2021-02-28T09:22:21.787Z</time>
      </trkpt>
      <trkpt lat="45.65699" lon="5.28968">
        <ele>220</ele>
        <time>2021-02-28T09:22:22.787Z</time>
      </trkpt>
      <trkpt lat="45.65704" lon="5.28962">
        <ele>220</ele>
        <time>2021-02-28T09:22:23.788Z</time>
      </trkpt>
      <trkpt lat="45.6571" lon="5.28956">
        <ele>220</ele>
        <time>2021-02-28T09:22:24.788Z</time>
      </trkpt>
      <trkpt lat="45.65715" lon="5.28951">
        <ele>220</ele>
        <time>2021-02-28T09:22:25.787Z</time>
      </trkpt>
      <trkpt lat="45.6572" lon="5.28946">
        <ele>220</ele>
        <time>2021-02-28T09:22:26.787Z</time>
      </trkpt>
      <trkpt lat="45.65725" lon="5.28941">
        <ele>220</ele>
        <time>2021-02-28T09:22:27.788Z</time>
      </trkpt>
      <trkpt lat="45.6573" lon="5.28937">
        <ele>219</ele>
        <time>2021-02-28T09:22:28.787Z</time>
      </trkpt>
      <trkpt lat="45.65735" lon="5.28932">
        <ele>219</ele>
        <time>2021-02-28T09:22:29.788Z</time>
      </trkpt>
      <trkpt lat="45.65739" lon="5.28928">
        <ele>219</ele>
        <time>2021-02-28T09:22:30.788Z</time>
      </trkpt>
      <trkpt lat="45.65743" lon="5.28925">
        <ele>219</ele>
        <time>2021-02-28T09:22:31.788Z</time>
      </trkpt>
      <trkpt lat="45.65747" lon="5.28921">
        <ele>219</ele>
        <time>2021-02-28T09:22:32.788Z</time>
      </trkpt>
      <trkpt lat="45.65752" lon="5.28916">
        <ele>219</ele>
        <time>2021-02-28T09:22:33.788Z</time>
      </trkpt>
      <trkpt lat="45.65756" lon="5.28911">
        <ele>218</ele>
        <time>2021-02-28T09:22:34.788Z</time>
      </trkpt>
      <trkpt lat="45.65759" lon="5.28905">
        <ele>218</ele>
        <time>2021-02-28T09:22:35.787Z</time>
      </trkpt>
      <trkpt lat="45.65763" lon="5.289">
        <ele>218</ele>
        <time>2021-02-28T09:22:36.788Z</time>
      </trkpt>
      <trkpt lat="45.65766" lon="5.28896">
        <ele>218</ele>
        <time>2021-02-28T09:22:37.788Z</time>
      </trkpt>
      <trkpt lat="45.65771" lon="5.28889">
        <ele>217</ele>
        <time>2021-02-28T09:22:38.787Z</time>
      </trkpt>
      <trkpt lat="45.65775" lon="5.28883">
        <ele>217</ele>
        <time>2021-02-28T09:22:39.788Z</time>
      </trkpt>
      <trkpt lat="45.65779" lon="5.28879">
        <ele>218</ele>
        <time>2021-02-28T09:22:40.787Z</time>
      </trkpt>
      <trkpt lat="45.65783" lon="5.28874">
        <ele>218</ele>
        <time>2021-02-28T09:22:41.787Z</time>
      </trkpt>
      <trkpt lat="45.65788" lon="5.28869">
        <ele>219</ele>
        <time>2021-02-28T09:22:42.788Z</time>
      </trkpt>
      <trkpt lat="45.65792" lon="5.28865">
        <ele>219</ele>
        <time>2021-02-28T09:22:43.788Z</time>
      </trkpt>
      <trkpt lat="45.65795" lon="5.28861">
        <ele>219</ele>
        <time>2021-02-28T09:22:44.788Z</time>
      </trkpt>
      <trkpt lat="45.65798" lon="5.28858">
        <ele>219</ele>
        <time>2021-02-28T09:22:45.788Z</time>
      </trkpt>
      <trkpt lat="45.65802" lon="5.28854">
        <ele>219</ele>
        <time>2021-02-28T09:22:46.788Z</time>
      </trkpt>
      <trkpt lat="45.65805" lon="5.2885">
        <ele>220</ele>
        <time>2021-02-28T09:22:47.788Z</time>
      </trkpt>
      <trkpt lat="45.6581" lon="5.28846">
        <ele>220</ele>
        <time>2021-02-28T09:22:48.788Z</time>
      </trkpt>
      <trkpt lat="45.65812" lon="5.28843">
        <ele>220</ele>
        <time>2021-02-28T09:22:49.788Z</time>
      </trkpt>
      <trkpt lat="45.65815" lon="5.28839">
        <ele>221</ele>
        <time>2021-02-28T09:22:50.788Z</time>
      </trkpt>
      <trkpt lat="45.65819" lon="5.28833">
        <ele>221</ele>
        <time>2021-02-28T09:22:51.788Z</time>
      </trkpt>
      <trkpt lat="45.65822" lon="5.28828">
        <ele>221</ele>
        <time>2021-02-28T09:22:52.788Z</time>
      </trkpt>
      <trkpt lat="45.65825" lon="5.28822">
        <ele>221</ele>
        <time>2021-02-28T09:22:53.787Z</time>
      </trkpt>
      <trkpt lat="45.65828" lon="5.28817">
        <ele>222</ele>
        <time>2021-02-28T09:22:54.787Z</time>
      </trkpt>
      <trkpt lat="45.6583" lon="5.28812">
        <ele>222</ele>
        <time>2021-02-28T09:22:55.788Z</time>
      </trkpt>
      <trkpt lat="45.65833" lon="5.28806">
        <ele>222</ele>
        <time>2021-02-28T09:22:56.788Z</time>
      </trkpt>
      <trkpt lat="45.65835" lon="5.288">
        <ele>222</ele>
        <time>2021-02-28T09:22:57.788Z</time>
      </trkpt>
      <trkpt lat="45.65836" lon="5.28796">
        <ele>221</ele>
        <time>2021-02-28T09:22:58.788Z</time>
      </trkpt>
      <trkpt lat="45.65838" lon="5.2879">
        <ele>221</ele>
        <time>2021-02-28T09:22:59.787Z</time>
      </trkpt>
      <trkpt lat="45.65841" lon="5.28784">
        <ele>220</ele>
        <time>2021-02-28T09:23:00.787Z</time>
      </trkpt>
      <trkpt lat="45.65843" lon="5.28779">
        <ele>220</ele>
        <time>2021-02-28T09:23:01.787Z</time>
      </trkpt>
      <trkpt lat="45.65845" lon="5.28774">
        <ele>220</ele>
        <time>2021-02-28T09:23:02.787Z</time>
      </trkpt>
      <trkpt lat="45.65846" lon="5.28769">
        <ele>220</ele>
        <time>2021-02-28T09:23:03.787Z</time>
      </trkpt>
      <trkpt lat="45.65849" lon="5.28763">
        <ele>220</ele>
        <time>2021-02-28T09:23:04.788Z</time>
      </trkpt>
      <trkpt lat="45.65851" lon="5.28758">
        <ele>220</ele>
        <time>2021-02-28T09:23:05.788Z</time>
      </trkpt>
      <trkpt lat="45.65852" lon="5.28752">
        <ele>219</ele>
        <time>2021-02-28T09:23:06.788Z</time>
      </trkpt>
      <trkpt lat="45.65854" lon="5.28748">
        <ele>219</ele>
        <time>2021-02-28T09:23:07.788Z</time>
      </trkpt>
      <trkpt lat="45.65856" lon="5.28742">
        <ele>219</ele>
        <time>2021-02-28T09:23:08.788Z</time>
      </trkpt>
      <trkpt lat="45.65859" lon="5.28735">
        <ele>219</ele>
        <time>2021-02-28T09:23:09.788Z</time>
      </trkpt>
      <trkpt lat="45.65861" lon="5.28729">
        <ele>219</ele>
        <time>2021-02-28T09:23:10.787Z</time>
      </trkpt>
      <trkpt lat="45.65864" lon="5.28722">
        <ele>219</ele>
        <time>2021-02-28T09:23:11.788Z</time>
      </trkpt>
      <trkpt lat="45.65866" lon="5.28717">
        <ele>220</ele>
        <time>2021-02-28T09:23:12.788Z</time>
      </trkpt>
      <trkpt lat="45.65868" lon="5.28711">
        <ele>220</ele>
        <time>2021-02-28T09:23:13.788Z</time>
      </trkpt>
      <trkpt lat="45.65871" lon="5.28703">
        <ele>220</ele>
        <time>2021-02-28T09:23:14.788Z</time>
      </trkpt>
      <trkpt lat="45.65873" lon="5.28697">
        <ele>220</ele>
        <time>2021-02-28T09:23:15.787Z</time>
      </trkpt>
      <trkpt lat="45.65874" lon="5.28692">
        <ele>219</ele>
        <time>2021-02-28T09:23:16.787Z</time>
      </trkpt>
      <trkpt lat="45.65877" lon="5.28685">
        <ele>219</ele>
        <time>2021-02-28T09:23:17.788Z</time>
      </trkpt>
      <trkpt lat="45.6588" lon="5.28678">
        <ele>219</ele>
        <time>2021-02-28T09:23:18.788Z</time>
      </trkpt>
      <trkpt lat="45.65882" lon="5.28671">
        <ele>220</ele>
        <time>2021-02-28T09:23:19.787Z</time>
      </trkpt>
      <trkpt lat="45.65884" lon="5.28665">
        <ele>219</ele>
        <time>2021-02-28T09:23:20.788Z</time>
      </trkpt>
      <trkpt lat="45.65886" lon="5.2866">
        <ele>219</ele>
        <time>2021-02-28T09:23:21.788Z</time>
      </trkpt>
      <trkpt lat="45.65889" lon="5.28654">
        <ele>220</ele>
        <time>2021-02-28T09:23:22.788Z</time>
      </trkpt>
      <trkpt lat="45.65892" lon="5.28646">
        <ele>220</ele>
        <time>2021-02-28T09:23:23.787Z</time>
      </trkpt>
      <trkpt lat="45.65894" lon="5.28639">
        <ele>220</ele>
        <time>2021-02-28T09:23:24.787Z</time>
      </trkpt>
      <trkpt lat="45.65897" lon="5.28633">
        <ele>220</ele>
        <time>2021-02-28T09:23:25.788Z</time>
      </trkpt>
      <trkpt lat="45.65899" lon="5.28627">
        <ele>220</ele>
        <time>2021-02-28T09:23:26.787Z</time>
      </trkpt>
      <trkpt lat="45.65902" lon="5.2862">
        <ele>220</ele>
        <time>2021-02-28T09:23:27.788Z</time>
      </trkpt>
      <trkpt lat="45.65904" lon="5.28613">
        <ele>220</ele>
        <time>2021-02-28T09:23:28.788Z</time>
      </trkpt>
      <trkpt lat="45.65906" lon="5.28607">
        <ele>220</ele>
        <time>2021-02-28T09:23:29.788Z</time>
      </trkpt>
      <trkpt lat="45.65908" lon="5.28601">
        <ele>220</ele>
        <time>2021-02-28T09:23:30.787Z</time>
      </trkpt>
      <trkpt lat="45.6591" lon="5.28596">
        <ele>221</ele>
        <time>2021-02-28T09:23:31.788Z</time>
      </trkpt>
      <trkpt lat="45.65913" lon="5.28589">
        <ele>221</ele>
        <time>2021-02-28T09:23:32.788Z</time>
      </trkpt>
      <trkpt lat="45.65915" lon="5.28582">
        <ele>221</ele>
        <time>2021-02-28T09:23:33.787Z</time>
      </trkpt>
      <trkpt lat="45.65917" lon="5.28577">
        <ele>221</ele>
        <time>2021-02-28T09:23:34.788Z</time>
      </trkpt>
      <trkpt lat="45.65919" lon="5.28571">
        <ele>221</ele>
        <time>2021-02-28T09:23:35.788Z</time>
      </trkpt>
      <trkpt lat="45.65922" lon="5.28563">
        <ele>221</ele>
        <time>2021-02-28T09:23:36.788Z</time>
      </trkpt>
      <trkpt lat="45.65925" lon="5.28557">
        <ele>221</ele>
        <time>2021-02-28T09:23:37.787Z</time>
      </trkpt>
      <trkpt lat="45.65928" lon="5.2855">
        <ele>222</ele>
        <time>2021-02-28T09:23:38.788Z</time>
      </trkpt>
      <trkpt lat="45.6593" lon="5.28543">
        <ele>222</ele>
        <time>2021-02-28T09:23:39.788Z</time>
      </trkpt>
      <trkpt lat="45.65933" lon="5.28538">
        <ele>221</ele>
        <time>2021-02-28T09:23:40.788Z</time>
      </trkpt>
      <trkpt lat="45.65936" lon="5.28529">
        <ele>221</ele>
        <time>2021-02-28T09:23:41.788Z</time>
      </trkpt>
      <trkpt lat="45.65939" lon="5.28522">
        <ele>221</ele>
        <time>2021-02-28T09:23:42.788Z</time>
      </trkpt>
      <trkpt lat="45.65942" lon="5.28514">
        <ele>220</ele>
        <time>2021-02-28T09:23:43.788Z</time>
      </trkpt>
      <trkpt lat="45.65945" lon="5.28506">
        <ele>220</ele>
        <time>2021-02-28T09:23:44.788Z</time>
      </trkpt>
      <trkpt lat="45.65948" lon="5.28498">
        <ele>220</ele>
        <time>2021-02-28T09:23:45.787Z</time>
      </trkpt>
      <trkpt lat="45.65951" lon="5.2849">
        <ele>219</ele>
        <time>2021-02-28T09:23:46.788Z</time>
      </trkpt>
      <trkpt lat="45.65954" lon="5.28482">
        <ele>219</ele>
        <time>2021-02-28T09:23:47.788Z</time>
      </trkpt>
      <trkpt lat="45.65957" lon="5.28475">
        <ele>219</ele>
        <time>2021-02-28T09:23:48.788Z</time>
      </trkpt>
      <trkpt lat="45.6596" lon="5.28467">
        <ele>219</ele>
        <time>2021-02-28T09:23:49.788Z</time>
      </trkpt>
      <trkpt lat="45.65963" lon="5.28458">
        <ele>220</ele>
        <time>2021-02-28T09:23:50.788Z</time>
      </trkpt>
      <trkpt lat="45.65966" lon="5.2845">
        <ele>220</ele>
        <time>2021-02-28T09:23:51.788Z</time>
      </trkpt>
      <trkpt lat="45.65968" lon="5.28443">
        <ele>220</ele>
        <time>2021-02-28T09:23:52.788Z</time>
      </trkpt>
      <trkpt lat="45.6597" lon="5.28438">
        <ele>220</ele>
        <time>2021-02-28T09:23:53.788Z</time>
      </trkpt>
      <trkpt lat="45.65973" lon="5.28431">
        <ele>220</ele>
        <time>2021-02-28T09:23:54.788Z</time>
      </trkpt>
      <trkpt lat="45.65976" lon="5.28425">
        <ele>221</ele>
        <time>2021-02-28T09:23:55.788Z</time>
      </trkpt>
      <trkpt lat="45.65978" lon="5.28419">
        <ele>221</ele>
        <time>2021-02-28T09:23:56.788Z</time>
      </trkpt>
      <trkpt lat="45.6598" lon="5.28414">
        <ele>221</ele>
        <time>2021-02-28T09:23:57.788Z</time>
      </trkpt>
      <trkpt lat="45.65981" lon="5.28409">
        <ele>221</ele>
        <time>2021-02-28T09:23:58.788Z</time>
      </trkpt>
      <trkpt lat="45.65984" lon="5.28402">
        <ele>221</ele>
        <time>2021-02-28T09:23:59.788Z</time>
      </trkpt>
      <trkpt lat="45.65986" lon="5.28396">
        <ele>221</ele>
        <time>2021-02-28T09:24:00.788Z</time>
      </trkpt>
      <trkpt lat="45.65988" lon="5.28392">
        <ele>221</ele>
        <time>2021-02-28T09:24:01.788Z</time>
      </trkpt>
      <trkpt lat="45.6599" lon="5.28385">
        <ele>222</ele>
        <time>2021-02-28T09:24:02.788Z</time>
      </trkpt>
      <trkpt lat="45.65992" lon="5.28379">
        <ele>222</ele>
        <time>2021-02-28T09:24:03.788Z</time>
      </trkpt>
      <trkpt lat="45.65994" lon="5.28374">
        <ele>222</ele>
        <time>2021-02-28T09:24:04.788Z</time>
      </trkpt>
      <trkpt lat="45.65996" lon="5.28369">
        <ele>222</ele>
        <time>2021-02-28T09:24:05.787Z</time>
      </trkpt>
      <trkpt lat="45.65998" lon="5.28364">
        <ele>223</ele>
        <time>2021-02-28T09:24:06.788Z</time>
      </trkpt>
      <trkpt lat="45.65999" lon="5.2836">
        <ele>223</ele>
        <time>2021-02-28T09:24:07.788Z</time>
      </trkpt>
      <trkpt lat="45.66002" lon="5.28354">
        <ele>223</ele>
        <time>2021-02-28T09:24:08.788Z</time>
      </trkpt>
      <trkpt lat="45.66004" lon="5.28348">
        <ele>223</ele>
        <time>2021-02-28T09:24:09.788Z</time>
      </trkpt>
      <trkpt lat="45.66006" lon="5.28343">
        <ele>223</ele>
        <time>2021-02-28T09:24:10.787Z</time>
      </trkpt>
      <trkpt lat="45.66008" lon="5.28337">
        <ele>224</ele>
        <time>2021-02-28T09:24:11.788Z</time>
      </trkpt>
      <trkpt lat="45.66011" lon="5.28331">
        <ele>224</ele>
        <time>2021-02-28T09:24:12.788Z</time>
      </trkpt>
      <trkpt lat="45.66013" lon="5.28325">
        <ele>224</ele>
        <time>2021-02-28T09:24:13.787Z</time>
      </trkpt>
      <trkpt lat="45.66015" lon="5.2832">
        <ele>225</ele>
        <time>2021-02-28T09:24:14.787Z</time>
      </trkpt>
      <trkpt lat="45.66017" lon="5.28316">
        <ele>225</ele>
        <time>2021-02-28T09:24:15.788Z</time>
      </trkpt>
      <trkpt lat="45.66019" lon="5.28311">
        <ele>226</ele>
        <time>2021-02-28T09:24:16.788Z</time>
      </trkpt>
      <trkpt lat="45.66021" lon="5.28305">
        <ele>226</ele>
        <time>2021-02-28T09:24:17.787Z</time>
      </trkpt>
      <trkpt lat="45.66023" lon="5.283">
        <ele>226</ele>
        <time>2021-02-28T09:24:18.787Z</time>
      </trkpt>
      <trkpt lat="45.66026" lon="5.28295">
        <ele>226</ele>
        <time>2021-02-28T09:24:19.788Z</time>
      </trkpt>
      <trkpt lat="45.66027" lon="5.2829">
        <ele>227</ele>
        <time>2021-02-28T09:24:20.788Z</time>
      </trkpt>
      <trkpt lat="45.66029" lon="5.28285">
        <ele>227</ele>
        <time>2021-02-28T09:24:21.787Z</time>
      </trkpt>
      <trkpt lat="45.66032" lon="5.28279">
        <ele>228</ele>
        <time>2021-02-28T09:24:22.787Z</time>
      </trkpt>
      <trkpt lat="45.66034" lon="5.28274">
        <ele>228</ele>
        <time>2021-02-28T09:24:23.788Z</time>
      </trkpt>
      <trkpt lat="45.66035" lon="5.2827">
        <ele>228</ele>
        <time>2021-02-28T09:24:24.788Z</time>
      </trkpt>
      <trkpt lat="45.66037" lon="5.28265">
        <ele>229</ele>
        <time>2021-02-28T09:24:25.788Z</time>
      </trkpt>
      <trkpt lat="45.66039" lon="5.28259">
        <ele>229</ele>
        <time>2021-02-28T09:24:26.787Z</time>
      </trkpt>
      <trkpt lat="45.66041" lon="5.28254">
        <ele>229</ele>
        <time>2021-02-28T09:24:27.788Z</time>
      </trkpt>
      <trkpt lat="45.66042" lon="5.28251">
        <ele>229</ele>
        <time>2021-02-28T09:24:28.788Z</time>
      </trkpt>
      <trkpt lat="45.66044" lon="5.28246">
        <ele>229</ele>
        <time>2021-02-28T09:24:29.788Z</time>
      </trkpt>
      <trkpt lat="45.66046" lon="5.28241">
        <ele>229</ele>
        <time>2021-02-28T09:24:30.788Z</time>
      </trkpt>
      <trkpt lat="45.66048" lon="5.28237">
        <ele>229</ele>
        <time>2021-02-28T09:24:31.788Z</time>
      </trkpt>
      <trkpt lat="45.66049" lon="5.28232">
        <ele>229</ele>
        <time>2021-02-28T09:24:32.788Z</time>
      </trkpt>
      <trkpt lat="45.66051" lon="5.28228">
        <ele>229</ele>
        <time>2021-02-28T09:24:33.787Z</time>
      </trkpt>
      <trkpt lat="45.66052" lon="5.28224">
        <ele>229</ele>
        <time>2021-02-28T09:24:34.788Z</time>
      </trkpt>
      <trkpt lat="45.66054" lon="5.28218">
        <ele>229</ele>
        <time>2021-02-28T09:24:35.788Z</time>
      </trkpt>
      <trkpt lat="45.66056" lon="5.28214">
        <ele>229</ele>
        <time>2021-02-28T09:24:36.787Z</time>
      </trkpt>
      <trkpt lat="45.66058" lon="5.28209">
        <ele>229</ele>
        <time>2021-02-28T09:24:37.788Z</time>
      </trkpt>
      <trkpt lat="45.6606" lon="5.28204">
        <ele>229</ele>
        <time>2021-02-28T09:24:38.787Z</time>
      </trkpt>
      <trkpt lat="45.66062" lon="5.28199">
        <ele>230</ele>
        <time>2021-02-28T09:24:39.788Z</time>
      </trkpt>
      <trkpt lat="45.66063" lon="5.28194">
        <ele>230</ele>
        <time>2021-02-28T09:24:40.787Z</time>
      </trkpt>
      <trkpt lat="45.66065" lon="5.28189">
        <ele>230</ele>
        <time>2021-02-28T09:24:41.787Z</time>
      </trkpt>
      <trkpt lat="45.66067" lon="5.28184">
        <ele>230</ele>
        <time>2021-02-28T09:24:42.788Z</time>
      </trkpt>
      <trkpt lat="45.6607" lon="5.28178">
        <ele>231</ele>
        <time>2021-02-28T09:24:43.788Z</time>
      </trkpt>
      <trkpt lat="45.66072" lon="5.28173">
        <ele>231</ele>
        <time>2021-02-28T09:24:44.788Z</time>
      </trkpt>
      <trkpt lat="45.66074" lon="5.28168">
        <ele>231</ele>
        <time>2021-02-28T09:24:45.788Z</time>
      </trkpt>
      <trkpt lat="45.66076" lon="5.28164">
        <ele>231</ele>
        <time>2021-02-28T09:24:46.788Z</time>
      </trkpt>
      <trkpt lat="45.66078" lon="5.2816">
        <ele>232</ele>
        <time>2021-02-28T09:24:47.788Z</time>
      </trkpt>
      <trkpt lat="45.6608" lon="5.28156">
        <ele>232</ele>
        <time>2021-02-28T09:24:48.788Z</time>
      </trkpt>
      <trkpt lat="45.66083" lon="5.28152">
        <ele>232</ele>
        <time>2021-02-28T09:24:49.787Z</time>
      </trkpt>
      <trkpt lat="45.66085" lon="5.28149">
        <ele>232</ele>
        <time>2021-02-28T09:24:50.788Z</time>
      </trkpt>
      <trkpt lat="45.66087" lon="5.28146">
        <ele>232</ele>
        <time>2021-02-28T09:24:51.787Z</time>
      </trkpt>
      <trkpt lat="45.66089" lon="5.28142">
        <ele>232</ele>
        <time>2021-02-28T09:24:52.787Z</time>
      </trkpt>
      <trkpt lat="45.66092" lon="5.28138">
        <ele>232</ele>
        <time>2021-02-28T09:24:53.787Z</time>
      </trkpt>
      <trkpt lat="45.66095" lon="5.28135">
        <ele>233</ele>
        <time>2021-02-28T09:24:54.787Z</time>
      </trkpt>
      <trkpt lat="45.66097" lon="5.28132">
        <ele>233</ele>
        <time>2021-02-28T09:24:55.787Z</time>
      </trkpt>
      <trkpt lat="45.66101" lon="5.28129">
        <ele>233</ele>
        <time>2021-02-28T09:24:56.788Z</time>
      </trkpt>
      <trkpt lat="45.66104" lon="5.28126">
        <ele>234</ele>
        <time>2021-02-28T09:24:57.788Z</time>
      </trkpt>
      <trkpt lat="45.66107" lon="5.28124">
        <ele>234</ele>
        <time>2021-02-28T09:24:58.788Z</time>
      </trkpt>
      <trkpt lat="45.66111" lon="5.28122">
        <ele>234</ele>
        <time>2021-02-28T09:24:59.788Z</time>
      </trkpt>
      <trkpt lat="45.66114" lon="5.28121">
        <ele>234</ele>
        <time>2021-02-28T09:25:00.788Z</time>
      </trkpt>
      <trkpt lat="45.66118" lon="5.28119">
        <ele>234</ele>
        <time>2021-02-28T09:25:01.788Z</time>
      </trkpt>
      <trkpt lat="45.66122" lon="5.28117">
        <ele>234</ele>
        <time>2021-02-28T09:25:02.787Z</time>
      </trkpt>
      <trkpt lat="45.66126" lon="5.28116">
        <ele>235</ele>
        <time>2021-02-28T09:25:03.788Z</time>
      </trkpt>
      <trkpt lat="45.6613" lon="5.28114">
        <ele>235</ele>
        <time>2021-02-28T09:25:04.788Z</time>
      </trkpt>
      <trkpt lat="45.66134" lon="5.28112">
        <ele>236</ele>
        <time>2021-02-28T09:25:05.788Z</time>
      </trkpt>
      <trkpt lat="45.66137" lon="5.28111">
        <ele>236</ele>
        <time>2021-02-28T09:25:06.788Z</time>
      </trkpt>
      <trkpt lat="45.6614" lon="5.2811">
        <ele>235</ele>
        <time>2021-02-28T09:25:07.788Z</time>
      </trkpt>
      <trkpt lat="45.66144" lon="5.28109">
        <ele>235</ele>
        <time>2021-02-28T09:25:08.787Z</time>
      </trkpt>
      <trkpt lat="45.66148" lon="5.28107">
        <ele>235</ele>
        <time>2021-02-28T09:25:09.788Z</time>
      </trkpt>
      <trkpt lat="45.66152" lon="5.28106">
        <ele>235</ele>
        <time>2021-02-28T09:25:10.787Z</time>
      </trkpt>
      <trkpt lat="45.66156" lon="5.28104">
        <ele>234</ele>
        <time>2021-02-28T09:25:11.787Z</time>
      </trkpt>
      <trkpt lat="45.6616" lon="5.28103">
        <ele>234</ele>
        <time>2021-02-28T09:25:12.787Z</time>
      </trkpt>
      <trkpt lat="45.66163" lon="5.28102">
        <ele>234</ele>
        <time>2021-02-28T09:25:13.788Z</time>
      </trkpt>
      <trkpt lat="45.66167" lon="5.28101">
        <ele>234</ele>
        <time>2021-02-28T09:25:14.788Z</time>
      </trkpt>
      <trkpt lat="45.6617" lon="5.28099">
        <ele>234</ele>
        <time>2021-02-28T09:25:15.788Z</time>
      </trkpt>
      <trkpt lat="45.66173" lon="5.28097">
        <ele>234</ele>
        <time>2021-02-28T09:25:16.787Z</time>
      </trkpt>
      <trkpt lat="45.66177" lon="5.28095">
        <ele>234</ele>
        <time>2021-02-28T09:25:17.788Z</time>
      </trkpt>
      <trkpt lat="45.6618" lon="5.28093">
        <ele>234</ele>
        <time>2021-02-28T09:25:18.788Z</time>
      </trkpt>
      <trkpt lat="45.66183" lon="5.28091">
        <ele>234</ele>
        <time>2021-02-28T09:25:19.788Z</time>
      </trkpt>
      <trkpt lat="45.66186" lon="5.28089">
        <ele>234</ele>
        <time>2021-02-28T09:25:20.788Z</time>
      </trkpt>
      <trkpt lat="45.66189" lon="5.28087">
        <ele>234</ele>
        <time>2021-02-28T09:25:21.788Z</time>
      </trkpt>
      <trkpt lat="45.66192" lon="5.28085">
        <ele>234</ele>
        <time>2021-02-28T09:25:22.787Z</time>
      </trkpt>
      <trkpt lat="45.66195" lon="5.28082">
        <ele>234</ele>
        <time>2021-02-28T09:25:23.788Z</time>
      </trkpt>
      <trkpt lat="45.66197" lon="5.28079">
        <ele>234</ele>
        <time>2021-02-28T09:25:24.788Z</time>
      </trkpt>
      <trkpt lat="45.662" lon="5.28076">
        <ele>234</ele>
        <time>2021-02-28T09:25:25.787Z</time>
      </trkpt>
      <trkpt lat="45.66202" lon="5.28072">
        <ele>234</ele>
        <time>2021-02-28T09:25:26.788Z</time>
      </trkpt>
      <trkpt lat="45.66205" lon="5.28069">
        <ele>234</ele>
        <time>2021-02-28T09:25:27.788Z</time>
      </trkpt>
      <trkpt lat="45.66207" lon="5.28066">
        <ele>233</ele>
        <time>2021-02-28T09:25:28.788Z</time>
      </trkpt>
      <trkpt lat="45.66209" lon="5.28062">
        <ele>233</ele>
        <time>2021-02-28T09:25:29.788Z</time>
      </trkpt>
      <trkpt lat="45.66212" lon="5.28059">
        <ele>232</ele>
        <time>2021-02-28T09:25:30.788Z</time>
      </trkpt>
      <trkpt lat="45.66214" lon="5.28056">
        <ele>232</ele>
        <time>2021-02-28T09:25:31.788Z</time>
      </trkpt>
      <trkpt lat="45.66217" lon="5.28053">
        <ele>232</ele>
        <time>2021-02-28T09:25:32.788Z</time>
      </trkpt>
      <trkpt lat="45.66219" lon="5.2805">
        <ele>232</ele>
        <time>2021-02-28T09:25:33.788Z</time>
      </trkpt>
      <trkpt lat="45.66222" lon="5.28047">
        <ele>233</ele>
        <time>2021-02-28T09:25:34.788Z</time>
      </trkpt>
      <trkpt lat="45.66224" lon="5.28045">
        <ele>233</ele>
        <time>2021-02-28T09:25:35.788Z</time>
      </trkpt>
      <trkpt lat="45.66227" lon="5.28043">
        <ele>233</ele>
        <time>2021-02-28T09:25:36.788Z</time>
      </trkpt>
      <trkpt lat="45.6623" lon="5.2804">
        <ele>234</ele>
        <time>2021-02-28T09:25:37.788Z</time>
      </trkpt>
      <trkpt lat="45.66232" lon="5.28038">
        <ele>234</ele>
        <time>2021-02-28T09:25:38.788Z</time>
      </trkpt>
      <trkpt lat="45.66235" lon="5.28036">
        <ele>235</ele>
        <time>2021-02-28T09:25:39.788Z</time>
      </trkpt>
      <trkpt lat="45.66237" lon="5.28034">
        <ele>235</ele>
        <time>2021-02-28T09:25:40.788Z</time>
      </trkpt>
      <trkpt lat="45.6624" lon="5.28032">
        <ele>236</ele>
        <time>2021-02-28T09:25:41.788Z</time>
      </trkpt>
      <trkpt lat="45.66243" lon="5.28029">
        <ele>236</ele>
        <time>2021-02-28T09:25:42.787Z</time>
      </trkpt>
      <trkpt lat="45.66245" lon="5.28027">
        <ele>236</ele>
        <time>2021-02-28T09:25:43.787Z</time>
      </trkpt>
      <trkpt lat="45.66248" lon="5.28025">
        <ele>236</ele>
        <time>2021-02-28T09:25:44.787Z</time>
      </trkpt>
      <trkpt lat="45.66251" lon="5.28022">
        <ele>237</ele>
        <time>2021-02-28T09:25:45.788Z</time>
      </trkpt>
      <trkpt lat="45.66254" lon="5.2802">
        <ele>238</ele>
        <time>2021-02-28T09:25:46.788Z</time>
      </trkpt>
      <trkpt lat="45.66257" lon="5.28017">
        <ele>238</ele>
        <time>2021-02-28T09:25:47.787Z</time>
      </trkpt>
      <trkpt lat="45.66259" lon="5.28015">
        <ele>238</ele>
        <time>2021-02-28T09:25:48.788Z</time>
      </trkpt>
      <trkpt lat="45.66262" lon="5.28013">
        <ele>239</ele>
        <time>2021-02-28T09:25:49.788Z</time>
      </trkpt>
      <trkpt lat="45.66265" lon="5.28011">
        <ele>239</ele>
        <time>2021-02-28T09:25:50.788Z</time>
      </trkpt>
      <trkpt lat="45.66268" lon="5.28008">
        <ele>239</ele>
        <time>2021-02-28T09:25:51.788Z</time>
      </trkpt>
      <trkpt lat="45.6627" lon="5.28005">
        <ele>240</ele>
        <time>2021-02-28T09:25:52.788Z</time>
      </trkpt>
      <trkpt lat="45.66274" lon="5.28003">
        <ele>241</ele>
        <time>2021-02-28T09:25:53.788Z</time>
      </trkpt>
      <trkpt lat="45.66277" lon="5.28">
        <ele>241</ele>
        <time>2021-02-28T09:25:54.787Z</time>
      </trkpt>
      <trkpt lat="45.6628" lon="5.27998">
        <ele>241</ele>
        <time>2021-02-28T09:25:55.787Z</time>
      </trkpt>
      <trkpt lat="45.66283" lon="5.27995">
        <ele>241</ele>
        <time>2021-02-28T09:25:56.788Z</time>
      </trkpt>
      <trkpt lat="45.66287" lon="5.27993">
        <ele>241</ele>
        <time>2021-02-28T09:25:57.787Z</time>
      </trkpt>
      <trkpt lat="45.66292" lon="5.2799">
        <ele>241</ele>
        <time>2021-02-28T09:25:58.788Z</time>
      </trkpt>
      <trkpt lat="45.66296" lon="5.27987">
        <ele>241</ele>
        <time>2021-02-28T09:25:59.788Z</time>
      </trkpt>
      <trkpt lat="45.66302" lon="5.27984">
        <ele>241</ele>
        <time>2021-02-28T09:26:00.788Z</time>
      </trkpt>
      <trkpt lat="45.66307" lon="5.27981">
        <ele>241</ele>
        <time>2021-02-28T09:26:01.787Z</time>
      </trkpt>
      <trkpt lat="45.66312" lon="5.27979">
        <ele>241</ele>
        <time>2021-02-28T09:26:02.788Z</time>
      </trkpt>
      <trkpt lat="45.66316" lon="5.27977">
        <ele>241</ele>
        <time>2021-02-28T09:26:03.788Z</time>
      </trkpt>
      <trkpt lat="45.6632" lon="5.27975">
        <ele>241</ele>
        <time>2021-02-28T09:26:04.788Z</time>
      </trkpt>
      <trkpt lat="45.66325" lon="5.27973">
        <ele>241</ele>
        <time>2021-02-28T09:26:05.788Z</time>
      </trkpt>
      <trkpt lat="45.6633" lon="5.27971">
        <ele>241</ele>
        <time>2021-02-28T09:26:06.787Z</time>
      </trkpt>
      <trkpt lat="45.66334" lon="5.2797">
        <ele>242</ele>
        <time>2021-02-28T09:26:07.788Z</time>
      </trkpt>
      <trkpt lat="45.66339" lon="5.27969">
        <ele>242</ele>
        <time>2021-02-28T09:26:08.788Z</time>
      </trkpt>
      <trkpt lat="45.66344" lon="5.27968">
        <ele>242</ele>
        <time>2021-02-28T09:26:09.788Z</time>
      </trkpt>
      <trkpt lat="45.66349" lon="5.27967">
        <ele>243</ele>
        <time>2021-02-28T09:26:10.788Z</time>
      </trkpt>
      <trkpt lat="45.66354" lon="5.27966">
        <ele>243</ele>
        <time>2021-02-28T09:26:11.788Z</time>
      </trkpt>
      <trkpt lat="45.66358" lon="5.27965">
        <ele>243</ele>
        <time>2021-02-28T09:26:12.788Z</time>
      </trkpt>
      <trkpt lat="45.66363" lon="5.27964">
        <ele>244</ele>
        <time>2021-02-28T09:26:13.787Z</time>
      </trkpt>
      <trkpt lat="45.66368" lon="5.27963">
        <ele>245</ele>
        <time>2021-02-28T09:26:14.788Z</time>
      </trkpt>
      <trkpt lat="45.66372" lon="5.27961">
        <ele>245</ele>
        <time>2021-02-28T09:26:15.788Z</time>
      </trkpt>
      <trkpt lat="45.66377" lon="5.2796">
        <ele>245</ele>
        <time>2021-02-28T09:26:16.788Z</time>
      </trkpt>
      <trkpt lat="45.66381" lon="5.27959">
        <ele>246</ele>
        <time>2021-02-28T09:26:17.787Z</time>
      </trkpt>
      <trkpt lat="45.66385" lon="5.27958">
        <ele>246</ele>
        <time>2021-02-28T09:26:18.788Z</time>
      </trkpt>
      <trkpt lat="45.66391" lon="5.27957">
        <ele>247</ele>
        <time>2021-02-28T09:26:19.788Z</time>
      </trkpt>
      <trkpt lat="45.66395" lon="5.27956">
        <ele>247</ele>
        <time>2021-02-28T09:26:20.788Z</time>
      </trkpt>
      <trkpt lat="45.66399" lon="5.27955">
        <ele>247</ele>
        <time>2021-02-28T09:26:21.788Z</time>
      </trkpt>
      <trkpt lat="45.66404" lon="5.27954">
        <ele>247</ele>
        <time>2021-02-28T09:26:22.788Z</time>
      </trkpt>
      <trkpt lat="45.66408" lon="5.27953">
        <ele>247</ele>
        <time>2021-02-28T09:26:23.788Z</time>
      </trkpt>
      <trkpt lat="45.66412" lon="5.27951">
        <ele>247</ele>
        <time>2021-02-28T09:26:24.788Z</time>
      </trkpt>
      <trkpt lat="45.66416" lon="5.27949">
        <ele>247</ele>
        <time>2021-02-28T09:26:25.787Z</time>
      </trkpt>
      <trkpt lat="45.66419" lon="5.27948">
        <ele>247</ele>
        <time>2021-02-28T09:26:26.788Z</time>
      </trkpt>
      <trkpt lat="45.66424" lon="5.27946">
        <ele>247</ele>
        <time>2021-02-28T09:26:27.788Z</time>
      </trkpt>
      <trkpt lat="45.66428" lon="5.27943">
        <ele>247</ele>
        <time>2021-02-28T09:26:28.788Z</time>
      </trkpt>
      <trkpt lat="45.66431" lon="5.27941">
        <ele>247</ele>
        <time>2021-02-28T09:26:29.788Z</time>
      </trkpt>
      <trkpt lat="45.66434" lon="5.27939">
        <ele>247</ele>
        <time>2021-02-28T09:26:30.788Z</time>
      </trkpt>
      <trkpt lat="45.66439" lon="5.27936">
        <ele>247</ele>
        <time>2021-02-28T09:26:31.788Z</time>
      </trkpt>
      <trkpt lat="45.66442" lon="5.27934">
        <ele>247</ele>
        <time>2021-02-28T09:26:32.787Z</time>
      </trkpt>
      <trkpt lat="45.66446" lon="5.27931">
        <ele>247</ele>
        <time>2021-02-28T09:26:33.788Z</time>
      </trkpt>
      <trkpt lat="45.6645" lon="5.27928">
        <ele>247</ele>
        <time>2021-02-28T09:26:34.788Z</time>
      </trkpt>
      <trkpt lat="45.66453" lon="5.27925">
        <ele>248</ele>
        <time>2021-02-28T09:26:35.787Z</time>
      </trkpt>
      <trkpt lat="45.66457" lon="5.27922">
        <ele>248</ele>
        <time>2021-02-28T09:26:36.787Z</time>
      </trkpt>
      <trkpt lat="45.6646" lon="5.27918">
        <ele>249</ele>
        <time>2021-02-28T09:26:37.788Z</time>
      </trkpt>
      <trkpt lat="45.66464" lon="5.27914">
        <ele>249</ele>
        <time>2021-02-28T09:26:38.788Z</time>
      </trkpt>
      <trkpt lat="45.66467" lon="5.27911">
        <ele>249</ele>
        <time>2021-02-28T09:26:39.788Z</time>
      </trkpt>
      <trkpt lat="45.6647" lon="5.27907">
        <ele>249</ele>
        <time>2021-02-28T09:26:40.787Z</time>
      </trkpt>
      <trkpt lat="45.66474" lon="5.27903">
        <ele>249</ele>
        <time>2021-02-28T09:26:41.788Z</time>
      </trkpt>
      <trkpt lat="45.66477" lon="5.279">
        <ele>249</ele>
        <time>2021-02-28T09:26:42.788Z</time>
      </trkpt>
      <trkpt lat="45.6648" lon="5.27896">
        <ele>249</ele>
        <time>2021-02-28T09:26:43.788Z</time>
      </trkpt>
      <trkpt lat="45.66483" lon="5.27892">
        <ele>249</ele>
        <time>2021-02-28T09:26:44.788Z</time>
      </trkpt>
      <trkpt lat="45.66487" lon="5.27889">
        <ele>250</ele>
        <time>2021-02-28T09:26:45.787Z</time>
      </trkpt>
      <trkpt lat="45.6649" lon="5.27885">
        <ele>249</ele>
        <time>2021-02-28T09:26:46.788Z</time>
      </trkpt>
      <trkpt lat="45.66493" lon="5.27882">
        <ele>249</ele>
        <time>2021-02-28T09:26:47.788Z</time>
      </trkpt>
      <trkpt lat="45.66497" lon="5.27879">
        <ele>250</ele>
        <time>2021-02-28T09:26:48.788Z</time>
      </trkpt>
      <trkpt lat="45.66501" lon="5.27875">
        <ele>250</ele>
        <time>2021-02-28T09:26:49.787Z</time>
      </trkpt>
      <trkpt lat="45.66505" lon="5.27873">
        <ele>251</ele>
        <time>2021-02-28T09:26:50.788Z</time>
      </trkpt>
      <trkpt lat="45.66509" lon="5.2787">
        <ele>252</ele>
        <time>2021-02-28T09:26:51.788Z</time>
      </trkpt>
      <trkpt lat="45.66513" lon="5.27868">
        <ele>252</ele>
        <time>2021-02-28T09:26:52.787Z</time>
      </trkpt>
      <trkpt lat="45.66517" lon="5.27866">
        <ele>253</ele>
        <time>2021-02-28T09:26:53.788Z</time>
      </trkpt>
      <trkpt lat="45.66521" lon="5.27864">
        <ele>253</ele>
        <time>2021-02-28T09:26:54.788Z</time>
      </trkpt>
      <trkpt lat="45.66525" lon="5.27863">
        <ele>253</ele>
        <time>2021-02-28T09:26:55.787Z</time>
      </trkpt>
      <trkpt lat="45.66529" lon="5.27861">
        <ele>254</ele>
        <time>2021-02-28T09:26:56.788Z</time>
      </trkpt>
      <trkpt lat="45.66533" lon="5.27859">
        <ele>254</ele>
        <time>2021-02-28T09:26:57.788Z</time>
      </trkpt>
      <trkpt lat="45.66537" lon="5.27858">
        <ele>254</ele>
        <time>2021-02-28T09:26:58.788Z</time>
      </trkpt>
      <trkpt lat="45.66542" lon="5.27857">
        <ele>255</ele>
        <time>2021-02-28T09:26:59.788Z</time>
      </trkpt>
      <trkpt lat="45.66546" lon="5.27856">
        <ele>255</ele>
        <time>2021-02-28T09:27:00.788Z</time>
      </trkpt>
      <trkpt lat="45.6655" lon="5.27855">
        <ele>255</ele>
        <time>2021-02-28T09:27:01.788Z</time>
      </trkpt>
      <trkpt lat="45.66554" lon="5.27853">
        <ele>256</ele>
        <time>2021-02-28T09:27:02.787Z</time>
      </trkpt>
      <trkpt lat="45.66558" lon="5.27852">
        <ele>256</ele>
        <time>2021-02-28T09:27:03.788Z</time>
      </trkpt>
      <trkpt lat="45.66562" lon="5.27851">
        <ele>257</ele>
        <time>2021-02-28T09:27:04.788Z</time>
      </trkpt>
      <trkpt lat="45.66567" lon="5.2785">
        <ele>257</ele>
        <time>2021-02-28T09:27:05.787Z</time>
      </trkpt>
      <trkpt lat="45.66571" lon="5.27849">
        <ele>258</ele>
        <time>2021-02-28T09:27:06.788Z</time>
      </trkpt>
      <trkpt lat="45.66576" lon="5.27848">
        <ele>258</ele>
        <time>2021-02-28T09:27:07.788Z</time>
      </trkpt>
      <trkpt lat="45.6658" lon="5.27847">
        <ele>259</ele>
        <time>2021-02-28T09:27:08.788Z</time>
      </trkpt>
      <trkpt lat="45.66583" lon="5.27846">
        <ele>259</ele>
        <time>2021-02-28T09:27:09.788Z</time>
      </trkpt>
      <trkpt lat="45.66588" lon="5.27845">
        <ele>259</ele>
        <time>2021-02-28T09:27:10.788Z</time>
      </trkpt>
      <trkpt lat="45.66592" lon="5.27845">
        <ele>259</ele>
        <time>2021-02-28T09:27:11.788Z</time>
      </trkpt>
      <trkpt lat="45.66596" lon="5.27845">
        <ele>259</ele>
        <time>2021-02-28T09:27:12.788Z</time>
      </trkpt>
      <trkpt lat="45.66601" lon="5.27845">
        <ele>260</ele>
        <time>2021-02-28T09:27:13.788Z</time>
      </trkpt>
      <trkpt lat="45.66605" lon="5.27845">
        <ele>260</ele>
        <time>2021-02-28T09:27:14.787Z</time>
      </trkpt>
      <trkpt lat="45.6661" lon="5.27845">
        <ele>260</ele>
        <time>2021-02-28T09:27:15.788Z</time>
      </trkpt>
      <trkpt lat="45.66615" lon="5.27845">
        <ele>260</ele>
        <time>2021-02-28T09:27:16.787Z</time>
      </trkpt>
      <trkpt lat="45.6662" lon="5.27846">
        <ele>261</ele>
        <time>2021-02-28T09:27:17.787Z</time>
      </trkpt>
      <trkpt lat="45.66624" lon="5.27846">
        <ele>262</ele>
        <time>2021-02-28T09:27:18.787Z</time>
      </trkpt>
      <trkpt lat="45.66629" lon="5.27846">
        <ele>262</ele>
        <time>2021-02-28T09:27:19.788Z</time>
      </trkpt>
      <trkpt lat="45.66634" lon="5.27847">
        <ele>263</ele>
        <time>2021-02-28T09:27:20.788Z</time>
      </trkpt>
      <trkpt lat="45.66639" lon="5.27848">
        <ele>264</ele>
        <time>2021-02-28T09:27:21.788Z</time>
      </trkpt>
      <trkpt lat="45.66643" lon="5.27848">
        <ele>264</ele>
        <time>2021-02-28T09:27:22.788Z</time>
      </trkpt>
      <trkpt lat="45.66648" lon="5.27849">
        <ele>264</ele>
        <time>2021-02-28T09:27:23.788Z</time>
      </trkpt>
      <trkpt lat="45.66653" lon="5.2785">
        <ele>264</ele>
        <time>2021-02-28T09:27:24.788Z</time>
      </trkpt>
      <trkpt lat="45.66658" lon="5.27851">
        <ele>264</ele>
        <time>2021-02-28T09:27:25.788Z</time>
      </trkpt>
      <trkpt lat="45.66662" lon="5.27852">
        <ele>264</ele>
        <time>2021-02-28T09:27:26.787Z</time>
      </trkpt>
      <trkpt lat="45.66667" lon="5.27853">
        <ele>264</ele>
        <time>2021-02-28T09:27:27.788Z</time>
      </trkpt>
      <trkpt lat="45.66671" lon="5.27854">
        <ele>264</ele>
        <time>2021-02-28T09:27:28.788Z</time>
      </trkpt>
      <trkpt lat="45.66676" lon="5.27855">
        <ele>264</ele>
        <time>2021-02-28T09:27:29.787Z</time>
      </trkpt>
      <trkpt lat="45.66679" lon="5.27856">
        <ele>265</ele>
        <time>2021-02-28T09:27:30.788Z</time>
      </trkpt>
      <trkpt lat="45.66684" lon="5.27857">
        <ele>265</ele>
        <time>2021-02-28T09:27:31.788Z</time>
      </trkpt>
      <trkpt lat="45.66688" lon="5.27859">
        <ele>265</ele>
        <time>2021-02-28T09:27:32.788Z</time>
      </trkpt>
      <trkpt lat="45.66692" lon="5.27861">
        <ele>265</ele>
        <time>2021-02-28T09:27:33.788Z</time>
      </trkpt>
      <trkpt lat="45.66696" lon="5.27863">
        <ele>265</ele>
        <time>2021-02-28T09:27:34.788Z</time>
      </trkpt>
      <trkpt lat="45.667" lon="5.27865">
        <ele>264</ele>
        <time>2021-02-28T09:27:35.788Z</time>
      </trkpt>
      <trkpt lat="45.66703" lon="5.27868">
        <ele>264</ele>
        <time>2021-02-28T09:27:36.788Z</time>
      </trkpt>
      <trkpt lat="45.66707" lon="5.2787">
        <ele>263</ele>
        <time>2021-02-28T09:27:37.788Z</time>
      </trkpt>
      <trkpt lat="45.66711" lon="5.27873">
        <ele>263</ele>
        <time>2021-02-28T09:27:38.788Z</time>
      </trkpt>
      <trkpt lat="45.66715" lon="5.27876">
        <ele>262</ele>
        <time>2021-02-28T09:27:39.788Z</time>
      </trkpt>
      <trkpt lat="45.66719" lon="5.27879">
        <ele>262</ele>
        <time>2021-02-28T09:27:40.788Z</time>
      </trkpt>
      <trkpt lat="45.66722" lon="5.27881">
        <ele>262</ele>
        <time>2021-02-28T09:27:41.788Z</time>
      </trkpt>
      <trkpt lat="45.66726" lon="5.27884">
        <ele>262</ele>
        <time>2021-02-28T09:27:42.788Z</time>
      </trkpt>
      <trkpt lat="45.6673" lon="5.27887">
        <ele>262</ele>
        <time>2021-02-28T09:27:43.788Z</time>
      </trkpt>
      <trkpt lat="45.66733" lon="5.27889">
        <ele>262</ele>
        <time>2021-02-28T09:27:44.788Z</time>
      </trkpt>
      <trkpt lat="45.66737" lon="5.27892">
        <ele>263</ele>
        <time>2021-02-28T09:27:45.788Z</time>
      </trkpt>
      <trkpt lat="45.66741" lon="5.27894">
        <ele>263</ele>
        <time>2021-02-28T09:27:46.788Z</time>
      </trkpt>
      <trkpt lat="45.66745" lon="5.27897">
        <ele>264</ele>
        <time>2021-02-28T09:27:47.788Z</time>
      </trkpt>
      <trkpt lat="45.66749" lon="5.27899">
        <ele>265</ele>
        <time>2021-02-28T09:27:48.788Z</time>
      </trkpt>
      <trkpt lat="45.66753" lon="5.27901">
        <ele>265</ele>
        <time>2021-02-28T09:27:49.787Z</time>
      </trkpt>
      <trkpt lat="45.66757" lon="5.27904">
        <ele>266</ele>
        <time>2021-02-28T09:27:50.788Z</time>
      </trkpt>
      <trkpt lat="45.66761" lon="5.27906">
        <ele>267</ele>
        <time>2021-02-28T09:27:51.788Z</time>
      </trkpt>
      <trkpt lat="45.66765" lon="5.27907">
        <ele>267</ele>
        <time>2021-02-28T09:27:52.788Z</time>
      </trkpt>
      <trkpt lat="45.66769" lon="5.27908">
        <ele>267</ele>
        <time>2021-02-28T09:27:53.788Z</time>
      </trkpt>
      <trkpt lat="45.66773" lon="5.27908">
        <ele>267</ele>
        <time>2021-02-28T09:27:54.788Z</time>
      </trkpt>
      <trkpt lat="45.66777" lon="5.27908">
        <ele>268</ele>
        <time>2021-02-28T09:27:55.788Z</time>
      </trkpt>
      <trkpt lat="45.66781" lon="5.27908">
        <ele>268</ele>
        <time>2021-02-28T09:27:56.788Z</time>
      </trkpt>
      <trkpt lat="45.66785" lon="5.27908">
        <ele>268</ele>
        <time>2021-02-28T09:27:57.787Z</time>
      </trkpt>
      <trkpt lat="45.6679" lon="5.27907">
        <ele>269</ele>
        <time>2021-02-28T09:27:58.788Z</time>
      </trkpt>
      <trkpt lat="45.66794" lon="5.27906">
        <ele>270</ele>
        <time>2021-02-28T09:27:59.788Z</time>
      </trkpt>
      <trkpt lat="45.66799" lon="5.27904">
        <ele>270</ele>
        <time>2021-02-28T09:28:00.787Z</time>
      </trkpt>
      <trkpt lat="45.66803" lon="5.27901">
        <ele>270</ele>
        <time>2021-02-28T09:28:01.788Z</time>
      </trkpt>
      <trkpt lat="45.66807" lon="5.27899">
        <ele>270</ele>
        <time>2021-02-28T09:28:02.787Z</time>
      </trkpt>
      <trkpt lat="45.66811" lon="5.27895">
        <ele>270</ele>
        <time>2021-02-28T09:28:03.787Z</time>
      </trkpt>
      <trkpt lat="45.66814" lon="5.27892">
        <ele>270</ele>
        <time>2021-02-28T09:28:04.787Z</time>
      </trkpt>
      <trkpt lat="45.66818" lon="5.27888">
        <ele>270</ele>
        <time>2021-02-28T09:28:05.787Z</time>
      </trkpt>
      <trkpt lat="45.66821" lon="5.27884">
        <ele>270</ele>
        <time>2021-02-28T09:28:06.788Z</time>
      </trkpt>
      <trkpt lat="45.66825" lon="5.2788">
        <ele>270</ele>
        <time>2021-02-28T09:28:07.788Z</time>
      </trkpt>
      <trkpt lat="45.66828" lon="5.27875">
        <ele>271</ele>
        <time>2021-02-28T09:28:08.788Z</time>
      </trkpt>
      <trkpt lat="45.66832" lon="5.27871">
        <ele>271</ele>
        <time>2021-02-28T09:28:09.788Z</time>
      </trkpt>
      <trkpt lat="45.66835" lon="5.27868">
        <ele>271</ele>
        <time>2021-02-28T09:28:10.788Z</time>
      </trkpt>
      <trkpt lat="45.66839" lon="5.27864">
        <ele>272</ele>
        <time>2021-02-28T09:28:11.788Z</time>
      </trkpt>
      <trkpt lat="45.66842" lon="5.27859">
        <ele>272</ele>
        <time>2021-02-28T09:28:12.788Z</time>
      </trkpt>
      <trkpt lat="45.66846" lon="5.27855">
        <ele>272</ele>
        <time>2021-02-28T09:28:13.788Z</time>
      </trkpt>
      <trkpt lat="45.66849" lon="5.27851">
        <ele>273</ele>
        <time>2021-02-28T09:28:14.787Z</time>
      </trkpt>
      <trkpt lat="45.66852" lon="5.27846">
        <ele>273</ele>
        <time>2021-02-28T09:28:15.788Z</time>
      </trkpt>
      <trkpt lat="45.66855" lon="5.27843">
        <ele>273</ele>
        <time>2021-02-28T09:28:16.787Z</time>
      </trkpt>
      <trkpt lat="45.66859" lon="5.27838">
        <ele>274</ele>
        <time>2021-02-28T09:28:17.788Z</time>
      </trkpt>
      <trkpt lat="45.66862" lon="5.27835">
        <ele>275</ele>
        <time>2021-02-28T09:28:18.787Z</time>
      </trkpt>
      <trkpt lat="45.66865" lon="5.27831">
        <ele>275</ele>
        <time>2021-02-28T09:28:19.787Z</time>
      </trkpt>
      <trkpt lat="45.66868" lon="5.27827">
        <ele>276</ele>
        <time>2021-02-28T09:28:20.788Z</time>
      </trkpt>
      <trkpt lat="45.66872" lon="5.27823">
        <ele>276</ele>
        <time>2021-02-28T09:28:21.788Z</time>
      </trkpt>
      <trkpt lat="45.66875" lon="5.2782">
        <ele>277</ele>
        <time>2021-02-28T09:28:22.788Z</time>
      </trkpt>
      <trkpt lat="45.66877" lon="5.27817">
        <ele>277</ele>
        <time>2021-02-28T09:28:23.787Z</time>
      </trkpt>
      <trkpt lat="45.66881" lon="5.27812">
        <ele>277</ele>
        <time>2021-02-28T09:28:24.788Z</time>
      </trkpt>
      <trkpt lat="45.66883" lon="5.27806">
        <ele>277</ele>
        <time>2021-02-28T09:28:25.787Z</time>
      </trkpt>
      <trkpt lat="45.66886" lon="5.27803">
        <ele>277</ele>
        <time>2021-02-28T09:28:26.788Z</time>
      </trkpt>
      <trkpt lat="45.6689" lon="5.27799">
        <ele>277</ele>
        <time>2021-02-28T09:28:27.787Z</time>
      </trkpt>
      <trkpt lat="45.66892" lon="5.27796">
        <ele>277</ele>
        <time>2021-02-28T09:28:28.788Z</time>
      </trkpt>
      <trkpt lat="45.66895" lon="5.27792">
        <ele>277</ele>
        <time>2021-02-28T09:28:29.788Z</time>
      </trkpt>
      <trkpt lat="45.66898" lon="5.27789">
        <ele>278</ele>
        <time>2021-02-28T09:28:30.788Z</time>
      </trkpt>
      <trkpt lat="45.66901" lon="5.27784">
        <ele>278</ele>
        <time>2021-02-28T09:28:31.788Z</time>
      </trkpt>
      <trkpt lat="45.66904" lon="5.27782">
        <ele>278</ele>
        <time>2021-02-28T09:28:32.787Z</time>
      </trkpt>
      <trkpt lat="45.66907" lon="5.27778">
        <ele>278</ele>
        <time>2021-02-28T09:28:33.787Z</time>
      </trkpt>
      <trkpt lat="45.6691" lon="5.27775">
        <ele>278</ele>
        <time>2021-02-28T09:28:34.788Z</time>
      </trkpt>
      <trkpt lat="45.66913" lon="5.27771">
        <ele>278</ele>
        <time>2021-02-28T09:28:35.788Z</time>
      </trkpt>
      <trkpt lat="45.66916" lon="5.27767">
        <ele>278</ele>
        <time>2021-02-28T09:28:36.788Z</time>
      </trkpt>
      <trkpt lat="45.66919" lon="5.27763">
        <ele>279</ele>
        <time>2021-02-28T09:28:37.788Z</time>
      </trkpt>
      <trkpt lat="45.66921" lon="5.2776">
        <ele>279</ele>
        <time>2021-02-28T09:28:38.788Z</time>
      </trkpt>
      <trkpt lat="45.66925" lon="5.27756">
        <ele>280</ele>
        <time>2021-02-28T09:28:39.788Z</time>
      </trkpt>
      <trkpt lat="45.66927" lon="5.27752">
        <ele>280</ele>
        <time>2021-02-28T09:28:40.788Z</time>
      </trkpt>
      <trkpt lat="45.66931" lon="5.27747">
        <ele>281</ele>
        <time>2021-02-28T09:28:41.787Z</time>
      </trkpt>
      <trkpt lat="45.66934" lon="5.27744">
        <ele>281</ele>
        <time>2021-02-28T09:28:42.788Z</time>
      </trkpt>
      <trkpt lat="45.66937" lon="5.27741">
        <ele>282</ele>
        <time>2021-02-28T09:28:43.788Z</time>
      </trkpt>
      <trkpt lat="45.6694" lon="5.27737">
        <ele>282</ele>
        <time>2021-02-28T09:28:44.788Z</time>
      </trkpt>
      <trkpt lat="45.66943" lon="5.27734">
        <ele>283</ele>
        <time>2021-02-28T09:28:45.788Z</time>
      </trkpt>
      <trkpt lat="45.66946" lon="5.27731">
        <ele>283</ele>
        <time>2021-02-28T09:28:46.788Z</time>
      </trkpt>
      <trkpt lat="45.66949" lon="5.27727">
        <ele>283</ele>
        <time>2021-02-28T09:28:47.788Z</time>
      </trkpt>
      <trkpt lat="45.66952" lon="5.27723">
        <ele>283</ele>
        <time>2021-02-28T09:28:48.787Z</time>
      </trkpt>
      <trkpt lat="45.66955" lon="5.27719">
        <ele>284</ele>
        <time>2021-02-28T09:28:49.788Z</time>
      </trkpt>
      <trkpt lat="45.66958" lon="5.27716">
        <ele>284</ele>
        <time>2021-02-28T09:28:50.788Z</time>
      </trkpt>
      <trkpt lat="45.66961" lon="5.27712">
        <ele>283</ele>
        <time>2021-02-28T09:28:51.788Z</time>
      </trkpt>
      <trkpt lat="45.66964" lon="5.27708">
        <ele>283</ele>
        <time>2021-02-28T09:28:52.788Z</time>
      </trkpt>
      <trkpt lat="45.66967" lon="5.27704">
        <ele>283</ele>
        <time>2021-02-28T09:28:53.788Z</time>
      </trkpt>
      <trkpt lat="45.6697" lon="5.27701">
        <ele>283</ele>
        <time>2021-02-28T09:28:54.787Z</time>
      </trkpt>
      <trkpt lat="45.66973" lon="5.27697">
        <ele>283</ele>
        <time>2021-02-28T09:28:55.788Z</time>
      </trkpt>
      <trkpt lat="45.66976" lon="5.27694">
        <ele>283</ele>
        <time>2021-02-28T09:28:56.788Z</time>
      </trkpt>
      <trkpt lat="45.66979" lon="5.2769">
        <ele>284</ele>
        <time>2021-02-28T09:28:57.787Z</time>
      </trkpt>
      <trkpt lat="45.66982" lon="5.27687">
        <ele>284</ele>
        <time>2021-02-28T09:28:58.787Z</time>
      </trkpt>
      <trkpt lat="45.66986" lon="5.27683">
        <ele>284</ele>
        <time>2021-02-28T09:28:59.787Z</time>
      </trkpt>
      <trkpt lat="45.66989" lon="5.27679">
        <ele>284</ele>
        <time>2021-02-28T09:29:00.788Z</time>
      </trkpt>
      <trkpt lat="45.66992" lon="5.27675">
        <ele>285</ele>
        <time>2021-02-28T09:29:01.788Z</time>
      </trkpt>
      <trkpt lat="45.66995" lon="5.27671">
        <ele>284</ele>
        <time>2021-02-28T09:29:02.787Z</time>
      </trkpt>
      <trkpt lat="45.66998" lon="5.27668">
        <ele>284</ele>
        <time>2021-02-28T09:29:03.788Z</time>
      </trkpt>
      <trkpt lat="45.67" lon="5.27664">
        <ele>284</ele>
        <time>2021-02-28T09:29:04.788Z</time>
      </trkpt>
      <trkpt lat="45.67003" lon="5.27659">
        <ele>284</ele>
        <time>2021-02-28T09:29:05.788Z</time>
      </trkpt>
      <trkpt lat="45.67006" lon="5.27655">
        <ele>283</ele>
        <time>2021-02-28T09:29:06.787Z</time>
      </trkpt>
      <trkpt lat="45.67008" lon="5.27651">
        <ele>283</ele>
        <time>2021-02-28T09:29:07.787Z</time>
      </trkpt>
      <trkpt lat="45.67011" lon="5.27646">
        <ele>283</ele>
        <time>2021-02-28T09:29:08.788Z</time>
      </trkpt>
      <trkpt lat="45.67014" lon="5.27642">
        <ele>283</ele>
        <time>2021-02-28T09:29:09.787Z</time>
      </trkpt>
      <trkpt lat="45.67017" lon="5.27638">
        <ele>283</ele>
        <time>2021-02-28T09:29:10.788Z</time>
      </trkpt>
      <trkpt lat="45.6702" lon="5.27634">
        <ele>284</ele>
        <time>2021-02-28T09:29:11.787Z</time>
      </trkpt>
      <trkpt lat="45.67023" lon="5.2763">
        <ele>284</ele>
        <time>2021-02-28T09:29:12.788Z</time>
      </trkpt>
      <trkpt lat="45.67027" lon="5.27626">
        <ele>284</ele>
        <time>2021-02-28T09:29:13.787Z</time>
      </trkpt>
      <trkpt lat="45.6703" lon="5.27622">
        <ele>285</ele>
        <time>2021-02-28T09:29:14.787Z</time>
      </trkpt>
      <trkpt lat="45.67034" lon="5.27618">
        <ele>285</ele>
        <time>2021-02-28T09:29:15.788Z</time>
      </trkpt>
      <trkpt lat="45.67036" lon="5.27616">
        <ele>285</ele>
        <time>2021-02-28T09:29:16.788Z</time>
      </trkpt>
      <trkpt lat="45.6704" lon="5.27612">
        <ele>286</ele>
        <time>2021-02-28T09:29:17.788Z</time>
      </trkpt>
      <trkpt lat="45.67044" lon="5.27609">
        <ele>285</ele>
        <time>2021-02-28T09:29:18.787Z</time>
      </trkpt>
      <trkpt lat="45.67048" lon="5.27607">
        <ele>285</ele>
        <time>2021-02-28T09:29:19.788Z</time>
      </trkpt>
      <trkpt lat="45.67052" lon="5.27603">
        <ele>286</ele>
        <time>2021-02-28T09:29:20.788Z</time>
      </trkpt>
      <trkpt lat="45.67056" lon="5.276">
        <ele>286</ele>
        <time>2021-02-28T09:29:21.788Z</time>
      </trkpt>
      <trkpt lat="45.6706" lon="5.27597">
        <ele>287</ele>
        <time>2021-02-28T09:29:22.788Z</time>
      </trkpt>
      <trkpt lat="45.67064" lon="5.27594">
        <ele>288</ele>
        <time>2021-02-28T09:29:23.788Z</time>
      </trkpt>
      <trkpt lat="45.67068" lon="5.2759">
        <ele>288</ele>
        <time>2021-02-28T09:29:24.788Z</time>
      </trkpt>
      <trkpt lat="45.67072" lon="5.27587">
        <ele>289</ele>
        <time>2021-02-28T09:29:25.788Z</time>
      </trkpt>
      <trkpt lat="45.67076" lon="5.27583">
        <ele>289</ele>
        <time>2021-02-28T09:29:26.787Z</time>
      </trkpt>
      <trkpt lat="45.67079" lon="5.2758">
        <ele>290</ele>
        <time>2021-02-28T09:29:27.788Z</time>
      </trkpt>
      <trkpt lat="45.67083" lon="5.27576">
        <ele>290</ele>
        <time>2021-02-28T09:29:28.788Z</time>
      </trkpt>
      <trkpt lat="45.67086" lon="5.27572">
        <ele>290</ele>
        <time>2021-02-28T09:29:29.788Z</time>
      </trkpt>
      <trkpt lat="45.67091" lon="5.27567">
        <ele>291</ele>
        <time>2021-02-28T09:29:30.788Z</time>
      </trkpt>
      <trkpt lat="45.67093" lon="5.27562">
        <ele>291</ele>
        <time>2021-02-28T09:29:31.788Z</time>
      </trkpt>
      <trkpt lat="45.67096" lon="5.27558">
        <ele>291</ele>
        <time>2021-02-28T09:29:32.788Z</time>
      </trkpt>
      <trkpt lat="45.67099" lon="5.27553">
        <ele>291</ele>
        <time>2021-02-28T09:29:33.788Z</time>
      </trkpt>
      <trkpt lat="45.67102" lon="5.27549">
        <ele>291</ele>
        <time>2021-02-28T09:29:34.788Z</time>
      </trkpt>
      <trkpt lat="45.67105" lon="5.27544">
        <ele>291</ele>
        <time>2021-02-28T09:29:35.787Z</time>
      </trkpt>
      <trkpt lat="45.67108" lon="5.27539">
        <ele>292</ele>
        <time>2021-02-28T09:29:36.787Z</time>
      </trkpt>
      <trkpt lat="45.6711" lon="5.27534">
        <ele>292</ele>
        <time>2021-02-28T09:29:37.788Z</time>
      </trkpt>
      <trkpt lat="45.67113" lon="5.27529">
        <ele>292</ele>
        <time>2021-02-28T09:29:38.787Z</time>
      </trkpt>
      <trkpt lat="45.67116" lon="5.27524">
        <ele>292</ele>
        <time>2021-02-28T09:29:39.787Z</time>
      </trkpt>
      <trkpt lat="45.67118" lon="5.27518">
        <ele>292</ele>
        <time>2021-02-28T09:29:40.788Z</time>
      </trkpt>
      <trkpt lat="45.67121" lon="5.27512">
        <ele>293</ele>
        <time>2021-02-28T09:29:41.788Z</time>
      </trkpt>
      <trkpt lat="45.67123" lon="5.27506">
        <ele>292</ele>
        <time>2021-02-28T09:29:42.788Z</time>
      </trkpt>
      <trkpt lat="45.67125" lon="5.27501">
        <ele>292</ele>
        <time>2021-02-28T09:29:43.787Z</time>
      </trkpt>
      <trkpt lat="45.67128" lon="5.27495">
        <ele>292</ele>
        <time>2021-02-28T09:29:44.788Z</time>
      </trkpt>
      <trkpt lat="45.6713" lon="5.2749">
        <ele>292</ele>
        <time>2021-02-28T09:29:45.788Z</time>
      </trkpt>
      <trkpt lat="45.67132" lon="5.27485">
        <ele>292</ele>
        <time>2021-02-28T09:29:46.787Z</time>
      </trkpt>
      <trkpt lat="45.67134" lon="5.27479">
        <ele>292</ele>
        <time>2021-02-28T09:29:47.788Z</time>
      </trkpt>
      <trkpt lat="45.67136" lon="5.27474">
        <ele>292</ele>
        <time>2021-02-28T09:29:48.788Z</time>
      </trkpt>
      <trkpt lat="45.67138" lon="5.27469">
        <ele>292</ele>
        <time>2021-02-28T09:29:49.788Z</time>
      </trkpt>
      <trkpt lat="45.6714" lon="5.27464">
        <ele>292</ele>
        <time>2021-02-28T09:29:50.788Z</time>
      </trkpt>
      <trkpt lat="45.67143" lon="5.27458">
        <ele>292</ele>
        <time>2021-02-28T09:29:51.788Z</time>
      </trkpt>
      <trkpt lat="45.67145" lon="5.27452">
        <ele>292</ele>
        <time>2021-02-28T09:29:52.788Z</time>
      </trkpt>
      <trkpt lat="45.67146" lon="5.27448">
        <ele>292</ele>
        <time>2021-02-28T09:29:53.787Z</time>
      </trkpt>
      <trkpt lat="45.67148" lon="5.27443">
        <ele>292</ele>
        <time>2021-02-28T09:29:54.788Z</time>
      </trkpt>
      <trkpt lat="45.6715" lon="5.27437">
        <ele>292</ele>
        <time>2021-02-28T09:29:55.788Z</time>
      </trkpt>
      <trkpt lat="45.67153" lon="5.27431">
        <ele>292</ele>
        <time>2021-02-28T09:29:56.788Z</time>
      </trkpt>
      <trkpt lat="45.67154" lon="5.27427">
        <ele>292</ele>
        <time>2021-02-28T09:29:57.788Z</time>
      </trkpt>
      <trkpt lat="45.67157" lon="5.27422">
        <ele>293</ele>
        <time>2021-02-28T09:29:58.788Z</time>
      </trkpt>
      <trkpt lat="45.67159" lon="5.27415">
        <ele>293</ele>
        <time>2021-02-28T09:29:59.788Z</time>
      </trkpt>
      <trkpt lat="45.67162" lon="5.27411">
        <ele>294</ele>
        <time>2021-02-28T09:30:00.788Z</time>
      </trkpt>
      <trkpt lat="45.67164" lon="5.27404">
        <ele>294</ele>
        <time>2021-02-28T09:30:01.788Z</time>
      </trkpt>
      <trkpt lat="45.67165" lon="5.27401">
        <ele>295</ele>
        <time>2021-02-28T09:30:02.788Z</time>
      </trkpt>
      <trkpt lat="45.67168" lon="5.27396">
        <ele>295</ele>
        <time>2021-02-28T09:30:03.787Z</time>
      </trkpt>
      <trkpt lat="45.67169" lon="5.27389">
        <ele>296</ele>
        <time>2021-02-28T09:30:04.788Z</time>
      </trkpt>
      <trkpt lat="45.6717" lon="5.27385">
        <ele>296</ele>
        <time>2021-02-28T09:30:05.788Z</time>
      </trkpt>
      <trkpt lat="45.67173" lon="5.2738">
        <ele>296</ele>
        <time>2021-02-28T09:30:06.788Z</time>
      </trkpt>
      <trkpt lat="45.67174" lon="5.27375">
        <ele>296</ele>
        <time>2021-02-28T09:30:07.788Z</time>
      </trkpt>
      <trkpt lat="45.67176" lon="5.27369">
        <ele>296</ele>
        <time>2021-02-28T09:30:08.787Z</time>
      </trkpt>
      <trkpt lat="45.67179" lon="5.27364">
        <ele>296</ele>
        <time>2021-02-28T09:30:09.788Z</time>
      </trkpt>
      <trkpt lat="45.67181" lon="5.2736">
        <ele>296</ele>
        <time>2021-02-28T09:30:10.788Z</time>
      </trkpt>
      <trkpt lat="45.67183" lon="5.27355">
        <ele>296</ele>
        <time>2021-02-28T09:30:11.788Z</time>
      </trkpt>
      <trkpt lat="45.67186" lon="5.2735">
        <ele>297</ele>
        <time>2021-02-28T09:30:12.788Z</time>
      </trkpt>
      <trkpt lat="45.67188" lon="5.27345">
        <ele>297</ele>
        <time>2021-02-28T09:30:13.788Z</time>
      </trkpt>
      <trkpt lat="45.6719" lon="5.2734">
        <ele>298</ele>
        <time>2021-02-28T09:30:14.788Z</time>
      </trkpt>
      <trkpt lat="45.67193" lon="5.27336">
        <ele>298</ele>
        <time>2021-02-28T09:30:15.787Z</time>
      </trkpt>
      <trkpt lat="45.67196" lon="5.27331">
        <ele>298</ele>
        <time>2021-02-28T09:30:16.788Z</time>
      </trkpt>
      <trkpt lat="45.67199" lon="5.27327">
        <ele>299</ele>
        <time>2021-02-28T09:30:17.787Z</time>
      </trkpt>
      <trkpt lat="45.67202" lon="5.27322">
        <ele>299</ele>
        <time>2021-02-28T09:30:18.787Z</time>
      </trkpt>
      <trkpt lat="45.67206" lon="5.27318">
        <ele>300</ele>
        <time>2021-02-28T09:30:19.787Z</time>
      </trkpt>
      <trkpt lat="45.67209" lon="5.27313">
        <ele>301</ele>
        <time>2021-02-28T09:30:20.788Z</time>
      </trkpt>
      <trkpt lat="45.67214" lon="5.27307">
        <ele>301</ele>
        <time>2021-02-28T09:30:21.788Z</time>
      </trkpt>
      <trkpt lat="45.67217" lon="5.27303">
        <ele>302</ele>
        <time>2021-02-28T09:30:22.787Z</time>
      </trkpt>
      <trkpt lat="45.6722" lon="5.27299">
        <ele>302</ele>
        <time>2021-02-28T09:30:23.787Z</time>
      </trkpt>
      <trkpt lat="45.67225" lon="5.27295">
        <ele>302</ele>
        <time>2021-02-28T09:30:24.788Z</time>
      </trkpt>
      <trkpt lat="45.6723" lon="5.2729">
        <ele>303</ele>
        <time>2021-02-28T09:30:25.788Z</time>
      </trkpt>
      <trkpt lat="45.67233" lon="5.27287">
        <ele>303</ele>
        <time>2021-02-28T09:30:26.787Z</time>
      </trkpt>
      <trkpt lat="45.67238" lon="5.27283">
        <ele>304</ele>
        <time>2021-02-28T09:30:27.788Z</time>
      </trkpt>
      <trkpt lat="45.67243" lon="5.2728">
        <ele>304</ele>
        <time>2021-02-28T09:30:28.787Z</time>
      </trkpt>
      <trkpt lat="45.67248" lon="5.27277">
        <ele>304</ele>
        <time>2021-02-28T09:30:29.787Z</time>
      </trkpt>
      <trkpt lat="45.67253" lon="5.27274">
        <ele>305</ele>
        <time>2021-02-28T09:30:30.788Z</time>
      </trkpt>
      <trkpt lat="45.67258" lon="5.27272">
        <ele>305</ele>
        <time>2021-02-28T09:30:31.787Z</time>
      </trkpt>
      <trkpt lat="45.67264" lon="5.2727">
        <ele>306</ele>
        <time>2021-02-28T09:30:32.787Z</time>
      </trkpt>
      <trkpt lat="45.6727" lon="5.27268">
        <ele>307</ele>
        <time>2021-02-28T09:30:33.787Z</time>
      </trkpt>
      <trkpt lat="45.67277" lon="5.27266">
        <ele>307</ele>
        <time>2021-02-28T09:30:34.788Z</time>
      </trkpt>
      <trkpt lat="45.67281" lon="5.27264">
        <ele>307</ele>
        <time>2021-02-28T09:30:35.788Z</time>
      </trkpt>
      <trkpt lat="45.67287" lon="5.27263">
        <ele>307</ele>
        <time>2021-02-28T09:30:36.788Z</time>
      </trkpt>
      <trkpt lat="45.67292" lon="5.27261">
        <ele>307</ele>
        <time>2021-02-28T09:30:37.787Z</time>
      </trkpt>
      <trkpt lat="45.67298" lon="5.2726">
        <ele>307</ele>
        <time>2021-02-28T09:30:38.788Z</time>
      </trkpt>
      <trkpt lat="45.67304" lon="5.27259">
        <ele>307</ele>
        <time>2021-02-28T09:30:39.787Z</time>
      </trkpt>
      <trkpt lat="45.6731" lon="5.27258">
        <ele>308</ele>
        <time>2021-02-28T09:30:40.787Z</time>
      </trkpt>
      <trkpt lat="45.67316" lon="5.27258">
        <ele>307</ele>
        <time>2021-02-28T09:30:41.788Z</time>
      </trkpt>
      <trkpt lat="45.67322" lon="5.27257">
        <ele>307</ele>
        <time>2021-02-28T09:30:42.788Z</time>
      </trkpt>
      <trkpt lat="45.67328" lon="5.27255">
        <ele>307</ele>
        <time>2021-02-28T09:30:43.788Z</time>
      </trkpt>
      <trkpt lat="45.67333" lon="5.27252">
        <ele>307</ele>
        <time>2021-02-28T09:30:44.788Z</time>
      </trkpt>
      <trkpt lat="45.67337" lon="5.27247">
        <ele>307</ele>
        <time>2021-02-28T09:30:45.787Z</time>
      </trkpt>
      <trkpt lat="45.6734" lon="5.27241">
        <ele>307</ele>
        <time>2021-02-28T09:30:46.788Z</time>
      </trkpt>
      <trkpt lat="45.67343" lon="5.27234">
        <ele>306</ele>
        <time>2021-02-28T09:30:47.788Z</time>
      </trkpt>
      <trkpt lat="45.67345" lon="5.27225">
        <ele>307</ele>
        <time>2021-02-28T09:30:48.788Z</time>
      </trkpt>
      <trkpt lat="45.67347" lon="5.27216">
        <ele>307</ele>
        <time>2021-02-28T09:30:49.787Z</time>
      </trkpt>
      <trkpt lat="45.67349" lon="5.27206">
        <ele>307</ele>
        <time>2021-02-28T09:30:50.788Z</time>
      </trkpt>
      <trkpt lat="45.67352" lon="5.27198">
        <ele>306</ele>
        <time>2021-02-28T09:30:51.788Z</time>
      </trkpt>
      <trkpt lat="45.67355" lon="5.27189">
        <ele>306</ele>
        <time>2021-02-28T09:30:52.788Z</time>
      </trkpt>
      <trkpt lat="45.67358" lon="5.27181">
        <ele>306</ele>
        <time>2021-02-28T09:30:53.788Z</time>
      </trkpt>
      <trkpt lat="45.67362" lon="5.27173">
        <ele>306</ele>
        <time>2021-02-28T09:30:54.788Z</time>
      </trkpt>
      <trkpt lat="45.67365" lon="5.27166">
        <ele>305</ele>
        <time>2021-02-28T09:30:55.788Z</time>
      </trkpt>
      <trkpt lat="45.67369" lon="5.27159">
        <ele>305</ele>
        <time>2021-02-28T09:30:56.788Z</time>
      </trkpt>
      <trkpt lat="45.67373" lon="5.27152">
        <ele>305</ele>
        <time>2021-02-28T09:30:57.788Z</time>
      </trkpt>
      <trkpt lat="45.67376" lon="5.27145">
        <ele>305</ele>
        <time>2021-02-28T09:30:58.788Z</time>
      </trkpt>
      <trkpt lat="45.6738" lon="5.27137">
        <ele>305</ele>
        <time>2021-02-28T09:30:59.788Z</time>
      </trkpt>
      <trkpt lat="45.67385" lon="5.27129">
        <ele>305</ele>
        <time>2021-02-28T09:31:00.788Z</time>
      </trkpt>
      <trkpt lat="45.67388" lon="5.27123">
        <ele>306</ele>
        <time>2021-02-28T09:31:01.788Z</time>
      </trkpt>
      <trkpt lat="45.67392" lon="5.27115">
        <ele>306</ele>
        <time>2021-02-28T09:31:02.788Z</time>
      </trkpt>
      <trkpt lat="45.67397" lon="5.27107">
        <ele>306</ele>
        <time>2021-02-28T09:31:03.788Z</time>
      </trkpt>
      <trkpt lat="45.67401" lon="5.27099">
        <ele>306</ele>
        <time>2021-02-28T09:31:04.788Z</time>
      </trkpt>
      <trkpt lat="45.67405" lon="5.27091">
        <ele>306</ele>
        <time>2021-02-28T09:31:05.788Z</time>
      </trkpt>
      <trkpt lat="45.6741" lon="5.27083">
        <ele>306</ele>
        <time>2021-02-28T09:31:06.788Z</time>
      </trkpt>
      <trkpt lat="45.67414" lon="5.27074">
        <ele>306</ele>
        <time>2021-02-28T09:31:07.787Z</time>
      </trkpt>
      <trkpt lat="45.67419" lon="5.27066">
        <ele>307</ele>
        <time>2021-02-28T09:31:08.787Z</time>
      </trkpt>
      <trkpt lat="45.67423" lon="5.27058">
        <ele>307</ele>
        <time>2021-02-28T09:31:09.788Z</time>
      </trkpt>
      <trkpt lat="45.67427" lon="5.2705">
        <ele>307</ele>
        <time>2021-02-28T09:31:10.787Z</time>
      </trkpt>
      <trkpt lat="45.67432" lon="5.27041">
        <ele>307</ele>
        <time>2021-02-28T09:31:11.788Z</time>
      </trkpt>
      <trkpt lat="45.67437" lon="5.27033">
        <ele>307</ele>
        <time>2021-02-28T09:31:12.787Z</time>
      </trkpt>
      <trkpt lat="45.67441" lon="5.27025">
        <ele>308</ele>
        <time>2021-02-28T09:31:13.788Z</time>
      </trkpt>
      <trkpt lat="45.67445" lon="5.27016">
        <ele>308</ele>
        <time>2021-02-28T09:31:14.788Z</time>
      </trkpt>
      <trkpt lat="45.67449" lon="5.27008">
        <ele>308</ele>
        <time>2021-02-28T09:31:15.787Z</time>
      </trkpt>
      <trkpt lat="45.67454" lon="5.26999">
        <ele>308</ele>
        <time>2021-02-28T09:31:16.788Z</time>
      </trkpt>
      <trkpt lat="45.67458" lon="5.26991">
        <ele>308</ele>
        <time>2021-02-28T09:31:17.787Z</time>
      </trkpt>
      <trkpt lat="45.67463" lon="5.26983">
        <ele>308</ele>
        <time>2021-02-28T09:31:18.788Z</time>
      </trkpt>
      <trkpt lat="45.67468" lon="5.26976">
        <ele>308</ele>
        <time>2021-02-28T09:31:19.788Z</time>
      </trkpt>
      <trkpt lat="45.67473" lon="5.26969">
        <ele>308</ele>
        <time>2021-02-28T09:31:20.788Z</time>
      </trkpt>
      <trkpt lat="45.67479" lon="5.26962">
        <ele>308</ele>
        <time>2021-02-28T09:31:21.788Z</time>
      </trkpt>
      <trkpt lat="45.67484" lon="5.26956">
        <ele>308</ele>
        <time>2021-02-28T09:31:22.788Z</time>
      </trkpt>
      <trkpt lat="45.6749" lon="5.2695">
        <ele>308</ele>
        <time>2021-02-28T09:31:23.788Z</time>
      </trkpt>
      <trkpt lat="45.67496" lon="5.26944">
        <ele>309</ele>
        <time>2021-02-28T09:31:24.788Z</time>
      </trkpt>
      <trkpt lat="45.67502" lon="5.26939">
        <ele>309</ele>
        <time>2021-02-28T09:31:25.788Z</time>
      </trkpt>
      <trkpt lat="45.67508" lon="5.26934">
        <ele>309</ele>
        <time>2021-02-28T09:31:26.788Z</time>
      </trkpt>
      <trkpt lat="45.67515" lon="5.2693">
        <ele>310</ele>
        <time>2021-02-28T09:31:27.787Z</time>
      </trkpt>
      <trkpt lat="45.67521" lon="5.26925">
        <ele>310</ele>
        <time>2021-02-28T09:31:28.788Z</time>
      </trkpt>
      <trkpt lat="45.67527" lon="5.26921">
        <ele>310</ele>
        <time>2021-02-28T09:31:29.787Z</time>
      </trkpt>
      <trkpt lat="45.67533" lon="5.26917">
        <ele>310</ele>
        <time>2021-02-28T09:31:30.788Z</time>
      </trkpt>
      <trkpt lat="45.6754" lon="5.26912">
        <ele>310</ele>
        <time>2021-02-28T09:31:31.788Z</time>
      </trkpt>
      <trkpt lat="45.67546" lon="5.26907">
        <ele>310</ele>
        <time>2021-02-28T09:31:32.788Z</time>
      </trkpt>
      <trkpt lat="45.67553" lon="5.26902">
        <ele>310</ele>
        <time>2021-02-28T09:31:33.788Z</time>
      </trkpt>
      <trkpt lat="45.67559" lon="5.26897">
        <ele>311</ele>
        <time>2021-02-28T09:31:34.788Z</time>
      </trkpt>
      <trkpt lat="45.67565" lon="5.26892">
        <ele>311</ele>
        <time>2021-02-28T09:31:35.788Z</time>
      </trkpt>
      <trkpt lat="45.67572" lon="5.26887">
        <ele>312</ele>
        <time>2021-02-28T09:31:36.788Z</time>
      </trkpt>
      <trkpt lat="45.67578" lon="5.26882">
        <ele>312</ele>
        <time>2021-02-28T09:31:37.788Z</time>
      </trkpt>
      <trkpt lat="45.67585" lon="5.26877">
        <ele>312</ele>
        <time>2021-02-28T09:31:38.788Z</time>
      </trkpt>
      <trkpt lat="45.67591" lon="5.26873">
        <ele>312</ele>
        <time>2021-02-28T09:31:39.787Z</time>
      </trkpt>
      <trkpt lat="45.67598" lon="5.26869">
        <ele>312</ele>
        <time>2021-02-28T09:31:40.788Z</time>
      </trkpt>
      <trkpt lat="45.67604" lon="5.26865">
        <ele>312</ele>
        <time>2021-02-28T09:31:41.787Z</time>
      </trkpt>
      <trkpt lat="45.6761" lon="5.26861">
        <ele>312</ele>
        <time>2021-02-28T09:31:42.788Z</time>
      </trkpt>
      <trkpt lat="45.67616" lon="5.26856">
        <ele>312</ele>
        <time>2021-02-28T09:31:43.788Z</time>
      </trkpt>
      <trkpt lat="45.67622" lon="5.26852">
        <ele>311</ele>
        <time>2021-02-28T09:31:44.788Z</time>
      </trkpt>
      <trkpt lat="45.67628" lon="5.26849">
        <ele>311</ele>
        <time>2021-02-28T09:31:45.788Z</time>
      </trkpt>
      <trkpt lat="45.67633" lon="5.26845">
        <ele>311</ele>
        <time>2021-02-28T09:31:46.788Z</time>
      </trkpt>
      <trkpt lat="45.67639" lon="5.26841">
        <ele>311</ele>
        <time>2021-02-28T09:31:47.788Z</time>
      </trkpt>
      <trkpt lat="45.67644" lon="5.26838">
        <ele>311</ele>
        <time>2021-02-28T09:31:48.788Z</time>
      </trkpt>
      <trkpt lat="45.67649" lon="5.26834">
        <ele>311</ele>
        <time>2021-02-28T09:31:49.788Z</time>
      </trkpt>
      <trkpt lat="45.67654" lon="5.26831">
        <ele>311</ele>
        <time>2021-02-28T09:31:50.788Z</time>
      </trkpt>
      <trkpt lat="45.67659" lon="5.26828">
        <ele>311</ele>
        <time>2021-02-28T09:31:51.788Z</time>
      </trkpt>
      <trkpt lat="45.67664" lon="5.26824">
        <ele>310</ele>
        <time>2021-02-28T09:31:52.787Z</time>
      </trkpt>
      <trkpt lat="45.67669" lon="5.26821">
        <ele>310</ele>
        <time>2021-02-28T09:31:53.788Z</time>
      </trkpt>
      <trkpt lat="45.67673" lon="5.26818">
        <ele>310</ele>
        <time>2021-02-28T09:31:54.788Z</time>
      </trkpt>
      <trkpt lat="45.67678" lon="5.26815">
        <ele>310</ele>
        <time>2021-02-28T09:31:55.788Z</time>
      </trkpt>
      <trkpt lat="45.67683" lon="5.26812">
        <ele>310</ele>
        <time>2021-02-28T09:31:56.788Z</time>
      </trkpt>
      <trkpt lat="45.67688" lon="5.26809">
        <ele>311</ele>
        <time>2021-02-28T09:31:57.788Z</time>
      </trkpt>
      <trkpt lat="45.67693" lon="5.26806">
        <ele>311</ele>
        <time>2021-02-28T09:31:58.788Z</time>
      </trkpt>
      <trkpt lat="45.67697" lon="5.26803">
        <ele>312</ele>
        <time>2021-02-28T09:31:59.787Z</time>
      </trkpt>
      <trkpt lat="45.67701" lon="5.268">
        <ele>312</ele>
        <time>2021-02-28T09:32:00.787Z</time>
      </trkpt>
      <trkpt lat="45.67705" lon="5.26798">
        <ele>312</ele>
        <time>2021-02-28T09:32:01.788Z</time>
      </trkpt>
      <trkpt lat="45.6771" lon="5.26795">
        <ele>312</ele>
        <time>2021-02-28T09:32:02.788Z</time>
      </trkpt>
      <trkpt lat="45.67714" lon="5.26792">
        <ele>313</ele>
        <time>2021-02-28T09:32:03.788Z</time>
      </trkpt>
      <trkpt lat="45.67718" lon="5.26789">
        <ele>313</ele>
        <time>2021-02-28T09:32:04.788Z</time>
      </trkpt>
      <trkpt lat="45.67722" lon="5.26785">
        <ele>313</ele>
        <time>2021-02-28T09:32:05.788Z</time>
      </trkpt>
      <trkpt lat="45.67726" lon="5.26782">
        <ele>314</ele>
        <time>2021-02-28T09:32:06.788Z</time>
      </trkpt>
      <trkpt lat="45.6773" lon="5.2678">
        <ele>314</ele>
        <time>2021-02-28T09:32:07.788Z</time>
      </trkpt>
      <trkpt lat="45.67735" lon="5.26777">
        <ele>315</ele>
        <time>2021-02-28T09:32:08.788Z</time>
      </trkpt>
      <trkpt lat="45.67739" lon="5.26774">
        <ele>315</ele>
        <time>2021-02-28T09:32:09.787Z</time>
      </trkpt>
      <trkpt lat="45.67743" lon="5.26771">
        <ele>316</ele>
        <time>2021-02-28T09:32:10.787Z</time>
      </trkpt>
      <trkpt lat="45.67746" lon="5.26769">
        <ele>316</ele>
        <time>2021-02-28T09:32:11.787Z</time>
      </trkpt>
      <trkpt lat="45.6775" lon="5.26766">
        <ele>316</ele>
        <time>2021-02-28T09:32:12.787Z</time>
      </trkpt>
      <trkpt lat="45.67754" lon="5.26763">
        <ele>316</ele>
        <time>2021-02-28T09:32:13.788Z</time>
      </trkpt>
      <trkpt lat="45.67757" lon="5.26761">
        <ele>316</ele>
        <time>2021-02-28T09:32:14.788Z</time>
      </trkpt>
      <trkpt lat="45.67761" lon="5.26758">
        <ele>316</ele>
        <time>2021-02-28T09:32:15.787Z</time>
      </trkpt>
      <trkpt lat="45.67766" lon="5.26755">
        <ele>317</ele>
        <time>2021-02-28T09:32:16.788Z</time>
      </trkpt>
      <trkpt lat="45.6777" lon="5.26752">
        <ele>318</ele>
        <time>2021-02-28T09:32:17.788Z</time>
      </trkpt>
      <trkpt lat="45.67774" lon="5.2675">
        <ele>319</ele>
        <time>2021-02-28T09:32:18.788Z</time>
      </trkpt>
      <trkpt lat="45.67778" lon="5.26747">
        <ele>319</ele>
        <time>2021-02-28T09:32:19.788Z</time>
      </trkpt>
      <trkpt lat="45.67782" lon="5.26744">
        <ele>320</ele>
        <time>2021-02-28T09:32:20.788Z</time>
      </trkpt>
      <trkpt lat="45.67786" lon="5.26741">
        <ele>320</ele>
        <time>2021-02-28T09:32:21.788Z</time>
      </trkpt>
      <trkpt lat="45.6779" lon="5.26738">
        <ele>321</ele>
        <time>2021-02-28T09:32:22.787Z</time>
      </trkpt>
      <trkpt lat="45.67795" lon="5.26734">
        <ele>321</ele>
        <time>2021-02-28T09:32:23.788Z</time>
      </trkpt>
      <trkpt lat="45.67798" lon="5.26732">
        <ele>321</ele>
        <time>2021-02-28T09:32:24.788Z</time>
      </trkpt>
      <trkpt lat="45.67802" lon="5.26729">
        <ele>322</ele>
        <time>2021-02-28T09:32:25.788Z</time>
      </trkpt>
      <trkpt lat="45.67806" lon="5.26727">
        <ele>322</ele>
        <time>2021-02-28T09:32:26.788Z</time>
      </trkpt>
      <trkpt lat="45.67811" lon="5.26724">
        <ele>323</ele>
        <time>2021-02-28T09:32:27.788Z</time>
      </trkpt>
      <trkpt lat="45.67815" lon="5.26722">
        <ele>323</ele>
        <time>2021-02-28T09:32:28.788Z</time>
      </trkpt>
      <trkpt lat="45.67819" lon="5.2672">
        <ele>323</ele>
        <time>2021-02-28T09:32:29.788Z</time>
      </trkpt>
      <trkpt lat="45.67824" lon="5.26718">
        <ele>324</ele>
        <time>2021-02-28T09:32:30.788Z</time>
      </trkpt>
      <trkpt lat="45.67828" lon="5.26716">
        <ele>325</ele>
        <time>2021-02-28T09:32:31.788Z</time>
      </trkpt>
      <trkpt lat="45.67832" lon="5.26714">
        <ele>326</ele>
        <time>2021-02-28T09:32:32.788Z</time>
      </trkpt>
      <trkpt lat="45.67837" lon="5.26712">
        <ele>327</ele>
        <time>2021-02-28T09:32:33.787Z</time>
      </trkpt>
      <trkpt lat="45.67841" lon="5.2671">
        <ele>328</ele>
        <time>2021-02-28T09:32:34.788Z</time>
      </trkpt>
      <trkpt lat="45.67846" lon="5.26709">
        <ele>328</ele>
        <time>2021-02-28T09:32:35.788Z</time>
      </trkpt>
      <trkpt lat="45.6785" lon="5.26707">
        <ele>329</ele>
        <time>2021-02-28T09:32:36.788Z</time>
      </trkpt>
      <trkpt lat="45.67854" lon="5.26706">
        <ele>329</ele>
        <time>2021-02-28T09:32:37.788Z</time>
      </trkpt>
      <trkpt lat="45.67858" lon="5.26704">
        <ele>330</ele>
        <time>2021-02-28T09:32:38.788Z</time>
      </trkpt>
      <trkpt lat="45.67862" lon="5.26703">
        <ele>330</ele>
        <time>2021-02-28T09:32:39.788Z</time>
      </trkpt>
      <trkpt lat="45.67866" lon="5.26702">
        <ele>331</ele>
        <time>2021-02-28T09:32:40.788Z</time>
      </trkpt>
      <trkpt lat="45.67871" lon="5.26701">
        <ele>331</ele>
        <time>2021-02-28T09:32:41.788Z</time>
      </trkpt>
      <trkpt lat="45.67875" lon="5.267">
        <ele>331</ele>
        <time>2021-02-28T09:32:42.787Z</time>
      </trkpt>
      <trkpt lat="45.67879" lon="5.26698">
        <ele>332</ele>
        <time>2021-02-28T09:32:43.788Z</time>
      </trkpt>
      <trkpt lat="45.67885" lon="5.26697">
        <ele>332</ele>
        <time>2021-02-28T09:32:44.787Z</time>
      </trkpt>
      <trkpt lat="45.67888" lon="5.26696">
        <ele>333</ele>
        <time>2021-02-28T09:32:45.788Z</time>
      </trkpt>
      <trkpt lat="45.67893" lon="5.26694">
        <ele>333</ele>
        <time>2021-02-28T09:32:46.788Z</time>
      </trkpt>
      <trkpt lat="45.67897" lon="5.26693">
        <ele>333</ele>
        <time>2021-02-28T09:32:47.788Z</time>
      </trkpt>
      <trkpt lat="45.67902" lon="5.26691">
        <ele>333</ele>
        <time>2021-02-28T09:32:48.788Z</time>
      </trkpt>
      <trkpt lat="45.67906" lon="5.26689">
        <ele>333</ele>
        <time>2021-02-28T09:32:49.788Z</time>
      </trkpt>
      <trkpt lat="45.6791" lon="5.26687">
        <ele>333</ele>
        <time>2021-02-28T09:32:50.788Z</time>
      </trkpt>
      <trkpt lat="45.67915" lon="5.26685">
        <ele>333</ele>
        <time>2021-02-28T09:32:51.788Z</time>
      </trkpt>
      <trkpt lat="45.67919" lon="5.26682">
        <ele>333</ele>
        <time>2021-02-28T09:32:52.787Z</time>
      </trkpt>
      <trkpt lat="45.67922" lon="5.2668">
        <ele>333</ele>
        <time>2021-02-28T09:32:53.788Z</time>
      </trkpt>
      <trkpt lat="45.67927" lon="5.26676">
        <ele>332</ele>
        <time>2021-02-28T09:32:54.788Z</time>
      </trkpt>
      <trkpt lat="45.6793" lon="5.26674">
        <ele>332</ele>
        <time>2021-02-28T09:32:55.788Z</time>
      </trkpt>
      <trkpt lat="45.67933" lon="5.26671">
        <ele>331</ele>
        <time>2021-02-28T09:32:56.787Z</time>
      </trkpt>
      <trkpt lat="45.67937" lon="5.26668">
        <ele>331</ele>
        <time>2021-02-28T09:32:57.788Z</time>
      </trkpt>
      <trkpt lat="45.67941" lon="5.26665">
        <ele>331</ele>
        <time>2021-02-28T09:32:58.788Z</time>
      </trkpt>
      <trkpt lat="45.67944" lon="5.26662">
        <ele>331</ele>
        <time>2021-02-28T09:32:59.788Z</time>
      </trkpt>
      <trkpt lat="45.67948" lon="5.26659">
        <ele>331</ele>
        <time>2021-02-28T09:33:00.787Z</time>
      </trkpt>
      <trkpt lat="45.67952" lon="5.26655">
        <ele>332</ele>
        <time>2021-02-28T09:33:01.788Z</time>
      </trkpt>
      <trkpt lat="45.67956" lon="5.26651">
        <ele>333</ele>
        <time>2021-02-28T09:33:02.788Z</time>
      </trkpt>
      <trkpt lat="45.6796" lon="5.26647">
        <ele>333</ele>
        <time>2021-02-28T09:33:03.788Z</time>
      </trkpt>
      <trkpt lat="45.67964" lon="5.26643">
        <ele>333</ele>
        <time>2021-02-28T09:33:04.788Z</time>
      </trkpt>
      <trkpt lat="45.67968" lon="5.26639">
        <ele>334</ele>
        <time>2021-02-28T09:33:05.788Z</time>
      </trkpt>
      <trkpt lat="45.67971" lon="5.26635">
        <ele>334</ele>
        <time>2021-02-28T09:33:06.788Z</time>
      </trkpt>
      <trkpt lat="45.67975" lon="5.26631">
        <ele>334</ele>
        <time>2021-02-28T09:33:07.788Z</time>
      </trkpt>
      <trkpt lat="45.67978" lon="5.26627">
        <ele>334</ele>
        <time>2021-02-28T09:33:08.788Z</time>
      </trkpt>
      <trkpt lat="45.67982" lon="5.26623">
        <ele>334</ele>
        <time>2021-02-28T09:33:09.788Z</time>
      </trkpt>
      <trkpt lat="45.67986" lon="5.26619">
        <ele>335</ele>
        <time>2021-02-28T09:33:10.788Z</time>
      </trkpt>
      <trkpt lat="45.67989" lon="5.26616">
        <ele>335</ele>
        <time>2021-02-28T09:33:11.788Z</time>
      </trkpt>
      <trkpt lat="45.67993" lon="5.26612">
        <ele>335</ele>
        <time>2021-02-28T09:33:12.788Z</time>
      </trkpt>
      <trkpt lat="45.67997" lon="5.26608">
        <ele>334</ele>
        <time>2021-02-28T09:33:13.788Z</time>
      </trkpt>
      <trkpt lat="45.68" lon="5.26605">
        <ele>334</ele>
        <time>2021-02-28T09:33:14.788Z</time>
      </trkpt>
      <trkpt lat="45.68004" lon="5.26601">
        <ele>334</ele>
        <time>2021-02-28T09:33:15.788Z</time>
      </trkpt>
      <trkpt lat="45.68008" lon="5.26597">
        <ele>334</ele>
        <time>2021-02-28T09:33:16.787Z</time>
      </trkpt>
      <trkpt lat="45.68012" lon="5.26594">
        <ele>335</ele>
        <time>2021-02-28T09:33:17.788Z</time>
      </trkpt>
      <trkpt lat="45.68016" lon="5.2659">
        <ele>335</ele>
        <time>2021-02-28T09:33:18.788Z</time>
      </trkpt>
      <trkpt lat="45.68019" lon="5.26587">
        <ele>336</ele>
        <time>2021-02-28T09:33:19.787Z</time>
      </trkpt>
      <trkpt lat="45.68023" lon="5.26583">
        <ele>336</ele>
        <time>2021-02-28T09:33:20.788Z</time>
      </trkpt>
      <trkpt lat="45.68026" lon="5.2658">
        <ele>337</ele>
        <time>2021-02-28T09:33:21.788Z</time>
      </trkpt>
      <trkpt lat="45.6803" lon="5.26577">
        <ele>337</ele>
        <time>2021-02-28T09:33:22.788Z</time>
      </trkpt>
      <trkpt lat="45.68033" lon="5.26574">
        <ele>338</ele>
        <time>2021-02-28T09:33:23.788Z</time>
      </trkpt>
      <trkpt lat="45.68036" lon="5.2657">
        <ele>338</ele>
        <time>2021-02-28T09:33:24.788Z</time>
      </trkpt>
      <trkpt lat="45.6804" lon="5.26567">
        <ele>338</ele>
        <time>2021-02-28T09:33:25.787Z</time>
      </trkpt>
      <trkpt lat="45.68043" lon="5.26563">
        <ele>338</ele>
        <time>2021-02-28T09:33:26.788Z</time>
      </trkpt>
      <trkpt lat="45.68046" lon="5.26559">
        <ele>339</ele>
        <time>2021-02-28T09:33:27.788Z</time>
      </trkpt>
      <trkpt lat="45.6805" lon="5.26555">
        <ele>339</ele>
        <time>2021-02-28T09:33:28.788Z</time>
      </trkpt>
      <trkpt lat="45.68052" lon="5.26552">
        <ele>339</ele>
        <time>2021-02-28T09:33:29.787Z</time>
      </trkpt>
      <trkpt lat="45.68055" lon="5.26547">
        <ele>339</ele>
        <time>2021-02-28T09:33:30.788Z</time>
      </trkpt>
      <trkpt lat="45.68057" lon="5.26543">
        <ele>339</ele>
        <time>2021-02-28T09:33:31.788Z</time>
      </trkpt>
      <trkpt lat="45.6806" lon="5.26538">
        <ele>339</ele>
        <time>2021-02-28T09:33:32.787Z</time>
      </trkpt>
      <trkpt lat="45.68062" lon="5.26532">
        <ele>339</ele>
        <time>2021-02-28T09:33:33.788Z</time>
      </trkpt>
      <trkpt lat="45.68064" lon="5.26527">
        <ele>339</ele>
        <time>2021-02-28T09:33:34.788Z</time>
      </trkpt>
      <trkpt lat="45.68066" lon="5.26522">
        <ele>339</ele>
        <time>2021-02-28T09:33:35.788Z</time>
      </trkpt>
      <trkpt lat="45.68068" lon="5.26516">
        <ele>339</ele>
        <time>2021-02-28T09:33:36.788Z</time>
      </trkpt>
      <trkpt lat="45.68069" lon="5.2651">
        <ele>338</ele>
        <time>2021-02-28T09:33:37.788Z</time>
      </trkpt>
      <trkpt lat="45.6807" lon="5.26504">
        <ele>338</ele>
        <time>2021-02-28T09:33:38.788Z</time>
      </trkpt>
      <trkpt lat="45.6807" lon="5.26498">
        <ele>338</ele>
        <time>2021-02-28T09:33:39.788Z</time>
      </trkpt>
      <trkpt lat="45.68071" lon="5.26492">
        <ele>339</ele>
        <time>2021-02-28T09:33:40.788Z</time>
      </trkpt>
      <trkpt lat="45.68071" lon="5.26485">
        <ele>339</ele>
        <time>2021-02-28T09:33:41.788Z</time>
      </trkpt>
      <trkpt lat="45.68071" lon="5.26479">
        <ele>339</ele>
        <time>2021-02-28T09:33:42.787Z</time>
      </trkpt>
      <trkpt lat="45.6807" lon="5.26472">
        <ele>340</ele>
        <time>2021-02-28T09:33:43.788Z</time>
      </trkpt>
      <trkpt lat="45.68069" lon="5.26466">
        <ele>340</ele>
        <time>2021-02-28T09:33:44.788Z</time>
      </trkpt>
      <trkpt lat="45.68068" lon="5.2646">
        <ele>341</ele>
        <time>2021-02-28T09:33:45.788Z</time>
      </trkpt>
      <trkpt lat="45.68067" lon="5.26453">
        <ele>342</ele>
        <time>2021-02-28T09:33:46.788Z</time>
      </trkpt>
      <trkpt lat="45.68065" lon="5.26447">
        <ele>342</ele>
        <time>2021-02-28T09:33:47.788Z</time>
      </trkpt>
      <trkpt lat="45.68064" lon="5.2644">
        <ele>343</ele>
        <time>2021-02-28T09:33:48.788Z</time>
      </trkpt>
      <trkpt lat="45.68063" lon="5.26434">
        <ele>345</ele>
        <time>2021-02-28T09:33:49.787Z</time>
      </trkpt>
      <trkpt lat="45.68062" lon="5.26427">
        <ele>346</ele>
        <time>2021-02-28T09:33:50.788Z</time>
      </trkpt>
      <trkpt lat="45.68061" lon="5.26421">
        <ele>346</ele>
        <time>2021-02-28T09:33:51.787Z</time>
      </trkpt>
      <trkpt lat="45.6806" lon="5.26415">
        <ele>347</ele>
        <time>2021-02-28T09:33:52.787Z</time>
      </trkpt>
      <trkpt lat="45.68059" lon="5.26408">
        <ele>347</ele>
        <time>2021-02-28T09:33:53.788Z</time>
      </trkpt>
      <trkpt lat="45.68059" lon="5.26402">
        <ele>348</ele>
        <time>2021-02-28T09:33:54.788Z</time>
      </trkpt>
      <trkpt lat="45.68058" lon="5.26395">
        <ele>348</ele>
        <time>2021-02-28T09:33:55.788Z</time>
      </trkpt>
      <trkpt lat="45.68057" lon="5.26389">
        <ele>348</ele>
        <time>2021-02-28T09:33:56.788Z</time>
      </trkpt>
      <trkpt lat="45.68056" lon="5.26382">
        <ele>349</ele>
        <time>2021-02-28T09:33:57.788Z</time>
      </trkpt>
      <trkpt lat="45.68055" lon="5.26376">
        <ele>349</ele>
        <time>2021-02-28T09:33:58.788Z</time>
      </trkpt>
      <trkpt lat="45.68054" lon="5.2637">
        <ele>350</ele>
        <time>2021-02-28T09:33:59.787Z</time>
      </trkpt>
      <trkpt lat="45.68054" lon="5.26363">
        <ele>350</ele>
        <time>2021-02-28T09:34:00.788Z</time>
      </trkpt>
      <trkpt lat="45.68053" lon="5.26357">
        <ele>350</ele>
        <time>2021-02-28T09:34:01.787Z</time>
      </trkpt>
      <trkpt lat="45.68053" lon="5.2635">
        <ele>351</ele>
        <time>2021-02-28T09:34:02.788Z</time>
      </trkpt>
      <trkpt lat="45.68052" lon="5.26343">
        <ele>351</ele>
        <time>2021-02-28T09:34:03.788Z</time>
      </trkpt>
      <trkpt lat="45.68052" lon="5.26337">
        <ele>351</ele>
        <time>2021-02-28T09:34:04.788Z</time>
      </trkpt>
      <trkpt lat="45.68052" lon="5.26331">
        <ele>351</ele>
        <time>2021-02-28T09:34:05.788Z</time>
      </trkpt>
      <trkpt lat="45.68052" lon="5.26324">
        <ele>351</ele>
        <time>2021-02-28T09:34:06.788Z</time>
      </trkpt>
      <trkpt lat="45.68052" lon="5.26317">
        <ele>351</ele>
        <time>2021-02-28T09:34:07.788Z</time>
      </trkpt>
      <trkpt lat="45.68052" lon="5.2631">
        <ele>351</ele>
        <time>2021-02-28T09:34:08.787Z</time>
      </trkpt>
      <trkpt lat="45.68052" lon="5.26304">
        <ele>352</ele>
        <time>2021-02-28T09:34:09.788Z</time>
      </trkpt>
      <trkpt lat="45.68052" lon="5.26297">
        <ele>352</ele>
        <time>2021-02-28T09:34:10.788Z</time>
      </trkpt>
      <trkpt lat="45.68052" lon="5.2629">
        <ele>352</ele>
        <time>2021-02-28T09:34:11.788Z</time>
      </trkpt>
      <trkpt lat="45.68052" lon="5.26283">
        <ele>352</ele>
        <time>2021-02-28T09:34:12.788Z</time>
      </trkpt>
      <trkpt lat="45.68052" lon="5.26276">
        <ele>352</ele>
        <time>2021-02-28T09:34:13.788Z</time>
      </trkpt>
      <trkpt lat="45.68051" lon="5.26268">
        <ele>352</ele>
        <time>2021-02-28T09:34:14.788Z</time>
      </trkpt>
      <trkpt lat="45.68051" lon="5.26261">
        <ele>352</ele>
        <time>2021-02-28T09:34:15.788Z</time>
      </trkpt>
      <trkpt lat="45.68051" lon="5.26253">
        <ele>352</ele>
        <time>2021-02-28T09:34:16.788Z</time>
      </trkpt>
      <trkpt lat="45.68051" lon="5.26245">
        <ele>352</ele>
        <time>2021-02-28T09:34:17.788Z</time>
      </trkpt>
      <trkpt lat="45.68051" lon="5.26237">
        <ele>352</ele>
        <time>2021-02-28T09:34:18.788Z</time>
      </trkpt>
      <trkpt lat="45.68052" lon="5.26229">
        <ele>351</ele>
        <time>2021-02-28T09:34:19.788Z</time>
      </trkpt>
      <trkpt lat="45.68052" lon="5.2622">
        <ele>351</ele>
        <time>2021-02-28T09:34:20.788Z</time>
      </trkpt>
      <trkpt lat="45.68053" lon="5.26211">
        <ele>351</ele>
        <time>2021-02-28T09:34:21.788Z</time>
      </trkpt>
      <trkpt lat="45.68053" lon="5.26202">
        <ele>351</ele>
        <time>2021-02-28T09:34:22.788Z</time>
      </trkpt>
      <trkpt lat="45.68053" lon="5.26192">
        <ele>350</ele>
        <time>2021-02-28T09:34:23.788Z</time>
      </trkpt>
      <trkpt lat="45.68054" lon="5.2618">
        <ele>350</ele>
        <time>2021-02-28T09:34:24.788Z</time>
      </trkpt>
      <trkpt lat="45.68054" lon="5.26171">
        <ele>349</ele>
        <time>2021-02-28T09:34:25.788Z</time>
      </trkpt>
      <trkpt lat="45.68054" lon="5.26163">
        <ele>349</ele>
        <time>2021-02-28T09:34:26.787Z</time>
      </trkpt>
      <trkpt lat="45.68053" lon="5.26152">
        <ele>349</ele>
        <time>2021-02-28T09:34:27.788Z</time>
      </trkpt>
      <trkpt lat="45.68053" lon="5.26144">
        <ele>350</ele>
        <time>2021-02-28T09:34:28.788Z</time>
      </trkpt>
      <trkpt lat="45.68052" lon="5.26134">
        <ele>350</ele>
        <time>2021-02-28T09:34:29.788Z</time>
      </trkpt>
      <trkpt lat="45.68052" lon="5.26124">
        <ele>350</ele>
        <time>2021-02-28T09:34:30.788Z</time>
      </trkpt>
      <trkpt lat="45.68051" lon="5.26114">
        <ele>350</ele>
        <time>2021-02-28T09:34:31.788Z</time>
      </trkpt>
      <trkpt lat="45.68049" lon="5.26105">
        <ele>350</ele>
        <time>2021-02-28T09:34:32.788Z</time>
      </trkpt>
      <trkpt lat="45.68048" lon="5.26093">
        <ele>350</ele>
        <time>2021-02-28T09:34:33.788Z</time>
      </trkpt>
      <trkpt lat="45.68046" lon="5.26084">
        <ele>350</ele>
        <time>2021-02-28T09:34:34.788Z</time>
      </trkpt>
      <trkpt lat="45.68045" lon="5.26074">
        <ele>350</ele>
        <time>2021-02-28T09:34:35.788Z</time>
      </trkpt>
      <trkpt lat="45.68044" lon="5.26064">
        <ele>350</ele>
        <time>2021-02-28T09:34:36.787Z</time>
      </trkpt>
      <trkpt lat="45.68043" lon="5.26055">
        <ele>350</ele>
        <time>2021-02-28T09:34:37.788Z</time>
      </trkpt>
      <trkpt lat="45.68041" lon="5.26045">
        <ele>350</ele>
        <time>2021-02-28T09:34:38.788Z</time>
      </trkpt>
      <trkpt lat="45.6804" lon="5.26036">
        <ele>350</ele>
        <time>2021-02-28T09:34:39.788Z</time>
      </trkpt>
      <trkpt lat="45.68039" lon="5.26028">
        <ele>351</ele>
        <time>2021-02-28T09:34:40.787Z</time>
      </trkpt>
      <trkpt lat="45.68037" lon="5.26018">
        <ele>351</ele>
        <time>2021-02-28T09:34:41.787Z</time>
      </trkpt>
      <trkpt lat="45.68036" lon="5.26009">
        <ele>351</ele>
        <time>2021-02-28T09:34:42.787Z</time>
      </trkpt>
      <trkpt lat="45.68034" lon="5.25999">
        <ele>351</ele>
        <time>2021-02-28T09:34:43.788Z</time>
      </trkpt>
      <trkpt lat="45.68033" lon="5.2599">
        <ele>351</ele>
        <time>2021-02-28T09:34:44.788Z</time>
      </trkpt>
      <trkpt lat="45.68031" lon="5.25978">
        <ele>351</ele>
        <time>2021-02-28T09:34:45.787Z</time>
      </trkpt>
      <trkpt lat="45.68029" lon="5.2597">
        <ele>350</ele>
        <time>2021-02-28T09:34:46.788Z</time>
      </trkpt>
      <trkpt lat="45.68028" lon="5.25958">
        <ele>350</ele>
        <time>2021-02-28T09:34:47.787Z</time>
      </trkpt>
      <trkpt lat="45.68026" lon="5.2595">
        <ele>350</ele>
        <time>2021-02-28T09:34:48.788Z</time>
      </trkpt>
      <trkpt lat="45.68024" lon="5.25939">
        <ele>350</ele>
        <time>2021-02-28T09:34:49.788Z</time>
      </trkpt>
      <trkpt lat="45.68022" lon="5.25928">
        <ele>350</ele>
        <time>2021-02-28T09:34:50.788Z</time>
      </trkpt>
      <trkpt lat="45.6802" lon="5.25915">
        <ele>350</ele>
        <time>2021-02-28T09:34:51.788Z</time>
      </trkpt>
      <trkpt lat="45.68019" lon="5.25906">
        <ele>350</ele>
        <time>2021-02-28T09:34:52.788Z</time>
      </trkpt>
      <trkpt lat="45.68017" lon="5.25893">
        <ele>350</ele>
        <time>2021-02-28T09:34:53.787Z</time>
      </trkpt>
      <trkpt lat="45.68015" lon="5.25884">
        <ele>350</ele>
        <time>2021-02-28T09:34:54.788Z</time>
      </trkpt>
      <trkpt lat="45.68013" lon="5.25873">
        <ele>349</ele>
        <time>2021-02-28T09:34:55.788Z</time>
      </trkpt>
      <trkpt lat="45.68011" lon="5.25862">
        <ele>349</ele>
        <time>2021-02-28T09:34:56.788Z</time>
      </trkpt>
      <trkpt lat="45.68009" lon="5.25852">
        <ele>349</ele>
        <time>2021-02-28T09:34:57.788Z</time>
      </trkpt>
      <trkpt lat="45.68007" lon="5.25839">
        <ele>348</ele>
        <time>2021-02-28T09:34:58.788Z</time>
      </trkpt>
      <trkpt lat="45.68005" lon="5.2583">
        <ele>348</ele>
        <time>2021-02-28T09:34:59.788Z</time>
      </trkpt>
      <trkpt lat="45.68003" lon="5.2582">
        <ele>348</ele>
        <time>2021-02-28T09:35:00.788Z</time>
      </trkpt>
      <trkpt lat="45.68001" lon="5.2581">
        <ele>348</ele>
        <time>2021-02-28T09:35:01.787Z</time>
      </trkpt>
      <trkpt lat="45.67999" lon="5.25799">
        <ele>348</ele>
        <time>2021-02-28T09:35:02.788Z</time>
      </trkpt>
      <trkpt lat="45.67997" lon="5.25789">
        <ele>348</ele>
        <time>2021-02-28T09:35:03.788Z</time>
      </trkpt>
      <trkpt lat="45.67995" lon="5.25779">
        <ele>348</ele>
        <time>2021-02-28T09:35:04.787Z</time>
      </trkpt>
      <trkpt lat="45.67994" lon="5.25769">
        <ele>348</ele>
        <time>2021-02-28T09:35:05.788Z</time>
      </trkpt>
      <trkpt lat="45.67992" lon="5.25759">
        <ele>348</ele>
        <time>2021-02-28T09:35:06.788Z</time>
      </trkpt>
      <trkpt lat="45.67991" lon="5.25749">
        <ele>348</ele>
        <time>2021-02-28T09:35:07.788Z</time>
      </trkpt>
      <trkpt lat="45.6799" lon="5.25738">
        <ele>348</ele>
        <time>2021-02-28T09:35:08.788Z</time>
      </trkpt>
      <trkpt lat="45.67991" lon="5.25728">
        <ele>348</ele>
        <time>2021-02-28T09:35:09.788Z</time>
      </trkpt>
      <trkpt lat="45.67993" lon="5.25719">
        <ele>348</ele>
        <time>2021-02-28T09:35:10.788Z</time>
      </trkpt>
      <trkpt lat="45.67996" lon="5.25711">
        <ele>348</ele>
        <time>2021-02-28T09:35:11.788Z</time>
      </trkpt>
      <trkpt lat="45.68001" lon="5.25704">
        <ele>349</ele>
        <time>2021-02-28T09:35:12.788Z</time>
      </trkpt>
      <trkpt lat="45.68007" lon="5.25698">
        <ele>349</ele>
        <time>2021-02-28T09:35:13.787Z</time>
      </trkpt>
      <trkpt lat="45.68012" lon="5.25694">
        <ele>350</ele>
        <time>2021-02-28T09:35:14.787Z</time>
      </trkpt>
      <trkpt lat="45.68018" lon="5.2569">
        <ele>351</ele>
        <time>2021-02-28T09:35:15.788Z</time>
      </trkpt>
      <trkpt lat="45.68024" lon="5.25686">
        <ele>351</ele>
        <time>2021-02-28T09:35:16.788Z</time>
      </trkpt>
      <trkpt lat="45.6803" lon="5.25683">
        <ele>351</ele>
        <time>2021-02-28T09:35:17.787Z</time>
      </trkpt>
      <trkpt lat="45.68037" lon="5.25679">
        <ele>351</ele>
        <time>2021-02-28T09:35:18.788Z</time>
      </trkpt>
      <trkpt lat="45.68043" lon="5.25675">
        <ele>351</ele>
        <time>2021-02-28T09:35:19.788Z</time>
      </trkpt>
      <trkpt lat="45.6805" lon="5.25671">
        <ele>351</ele>
        <time>2021-02-28T09:35:20.788Z</time>
      </trkpt>
      <trkpt lat="45.68056" lon="5.25667">
        <ele>351</ele>
        <time>2021-02-28T09:35:21.788Z</time>
      </trkpt>
      <trkpt lat="45.68063" lon="5.25663">
        <ele>351</ele>
        <time>2021-02-28T09:35:22.788Z</time>
      </trkpt>
      <trkpt lat="45.6807" lon="5.25659">
        <ele>351</ele>
        <time>2021-02-28T09:35:23.788Z</time>
      </trkpt>
      <trkpt lat="45.68076" lon="5.25654">
        <ele>352</ele>
        <time>2021-02-28T09:35:24.788Z</time>
      </trkpt>
      <trkpt lat="45.68083" lon="5.2565">
        <ele>352</ele>
        <time>2021-02-28T09:35:25.788Z</time>
      </trkpt>
      <trkpt lat="45.6809" lon="5.25645">
        <ele>352</ele>
        <time>2021-02-28T09:35:26.788Z</time>
      </trkpt>
      <trkpt lat="45.68096" lon="5.25641">
        <ele>352</ele>
        <time>2021-02-28T09:35:27.788Z</time>
      </trkpt>
      <trkpt lat="45.68103" lon="5.25636">
        <ele>352</ele>
        <time>2021-02-28T09:35:28.788Z</time>
      </trkpt>
      <trkpt lat="45.6811" lon="5.25632">
        <ele>352</ele>
        <time>2021-02-28T09:35:29.788Z</time>
      </trkpt>
      <trkpt lat="45.68117" lon="5.25627">
        <ele>351</ele>
        <time>2021-02-28T09:35:30.788Z</time>
      </trkpt>
      <trkpt lat="45.68126" lon="5.25622">
        <ele>351</ele>
        <time>2021-02-28T09:35:31.788Z</time>
      </trkpt>
      <trkpt lat="45.68134" lon="5.25617">
        <ele>351</ele>
        <time>2021-02-28T09:35:32.788Z</time>
      </trkpt>
      <trkpt lat="45.6814" lon="5.25613">
        <ele>350</ele>
        <time>2021-02-28T09:35:33.788Z</time>
      </trkpt>
      <trkpt lat="45.68148" lon="5.25608">
        <ele>350</ele>
        <time>2021-02-28T09:35:34.788Z</time>
      </trkpt>
      <trkpt lat="45.68158" lon="5.25602">
        <ele>350</ele>
        <time>2021-02-28T09:35:35.788Z</time>
      </trkpt>
      <trkpt lat="45.68166" lon="5.25597">
        <ele>350</ele>
        <time>2021-02-28T09:35:36.788Z</time>
      </trkpt>
      <trkpt lat="45.68174" lon="5.25591">
        <ele>350</ele>
        <time>2021-02-28T09:35:37.788Z</time>
      </trkpt>
      <trkpt lat="45.68181" lon="5.25587">
        <ele>350</ele>
        <time>2021-02-28T09:35:38.788Z</time>
      </trkpt>
      <trkpt lat="45.6819" lon="5.25581">
        <ele>350</ele>
        <time>2021-02-28T09:35:39.788Z</time>
      </trkpt>
      <trkpt lat="45.68201" lon="5.25574">
        <ele>349</ele>
        <time>2021-02-28T09:35:40.788Z</time>
      </trkpt>
      <trkpt lat="45.68209" lon="5.25568">
        <ele>349</ele>
        <time>2021-02-28T09:35:41.788Z</time>
      </trkpt>
      <trkpt lat="45.68218" lon="5.25562">
        <ele>348</ele>
        <time>2021-02-28T09:35:42.788Z</time>
      </trkpt>
      <trkpt lat="45.68225" lon="5.25558">
        <ele>348</ele>
        <time>2021-02-28T09:35:43.788Z</time>
      </trkpt>
      <trkpt lat="45.68234" lon="5.25552">
        <ele>347</ele>
        <time>2021-02-28T09:35:44.788Z</time>
      </trkpt>
      <trkpt lat="45.68243" lon="5.25546">
        <ele>347</ele>
        <time>2021-02-28T09:35:45.788Z</time>
      </trkpt>
      <trkpt lat="45.68252" lon="5.2554">
        <ele>346</ele>
        <time>2021-02-28T09:35:46.787Z</time>
      </trkpt>
      <trkpt lat="45.6826" lon="5.25534">
        <ele>346</ele>
        <time>2021-02-28T09:35:47.788Z</time>
      </trkpt>
      <trkpt lat="45.68269" lon="5.25528">
        <ele>346</ele>
        <time>2021-02-28T09:35:48.788Z</time>
      </trkpt>
      <trkpt lat="45.68278" lon="5.25523">
        <ele>345</ele>
        <time>2021-02-28T09:35:49.788Z</time>
      </trkpt>
      <trkpt lat="45.68288" lon="5.25516">
        <ele>345</ele>
        <time>2021-02-28T09:35:50.788Z</time>
      </trkpt>
      <trkpt lat="45.68297" lon="5.2551">
        <ele>345</ele>
        <time>2021-02-28T09:35:51.788Z</time>
      </trkpt>
      <trkpt lat="45.68306" lon="5.25504">
        <ele>344</ele>
        <time>2021-02-28T09:35:52.788Z</time>
      </trkpt>
      <trkpt lat="45.68313" lon="5.255">
        <ele>344</ele>
        <time>2021-02-28T09:35:53.787Z</time>
      </trkpt>
      <trkpt lat="45.68321" lon="5.25494">
        <ele>344</ele>
        <time>2021-02-28T09:35:54.787Z</time>
      </trkpt>
      <trkpt lat="45.6833" lon="5.25489">
        <ele>343</ele>
        <time>2021-02-28T09:35:55.787Z</time>
      </trkpt>
      <trkpt lat="45.6834" lon="5.25482">
        <ele>343</ele>
        <time>2021-02-28T09:35:56.788Z</time>
      </trkpt>
      <trkpt lat="45.68347" lon="5.25477">
        <ele>342</ele>
        <time>2021-02-28T09:35:57.787Z</time>
      </trkpt>
      <trkpt lat="45.68355" lon="5.25472">
        <ele>342</ele>
        <time>2021-02-28T09:35:58.787Z</time>
      </trkpt>
      <trkpt lat="45.68365" lon="5.25465">
        <ele>342</ele>
        <time>2021-02-28T09:35:59.788Z</time>
      </trkpt>
      <trkpt lat="45.68373" lon="5.2546">
        <ele>341</ele>
        <time>2021-02-28T09:36:00.787Z</time>
      </trkpt>
      <trkpt lat="45.68381" lon="5.25455">
        <ele>341</ele>
        <time>2021-02-28T09:36:01.787Z</time>
      </trkpt>
      <trkpt lat="45.68387" lon="5.2545">
        <ele>341</ele>
        <time>2021-02-28T09:36:02.788Z</time>
      </trkpt>
      <trkpt lat="45.68395" lon="5.25445">
        <ele>340</ele>
        <time>2021-02-28T09:36:03.788Z</time>
      </trkpt>
      <trkpt lat="45.68405" lon="5.25439">
        <ele>340</ele>
        <time>2021-02-28T09:36:04.788Z</time>
      </trkpt>
      <trkpt lat="45.68413" lon="5.25433">
        <ele>340</ele>
        <time>2021-02-28T09:36:05.788Z</time>
      </trkpt>
      <trkpt lat="45.68421" lon="5.25428">
        <ele>340</ele>
        <time>2021-02-28T09:36:06.788Z</time>
      </trkpt>
      <trkpt lat="45.68428" lon="5.25423">
        <ele>340</ele>
        <time>2021-02-28T09:36:07.788Z</time>
      </trkpt>
      <trkpt lat="45.68436" lon="5.25418">
        <ele>340</ele>
        <time>2021-02-28T09:36:08.787Z</time>
      </trkpt>
      <trkpt lat="45.68446" lon="5.25411">
        <ele>340</ele>
        <time>2021-02-28T09:36:09.788Z</time>
      </trkpt>
      <trkpt lat="45.68455" lon="5.25405">
        <ele>340</ele>
        <time>2021-02-28T09:36:10.788Z</time>
      </trkpt>
      <trkpt lat="45.68463" lon="5.254">
        <ele>340</ele>
        <time>2021-02-28T09:36:11.787Z</time>
      </trkpt>
      <trkpt lat="45.6847" lon="5.25395">
        <ele>340</ele>
        <time>2021-02-28T09:36:12.788Z</time>
      </trkpt>
      <trkpt lat="45.68478" lon="5.2539">
        <ele>340</ele>
        <time>2021-02-28T09:36:13.788Z</time>
      </trkpt>
      <trkpt lat="45.68488" lon="5.25383">
        <ele>340</ele>
        <time>2021-02-28T09:36:14.788Z</time>
      </trkpt>
      <trkpt lat="45.68496" lon="5.25378">
        <ele>340</ele>
        <time>2021-02-28T09:36:15.787Z</time>
      </trkpt>
      <trkpt lat="45.68504" lon="5.25372">
        <ele>340</ele>
        <time>2021-02-28T09:36:16.788Z</time>
      </trkpt>
      <trkpt lat="45.68511" lon="5.25368">
        <ele>340</ele>
        <time>2021-02-28T09:36:17.788Z</time>
      </trkpt>
      <trkpt lat="45.68519" lon="5.25363">
        <ele>341</ele>
        <time>2021-02-28T09:36:18.788Z</time>
      </trkpt>
      <trkpt lat="45.68527" lon="5.25357">
        <ele>341</ele>
        <time>2021-02-28T09:36:19.787Z</time>
      </trkpt>
      <trkpt lat="45.68534" lon="5.25352">
        <ele>341</ele>
        <time>2021-02-28T09:36:20.788Z</time>
      </trkpt>
      <trkpt lat="45.68542" lon="5.25347">
        <ele>342</ele>
        <time>2021-02-28T09:36:21.788Z</time>
      </trkpt>
      <trkpt lat="45.68549" lon="5.25342">
        <ele>342</ele>
        <time>2021-02-28T09:36:22.787Z</time>
      </trkpt>
      <trkpt lat="45.68556" lon="5.25337">
        <ele>342</ele>
        <time>2021-02-28T09:36:23.787Z</time>
      </trkpt>
      <trkpt lat="45.68562" lon="5.25333">
        <ele>342</ele>
        <time>2021-02-28T09:36:24.788Z</time>
      </trkpt>
      <trkpt lat="45.68568" lon="5.25328">
        <ele>343</ele>
        <time>2021-02-28T09:36:25.788Z</time>
      </trkpt>
      <trkpt lat="45.68574" lon="5.25324">
        <ele>343</ele>
        <time>2021-02-28T09:36:26.788Z</time>
      </trkpt>
      <trkpt lat="45.68578" lon="5.25321">
        <ele>343</ele>
        <time>2021-02-28T09:36:27.788Z</time>
      </trkpt>
      <trkpt lat="45.68583" lon="5.25317">
        <ele>343</ele>
        <time>2021-02-28T09:36:28.787Z</time>
      </trkpt>
      <trkpt lat="45.68588" lon="5.25313">
        <ele>343</ele>
        <time>2021-02-28T09:36:29.788Z</time>
      </trkpt>
      <trkpt lat="45.68592" lon="5.2531">
        <ele>344</ele>
        <time>2021-02-28T09:36:30.787Z</time>
      </trkpt>
      <trkpt lat="45.68597" lon="5.25307">
        <ele>344</ele>
        <time>2021-02-28T09:36:31.788Z</time>
      </trkpt>
      <trkpt lat="45.68602" lon="5.25304">
        <ele>345</ele>
        <time>2021-02-28T09:36:32.787Z</time>
      </trkpt>
      <trkpt lat="45.68607" lon="5.25303">
        <ele>345</ele>
        <time>2021-02-28T09:36:33.787Z</time>
      </trkpt>
      <trkpt lat="45.68612" lon="5.25302">
        <ele>345</ele>
        <time>2021-02-28T09:36:34.788Z</time>
      </trkpt>
      <trkpt lat="45.68617" lon="5.25301">
        <ele>345</ele>
        <time>2021-02-28T09:36:35.788Z</time>
      </trkpt>
      <trkpt lat="45.68622" lon="5.25301">
        <ele>345</ele>
        <time>2021-02-28T09:36:36.788Z</time>
      </trkpt>
      <trkpt lat="45.68627" lon="5.25302">
        <ele>345</ele>
        <time>2021-02-28T09:36:37.788Z</time>
      </trkpt>
      <trkpt lat="45.68633" lon="5.25304">
        <ele>345</ele>
        <time>2021-02-28T09:36:38.788Z</time>
      </trkpt>
      <trkpt lat="45.68638" lon="5.25305">
        <ele>346</ele>
        <time>2021-02-28T09:36:39.787Z</time>
      </trkpt>
      <trkpt lat="45.68643" lon="5.25307">
        <ele>346</ele>
        <time>2021-02-28T09:36:40.788Z</time>
      </trkpt>
      <trkpt lat="45.68648" lon="5.25309">
        <ele>346</ele>
        <time>2021-02-28T09:36:41.787Z</time>
      </trkpt>
      <trkpt lat="45.68653" lon="5.2531">
        <ele>346</ele>
        <time>2021-02-28T09:36:42.788Z</time>
      </trkpt>
      <trkpt lat="45.68659" lon="5.25312">
        <ele>346</ele>
        <time>2021-02-28T09:36:43.788Z</time>
      </trkpt>
      <trkpt lat="45.68664" lon="5.25313">
        <ele>346</ele>
        <time>2021-02-28T09:36:44.788Z</time>
      </trkpt>
      <trkpt lat="45.68669" lon="5.25314">
        <ele>346</ele>
        <time>2021-02-28T09:36:45.788Z</time>
      </trkpt>
      <trkpt lat="45.68674" lon="5.25315">
        <ele>346</ele>
        <time>2021-02-28T09:36:46.787Z</time>
      </trkpt>
      <trkpt lat="45.68679" lon="5.25316">
        <ele>346</ele>
        <time>2021-02-28T09:36:47.788Z</time>
      </trkpt>
      <trkpt lat="45.68684" lon="5.25317">
        <ele>346</ele>
        <time>2021-02-28T09:36:48.787Z</time>
      </trkpt>
      <trkpt lat="45.68689" lon="5.25318">
        <ele>347</ele>
        <time>2021-02-28T09:36:49.788Z</time>
      </trkpt>
      <trkpt lat="45.68694" lon="5.25318">
        <ele>347</ele>
        <time>2021-02-28T09:36:50.788Z</time>
      </trkpt>
      <trkpt lat="45.68699" lon="5.25319">
        <ele>347</ele>
        <time>2021-02-28T09:36:51.788Z</time>
      </trkpt>
      <trkpt lat="45.68704" lon="5.2532">
        <ele>347</ele>
        <time>2021-02-28T09:36:52.788Z</time>
      </trkpt>
      <trkpt lat="45.68709" lon="5.25321">
        <ele>348</ele>
        <time>2021-02-28T09:36:53.787Z</time>
      </trkpt>
      <trkpt lat="45.68714" lon="5.25322">
        <ele>348</ele>
        <time>2021-02-28T09:36:54.788Z</time>
      </trkpt>
      <trkpt lat="45.68719" lon="5.25323">
        <ele>348</ele>
        <time>2021-02-28T09:36:55.787Z</time>
      </trkpt>
      <trkpt lat="45.68724" lon="5.25324">
        <ele>349</ele>
        <time>2021-02-28T09:36:56.788Z</time>
      </trkpt>
      <trkpt lat="45.68728" lon="5.25326">
        <ele>349</ele>
        <time>2021-02-28T09:36:57.788Z</time>
      </trkpt>
      <trkpt lat="45.68733" lon="5.25328">
        <ele>350</ele>
        <time>2021-02-28T09:36:58.788Z</time>
      </trkpt>
      <trkpt lat="45.68737" lon="5.2533">
        <ele>350</ele>
        <time>2021-02-28T09:36:59.787Z</time>
      </trkpt>
      <trkpt lat="45.68742" lon="5.25333">
        <ele>351</ele>
        <time>2021-02-28T09:37:00.788Z</time>
      </trkpt>
      <trkpt lat="45.68746" lon="5.25336">
        <ele>351</ele>
        <time>2021-02-28T09:37:01.787Z</time>
      </trkpt>
      <trkpt lat="45.6875" lon="5.25339">
        <ele>352</ele>
        <time>2021-02-28T09:37:02.788Z</time>
      </trkpt>
      <trkpt lat="45.68754" lon="5.25342">
        <ele>352</ele>
        <time>2021-02-28T09:37:03.788Z</time>
      </trkpt>
      <trkpt lat="45.68757" lon="5.25345">
        <ele>353</ele>
        <time>2021-02-28T09:37:04.787Z</time>
      </trkpt>
      <trkpt lat="45.68761" lon="5.25348">
        <ele>353</ele>
        <time>2021-02-28T09:37:05.787Z</time>
      </trkpt>
      <trkpt lat="45.68765" lon="5.25351">
        <ele>353</ele>
        <time>2021-02-28T09:37:06.788Z</time>
      </trkpt>
      <trkpt lat="45.68769" lon="5.25355">
        <ele>353</ele>
        <time>2021-02-28T09:37:07.787Z</time>
      </trkpt>
      <trkpt lat="45.68773" lon="5.25358">
        <ele>354</ele>
        <time>2021-02-28T09:37:08.788Z</time>
      </trkpt>
      <trkpt lat="45.68777" lon="5.25361">
        <ele>354</ele>
        <time>2021-02-28T09:37:09.787Z</time>
      </trkpt>
      <trkpt lat="45.6878" lon="5.25364">
        <ele>354</ele>
        <time>2021-02-28T09:37:10.788Z</time>
      </trkpt>
      <trkpt lat="45.68784" lon="5.25368">
        <ele>355</ele>
        <time>2021-02-28T09:37:11.788Z</time>
      </trkpt>
      <trkpt lat="45.68788" lon="5.25371">
        <ele>355</ele>
        <time>2021-02-28T09:37:12.788Z</time>
      </trkpt>
      <trkpt lat="45.68792" lon="5.25376">
        <ele>356</ele>
        <time>2021-02-28T09:37:13.788Z</time>
      </trkpt>
      <trkpt lat="45.68796" lon="5.25379">
        <ele>357</ele>
        <time>2021-02-28T09:37:14.788Z</time>
      </trkpt>
      <trkpt lat="45.688" lon="5.25383">
        <ele>357</ele>
        <time>2021-02-28T09:37:15.788Z</time>
      </trkpt>
      <trkpt lat="45.68803" lon="5.25386">
        <ele>358</ele>
        <time>2021-02-28T09:37:16.788Z</time>
      </trkpt>
      <trkpt lat="45.68807" lon="5.25389">
        <ele>358</ele>
        <time>2021-02-28T09:37:17.788Z</time>
      </trkpt>
      <trkpt lat="45.68812" lon="5.25394">
        <ele>359</ele>
        <time>2021-02-28T09:37:18.788Z</time>
      </trkpt>
      <trkpt lat="45.68815" lon="5.25398">
        <ele>359</ele>
        <time>2021-02-28T09:37:19.788Z</time>
      </trkpt>
      <trkpt lat="45.68819" lon="5.25402">
        <ele>359</ele>
        <time>2021-02-28T09:37:20.787Z</time>
      </trkpt>
      <trkpt lat="45.68821" lon="5.25406">
        <ele>360</ele>
        <time>2021-02-28T09:37:21.788Z</time>
      </trkpt>
      <trkpt lat="45.68825" lon="5.25411">
        <ele>360</ele>
        <time>2021-02-28T09:37:22.788Z</time>
      </trkpt>
      <trkpt lat="45.68828" lon="5.25416">
        <ele>360</ele>
        <time>2021-02-28T09:37:23.788Z</time>
      </trkpt>
      <trkpt lat="45.68831" lon="5.25421">
        <ele>360</ele>
        <time>2021-02-28T09:37:24.788Z</time>
      </trkpt>
      <trkpt lat="45.68834" lon="5.25425">
        <ele>361</ele>
        <time>2021-02-28T09:37:25.787Z</time>
      </trkpt>
      <trkpt lat="45.68836" lon="5.25429">
        <ele>361</ele>
        <time>2021-02-28T09:37:26.788Z</time>
      </trkpt>
      <trkpt lat="45.68839" lon="5.25434">
        <ele>361</ele>
        <time>2021-02-28T09:37:27.787Z</time>
      </trkpt>
      <trkpt lat="45.68841" lon="5.25438">
        <ele>361</ele>
        <time>2021-02-28T09:37:28.788Z</time>
      </trkpt>
      <trkpt lat="45.68843" lon="5.25441">
        <ele>361</ele>
        <time>2021-02-28T09:37:29.788Z</time>
      </trkpt>
      <trkpt lat="45.68845" lon="5.25444">
        <ele>362</ele>
        <time>2021-02-28T09:37:30.788Z</time>
      </trkpt>
      <trkpt lat="45.68846" lon="5.25447">
        <ele>362</ele>
        <time>2021-02-28T09:37:31.788Z</time>
      </trkpt>
      <trkpt lat="45.68847" lon="5.2545">
        <ele>363</ele>
        <time>2021-02-28T09:37:32.787Z</time>
      </trkpt>
      <trkpt lat="45.68848" lon="5.25451">
        <ele>363</ele>
        <time>2021-02-28T09:37:33.788Z</time>
      </trkpt>
      <trkpt lat="45.68849" lon="5.25453">
        <ele>364</ele>
        <time>2021-02-28T09:37:34.788Z</time>
      </trkpt>
      <trkpt lat="45.68849" lon="5.25453">
        <ele>365</ele>
        <time>2021-02-28T09:37:35.788Z</time>
      </trkpt>
      <trkpt lat="45.68849" lon="5.25454">
        <ele>365</ele>
        <time>2021-02-28T09:37:36.787Z</time>
      </trkpt>
      <trkpt lat="45.68848" lon="5.25454">
        <ele>364</ele>
        <time>2021-02-28T09:37:37.787Z</time>
      </trkpt>
      <trkpt lat="45.68846" lon="5.25455">
        <ele>361</ele>
        <time>2021-02-28T09:37:38.787Z</time>
      </trkpt>
      <trkpt lat="45.68847" lon="5.25457">
        <ele>361</ele>
        <time>2021-02-28T09:37:39.788Z</time>
      </trkpt>
      <trkpt lat="45.68849" lon="5.25459">
        <ele>361</ele>
        <time>2021-02-28T09:37:40.787Z</time>
      </trkpt>
      <trkpt lat="45.68851" lon="5.25461">
        <ele>361</ele>
        <time>2021-02-28T09:37:41.787Z</time>
      </trkpt>
      <trkpt lat="45.68853" lon="5.25464">
        <ele>362</ele>
        <time>2021-02-28T09:37:42.787Z</time>
      </trkpt>
      <trkpt lat="45.68854" lon="5.25466">
        <ele>362</ele>
        <time>2021-02-28T09:37:43.788Z</time>
      </trkpt>
      <trkpt lat="45.68855" lon="5.25469">
        <ele>362</ele>
        <time>2021-02-28T09:37:44.788Z</time>
      </trkpt>
      <trkpt lat="45.68856" lon="5.25472">
        <ele>362</ele>
        <time>2021-02-28T09:37:45.788Z</time>
      </trkpt>
      <trkpt lat="45.68857" lon="5.25476">
        <ele>362</ele>
        <time>2021-02-28T09:37:46.788Z</time>
      </trkpt>
      <trkpt lat="45.68858" lon="5.25479">
        <ele>363</ele>
        <time>2021-02-28T09:37:47.788Z</time>
      </trkpt>
      <trkpt lat="45.68859" lon="5.25484">
        <ele>363</ele>
        <time>2021-02-28T09:37:48.788Z</time>
      </trkpt>
      <trkpt lat="45.6886" lon="5.25489">
        <ele>363</ele>
        <time>2021-02-28T09:37:49.788Z</time>
      </trkpt>
      <trkpt lat="45.68861" lon="5.25494">
        <ele>363</ele>
        <time>2021-02-28T09:37:50.787Z</time>
      </trkpt>
      <trkpt lat="45.68862" lon="5.255">
        <ele>363</ele>
        <time>2021-02-28T09:37:51.788Z</time>
      </trkpt>
      <trkpt lat="45.68862" lon="5.25507">
        <ele>362</ele>
        <time>2021-02-28T09:37:52.788Z</time>
      </trkpt>
      <trkpt lat="45.68863" lon="5.25514">
        <ele>362</ele>
        <time>2021-02-28T09:37:53.788Z</time>
      </trkpt>
      <trkpt lat="45.68863" lon="5.25521">
        <ele>362</ele>
        <time>2021-02-28T09:37:54.788Z</time>
      </trkpt>
      <trkpt lat="45.68863" lon="5.25528">
        <ele>362</ele>
        <time>2021-02-28T09:37:55.788Z</time>
      </trkpt>
      <trkpt lat="45.68862" lon="5.25536">
        <ele>361</ele>
        <time>2021-02-28T09:37:56.788Z</time>
      </trkpt>
      <trkpt lat="45.68862" lon="5.25545">
        <ele>360</ele>
        <time>2021-02-28T09:37:57.788Z</time>
      </trkpt>
      <trkpt lat="45.68862" lon="5.25554">
        <ele>360</ele>
        <time>2021-02-28T09:37:58.788Z</time>
      </trkpt>
      <trkpt lat="45.68861" lon="5.25564">
        <ele>360</ele>
        <time>2021-02-28T09:37:59.787Z</time>
      </trkpt>
      <trkpt lat="45.6886" lon="5.25574">
        <ele>359</ele>
        <time>2021-02-28T09:38:00.788Z</time>
      </trkpt>
      <trkpt lat="45.68859" lon="5.25585">
        <ele>359</ele>
        <time>2021-02-28T09:38:01.788Z</time>
      </trkpt>
      <trkpt lat="45.68856" lon="5.25596">
        <ele>359</ele>
        <time>2021-02-28T09:38:02.787Z</time>
      </trkpt>
      <trkpt lat="45.68853" lon="5.25607">
        <ele>359</ele>
        <time>2021-02-28T09:38:03.788Z</time>
      </trkpt>
      <trkpt lat="45.68849" lon="5.25618">
        <ele>359</ele>
        <time>2021-02-28T09:38:04.788Z</time>
      </trkpt>
      <trkpt lat="45.68844" lon="5.2563">
        <ele>359</ele>
        <time>2021-02-28T09:38:05.788Z</time>
      </trkpt>
      <trkpt lat="45.68839" lon="5.25641">
        <ele>358</ele>
        <time>2021-02-28T09:38:06.788Z</time>
      </trkpt>
      <trkpt lat="45.68834" lon="5.25652">
        <ele>358</ele>
        <time>2021-02-28T09:38:07.787Z</time>
      </trkpt>
      <trkpt lat="45.68828" lon="5.25663">
        <ele>357</ele>
        <time>2021-02-28T09:38:08.788Z</time>
      </trkpt>
      <trkpt lat="45.68822" lon="5.25673">
        <ele>357</ele>
        <time>2021-02-28T09:38:09.787Z</time>
      </trkpt>
      <trkpt lat="45.68817" lon="5.25685">
        <ele>356</ele>
        <time>2021-02-28T09:38:10.788Z</time>
      </trkpt>
      <trkpt lat="45.68811" lon="5.25696">
        <ele>356</ele>
        <time>2021-02-28T09:38:11.788Z</time>
      </trkpt>
      <trkpt lat="45.68806" lon="5.25708">
        <ele>355</ele>
        <time>2021-02-28T09:38:12.787Z</time>
      </trkpt>
      <trkpt lat="45.68801" lon="5.25721">
        <ele>355</ele>
        <time>2021-02-28T09:38:13.788Z</time>
      </trkpt>
      <trkpt lat="45.68796" lon="5.25733">
        <ele>354</ele>
        <time>2021-02-28T09:38:14.788Z</time>
      </trkpt>
      <trkpt lat="45.6879" lon="5.25745">
        <ele>353</ele>
        <time>2021-02-28T09:38:15.788Z</time>
      </trkpt>
      <trkpt lat="45.68785" lon="5.25758">
        <ele>353</ele>
        <time>2021-02-28T09:38:16.787Z</time>
      </trkpt>
      <trkpt lat="45.68779" lon="5.25771">
        <ele>352</ele>
        <time>2021-02-28T09:38:17.788Z</time>
      </trkpt>
      <trkpt lat="45.68774" lon="5.25781">
        <ele>352</ele>
        <time>2021-02-28T09:38:18.788Z</time>
      </trkpt>
      <trkpt lat="45.68768" lon="5.25797">
        <ele>351</ele>
        <time>2021-02-28T09:38:19.788Z</time>
      </trkpt>
      <trkpt lat="45.68762" lon="5.2581">
        <ele>350</ele>
        <time>2021-02-28T09:38:20.788Z</time>
      </trkpt>
      <trkpt lat="45.68758" lon="5.25823">
        <ele>350</ele>
        <time>2021-02-28T09:38:21.788Z</time>
      </trkpt>
      <trkpt lat="45.68754" lon="5.25836">
        <ele>350</ele>
        <time>2021-02-28T09:38:22.787Z</time>
      </trkpt>
      <trkpt lat="45.68751" lon="5.25849">
        <ele>349</ele>
        <time>2021-02-28T09:38:23.788Z</time>
      </trkpt>
      <trkpt lat="45.68748" lon="5.25862">
        <ele>348</ele>
        <time>2021-02-28T09:38:24.788Z</time>
      </trkpt>
      <trkpt lat="45.68747" lon="5.25875">
        <ele>348</ele>
        <time>2021-02-28T09:38:25.788Z</time>
      </trkpt>
      <trkpt lat="45.68747" lon="5.2589">
        <ele>347</ele>
        <time>2021-02-28T09:38:26.787Z</time>
      </trkpt>
      <trkpt lat="45.68749" lon="5.25903">
        <ele>346</ele>
        <time>2021-02-28T09:38:27.788Z</time>
      </trkpt>
      <trkpt lat="45.6875" lon="5.25917">
        <ele>346</ele>
        <time>2021-02-28T09:38:28.788Z</time>
      </trkpt>
      <trkpt lat="45.6875" lon="5.2593">
        <ele>346</ele>
        <time>2021-02-28T09:38:29.787Z</time>
      </trkpt>
      <trkpt lat="45.6875" lon="5.25942">
        <ele>345</ele>
        <time>2021-02-28T09:38:30.787Z</time>
      </trkpt>
      <trkpt lat="45.6875" lon="5.25954">
        <ele>345</ele>
        <time>2021-02-28T09:38:31.788Z</time>
      </trkpt>
      <trkpt lat="45.68749" lon="5.25965">
        <ele>345</ele>
        <time>2021-02-28T09:38:32.788Z</time>
      </trkpt>
      <trkpt lat="45.68748" lon="5.25977">
        <ele>346</ele>
        <time>2021-02-28T09:38:33.788Z</time>
      </trkpt>
      <trkpt lat="45.68746" lon="5.25988">
        <ele>345</ele>
        <time>2021-02-28T09:38:34.788Z</time>
      </trkpt>
      <trkpt lat="45.68744" lon="5.25999">
        <ele>345</ele>
        <time>2021-02-28T09:38:35.788Z</time>
      </trkpt>
      <trkpt lat="45.68742" lon="5.26009">
        <ele>345</ele>
        <time>2021-02-28T09:38:36.788Z</time>
      </trkpt>
      <trkpt lat="45.68741" lon="5.26019">
        <ele>345</ele>
        <time>2021-02-28T09:38:37.788Z</time>
      </trkpt>
      <trkpt lat="45.68739" lon="5.26028">
        <ele>345</ele>
        <time>2021-02-28T09:38:38.788Z</time>
      </trkpt>
      <trkpt lat="45.68736" lon="5.26037">
        <ele>345</ele>
        <time>2021-02-28T09:38:39.788Z</time>
      </trkpt>
      <trkpt lat="45.68734" lon="5.26045">
        <ele>344</ele>
        <time>2021-02-28T09:38:40.788Z</time>
      </trkpt>
      <trkpt lat="45.68732" lon="5.26053">
        <ele>344</ele>
        <time>2021-02-28T09:38:41.788Z</time>
      </trkpt>
      <trkpt lat="45.68729" lon="5.26061">
        <ele>344</ele>
        <time>2021-02-28T09:38:42.788Z</time>
      </trkpt>
      <trkpt lat="45.68726" lon="5.26068">
        <ele>344</ele>
        <time>2021-02-28T09:38:43.788Z</time>
      </trkpt>
      <trkpt lat="45.68724" lon="5.26076">
        <ele>344</ele>
        <time>2021-02-28T09:38:44.787Z</time>
      </trkpt>
      <trkpt lat="45.68721" lon="5.26083">
        <ele>344</ele>
        <time>2021-02-28T09:38:45.788Z</time>
      </trkpt>
      <trkpt lat="45.68719" lon="5.2609">
        <ele>344</ele>
        <time>2021-02-28T09:38:46.788Z</time>
      </trkpt>
      <trkpt lat="45.68717" lon="5.26097">
        <ele>344</ele>
        <time>2021-02-28T09:38:47.788Z</time>
      </trkpt>
      <trkpt lat="45.68715" lon="5.26105">
        <ele>344</ele>
        <time>2021-02-28T09:38:48.788Z</time>
      </trkpt>
      <trkpt lat="45.68713" lon="5.26112">
        <ele>344</ele>
        <time>2021-02-28T09:38:49.788Z</time>
      </trkpt>
      <trkpt lat="45.68712" lon="5.2612">
        <ele>345</ele>
        <time>2021-02-28T09:38:50.788Z</time>
      </trkpt>
      <trkpt lat="45.68711" lon="5.26127">
        <ele>345</ele>
        <time>2021-02-28T09:38:51.788Z</time>
      </trkpt>
      <trkpt lat="45.6871" lon="5.26135">
        <ele>346</ele>
        <time>2021-02-28T09:38:52.787Z</time>
      </trkpt>
      <trkpt lat="45.68709" lon="5.26142">
        <ele>346</ele>
        <time>2021-02-28T09:38:53.788Z</time>
      </trkpt>
      <trkpt lat="45.68709" lon="5.26149">
        <ele>345</ele>
        <time>2021-02-28T09:38:54.788Z</time>
      </trkpt>
      <trkpt lat="45.6871" lon="5.26156">
        <ele>345</ele>
        <time>2021-02-28T09:38:55.788Z</time>
      </trkpt>
      <trkpt lat="45.68711" lon="5.26163">
        <ele>345</ele>
        <time>2021-02-28T09:38:56.788Z</time>
      </trkpt>
      <trkpt lat="45.68713" lon="5.26169">
        <ele>345</ele>
        <time>2021-02-28T09:38:57.788Z</time>
      </trkpt>
      <trkpt lat="45.68715" lon="5.26175">
        <ele>345</ele>
        <time>2021-02-28T09:38:58.788Z</time>
      </trkpt>
      <trkpt lat="45.68717" lon="5.2618">
        <ele>346</ele>
        <time>2021-02-28T09:38:59.787Z</time>
      </trkpt>
      <trkpt lat="45.68719" lon="5.26184">
        <ele>346</ele>
        <time>2021-02-28T09:39:00.788Z</time>
      </trkpt>
      <trkpt lat="45.68721" lon="5.26189">
        <ele>346</ele>
        <time>2021-02-28T09:39:01.787Z</time>
      </trkpt>
      <trkpt lat="45.68724" lon="5.26193">
        <ele>346</ele>
        <time>2021-02-28T09:39:02.788Z</time>
      </trkpt>
      <trkpt lat="45.68726" lon="5.26197">
        <ele>346</ele>
        <time>2021-02-28T09:39:03.787Z</time>
      </trkpt>
      <trkpt lat="45.68729" lon="5.26202">
        <ele>347</ele>
        <time>2021-02-28T09:39:04.788Z</time>
      </trkpt>
      <trkpt lat="45.68731" lon="5.26205">
        <ele>346</ele>
        <time>2021-02-28T09:39:05.787Z</time>
      </trkpt>
      <trkpt lat="45.68734" lon="5.26209">
        <ele>346</ele>
        <time>2021-02-28T09:39:06.788Z</time>
      </trkpt>
      <trkpt lat="45.68736" lon="5.26213">
        <ele>346</ele>
        <time>2021-02-28T09:39:07.788Z</time>
      </trkpt>
      <trkpt lat="45.68738" lon="5.26218">
        <ele>347</ele>
        <time>2021-02-28T09:39:08.787Z</time>
      </trkpt>
      <trkpt lat="45.6874" lon="5.26223">
        <ele>347</ele>
        <time>2021-02-28T09:39:09.788Z</time>
      </trkpt>
      <trkpt lat="45.68743" lon="5.26227">
        <ele>347</ele>
        <time>2021-02-28T09:39:10.788Z</time>
      </trkpt>
      <trkpt lat="45.68746" lon="5.26231">
        <ele>347</ele>
        <time>2021-02-28T09:39:11.788Z</time>
      </trkpt>
      <trkpt lat="45.68748" lon="5.26236">
        <ele>347</ele>
        <time>2021-02-28T09:39:12.788Z</time>
      </trkpt>
      <trkpt lat="45.68751" lon="5.26239">
        <ele>347</ele>
        <time>2021-02-28T09:39:13.788Z</time>
      </trkpt>
      <trkpt lat="45.68754" lon="5.26243">
        <ele>347</ele>
        <time>2021-02-28T09:39:14.787Z</time>
      </trkpt>
      <trkpt lat="45.68757" lon="5.26247">
        <ele>347</ele>
        <time>2021-02-28T09:39:15.787Z</time>
      </trkpt>
      <trkpt lat="45.68761" lon="5.2625">
        <ele>347</ele>
        <time>2021-02-28T09:39:16.787Z</time>
      </trkpt>
      <trkpt lat="45.68765" lon="5.26253">
        <ele>348</ele>
        <time>2021-02-28T09:39:17.788Z</time>
      </trkpt>
      <trkpt lat="45.68768" lon="5.26256">
        <ele>348</ele>
        <time>2021-02-28T09:39:18.788Z</time>
      </trkpt>
      <trkpt lat="45.68772" lon="5.26258">
        <ele>348</ele>
        <time>2021-02-28T09:39:19.788Z</time>
      </trkpt>
      <trkpt lat="45.68775" lon="5.26261">
        <ele>348</ele>
        <time>2021-02-28T09:39:20.787Z</time>
      </trkpt>
      <trkpt lat="45.68779" lon="5.26263">
        <ele>348</ele>
        <time>2021-02-28T09:39:21.788Z</time>
      </trkpt>
      <trkpt lat="45.68783" lon="5.26266">
        <ele>349</ele>
        <time>2021-02-28T09:39:22.788Z</time>
      </trkpt>
      <trkpt lat="45.68787" lon="5.26269">
        <ele>349</ele>
        <time>2021-02-28T09:39:23.788Z</time>
      </trkpt>
      <trkpt lat="45.68791" lon="5.26271">
        <ele>349</ele>
        <time>2021-02-28T09:39:24.788Z</time>
      </trkpt>
      <trkpt lat="45.68795" lon="5.26274">
        <ele>350</ele>
        <time>2021-02-28T09:39:25.788Z</time>
      </trkpt>
      <trkpt lat="45.688" lon="5.26276">
        <ele>350</ele>
        <time>2021-02-28T09:39:26.788Z</time>
      </trkpt>
      <trkpt lat="45.68805" lon="5.26279">
        <ele>350</ele>
        <time>2021-02-28T09:39:27.788Z</time>
      </trkpt>
      <trkpt lat="45.6881" lon="5.26281">
        <ele>351</ele>
        <time>2021-02-28T09:39:28.788Z</time>
      </trkpt>
      <trkpt lat="45.68816" lon="5.26283">
        <ele>351</ele>
        <time>2021-02-28T09:39:29.788Z</time>
      </trkpt>
      <trkpt lat="45.68822" lon="5.26283">
        <ele>351</ele>
        <time>2021-02-28T09:39:30.788Z</time>
      </trkpt>
      <trkpt lat="45.68829" lon="5.26283">
        <ele>351</ele>
        <time>2021-02-28T09:39:31.788Z</time>
      </trkpt>
      <trkpt lat="45.68836" lon="5.26282">
        <ele>351</ele>
        <time>2021-02-28T09:39:32.787Z</time>
      </trkpt>
      <trkpt lat="45.68843" lon="5.2628">
        <ele>351</ele>
        <time>2021-02-28T09:39:33.787Z</time>
      </trkpt>
      <trkpt lat="45.68852" lon="5.26278">
        <ele>351</ele>
        <time>2021-02-28T09:39:34.788Z</time>
      </trkpt>
      <trkpt lat="45.6886" lon="5.26276">
        <ele>350</ele>
        <time>2021-02-28T09:39:35.788Z</time>
      </trkpt>
      <trkpt lat="45.68869" lon="5.26273">
        <ele>350</ele>
        <time>2021-02-28T09:39:36.788Z</time>
      </trkpt>
      <trkpt lat="45.68879" lon="5.2627">
        <ele>350</ele>
        <time>2021-02-28T09:39:37.787Z</time>
      </trkpt>
      <trkpt lat="45.68888" lon="5.26266">
        <ele>350</ele>
        <time>2021-02-28T09:39:38.788Z</time>
      </trkpt>
      <trkpt lat="45.68897" lon="5.26263">
        <ele>349</ele>
        <time>2021-02-28T09:39:39.788Z</time>
      </trkpt>
      <trkpt lat="45.68907" lon="5.2626">
        <ele>349</ele>
        <time>2021-02-28T09:39:40.788Z</time>
      </trkpt>
      <trkpt lat="45.68917" lon="5.26257">
        <ele>348</ele>
        <time>2021-02-28T09:39:41.788Z</time>
      </trkpt>
      <trkpt lat="45.68927" lon="5.26254">
        <ele>347</ele>
        <time>2021-02-28T09:39:42.788Z</time>
      </trkpt>
      <trkpt lat="45.68937" lon="5.2625">
        <ele>347</ele>
        <time>2021-02-28T09:39:43.787Z</time>
      </trkpt>
      <trkpt lat="45.68946" lon="5.26247">
        <ele>346</ele>
        <time>2021-02-28T09:39:44.788Z</time>
      </trkpt>
      <trkpt lat="45.68956" lon="5.26244">
        <ele>345</ele>
        <time>2021-02-28T09:39:45.788Z</time>
      </trkpt>
      <trkpt lat="45.68965" lon="5.26239">
        <ele>345</ele>
        <time>2021-02-28T09:39:46.788Z</time>
      </trkpt>
      <trkpt lat="45.68973" lon="5.26236">
        <ele>344</ele>
        <time>2021-02-28T09:39:47.788Z</time>
      </trkpt>
      <trkpt lat="45.68982" lon="5.26234">
        <ele>343</ele>
        <time>2021-02-28T09:39:48.788Z</time>
      </trkpt>
      <trkpt lat="45.6899" lon="5.26232">
        <ele>343</ele>
        <time>2021-02-28T09:39:49.788Z</time>
      </trkpt>
      <trkpt lat="45.68998" lon="5.2623">
        <ele>343</ele>
        <time>2021-02-28T09:39:50.788Z</time>
      </trkpt>
      <trkpt lat="45.69005" lon="5.26229">
        <ele>343</ele>
        <time>2021-02-28T09:39:51.787Z</time>
      </trkpt>
      <trkpt lat="45.69012" lon="5.26228">
        <ele>342</ele>
        <time>2021-02-28T09:39:52.787Z</time>
      </trkpt>
      <trkpt lat="45.69018" lon="5.26228">
        <ele>342</ele>
        <time>2021-02-28T09:39:53.787Z</time>
      </trkpt>
      <trkpt lat="45.69024" lon="5.26228">
        <ele>343</ele>
        <time>2021-02-28T09:39:54.788Z</time>
      </trkpt>
      <trkpt lat="45.6903" lon="5.26228">
        <ele>343</ele>
        <time>2021-02-28T09:39:55.788Z</time>
      </trkpt>
      <trkpt lat="45.69035" lon="5.26228">
        <ele>344</ele>
        <time>2021-02-28T09:39:56.788Z</time>
      </trkpt>
      <trkpt lat="45.69039" lon="5.26227">
        <ele>344</ele>
        <time>2021-02-28T09:39:57.787Z</time>
      </trkpt>
      <trkpt lat="45.69044" lon="5.26227">
        <ele>344</ele>
        <time>2021-02-28T09:39:58.787Z</time>
      </trkpt>
      <trkpt lat="45.69048" lon="5.26226">
        <ele>344</ele>
        <time>2021-02-28T09:39:59.787Z</time>
      </trkpt>
      <trkpt lat="45.69052" lon="5.26225">
        <ele>344</ele>
        <time>2021-02-28T09:40:00.788Z</time>
      </trkpt>
      <trkpt lat="45.69057" lon="5.26224">
        <ele>344</ele>
        <time>2021-02-28T09:40:01.787Z</time>
      </trkpt>
      <trkpt lat="45.69061" lon="5.26223">
        <ele>344</ele>
        <time>2021-02-28T09:40:02.787Z</time>
      </trkpt>
      <trkpt lat="45.69066" lon="5.26222">
        <ele>344</ele>
        <time>2021-02-28T09:40:03.788Z</time>
      </trkpt>
      <trkpt lat="45.69071" lon="5.2622">
        <ele>344</ele>
        <time>2021-02-28T09:40:04.788Z</time>
      </trkpt>
      <trkpt lat="45.69075" lon="5.26218">
        <ele>344</ele>
        <time>2021-02-28T09:40:05.788Z</time>
      </trkpt>
      <trkpt lat="45.6908" lon="5.26217">
        <ele>344</ele>
        <time>2021-02-28T09:40:06.788Z</time>
      </trkpt>
      <trkpt lat="45.69085" lon="5.26215">
        <ele>344</ele>
        <time>2021-02-28T09:40:07.788Z</time>
      </trkpt>
      <trkpt lat="45.69089" lon="5.26214">
        <ele>343</ele>
        <time>2021-02-28T09:40:08.788Z</time>
      </trkpt>
      <trkpt lat="45.69094" lon="5.26212">
        <ele>343</ele>
        <time>2021-02-28T09:40:09.788Z</time>
      </trkpt>
      <trkpt lat="45.69099" lon="5.26211">
        <ele>343</ele>
        <time>2021-02-28T09:40:10.788Z</time>
      </trkpt>
      <trkpt lat="45.69104" lon="5.2621">
        <ele>343</ele>
        <time>2021-02-28T09:40:11.788Z</time>
      </trkpt>
      <trkpt lat="45.69108" lon="5.26208">
        <ele>344</ele>
        <time>2021-02-28T09:40:12.787Z</time>
      </trkpt>
      <trkpt lat="45.69113" lon="5.26207">
        <ele>344</ele>
        <time>2021-02-28T09:40:13.788Z</time>
      </trkpt>
      <trkpt lat="45.69117" lon="5.26207">
        <ele>344</ele>
        <time>2021-02-28T09:40:14.788Z</time>
      </trkpt>
      <trkpt lat="45.69122" lon="5.26206">
        <ele>344</ele>
        <time>2021-02-28T09:40:15.788Z</time>
      </trkpt>
      <trkpt lat="45.69127" lon="5.26206">
        <ele>345</ele>
        <time>2021-02-28T09:40:16.788Z</time>
      </trkpt>
      <trkpt lat="45.69131" lon="5.26207">
        <ele>346</ele>
        <time>2021-02-28T09:40:17.787Z</time>
      </trkpt>
      <trkpt lat="45.69136" lon="5.26206">
        <ele>346</ele>
        <time>2021-02-28T09:40:18.788Z</time>
      </trkpt>
      <trkpt lat="45.6914" lon="5.26206">
        <ele>346</ele>
        <time>2021-02-28T09:40:19.787Z</time>
      </trkpt>
      <trkpt lat="45.69146" lon="5.26206">
        <ele>346</ele>
        <time>2021-02-28T09:40:20.787Z</time>
      </trkpt>
      <trkpt lat="45.69151" lon="5.26207">
        <ele>346</ele>
        <time>2021-02-28T09:40:21.787Z</time>
      </trkpt>
      <trkpt lat="45.69156" lon="5.26208">
        <ele>347</ele>
        <time>2021-02-28T09:40:22.787Z</time>
      </trkpt>
      <trkpt lat="45.69161" lon="5.26209">
        <ele>347</ele>
        <time>2021-02-28T09:40:23.788Z</time>
      </trkpt>
      <trkpt lat="45.69166" lon="5.2621">
        <ele>347</ele>
        <time>2021-02-28T09:40:24.787Z</time>
      </trkpt>
      <trkpt lat="45.69171" lon="5.26212">
        <ele>346</ele>
        <time>2021-02-28T09:40:25.788Z</time>
      </trkpt>
      <trkpt lat="45.69176" lon="5.26214">
        <ele>346</ele>
        <time>2021-02-28T09:40:26.787Z</time>
      </trkpt>
      <trkpt lat="45.69181" lon="5.26217">
        <ele>347</ele>
        <time>2021-02-28T09:40:27.788Z</time>
      </trkpt>
      <trkpt lat="45.69186" lon="5.2622">
        <ele>347</ele>
        <time>2021-02-28T09:40:28.787Z</time>
      </trkpt>
      <trkpt lat="45.69192" lon="5.26225">
        <ele>347</ele>
        <time>2021-02-28T09:40:29.787Z</time>
      </trkpt>
      <trkpt lat="45.69197" lon="5.26231">
        <ele>347</ele>
        <time>2021-02-28T09:40:30.788Z</time>
      </trkpt>
      <trkpt lat="45.69201" lon="5.26238">
        <ele>347</ele>
        <time>2021-02-28T09:40:31.788Z</time>
      </trkpt>
      <trkpt lat="45.69205" lon="5.26246">
        <ele>348</ele>
        <time>2021-02-28T09:40:32.787Z</time>
      </trkpt>
      <trkpt lat="45.69208" lon="5.26254">
        <ele>347</ele>
        <time>2021-02-28T09:40:33.788Z</time>
      </trkpt>
      <trkpt lat="45.69211" lon="5.26263">
        <ele>347</ele>
        <time>2021-02-28T09:40:34.788Z</time>
      </trkpt>
      <trkpt lat="45.69213" lon="5.26273">
        <ele>347</ele>
        <time>2021-02-28T09:40:35.788Z</time>
      </trkpt>
      <trkpt lat="45.69214" lon="5.26282">
        <ele>347</ele>
        <time>2021-02-28T09:40:36.788Z</time>
      </trkpt>
      <trkpt lat="45.69216" lon="5.26292">
        <ele>347</ele>
        <time>2021-02-28T09:40:37.788Z</time>
      </trkpt>
      <trkpt lat="45.69218" lon="5.26301">
        <ele>347</ele>
        <time>2021-02-28T09:40:38.787Z</time>
      </trkpt>
      <trkpt lat="45.69219" lon="5.26311">
        <ele>347</ele>
        <time>2021-02-28T09:40:39.788Z</time>
      </trkpt>
      <trkpt lat="45.6922" lon="5.2632">
        <ele>346</ele>
        <time>2021-02-28T09:40:40.788Z</time>
      </trkpt>
      <trkpt lat="45.69222" lon="5.2633">
        <ele>346</ele>
        <time>2021-02-28T09:40:41.788Z</time>
      </trkpt>
      <trkpt lat="45.69223" lon="5.26339">
        <ele>346</ele>
        <time>2021-02-28T09:40:42.788Z</time>
      </trkpt>
      <trkpt lat="45.69224" lon="5.26348">
        <ele>346</ele>
        <time>2021-02-28T09:40:43.788Z</time>
      </trkpt>
      <trkpt lat="45.69226" lon="5.26358">
        <ele>345</ele>
        <time>2021-02-28T09:40:44.787Z</time>
      </trkpt>
      <trkpt lat="45.69227" lon="5.26367">
        <ele>345</ele>
        <time>2021-02-28T09:40:45.787Z</time>
      </trkpt>
      <trkpt lat="45.69228" lon="5.26376">
        <ele>344</ele>
        <time>2021-02-28T09:40:46.788Z</time>
      </trkpt>
      <trkpt lat="45.6923" lon="5.26386">
        <ele>344</ele>
        <time>2021-02-28T09:40:47.787Z</time>
      </trkpt>
      <trkpt lat="45.69232" lon="5.26395">
        <ele>344</ele>
        <time>2021-02-28T09:40:48.788Z</time>
      </trkpt>
      <trkpt lat="45.69234" lon="5.26404">
        <ele>344</ele>
        <time>2021-02-28T09:40:49.788Z</time>
      </trkpt>
      <trkpt lat="45.69236" lon="5.26413">
        <ele>344</ele>
        <time>2021-02-28T09:40:50.788Z</time>
      </trkpt>
      <trkpt lat="45.69238" lon="5.26423">
        <ele>344</ele>
        <time>2021-02-28T09:40:51.788Z</time>
      </trkpt>
      <trkpt lat="45.6924" lon="5.26434">
        <ele>344</ele>
        <time>2021-02-28T09:40:52.788Z</time>
      </trkpt>
      <trkpt lat="45.69241" lon="5.26441">
        <ele>344</ele>
        <time>2021-02-28T09:40:53.787Z</time>
      </trkpt>
      <trkpt lat="45.69244" lon="5.2645">
        <ele>344</ele>
        <time>2021-02-28T09:40:54.788Z</time>
      </trkpt>
      <trkpt lat="45.69246" lon="5.2646">
        <ele>344</ele>
        <time>2021-02-28T09:40:55.788Z</time>
      </trkpt>
      <trkpt lat="45.69248" lon="5.2647">
        <ele>344</ele>
        <time>2021-02-28T09:40:56.788Z</time>
      </trkpt>
      <trkpt lat="45.69251" lon="5.26477">
        <ele>344</ele>
        <time>2021-02-28T09:40:57.788Z</time>
      </trkpt>
      <trkpt lat="45.69254" lon="5.26485">
        <ele>344</ele>
        <time>2021-02-28T09:40:58.788Z</time>
      </trkpt>
      <trkpt lat="45.69258" lon="5.26492">
        <ele>345</ele>
        <time>2021-02-28T09:40:59.788Z</time>
      </trkpt>
      <trkpt lat="45.69262" lon="5.26498">
        <ele>345</ele>
        <time>2021-02-28T09:41:00.788Z</time>
      </trkpt>
      <trkpt lat="45.69266" lon="5.26504">
        <ele>345</ele>
        <time>2021-02-28T09:41:01.787Z</time>
      </trkpt>
      <trkpt lat="45.69271" lon="5.26507">
        <ele>345</ele>
        <time>2021-02-28T09:41:02.787Z</time>
      </trkpt>
      <trkpt lat="45.69276" lon="5.2651">
        <ele>345</ele>
        <time>2021-02-28T09:41:03.788Z</time>
      </trkpt>
      <trkpt lat="45.69281" lon="5.26511">
        <ele>344</ele>
        <time>2021-02-28T09:41:04.788Z</time>
      </trkpt>
      <trkpt lat="45.69286" lon="5.2651">
        <ele>344</ele>
        <time>2021-02-28T09:41:05.787Z</time>
      </trkpt>
      <trkpt lat="45.69291" lon="5.26509">
        <ele>344</ele>
        <time>2021-02-28T09:41:06.788Z</time>
      </trkpt>
      <trkpt lat="45.69297" lon="5.26508">
        <ele>344</ele>
        <time>2021-02-28T09:41:07.788Z</time>
      </trkpt>
      <trkpt lat="45.69301" lon="5.26506">
        <ele>344</ele>
        <time>2021-02-28T09:41:08.788Z</time>
      </trkpt>
      <trkpt lat="45.69306" lon="5.26504">
        <ele>344</ele>
        <time>2021-02-28T09:41:09.788Z</time>
      </trkpt>
      <trkpt lat="45.6931" lon="5.26502">
        <ele>344</ele>
        <time>2021-02-28T09:41:10.787Z</time>
      </trkpt>
      <trkpt lat="45.69315" lon="5.26501">
        <ele>344</ele>
        <time>2021-02-28T09:41:11.788Z</time>
      </trkpt>
      <trkpt lat="45.6932" lon="5.26499">
        <ele>344</ele>
        <time>2021-02-28T09:41:12.788Z</time>
      </trkpt>
      <trkpt lat="45.69324" lon="5.26497">
        <ele>344</ele>
        <time>2021-02-28T09:41:13.788Z</time>
      </trkpt>
      <trkpt lat="45.69329" lon="5.26495">
        <ele>345</ele>
        <time>2021-02-28T09:41:14.788Z</time>
      </trkpt>
      <trkpt lat="45.69333" lon="5.26494">
        <ele>346</ele>
        <time>2021-02-28T09:41:15.788Z</time>
      </trkpt>
      <trkpt lat="45.69337" lon="5.26492">
        <ele>346</ele>
        <time>2021-02-28T09:41:16.788Z</time>
      </trkpt>
      <trkpt lat="45.6934" lon="5.26491">
        <ele>346</ele>
        <time>2021-02-28T09:41:17.788Z</time>
      </trkpt>
      <trkpt lat="45.69344" lon="5.2649">
        <ele>346</ele>
        <time>2021-02-28T09:41:18.788Z</time>
      </trkpt>
      <trkpt lat="45.69348" lon="5.26489">
        <ele>346</ele>
        <time>2021-02-28T09:41:19.788Z</time>
      </trkpt>
      <trkpt lat="45.69352" lon="5.26488">
        <ele>347</ele>
        <time>2021-02-28T09:41:20.788Z</time>
      </trkpt>
      <trkpt lat="45.69356" lon="5.26488">
        <ele>346</ele>
        <time>2021-02-28T09:41:21.788Z</time>
      </trkpt>
      <trkpt lat="45.6936" lon="5.26487">
        <ele>346</ele>
        <time>2021-02-28T09:41:22.788Z</time>
      </trkpt>
      <trkpt lat="45.69364" lon="5.26486">
        <ele>346</ele>
        <time>2021-02-28T09:41:23.787Z</time>
      </trkpt>
      <trkpt lat="45.69369" lon="5.26485">
        <ele>346</ele>
        <time>2021-02-28T09:41:24.788Z</time>
      </trkpt>
      <trkpt lat="45.69373" lon="5.26484">
        <ele>346</ele>
        <time>2021-02-28T09:41:25.788Z</time>
      </trkpt>
      <trkpt lat="45.69378" lon="5.26483">
        <ele>346</ele>
        <time>2021-02-28T09:41:26.788Z</time>
      </trkpt>
      <trkpt lat="45.69382" lon="5.26482">
        <ele>346</ele>
        <time>2021-02-28T09:41:27.787Z</time>
      </trkpt>
      <trkpt lat="45.69387" lon="5.26481">
        <ele>346</ele>
        <time>2021-02-28T09:41:28.788Z</time>
      </trkpt>
      <trkpt lat="45.69391" lon="5.26479">
        <ele>346</ele>
        <time>2021-02-28T09:41:29.787Z</time>
      </trkpt>
      <trkpt lat="45.69395" lon="5.26478">
        <ele>346</ele>
        <time>2021-02-28T09:41:30.788Z</time>
      </trkpt>
      <trkpt lat="45.694" lon="5.26476">
        <ele>346</ele>
        <time>2021-02-28T09:41:31.788Z</time>
      </trkpt>
      <trkpt lat="45.69404" lon="5.26475">
        <ele>346</ele>
        <time>2021-02-28T09:41:32.787Z</time>
      </trkpt>
      <trkpt lat="45.69409" lon="5.26475">
        <ele>346</ele>
        <time>2021-02-28T09:41:33.788Z</time>
      </trkpt>
      <trkpt lat="45.69413" lon="5.26474">
        <ele>346</ele>
        <time>2021-02-28T09:41:34.787Z</time>
      </trkpt>
      <trkpt lat="45.69417" lon="5.26473">
        <ele>346</ele>
        <time>2021-02-28T09:41:35.788Z</time>
      </trkpt>
      <trkpt lat="45.69421" lon="5.26472">
        <ele>346</ele>
        <time>2021-02-28T09:41:36.788Z</time>
      </trkpt>
      <trkpt lat="45.69425" lon="5.26472">
        <ele>347</ele>
        <time>2021-02-28T09:41:37.788Z</time>
      </trkpt>
      <trkpt lat="45.69428" lon="5.26471">
        <ele>347</ele>
        <time>2021-02-28T09:41:38.788Z</time>
      </trkpt>
      <trkpt lat="45.69432" lon="5.26471">
        <ele>347</ele>
        <time>2021-02-28T09:41:39.788Z</time>
      </trkpt>
      <trkpt lat="45.69435" lon="5.26471">
        <ele>348</ele>
        <time>2021-02-28T09:41:40.788Z</time>
      </trkpt>
      <trkpt lat="45.69438" lon="5.26471">
        <ele>348</ele>
        <time>2021-02-28T09:41:41.787Z</time>
      </trkpt>
      <trkpt lat="45.69441" lon="5.26471">
        <ele>348</ele>
        <time>2021-02-28T09:41:42.788Z</time>
      </trkpt>
      <trkpt lat="45.69444" lon="5.26471">
        <ele>348</ele>
        <time>2021-02-28T09:41:43.788Z</time>
      </trkpt>
      <trkpt lat="45.69449" lon="5.26471">
        <ele>348</ele>
        <time>2021-02-28T09:41:44.787Z</time>
      </trkpt>
      <trkpt lat="45.69453" lon="5.26472">
        <ele>348</ele>
        <time>2021-02-28T09:41:45.788Z</time>
      </trkpt>
      <trkpt lat="45.69457" lon="5.26472">
        <ele>348</ele>
        <time>2021-02-28T09:41:46.787Z</time>
      </trkpt>
      <trkpt lat="45.69461" lon="5.26472">
        <ele>348</ele>
        <time>2021-02-28T09:41:47.788Z</time>
      </trkpt>
      <trkpt lat="45.69466" lon="5.26473">
        <ele>349</ele>
        <time>2021-02-28T09:41:48.787Z</time>
      </trkpt>
      <trkpt lat="45.6947" lon="5.26474">
        <ele>349</ele>
        <time>2021-02-28T09:41:49.788Z</time>
      </trkpt>
      <trkpt lat="45.69474" lon="5.26475">
        <ele>350</ele>
        <time>2021-02-28T09:41:50.788Z</time>
      </trkpt>
      <trkpt lat="45.69479" lon="5.26476">
        <ele>350</ele>
        <time>2021-02-28T09:41:51.788Z</time>
      </trkpt>
      <trkpt lat="45.69483" lon="5.26477">
        <ele>350</ele>
        <time>2021-02-28T09:41:52.788Z</time>
      </trkpt>
      <trkpt lat="45.69487" lon="5.26478">
        <ele>350</ele>
        <time>2021-02-28T09:41:53.788Z</time>
      </trkpt>
      <trkpt lat="45.69491" lon="5.2648">
        <ele>350</ele>
        <time>2021-02-28T09:41:54.788Z</time>
      </trkpt>
      <trkpt lat="45.69495" lon="5.26481">
        <ele>350</ele>
        <time>2021-02-28T09:41:55.788Z</time>
      </trkpt>
      <trkpt lat="45.695" lon="5.26482">
        <ele>350</ele>
        <time>2021-02-28T09:41:56.788Z</time>
      </trkpt>
      <trkpt lat="45.69504" lon="5.26484">
        <ele>351</ele>
        <time>2021-02-28T09:41:57.787Z</time>
      </trkpt>
      <trkpt lat="45.69508" lon="5.26485">
        <ele>351</ele>
        <time>2021-02-28T09:41:58.787Z</time>
      </trkpt>
      <trkpt lat="45.69512" lon="5.26487">
        <ele>351</ele>
        <time>2021-02-28T09:41:59.788Z</time>
      </trkpt>
      <trkpt lat="45.69516" lon="5.26488">
        <ele>351</ele>
        <time>2021-02-28T09:42:00.788Z</time>
      </trkpt>
      <trkpt lat="45.6952" lon="5.2649">
        <ele>351</ele>
        <time>2021-02-28T09:42:01.788Z</time>
      </trkpt>
      <trkpt lat="45.69524" lon="5.26491">
        <ele>351</ele>
        <time>2021-02-28T09:42:02.788Z</time>
      </trkpt>
      <trkpt lat="45.69529" lon="5.26493">
        <ele>351</ele>
        <time>2021-02-28T09:42:03.788Z</time>
      </trkpt>
      <trkpt lat="45.69533" lon="5.26495">
        <ele>351</ele>
        <time>2021-02-28T09:42:04.788Z</time>
      </trkpt>
      <trkpt lat="45.69537" lon="5.26496">
        <ele>351</ele>
        <time>2021-02-28T09:42:05.787Z</time>
      </trkpt>
      <trkpt lat="45.69542" lon="5.26498">
        <ele>352</ele>
        <time>2021-02-28T09:42:06.788Z</time>
      </trkpt>
      <trkpt lat="45.69546" lon="5.265">
        <ele>351</ele>
        <time>2021-02-28T09:42:07.788Z</time>
      </trkpt>
      <trkpt lat="45.6955" lon="5.26501">
        <ele>352</ele>
        <time>2021-02-28T09:42:08.787Z</time>
      </trkpt>
      <trkpt lat="45.69554" lon="5.26502">
        <ele>352</ele>
        <time>2021-02-28T09:42:09.788Z</time>
      </trkpt>
      <trkpt lat="45.69558" lon="5.26503">
        <ele>351</ele>
        <time>2021-02-28T09:42:10.787Z</time>
      </trkpt>
      <trkpt lat="45.69563" lon="5.26505">
        <ele>351</ele>
        <time>2021-02-28T09:42:11.788Z</time>
      </trkpt>
      <trkpt lat="45.69566" lon="5.26506">
        <ele>351</ele>
        <time>2021-02-28T09:42:12.788Z</time>
      </trkpt>
      <trkpt lat="45.69571" lon="5.26507">
        <ele>351</ele>
        <time>2021-02-28T09:42:13.787Z</time>
      </trkpt>
      <trkpt lat="45.69575" lon="5.26508">
        <ele>351</ele>
        <time>2021-02-28T09:42:14.788Z</time>
      </trkpt>
      <trkpt lat="45.69578" lon="5.26509">
        <ele>351</ele>
        <time>2021-02-28T09:42:15.787Z</time>
      </trkpt>
      <trkpt lat="45.69583" lon="5.26509">
        <ele>351</ele>
        <time>2021-02-28T09:42:16.787Z</time>
      </trkpt>
      <trkpt lat="45.69586" lon="5.2651">
        <ele>351</ele>
        <time>2021-02-28T09:42:17.788Z</time>
      </trkpt>
      <trkpt lat="45.6959" lon="5.26511">
        <ele>351</ele>
        <time>2021-02-28T09:42:18.788Z</time>
      </trkpt>
      <trkpt lat="45.69594" lon="5.26511">
        <ele>351</ele>
        <time>2021-02-28T09:42:19.788Z</time>
      </trkpt>
      <trkpt lat="45.69599" lon="5.26512">
        <ele>352</ele>
        <time>2021-02-28T09:42:20.788Z</time>
      </trkpt>
      <trkpt lat="45.69603" lon="5.26513">
        <ele>352</ele>
        <time>2021-02-28T09:42:21.787Z</time>
      </trkpt>
      <trkpt lat="45.69607" lon="5.26514">
        <ele>353</ele>
        <time>2021-02-28T09:42:22.788Z</time>
      </trkpt>
      <trkpt lat="45.69612" lon="5.26515">
        <ele>353</ele>
        <time>2021-02-28T09:42:23.788Z</time>
      </trkpt>
      <trkpt lat="45.69616" lon="5.26515">
        <ele>353</ele>
        <time>2021-02-28T09:42:24.787Z</time>
      </trkpt>
      <trkpt lat="45.6962" lon="5.26516">
        <ele>353</ele>
        <time>2021-02-28T09:42:25.787Z</time>
      </trkpt>
      <trkpt lat="45.69625" lon="5.26517">
        <ele>353</ele>
        <time>2021-02-28T09:42:26.787Z</time>
      </trkpt>
      <trkpt lat="45.69629" lon="5.26518">
        <ele>353</ele>
        <time>2021-02-28T09:42:27.788Z</time>
      </trkpt>
      <trkpt lat="45.69634" lon="5.26519">
        <ele>353</ele>
        <time>2021-02-28T09:42:28.788Z</time>
      </trkpt>
      <trkpt lat="45.69639" lon="5.26519">
        <ele>353</ele>
        <time>2021-02-28T09:42:29.788Z</time>
      </trkpt>
      <trkpt lat="45.69643" lon="5.2652">
        <ele>353</ele>
        <time>2021-02-28T09:42:30.788Z</time>
      </trkpt>
      <trkpt lat="45.69646" lon="5.26521">
        <ele>353</ele>
        <time>2021-02-28T09:42:31.788Z</time>
      </trkpt>
      <trkpt lat="45.6965" lon="5.26521">
        <ele>353</ele>
        <time>2021-02-28T09:42:32.787Z</time>
      </trkpt>
      <trkpt lat="45.69656" lon="5.26522">
        <ele>353</ele>
        <time>2021-02-28T09:42:33.788Z</time>
      </trkpt>
      <trkpt lat="45.6966" lon="5.26523">
        <ele>353</ele>
        <time>2021-02-28T09:42:34.787Z</time>
      </trkpt>
      <trkpt lat="45.69665" lon="5.26524">
        <ele>353</ele>
        <time>2021-02-28T09:42:35.788Z</time>
      </trkpt>
      <trkpt lat="45.69669" lon="5.26525">
        <ele>353</ele>
        <time>2021-02-28T09:42:36.788Z</time>
      </trkpt>
      <trkpt lat="45.69673" lon="5.26525">
        <ele>353</ele>
        <time>2021-02-28T09:42:37.788Z</time>
      </trkpt>
      <trkpt lat="45.69678" lon="5.26526">
        <ele>353</ele>
        <time>2021-02-28T09:42:38.788Z</time>
      </trkpt>
      <trkpt lat="45.69683" lon="5.26527">
        <ele>353</ele>
        <time>2021-02-28T09:42:39.788Z</time>
      </trkpt>
      <trkpt lat="45.69687" lon="5.26527">
        <ele>352</ele>
        <time>2021-02-28T09:42:40.788Z</time>
      </trkpt>
      <trkpt lat="45.69691" lon="5.26528">
        <ele>352</ele>
        <time>2021-02-28T09:42:41.788Z</time>
      </trkpt>
      <trkpt lat="45.69697" lon="5.26529">
        <ele>352</ele>
        <time>2021-02-28T09:42:42.788Z</time>
      </trkpt>
      <trkpt lat="45.69702" lon="5.26529">
        <ele>352</ele>
        <time>2021-02-28T09:42:43.788Z</time>
      </trkpt>
      <trkpt lat="45.69706" lon="5.26529">
        <ele>352</ele>
        <time>2021-02-28T09:42:44.788Z</time>
      </trkpt>
      <trkpt lat="45.69711" lon="5.26529">
        <ele>352</ele>
        <time>2021-02-28T09:42:45.788Z</time>
      </trkpt>
      <trkpt lat="45.69716" lon="5.2653">
        <ele>352</ele>
        <time>2021-02-28T09:42:46.788Z</time>
      </trkpt>
      <trkpt lat="45.69722" lon="5.2653">
        <ele>352</ele>
        <time>2021-02-28T09:42:47.788Z</time>
      </trkpt>
      <trkpt lat="45.69727" lon="5.26531">
        <ele>352</ele>
        <time>2021-02-28T09:42:48.787Z</time>
      </trkpt>
      <trkpt lat="45.69732" lon="5.26533">
        <ele>352</ele>
        <time>2021-02-28T09:42:49.788Z</time>
      </trkpt>
      <trkpt lat="45.69737" lon="5.26534">
        <ele>351</ele>
        <time>2021-02-28T09:42:50.788Z</time>
      </trkpt>
      <trkpt lat="45.69744" lon="5.26536">
        <ele>351</ele>
        <time>2021-02-28T09:42:51.787Z</time>
      </trkpt>
      <trkpt lat="45.6975" lon="5.26538">
        <ele>351</ele>
        <time>2021-02-28T09:42:52.788Z</time>
      </trkpt>
      <trkpt lat="45.69756" lon="5.26541">
        <ele>351</ele>
        <time>2021-02-28T09:42:53.788Z</time>
      </trkpt>
      <trkpt lat="45.69762" lon="5.26543">
        <ele>351</ele>
        <time>2021-02-28T09:42:54.787Z</time>
      </trkpt>
      <trkpt lat="45.69768" lon="5.26546">
        <ele>351</ele>
        <time>2021-02-28T09:42:55.788Z</time>
      </trkpt>
      <trkpt lat="45.69775" lon="5.26549">
        <ele>350</ele>
        <time>2021-02-28T09:42:56.788Z</time>
      </trkpt>
      <trkpt lat="45.69782" lon="5.26553">
        <ele>350</ele>
        <time>2021-02-28T09:42:57.788Z</time>
      </trkpt>
      <trkpt lat="45.69788" lon="5.26556">
        <ele>350</ele>
        <time>2021-02-28T09:42:58.788Z</time>
      </trkpt>
      <trkpt lat="45.69796" lon="5.2656">
        <ele>350</ele>
        <time>2021-02-28T09:42:59.788Z</time>
      </trkpt>
      <trkpt lat="45.69805" lon="5.26564">
        <ele>350</ele>
        <time>2021-02-28T09:43:00.788Z</time>
      </trkpt>
      <trkpt lat="45.69813" lon="5.26568">
        <ele>350</ele>
        <time>2021-02-28T09:43:01.788Z</time>
      </trkpt>
      <trkpt lat="45.69819" lon="5.26572">
        <ele>350</ele>
        <time>2021-02-28T09:43:02.788Z</time>
      </trkpt>
      <trkpt lat="45.69827" lon="5.26575">
        <ele>349</ele>
        <time>2021-02-28T09:43:03.788Z</time>
      </trkpt>
      <trkpt lat="45.69836" lon="5.26579">
        <ele>349</ele>
        <time>2021-02-28T09:43:04.788Z</time>
      </trkpt>
      <trkpt lat="45.69844" lon="5.26583">
        <ele>349</ele>
        <time>2021-02-28T09:43:05.787Z</time>
      </trkpt>
      <trkpt lat="45.69852" lon="5.26587">
        <ele>348</ele>
        <time>2021-02-28T09:43:06.788Z</time>
      </trkpt>
      <trkpt lat="45.6986" lon="5.2659">
        <ele>348</ele>
        <time>2021-02-28T09:43:07.788Z</time>
      </trkpt>
      <trkpt lat="45.69868" lon="5.26594">
        <ele>347</ele>
        <time>2021-02-28T09:43:08.788Z</time>
      </trkpt>
      <trkpt lat="45.69875" lon="5.26597">
        <ele>347</ele>
        <time>2021-02-28T09:43:09.788Z</time>
      </trkpt>
      <trkpt lat="45.69883" lon="5.26601">
        <ele>347</ele>
        <time>2021-02-28T09:43:10.787Z</time>
      </trkpt>
      <trkpt lat="45.69891" lon="5.26604">
        <ele>347</ele>
        <time>2021-02-28T09:43:11.788Z</time>
      </trkpt>
      <trkpt lat="45.699" lon="5.26609">
        <ele>347</ele>
        <time>2021-02-28T09:43:12.788Z</time>
      </trkpt>
      <trkpt lat="45.69907" lon="5.26612">
        <ele>347</ele>
        <time>2021-02-28T09:43:13.787Z</time>
      </trkpt>
      <trkpt lat="45.69915" lon="5.26615">
        <ele>347</ele>
        <time>2021-02-28T09:43:14.788Z</time>
      </trkpt>
      <trkpt lat="45.69923" lon="5.26619">
        <ele>347</ele>
        <time>2021-02-28T09:43:15.787Z</time>
      </trkpt>
      <trkpt lat="45.6993" lon="5.26622">
        <ele>347</ele>
        <time>2021-02-28T09:43:16.788Z</time>
      </trkpt>
      <trkpt lat="45.69937" lon="5.26625">
        <ele>347</ele>
        <time>2021-02-28T09:43:17.787Z</time>
      </trkpt>
      <trkpt lat="45.69944" lon="5.26628">
        <ele>347</ele>
        <time>2021-02-28T09:43:18.788Z</time>
      </trkpt>
      <trkpt lat="45.69951" lon="5.26632">
        <ele>347</ele>
        <time>2021-02-28T09:43:19.788Z</time>
      </trkpt>
      <trkpt lat="45.69959" lon="5.26635">
        <ele>347</ele>
        <time>2021-02-28T09:43:20.787Z</time>
      </trkpt>
      <trkpt lat="45.69966" lon="5.26638">
        <ele>347</ele>
        <time>2021-02-28T09:43:21.788Z</time>
      </trkpt>
      <trkpt lat="45.69973" lon="5.26641">
        <ele>347</ele>
        <time>2021-02-28T09:43:22.787Z</time>
      </trkpt>
      <trkpt lat="45.6998" lon="5.26644">
        <ele>347</ele>
        <time>2021-02-28T09:43:23.788Z</time>
      </trkpt>
      <trkpt lat="45.69987" lon="5.26647">
        <ele>347</ele>
        <time>2021-02-28T09:43:24.788Z</time>
      </trkpt>
      <trkpt lat="45.69994" lon="5.2665">
        <ele>347</ele>
        <time>2021-02-28T09:43:25.788Z</time>
      </trkpt>
      <trkpt lat="45.70001" lon="5.26652">
        <ele>347</ele>
        <time>2021-02-28T09:43:26.788Z</time>
      </trkpt>
      <trkpt lat="45.70008" lon="5.26654">
        <ele>347</ele>
        <time>2021-02-28T09:43:27.788Z</time>
      </trkpt>
      <trkpt lat="45.70014" lon="5.26655">
        <ele>348</ele>
        <time>2021-02-28T09:43:28.788Z</time>
      </trkpt>
      <trkpt lat="45.70021" lon="5.26655">
        <ele>348</ele>
        <time>2021-02-28T09:43:29.787Z</time>
      </trkpt>
      <trkpt lat="45.70027" lon="5.26654">
        <ele>348</ele>
        <time>2021-02-28T09:43:30.788Z</time>
      </trkpt>
      <trkpt lat="45.70033" lon="5.26652">
        <ele>348</ele>
        <time>2021-02-28T09:43:31.788Z</time>
      </trkpt>
      <trkpt lat="45.70039" lon="5.2665">
        <ele>348</ele>
        <time>2021-02-28T09:43:32.788Z</time>
      </trkpt>
      <trkpt lat="45.70044" lon="5.26647">
        <ele>349</ele>
        <time>2021-02-28T09:43:33.787Z</time>
      </trkpt>
      <trkpt lat="45.70049" lon="5.26644">
        <ele>349</ele>
        <time>2021-02-28T09:43:34.788Z</time>
      </trkpt>
      <trkpt lat="45.70054" lon="5.2664">
        <ele>349</ele>
        <time>2021-02-28T09:43:35.788Z</time>
      </trkpt>
      <trkpt lat="45.70058" lon="5.26635">
        <ele>349</ele>
        <time>2021-02-28T09:43:36.788Z</time>
      </trkpt>
      <trkpt lat="45.70061" lon="5.2663">
        <ele>349</ele>
        <time>2021-02-28T09:43:37.787Z</time>
      </trkpt>
      <trkpt lat="45.70064" lon="5.26624">
        <ele>349</ele>
        <time>2021-02-28T09:43:38.788Z</time>
      </trkpt>
      <trkpt lat="45.70067" lon="5.26618">
        <ele>349</ele>
        <time>2021-02-28T09:43:39.788Z</time>
      </trkpt>
      <trkpt lat="45.70069" lon="5.26612">
        <ele>349</ele>
        <time>2021-02-28T09:43:40.788Z</time>
      </trkpt>
      <trkpt lat="45.70071" lon="5.26605">
        <ele>349</ele>
        <time>2021-02-28T09:43:41.788Z</time>
      </trkpt>
      <trkpt lat="45.70072" lon="5.26599">
        <ele>349</ele>
        <time>2021-02-28T09:43:42.788Z</time>
      </trkpt>
      <trkpt lat="45.70074" lon="5.26592">
        <ele>349</ele>
        <time>2021-02-28T09:43:43.788Z</time>
      </trkpt>
      <trkpt lat="45.70075" lon="5.26587">
        <ele>349</ele>
        <time>2021-02-28T09:43:44.788Z</time>
      </trkpt>
      <trkpt lat="45.70077" lon="5.26581">
        <ele>349</ele>
        <time>2021-02-28T09:43:45.787Z</time>
      </trkpt>
      <trkpt lat="45.70079" lon="5.26575">
        <ele>349</ele>
        <time>2021-02-28T09:43:46.788Z</time>
      </trkpt>
      <trkpt lat="45.70081" lon="5.26569">
        <ele>349</ele>
        <time>2021-02-28T09:43:47.788Z</time>
      </trkpt>
      <trkpt lat="45.70084" lon="5.26564">
        <ele>349</ele>
        <time>2021-02-28T09:43:48.788Z</time>
      </trkpt>
      <trkpt lat="45.70086" lon="5.26559">
        <ele>349</ele>
        <time>2021-02-28T09:43:49.788Z</time>
      </trkpt>
      <trkpt lat="45.70089" lon="5.26555">
        <ele>349</ele>
        <time>2021-02-28T09:43:50.788Z</time>
      </trkpt>
      <trkpt lat="45.70092" lon="5.2655">
        <ele>350</ele>
        <time>2021-02-28T09:43:51.788Z</time>
      </trkpt>
      <trkpt lat="45.70095" lon="5.26544">
        <ele>350</ele>
        <time>2021-02-28T09:43:52.787Z</time>
      </trkpt>
      <trkpt lat="45.70098" lon="5.26541">
        <ele>350</ele>
        <time>2021-02-28T09:43:53.788Z</time>
      </trkpt>
      <trkpt lat="45.70102" lon="5.26537">
        <ele>350</ele>
        <time>2021-02-28T09:43:54.788Z</time>
      </trkpt>
      <trkpt lat="45.70105" lon="5.26532">
        <ele>351</ele>
        <time>2021-02-28T09:43:55.788Z</time>
      </trkpt>
      <trkpt lat="45.70108" lon="5.26529">
        <ele>351</ele>
        <time>2021-02-28T09:43:56.788Z</time>
      </trkpt>
      <trkpt lat="45.70111" lon="5.26524">
        <ele>351</ele>
        <time>2021-02-28T09:43:57.788Z</time>
      </trkpt>
      <trkpt lat="45.70115" lon="5.26521">
        <ele>352</ele>
        <time>2021-02-28T09:43:58.787Z</time>
      </trkpt>
      <trkpt lat="45.70118" lon="5.26517">
        <ele>351</ele>
        <time>2021-02-28T09:43:59.788Z</time>
      </trkpt>
      <trkpt lat="45.70121" lon="5.26514">
        <ele>351</ele>
        <time>2021-02-28T09:44:00.788Z</time>
      </trkpt>
      <trkpt lat="45.70125" lon="5.26512">
        <ele>351</ele>
        <time>2021-02-28T09:44:01.788Z</time>
      </trkpt>
      <trkpt lat="45.70128" lon="5.26509">
        <ele>350</ele>
        <time>2021-02-28T09:44:02.787Z</time>
      </trkpt>
      <trkpt lat="45.70132" lon="5.26507">
        <ele>350</ele>
        <time>2021-02-28T09:44:03.788Z</time>
      </trkpt>
      <trkpt lat="45.70136" lon="5.26505">
        <ele>350</ele>
        <time>2021-02-28T09:44:04.788Z</time>
      </trkpt>
      <trkpt lat="45.7014" lon="5.26502">
        <ele>349</ele>
        <time>2021-02-28T09:44:05.788Z</time>
      </trkpt>
      <trkpt lat="45.70144" lon="5.265">
        <ele>349</ele>
        <time>2021-02-28T09:44:06.788Z</time>
      </trkpt>
      <trkpt lat="45.70148" lon="5.26499">
        <ele>349</ele>
        <time>2021-02-28T09:44:07.787Z</time>
      </trkpt>
      <trkpt lat="45.70152" lon="5.26497">
        <ele>350</ele>
        <time>2021-02-28T09:44:08.788Z</time>
      </trkpt>
      <trkpt lat="45.70156" lon="5.26496">
        <ele>350</ele>
        <time>2021-02-28T09:44:09.788Z</time>
      </trkpt>
      <trkpt lat="45.7016" lon="5.26494">
        <ele>350</ele>
        <time>2021-02-28T09:44:10.788Z</time>
      </trkpt>
      <trkpt lat="45.70164" lon="5.26493">
        <ele>350</ele>
        <time>2021-02-28T09:44:11.788Z</time>
      </trkpt>
      <trkpt lat="45.70168" lon="5.26493">
        <ele>351</ele>
        <time>2021-02-28T09:44:12.788Z</time>
      </trkpt>
      <trkpt lat="45.70172" lon="5.26492">
        <ele>351</ele>
        <time>2021-02-28T09:44:13.788Z</time>
      </trkpt>
      <trkpt lat="45.70176" lon="5.26491">
        <ele>352</ele>
        <time>2021-02-28T09:44:14.788Z</time>
      </trkpt>
      <trkpt lat="45.7018" lon="5.26491">
        <ele>352</ele>
        <time>2021-02-28T09:44:15.788Z</time>
      </trkpt>
      <trkpt lat="45.70183" lon="5.2649">
        <ele>353</ele>
        <time>2021-02-28T09:44:16.787Z</time>
      </trkpt>
      <trkpt lat="45.70187" lon="5.26489">
        <ele>353</ele>
        <time>2021-02-28T09:44:17.788Z</time>
      </trkpt>
      <trkpt lat="45.70191" lon="5.26489">
        <ele>354</ele>
        <time>2021-02-28T09:44:18.787Z</time>
      </trkpt>
      <trkpt lat="45.70195" lon="5.26488">
        <ele>354</ele>
        <time>2021-02-28T09:44:19.788Z</time>
      </trkpt>
      <trkpt lat="45.70198" lon="5.26487">
        <ele>355</ele>
        <time>2021-02-28T09:44:20.788Z</time>
      </trkpt>
      <trkpt lat="45.70202" lon="5.26485">
        <ele>355</ele>
        <time>2021-02-28T09:44:21.788Z</time>
      </trkpt>
      <trkpt lat="45.70205" lon="5.26483">
        <ele>355</ele>
        <time>2021-02-28T09:44:22.788Z</time>
      </trkpt>
      <trkpt lat="45.70209" lon="5.26481">
        <ele>355</ele>
        <time>2021-02-28T09:44:23.788Z</time>
      </trkpt>
      <trkpt lat="45.70212" lon="5.26479">
        <ele>355</ele>
        <time>2021-02-28T09:44:24.788Z</time>
      </trkpt>
      <trkpt lat="45.70214" lon="5.26476">
        <ele>355</ele>
        <time>2021-02-28T09:44:25.788Z</time>
      </trkpt>
      <trkpt lat="45.70217" lon="5.26474">
        <ele>355</ele>
        <time>2021-02-28T09:44:26.788Z</time>
      </trkpt>
      <trkpt lat="45.7022" lon="5.26471">
        <ele>355</ele>
        <time>2021-02-28T09:44:27.788Z</time>
      </trkpt>
      <trkpt lat="45.70223" lon="5.2647">
        <ele>354</ele>
        <time>2021-02-28T09:44:28.788Z</time>
      </trkpt>
      <trkpt lat="45.70226" lon="5.26467">
        <ele>354</ele>
        <time>2021-02-28T09:44:29.788Z</time>
      </trkpt>
      <trkpt lat="45.70229" lon="5.26465">
        <ele>354</ele>
        <time>2021-02-28T09:44:30.788Z</time>
      </trkpt>
      <trkpt lat="45.70232" lon="5.26464">
        <ele>354</ele>
        <time>2021-02-28T09:44:31.788Z</time>
      </trkpt>
      <trkpt lat="45.70236" lon="5.26462">
        <ele>354</ele>
        <time>2021-02-28T09:44:32.788Z</time>
      </trkpt>
      <trkpt lat="45.70239" lon="5.26461">
        <ele>354</ele>
        <time>2021-02-28T09:44:33.787Z</time>
      </trkpt>
      <trkpt lat="45.70241" lon="5.26459">
        <ele>354</ele>
        <time>2021-02-28T09:44:34.788Z</time>
      </trkpt>
      <trkpt lat="45.70244" lon="5.26457">
        <ele>354</ele>
        <time>2021-02-28T09:44:35.788Z</time>
      </trkpt>
      <trkpt lat="45.70248" lon="5.26455">
        <ele>354</ele>
        <time>2021-02-28T09:44:36.788Z</time>
      </trkpt>
      <trkpt lat="45.70251" lon="5.26452">
        <ele>354</ele>
        <time>2021-02-28T09:44:37.788Z</time>
      </trkpt>
      <trkpt lat="45.70255" lon="5.2645">
        <ele>354</ele>
        <time>2021-02-28T09:44:38.788Z</time>
      </trkpt>
      <trkpt lat="45.70259" lon="5.26447">
        <ele>354</ele>
        <time>2021-02-28T09:44:39.787Z</time>
      </trkpt>
      <trkpt lat="45.70264" lon="5.26445">
        <ele>354</ele>
        <time>2021-02-28T09:44:40.787Z</time>
      </trkpt>
      <trkpt lat="45.70268" lon="5.26443">
        <ele>353</ele>
        <time>2021-02-28T09:44:41.788Z</time>
      </trkpt>
      <trkpt lat="45.70273" lon="5.2644">
        <ele>353</ele>
        <time>2021-02-28T09:44:42.788Z</time>
      </trkpt>
      <trkpt lat="45.70276" lon="5.26439">
        <ele>353</ele>
        <time>2021-02-28T09:44:43.787Z</time>
      </trkpt>
      <trkpt lat="45.70282" lon="5.26436">
        <ele>353</ele>
        <time>2021-02-28T09:44:44.788Z</time>
      </trkpt>
      <trkpt lat="45.70286" lon="5.26434">
        <ele>353</ele>
        <time>2021-02-28T09:44:45.788Z</time>
      </trkpt>
      <trkpt lat="45.70291" lon="5.26431">
        <ele>353</ele>
        <time>2021-02-28T09:44:46.787Z</time>
      </trkpt>
      <trkpt lat="45.70296" lon="5.26428">
        <ele>353</ele>
        <time>2021-02-28T09:44:47.787Z</time>
      </trkpt>
      <trkpt lat="45.703" lon="5.26426">
        <ele>352</ele>
        <time>2021-02-28T09:44:48.787Z</time>
      </trkpt>
      <trkpt lat="45.70306" lon="5.26423">
        <ele>352</ele>
        <time>2021-02-28T09:44:49.787Z</time>
      </trkpt>
      <trkpt lat="45.70311" lon="5.2642">
        <ele>352</ele>
        <time>2021-02-28T09:44:50.787Z</time>
      </trkpt>
      <trkpt lat="45.70317" lon="5.26417">
        <ele>352</ele>
        <time>2021-02-28T09:44:51.788Z</time>
      </trkpt>
      <trkpt lat="45.70321" lon="5.26415">
        <ele>352</ele>
        <time>2021-02-28T09:44:52.787Z</time>
      </trkpt>
      <trkpt lat="45.70328" lon="5.26411">
        <ele>352</ele>
        <time>2021-02-28T09:44:53.788Z</time>
      </trkpt>
      <trkpt lat="45.70333" lon="5.26408">
        <ele>351</ele>
        <time>2021-02-28T09:44:54.788Z</time>
      </trkpt>
      <trkpt lat="45.70339" lon="5.26405">
        <ele>351</ele>
        <time>2021-02-28T09:44:55.788Z</time>
      </trkpt>
      <trkpt lat="45.70345" lon="5.26402">
        <ele>350</ele>
        <time>2021-02-28T09:44:56.788Z</time>
      </trkpt>
      <trkpt lat="45.70351" lon="5.26399">
        <ele>350</ele>
        <time>2021-02-28T09:44:57.788Z</time>
      </trkpt>
      <trkpt lat="45.70356" lon="5.26396">
        <ele>350</ele>
        <time>2021-02-28T09:44:58.788Z</time>
      </trkpt>
      <trkpt lat="45.70363" lon="5.26392">
        <ele>350</ele>
        <time>2021-02-28T09:44:59.788Z</time>
      </trkpt>
      <trkpt lat="45.70369" lon="5.26387">
        <ele>350</ele>
        <time>2021-02-28T09:45:00.787Z</time>
      </trkpt>
      <trkpt lat="45.70375" lon="5.26384">
        <ele>349</ele>
        <time>2021-02-28T09:45:01.788Z</time>
      </trkpt>
      <trkpt lat="45.70381" lon="5.2638">
        <ele>349</ele>
        <time>2021-02-28T09:45:02.788Z</time>
      </trkpt>
      <trkpt lat="45.70388" lon="5.26376">
        <ele>349</ele>
        <time>2021-02-28T09:45:03.787Z</time>
      </trkpt>
      <trkpt lat="45.70395" lon="5.26373">
        <ele>348</ele>
        <time>2021-02-28T09:45:04.787Z</time>
      </trkpt>
      <trkpt lat="45.70402" lon="5.2637">
        <ele>348</ele>
        <time>2021-02-28T09:45:05.788Z</time>
      </trkpt>
      <trkpt lat="45.7041" lon="5.26367">
        <ele>348</ele>
        <time>2021-02-28T09:45:06.787Z</time>
      </trkpt>
      <trkpt lat="45.70418" lon="5.26365">
        <ele>347</ele>
        <time>2021-02-28T09:45:07.788Z</time>
      </trkpt>
      <trkpt lat="45.70426" lon="5.26363">
        <ele>347</ele>
        <time>2021-02-28T09:45:08.788Z</time>
      </trkpt>
      <trkpt lat="45.70434" lon="5.26362">
        <ele>347</ele>
        <time>2021-02-28T09:45:09.788Z</time>
      </trkpt>
      <trkpt lat="45.70443" lon="5.26361">
        <ele>346</ele>
        <time>2021-02-28T09:45:10.788Z</time>
      </trkpt>
      <trkpt lat="45.70452" lon="5.26361">
        <ele>346</ele>
        <time>2021-02-28T09:45:11.788Z</time>
      </trkpt>
      <trkpt lat="45.70461" lon="5.26361">
        <ele>345</ele>
        <time>2021-02-28T09:45:12.788Z</time>
      </trkpt>
      <trkpt lat="45.7047" lon="5.26361">
        <ele>345</ele>
        <time>2021-02-28T09:45:13.788Z</time>
      </trkpt>
      <trkpt lat="45.7048" lon="5.26361">
        <ele>344</ele>
        <time>2021-02-28T09:45:14.788Z</time>
      </trkpt>
      <trkpt lat="45.70489" lon="5.26361">
        <ele>344</ele>
        <time>2021-02-28T09:45:15.788Z</time>
      </trkpt>
      <trkpt lat="45.70499" lon="5.26361">
        <ele>344</ele>
        <time>2021-02-28T09:45:16.787Z</time>
      </trkpt>
      <trkpt lat="45.70509" lon="5.26361">
        <ele>343</ele>
        <time>2021-02-28T09:45:17.788Z</time>
      </trkpt>
      <trkpt lat="45.70519" lon="5.26362">
        <ele>343</ele>
        <time>2021-02-28T09:45:18.788Z</time>
      </trkpt>
      <trkpt lat="45.70528" lon="5.26363">
        <ele>343</ele>
        <time>2021-02-28T09:45:19.788Z</time>
      </trkpt>
      <trkpt lat="45.70538" lon="5.26365">
        <ele>343</ele>
        <time>2021-02-28T09:45:20.787Z</time>
      </trkpt>
      <trkpt lat="45.70546" lon="5.26367">
        <ele>343</ele>
        <time>2021-02-28T09:45:21.788Z</time>
      </trkpt>
      <trkpt lat="45.70557" lon="5.2637">
        <ele>342</ele>
        <time>2021-02-28T09:45:22.788Z</time>
      </trkpt>
      <trkpt lat="45.70566" lon="5.26373">
        <ele>341</ele>
        <time>2021-02-28T09:45:23.788Z</time>
      </trkpt>
      <trkpt lat="45.70576" lon="5.26375">
        <ele>341</ele>
        <time>2021-02-28T09:45:24.787Z</time>
      </trkpt>
      <trkpt lat="45.70586" lon="5.26375">
        <ele>340</ele>
        <time>2021-02-28T09:45:25.788Z</time>
      </trkpt>
      <trkpt lat="45.70596" lon="5.26374">
        <ele>340</ele>
        <time>2021-02-28T09:45:26.788Z</time>
      </trkpt>
      <trkpt lat="45.70604" lon="5.26372">
        <ele>339</ele>
        <time>2021-02-28T09:45:27.788Z</time>
      </trkpt>
      <trkpt lat="45.70614" lon="5.26369">
        <ele>338</ele>
        <time>2021-02-28T09:45:28.788Z</time>
      </trkpt>
      <trkpt lat="45.70624" lon="5.26365">
        <ele>338</ele>
        <time>2021-02-28T09:45:29.788Z</time>
      </trkpt>
      <trkpt lat="45.70634" lon="5.26359">
        <ele>337</ele>
        <time>2021-02-28T09:45:30.788Z</time>
      </trkpt>
      <trkpt lat="45.70644" lon="5.26354">
        <ele>336</ele>
        <time>2021-02-28T09:45:31.788Z</time>
      </trkpt>
      <trkpt lat="45.70655" lon="5.26347">
        <ele>335</ele>
        <time>2021-02-28T09:45:32.788Z</time>
      </trkpt>
      <trkpt lat="45.70665" lon="5.26341">
        <ele>335</ele>
        <time>2021-02-28T09:45:33.787Z</time>
      </trkpt>
      <trkpt lat="45.70674" lon="5.26336">
        <ele>334</ele>
        <time>2021-02-28T09:45:34.788Z</time>
      </trkpt>
      <trkpt lat="45.70684" lon="5.26331">
        <ele>333</ele>
        <time>2021-02-28T09:45:35.787Z</time>
      </trkpt>
      <trkpt lat="45.70691" lon="5.26325">
        <ele>333</ele>
        <time>2021-02-28T09:45:36.788Z</time>
      </trkpt>
      <trkpt lat="45.707" lon="5.26316">
        <ele>332</ele>
        <time>2021-02-28T09:45:37.787Z</time>
      </trkpt>
      <trkpt lat="45.7071" lon="5.26305">
        <ele>332</ele>
        <time>2021-02-28T09:45:38.788Z</time>
      </trkpt>
      <trkpt lat="45.70717" lon="5.26294">
        <ele>331</ele>
        <time>2021-02-28T09:45:39.788Z</time>
      </trkpt>
      <trkpt lat="45.70723" lon="5.26282">
        <ele>331</ele>
        <time>2021-02-28T09:45:40.788Z</time>
      </trkpt>
      <trkpt lat="45.70726" lon="5.26271">
        <ele>331</ele>
        <time>2021-02-28T09:45:41.788Z</time>
      </trkpt>
      <trkpt lat="45.7073" lon="5.26257">
        <ele>330</ele>
        <time>2021-02-28T09:45:42.788Z</time>
      </trkpt>
      <trkpt lat="45.70732" lon="5.26243">
        <ele>330</ele>
        <time>2021-02-28T09:45:43.788Z</time>
      </trkpt>
      <trkpt lat="45.70734" lon="5.26227">
        <ele>330</ele>
        <time>2021-02-28T09:45:44.788Z</time>
      </trkpt>
      <trkpt lat="45.70736" lon="5.26212">
        <ele>329</ele>
        <time>2021-02-28T09:45:45.787Z</time>
      </trkpt>
      <trkpt lat="45.70738" lon="5.26197">
        <ele>329</ele>
        <time>2021-02-28T09:45:46.787Z</time>
      </trkpt>
      <trkpt lat="45.70741" lon="5.26183">
        <ele>329</ele>
        <time>2021-02-28T09:45:47.788Z</time>
      </trkpt>
      <trkpt lat="45.70746" lon="5.2617">
        <ele>328</ele>
        <time>2021-02-28T09:45:48.788Z</time>
      </trkpt>
      <trkpt lat="45.70751" lon="5.26158">
        <ele>327</ele>
        <time>2021-02-28T09:45:49.787Z</time>
      </trkpt>
      <trkpt lat="45.70757" lon="5.26147">
        <ele>327</ele>
        <time>2021-02-28T09:45:50.788Z</time>
      </trkpt>
      <trkpt lat="45.70764" lon="5.26136">
        <ele>326</ele>
        <time>2021-02-28T09:45:51.788Z</time>
      </trkpt>
      <trkpt lat="45.70771" lon="5.26125">
        <ele>325</ele>
        <time>2021-02-28T09:45:52.788Z</time>
      </trkpt>
      <trkpt lat="45.70778" lon="5.26114">
        <ele>324</ele>
        <time>2021-02-28T09:45:53.787Z</time>
      </trkpt>
      <trkpt lat="45.70783" lon="5.26102">
        <ele>323</ele>
        <time>2021-02-28T09:45:54.788Z</time>
      </trkpt>
      <trkpt lat="45.70792" lon="5.26088">
        <ele>323</ele>
        <time>2021-02-28T09:45:55.787Z</time>
      </trkpt>
      <trkpt lat="45.70799" lon="5.26077">
        <ele>322</ele>
        <time>2021-02-28T09:45:56.788Z</time>
      </trkpt>
      <trkpt lat="45.70805" lon="5.2607">
        <ele>321</ele>
        <time>2021-02-28T09:45:57.787Z</time>
      </trkpt>
      <trkpt lat="45.70813" lon="5.26061">
        <ele>320</ele>
        <time>2021-02-28T09:45:58.787Z</time>
      </trkpt>
      <trkpt lat="45.70821" lon="5.26051">
        <ele>319</ele>
        <time>2021-02-28T09:45:59.787Z</time>
      </trkpt>
      <trkpt lat="45.70831" lon="5.2604">
        <ele>318</ele>
        <time>2021-02-28T09:46:00.787Z</time>
      </trkpt>
      <trkpt lat="45.70839" lon="5.26031">
        <ele>317</ele>
        <time>2021-02-28T09:46:01.788Z</time>
      </trkpt>
      <trkpt lat="45.70848" lon="5.26022">
        <ele>316</ele>
        <time>2021-02-28T09:46:02.788Z</time>
      </trkpt>
      <trkpt lat="45.70854" lon="5.26016">
        <ele>315</ele>
        <time>2021-02-28T09:46:03.788Z</time>
      </trkpt>
      <trkpt lat="45.70866" lon="5.26009">
        <ele>315</ele>
        <time>2021-02-28T09:46:04.788Z</time>
      </trkpt>
      <trkpt lat="45.70876" lon="5.26004">
        <ele>314</ele>
        <time>2021-02-28T09:46:05.788Z</time>
      </trkpt>
      <trkpt lat="45.70886" lon="5.26001">
        <ele>313</ele>
        <time>2021-02-28T09:46:06.788Z</time>
      </trkpt>
      <trkpt lat="45.70894" lon="5.26001">
        <ele>313</ele>
        <time>2021-02-28T09:46:07.788Z</time>
      </trkpt>
      <trkpt lat="45.70905" lon="5.26">
        <ele>312</ele>
        <time>2021-02-28T09:46:08.788Z</time>
      </trkpt>
      <trkpt lat="45.70915" lon="5.26001">
        <ele>312</ele>
        <time>2021-02-28T09:46:09.788Z</time>
      </trkpt>
      <trkpt lat="45.70925" lon="5.26001">
        <ele>311</ele>
        <time>2021-02-28T09:46:10.788Z</time>
      </trkpt>
      <trkpt lat="45.70935" lon="5.26002">
        <ele>311</ele>
        <time>2021-02-28T09:46:11.788Z</time>
      </trkpt>
      <trkpt lat="45.70945" lon="5.26005">
        <ele>311</ele>
        <time>2021-02-28T09:46:12.787Z</time>
      </trkpt>
      <trkpt lat="45.70954" lon="5.2601">
        <ele>311</ele>
        <time>2021-02-28T09:46:13.788Z</time>
      </trkpt>
      <trkpt lat="45.70962" lon="5.26016">
        <ele>311</ele>
        <time>2021-02-28T09:46:14.787Z</time>
      </trkpt>
      <trkpt lat="45.70972" lon="5.26025">
        <ele>310</ele>
        <time>2021-02-28T09:46:15.788Z</time>
      </trkpt>
      <trkpt lat="45.70979" lon="5.26032">
        <ele>310</ele>
        <time>2021-02-28T09:46:16.788Z</time>
      </trkpt>
      <trkpt lat="45.70988" lon="5.2604">
        <ele>309</ele>
        <time>2021-02-28T09:46:17.787Z</time>
      </trkpt>
      <trkpt lat="45.70996" lon="5.26049">
        <ele>310</ele>
        <time>2021-02-28T09:46:18.788Z</time>
      </trkpt>
      <trkpt lat="45.71004" lon="5.26057">
        <ele>310</ele>
        <time>2021-02-28T09:46:19.788Z</time>
      </trkpt>
      <trkpt lat="45.71013" lon="5.26066">
        <ele>310</ele>
        <time>2021-02-28T09:46:20.787Z</time>
      </trkpt>
      <trkpt lat="45.7102" lon="5.26075">
        <ele>310</ele>
        <time>2021-02-28T09:46:21.788Z</time>
      </trkpt>
      <trkpt lat="45.71029" lon="5.26083">
        <ele>310</ele>
        <time>2021-02-28T09:46:22.788Z</time>
      </trkpt>
      <trkpt lat="45.71036" lon="5.26091">
        <ele>310</ele>
        <time>2021-02-28T09:46:23.787Z</time>
      </trkpt>
      <trkpt lat="45.71044" lon="5.26098">
        <ele>309</ele>
        <time>2021-02-28T09:46:24.788Z</time>
      </trkpt>
      <trkpt lat="45.71051" lon="5.26105">
        <ele>309</ele>
        <time>2021-02-28T09:46:25.788Z</time>
      </trkpt>
      <trkpt lat="45.71057" lon="5.26112">
        <ele>308</ele>
        <time>2021-02-28T09:46:26.788Z</time>
      </trkpt>
      <trkpt lat="45.71064" lon="5.26119">
        <ele>308</ele>
        <time>2021-02-28T09:46:27.788Z</time>
      </trkpt>
      <trkpt lat="45.7107" lon="5.26126">
        <ele>307</ele>
        <time>2021-02-28T09:46:28.788Z</time>
      </trkpt>
      <trkpt lat="45.71074" lon="5.26131">
        <ele>307</ele>
        <time>2021-02-28T09:46:29.788Z</time>
      </trkpt>
      <trkpt lat="45.71078" lon="5.26136">
        <ele>306</ele>
        <time>2021-02-28T09:46:30.788Z</time>
      </trkpt>
      <trkpt lat="45.71081" lon="5.26141">
        <ele>306</ele>
        <time>2021-02-28T09:46:31.788Z</time>
      </trkpt>
      <trkpt lat="45.71085" lon="5.26145">
        <ele>305</ele>
        <time>2021-02-28T09:46:32.788Z</time>
      </trkpt>
      <trkpt lat="45.71088" lon="5.26149">
        <ele>304</ele>
        <time>2021-02-28T09:46:33.788Z</time>
      </trkpt>
      <trkpt lat="45.71092" lon="5.26154">
        <ele>304</ele>
        <time>2021-02-28T09:46:34.788Z</time>
      </trkpt>
      <trkpt lat="45.71096" lon="5.26159">
        <ele>303</ele>
        <time>2021-02-28T09:46:35.788Z</time>
      </trkpt>
      <trkpt lat="45.71098" lon="5.26163">
        <ele>303</ele>
        <time>2021-02-28T09:46:36.788Z</time>
      </trkpt>
      <trkpt lat="45.71101" lon="5.26167">
        <ele>303</ele>
        <time>2021-02-28T09:46:37.788Z</time>
      </trkpt>
      <trkpt lat="45.71104" lon="5.2617">
        <ele>302</ele>
        <time>2021-02-28T09:46:38.787Z</time>
      </trkpt>
      <trkpt lat="45.71106" lon="5.26173">
        <ele>302</ele>
        <time>2021-02-28T09:46:39.788Z</time>
      </trkpt>
      <trkpt lat="45.71109" lon="5.26176">
        <ele>302</ele>
        <time>2021-02-28T09:46:40.788Z</time>
      </trkpt>
      <trkpt lat="45.71111" lon="5.26178">
        <ele>302</ele>
        <time>2021-02-28T09:46:41.788Z</time>
      </trkpt>
      <trkpt lat="45.71114" lon="5.2618">
        <ele>301</ele>
        <time>2021-02-28T09:46:42.788Z</time>
      </trkpt>
      <trkpt lat="45.71117" lon="5.26181">
        <ele>301</ele>
        <time>2021-02-28T09:46:43.788Z</time>
      </trkpt>
      <trkpt lat="45.7112" lon="5.26181">
        <ele>301</ele>
        <time>2021-02-28T09:46:44.787Z</time>
      </trkpt>
      <trkpt lat="45.71124" lon="5.26181">
        <ele>301</ele>
        <time>2021-02-28T09:46:45.788Z</time>
      </trkpt>
      <trkpt lat="45.71128" lon="5.26179">
        <ele>301</ele>
        <time>2021-02-28T09:46:46.787Z</time>
      </trkpt>
      <trkpt lat="45.71131" lon="5.26176">
        <ele>300</ele>
        <time>2021-02-28T09:46:47.788Z</time>
      </trkpt>
      <trkpt lat="45.71135" lon="5.26171">
        <ele>300</ele>
        <time>2021-02-28T09:46:48.788Z</time>
      </trkpt>
      <trkpt lat="45.71138" lon="5.26166">
        <ele>299</ele>
        <time>2021-02-28T09:46:49.788Z</time>
      </trkpt>
      <trkpt lat="45.71143" lon="5.26159">
        <ele>298</ele>
        <time>2021-02-28T09:46:50.788Z</time>
      </trkpt>
      <trkpt lat="45.71146" lon="5.26154">
        <ele>298</ele>
        <time>2021-02-28T09:46:51.788Z</time>
      </trkpt>
      <trkpt lat="45.71151" lon="5.26147">
        <ele>297</ele>
        <time>2021-02-28T09:46:52.788Z</time>
      </trkpt>
      <trkpt lat="45.71156" lon="5.2614">
        <ele>296</ele>
        <time>2021-02-28T09:46:53.787Z</time>
      </trkpt>
      <trkpt lat="45.71161" lon="5.26132">
        <ele>295</ele>
        <time>2021-02-28T09:46:54.787Z</time>
      </trkpt>
      <trkpt lat="45.71166" lon="5.26125">
        <ele>295</ele>
        <time>2021-02-28T09:46:55.788Z</time>
      </trkpt>
      <trkpt lat="45.71172" lon="5.26117">
        <ele>295</ele>
        <time>2021-02-28T09:46:56.788Z</time>
      </trkpt>
      <trkpt lat="45.71178" lon="5.2611">
        <ele>294</ele>
        <time>2021-02-28T09:46:57.788Z</time>
      </trkpt>
      <trkpt lat="45.71185" lon="5.26103">
        <ele>294</ele>
        <time>2021-02-28T09:46:58.788Z</time>
      </trkpt>
      <trkpt lat="45.71191" lon="5.26096">
        <ele>294</ele>
        <time>2021-02-28T09:46:59.788Z</time>
      </trkpt>
      <trkpt lat="45.71198" lon="5.26089">
        <ele>293</ele>
        <time>2021-02-28T09:47:00.788Z</time>
      </trkpt>
      <trkpt lat="45.71205" lon="5.26082">
        <ele>293</ele>
        <time>2021-02-28T09:47:01.788Z</time>
      </trkpt>
      <trkpt lat="45.71211" lon="5.26076">
        <ele>293</ele>
        <time>2021-02-28T09:47:02.788Z</time>
      </trkpt>
      <trkpt lat="45.71218" lon="5.2607">
        <ele>293</ele>
        <time>2021-02-28T09:47:03.788Z</time>
      </trkpt>
      <trkpt lat="45.71224" lon="5.26065">
        <ele>293</ele>
        <time>2021-02-28T09:47:04.788Z</time>
      </trkpt>
      <trkpt lat="45.71231" lon="5.26061">
        <ele>293</ele>
        <time>2021-02-28T09:47:05.788Z</time>
      </trkpt>
      <trkpt lat="45.71237" lon="5.26059">
        <ele>292</ele>
        <time>2021-02-28T09:47:06.788Z</time>
      </trkpt>
      <trkpt lat="45.71243" lon="5.2606">
        <ele>292</ele>
        <time>2021-02-28T09:47:07.788Z</time>
      </trkpt>
      <trkpt lat="45.71249" lon="5.26065">
        <ele>291</ele>
        <time>2021-02-28T09:47:08.788Z</time>
      </trkpt>
      <trkpt lat="45.71254" lon="5.26072">
        <ele>291</ele>
        <time>2021-02-28T09:47:09.788Z</time>
      </trkpt>
      <trkpt lat="45.71256" lon="5.26081">
        <ele>290</ele>
        <time>2021-02-28T09:47:10.787Z</time>
      </trkpt>
      <trkpt lat="45.71256" lon="5.26092">
        <ele>290</ele>
        <time>2021-02-28T09:47:11.787Z</time>
      </trkpt>
      <trkpt lat="45.71253" lon="5.26104">
        <ele>289</ele>
        <time>2021-02-28T09:47:12.787Z</time>
      </trkpt>
      <trkpt lat="45.71249" lon="5.26115">
        <ele>289</ele>
        <time>2021-02-28T09:47:13.788Z</time>
      </trkpt>
      <trkpt lat="45.71243" lon="5.26125">
        <ele>289</ele>
        <time>2021-02-28T09:47:14.788Z</time>
      </trkpt>
      <trkpt lat="45.71237" lon="5.26135">
        <ele>288</ele>
        <time>2021-02-28T09:47:15.788Z</time>
      </trkpt>
      <trkpt lat="45.71231" lon="5.26146">
        <ele>288</ele>
        <time>2021-02-28T09:47:16.788Z</time>
      </trkpt>
      <trkpt lat="45.71226" lon="5.26158">
        <ele>287</ele>
        <time>2021-02-28T09:47:17.788Z</time>
      </trkpt>
      <trkpt lat="45.71221" lon="5.2617">
        <ele>287</ele>
        <time>2021-02-28T09:47:18.788Z</time>
      </trkpt>
      <trkpt lat="45.71216" lon="5.26182">
        <ele>287</ele>
        <time>2021-02-28T09:47:19.788Z</time>
      </trkpt>
      <trkpt lat="45.71212" lon="5.26195">
        <ele>287</ele>
        <time>2021-02-28T09:47:20.788Z</time>
      </trkpt>
      <trkpt lat="45.71209" lon="5.26207">
        <ele>287</ele>
        <time>2021-02-28T09:47:21.788Z</time>
      </trkpt>
      <trkpt lat="45.71206" lon="5.26219">
        <ele>286</ele>
        <time>2021-02-28T09:47:22.788Z</time>
      </trkpt>
      <trkpt lat="45.71204" lon="5.2623">
        <ele>285</ele>
        <time>2021-02-28T09:47:23.788Z</time>
      </trkpt>
      <trkpt lat="45.71204" lon="5.26242">
        <ele>285</ele>
        <time>2021-02-28T09:47:24.788Z</time>
      </trkpt>
      <trkpt lat="45.71204" lon="5.26255">
        <ele>284</ele>
        <time>2021-02-28T09:47:25.788Z</time>
      </trkpt>
      <trkpt lat="45.71206" lon="5.26266">
        <ele>283</ele>
        <time>2021-02-28T09:47:26.788Z</time>
      </trkpt>
      <trkpt lat="45.7121" lon="5.26276">
        <ele>282</ele>
        <time>2021-02-28T09:47:27.788Z</time>
      </trkpt>
      <trkpt lat="45.71216" lon="5.26284">
        <ele>281</ele>
        <time>2021-02-28T09:47:28.787Z</time>
      </trkpt>
      <trkpt lat="45.71223" lon="5.2629">
        <ele>280</ele>
        <time>2021-02-28T09:47:29.788Z</time>
      </trkpt>
      <trkpt lat="45.71232" lon="5.26294">
        <ele>280</ele>
        <time>2021-02-28T09:47:30.788Z</time>
      </trkpt>
      <trkpt lat="45.7124" lon="5.26296">
        <ele>279</ele>
        <time>2021-02-28T09:47:31.788Z</time>
      </trkpt>
      <trkpt lat="45.71249" lon="5.26298">
        <ele>279</ele>
        <time>2021-02-28T09:47:32.787Z</time>
      </trkpt>
      <trkpt lat="45.71259" lon="5.26299">
        <ele>279</ele>
        <time>2021-02-28T09:47:33.788Z</time>
      </trkpt>
      <trkpt lat="45.71269" lon="5.263">
        <ele>279</ele>
        <time>2021-02-28T09:47:34.788Z</time>
      </trkpt>
      <trkpt lat="45.71279" lon="5.26301">
        <ele>278</ele>
        <time>2021-02-28T09:47:35.787Z</time>
      </trkpt>
      <trkpt lat="45.7129" lon="5.26302">
        <ele>278</ele>
        <time>2021-02-28T09:47:36.787Z</time>
      </trkpt>
      <trkpt lat="45.713" lon="5.26302">
        <ele>277</ele>
        <time>2021-02-28T09:47:37.787Z</time>
      </trkpt>
      <trkpt lat="45.7131" lon="5.26303">
        <ele>276</ele>
        <time>2021-02-28T09:47:38.787Z</time>
      </trkpt>
      <trkpt lat="45.7132" lon="5.26303">
        <ele>276</ele>
        <time>2021-02-28T09:47:39.788Z</time>
      </trkpt>
      <trkpt lat="45.7133" lon="5.26304">
        <ele>275</ele>
        <time>2021-02-28T09:47:40.787Z</time>
      </trkpt>
      <trkpt lat="45.71339" lon="5.26305">
        <ele>275</ele>
        <time>2021-02-28T09:47:41.788Z</time>
      </trkpt>
      <trkpt lat="45.71348" lon="5.26308">
        <ele>275</ele>
        <time>2021-02-28T09:47:42.788Z</time>
      </trkpt>
      <trkpt lat="45.71357" lon="5.26313">
        <ele>275</ele>
        <time>2021-02-28T09:47:43.787Z</time>
      </trkpt>
      <trkpt lat="45.71365" lon="5.2632">
        <ele>275</ele>
        <time>2021-02-28T09:47:44.788Z</time>
      </trkpt>
      <trkpt lat="45.71373" lon="5.26327">
        <ele>274</ele>
        <time>2021-02-28T09:47:45.788Z</time>
      </trkpt>
      <trkpt lat="45.7138" lon="5.26334">
        <ele>274</ele>
        <time>2021-02-28T09:47:46.788Z</time>
      </trkpt>
      <trkpt lat="45.71387" lon="5.2634">
        <ele>274</ele>
        <time>2021-02-28T09:47:47.788Z</time>
      </trkpt>
      <trkpt lat="45.71395" lon="5.26343">
        <ele>273</ele>
        <time>2021-02-28T09:47:48.787Z</time>
      </trkpt>
      <trkpt lat="45.71403" lon="5.26344">
        <ele>273</ele>
        <time>2021-02-28T09:47:49.787Z</time>
      </trkpt>
      <trkpt lat="45.71411" lon="5.26342">
        <ele>272</ele>
        <time>2021-02-28T09:47:50.787Z</time>
      </trkpt>
      <trkpt lat="45.7142" lon="5.26339">
        <ele>272</ele>
        <time>2021-02-28T09:47:51.787Z</time>
      </trkpt>
      <trkpt lat="45.71427" lon="5.26334">
        <ele>271</ele>
        <time>2021-02-28T09:47:52.788Z</time>
      </trkpt>
      <trkpt lat="45.71434" lon="5.26327">
        <ele>270</ele>
        <time>2021-02-28T09:47:53.787Z</time>
      </trkpt>
      <trkpt lat="45.71441" lon="5.26315">
        <ele>269</ele>
        <time>2021-02-28T09:47:54.788Z</time>
      </trkpt>
      <trkpt lat="45.71448" lon="5.26305">
        <ele>269</ele>
        <time>2021-02-28T09:47:55.788Z</time>
      </trkpt>
      <trkpt lat="45.71453" lon="5.26293">
        <ele>269</ele>
        <time>2021-02-28T09:47:56.787Z</time>
      </trkpt>
      <trkpt lat="45.71455" lon="5.26279">
        <ele>268</ele>
        <time>2021-02-28T09:47:57.788Z</time>
      </trkpt>
      <trkpt lat="45.71456" lon="5.26266">
        <ele>268</ele>
        <time>2021-02-28T09:47:58.788Z</time>
      </trkpt>
      <trkpt lat="45.71457" lon="5.26254">
        <ele>267</ele>
        <time>2021-02-28T09:47:59.788Z</time>
      </trkpt>
      <trkpt lat="45.71457" lon="5.26243">
        <ele>267</ele>
        <time>2021-02-28T09:48:00.788Z</time>
      </trkpt>
      <trkpt lat="45.71458" lon="5.26236">
        <ele>266</ele>
        <time>2021-02-28T09:48:01.788Z</time>
      </trkpt>
      <trkpt lat="45.71462" lon="5.26232">
        <ele>266</ele>
        <time>2021-02-28T09:48:02.787Z</time>
      </trkpt>
      <trkpt lat="45.71466" lon="5.26233">
        <ele>265</ele>
        <time>2021-02-28T09:48:03.788Z</time>
      </trkpt>
      <trkpt lat="45.71469" lon="5.26238">
        <ele>264</ele>
        <time>2021-02-28T09:48:04.788Z</time>
      </trkpt>
      <trkpt lat="45.71469" lon="5.26245">
        <ele>264</ele>
        <time>2021-02-28T09:48:05.788Z</time>
      </trkpt>
      <trkpt lat="45.71468" lon="5.26255">
        <ele>263</ele>
        <time>2021-02-28T09:48:06.788Z</time>
      </trkpt>
      <trkpt lat="45.71467" lon="5.26266">
        <ele>262</ele>
        <time>2021-02-28T09:48:07.788Z</time>
      </trkpt>
      <trkpt lat="45.71467" lon="5.26276">
        <ele>261</ele>
        <time>2021-02-28T09:48:08.788Z</time>
      </trkpt>
      <trkpt lat="45.71467" lon="5.26287">
        <ele>261</ele>
        <time>2021-02-28T09:48:09.788Z</time>
      </trkpt>
      <trkpt lat="45.71467" lon="5.26298">
        <ele>260</ele>
        <time>2021-02-28T09:48:10.788Z</time>
      </trkpt>
      <trkpt lat="45.71468" lon="5.26309">
        <ele>260</ele>
        <time>2021-02-28T09:48:11.788Z</time>
      </trkpt>
      <trkpt lat="45.71469" lon="5.26319">
        <ele>259</ele>
        <time>2021-02-28T09:48:12.788Z</time>
      </trkpt>
      <trkpt lat="45.71471" lon="5.26327">
        <ele>259</ele>
        <time>2021-02-28T09:48:13.788Z</time>
      </trkpt>
      <trkpt lat="45.71476" lon="5.26334">
        <ele>258</ele>
        <time>2021-02-28T09:48:14.788Z</time>
      </trkpt>
      <trkpt lat="45.71481" lon="5.2634">
        <ele>258</ele>
        <time>2021-02-28T09:48:15.787Z</time>
      </trkpt>
      <trkpt lat="45.71487" lon="5.26344">
        <ele>258</ele>
        <time>2021-02-28T09:48:16.788Z</time>
      </trkpt>
      <trkpt lat="45.71496" lon="5.2635">
        <ele>259</ele>
        <time>2021-02-28T09:48:17.787Z</time>
      </trkpt>
      <trkpt lat="45.71502" lon="5.26354">
        <ele>259</ele>
        <time>2021-02-28T09:48:18.788Z</time>
      </trkpt>
      <trkpt lat="45.7151" lon="5.26357">
        <ele>259</ele>
        <time>2021-02-28T09:48:19.787Z</time>
      </trkpt>
      <trkpt lat="45.71516" lon="5.26359">
        <ele>258</ele>
        <time>2021-02-28T09:48:20.787Z</time>
      </trkpt>
      <trkpt lat="45.71523" lon="5.26359">
        <ele>258</ele>
        <time>2021-02-28T09:48:21.788Z</time>
      </trkpt>
      <trkpt lat="45.71529" lon="5.26356">
        <ele>258</ele>
        <time>2021-02-28T09:48:22.787Z</time>
      </trkpt>
      <trkpt lat="45.71534" lon="5.2635">
        <ele>257</ele>
        <time>2021-02-28T09:48:23.788Z</time>
      </trkpt>
      <trkpt lat="45.71537" lon="5.26342">
        <ele>257</ele>
        <time>2021-02-28T09:48:24.788Z</time>
      </trkpt>
      <trkpt lat="45.7154" lon="5.26334">
        <ele>257</ele>
        <time>2021-02-28T09:48:25.788Z</time>
      </trkpt>
      <trkpt lat="45.71541" lon="5.26325">
        <ele>257</ele>
        <time>2021-02-28T09:48:26.788Z</time>
      </trkpt>
      <trkpt lat="45.71541" lon="5.26316">
        <ele>257</ele>
        <time>2021-02-28T09:48:27.788Z</time>
      </trkpt>
      <trkpt lat="45.71541" lon="5.26308">
        <ele>256</ele>
        <time>2021-02-28T09:48:28.788Z</time>
      </trkpt>
      <trkpt lat="45.7154" lon="5.263">
        <ele>256</ele>
        <time>2021-02-28T09:48:29.788Z</time>
      </trkpt>
      <trkpt lat="45.71538" lon="5.26293">
        <ele>256</ele>
        <time>2021-02-28T09:48:30.788Z</time>
      </trkpt>
      <trkpt lat="45.71537" lon="5.26287">
        <ele>256</ele>
        <time>2021-02-28T09:48:31.788Z</time>
      </trkpt>
      <trkpt lat="45.71537" lon="5.26282">
        <ele>256</ele>
        <time>2021-02-28T09:48:32.788Z</time>
      </trkpt>
      <trkpt lat="45.71538" lon="5.26279">
        <ele>255</ele>
        <time>2021-02-28T09:48:33.788Z</time>
      </trkpt>
      <trkpt lat="45.7154" lon="5.26277">
        <ele>255</ele>
        <time>2021-02-28T09:48:34.788Z</time>
      </trkpt>
      <trkpt lat="45.7154" lon="5.26277">
        <ele>255</ele>
        <time>2021-02-28T09:48:35.788Z</time>
      </trkpt>
      <trkpt lat="45.71541" lon="5.26278">
        <ele>254</ele>
        <time>2021-02-28T09:48:36.788Z</time>
      </trkpt>
      <trkpt lat="45.71541" lon="5.26278">
        <ele>254</ele>
        <time>2021-02-28T09:48:37.788Z</time>
      </trkpt>
      <trkpt lat="45.71541" lon="5.26278">
        <ele>254</ele>
        <time>2021-02-28T09:48:38.788Z</time>
      </trkpt>
      <trkpt lat="45.7154" lon="5.26277">
        <ele>253</ele>
        <time>2021-02-28T09:48:39.789Z</time>
      </trkpt>
      <trkpt lat="45.71541" lon="5.26277">
        <ele>253</ele>
        <time>2021-02-28T09:48:40.788Z</time>
      </trkpt>
      <trkpt lat="45.71541" lon="5.26277">
        <ele>253</ele>
        <time>2021-02-28T09:48:41.789Z</time>
      </trkpt>
      <trkpt lat="45.71541" lon="5.26277">
        <ele>254</ele>
        <time>2021-02-28T09:48:42.789Z</time>
      </trkpt>
      <trkpt lat="45.71545" lon="5.26273">
        <ele>251</ele>
        <time>2021-02-28T09:48:43.790Z</time>
      </trkpt>
      <trkpt lat="45.71546" lon="5.26268">
        <ele>250</ele>
        <time>2021-02-28T09:48:44.790Z</time>
      </trkpt>
      <trkpt lat="45.71547" lon="5.26263">
        <ele>249</ele>
        <time>2021-02-28T09:48:45.790Z</time>
      </trkpt>
      <trkpt lat="45.71548" lon="5.26257">
        <ele>249</ele>
        <time>2021-02-28T09:48:46.789Z</time>
      </trkpt>
      <trkpt lat="45.71548" lon="5.2625">
        <ele>248</ele>
        <time>2021-02-28T09:48:47.790Z</time>
      </trkpt>
      <trkpt lat="45.71549" lon="5.26242">
        <ele>247</ele>
        <time>2021-02-28T09:48:48.790Z</time>
      </trkpt>
      <trkpt lat="45.71549" lon="5.26237">
        <ele>247</ele>
        <time>2021-02-28T09:48:49.789Z</time>
      </trkpt>
      <trkpt lat="45.71551" lon="5.26231">
        <ele>246</ele>
        <time>2021-02-28T09:48:50.789Z</time>
      </trkpt>
      <trkpt lat="45.71552" lon="5.26224">
        <ele>246</ele>
        <time>2021-02-28T09:48:51.789Z</time>
      </trkpt>
      <trkpt lat="45.71553" lon="5.26218">
        <ele>245</ele>
        <time>2021-02-28T09:48:52.789Z</time>
      </trkpt>
      <trkpt lat="45.71555" lon="5.26211">
        <ele>244</ele>
        <time>2021-02-28T09:48:53.790Z</time>
      </trkpt>
      <trkpt lat="45.71557" lon="5.26203">
        <ele>244</ele>
        <time>2021-02-28T09:48:54.789Z</time>
      </trkpt>
      <trkpt lat="45.71558" lon="5.26197">
        <ele>244</ele>
        <time>2021-02-28T09:48:55.790Z</time>
      </trkpt>
      <trkpt lat="45.7156" lon="5.26189">
        <ele>244</ele>
        <time>2021-02-28T09:48:56.790Z</time>
      </trkpt>
      <trkpt lat="45.71563" lon="5.26181">
        <ele>245</ele>
        <time>2021-02-28T09:48:57.790Z</time>
      </trkpt>
      <trkpt lat="45.71564" lon="5.26172">
        <ele>244</ele>
        <time>2021-02-28T09:48:58.789Z</time>
      </trkpt>
      <trkpt lat="45.71565" lon="5.26166">
        <ele>244</ele>
        <time>2021-02-28T09:48:59.790Z</time>
      </trkpt>
      <trkpt lat="45.71567" lon="5.26159">
        <ele>244</ele>
        <time>2021-02-28T09:49:00.789Z</time>
      </trkpt>
      <trkpt lat="45.71569" lon="5.26152">
        <ele>244</ele>
        <time>2021-02-28T09:49:01.790Z</time>
      </trkpt>
      <trkpt lat="45.71571" lon="5.26144">
        <ele>244</ele>
        <time>2021-02-28T09:49:02.790Z</time>
      </trkpt>
      <trkpt lat="45.71574" lon="5.26134">
        <ele>244</ele>
        <time>2021-02-28T09:49:03.789Z</time>
      </trkpt>
      <trkpt lat="45.71576" lon="5.26125">
        <ele>244</ele>
        <time>2021-02-28T09:49:04.789Z</time>
      </trkpt>
      <trkpt lat="45.71577" lon="5.26118">
        <ele>244</ele>
        <time>2021-02-28T09:49:05.790Z</time>
      </trkpt>
      <trkpt lat="45.71579" lon="5.26108">
        <ele>244</ele>
        <time>2021-02-28T09:49:06.790Z</time>
      </trkpt>
      <trkpt lat="45.71581" lon="5.26097">
        <ele>244</ele>
        <time>2021-02-28T09:49:07.789Z</time>
      </trkpt>
      <trkpt lat="45.71584" lon="5.26089">
        <ele>243</ele>
        <time>2021-02-28T09:49:08.790Z</time>
      </trkpt>
      <trkpt lat="45.71586" lon="5.2608">
        <ele>243</ele>
        <time>2021-02-28T09:49:09.790Z</time>
      </trkpt>
      <trkpt lat="45.71589" lon="5.2607">
        <ele>243</ele>
        <time>2021-02-28T09:49:10.789Z</time>
      </trkpt>
      <trkpt lat="45.71592" lon="5.2606">
        <ele>243</ele>
        <time>2021-02-28T09:49:11.789Z</time>
      </trkpt>
      <trkpt lat="45.71596" lon="5.26051">
        <ele>242</ele>
        <time>2021-02-28T09:49:12.789Z</time>
      </trkpt>
      <trkpt lat="45.716" lon="5.26043">
        <ele>242</ele>
        <time>2021-02-28T09:49:13.789Z</time>
      </trkpt>
      <trkpt lat="45.71605" lon="5.26032">
        <ele>242</ele>
        <time>2021-02-28T09:49:14.790Z</time>
      </trkpt>
      <trkpt lat="45.71609" lon="5.26026">
        <ele>241</ele>
        <time>2021-02-28T09:49:15.790Z</time>
      </trkpt>
      <trkpt lat="45.71614" lon="5.26019">
        <ele>241</ele>
        <time>2021-02-28T09:49:16.790Z</time>
      </trkpt>
      <trkpt lat="45.71619" lon="5.26011">
        <ele>240</ele>
        <time>2021-02-28T09:49:17.789Z</time>
      </trkpt>
      <trkpt lat="45.71625" lon="5.26002">
        <ele>240</ele>
        <time>2021-02-28T09:49:18.790Z</time>
      </trkpt>
      <trkpt lat="45.71629" lon="5.25997">
        <ele>240</ele>
        <time>2021-02-28T09:49:19.790Z</time>
      </trkpt>
      <trkpt lat="45.71635" lon="5.2599">
        <ele>239</ele>
        <time>2021-02-28T09:49:20.789Z</time>
      </trkpt>
      <trkpt lat="45.7164" lon="5.25983">
        <ele>238</ele>
        <time>2021-02-28T09:49:21.789Z</time>
      </trkpt>
      <trkpt lat="45.71645" lon="5.25976">
        <ele>238</ele>
        <time>2021-02-28T09:49:22.789Z</time>
      </trkpt>
      <trkpt lat="45.7165" lon="5.25966">
        <ele>238</ele>
        <time>2021-02-28T09:49:23.790Z</time>
      </trkpt>
      <trkpt lat="45.71654" lon="5.25957">
        <ele>238</ele>
        <time>2021-02-28T09:49:24.790Z</time>
      </trkpt>
      <trkpt lat="45.71659" lon="5.25949">
        <ele>238</ele>
        <time>2021-02-28T09:49:25.789Z</time>
      </trkpt>
      <trkpt lat="45.71665" lon="5.25942">
        <ele>238</ele>
        <time>2021-02-28T09:49:26.790Z</time>
      </trkpt>
      <trkpt lat="45.7167" lon="5.25934">
        <ele>238</ele>
        <time>2021-02-28T09:49:27.790Z</time>
      </trkpt>
      <trkpt lat="45.71674" lon="5.25926">
        <ele>238</ele>
        <time>2021-02-28T09:49:28.790Z</time>
      </trkpt>
      <trkpt lat="45.71679" lon="5.25917">
        <ele>237</ele>
        <time>2021-02-28T09:49:29.790Z</time>
      </trkpt>
      <trkpt lat="45.71683" lon="5.2591">
        <ele>237</ele>
        <time>2021-02-28T09:49:30.790Z</time>
      </trkpt>
      <trkpt lat="45.71687" lon="5.25901">
        <ele>237</ele>
        <time>2021-02-28T09:49:31.790Z</time>
      </trkpt>
      <trkpt lat="45.71692" lon="5.25894">
        <ele>237</ele>
        <time>2021-02-28T09:49:32.790Z</time>
      </trkpt>
      <trkpt lat="45.71697" lon="5.25887">
        <ele>237</ele>
        <time>2021-02-28T09:49:33.789Z</time>
      </trkpt>
      <trkpt lat="45.71701" lon="5.25879">
        <ele>236</ele>
        <time>2021-02-28T09:49:34.790Z</time>
      </trkpt>
      <trkpt lat="45.71704" lon="5.2587">
        <ele>236</ele>
        <time>2021-02-28T09:49:35.790Z</time>
      </trkpt>
      <trkpt lat="45.71708" lon="5.25861">
        <ele>236</ele>
        <time>2021-02-28T09:49:36.789Z</time>
      </trkpt>
      <trkpt lat="45.71711" lon="5.25853">
        <ele>236</ele>
        <time>2021-02-28T09:49:37.790Z</time>
      </trkpt>
      <trkpt lat="45.71715" lon="5.25846">
        <ele>235</ele>
        <time>2021-02-28T09:49:38.789Z</time>
      </trkpt>
      <trkpt lat="45.7172" lon="5.2584">
        <ele>235</ele>
        <time>2021-02-28T09:49:39.790Z</time>
      </trkpt>
      <trkpt lat="45.71724" lon="5.25831">
        <ele>235</ele>
        <time>2021-02-28T09:49:40.790Z</time>
      </trkpt>
      <trkpt lat="45.71728" lon="5.25822">
        <ele>234</ele>
        <time>2021-02-28T09:49:41.789Z</time>
      </trkpt>
      <trkpt lat="45.71732" lon="5.25815">
        <ele>234</ele>
        <time>2021-02-28T09:49:42.789Z</time>
      </trkpt>
      <trkpt lat="45.71737" lon="5.25808">
        <ele>234</ele>
        <time>2021-02-28T09:49:43.790Z</time>
      </trkpt>
      <trkpt lat="45.71742" lon="5.258">
        <ele>234</ele>
        <time>2021-02-28T09:49:44.789Z</time>
      </trkpt>
      <trkpt lat="45.71745" lon="5.25794">
        <ele>234</ele>
        <time>2021-02-28T09:49:45.789Z</time>
      </trkpt>
      <trkpt lat="45.71749" lon="5.25784">
        <ele>234</ele>
        <time>2021-02-28T09:49:46.790Z</time>
      </trkpt>
      <trkpt lat="45.71753" lon="5.25772">
        <ele>233</ele>
        <time>2021-02-28T09:49:47.790Z</time>
      </trkpt>
      <trkpt lat="45.71758" lon="5.25763">
        <ele>233</ele>
        <time>2021-02-28T09:49:48.789Z</time>
      </trkpt>
      <trkpt lat="45.71763" lon="5.25755">
        <ele>233</ele>
        <time>2021-02-28T09:49:49.790Z</time>
      </trkpt>
      <trkpt lat="45.71767" lon="5.25746">
        <ele>233</ele>
        <time>2021-02-28T09:49:50.790Z</time>
      </trkpt>
      <trkpt lat="45.7177" lon="5.25737">
        <ele>233</ele>
        <time>2021-02-28T09:49:51.790Z</time>
      </trkpt>
      <trkpt lat="45.71774" lon="5.25728">
        <ele>233</ele>
        <time>2021-02-28T09:49:52.790Z</time>
      </trkpt>
      <trkpt lat="45.71778" lon="5.2572">
        <ele>233</ele>
        <time>2021-02-28T09:49:53.790Z</time>
      </trkpt>
      <trkpt lat="45.71781" lon="5.2571">
        <ele>232</ele>
        <time>2021-02-28T09:49:54.790Z</time>
      </trkpt>
      <trkpt lat="45.71784" lon="5.25701">
        <ele>232</ele>
        <time>2021-02-28T09:49:55.790Z</time>
      </trkpt>
      <trkpt lat="45.71786" lon="5.25692">
        <ele>232</ele>
        <time>2021-02-28T09:49:56.789Z</time>
      </trkpt>
      <trkpt lat="45.71788" lon="5.25682">
        <ele>232</ele>
        <time>2021-02-28T09:49:57.789Z</time>
      </trkpt>
      <trkpt lat="45.71791" lon="5.25673">
        <ele>232</ele>
        <time>2021-02-28T09:49:58.790Z</time>
      </trkpt>
      <trkpt lat="45.71793" lon="5.25664">
        <ele>233</ele>
        <time>2021-02-28T09:49:59.789Z</time>
      </trkpt>
      <trkpt lat="45.71793" lon="5.25653">
        <ele>233</ele>
        <time>2021-02-28T09:50:00.789Z</time>
      </trkpt>
      <trkpt lat="45.71794" lon="5.25642">
        <ele>232</ele>
        <time>2021-02-28T09:50:01.789Z</time>
      </trkpt>
      <trkpt lat="45.71797" lon="5.25633">
        <ele>232</ele>
        <time>2021-02-28T09:50:02.790Z</time>
      </trkpt>
      <trkpt lat="45.71799" lon="5.25623">
        <ele>232</ele>
        <time>2021-02-28T09:50:03.790Z</time>
      </trkpt>
      <trkpt lat="45.71802" lon="5.25612">
        <ele>232</ele>
        <time>2021-02-28T09:50:04.790Z</time>
      </trkpt>
      <trkpt lat="45.71806" lon="5.25603">
        <ele>232</ele>
        <time>2021-02-28T09:50:05.790Z</time>
      </trkpt>
      <trkpt lat="45.71809" lon="5.25593">
        <ele>231</ele>
        <time>2021-02-28T09:50:06.790Z</time>
      </trkpt>
      <trkpt lat="45.71813" lon="5.25583">
        <ele>231</ele>
        <time>2021-02-28T09:50:07.789Z</time>
      </trkpt>
      <trkpt lat="45.71818" lon="5.25572">
        <ele>231</ele>
        <time>2021-02-28T09:50:08.789Z</time>
      </trkpt>
      <trkpt lat="45.71823" lon="5.25563">
        <ele>231</ele>
        <time>2021-02-28T09:50:09.789Z</time>
      </trkpt>
      <trkpt lat="45.7183" lon="5.25556">
        <ele>230</ele>
        <time>2021-02-28T09:50:10.789Z</time>
      </trkpt>
      <trkpt lat="45.71835" lon="5.25553">
        <ele>230</ele>
        <time>2021-02-28T09:50:11.789Z</time>
      </trkpt>
      <trkpt lat="45.71843" lon="5.2555">
        <ele>230</ele>
        <time>2021-02-28T09:50:12.789Z</time>
      </trkpt>
      <trkpt lat="45.71851" lon="5.2555">
        <ele>230</ele>
        <time>2021-02-28T09:50:13.790Z</time>
      </trkpt>
      <trkpt lat="45.71858" lon="5.25552">
        <ele>230</ele>
        <time>2021-02-28T09:50:14.789Z</time>
      </trkpt>
      <trkpt lat="45.71866" lon="5.25554">
        <ele>230</ele>
        <time>2021-02-28T09:50:15.790Z</time>
      </trkpt>
      <trkpt lat="45.71874" lon="5.25557">
        <ele>231</ele>
        <time>2021-02-28T09:50:16.790Z</time>
      </trkpt>
      <trkpt lat="45.71883" lon="5.2556">
        <ele>231</ele>
        <time>2021-02-28T09:50:17.789Z</time>
      </trkpt>
      <trkpt lat="45.71891" lon="5.25563">
        <ele>231</ele>
        <time>2021-02-28T09:50:18.789Z</time>
      </trkpt>
      <trkpt lat="45.71898" lon="5.25566">
        <ele>232</ele>
        <time>2021-02-28T09:50:19.790Z</time>
      </trkpt>
      <trkpt lat="45.71906" lon="5.25568">
        <ele>232</ele>
        <time>2021-02-28T09:50:20.789Z</time>
      </trkpt>
      <trkpt lat="45.71914" lon="5.25569">
        <ele>232</ele>
        <time>2021-02-28T09:50:21.790Z</time>
      </trkpt>
      <trkpt lat="45.71922" lon="5.25569">
        <ele>232</ele>
        <time>2021-02-28T09:50:22.789Z</time>
      </trkpt>
      <trkpt lat="45.7193" lon="5.25568">
        <ele>231</ele>
        <time>2021-02-28T09:50:23.790Z</time>
      </trkpt>
      <trkpt lat="45.71938" lon="5.25565">
        <ele>231</ele>
        <time>2021-02-28T09:50:24.790Z</time>
      </trkpt>
      <trkpt lat="45.71945" lon="5.25561">
        <ele>230</ele>
        <time>2021-02-28T09:50:25.789Z</time>
      </trkpt>
      <trkpt lat="45.71952" lon="5.25558">
        <ele>230</ele>
        <time>2021-02-28T09:50:26.789Z</time>
      </trkpt>
      <trkpt lat="45.71958" lon="5.25553">
        <ele>229</ele>
        <time>2021-02-28T09:50:27.790Z</time>
      </trkpt>
      <trkpt lat="45.71965" lon="5.25547">
        <ele>228</ele>
        <time>2021-02-28T09:50:28.789Z</time>
      </trkpt>
      <trkpt lat="45.71971" lon="5.2554">
        <ele>228</ele>
        <time>2021-02-28T09:50:29.789Z</time>
      </trkpt>
      <trkpt lat="45.71977" lon="5.25534">
        <ele>228</ele>
        <time>2021-02-28T09:50:30.790Z</time>
      </trkpt>
      <trkpt lat="45.71983" lon="5.25525">
        <ele>227</ele>
        <time>2021-02-28T09:50:31.790Z</time>
      </trkpt>
      <trkpt lat="45.71988" lon="5.25518">
        <ele>227</ele>
        <time>2021-02-28T09:50:32.789Z</time>
      </trkpt>
      <trkpt lat="45.71993" lon="5.25511">
        <ele>227</ele>
        <time>2021-02-28T09:50:33.790Z</time>
      </trkpt>
      <trkpt lat="45.71997" lon="5.25505">
        <ele>226</ele>
        <time>2021-02-28T09:50:34.790Z</time>
      </trkpt>
      <trkpt lat="45.72002" lon="5.25496">
        <ele>226</ele>
        <time>2021-02-28T09:50:35.790Z</time>
      </trkpt>
      <trkpt lat="45.72005" lon="5.25489">
        <ele>225</ele>
        <time>2021-02-28T09:50:36.790Z</time>
      </trkpt>
      <trkpt lat="45.72009" lon="5.25482">
        <ele>225</ele>
        <time>2021-02-28T09:50:37.789Z</time>
      </trkpt>
      <trkpt lat="45.72013" lon="5.25476">
        <ele>224</ele>
        <time>2021-02-28T09:50:38.789Z</time>
      </trkpt>
      <trkpt lat="45.72017" lon="5.2547">
        <ele>224</ele>
        <time>2021-02-28T09:50:39.790Z</time>
      </trkpt>
      <trkpt lat="45.7202" lon="5.25465">
        <ele>224</ele>
        <time>2021-02-28T09:50:40.789Z</time>
      </trkpt>
      <trkpt lat="45.72025" lon="5.25458">
        <ele>224</ele>
        <time>2021-02-28T09:50:41.790Z</time>
      </trkpt>
      <trkpt lat="45.7203" lon="5.25452">
        <ele>224</ele>
        <time>2021-02-28T09:50:42.790Z</time>
      </trkpt>
      <trkpt lat="45.72035" lon="5.25446">
        <ele>223</ele>
        <time>2021-02-28T09:50:43.789Z</time>
      </trkpt>
      <trkpt lat="45.72038" lon="5.2544">
        <ele>223</ele>
        <time>2021-02-28T09:50:44.790Z</time>
      </trkpt>
      <trkpt lat="45.72042" lon="5.25433">
        <ele>223</ele>
        <time>2021-02-28T09:50:45.790Z</time>
      </trkpt>
      <trkpt lat="45.72046" lon="5.25427">
        <ele>223</ele>
        <time>2021-02-28T09:50:46.789Z</time>
      </trkpt>
      <trkpt lat="45.72049" lon="5.25422">
        <ele>222</ele>
        <time>2021-02-28T09:50:47.790Z</time>
      </trkpt>
      <trkpt lat="45.72053" lon="5.25416">
        <ele>222</ele>
        <time>2021-02-28T09:50:48.790Z</time>
      </trkpt>
      <trkpt lat="45.72057" lon="5.25411">
        <ele>221</ele>
        <time>2021-02-28T09:50:49.790Z</time>
      </trkpt>
      <trkpt lat="45.72062" lon="5.25405">
        <ele>221</ele>
        <time>2021-02-28T09:50:50.789Z</time>
      </trkpt>
      <trkpt lat="45.72067" lon="5.25399">
        <ele>221</ele>
        <time>2021-02-28T09:50:51.789Z</time>
      </trkpt>
      <trkpt lat="45.72072" lon="5.25392">
        <ele>221</ele>
        <time>2021-02-28T09:50:52.790Z</time>
      </trkpt>
      <trkpt lat="45.72076" lon="5.25386">
        <ele>221</ele>
        <time>2021-02-28T09:50:53.790Z</time>
      </trkpt>
      <trkpt lat="45.72081" lon="5.2538">
        <ele>220</ele>
        <time>2021-02-28T09:50:54.790Z</time>
      </trkpt>
      <trkpt lat="45.72086" lon="5.25374">
        <ele>220</ele>
        <time>2021-02-28T09:50:55.789Z</time>
      </trkpt>
      <trkpt lat="45.7209" lon="5.25368">
        <ele>220</ele>
        <time>2021-02-28T09:50:56.789Z</time>
      </trkpt>
      <trkpt lat="45.72095" lon="5.25361">
        <ele>220</ele>
        <time>2021-02-28T09:50:57.790Z</time>
      </trkpt>
      <trkpt lat="45.721" lon="5.25355">
        <ele>219</ele>
        <time>2021-02-28T09:50:58.790Z</time>
      </trkpt>
      <trkpt lat="45.72106" lon="5.25348">
        <ele>219</ele>
        <time>2021-02-28T09:50:59.789Z</time>
      </trkpt>
      <trkpt lat="45.72111" lon="5.25342">
        <ele>219</ele>
        <time>2021-02-28T09:51:00.789Z</time>
      </trkpt>
      <trkpt lat="45.72117" lon="5.25336">
        <ele>219</ele>
        <time>2021-02-28T09:51:01.790Z</time>
      </trkpt>
      <trkpt lat="45.72122" lon="5.25329">
        <ele>219</ele>
        <time>2021-02-28T09:51:02.789Z</time>
      </trkpt>
      <trkpt lat="45.72127" lon="5.25323">
        <ele>219</ele>
        <time>2021-02-28T09:51:03.789Z</time>
      </trkpt>
      <trkpt lat="45.72133" lon="5.25317">
        <ele>219</ele>
        <time>2021-02-28T09:51:04.790Z</time>
      </trkpt>
      <trkpt lat="45.72138" lon="5.2531">
        <ele>219</ele>
        <time>2021-02-28T09:51:05.790Z</time>
      </trkpt>
      <trkpt lat="45.72143" lon="5.25306">
        <ele>219</ele>
        <time>2021-02-28T09:51:06.789Z</time>
      </trkpt>
      <trkpt lat="45.7215" lon="5.25299">
        <ele>219</ele>
        <time>2021-02-28T09:51:07.789Z</time>
      </trkpt>
      <trkpt lat="45.72156" lon="5.25294">
        <ele>219</ele>
        <time>2021-02-28T09:51:08.790Z</time>
      </trkpt>
      <trkpt lat="45.72162" lon="5.2529">
        <ele>219</ele>
        <time>2021-02-28T09:51:09.790Z</time>
      </trkpt>
      <trkpt lat="45.72166" lon="5.25288">
        <ele>219</ele>
        <time>2021-02-28T09:51:10.789Z</time>
      </trkpt>
      <trkpt lat="45.72171" lon="5.25286">
        <ele>219</ele>
        <time>2021-02-28T09:51:11.790Z</time>
      </trkpt>
      <trkpt lat="45.72174" lon="5.25284">
        <ele>219</ele>
        <time>2021-02-28T09:51:12.789Z</time>
      </trkpt>
      <trkpt lat="45.72177" lon="5.25283">
        <ele>219</ele>
        <time>2021-02-28T09:51:13.789Z</time>
      </trkpt>
      <trkpt lat="45.7218" lon="5.25283">
        <ele>219</ele>
        <time>2021-02-28T09:51:14.789Z</time>
      </trkpt>
      <trkpt lat="45.72182" lon="5.25282">
        <ele>219</ele>
        <time>2021-02-28T09:51:15.790Z</time>
      </trkpt>
      <trkpt lat="45.72184" lon="5.25282">
        <ele>218</ele>
        <time>2021-02-28T09:51:16.789Z</time>
      </trkpt>
      <trkpt lat="45.72186" lon="5.25281">
        <ele>218</ele>
        <time>2021-02-28T09:51:17.790Z</time>
      </trkpt>
      <trkpt lat="45.72189" lon="5.25281">
        <ele>218</ele>
        <time>2021-02-28T09:51:18.789Z</time>
      </trkpt>
      <trkpt lat="45.72191" lon="5.25281">
        <ele>218</ele>
        <time>2021-02-28T09:51:19.789Z</time>
      </trkpt>
      <trkpt lat="45.72194" lon="5.25282">
        <ele>218</ele>
        <time>2021-02-28T09:51:20.790Z</time>
      </trkpt>
      <trkpt lat="45.72197" lon="5.25281">
        <ele>218</ele>
        <time>2021-02-28T09:51:21.790Z</time>
      </trkpt>
      <trkpt lat="45.722" lon="5.25282">
        <ele>218</ele>
        <time>2021-02-28T09:51:22.790Z</time>
      </trkpt>
      <trkpt lat="45.72203" lon="5.25282">
        <ele>218</ele>
        <time>2021-02-28T09:51:23.790Z</time>
      </trkpt>
      <trkpt lat="45.72208" lon="5.25283">
        <ele>218</ele>
        <time>2021-02-28T09:51:24.789Z</time>
      </trkpt>
      <trkpt lat="45.72212" lon="5.25284">
        <ele>218</ele>
        <time>2021-02-28T09:51:25.789Z</time>
      </trkpt>
      <trkpt lat="45.72217" lon="5.25286">
        <ele>218</ele>
        <time>2021-02-28T09:51:26.790Z</time>
      </trkpt>
      <trkpt lat="45.72221" lon="5.25287">
        <ele>218</ele>
        <time>2021-02-28T09:51:27.789Z</time>
      </trkpt>
      <trkpt lat="45.72226" lon="5.25289">
        <ele>218</ele>
        <time>2021-02-28T09:51:28.790Z</time>
      </trkpt>
      <trkpt lat="45.7223" lon="5.25291">
        <ele>218</ele>
        <time>2021-02-28T09:51:29.790Z</time>
      </trkpt>
      <trkpt lat="45.72236" lon="5.25294">
        <ele>218</ele>
        <time>2021-02-28T09:51:30.789Z</time>
      </trkpt>
      <trkpt lat="45.72242" lon="5.25297">
        <ele>218</ele>
        <time>2021-02-28T09:51:31.790Z</time>
      </trkpt>
      <trkpt lat="45.72247" lon="5.253">
        <ele>218</ele>
        <time>2021-02-28T09:51:32.789Z</time>
      </trkpt>
      <trkpt lat="45.72253" lon="5.25303">
        <ele>219</ele>
        <time>2021-02-28T09:51:33.790Z</time>
      </trkpt>
      <trkpt lat="45.72259" lon="5.25306">
        <ele>219</ele>
        <time>2021-02-28T09:51:34.789Z</time>
      </trkpt>
      <trkpt lat="45.72265" lon="5.25308">
        <ele>220</ele>
        <time>2021-02-28T09:51:35.789Z</time>
      </trkpt>
      <trkpt lat="45.7227" lon="5.25311">
        <ele>220</ele>
        <time>2021-02-28T09:51:36.789Z</time>
      </trkpt>
      <trkpt lat="45.72276" lon="5.25314">
        <ele>220</ele>
        <time>2021-02-28T09:51:37.790Z</time>
      </trkpt>
      <trkpt lat="45.72281" lon="5.25316">
        <ele>221</ele>
        <time>2021-02-28T09:51:38.790Z</time>
      </trkpt>
      <trkpt lat="45.72287" lon="5.25319">
        <ele>221</ele>
        <time>2021-02-28T09:51:39.790Z</time>
      </trkpt>
      <trkpt lat="45.72292" lon="5.25322">
        <ele>222</ele>
        <time>2021-02-28T09:51:40.790Z</time>
      </trkpt>
      <trkpt lat="45.72298" lon="5.25324">
        <ele>223</ele>
        <time>2021-02-28T09:51:41.789Z</time>
      </trkpt>
      <trkpt lat="45.72303" lon="5.25327">
        <ele>224</ele>
        <time>2021-02-28T09:51:42.789Z</time>
      </trkpt>
      <trkpt lat="45.72308" lon="5.25329">
        <ele>224</ele>
        <time>2021-02-28T09:51:43.790Z</time>
      </trkpt>
      <trkpt lat="45.72314" lon="5.25331">
        <ele>225</ele>
        <time>2021-02-28T09:51:44.789Z</time>
      </trkpt>
      <trkpt lat="45.72321" lon="5.25335">
        <ele>226</ele>
        <time>2021-02-28T09:51:45.789Z</time>
      </trkpt>
      <trkpt lat="45.72327" lon="5.25338">
        <ele>226</ele>
        <time>2021-02-28T09:51:46.790Z</time>
      </trkpt>
      <trkpt lat="45.72332" lon="5.25341">
        <ele>227</ele>
        <time>2021-02-28T09:51:47.789Z</time>
      </trkpt>
      <trkpt lat="45.72338" lon="5.25344">
        <ele>227</ele>
        <time>2021-02-28T09:51:48.789Z</time>
      </trkpt>
      <trkpt lat="45.72343" lon="5.25347">
        <ele>228</ele>
        <time>2021-02-28T09:51:49.789Z</time>
      </trkpt>
      <trkpt lat="45.72348" lon="5.25349">
        <ele>228</ele>
        <time>2021-02-28T09:51:50.790Z</time>
      </trkpt>
      <trkpt lat="45.72354" lon="5.25351">
        <ele>229</ele>
        <time>2021-02-28T09:51:51.790Z</time>
      </trkpt>
      <trkpt lat="45.72358" lon="5.25352">
        <ele>229</ele>
        <time>2021-02-28T09:51:52.790Z</time>
      </trkpt>
      <trkpt lat="45.72363" lon="5.25352">
        <ele>230</ele>
        <time>2021-02-28T09:51:53.789Z</time>
      </trkpt>
      <trkpt lat="45.72367" lon="5.25353">
        <ele>230</ele>
        <time>2021-02-28T09:51:54.789Z</time>
      </trkpt>
      <trkpt lat="45.72372" lon="5.25354">
        <ele>230</ele>
        <time>2021-02-28T09:51:55.790Z</time>
      </trkpt>
      <trkpt lat="45.72378" lon="5.25355">
        <ele>230</ele>
        <time>2021-02-28T09:51:56.790Z</time>
      </trkpt>
      <trkpt lat="45.72382" lon="5.25356">
        <ele>229</ele>
        <time>2021-02-28T09:51:57.790Z</time>
      </trkpt>
      <trkpt lat="45.72387" lon="5.25357">
        <ele>229</ele>
        <time>2021-02-28T09:51:58.790Z</time>
      </trkpt>
      <trkpt lat="45.72392" lon="5.25358">
        <ele>228</ele>
        <time>2021-02-28T09:51:59.789Z</time>
      </trkpt>
      <trkpt lat="45.72397" lon="5.2536">
        <ele>228</ele>
        <time>2021-02-28T09:52:00.789Z</time>
      </trkpt>
      <trkpt lat="45.72402" lon="5.25363">
        <ele>228</ele>
        <time>2021-02-28T09:52:01.790Z</time>
      </trkpt>
      <trkpt lat="45.72409" lon="5.25367">
        <ele>227</ele>
        <time>2021-02-28T09:52:02.789Z</time>
      </trkpt>
      <trkpt lat="45.72414" lon="5.25371">
        <ele>226</ele>
        <time>2021-02-28T09:52:03.789Z</time>
      </trkpt>
      <trkpt lat="45.72419" lon="5.25374">
        <ele>226</ele>
        <time>2021-02-28T09:52:04.790Z</time>
      </trkpt>
      <trkpt lat="45.72425" lon="5.25378">
        <ele>225</ele>
        <time>2021-02-28T09:52:05.789Z</time>
      </trkpt>
      <trkpt lat="45.72431" lon="5.2538">
        <ele>225</ele>
        <time>2021-02-28T09:52:06.790Z</time>
      </trkpt>
      <trkpt lat="45.72438" lon="5.25383">
        <ele>225</ele>
        <time>2021-02-28T09:52:07.790Z</time>
      </trkpt>
      <trkpt lat="45.72443" lon="5.25386">
        <ele>224</ele>
        <time>2021-02-28T09:52:08.790Z</time>
      </trkpt>
      <trkpt lat="45.72448" lon="5.25388">
        <ele>224</ele>
        <time>2021-02-28T09:52:09.790Z</time>
      </trkpt>
      <trkpt lat="45.72453" lon="5.25388">
        <ele>224</ele>
        <time>2021-02-28T09:52:10.790Z</time>
      </trkpt>
      <trkpt lat="45.72458" lon="5.25389">
        <ele>224</ele>
        <time>2021-02-28T09:52:11.789Z</time>
      </trkpt>
      <trkpt lat="45.72462" lon="5.25391">
        <ele>224</ele>
        <time>2021-02-28T09:52:12.790Z</time>
      </trkpt>
      <trkpt lat="45.72467" lon="5.25393">
        <ele>223</ele>
        <time>2021-02-28T09:52:13.790Z</time>
      </trkpt>
      <trkpt lat="45.72472" lon="5.25397">
        <ele>222</ele>
        <time>2021-02-28T09:52:14.789Z</time>
      </trkpt>
      <trkpt lat="45.72476" lon="5.25402">
        <ele>222</ele>
        <time>2021-02-28T09:52:15.790Z</time>
      </trkpt>
      <trkpt lat="45.72482" lon="5.25409">
        <ele>221</ele>
        <time>2021-02-28T09:52:16.790Z</time>
      </trkpt>
      <trkpt lat="45.72485" lon="5.25413">
        <ele>221</ele>
        <time>2021-02-28T09:52:17.789Z</time>
      </trkpt>
      <trkpt lat="45.7249" lon="5.25419">
        <ele>221</ele>
        <time>2021-02-28T09:52:18.789Z</time>
      </trkpt>
      <trkpt lat="45.72494" lon="5.25424">
        <ele>220</ele>
        <time>2021-02-28T09:52:19.790Z</time>
      </trkpt>
      <trkpt lat="45.72499" lon="5.25431">
        <ele>220</ele>
        <time>2021-02-28T09:52:20.790Z</time>
      </trkpt>
      <trkpt lat="45.72503" lon="5.25437">
        <ele>220</ele>
        <time>2021-02-28T09:52:21.790Z</time>
      </trkpt>
      <trkpt lat="45.72507" lon="5.25443">
        <ele>220</ele>
        <time>2021-02-28T09:52:22.790Z</time>
      </trkpt>
      <trkpt lat="45.72511" lon="5.25449">
        <ele>220</ele>
        <time>2021-02-28T09:52:23.789Z</time>
      </trkpt>
      <trkpt lat="45.72515" lon="5.25455">
        <ele>220</ele>
        <time>2021-02-28T09:52:24.789Z</time>
      </trkpt>
      <trkpt lat="45.7252" lon="5.2546">
        <ele>220</ele>
        <time>2021-02-28T09:52:25.789Z</time>
      </trkpt>
      <trkpt lat="45.72524" lon="5.25465">
        <ele>220</ele>
        <time>2021-02-28T09:52:26.789Z</time>
      </trkpt>
      <trkpt lat="45.72528" lon="5.25468">
        <ele>221</ele>
        <time>2021-02-28T09:52:27.789Z</time>
      </trkpt>
      <trkpt lat="45.72533" lon="5.25473">
        <ele>221</ele>
        <time>2021-02-28T09:52:28.790Z</time>
      </trkpt>
      <trkpt lat="45.72537" lon="5.25478">
        <ele>221</ele>
        <time>2021-02-28T09:52:29.789Z</time>
      </trkpt>
      <trkpt lat="45.72541" lon="5.25483">
        <ele>222</ele>
        <time>2021-02-28T09:52:30.790Z</time>
      </trkpt>
      <trkpt lat="45.72545" lon="5.25488">
        <ele>222</ele>
        <time>2021-02-28T09:52:31.790Z</time>
      </trkpt>
      <trkpt lat="45.72548" lon="5.25493">
        <ele>222</ele>
        <time>2021-02-28T09:52:32.790Z</time>
      </trkpt>
      <trkpt lat="45.7255" lon="5.25499">
        <ele>222</ele>
        <time>2021-02-28T09:52:33.790Z</time>
      </trkpt>
      <trkpt lat="45.72553" lon="5.25505">
        <ele>222</ele>
        <time>2021-02-28T09:52:34.789Z</time>
      </trkpt>
      <trkpt lat="45.72556" lon="5.25512">
        <ele>222</ele>
        <time>2021-02-28T09:52:35.790Z</time>
      </trkpt>
      <trkpt lat="45.72558" lon="5.25517">
        <ele>223</ele>
        <time>2021-02-28T09:52:36.789Z</time>
      </trkpt>
      <trkpt lat="45.72559" lon="5.25523">
        <ele>224</ele>
        <time>2021-02-28T09:52:37.789Z</time>
      </trkpt>
      <trkpt lat="45.72561" lon="5.25529">
        <ele>225</ele>
        <time>2021-02-28T09:52:38.790Z</time>
      </trkpt>
      <trkpt lat="45.72562" lon="5.25535">
        <ele>226</ele>
        <time>2021-02-28T09:52:39.789Z</time>
      </trkpt>
      <trkpt lat="45.72563" lon="5.25541">
        <ele>226</ele>
        <time>2021-02-28T09:52:40.789Z</time>
      </trkpt>
      <trkpt lat="45.72566" lon="5.25546">
        <ele>227</ele>
        <time>2021-02-28T09:52:41.790Z</time>
      </trkpt>
      <trkpt lat="45.72567" lon="5.25551">
        <ele>227</ele>
        <time>2021-02-28T09:52:42.790Z</time>
      </trkpt>
      <trkpt lat="45.72568" lon="5.25556">
        <ele>226</ele>
        <time>2021-02-28T09:52:43.790Z</time>
      </trkpt>
      <trkpt lat="45.72571" lon="5.2556">
        <ele>226</ele>
        <time>2021-02-28T09:52:44.789Z</time>
      </trkpt>
      <trkpt lat="45.72575" lon="5.25563">
        <ele>226</ele>
        <time>2021-02-28T09:52:45.790Z</time>
      </trkpt>
      <trkpt lat="45.72578" lon="5.25565">
        <ele>225</ele>
        <time>2021-02-28T09:52:46.790Z</time>
      </trkpt>
      <trkpt lat="45.72581" lon="5.25565">
        <ele>225</ele>
        <time>2021-02-28T09:52:47.790Z</time>
      </trkpt>
      <trkpt lat="45.72584" lon="5.25564">
        <ele>225</ele>
        <time>2021-02-28T09:52:48.790Z</time>
      </trkpt>
      <trkpt lat="45.72587" lon="5.25561">
        <ele>225</ele>
        <time>2021-02-28T09:52:49.790Z</time>
      </trkpt>
      <trkpt lat="45.72591" lon="5.25558">
        <ele>224</ele>
        <time>2021-02-28T09:52:50.789Z</time>
      </trkpt>
      <trkpt lat="45.72595" lon="5.25554">
        <ele>224</ele>
        <time>2021-02-28T09:52:51.789Z</time>
      </trkpt>
      <trkpt lat="45.72597" lon="5.25551">
        <ele>224</ele>
        <time>2021-02-28T09:52:52.789Z</time>
      </trkpt>
      <trkpt lat="45.72601" lon="5.25548">
        <ele>224</ele>
        <time>2021-02-28T09:52:53.790Z</time>
      </trkpt>
      <trkpt lat="45.72606" lon="5.25544">
        <ele>224</ele>
        <time>2021-02-28T09:52:54.789Z</time>
      </trkpt>
      <trkpt lat="45.72609" lon="5.2554">
        <ele>223</ele>
        <time>2021-02-28T09:52:55.790Z</time>
      </trkpt>
      <trkpt lat="45.72613" lon="5.25536">
        <ele>223</ele>
        <time>2021-02-28T09:52:56.789Z</time>
      </trkpt>
      <trkpt lat="45.72617" lon="5.25532">
        <ele>222</ele>
        <time>2021-02-28T09:52:57.789Z</time>
      </trkpt>
      <trkpt lat="45.72622" lon="5.25529">
        <ele>222</ele>
        <time>2021-02-28T09:52:58.790Z</time>
      </trkpt>
      <trkpt lat="45.72625" lon="5.25525">
        <ele>222</ele>
        <time>2021-02-28T09:52:59.789Z</time>
      </trkpt>
      <trkpt lat="45.7263" lon="5.25521">
        <ele>221</ele>
        <time>2021-02-28T09:53:00.789Z</time>
      </trkpt>
      <trkpt lat="45.72634" lon="5.25517">
        <ele>221</ele>
        <time>2021-02-28T09:53:01.790Z</time>
      </trkpt>
      <trkpt lat="45.72637" lon="5.25513">
        <ele>221</ele>
        <time>2021-02-28T09:53:02.789Z</time>
      </trkpt>
      <trkpt lat="45.72641" lon="5.25509">
        <ele>220</ele>
        <time>2021-02-28T09:53:03.790Z</time>
      </trkpt>
      <trkpt lat="45.72645" lon="5.25505">
        <ele>220</ele>
        <time>2021-02-28T09:53:04.789Z</time>
      </trkpt>
      <trkpt lat="45.7265" lon="5.25502">
        <ele>220</ele>
        <time>2021-02-28T09:53:05.790Z</time>
      </trkpt>
      <trkpt lat="45.72653" lon="5.25498">
        <ele>220</ele>
        <time>2021-02-28T09:53:06.790Z</time>
      </trkpt>
      <trkpt lat="45.72658" lon="5.25495">
        <ele>220</ele>
        <time>2021-02-28T09:53:07.790Z</time>
      </trkpt>
      <trkpt lat="45.72662" lon="5.25491">
        <ele>220</ele>
        <time>2021-02-28T09:53:08.789Z</time>
      </trkpt>
      <trkpt lat="45.72666" lon="5.25487">
        <ele>219</ele>
        <time>2021-02-28T09:53:09.789Z</time>
      </trkpt>
      <trkpt lat="45.72671" lon="5.25483">
        <ele>219</ele>
        <time>2021-02-28T09:53:10.790Z</time>
      </trkpt>
      <trkpt lat="45.72675" lon="5.25478">
        <ele>219</ele>
        <time>2021-02-28T09:53:11.790Z</time>
      </trkpt>
      <trkpt lat="45.72679" lon="5.25475">
        <ele>219</ele>
        <time>2021-02-28T09:53:12.789Z</time>
      </trkpt>
      <trkpt lat="45.72683" lon="5.25471">
        <ele>219</ele>
        <time>2021-02-28T09:53:13.789Z</time>
      </trkpt>
      <trkpt lat="45.72687" lon="5.25468">
        <ele>219</ele>
        <time>2021-02-28T09:53:14.790Z</time>
      </trkpt>
      <trkpt lat="45.7269" lon="5.25466">
        <ele>218</ele>
        <time>2021-02-28T09:53:15.789Z</time>
      </trkpt>
      <trkpt lat="45.72693" lon="5.25463">
        <ele>218</ele>
        <time>2021-02-28T09:53:16.790Z</time>
      </trkpt>
      <trkpt lat="45.72695" lon="5.25461">
        <ele>218</ele>
        <time>2021-02-28T09:53:17.789Z</time>
      </trkpt>
      <trkpt lat="45.72698" lon="5.25458">
        <ele>217</ele>
        <time>2021-02-28T09:53:18.790Z</time>
      </trkpt>
      <trkpt lat="45.72702" lon="5.25456">
        <ele>217</ele>
        <time>2021-02-28T09:53:19.789Z</time>
      </trkpt>
      <trkpt lat="45.72706" lon="5.25453">
        <ele>216</ele>
        <time>2021-02-28T09:53:20.790Z</time>
      </trkpt>
      <trkpt lat="45.72711" lon="5.2545">
        <ele>216</ele>
        <time>2021-02-28T09:53:21.790Z</time>
      </trkpt>
      <trkpt lat="45.72716" lon="5.25447">
        <ele>215</ele>
        <time>2021-02-28T09:53:22.790Z</time>
      </trkpt>
      <trkpt lat="45.72721" lon="5.25443">
        <ele>215</ele>
        <time>2021-02-28T09:53:23.790Z</time>
      </trkpt>
      <trkpt lat="45.72726" lon="5.25438">
        <ele>215</ele>
        <time>2021-02-28T09:53:24.789Z</time>
      </trkpt>
      <trkpt lat="45.72732" lon="5.25433">
        <ele>215</ele>
        <time>2021-02-28T09:53:25.790Z</time>
      </trkpt>
      <trkpt lat="45.72738" lon="5.25428">
        <ele>215</ele>
        <time>2021-02-28T09:53:26.790Z</time>
      </trkpt>
      <trkpt lat="45.72744" lon="5.25422">
        <ele>215</ele>
        <time>2021-02-28T09:53:27.790Z</time>
      </trkpt>
      <trkpt lat="45.72749" lon="5.25416">
        <ele>215</ele>
        <time>2021-02-28T09:53:28.789Z</time>
      </trkpt>
      <trkpt lat="45.72754" lon="5.2541">
        <ele>215</ele>
        <time>2021-02-28T09:53:29.790Z</time>
      </trkpt>
      <trkpt lat="45.72758" lon="5.25403">
        <ele>215</ele>
        <time>2021-02-28T09:53:30.789Z</time>
      </trkpt>
      <trkpt lat="45.72762" lon="5.25395">
        <ele>215</ele>
        <time>2021-02-28T09:53:31.790Z</time>
      </trkpt>
      <trkpt lat="45.72765" lon="5.25388">
        <ele>214</ele>
        <time>2021-02-28T09:53:32.789Z</time>
      </trkpt>
      <trkpt lat="45.72768" lon="5.2538">
        <ele>214</ele>
        <time>2021-02-28T09:53:33.790Z</time>
      </trkpt>
      <trkpt lat="45.7277" lon="5.25372">
        <ele>213</ele>
        <time>2021-02-28T09:53:34.790Z</time>
      </trkpt>
      <trkpt lat="45.72773" lon="5.25364">
        <ele>213</ele>
        <time>2021-02-28T09:53:35.790Z</time>
      </trkpt>
      <trkpt lat="45.72776" lon="5.25356">
        <ele>213</ele>
        <time>2021-02-28T09:53:36.789Z</time>
      </trkpt>
      <trkpt lat="45.72778" lon="5.25348">
        <ele>213</ele>
        <time>2021-02-28T09:53:37.790Z</time>
      </trkpt>
      <trkpt lat="45.72781" lon="5.2534">
        <ele>213</ele>
        <time>2021-02-28T09:53:38.790Z</time>
      </trkpt>
      <trkpt lat="45.72783" lon="5.25332">
        <ele>213</ele>
        <time>2021-02-28T09:53:39.790Z</time>
      </trkpt>
      <trkpt lat="45.72786" lon="5.25324">
        <ele>213</ele>
        <time>2021-02-28T09:53:40.790Z</time>
      </trkpt>
      <trkpt lat="45.7279" lon="5.25316">
        <ele>213</ele>
        <time>2021-02-28T09:53:41.790Z</time>
      </trkpt>
      <trkpt lat="45.72794" lon="5.25309">
        <ele>214</ele>
        <time>2021-02-28T09:53:42.789Z</time>
      </trkpt>
      <trkpt lat="45.72799" lon="5.25303">
        <ele>214</ele>
        <time>2021-02-28T09:53:43.790Z</time>
      </trkpt>
      <trkpt lat="45.72805" lon="5.25298">
        <ele>214</ele>
        <time>2021-02-28T09:53:44.789Z</time>
      </trkpt>
      <trkpt lat="45.72811" lon="5.25295">
        <ele>214</ele>
        <time>2021-02-28T09:53:45.789Z</time>
      </trkpt>
      <trkpt lat="45.72818" lon="5.25293">
        <ele>214</ele>
        <time>2021-02-28T09:53:46.790Z</time>
      </trkpt>
      <trkpt lat="45.72825" lon="5.25292">
        <ele>214</ele>
        <time>2021-02-28T09:53:47.789Z</time>
      </trkpt>
      <trkpt lat="45.72832" lon="5.2529">
        <ele>213</ele>
        <time>2021-02-28T09:53:48.789Z</time>
      </trkpt>
      <trkpt lat="45.72838" lon="5.25289">
        <ele>213</ele>
        <time>2021-02-28T09:53:49.790Z</time>
      </trkpt>
      <trkpt lat="45.72846" lon="5.25288">
        <ele>213</ele>
        <time>2021-02-28T09:53:50.789Z</time>
      </trkpt>
      <trkpt lat="45.72852" lon="5.25288">
        <ele>213</ele>
        <time>2021-02-28T09:53:51.789Z</time>
      </trkpt>
      <trkpt lat="45.72859" lon="5.25288">
        <ele>213</ele>
        <time>2021-02-28T09:53:52.789Z</time>
      </trkpt>
      <trkpt lat="45.72866" lon="5.25288">
        <ele>212</ele>
        <time>2021-02-28T09:53:53.789Z</time>
      </trkpt>
      <trkpt lat="45.72873" lon="5.25289">
        <ele>212</ele>
        <time>2021-02-28T09:53:54.789Z</time>
      </trkpt>
      <trkpt lat="45.7288" lon="5.25289">
        <ele>212</ele>
        <time>2021-02-28T09:53:55.790Z</time>
      </trkpt>
      <trkpt lat="45.72887" lon="5.2529">
        <ele>212</ele>
        <time>2021-02-28T09:53:56.790Z</time>
      </trkpt>
      <trkpt lat="45.72893" lon="5.25291">
        <ele>212</ele>
        <time>2021-02-28T09:53:57.789Z</time>
      </trkpt>
      <trkpt lat="45.72901" lon="5.25291">
        <ele>211</ele>
        <time>2021-02-28T09:53:58.790Z</time>
      </trkpt>
      <trkpt lat="45.72908" lon="5.25292">
        <ele>211</ele>
        <time>2021-02-28T09:53:59.789Z</time>
      </trkpt>
      <trkpt lat="45.72915" lon="5.25292">
        <ele>211</ele>
        <time>2021-02-28T09:54:00.790Z</time>
      </trkpt>
      <trkpt lat="45.72922" lon="5.25293">
        <ele>211</ele>
        <time>2021-02-28T09:54:01.790Z</time>
      </trkpt>
      <trkpt lat="45.72928" lon="5.25293">
        <ele>211</ele>
        <time>2021-02-28T09:54:02.790Z</time>
      </trkpt>
      <trkpt lat="45.72935" lon="5.25293">
        <ele>211</ele>
        <time>2021-02-28T09:54:03.789Z</time>
      </trkpt>
      <trkpt lat="45.72942" lon="5.25293">
        <ele>210</ele>
        <time>2021-02-28T09:54:04.789Z</time>
      </trkpt>
      <trkpt lat="45.72949" lon="5.25294">
        <ele>210</ele>
        <time>2021-02-28T09:54:05.790Z</time>
      </trkpt>
      <trkpt lat="45.72956" lon="5.25294">
        <ele>210</ele>
        <time>2021-02-28T09:54:06.790Z</time>
      </trkpt>
      <trkpt lat="45.72964" lon="5.25294">
        <ele>210</ele>
        <time>2021-02-28T09:54:07.789Z</time>
      </trkpt>
      <trkpt lat="45.72971" lon="5.25295">
        <ele>210</ele>
        <time>2021-02-28T09:54:08.789Z</time>
      </trkpt>
      <trkpt lat="45.72977" lon="5.25295">
        <ele>210</ele>
        <time>2021-02-28T09:54:09.789Z</time>
      </trkpt>
      <trkpt lat="45.72984" lon="5.25295">
        <ele>209</ele>
        <time>2021-02-28T09:54:10.790Z</time>
      </trkpt>
      <trkpt lat="45.72991" lon="5.25295">
        <ele>209</ele>
        <time>2021-02-28T09:54:11.789Z</time>
      </trkpt>
      <trkpt lat="45.72998" lon="5.25295">
        <ele>209</ele>
        <time>2021-02-28T09:54:12.789Z</time>
      </trkpt>
      <trkpt lat="45.73005" lon="5.25295">
        <ele>209</ele>
        <time>2021-02-28T09:54:13.789Z</time>
      </trkpt>
      <trkpt lat="45.73012" lon="5.25296">
        <ele>209</ele>
        <time>2021-02-28T09:54:14.790Z</time>
      </trkpt>
      <trkpt lat="45.73019" lon="5.25296">
        <ele>209</ele>
        <time>2021-02-28T09:54:15.790Z</time>
      </trkpt>
      <trkpt lat="45.73025" lon="5.25296">
        <ele>209</ele>
        <time>2021-02-28T09:54:16.789Z</time>
      </trkpt>
      <trkpt lat="45.73032" lon="5.25296">
        <ele>209</ele>
        <time>2021-02-28T09:54:17.790Z</time>
      </trkpt>
      <trkpt lat="45.73038" lon="5.25296">
        <ele>209</ele>
        <time>2021-02-28T09:54:18.790Z</time>
      </trkpt>
      <trkpt lat="45.73045" lon="5.25296">
        <ele>209</ele>
        <time>2021-02-28T09:54:19.790Z</time>
      </trkpt>
      <trkpt lat="45.73051" lon="5.25296">
        <ele>209</ele>
        <time>2021-02-28T09:54:20.790Z</time>
      </trkpt>
      <trkpt lat="45.73057" lon="5.25296">
        <ele>208</ele>
        <time>2021-02-28T09:54:21.790Z</time>
      </trkpt>
      <trkpt lat="45.73063" lon="5.25295">
        <ele>209</ele>
        <time>2021-02-28T09:54:22.789Z</time>
      </trkpt>
      <trkpt lat="45.73069" lon="5.25296">
        <ele>209</ele>
        <time>2021-02-28T09:54:23.789Z</time>
      </trkpt>
      <trkpt lat="45.73075" lon="5.25296">
        <ele>209</ele>
        <time>2021-02-28T09:54:24.789Z</time>
      </trkpt>
      <trkpt lat="45.73081" lon="5.25296">
        <ele>209</ele>
        <time>2021-02-28T09:54:25.789Z</time>
      </trkpt>
      <trkpt lat="45.73087" lon="5.25296">
        <ele>209</ele>
        <time>2021-02-28T09:54:26.790Z</time>
      </trkpt>
      <trkpt lat="45.73093" lon="5.25296">
        <ele>209</ele>
        <time>2021-02-28T09:54:27.790Z</time>
      </trkpt>
      <trkpt lat="45.73099" lon="5.25296">
        <ele>209</ele>
        <time>2021-02-28T09:54:28.789Z</time>
      </trkpt>
      <trkpt lat="45.73103" lon="5.25296">
        <ele>209</ele>
        <time>2021-02-28T09:54:29.789Z</time>
      </trkpt>
      <trkpt lat="45.73107" lon="5.25296">
        <ele>209</ele>
        <time>2021-02-28T09:54:30.789Z</time>
      </trkpt>
      <trkpt lat="45.73111" lon="5.25297">
        <ele>209</ele>
        <time>2021-02-28T09:54:31.790Z</time>
      </trkpt>
      <trkpt lat="45.73115" lon="5.25297">
        <ele>209</ele>
        <time>2021-02-28T09:54:32.789Z</time>
      </trkpt>
      <trkpt lat="45.73119" lon="5.25298">
        <ele>209</ele>
        <time>2021-02-28T09:54:33.790Z</time>
      </trkpt>
      <trkpt lat="45.73123" lon="5.25298">
        <ele>208</ele>
        <time>2021-02-28T09:54:34.790Z</time>
      </trkpt>
      <trkpt lat="45.73127" lon="5.25298">
        <ele>208</ele>
        <time>2021-02-28T09:54:35.790Z</time>
      </trkpt>
      <trkpt lat="45.73133" lon="5.25299">
        <ele>208</ele>
        <time>2021-02-28T09:54:36.790Z</time>
      </trkpt>
      <trkpt lat="45.73138" lon="5.25299">
        <ele>208</ele>
        <time>2021-02-28T09:54:37.790Z</time>
      </trkpt>
      <trkpt lat="45.73144" lon="5.253">
        <ele>208</ele>
        <time>2021-02-28T09:54:38.790Z</time>
      </trkpt>
      <trkpt lat="45.7315" lon="5.253">
        <ele>207</ele>
        <time>2021-02-28T09:54:39.790Z</time>
      </trkpt>
      <trkpt lat="45.73157" lon="5.25301">
        <ele>207</ele>
        <time>2021-02-28T09:54:40.790Z</time>
      </trkpt>
      <trkpt lat="45.73162" lon="5.25301">
        <ele>207</ele>
        <time>2021-02-28T09:54:41.790Z</time>
      </trkpt>
      <trkpt lat="45.73168" lon="5.25302">
        <ele>207</ele>
        <time>2021-02-28T09:54:42.790Z</time>
      </trkpt>
      <trkpt lat="45.73173" lon="5.25302">
        <ele>207</ele>
        <time>2021-02-28T09:54:43.790Z</time>
      </trkpt>
      <trkpt lat="45.73178" lon="5.25302">
        <ele>207</ele>
        <time>2021-02-28T09:54:44.790Z</time>
      </trkpt>
      <trkpt lat="45.73183" lon="5.25303">
        <ele>208</ele>
        <time>2021-02-28T09:54:45.790Z</time>
      </trkpt>
      <trkpt lat="45.73188" lon="5.25304">
        <ele>208</ele>
        <time>2021-02-28T09:54:46.789Z</time>
      </trkpt>
      <trkpt lat="45.73193" lon="5.25304">
        <ele>208</ele>
        <time>2021-02-28T09:54:47.789Z</time>
      </trkpt>
      <trkpt lat="45.73198" lon="5.25305">
        <ele>208</ele>
        <time>2021-02-28T09:54:48.790Z</time>
      </trkpt>
      <trkpt lat="45.73203" lon="5.25305">
        <ele>208</ele>
        <time>2021-02-28T09:54:49.789Z</time>
      </trkpt>
      <trkpt lat="45.73209" lon="5.25305">
        <ele>208</ele>
        <time>2021-02-28T09:54:50.789Z</time>
      </trkpt>
      <trkpt lat="45.73215" lon="5.25305">
        <ele>208</ele>
        <time>2021-02-28T09:54:51.790Z</time>
      </trkpt>
      <trkpt lat="45.7322" lon="5.25306">
        <ele>208</ele>
        <time>2021-02-28T09:54:52.789Z</time>
      </trkpt>
      <trkpt lat="45.73226" lon="5.25306">
        <ele>208</ele>
        <time>2021-02-28T09:54:53.790Z</time>
      </trkpt>
      <trkpt lat="45.73231" lon="5.25306">
        <ele>208</ele>
        <time>2021-02-28T09:54:54.789Z</time>
      </trkpt>
      <trkpt lat="45.73237" lon="5.25307">
        <ele>208</ele>
        <time>2021-02-28T09:54:55.790Z</time>
      </trkpt>
      <trkpt lat="45.73243" lon="5.25307">
        <ele>208</ele>
        <time>2021-02-28T09:54:56.790Z</time>
      </trkpt>
      <trkpt lat="45.73248" lon="5.25307">
        <ele>208</ele>
        <time>2021-02-28T09:54:57.790Z</time>
      </trkpt>
      <trkpt lat="45.73254" lon="5.25307">
        <ele>208</ele>
        <time>2021-02-28T09:54:58.790Z</time>
      </trkpt>
      <trkpt lat="45.7326" lon="5.25307">
        <ele>208</ele>
        <time>2021-02-28T09:54:59.789Z</time>
      </trkpt>
      <trkpt lat="45.73265" lon="5.25307">
        <ele>208</ele>
        <time>2021-02-28T09:55:00.790Z</time>
      </trkpt>
      <trkpt lat="45.73271" lon="5.25307">
        <ele>208</ele>
        <time>2021-02-28T09:55:01.790Z</time>
      </trkpt>
      <trkpt lat="45.73276" lon="5.25307">
        <ele>208</ele>
        <time>2021-02-28T09:55:02.790Z</time>
      </trkpt>
      <trkpt lat="45.73281" lon="5.25307">
        <ele>208</ele>
        <time>2021-02-28T09:55:03.789Z</time>
      </trkpt>
      <trkpt lat="45.73287" lon="5.25306">
        <ele>208</ele>
        <time>2021-02-28T09:55:04.789Z</time>
      </trkpt>
      <trkpt lat="45.73292" lon="5.25306">
        <ele>207</ele>
        <time>2021-02-28T09:55:05.789Z</time>
      </trkpt>
      <trkpt lat="45.73298" lon="5.25305">
        <ele>207</ele>
        <time>2021-02-28T09:55:06.789Z</time>
      </trkpt>
      <trkpt lat="45.73303" lon="5.25305">
        <ele>208</ele>
        <time>2021-02-28T09:55:07.790Z</time>
      </trkpt>
      <trkpt lat="45.73308" lon="5.25304">
        <ele>207</ele>
        <time>2021-02-28T09:55:08.789Z</time>
      </trkpt>
      <trkpt lat="45.73313" lon="5.25302">
        <ele>207</ele>
        <time>2021-02-28T09:55:09.790Z</time>
      </trkpt>
      <trkpt lat="45.73318" lon="5.25301">
        <ele>207</ele>
        <time>2021-02-28T09:55:10.790Z</time>
      </trkpt>
      <trkpt lat="45.73324" lon="5.25299">
        <ele>207</ele>
        <time>2021-02-28T09:55:11.790Z</time>
      </trkpt>
      <trkpt lat="45.73329" lon="5.25297">
        <ele>207</ele>
        <time>2021-02-28T09:55:12.790Z</time>
      </trkpt>
      <trkpt lat="45.73334" lon="5.25295">
        <ele>207</ele>
        <time>2021-02-28T09:55:13.789Z</time>
      </trkpt>
      <trkpt lat="45.7334" lon="5.25293">
        <ele>207</ele>
        <time>2021-02-28T09:55:14.790Z</time>
      </trkpt>
      <trkpt lat="45.73345" lon="5.25291">
        <ele>206</ele>
        <time>2021-02-28T09:55:15.790Z</time>
      </trkpt>
      <trkpt lat="45.7335" lon="5.25288">
        <ele>206</ele>
        <time>2021-02-28T09:55:16.790Z</time>
      </trkpt>
      <trkpt lat="45.73356" lon="5.25286">
        <ele>206</ele>
        <time>2021-02-28T09:55:17.790Z</time>
      </trkpt>
      <trkpt lat="45.73361" lon="5.25284">
        <ele>206</ele>
        <time>2021-02-28T09:55:18.790Z</time>
      </trkpt>
      <trkpt lat="45.73367" lon="5.25282">
        <ele>206</ele>
        <time>2021-02-28T09:55:19.789Z</time>
      </trkpt>
      <trkpt lat="45.73372" lon="5.2528">
        <ele>207</ele>
        <time>2021-02-28T09:55:20.790Z</time>
      </trkpt>
      <trkpt lat="45.73378" lon="5.25278">
        <ele>207</ele>
        <time>2021-02-28T09:55:21.789Z</time>
      </trkpt>
      <trkpt lat="45.73383" lon="5.25276">
        <ele>207</ele>
        <time>2021-02-28T09:55:22.789Z</time>
      </trkpt>
      <trkpt lat="45.73388" lon="5.25274">
        <ele>207</ele>
        <time>2021-02-28T09:55:23.790Z</time>
      </trkpt>
      <trkpt lat="45.73393" lon="5.25272">
        <ele>207</ele>
        <time>2021-02-28T09:55:24.789Z</time>
      </trkpt>
      <trkpt lat="45.73398" lon="5.2527">
        <ele>207</ele>
        <time>2021-02-28T09:55:25.790Z</time>
      </trkpt>
      <trkpt lat="45.73403" lon="5.25268">
        <ele>207</ele>
        <time>2021-02-28T09:55:26.790Z</time>
      </trkpt>
      <trkpt lat="45.73408" lon="5.25266">
        <ele>207</ele>
        <time>2021-02-28T09:55:27.790Z</time>
      </trkpt>
      <trkpt lat="45.73413" lon="5.25264">
        <ele>207</ele>
        <time>2021-02-28T09:55:28.790Z</time>
      </trkpt>
      <trkpt lat="45.73419" lon="5.25262">
        <ele>208</ele>
        <time>2021-02-28T09:55:29.790Z</time>
      </trkpt>
      <trkpt lat="45.73423" lon="5.2526">
        <ele>208</ele>
        <time>2021-02-28T09:55:30.790Z</time>
      </trkpt>
      <trkpt lat="45.73428" lon="5.25258">
        <ele>208</ele>
        <time>2021-02-28T09:55:31.790Z</time>
      </trkpt>
      <trkpt lat="45.73433" lon="5.25256">
        <ele>208</ele>
        <time>2021-02-28T09:55:32.790Z</time>
      </trkpt>
      <trkpt lat="45.73438" lon="5.25253">
        <ele>208</ele>
        <time>2021-02-28T09:55:33.789Z</time>
      </trkpt>
      <trkpt lat="45.73443" lon="5.2525">
        <ele>208</ele>
        <time>2021-02-28T09:55:34.790Z</time>
      </trkpt>
      <trkpt lat="45.73449" lon="5.25247">
        <ele>208</ele>
        <time>2021-02-28T09:55:35.790Z</time>
      </trkpt>
      <trkpt lat="45.73453" lon="5.25243">
        <ele>209</ele>
        <time>2021-02-28T09:55:36.789Z</time>
      </trkpt>
      <trkpt lat="45.73458" lon="5.2524">
        <ele>209</ele>
        <time>2021-02-28T09:55:37.790Z</time>
      </trkpt>
      <trkpt lat="45.73462" lon="5.25236">
        <ele>208</ele>
        <time>2021-02-28T09:55:38.789Z</time>
      </trkpt>
      <trkpt lat="45.73466" lon="5.25231">
        <ele>209</ele>
        <time>2021-02-28T09:55:39.789Z</time>
      </trkpt>
      <trkpt lat="45.7347" lon="5.25227">
        <ele>209</ele>
        <time>2021-02-28T09:55:40.790Z</time>
      </trkpt>
      <trkpt lat="45.73475" lon="5.25223">
        <ele>209</ele>
        <time>2021-02-28T09:55:41.790Z</time>
      </trkpt>
      <trkpt lat="45.73479" lon="5.25219">
        <ele>209</ele>
        <time>2021-02-28T09:55:42.790Z</time>
      </trkpt>
      <trkpt lat="45.73483" lon="5.25214">
        <ele>209</ele>
        <time>2021-02-28T09:55:43.790Z</time>
      </trkpt>
      <trkpt lat="45.73488" lon="5.2521">
        <ele>210</ele>
        <time>2021-02-28T09:55:44.789Z</time>
      </trkpt>
      <trkpt lat="45.73492" lon="5.25205">
        <ele>210</ele>
        <time>2021-02-28T09:55:45.789Z</time>
      </trkpt>
      <trkpt lat="45.73497" lon="5.25201">
        <ele>210</ele>
        <time>2021-02-28T09:55:46.790Z</time>
      </trkpt>
      <trkpt lat="45.73502" lon="5.25196">
        <ele>210</ele>
        <time>2021-02-28T09:55:47.789Z</time>
      </trkpt>
      <trkpt lat="45.73507" lon="5.25192">
        <ele>210</ele>
        <time>2021-02-28T09:55:48.789Z</time>
      </trkpt>
      <trkpt lat="45.73512" lon="5.25188">
        <ele>209</ele>
        <time>2021-02-28T09:55:49.789Z</time>
      </trkpt>
      <trkpt lat="45.73517" lon="5.25183">
        <ele>210</ele>
        <time>2021-02-28T09:55:50.790Z</time>
      </trkpt>
      <trkpt lat="45.73521" lon="5.2518">
        <ele>210</ele>
        <time>2021-02-28T09:55:51.789Z</time>
      </trkpt>
      <trkpt lat="45.73527" lon="5.25176">
        <ele>210</ele>
        <time>2021-02-28T09:55:52.789Z</time>
      </trkpt>
      <trkpt lat="45.73532" lon="5.25172">
        <ele>210</ele>
        <time>2021-02-28T09:55:53.790Z</time>
      </trkpt>
      <trkpt lat="45.73538" lon="5.25169">
        <ele>210</ele>
        <time>2021-02-28T09:55:54.790Z</time>
      </trkpt>
      <trkpt lat="45.73543" lon="5.25165">
        <ele>210</ele>
        <time>2021-02-28T09:55:55.789Z</time>
      </trkpt>
      <trkpt lat="45.73548" lon="5.25161">
        <ele>210</ele>
        <time>2021-02-28T09:55:56.789Z</time>
      </trkpt>
      <trkpt lat="45.73553" lon="5.25158">
        <ele>210</ele>
        <time>2021-02-28T09:55:57.790Z</time>
      </trkpt>
      <trkpt lat="45.73558" lon="5.25154">
        <ele>210</ele>
        <time>2021-02-28T09:55:58.790Z</time>
      </trkpt>
      <trkpt lat="45.73563" lon="5.25151">
        <ele>210</ele>
        <time>2021-02-28T09:55:59.790Z</time>
      </trkpt>
      <trkpt lat="45.73568" lon="5.25147">
        <ele>210</ele>
        <time>2021-02-28T09:56:00.790Z</time>
      </trkpt>
      <trkpt lat="45.73574" lon="5.25143">
        <ele>211</ele>
        <time>2021-02-28T09:56:01.790Z</time>
      </trkpt>
      <trkpt lat="45.73579" lon="5.25139">
        <ele>211</ele>
        <time>2021-02-28T09:56:02.790Z</time>
      </trkpt>
      <trkpt lat="45.73585" lon="5.25135">
        <ele>211</ele>
        <time>2021-02-28T09:56:03.790Z</time>
      </trkpt>
      <trkpt lat="45.7359" lon="5.25131">
        <ele>211</ele>
        <time>2021-02-28T09:56:04.790Z</time>
      </trkpt>
      <trkpt lat="45.73595" lon="5.25128">
        <ele>211</ele>
        <time>2021-02-28T09:56:05.789Z</time>
      </trkpt>
      <trkpt lat="45.736" lon="5.25123">
        <ele>212</ele>
        <time>2021-02-28T09:56:06.789Z</time>
      </trkpt>
      <trkpt lat="45.73605" lon="5.25119">
        <ele>212</ele>
        <time>2021-02-28T09:56:07.789Z</time>
      </trkpt>
      <trkpt lat="45.7361" lon="5.25115">
        <ele>212</ele>
        <time>2021-02-28T09:56:08.790Z</time>
      </trkpt>
      <trkpt lat="45.73615" lon="5.2511">
        <ele>212</ele>
        <time>2021-02-28T09:56:09.789Z</time>
      </trkpt>
      <trkpt lat="45.73615" lon="5.2511">
        <ele>212</ele>
        <time>2021-02-28T09:56:10.789Z</time>
      </trkpt>
      <trkpt lat="45.73624" lon="5.25099">
        <ele>212</ele>
        <time>2021-02-28T09:56:11.789Z</time>
      </trkpt>
      <trkpt lat="45.73629" lon="5.25092">
        <ele>212</ele>
        <time>2021-02-28T09:56:12.790Z</time>
      </trkpt>
      <trkpt lat="45.73633" lon="5.25086">
        <ele>212</ele>
        <time>2021-02-28T09:56:13.790Z</time>
      </trkpt>
      <trkpt lat="45.73637" lon="5.25079">
        <ele>212</ele>
        <time>2021-02-28T09:56:14.789Z</time>
      </trkpt>
      <trkpt lat="45.73641" lon="5.25072">
        <ele>212</ele>
        <time>2021-02-28T09:56:15.790Z</time>
      </trkpt>
      <trkpt lat="45.73645" lon="5.25065">
        <ele>212</ele>
        <time>2021-02-28T09:56:16.789Z</time>
      </trkpt>
      <trkpt lat="45.7365" lon="5.25059">
        <ele>212</ele>
        <time>2021-02-28T09:56:17.790Z</time>
      </trkpt>
      <trkpt lat="45.73654" lon="5.25052">
        <ele>212</ele>
        <time>2021-02-28T09:56:18.790Z</time>
      </trkpt>
      <trkpt lat="45.73658" lon="5.25047">
        <ele>212</ele>
        <time>2021-02-28T09:56:19.790Z</time>
      </trkpt>
      <trkpt lat="45.73662" lon="5.25041">
        <ele>212</ele>
        <time>2021-02-28T09:56:20.790Z</time>
      </trkpt>
      <trkpt lat="45.73666" lon="5.25037">
        <ele>211</ele>
        <time>2021-02-28T09:56:21.789Z</time>
      </trkpt>
      <trkpt lat="45.73671" lon="5.25032">
        <ele>212</ele>
        <time>2021-02-28T09:56:22.790Z</time>
      </trkpt>
      <trkpt lat="45.73676" lon="5.25027">
        <ele>212</ele>
        <time>2021-02-28T09:56:23.790Z</time>
      </trkpt>
      <trkpt lat="45.7368" lon="5.25023">
        <ele>212</ele>
        <time>2021-02-28T09:56:24.790Z</time>
      </trkpt>
      <trkpt lat="45.73684" lon="5.25019">
        <ele>212</ele>
        <time>2021-02-28T09:56:25.790Z</time>
      </trkpt>
      <trkpt lat="45.73688" lon="5.25016">
        <ele>212</ele>
        <time>2021-02-28T09:56:26.789Z</time>
      </trkpt>
      <trkpt lat="45.73693" lon="5.25012">
        <ele>211</ele>
        <time>2021-02-28T09:56:27.789Z</time>
      </trkpt>
      <trkpt lat="45.73697" lon="5.25009">
        <ele>211</ele>
        <time>2021-02-28T09:56:28.789Z</time>
      </trkpt>
      <trkpt lat="45.73701" lon="5.25006">
        <ele>211</ele>
        <time>2021-02-28T09:56:29.789Z</time>
      </trkpt>
      <trkpt lat="45.73705" lon="5.25003">
        <ele>211</ele>
        <time>2021-02-28T09:56:30.790Z</time>
      </trkpt>
      <trkpt lat="45.73708" lon="5.25">
        <ele>211</ele>
        <time>2021-02-28T09:56:31.789Z</time>
      </trkpt>
      <trkpt lat="45.73713" lon="5.24997">
        <ele>211</ele>
        <time>2021-02-28T09:56:32.789Z</time>
      </trkpt>
      <trkpt lat="45.73718" lon="5.24993">
        <ele>211</ele>
        <time>2021-02-28T09:56:33.790Z</time>
      </trkpt>
      <trkpt lat="45.73722" lon="5.24991">
        <ele>211</ele>
        <time>2021-02-28T09:56:34.789Z</time>
      </trkpt>
      <trkpt lat="45.73726" lon="5.24987">
        <ele>211</ele>
        <time>2021-02-28T09:56:35.789Z</time>
      </trkpt>
      <trkpt lat="45.73731" lon="5.24984">
        <ele>210</ele>
        <time>2021-02-28T09:56:36.790Z</time>
      </trkpt>
      <trkpt lat="45.73736" lon="5.24981">
        <ele>210</ele>
        <time>2021-02-28T09:56:37.790Z</time>
      </trkpt>
      <trkpt lat="45.73741" lon="5.24978">
        <ele>210</ele>
        <time>2021-02-28T09:56:38.789Z</time>
      </trkpt>
      <trkpt lat="45.73745" lon="5.24976">
        <ele>210</ele>
        <time>2021-02-28T09:56:39.790Z</time>
      </trkpt>
      <trkpt lat="45.73749" lon="5.24973">
        <ele>210</ele>
        <time>2021-02-28T09:56:40.790Z</time>
      </trkpt>
      <trkpt lat="45.73754" lon="5.2497">
        <ele>210</ele>
        <time>2021-02-28T09:56:41.789Z</time>
      </trkpt>
      <trkpt lat="45.73759" lon="5.24967">
        <ele>210</ele>
        <time>2021-02-28T09:56:42.789Z</time>
      </trkpt>
      <trkpt lat="45.73763" lon="5.24966">
        <ele>211</ele>
        <time>2021-02-28T09:56:43.789Z</time>
      </trkpt>
      <trkpt lat="45.73767" lon="5.24964">
        <ele>211</ele>
        <time>2021-02-28T09:56:44.789Z</time>
      </trkpt>
      <trkpt lat="45.73771" lon="5.24962">
        <ele>211</ele>
        <time>2021-02-28T09:56:45.790Z</time>
      </trkpt>
      <trkpt lat="45.73776" lon="5.2496">
        <ele>211</ele>
        <time>2021-02-28T09:56:46.790Z</time>
      </trkpt>
      <trkpt lat="45.73781" lon="5.24958">
        <ele>211</ele>
        <time>2021-02-28T09:56:47.789Z</time>
      </trkpt>
      <trkpt lat="45.73785" lon="5.24957">
        <ele>211</ele>
        <time>2021-02-28T09:56:48.790Z</time>
      </trkpt>
      <trkpt lat="45.73789" lon="5.24956">
        <ele>211</ele>
        <time>2021-02-28T09:56:49.790Z</time>
      </trkpt>
      <trkpt lat="45.73794" lon="5.24955">
        <ele>212</ele>
        <time>2021-02-28T09:56:50.790Z</time>
      </trkpt>
      <trkpt lat="45.73798" lon="5.24954">
        <ele>212</ele>
        <time>2021-02-28T09:56:51.790Z</time>
      </trkpt>
      <trkpt lat="45.73803" lon="5.24953">
        <ele>212</ele>
        <time>2021-02-28T09:56:52.790Z</time>
      </trkpt>
      <trkpt lat="45.73808" lon="5.24952">
        <ele>212</ele>
        <time>2021-02-28T09:56:53.790Z</time>
      </trkpt>
      <trkpt lat="45.73813" lon="5.24952">
        <ele>212</ele>
        <time>2021-02-28T09:56:54.790Z</time>
      </trkpt>
      <trkpt lat="45.73818" lon="5.24951">
        <ele>212</ele>
        <time>2021-02-28T09:56:55.789Z</time>
      </trkpt>
      <trkpt lat="45.73823" lon="5.2495">
        <ele>213</ele>
        <time>2021-02-28T09:56:56.790Z</time>
      </trkpt>
      <trkpt lat="45.73828" lon="5.24949">
        <ele>213</ele>
        <time>2021-02-28T09:56:57.790Z</time>
      </trkpt>
      <trkpt lat="45.73832" lon="5.24948">
        <ele>213</ele>
        <time>2021-02-28T09:56:58.790Z</time>
      </trkpt>
      <trkpt lat="45.73837" lon="5.24947">
        <ele>213</ele>
        <time>2021-02-28T09:56:59.789Z</time>
      </trkpt>
      <trkpt lat="45.73841" lon="5.24945">
        <ele>213</ele>
        <time>2021-02-28T09:57:00.789Z</time>
      </trkpt>
      <trkpt lat="45.73845" lon="5.24944">
        <ele>213</ele>
        <time>2021-02-28T09:57:01.790Z</time>
      </trkpt>
      <trkpt lat="45.73849" lon="5.24943">
        <ele>213</ele>
        <time>2021-02-28T09:57:02.789Z</time>
      </trkpt>
      <trkpt lat="45.73853" lon="5.24942">
        <ele>213</ele>
        <time>2021-02-28T09:57:03.789Z</time>
      </trkpt>
      <trkpt lat="45.73857" lon="5.24941">
        <ele>213</ele>
        <time>2021-02-28T09:57:04.790Z</time>
      </trkpt>
      <trkpt lat="45.73861" lon="5.24939">
        <ele>213</ele>
        <time>2021-02-28T09:57:05.790Z</time>
      </trkpt>
      <trkpt lat="45.73865" lon="5.24937">
        <ele>213</ele>
        <time>2021-02-28T09:57:06.790Z</time>
      </trkpt>
      <trkpt lat="45.7387" lon="5.24935">
        <ele>212</ele>
        <time>2021-02-28T09:57:07.790Z</time>
      </trkpt>
      <trkpt lat="45.73875" lon="5.24932">
        <ele>212</ele>
        <time>2021-02-28T09:57:08.789Z</time>
      </trkpt>
      <trkpt lat="45.73881" lon="5.2493">
        <ele>212</ele>
        <time>2021-02-28T09:57:09.790Z</time>
      </trkpt>
      <trkpt lat="45.73886" lon="5.24927">
        <ele>212</ele>
        <time>2021-02-28T09:57:10.789Z</time>
      </trkpt>
      <trkpt lat="45.73891" lon="5.24925">
        <ele>212</ele>
        <time>2021-02-28T09:57:11.789Z</time>
      </trkpt>
      <trkpt lat="45.73891" lon="5.24925">
        <ele>212</ele>
        <time>2021-02-28T09:57:12.789Z</time>
      </trkpt>
      <trkpt lat="45.73901" lon="5.24921">
        <ele>212</ele>
        <time>2021-02-28T09:57:13.790Z</time>
      </trkpt>
      <trkpt lat="45.73907" lon="5.2492">
        <ele>212</ele>
        <time>2021-02-28T09:57:14.789Z</time>
      </trkpt>
      <trkpt lat="45.73912" lon="5.24919">
        <ele>212</ele>
        <time>2021-02-28T09:57:15.789Z</time>
      </trkpt>
      <trkpt lat="45.73917" lon="5.24917">
        <ele>212</ele>
        <time>2021-02-28T09:57:16.789Z</time>
      </trkpt>
      <trkpt lat="45.73922" lon="5.24916">
        <ele>212</ele>
        <time>2021-02-28T09:57:17.790Z</time>
      </trkpt>
      <trkpt lat="45.73927" lon="5.24915">
        <ele>212</ele>
        <time>2021-02-28T09:57:18.790Z</time>
      </trkpt>
      <trkpt lat="45.73932" lon="5.24914">
        <ele>212</ele>
        <time>2021-02-28T09:57:19.789Z</time>
      </trkpt>
      <trkpt lat="45.73936" lon="5.24913">
        <ele>212</ele>
        <time>2021-02-28T09:57:20.790Z</time>
      </trkpt>
      <trkpt lat="45.73941" lon="5.24912">
        <ele>212</ele>
        <time>2021-02-28T09:57:21.789Z</time>
      </trkpt>
      <trkpt lat="45.73946" lon="5.24911">
        <ele>212</ele>
        <time>2021-02-28T09:57:22.790Z</time>
      </trkpt>
      <trkpt lat="45.7395" lon="5.2491">
        <ele>212</ele>
        <time>2021-02-28T09:57:23.789Z</time>
      </trkpt>
      <trkpt lat="45.73955" lon="5.24908">
        <ele>212</ele>
        <time>2021-02-28T09:57:24.790Z</time>
      </trkpt>
      <trkpt lat="45.7396" lon="5.24906">
        <ele>212</ele>
        <time>2021-02-28T09:57:25.789Z</time>
      </trkpt>
      <trkpt lat="45.73966" lon="5.24904">
        <ele>212</ele>
        <time>2021-02-28T09:57:26.790Z</time>
      </trkpt>
      <trkpt lat="45.73971" lon="5.24901">
        <ele>212</ele>
        <time>2021-02-28T09:57:27.789Z</time>
      </trkpt>
      <trkpt lat="45.73976" lon="5.24898">
        <ele>213</ele>
        <time>2021-02-28T09:57:28.790Z</time>
      </trkpt>
      <trkpt lat="45.73981" lon="5.24894">
        <ele>213</ele>
        <time>2021-02-28T09:57:29.789Z</time>
      </trkpt>
      <trkpt lat="45.73986" lon="5.2489">
        <ele>213</ele>
        <time>2021-02-28T09:57:30.790Z</time>
      </trkpt>
      <trkpt lat="45.73991" lon="5.24886">
        <ele>213</ele>
        <time>2021-02-28T09:57:31.790Z</time>
      </trkpt>
      <trkpt lat="45.73996" lon="5.24882">
        <ele>214</ele>
        <time>2021-02-28T09:57:32.790Z</time>
      </trkpt>
      <trkpt lat="45.74" lon="5.24878">
        <ele>214</ele>
        <time>2021-02-28T09:57:33.790Z</time>
      </trkpt>
      <trkpt lat="45.74005" lon="5.24874">
        <ele>214</ele>
        <time>2021-02-28T09:57:34.790Z</time>
      </trkpt>
      <trkpt lat="45.74009" lon="5.2487">
        <ele>214</ele>
        <time>2021-02-28T09:57:35.790Z</time>
      </trkpt>
      <trkpt lat="45.74014" lon="5.24866">
        <ele>214</ele>
        <time>2021-02-28T09:57:36.790Z</time>
      </trkpt>
      <trkpt lat="45.74018" lon="5.24862">
        <ele>215</ele>
        <time>2021-02-28T09:57:37.790Z</time>
      </trkpt>
      <trkpt lat="45.74023" lon="5.24859">
        <ele>215</ele>
        <time>2021-02-28T09:57:38.789Z</time>
      </trkpt>
      <trkpt lat="45.74028" lon="5.24856">
        <ele>216</ele>
        <time>2021-02-28T09:57:39.789Z</time>
      </trkpt>
      <trkpt lat="45.74032" lon="5.24853">
        <ele>216</ele>
        <time>2021-02-28T09:57:40.789Z</time>
      </trkpt>
      <trkpt lat="45.74037" lon="5.24851">
        <ele>216</ele>
        <time>2021-02-28T09:57:41.789Z</time>
      </trkpt>
      <trkpt lat="45.74042" lon="5.2485">
        <ele>216</ele>
        <time>2021-02-28T09:57:42.789Z</time>
      </trkpt>
      <trkpt lat="45.74047" lon="5.24849">
        <ele>216</ele>
        <time>2021-02-28T09:57:43.789Z</time>
      </trkpt>
      <trkpt lat="45.74053" lon="5.24848">
        <ele>216</ele>
        <time>2021-02-28T09:57:44.790Z</time>
      </trkpt>
      <trkpt lat="45.74057" lon="5.24848">
        <ele>216</ele>
        <time>2021-02-28T09:57:45.789Z</time>
      </trkpt>
      <trkpt lat="45.74063" lon="5.24848">
        <ele>216</ele>
        <time>2021-02-28T09:57:46.790Z</time>
      </trkpt>
      <trkpt lat="45.74068" lon="5.24848">
        <ele>216</ele>
        <time>2021-02-28T09:57:47.790Z</time>
      </trkpt>
      <trkpt lat="45.74073" lon="5.24849">
        <ele>216</ele>
        <time>2021-02-28T09:57:48.790Z</time>
      </trkpt>
      <trkpt lat="45.74079" lon="5.24849">
        <ele>216</ele>
        <time>2021-02-28T09:57:49.789Z</time>
      </trkpt>
      <trkpt lat="45.74084" lon="5.24849">
        <ele>216</ele>
        <time>2021-02-28T09:57:50.790Z</time>
      </trkpt>
      <trkpt lat="45.7409" lon="5.24849">
        <ele>216</ele>
        <time>2021-02-28T09:57:51.789Z</time>
      </trkpt>
      <trkpt lat="45.74095" lon="5.2485">
        <ele>216</ele>
        <time>2021-02-28T09:57:52.789Z</time>
      </trkpt>
      <trkpt lat="45.74101" lon="5.2485">
        <ele>216</ele>
        <time>2021-02-28T09:57:53.790Z</time>
      </trkpt>
      <trkpt lat="45.74107" lon="5.24851">
        <ele>216</ele>
        <time>2021-02-28T09:57:54.789Z</time>
      </trkpt>
      <trkpt lat="45.74112" lon="5.24851">
        <ele>216</ele>
        <time>2021-02-28T09:57:55.790Z</time>
      </trkpt>
      <trkpt lat="45.74118" lon="5.24851">
        <ele>216</ele>
        <time>2021-02-28T09:57:56.789Z</time>
      </trkpt>
      <trkpt lat="45.74123" lon="5.2485">
        <ele>217</ele>
        <time>2021-02-28T09:57:57.789Z</time>
      </trkpt>
      <trkpt lat="45.74128" lon="5.2485">
        <ele>217</ele>
        <time>2021-02-28T09:57:58.790Z</time>
      </trkpt>
      <trkpt lat="45.74134" lon="5.24849">
        <ele>217</ele>
        <time>2021-02-28T09:57:59.790Z</time>
      </trkpt>
      <trkpt lat="45.74139" lon="5.24847">
        <ele>217</ele>
        <time>2021-02-28T09:58:00.790Z</time>
      </trkpt>
      <trkpt lat="45.74144" lon="5.24846">
        <ele>217</ele>
        <time>2021-02-28T09:58:01.790Z</time>
      </trkpt>
      <trkpt lat="45.74149" lon="5.24844">
        <ele>217</ele>
        <time>2021-02-28T09:58:02.790Z</time>
      </trkpt>
      <trkpt lat="45.74154" lon="5.24843">
        <ele>217</ele>
        <time>2021-02-28T09:58:03.790Z</time>
      </trkpt>
      <trkpt lat="45.74159" lon="5.24842">
        <ele>217</ele>
        <time>2021-02-28T09:58:04.790Z</time>
      </trkpt>
      <trkpt lat="45.74164" lon="5.2484">
        <ele>217</ele>
        <time>2021-02-28T09:58:05.790Z</time>
      </trkpt>
      <trkpt lat="45.74168" lon="5.24839">
        <ele>217</ele>
        <time>2021-02-28T09:58:06.790Z</time>
      </trkpt>
      <trkpt lat="45.74173" lon="5.24837">
        <ele>218</ele>
        <time>2021-02-28T09:58:07.790Z</time>
      </trkpt>
      <trkpt lat="45.74178" lon="5.24835">
        <ele>218</ele>
        <time>2021-02-28T09:58:08.790Z</time>
      </trkpt>
      <trkpt lat="45.74183" lon="5.24833">
        <ele>218</ele>
        <time>2021-02-28T09:58:09.789Z</time>
      </trkpt>
      <trkpt lat="45.74188" lon="5.2483">
        <ele>218</ele>
        <time>2021-02-28T09:58:10.789Z</time>
      </trkpt>
      <trkpt lat="45.74193" lon="5.24828">
        <ele>218</ele>
        <time>2021-02-28T09:58:11.789Z</time>
      </trkpt>
      <trkpt lat="45.74197" lon="5.24825">
        <ele>218</ele>
        <time>2021-02-28T09:58:12.789Z</time>
      </trkpt>
      <trkpt lat="45.74202" lon="5.24823">
        <ele>219</ele>
        <time>2021-02-28T09:58:13.789Z</time>
      </trkpt>
      <trkpt lat="45.74207" lon="5.2482">
        <ele>219</ele>
        <time>2021-02-28T09:58:14.790Z</time>
      </trkpt>
      <trkpt lat="45.74211" lon="5.24817">
        <ele>219</ele>
        <time>2021-02-28T09:58:15.790Z</time>
      </trkpt>
      <trkpt lat="45.74216" lon="5.24814">
        <ele>219</ele>
        <time>2021-02-28T09:58:16.790Z</time>
      </trkpt>
      <trkpt lat="45.7422" lon="5.24812">
        <ele>219</ele>
        <time>2021-02-28T09:58:17.790Z</time>
      </trkpt>
      <trkpt lat="45.74225" lon="5.24809">
        <ele>219</ele>
        <time>2021-02-28T09:58:18.790Z</time>
      </trkpt>
      <trkpt lat="45.7423" lon="5.24807">
        <ele>219</ele>
        <time>2021-02-28T09:58:19.790Z</time>
      </trkpt>
      <trkpt lat="45.74234" lon="5.24805">
        <ele>219</ele>
        <time>2021-02-28T09:58:20.790Z</time>
      </trkpt>
      <trkpt lat="45.74239" lon="5.24802">
        <ele>219</ele>
        <time>2021-02-28T09:58:21.789Z</time>
      </trkpt>
      <trkpt lat="45.74244" lon="5.248">
        <ele>219</ele>
        <time>2021-02-28T09:58:22.789Z</time>
      </trkpt>
      <trkpt lat="45.74249" lon="5.24798">
        <ele>219</ele>
        <time>2021-02-28T09:58:23.790Z</time>
      </trkpt>
      <trkpt lat="45.74253" lon="5.24796">
        <ele>219</ele>
        <time>2021-02-28T09:58:24.789Z</time>
      </trkpt>
      <trkpt lat="45.74257" lon="5.24794">
        <ele>219</ele>
        <time>2021-02-28T09:58:25.789Z</time>
      </trkpt>
      <trkpt lat="45.74262" lon="5.24793">
        <ele>219</ele>
        <time>2021-02-28T09:58:26.790Z</time>
      </trkpt>
      <trkpt lat="45.74266" lon="5.24791">
        <ele>220</ele>
        <time>2021-02-28T09:58:27.790Z</time>
      </trkpt>
      <trkpt lat="45.74271" lon="5.2479">
        <ele>220</ele>
        <time>2021-02-28T09:58:28.789Z</time>
      </trkpt>
      <trkpt lat="45.74276" lon="5.24789">
        <ele>220</ele>
        <time>2021-02-28T09:58:29.789Z</time>
      </trkpt>
      <trkpt lat="45.7428" lon="5.24787">
        <ele>220</ele>
        <time>2021-02-28T09:58:30.790Z</time>
      </trkpt>
      <trkpt lat="45.74285" lon="5.24786">
        <ele>221</ele>
        <time>2021-02-28T09:58:31.790Z</time>
      </trkpt>
      <trkpt lat="45.7429" lon="5.24785">
        <ele>221</ele>
        <time>2021-02-28T09:58:32.789Z</time>
      </trkpt>
      <trkpt lat="45.74295" lon="5.24784">
        <ele>221</ele>
        <time>2021-02-28T09:58:33.790Z</time>
      </trkpt>
      <trkpt lat="45.743" lon="5.24783">
        <ele>221</ele>
        <time>2021-02-28T09:58:34.789Z</time>
      </trkpt>
      <trkpt lat="45.74305" lon="5.24782">
        <ele>222</ele>
        <time>2021-02-28T09:58:35.790Z</time>
      </trkpt>
      <trkpt lat="45.74311" lon="5.24781">
        <ele>222</ele>
        <time>2021-02-28T09:58:36.789Z</time>
      </trkpt>
      <trkpt lat="45.74316" lon="5.2478">
        <ele>222</ele>
        <time>2021-02-28T09:58:37.789Z</time>
      </trkpt>
      <trkpt lat="45.74321" lon="5.24779">
        <ele>222</ele>
        <time>2021-02-28T09:58:38.790Z</time>
      </trkpt>
      <trkpt lat="45.74326" lon="5.24779">
        <ele>222</ele>
        <time>2021-02-28T09:58:39.790Z</time>
      </trkpt>
      <trkpt lat="45.74331" lon="5.24778">
        <ele>222</ele>
        <time>2021-02-28T09:58:40.789Z</time>
      </trkpt>
      <trkpt lat="45.74336" lon="5.24778">
        <ele>222</ele>
        <time>2021-02-28T09:58:41.790Z</time>
      </trkpt>
      <trkpt lat="45.74342" lon="5.24778">
        <ele>221</ele>
        <time>2021-02-28T09:58:42.790Z</time>
      </trkpt>
      <trkpt lat="45.74347" lon="5.24778">
        <ele>221</ele>
        <time>2021-02-28T09:58:43.790Z</time>
      </trkpt>
      <trkpt lat="45.74353" lon="5.24778">
        <ele>221</ele>
        <time>2021-02-28T09:58:44.789Z</time>
      </trkpt>
      <trkpt lat="45.74358" lon="5.24778">
        <ele>221</ele>
        <time>2021-02-28T09:58:45.789Z</time>
      </trkpt>
      <trkpt lat="45.74364" lon="5.24778">
        <ele>220</ele>
        <time>2021-02-28T09:58:46.789Z</time>
      </trkpt>
      <trkpt lat="45.74369" lon="5.24778">
        <ele>220</ele>
        <time>2021-02-28T09:58:47.789Z</time>
      </trkpt>
      <trkpt lat="45.74375" lon="5.24778">
        <ele>220</ele>
        <time>2021-02-28T09:58:48.789Z</time>
      </trkpt>
      <trkpt lat="45.7438" lon="5.24778">
        <ele>220</ele>
        <time>2021-02-28T09:58:49.790Z</time>
      </trkpt>
      <trkpt lat="45.74386" lon="5.24778">
        <ele>220</ele>
        <time>2021-02-28T09:58:50.789Z</time>
      </trkpt>
      <trkpt lat="45.74391" lon="5.24779">
        <ele>220</ele>
        <time>2021-02-28T09:58:51.789Z</time>
      </trkpt>
      <trkpt lat="45.74397" lon="5.24779">
        <ele>220</ele>
        <time>2021-02-28T09:58:52.789Z</time>
      </trkpt>
      <trkpt lat="45.74402" lon="5.2478">
        <ele>220</ele>
        <time>2021-02-28T09:58:53.790Z</time>
      </trkpt>
      <trkpt lat="45.74408" lon="5.2478">
        <ele>220</ele>
        <time>2021-02-28T09:58:54.790Z</time>
      </trkpt>
      <trkpt lat="45.74414" lon="5.24781">
        <ele>220</ele>
        <time>2021-02-28T09:58:55.789Z</time>
      </trkpt>
      <trkpt lat="45.74419" lon="5.24782">
        <ele>220</ele>
        <time>2021-02-28T09:58:56.790Z</time>
      </trkpt>
      <trkpt lat="45.74425" lon="5.24783">
        <ele>220</ele>
        <time>2021-02-28T09:58:57.789Z</time>
      </trkpt>
      <trkpt lat="45.7443" lon="5.24784">
        <ele>220</ele>
        <time>2021-02-28T09:58:58.790Z</time>
      </trkpt>
      <trkpt lat="45.74436" lon="5.24785">
        <ele>220</ele>
        <time>2021-02-28T09:58:59.789Z</time>
      </trkpt>
      <trkpt lat="45.74442" lon="5.24786">
        <ele>220</ele>
        <time>2021-02-28T09:59:00.790Z</time>
      </trkpt>
      <trkpt lat="45.74448" lon="5.24788">
        <ele>220</ele>
        <time>2021-02-28T09:59:01.790Z</time>
      </trkpt>
      <trkpt lat="45.74453" lon="5.24789">
        <ele>221</ele>
        <time>2021-02-28T09:59:02.789Z</time>
      </trkpt>
      <trkpt lat="45.74459" lon="5.24791">
        <ele>221</ele>
        <time>2021-02-28T09:59:03.790Z</time>
      </trkpt>
      <trkpt lat="45.74465" lon="5.24792">
        <ele>221</ele>
        <time>2021-02-28T09:59:04.789Z</time>
      </trkpt>
      <trkpt lat="45.74471" lon="5.24794">
        <ele>221</ele>
        <time>2021-02-28T09:59:05.789Z</time>
      </trkpt>
      <trkpt lat="45.74477" lon="5.24796">
        <ele>221</ele>
        <time>2021-02-28T09:59:06.790Z</time>
      </trkpt>
      <trkpt lat="45.74482" lon="5.24798">
        <ele>221</ele>
        <time>2021-02-28T09:59:07.790Z</time>
      </trkpt>
      <trkpt lat="45.74488" lon="5.24801">
        <ele>221</ele>
        <time>2021-02-28T09:59:08.789Z</time>
      </trkpt>
      <trkpt lat="45.74494" lon="5.24803">
        <ele>221</ele>
        <time>2021-02-28T09:59:09.790Z</time>
      </trkpt>
      <trkpt lat="45.74499" lon="5.24806">
        <ele>221</ele>
        <time>2021-02-28T09:59:10.789Z</time>
      </trkpt>
      <trkpt lat="45.74505" lon="5.24809">
        <ele>222</ele>
        <time>2021-02-28T09:59:11.790Z</time>
      </trkpt>
      <trkpt lat="45.74511" lon="5.24813">
        <ele>222</ele>
        <time>2021-02-28T09:59:12.789Z</time>
      </trkpt>
      <trkpt lat="45.74517" lon="5.24817">
        <ele>222</ele>
        <time>2021-02-28T09:59:13.790Z</time>
      </trkpt>
      <trkpt lat="45.74522" lon="5.24821">
        <ele>222</ele>
        <time>2021-02-28T09:59:14.790Z</time>
      </trkpt>
      <trkpt lat="45.74528" lon="5.24826">
        <ele>223</ele>
        <time>2021-02-28T09:59:15.790Z</time>
      </trkpt>
      <trkpt lat="45.74533" lon="5.2483">
        <ele>223</ele>
        <time>2021-02-28T09:59:16.790Z</time>
      </trkpt>
      <trkpt lat="45.74539" lon="5.24835">
        <ele>223</ele>
        <time>2021-02-28T09:59:17.789Z</time>
      </trkpt>
      <trkpt lat="45.74544" lon="5.2484">
        <ele>223</ele>
        <time>2021-02-28T09:59:18.790Z</time>
      </trkpt>
      <trkpt lat="45.74549" lon="5.24846">
        <ele>223</ele>
        <time>2021-02-28T09:59:19.790Z</time>
      </trkpt>
      <trkpt lat="45.74555" lon="5.24851">
        <ele>223</ele>
        <time>2021-02-28T09:59:20.789Z</time>
      </trkpt>
      <trkpt lat="45.74559" lon="5.24857">
        <ele>223</ele>
        <time>2021-02-28T09:59:21.790Z</time>
      </trkpt>
      <trkpt lat="45.74564" lon="5.24863">
        <ele>223</ele>
        <time>2021-02-28T09:59:22.789Z</time>
      </trkpt>
      <trkpt lat="45.74569" lon="5.24869">
        <ele>224</ele>
        <time>2021-02-28T09:59:23.790Z</time>
      </trkpt>
      <trkpt lat="45.74573" lon="5.24876">
        <ele>223</ele>
        <time>2021-02-28T09:59:24.789Z</time>
      </trkpt>
      <trkpt lat="45.74577" lon="5.24883">
        <ele>224</ele>
        <time>2021-02-28T09:59:25.789Z</time>
      </trkpt>
      <trkpt lat="45.74581" lon="5.2489">
        <ele>224</ele>
        <time>2021-02-28T09:59:26.789Z</time>
      </trkpt>
      <trkpt lat="45.74584" lon="5.24897">
        <ele>224</ele>
        <time>2021-02-28T09:59:27.789Z</time>
      </trkpt>
      <trkpt lat="45.74588" lon="5.24905">
        <ele>224</ele>
        <time>2021-02-28T09:59:28.790Z</time>
      </trkpt>
      <trkpt lat="45.74591" lon="5.24912">
        <ele>223</ele>
        <time>2021-02-28T09:59:29.790Z</time>
      </trkpt>
      <trkpt lat="45.74594" lon="5.2492">
        <ele>223</ele>
        <time>2021-02-28T09:59:30.789Z</time>
      </trkpt>
      <trkpt lat="45.74597" lon="5.24928">
        <ele>223</ele>
        <time>2021-02-28T09:59:31.790Z</time>
      </trkpt>
      <trkpt lat="45.74599" lon="5.24937">
        <ele>223</ele>
        <time>2021-02-28T09:59:32.789Z</time>
      </trkpt>
      <trkpt lat="45.74601" lon="5.24945">
        <ele>223</ele>
        <time>2021-02-28T09:59:33.790Z</time>
      </trkpt>
      <trkpt lat="45.74603" lon="5.24953">
        <ele>222</ele>
        <time>2021-02-28T09:59:34.790Z</time>
      </trkpt>
      <trkpt lat="45.74605" lon="5.24962">
        <ele>221</ele>
        <time>2021-02-28T09:59:35.790Z</time>
      </trkpt>
      <trkpt lat="45.74607" lon="5.2497">
        <ele>221</ele>
        <time>2021-02-28T09:59:36.790Z</time>
      </trkpt>
      <trkpt lat="45.74608" lon="5.24979">
        <ele>220</ele>
        <time>2021-02-28T09:59:37.790Z</time>
      </trkpt>
      <trkpt lat="45.7461" lon="5.24988">
        <ele>220</ele>
        <time>2021-02-28T09:59:38.790Z</time>
      </trkpt>
      <trkpt lat="45.74611" lon="5.24999">
        <ele>220</ele>
        <time>2021-02-28T09:59:39.789Z</time>
      </trkpt>
      <trkpt lat="45.74611" lon="5.25006">
        <ele>220</ele>
        <time>2021-02-28T09:59:40.789Z</time>
      </trkpt>
      <trkpt lat="45.74612" lon="5.25015">
        <ele>220</ele>
        <time>2021-02-28T09:59:41.790Z</time>
      </trkpt>
      <trkpt lat="45.74612" lon="5.25024">
        <ele>220</ele>
        <time>2021-02-28T09:59:42.790Z</time>
      </trkpt>
      <trkpt lat="45.74612" lon="5.25033">
        <ele>220</ele>
        <time>2021-02-28T09:59:43.789Z</time>
      </trkpt>
      <trkpt lat="45.74612" lon="5.25042">
        <ele>220</ele>
        <time>2021-02-28T09:59:44.789Z</time>
      </trkpt>
      <trkpt lat="45.74612" lon="5.25051">
        <ele>220</ele>
        <time>2021-02-28T09:59:45.790Z</time>
      </trkpt>
      <trkpt lat="45.74612" lon="5.2506">
        <ele>220</ele>
        <time>2021-02-28T09:59:46.790Z</time>
      </trkpt>
      <trkpt lat="45.74612" lon="5.25068">
        <ele>220</ele>
        <time>2021-02-28T09:59:47.790Z</time>
      </trkpt>
      <trkpt lat="45.74612" lon="5.25077">
        <ele>220</ele>
        <time>2021-02-28T09:59:48.789Z</time>
      </trkpt>
      <trkpt lat="45.74612" lon="5.25085">
        <ele>220</ele>
        <time>2021-02-28T09:59:49.789Z</time>
      </trkpt>
      <trkpt lat="45.74613" lon="5.25093">
        <ele>220</ele>
        <time>2021-02-28T09:59:50.790Z</time>
      </trkpt>
      <trkpt lat="45.74613" lon="5.25101">
        <ele>220</ele>
        <time>2021-02-28T09:59:51.789Z</time>
      </trkpt>
      <trkpt lat="45.74614" lon="5.25109">
        <ele>219</ele>
        <time>2021-02-28T09:59:52.790Z</time>
      </trkpt>
      <trkpt lat="45.74614" lon="5.25117">
        <ele>219</ele>
        <time>2021-02-28T09:59:53.790Z</time>
      </trkpt>
      <trkpt lat="45.74615" lon="5.25125">
        <ele>218</ele>
        <time>2021-02-28T09:59:54.789Z</time>
      </trkpt>
      <trkpt lat="45.74616" lon="5.25133">
        <ele>218</ele>
        <time>2021-02-28T09:59:55.789Z</time>
      </trkpt>
      <trkpt lat="45.74618" lon="5.25141">
        <ele>218</ele>
        <time>2021-02-28T09:59:56.790Z</time>
      </trkpt>
      <trkpt lat="45.74619" lon="5.25151">
        <ele>218</ele>
        <time>2021-02-28T09:59:57.789Z</time>
      </trkpt>
      <trkpt lat="45.74621" lon="5.25158">
        <ele>218</ele>
        <time>2021-02-28T09:59:58.790Z</time>
      </trkpt>
      <trkpt lat="45.74623" lon="5.25166">
        <ele>218</ele>
        <time>2021-02-28T09:59:59.790Z</time>
      </trkpt>
      <trkpt lat="45.74625" lon="5.25174">
        <ele>218</ele>
        <time>2021-02-28T10:00:00.789Z</time>
      </trkpt>
      <trkpt lat="45.74627" lon="5.2518">
        <ele>218</ele>
        <time>2021-02-28T10:00:01.789Z</time>
      </trkpt>
      <trkpt lat="45.74629" lon="5.25189">
        <ele>218</ele>
        <time>2021-02-28T10:00:02.790Z</time>
      </trkpt>
      <trkpt lat="45.74632" lon="5.25197">
        <ele>219</ele>
        <time>2021-02-28T10:00:03.789Z</time>
      </trkpt>
      <trkpt lat="45.74635" lon="5.25204">
        <ele>220</ele>
        <time>2021-02-28T10:00:04.789Z</time>
      </trkpt>
      <trkpt lat="45.74637" lon="5.25211">
        <ele>221</ele>
        <time>2021-02-28T10:00:05.789Z</time>
      </trkpt>
      <trkpt lat="45.7464" lon="5.25218">
        <ele>222</ele>
        <time>2021-02-28T10:00:06.790Z</time>
      </trkpt>
      <trkpt lat="45.74643" lon="5.25225">
        <ele>222</ele>
        <time>2021-02-28T10:00:07.790Z</time>
      </trkpt>
      <trkpt lat="45.74646" lon="5.25231">
        <ele>222</ele>
        <time>2021-02-28T10:00:08.790Z</time>
      </trkpt>
      <trkpt lat="45.74649" lon="5.25237">
        <ele>222</ele>
        <time>2021-02-28T10:00:09.789Z</time>
      </trkpt>
      <trkpt lat="45.74653" lon="5.25245">
        <ele>222</ele>
        <time>2021-02-28T10:00:10.789Z</time>
      </trkpt>
      <trkpt lat="45.74657" lon="5.25251">
        <ele>222</ele>
        <time>2021-02-28T10:00:11.789Z</time>
      </trkpt>
      <trkpt lat="45.7466" lon="5.25257">
        <ele>223</ele>
        <time>2021-02-28T10:00:12.789Z</time>
      </trkpt>
      <trkpt lat="45.74664" lon="5.25263">
        <ele>223</ele>
        <time>2021-02-28T10:00:13.789Z</time>
      </trkpt>
      <trkpt lat="45.74667" lon="5.25267">
        <ele>223</ele>
        <time>2021-02-28T10:00:14.790Z</time>
      </trkpt>
      <trkpt lat="45.74671" lon="5.25274">
        <ele>223</ele>
        <time>2021-02-28T10:00:15.790Z</time>
      </trkpt>
      <trkpt lat="45.74675" lon="5.25279">
        <ele>223</ele>
        <time>2021-02-28T10:00:16.790Z</time>
      </trkpt>
      <trkpt lat="45.74678" lon="5.25284">
        <ele>223</ele>
        <time>2021-02-28T10:00:17.790Z</time>
      </trkpt>
      <trkpt lat="45.74682" lon="5.2529">
        <ele>222</ele>
        <time>2021-02-28T10:00:18.790Z</time>
      </trkpt>
      <trkpt lat="45.74685" lon="5.25294">
        <ele>222</ele>
        <time>2021-02-28T10:00:19.789Z</time>
      </trkpt>
      <trkpt lat="45.7469" lon="5.253">
        <ele>222</ele>
        <time>2021-02-28T10:00:20.789Z</time>
      </trkpt>
      <trkpt lat="45.74695" lon="5.25305">
        <ele>222</ele>
        <time>2021-02-28T10:00:21.790Z</time>
      </trkpt>
      <trkpt lat="45.74699" lon="5.25309">
        <ele>222</ele>
        <time>2021-02-28T10:00:22.789Z</time>
      </trkpt>
      <trkpt lat="45.74703" lon="5.25314">
        <ele>222</ele>
        <time>2021-02-28T10:00:23.789Z</time>
      </trkpt>
      <trkpt lat="45.74707" lon="5.25318">
        <ele>222</ele>
        <time>2021-02-28T10:00:24.790Z</time>
      </trkpt>
      <trkpt lat="45.74711" lon="5.25322">
        <ele>222</ele>
        <time>2021-02-28T10:00:25.789Z</time>
      </trkpt>
      <trkpt lat="45.74715" lon="5.25326">
        <ele>222</ele>
        <time>2021-02-28T10:00:26.790Z</time>
      </trkpt>
      <trkpt lat="45.74721" lon="5.25331">
        <ele>223</ele>
        <time>2021-02-28T10:00:27.790Z</time>
      </trkpt>
      <trkpt lat="45.74725" lon="5.25334">
        <ele>223</ele>
        <time>2021-02-28T10:00:28.790Z</time>
      </trkpt>
      <trkpt lat="45.7473" lon="5.25339">
        <ele>224</ele>
        <time>2021-02-28T10:00:29.790Z</time>
      </trkpt>
      <trkpt lat="45.74735" lon="5.25343">
        <ele>224</ele>
        <time>2021-02-28T10:00:30.789Z</time>
      </trkpt>
      <trkpt lat="45.7474" lon="5.25347">
        <ele>225</ele>
        <time>2021-02-28T10:00:31.789Z</time>
      </trkpt>
      <trkpt lat="45.74745" lon="5.25351">
        <ele>225</ele>
        <time>2021-02-28T10:00:32.790Z</time>
      </trkpt>
      <trkpt lat="45.74751" lon="5.25354">
        <ele>225</ele>
        <time>2021-02-28T10:00:33.790Z</time>
      </trkpt>
      <trkpt lat="45.74756" lon="5.25357">
        <ele>225</ele>
        <time>2021-02-28T10:00:34.789Z</time>
      </trkpt>
      <trkpt lat="45.74761" lon="5.25359">
        <ele>225</ele>
        <time>2021-02-28T10:00:35.789Z</time>
      </trkpt>
      <trkpt lat="45.74766" lon="5.25362">
        <ele>225</ele>
        <time>2021-02-28T10:00:36.790Z</time>
      </trkpt>
      <trkpt lat="45.74772" lon="5.25364">
        <ele>225</ele>
        <time>2021-02-28T10:00:37.789Z</time>
      </trkpt>
      <trkpt lat="45.74778" lon="5.25366">
        <ele>225</ele>
        <time>2021-02-28T10:00:38.790Z</time>
      </trkpt>
      <trkpt lat="45.74783" lon="5.25368">
        <ele>225</ele>
        <time>2021-02-28T10:00:39.789Z</time>
      </trkpt>
      <trkpt lat="45.74789" lon="5.25369">
        <ele>225</ele>
        <time>2021-02-28T10:00:40.790Z</time>
      </trkpt>
      <trkpt lat="45.74793" lon="5.25371">
        <ele>225</ele>
        <time>2021-02-28T10:00:41.789Z</time>
      </trkpt>
      <trkpt lat="45.748" lon="5.25372">
        <ele>225</ele>
        <time>2021-02-28T10:00:42.789Z</time>
      </trkpt>
      <trkpt lat="45.74806" lon="5.25373">
        <ele>225</ele>
        <time>2021-02-28T10:00:43.789Z</time>
      </trkpt>
      <trkpt lat="45.74812" lon="5.25374">
        <ele>225</ele>
        <time>2021-02-28T10:00:44.789Z</time>
      </trkpt>
      <trkpt lat="45.74817" lon="5.25375">
        <ele>225</ele>
        <time>2021-02-28T10:00:45.790Z</time>
      </trkpt>
      <trkpt lat="45.74823" lon="5.25376">
        <ele>225</ele>
        <time>2021-02-28T10:00:46.790Z</time>
      </trkpt>
      <trkpt lat="45.74827" lon="5.25376">
        <ele>224</ele>
        <time>2021-02-28T10:00:47.790Z</time>
      </trkpt>
      <trkpt lat="45.74834" lon="5.25377">
        <ele>224</ele>
        <time>2021-02-28T10:00:48.789Z</time>
      </trkpt>
      <trkpt lat="45.7484" lon="5.25378">
        <ele>224</ele>
        <time>2021-02-28T10:00:49.789Z</time>
      </trkpt>
      <trkpt lat="45.74845" lon="5.25378">
        <ele>224</ele>
        <time>2021-02-28T10:00:50.789Z</time>
      </trkpt>
      <trkpt lat="45.7485" lon="5.25378">
        <ele>224</ele>
        <time>2021-02-28T10:00:51.789Z</time>
      </trkpt>
      <trkpt lat="45.74856" lon="5.25379">
        <ele>224</ele>
        <time>2021-02-28T10:00:52.789Z</time>
      </trkpt>
      <trkpt lat="45.74862" lon="5.25379">
        <ele>224</ele>
        <time>2021-02-28T10:00:53.789Z</time>
      </trkpt>
      <trkpt lat="45.74868" lon="5.25379">
        <ele>224</ele>
        <time>2021-02-28T10:00:54.789Z</time>
      </trkpt>
      <trkpt lat="45.74874" lon="5.2538">
        <ele>224</ele>
        <time>2021-02-28T10:00:55.789Z</time>
      </trkpt>
      <trkpt lat="45.74879" lon="5.2538">
        <ele>224</ele>
        <time>2021-02-28T10:00:56.790Z</time>
      </trkpt>
      <trkpt lat="45.74887" lon="5.2538">
        <ele>224</ele>
        <time>2021-02-28T10:00:57.790Z</time>
      </trkpt>
      <trkpt lat="45.74893" lon="5.2538">
        <ele>225</ele>
        <time>2021-02-28T10:00:58.790Z</time>
      </trkpt>
      <trkpt lat="45.74899" lon="5.2538">
        <ele>225</ele>
        <time>2021-02-28T10:00:59.789Z</time>
      </trkpt>
      <trkpt lat="45.74904" lon="5.25379">
        <ele>225</ele>
        <time>2021-02-28T10:01:00.789Z</time>
      </trkpt>
      <trkpt lat="45.74912" lon="5.25379">
        <ele>225</ele>
        <time>2021-02-28T10:01:01.790Z</time>
      </trkpt>
      <trkpt lat="45.74918" lon="5.25378">
        <ele>225</ele>
        <time>2021-02-28T10:01:02.790Z</time>
      </trkpt>
      <trkpt lat="45.74925" lon="5.25377">
        <ele>225</ele>
        <time>2021-02-28T10:01:03.789Z</time>
      </trkpt>
      <trkpt lat="45.74932" lon="5.25376">
        <ele>224</ele>
        <time>2021-02-28T10:01:04.790Z</time>
      </trkpt>
      <trkpt lat="45.74937" lon="5.25376">
        <ele>224</ele>
        <time>2021-02-28T10:01:05.790Z</time>
      </trkpt>
      <trkpt lat="45.74945" lon="5.25375">
        <ele>224</ele>
        <time>2021-02-28T10:01:06.789Z</time>
      </trkpt>
      <trkpt lat="45.74951" lon="5.25374">
        <ele>224</ele>
        <time>2021-02-28T10:01:07.790Z</time>
      </trkpt>
      <trkpt lat="45.74958" lon="5.25373">
        <ele>223</ele>
        <time>2021-02-28T10:01:08.790Z</time>
      </trkpt>
      <trkpt lat="45.74964" lon="5.25371">
        <ele>223</ele>
        <time>2021-02-28T10:01:09.790Z</time>
      </trkpt>
      <trkpt lat="45.7497" lon="5.2537">
        <ele>222</ele>
        <time>2021-02-28T10:01:10.790Z</time>
      </trkpt>
      <trkpt lat="45.74977" lon="5.25368">
        <ele>222</ele>
        <time>2021-02-28T10:01:11.789Z</time>
      </trkpt>
      <trkpt lat="45.74984" lon="5.25366">
        <ele>222</ele>
        <time>2021-02-28T10:01:12.790Z</time>
      </trkpt>
      <trkpt lat="45.7499" lon="5.25365">
        <ele>222</ele>
        <time>2021-02-28T10:01:13.789Z</time>
      </trkpt>
      <trkpt lat="45.74996" lon="5.25363">
        <ele>222</ele>
        <time>2021-02-28T10:01:14.789Z</time>
      </trkpt>
      <trkpt lat="45.75004" lon="5.2536">
        <ele>222</ele>
        <time>2021-02-28T10:01:15.790Z</time>
      </trkpt>
      <trkpt lat="45.75011" lon="5.25358">
        <ele>221</ele>
        <time>2021-02-28T10:01:16.790Z</time>
      </trkpt>
      <trkpt lat="45.75017" lon="5.25356">
        <ele>221</ele>
        <time>2021-02-28T10:01:17.789Z</time>
      </trkpt>
      <trkpt lat="45.75023" lon="5.25354">
        <ele>221</ele>
        <time>2021-02-28T10:01:18.789Z</time>
      </trkpt>
      <trkpt lat="45.75029" lon="5.25351">
        <ele>221</ele>
        <time>2021-02-28T10:01:19.790Z</time>
      </trkpt>
      <trkpt lat="45.75037" lon="5.25348">
        <ele>221</ele>
        <time>2021-02-28T10:01:20.789Z</time>
      </trkpt>
      <trkpt lat="45.75044" lon="5.25346">
        <ele>221</ele>
        <time>2021-02-28T10:01:21.790Z</time>
      </trkpt>
      <trkpt lat="45.75051" lon="5.25343">
        <ele>221</ele>
        <time>2021-02-28T10:01:22.790Z</time>
      </trkpt>
      <trkpt lat="45.75056" lon="5.25341">
        <ele>221</ele>
        <time>2021-02-28T10:01:23.789Z</time>
      </trkpt>
      <trkpt lat="45.75064" lon="5.25338">
        <ele>221</ele>
        <time>2021-02-28T10:01:24.790Z</time>
      </trkpt>
      <trkpt lat="45.75071" lon="5.25336">
        <ele>221</ele>
        <time>2021-02-28T10:01:25.789Z</time>
      </trkpt>
      <trkpt lat="45.75078" lon="5.25333">
        <ele>221</ele>
        <time>2021-02-28T10:01:26.789Z</time>
      </trkpt>
      <trkpt lat="45.75085" lon="5.25331">
        <ele>221</ele>
        <time>2021-02-28T10:01:27.790Z</time>
      </trkpt>
      <trkpt lat="45.7509" lon="5.25329">
        <ele>221</ele>
        <time>2021-02-28T10:01:28.789Z</time>
      </trkpt>
      <trkpt lat="45.75098" lon="5.25326">
        <ele>220</ele>
        <time>2021-02-28T10:01:29.789Z</time>
      </trkpt>
      <trkpt lat="45.75105" lon="5.25324">
        <ele>220</ele>
        <time>2021-02-28T10:01:30.790Z</time>
      </trkpt>
      <trkpt lat="45.75112" lon="5.25321">
        <ele>220</ele>
        <time>2021-02-28T10:01:31.789Z</time>
      </trkpt>
      <trkpt lat="45.75117" lon="5.25319">
        <ele>220</ele>
        <time>2021-02-28T10:01:32.790Z</time>
      </trkpt>
      <trkpt lat="45.75125" lon="5.25316">
        <ele>220</ele>
        <time>2021-02-28T10:01:33.790Z</time>
      </trkpt>
      <trkpt lat="45.75132" lon="5.25314">
        <ele>219</ele>
        <time>2021-02-28T10:01:34.790Z</time>
      </trkpt>
      <trkpt lat="45.75138" lon="5.25311">
        <ele>219</ele>
        <time>2021-02-28T10:01:35.789Z</time>
      </trkpt>
      <trkpt lat="45.75145" lon="5.25309">
        <ele>219</ele>
        <time>2021-02-28T10:01:36.790Z</time>
      </trkpt>
      <trkpt lat="45.75151" lon="5.25307">
        <ele>219</ele>
        <time>2021-02-28T10:01:37.789Z</time>
      </trkpt>
      <trkpt lat="45.75157" lon="5.25304">
        <ele>219</ele>
        <time>2021-02-28T10:01:38.789Z</time>
      </trkpt>
      <trkpt lat="45.75164" lon="5.25302">
        <ele>219</ele>
        <time>2021-02-28T10:01:39.790Z</time>
      </trkpt>
      <trkpt lat="45.7517" lon="5.253">
        <ele>219</ele>
        <time>2021-02-28T10:01:40.789Z</time>
      </trkpt>
      <trkpt lat="45.75177" lon="5.25298">
        <ele>219</ele>
        <time>2021-02-28T10:01:41.790Z</time>
      </trkpt>
      <trkpt lat="45.75183" lon="5.25295">
        <ele>218</ele>
        <time>2021-02-28T10:01:42.789Z</time>
      </trkpt>
      <trkpt lat="45.7519" lon="5.25293">
        <ele>218</ele>
        <time>2021-02-28T10:01:43.789Z</time>
      </trkpt>
      <trkpt lat="45.75197" lon="5.25291">
        <ele>218</ele>
        <time>2021-02-28T10:01:44.789Z</time>
      </trkpt>
      <trkpt lat="45.75203" lon="5.25289">
        <ele>218</ele>
        <time>2021-02-28T10:01:45.789Z</time>
      </trkpt>
      <trkpt lat="45.75209" lon="5.25288">
        <ele>218</ele>
        <time>2021-02-28T10:01:46.789Z</time>
      </trkpt>
      <trkpt lat="45.75217" lon="5.25287">
        <ele>217</ele>
        <time>2021-02-28T10:01:47.789Z</time>
      </trkpt>
      <trkpt lat="45.75224" lon="5.25286">
        <ele>217</ele>
        <time>2021-02-28T10:01:48.790Z</time>
      </trkpt>
      <trkpt lat="45.75232" lon="5.25286">
        <ele>216</ele>
        <time>2021-02-28T10:01:49.790Z</time>
      </trkpt>
      <trkpt lat="45.75237" lon="5.25287">
        <ele>216</ele>
        <time>2021-02-28T10:01:50.789Z</time>
      </trkpt>
      <trkpt lat="45.75245" lon="5.25287">
        <ele>215</ele>
        <time>2021-02-28T10:01:51.789Z</time>
      </trkpt>
      <trkpt lat="45.75252" lon="5.25288">
        <ele>215</ele>
        <time>2021-02-28T10:01:52.789Z</time>
      </trkpt>
      <trkpt lat="45.75259" lon="5.25289">
        <ele>215</ele>
        <time>2021-02-28T10:01:53.789Z</time>
      </trkpt>
      <trkpt lat="45.75266" lon="5.2529">
        <ele>215</ele>
        <time>2021-02-28T10:01:54.789Z</time>
      </trkpt>
      <trkpt lat="45.75273" lon="5.25292">
        <ele>215</ele>
        <time>2021-02-28T10:01:55.790Z</time>
      </trkpt>
      <trkpt lat="45.75281" lon="5.25293">
        <ele>215</ele>
        <time>2021-02-28T10:01:56.789Z</time>
      </trkpt>
      <trkpt lat="45.75288" lon="5.25294">
        <ele>215</ele>
        <time>2021-02-28T10:01:57.790Z</time>
      </trkpt>
      <trkpt lat="45.75295" lon="5.25296">
        <ele>215</ele>
        <time>2021-02-28T10:01:58.790Z</time>
      </trkpt>
      <trkpt lat="45.75302" lon="5.25297">
        <ele>214</ele>
        <time>2021-02-28T10:01:59.790Z</time>
      </trkpt>
      <trkpt lat="45.75311" lon="5.25299">
        <ele>214</ele>
        <time>2021-02-28T10:02:00.789Z</time>
      </trkpt>
      <trkpt lat="45.75316" lon="5.253">
        <ele>214</ele>
        <time>2021-02-28T10:02:01.789Z</time>
      </trkpt>
      <trkpt lat="45.75324" lon="5.25302">
        <ele>214</ele>
        <time>2021-02-28T10:02:02.789Z</time>
      </trkpt>
      <trkpt lat="45.75331" lon="5.25303">
        <ele>214</ele>
        <time>2021-02-28T10:02:03.790Z</time>
      </trkpt>
      <trkpt lat="45.75337" lon="5.25305">
        <ele>214</ele>
        <time>2021-02-28T10:02:04.789Z</time>
      </trkpt>
      <trkpt lat="45.75344" lon="5.25306">
        <ele>214</ele>
        <time>2021-02-28T10:02:05.789Z</time>
      </trkpt>
      <trkpt lat="45.7535" lon="5.25307">
        <ele>214</ele>
        <time>2021-02-28T10:02:06.790Z</time>
      </trkpt>
      <trkpt lat="45.75357" lon="5.25309">
        <ele>214</ele>
        <time>2021-02-28T10:02:07.790Z</time>
      </trkpt>
      <trkpt lat="45.75363" lon="5.2531">
        <ele>213</ele>
        <time>2021-02-28T10:02:08.789Z</time>
      </trkpt>
      <trkpt lat="45.7537" lon="5.25311">
        <ele>213</ele>
        <time>2021-02-28T10:02:09.789Z</time>
      </trkpt>
      <trkpt lat="45.75375" lon="5.25312">
        <ele>213</ele>
        <time>2021-02-28T10:02:10.789Z</time>
      </trkpt>
      <trkpt lat="45.75382" lon="5.25314">
        <ele>213</ele>
        <time>2021-02-28T10:02:11.789Z</time>
      </trkpt>
      <trkpt lat="45.75389" lon="5.25315">
        <ele>213</ele>
        <time>2021-02-28T10:02:12.789Z</time>
      </trkpt>
      <trkpt lat="45.75395" lon="5.25316">
        <ele>213</ele>
        <time>2021-02-28T10:02:13.790Z</time>
      </trkpt>
      <trkpt lat="45.75401" lon="5.25317">
        <ele>212</ele>
        <time>2021-02-28T10:02:14.790Z</time>
      </trkpt>
      <trkpt lat="45.75408" lon="5.25319">
        <ele>212</ele>
        <time>2021-02-28T10:02:15.790Z</time>
      </trkpt>
      <trkpt lat="45.75415" lon="5.2532">
        <ele>212</ele>
        <time>2021-02-28T10:02:16.789Z</time>
      </trkpt>
      <trkpt lat="45.75421" lon="5.25322">
        <ele>212</ele>
        <time>2021-02-28T10:02:17.790Z</time>
      </trkpt>
      <trkpt lat="45.75428" lon="5.25323">
        <ele>212</ele>
        <time>2021-02-28T10:02:18.789Z</time>
      </trkpt>
      <trkpt lat="45.75435" lon="5.25324">
        <ele>212</ele>
        <time>2021-02-28T10:02:19.790Z</time>
      </trkpt>
      <trkpt lat="45.75442" lon="5.25326">
        <ele>212</ele>
        <time>2021-02-28T10:02:20.789Z</time>
      </trkpt>
      <trkpt lat="45.75449" lon="5.25327">
        <ele>212</ele>
        <time>2021-02-28T10:02:21.789Z</time>
      </trkpt>
      <trkpt lat="45.75455" lon="5.25328">
        <ele>212</ele>
        <time>2021-02-28T10:02:22.790Z</time>
      </trkpt>
      <trkpt lat="45.75461" lon="5.25329">
        <ele>212</ele>
        <time>2021-02-28T10:02:23.789Z</time>
      </trkpt>
      <trkpt lat="45.75469" lon="5.25331">
        <ele>212</ele>
        <time>2021-02-28T10:02:24.790Z</time>
      </trkpt>
      <trkpt lat="45.75476" lon="5.25332">
        <ele>212</ele>
        <time>2021-02-28T10:02:25.790Z</time>
      </trkpt>
      <trkpt lat="45.75483" lon="5.25334">
        <ele>212</ele>
        <time>2021-02-28T10:02:26.789Z</time>
      </trkpt>
      <trkpt lat="45.75489" lon="5.25335">
        <ele>212</ele>
        <time>2021-02-28T10:02:27.790Z</time>
      </trkpt>
      <trkpt lat="45.75496" lon="5.25336">
        <ele>212</ele>
        <time>2021-02-28T10:02:28.789Z</time>
      </trkpt>
      <trkpt lat="45.75501" lon="5.25337">
        <ele>212</ele>
        <time>2021-02-28T10:02:29.789Z</time>
      </trkpt>
      <trkpt lat="45.75509" lon="5.25338">
        <ele>212</ele>
        <time>2021-02-28T10:02:30.789Z</time>
      </trkpt>
      <trkpt lat="45.75516" lon="5.2534">
        <ele>212</ele>
        <time>2021-02-28T10:02:31.790Z</time>
      </trkpt>
      <trkpt lat="45.75522" lon="5.25341">
        <ele>212</ele>
        <time>2021-02-28T10:02:32.789Z</time>
      </trkpt>
      <trkpt lat="45.75528" lon="5.25342">
        <ele>212</ele>
        <time>2021-02-28T10:02:33.790Z</time>
      </trkpt>
      <trkpt lat="45.75535" lon="5.25343">
        <ele>212</ele>
        <time>2021-02-28T10:02:34.789Z</time>
      </trkpt>
      <trkpt lat="45.75541" lon="5.25344">
        <ele>212</ele>
        <time>2021-02-28T10:02:35.790Z</time>
      </trkpt>
      <trkpt lat="45.75546" lon="5.25345">
        <ele>212</ele>
        <time>2021-02-28T10:02:36.790Z</time>
      </trkpt>
      <trkpt lat="45.75553" lon="5.25347">
        <ele>212</ele>
        <time>2021-02-28T10:02:37.789Z</time>
      </trkpt>
      <trkpt lat="45.75559" lon="5.25348">
        <ele>212</ele>
        <time>2021-02-28T10:02:38.790Z</time>
      </trkpt>
      <trkpt lat="45.75565" lon="5.2535">
        <ele>212</ele>
        <time>2021-02-28T10:02:39.789Z</time>
      </trkpt>
      <trkpt lat="45.75572" lon="5.25352">
        <ele>213</ele>
        <time>2021-02-28T10:02:40.790Z</time>
      </trkpt>
      <trkpt lat="45.75578" lon="5.25354">
        <ele>213</ele>
        <time>2021-02-28T10:02:41.789Z</time>
      </trkpt>
      <trkpt lat="45.75584" lon="5.25356">
        <ele>213</ele>
        <time>2021-02-28T10:02:42.789Z</time>
      </trkpt>
      <trkpt lat="45.75591" lon="5.25358">
        <ele>213</ele>
        <time>2021-02-28T10:02:43.790Z</time>
      </trkpt>
      <trkpt lat="45.75597" lon="5.25359">
        <ele>212</ele>
        <time>2021-02-28T10:02:44.790Z</time>
      </trkpt>
      <trkpt lat="45.75603" lon="5.25359">
        <ele>212</ele>
        <time>2021-02-28T10:02:45.789Z</time>
      </trkpt>
      <trkpt lat="45.7561" lon="5.25358">
        <ele>212</ele>
        <time>2021-02-28T10:02:46.789Z</time>
      </trkpt>
      <trkpt lat="45.75616" lon="5.25357">
        <ele>212</ele>
        <time>2021-02-28T10:02:47.789Z</time>
      </trkpt>
      <trkpt lat="45.75623" lon="5.25356">
        <ele>212</ele>
        <time>2021-02-28T10:02:48.789Z</time>
      </trkpt>
      <trkpt lat="45.75629" lon="5.25354">
        <ele>212</ele>
        <time>2021-02-28T10:02:49.789Z</time>
      </trkpt>
      <trkpt lat="45.75636" lon="5.25353">
        <ele>212</ele>
        <time>2021-02-28T10:02:50.789Z</time>
      </trkpt>
      <trkpt lat="45.7564" lon="5.25353">
        <ele>211</ele>
        <time>2021-02-28T10:02:51.790Z</time>
      </trkpt>
      <trkpt lat="45.75646" lon="5.25354">
        <ele>211</ele>
        <time>2021-02-28T10:02:52.790Z</time>
      </trkpt>
      <trkpt lat="45.75652" lon="5.25355">
        <ele>211</ele>
        <time>2021-02-28T10:02:53.789Z</time>
      </trkpt>
      <trkpt lat="45.75659" lon="5.25356">
        <ele>211</ele>
        <time>2021-02-28T10:02:54.789Z</time>
      </trkpt>
      <trkpt lat="45.75665" lon="5.25356">
        <ele>212</ele>
        <time>2021-02-28T10:02:55.789Z</time>
      </trkpt>
      <trkpt lat="45.75671" lon="5.25356">
        <ele>212</ele>
        <time>2021-02-28T10:02:56.789Z</time>
      </trkpt>
      <trkpt lat="45.75677" lon="5.25356">
        <ele>212</ele>
        <time>2021-02-28T10:02:57.790Z</time>
      </trkpt>
      <trkpt lat="45.75683" lon="5.25357">
        <ele>212</ele>
        <time>2021-02-28T10:02:58.789Z</time>
      </trkpt>
      <trkpt lat="45.75689" lon="5.25358">
        <ele>213</ele>
        <time>2021-02-28T10:02:59.789Z</time>
      </trkpt>
      <trkpt lat="45.75694" lon="5.25358">
        <ele>213</ele>
        <time>2021-02-28T10:03:00.790Z</time>
      </trkpt>
      <trkpt lat="45.757" lon="5.25359">
        <ele>213</ele>
        <time>2021-02-28T10:03:01.789Z</time>
      </trkpt>
      <trkpt lat="45.75705" lon="5.2536">
        <ele>213</ele>
        <time>2021-02-28T10:03:02.789Z</time>
      </trkpt>
      <trkpt lat="45.75711" lon="5.25362">
        <ele>213</ele>
        <time>2021-02-28T10:03:03.789Z</time>
      </trkpt>
      <trkpt lat="45.75716" lon="5.25364">
        <ele>213</ele>
        <time>2021-02-28T10:03:04.790Z</time>
      </trkpt>
      <trkpt lat="45.75721" lon="5.25365">
        <ele>213</ele>
        <time>2021-02-28T10:03:05.789Z</time>
      </trkpt>
      <trkpt lat="45.75726" lon="5.25367">
        <ele>213</ele>
        <time>2021-02-28T10:03:06.790Z</time>
      </trkpt>
      <trkpt lat="45.7573" lon="5.25369">
        <ele>213</ele>
        <time>2021-02-28T10:03:07.789Z</time>
      </trkpt>
      <trkpt lat="45.75735" lon="5.25371">
        <ele>213</ele>
        <time>2021-02-28T10:03:08.789Z</time>
      </trkpt>
      <trkpt lat="45.75739" lon="5.25372">
        <ele>213</ele>
        <time>2021-02-28T10:03:09.790Z</time>
      </trkpt>
      <trkpt lat="45.75744" lon="5.25374">
        <ele>213</ele>
        <time>2021-02-28T10:03:10.789Z</time>
      </trkpt>
      <trkpt lat="45.75749" lon="5.25376">
        <ele>213</ele>
        <time>2021-02-28T10:03:11.789Z</time>
      </trkpt>
      <trkpt lat="45.75753" lon="5.25378">
        <ele>214</ele>
        <time>2021-02-28T10:03:12.789Z</time>
      </trkpt>
      <trkpt lat="45.75758" lon="5.2538">
        <ele>213</ele>
        <time>2021-02-28T10:03:13.790Z</time>
      </trkpt>
      <trkpt lat="45.75763" lon="5.25381">
        <ele>213</ele>
        <time>2021-02-28T10:03:14.790Z</time>
      </trkpt>
      <trkpt lat="45.75767" lon="5.25383">
        <ele>213</ele>
        <time>2021-02-28T10:03:15.790Z</time>
      </trkpt>
      <trkpt lat="45.75772" lon="5.25385">
        <ele>213</ele>
        <time>2021-02-28T10:03:16.789Z</time>
      </trkpt>
      <trkpt lat="45.75777" lon="5.25387">
        <ele>213</ele>
        <time>2021-02-28T10:03:17.789Z</time>
      </trkpt>
      <trkpt lat="45.75781" lon="5.25388">
        <ele>213</ele>
        <time>2021-02-28T10:03:18.789Z</time>
      </trkpt>
      <trkpt lat="45.75786" lon="5.2539">
        <ele>213</ele>
        <time>2021-02-28T10:03:19.789Z</time>
      </trkpt>
      <trkpt lat="45.7579" lon="5.25392">
        <ele>213</ele>
        <time>2021-02-28T10:03:20.789Z</time>
      </trkpt>
      <trkpt lat="45.75795" lon="5.25394">
        <ele>214</ele>
        <time>2021-02-28T10:03:21.790Z</time>
      </trkpt>
      <trkpt lat="45.758" lon="5.25395">
        <ele>214</ele>
        <time>2021-02-28T10:03:22.790Z</time>
      </trkpt>
      <trkpt lat="45.75805" lon="5.25397">
        <ele>214</ele>
        <time>2021-02-28T10:03:23.789Z</time>
      </trkpt>
      <trkpt lat="45.75809" lon="5.25399">
        <ele>215</ele>
        <time>2021-02-28T10:03:24.790Z</time>
      </trkpt>
      <trkpt lat="45.75814" lon="5.25401">
        <ele>215</ele>
        <time>2021-02-28T10:03:25.790Z</time>
      </trkpt>
      <trkpt lat="45.75819" lon="5.25402">
        <ele>215</ele>
        <time>2021-02-28T10:03:26.789Z</time>
      </trkpt>
      <trkpt lat="45.75824" lon="5.25404">
        <ele>215</ele>
        <time>2021-02-28T10:03:27.789Z</time>
      </trkpt>
      <trkpt lat="45.75828" lon="5.25406">
        <ele>215</ele>
        <time>2021-02-28T10:03:28.789Z</time>
      </trkpt>
      <trkpt lat="45.75834" lon="5.25408">
        <ele>215</ele>
        <time>2021-02-28T10:03:29.789Z</time>
      </trkpt>
      <trkpt lat="45.75839" lon="5.25411">
        <ele>215</ele>
        <time>2021-02-28T10:03:30.789Z</time>
      </trkpt>
      <trkpt lat="45.75844" lon="5.25413">
        <ele>215</ele>
        <time>2021-02-28T10:03:31.789Z</time>
      </trkpt>
      <trkpt lat="45.7585" lon="5.25415">
        <ele>215</ele>
        <time>2021-02-28T10:03:32.789Z</time>
      </trkpt>
      <trkpt lat="45.75855" lon="5.25417">
        <ele>216</ele>
        <time>2021-02-28T10:03:33.790Z</time>
      </trkpt>
      <trkpt lat="45.7586" lon="5.25419">
        <ele>216</ele>
        <time>2021-02-28T10:03:34.789Z</time>
      </trkpt>
      <trkpt lat="45.75865" lon="5.2542">
        <ele>216</ele>
        <time>2021-02-28T10:03:35.790Z</time>
      </trkpt>
      <trkpt lat="45.7587" lon="5.25421">
        <ele>216</ele>
        <time>2021-02-28T10:03:36.789Z</time>
      </trkpt>
      <trkpt lat="45.75875" lon="5.25421">
        <ele>215</ele>
        <time>2021-02-28T10:03:37.790Z</time>
      </trkpt>
      <trkpt lat="45.75881" lon="5.25422">
        <ele>215</ele>
        <time>2021-02-28T10:03:38.790Z</time>
      </trkpt>
      <trkpt lat="45.75887" lon="5.25422">
        <ele>215</ele>
        <time>2021-02-28T10:03:39.789Z</time>
      </trkpt>
      <trkpt lat="45.75892" lon="5.25422">
        <ele>215</ele>
        <time>2021-02-28T10:03:40.789Z</time>
      </trkpt>
      <trkpt lat="45.75898" lon="5.25422">
        <ele>215</ele>
        <time>2021-02-28T10:03:41.790Z</time>
      </trkpt>
      <trkpt lat="45.75904" lon="5.25422">
        <ele>215</ele>
        <time>2021-02-28T10:03:42.790Z</time>
      </trkpt>
      <trkpt lat="45.75909" lon="5.25422">
        <ele>215</ele>
        <time>2021-02-28T10:03:43.789Z</time>
      </trkpt>
      <trkpt lat="45.75914" lon="5.25422">
        <ele>215</ele>
        <time>2021-02-28T10:03:44.789Z</time>
      </trkpt>
      <trkpt lat="45.7592" lon="5.25422">
        <ele>214</ele>
        <time>2021-02-28T10:03:45.789Z</time>
      </trkpt>
      <trkpt lat="45.75925" lon="5.25421">
        <ele>214</ele>
        <time>2021-02-28T10:03:46.789Z</time>
      </trkpt>
      <trkpt lat="45.7593" lon="5.2542">
        <ele>214</ele>
        <time>2021-02-28T10:03:47.790Z</time>
      </trkpt>
      <trkpt lat="45.75935" lon="5.25419">
        <ele>214</ele>
        <time>2021-02-28T10:03:48.789Z</time>
      </trkpt>
      <trkpt lat="45.7594" lon="5.25418">
        <ele>214</ele>
        <time>2021-02-28T10:03:49.789Z</time>
      </trkpt>
      <trkpt lat="45.75945" lon="5.25417">
        <ele>214</ele>
        <time>2021-02-28T10:03:50.789Z</time>
      </trkpt>
      <trkpt lat="45.75951" lon="5.25416">
        <ele>214</ele>
        <time>2021-02-28T10:03:51.790Z</time>
      </trkpt>
      <trkpt lat="45.75956" lon="5.25416">
        <ele>214</ele>
        <time>2021-02-28T10:03:52.790Z</time>
      </trkpt>
      <trkpt lat="45.75962" lon="5.25417">
        <ele>214</ele>
        <time>2021-02-28T10:03:53.790Z</time>
      </trkpt>
      <trkpt lat="45.75968" lon="5.25418">
        <ele>214</ele>
        <time>2021-02-28T10:03:54.789Z</time>
      </trkpt>
      <trkpt lat="45.75975" lon="5.25419">
        <ele>213</ele>
        <time>2021-02-28T10:03:55.789Z</time>
      </trkpt>
      <trkpt lat="45.75981" lon="5.2542">
        <ele>213</ele>
        <time>2021-02-28T10:03:56.789Z</time>
      </trkpt>
      <trkpt lat="45.75987" lon="5.25422">
        <ele>213</ele>
        <time>2021-02-28T10:03:57.790Z</time>
      </trkpt>
      <trkpt lat="45.75994" lon="5.25424">
        <ele>213</ele>
        <time>2021-02-28T10:03:58.790Z</time>
      </trkpt>
      <trkpt lat="45.76001" lon="5.25426">
        <ele>213</ele>
        <time>2021-02-28T10:03:59.790Z</time>
      </trkpt>
      <trkpt lat="45.76007" lon="5.25429">
        <ele>212</ele>
        <time>2021-02-28T10:04:00.790Z</time>
      </trkpt>
      <trkpt lat="45.76014" lon="5.25431">
        <ele>212</ele>
        <time>2021-02-28T10:04:01.789Z</time>
      </trkpt>
      <trkpt lat="45.76021" lon="5.25433">
        <ele>212</ele>
        <time>2021-02-28T10:04:02.789Z</time>
      </trkpt>
      <trkpt lat="45.76028" lon="5.25434">
        <ele>212</ele>
        <time>2021-02-28T10:04:03.789Z</time>
      </trkpt>
      <trkpt lat="45.76034" lon="5.25435">
        <ele>211</ele>
        <time>2021-02-28T10:04:04.789Z</time>
      </trkpt>
      <trkpt lat="45.76041" lon="5.25436">
        <ele>211</ele>
        <time>2021-02-28T10:04:05.790Z</time>
      </trkpt>
      <trkpt lat="45.76048" lon="5.25437">
        <ele>211</ele>
        <time>2021-02-28T10:04:06.790Z</time>
      </trkpt>
      <trkpt lat="45.76055" lon="5.25439">
        <ele>210</ele>
        <time>2021-02-28T10:04:07.789Z</time>
      </trkpt>
      <trkpt lat="45.76062" lon="5.2544">
        <ele>210</ele>
        <time>2021-02-28T10:04:08.789Z</time>
      </trkpt>
      <trkpt lat="45.76068" lon="5.25441">
        <ele>210</ele>
        <time>2021-02-28T10:04:09.789Z</time>
      </trkpt>
      <trkpt lat="45.76075" lon="5.25443">
        <ele>210</ele>
        <time>2021-02-28T10:04:10.789Z</time>
      </trkpt>
      <trkpt lat="45.76082" lon="5.25445">
        <ele>210</ele>
        <time>2021-02-28T10:04:11.790Z</time>
      </trkpt>
      <trkpt lat="45.76089" lon="5.25447">
        <ele>210</ele>
        <time>2021-02-28T10:04:12.790Z</time>
      </trkpt>
      <trkpt lat="45.76096" lon="5.25448">
        <ele>211</ele>
        <time>2021-02-28T10:04:13.789Z</time>
      </trkpt>
      <trkpt lat="45.76103" lon="5.2545">
        <ele>211</ele>
        <time>2021-02-28T10:04:14.790Z</time>
      </trkpt>
      <trkpt lat="45.7611" lon="5.25453">
        <ele>211</ele>
        <time>2021-02-28T10:04:15.789Z</time>
      </trkpt>
      <trkpt lat="45.76117" lon="5.25454">
        <ele>211</ele>
        <time>2021-02-28T10:04:16.789Z</time>
      </trkpt>
      <trkpt lat="45.76124" lon="5.25456">
        <ele>211</ele>
        <time>2021-02-28T10:04:17.789Z</time>
      </trkpt>
      <trkpt lat="45.76133" lon="5.25459">
        <ele>211</ele>
        <time>2021-02-28T10:04:18.790Z</time>
      </trkpt>
      <trkpt lat="45.76138" lon="5.2546">
        <ele>212</ele>
        <time>2021-02-28T10:04:19.789Z</time>
      </trkpt>
      <trkpt lat="45.76145" lon="5.25462">
        <ele>212</ele>
        <time>2021-02-28T10:04:20.789Z</time>
      </trkpt>
      <trkpt lat="45.76154" lon="5.25464">
        <ele>212</ele>
        <time>2021-02-28T10:04:21.790Z</time>
      </trkpt>
      <trkpt lat="45.76159" lon="5.25465">
        <ele>212</ele>
        <time>2021-02-28T10:04:22.789Z</time>
      </trkpt>
      <trkpt lat="45.76166" lon="5.25467">
        <ele>212</ele>
        <time>2021-02-28T10:04:23.790Z</time>
      </trkpt>
      <trkpt lat="45.76173" lon="5.25469">
        <ele>212</ele>
        <time>2021-02-28T10:04:24.789Z</time>
      </trkpt>
      <trkpt lat="45.7618" lon="5.25471">
        <ele>211</ele>
        <time>2021-02-28T10:04:25.790Z</time>
      </trkpt>
      <trkpt lat="45.76187" lon="5.25473">
        <ele>211</ele>
        <time>2021-02-28T10:04:26.790Z</time>
      </trkpt>
      <trkpt lat="45.76194" lon="5.25475">
        <ele>211</ele>
        <time>2021-02-28T10:04:27.789Z</time>
      </trkpt>
      <trkpt lat="45.76201" lon="5.25477">
        <ele>210</ele>
        <time>2021-02-28T10:04:28.789Z</time>
      </trkpt>
      <trkpt lat="45.76208" lon="5.25479">
        <ele>210</ele>
        <time>2021-02-28T10:04:29.790Z</time>
      </trkpt>
      <trkpt lat="45.76215" lon="5.25481">
        <ele>210</ele>
        <time>2021-02-28T10:04:30.789Z</time>
      </trkpt>
      <trkpt lat="45.76222" lon="5.25483">
        <ele>210</ele>
        <time>2021-02-28T10:04:31.790Z</time>
      </trkpt>
      <trkpt lat="45.76231" lon="5.25485">
        <ele>209</ele>
        <time>2021-02-28T10:04:32.790Z</time>
      </trkpt>
      <trkpt lat="45.76237" lon="5.25487">
        <ele>210</ele>
        <time>2021-02-28T10:04:33.789Z</time>
      </trkpt>
      <trkpt lat="45.76244" lon="5.25488">
        <ele>209</ele>
        <time>2021-02-28T10:04:34.790Z</time>
      </trkpt>
      <trkpt lat="45.7625" lon="5.2549">
        <ele>209</ele>
        <time>2021-02-28T10:04:35.789Z</time>
      </trkpt>
      <trkpt lat="45.76258" lon="5.25492">
        <ele>210</ele>
        <time>2021-02-28T10:04:36.790Z</time>
      </trkpt>
      <trkpt lat="45.76265" lon="5.25494">
        <ele>209</ele>
        <time>2021-02-28T10:04:37.789Z</time>
      </trkpt>
      <trkpt lat="45.76271" lon="5.25496">
        <ele>209</ele>
        <time>2021-02-28T10:04:38.789Z</time>
      </trkpt>
      <trkpt lat="45.76277" lon="5.25497">
        <ele>209</ele>
        <time>2021-02-28T10:04:39.789Z</time>
      </trkpt>
      <trkpt lat="45.76285" lon="5.25499">
        <ele>209</ele>
        <time>2021-02-28T10:04:40.790Z</time>
      </trkpt>
      <trkpt lat="45.76292" lon="5.25501">
        <ele>209</ele>
        <time>2021-02-28T10:04:41.789Z</time>
      </trkpt>
      <trkpt lat="45.76299" lon="5.25503">
        <ele>209</ele>
        <time>2021-02-28T10:04:42.790Z</time>
      </trkpt>
      <trkpt lat="45.76306" lon="5.25505">
        <ele>209</ele>
        <time>2021-02-28T10:04:43.789Z</time>
      </trkpt>
      <trkpt lat="45.76313" lon="5.25506">
        <ele>208</ele>
        <time>2021-02-28T10:04:44.789Z</time>
      </trkpt>
      <trkpt lat="45.7632" lon="5.25508">
        <ele>208</ele>
        <time>2021-02-28T10:04:45.790Z</time>
      </trkpt>
      <trkpt lat="45.76327" lon="5.2551">
        <ele>208</ele>
        <time>2021-02-28T10:04:46.790Z</time>
      </trkpt>
      <trkpt lat="45.76335" lon="5.25512">
        <ele>208</ele>
        <time>2021-02-28T10:04:47.790Z</time>
      </trkpt>
      <trkpt lat="45.76341" lon="5.25514">
        <ele>208</ele>
        <time>2021-02-28T10:04:48.790Z</time>
      </trkpt>
      <trkpt lat="45.7635" lon="5.25516">
        <ele>209</ele>
        <time>2021-02-28T10:04:49.790Z</time>
      </trkpt>
      <trkpt lat="45.76358" lon="5.25518">
        <ele>209</ele>
        <time>2021-02-28T10:04:50.790Z</time>
      </trkpt>
      <trkpt lat="45.76366" lon="5.25521">
        <ele>209</ele>
        <time>2021-02-28T10:04:51.790Z</time>
      </trkpt>
      <trkpt lat="45.76373" lon="5.25522">
        <ele>209</ele>
        <time>2021-02-28T10:04:52.790Z</time>
      </trkpt>
      <trkpt lat="45.76381" lon="5.25524">
        <ele>209</ele>
        <time>2021-02-28T10:04:53.789Z</time>
      </trkpt>
      <trkpt lat="45.76389" lon="5.25526">
        <ele>209</ele>
        <time>2021-02-28T10:04:54.790Z</time>
      </trkpt>
      <trkpt lat="45.76397" lon="5.25529">
        <ele>209</ele>
        <time>2021-02-28T10:04:55.789Z</time>
      </trkpt>
      <trkpt lat="45.76405" lon="5.25531">
        <ele>209</ele>
        <time>2021-02-28T10:04:56.789Z</time>
      </trkpt>
      <trkpt lat="45.76413" lon="5.25533">
        <ele>209</ele>
        <time>2021-02-28T10:04:57.789Z</time>
      </trkpt>
      <trkpt lat="45.7642" lon="5.25535">
        <ele>209</ele>
        <time>2021-02-28T10:04:58.790Z</time>
      </trkpt>
      <trkpt lat="45.7643" lon="5.25537">
        <ele>208</ele>
        <time>2021-02-28T10:04:59.789Z</time>
      </trkpt>
      <trkpt lat="45.76438" lon="5.25539">
        <ele>208</ele>
        <time>2021-02-28T10:05:00.789Z</time>
      </trkpt>
      <trkpt lat="45.76446" lon="5.25541">
        <ele>208</ele>
        <time>2021-02-28T10:05:01.789Z</time>
      </trkpt>
      <trkpt lat="45.76454" lon="5.25544">
        <ele>207</ele>
        <time>2021-02-28T10:05:02.789Z</time>
      </trkpt>
      <trkpt lat="45.76462" lon="5.25546">
        <ele>206</ele>
        <time>2021-02-28T10:05:03.789Z</time>
      </trkpt>
      <trkpt lat="45.7647" lon="5.25548">
        <ele>206</ele>
        <time>2021-02-28T10:05:04.789Z</time>
      </trkpt>
      <trkpt lat="45.76478" lon="5.2555">
        <ele>206</ele>
        <time>2021-02-28T10:05:05.789Z</time>
      </trkpt>
      <trkpt lat="45.76484" lon="5.25551">
        <ele>206</ele>
        <time>2021-02-28T10:05:06.789Z</time>
      </trkpt>
      <trkpt lat="45.76491" lon="5.25554">
        <ele>206</ele>
        <time>2021-02-28T10:05:07.789Z</time>
      </trkpt>
      <trkpt lat="45.76499" lon="5.25556">
        <ele>205</ele>
        <time>2021-02-28T10:05:08.789Z</time>
      </trkpt>
      <trkpt lat="45.76506" lon="5.25558">
        <ele>205</ele>
        <time>2021-02-28T10:05:09.790Z</time>
      </trkpt>
      <trkpt lat="45.76514" lon="5.2556">
        <ele>205</ele>
        <time>2021-02-28T10:05:10.789Z</time>
      </trkpt>
      <trkpt lat="45.76521" lon="5.25562">
        <ele>205</ele>
        <time>2021-02-28T10:05:11.789Z</time>
      </trkpt>
      <trkpt lat="45.76529" lon="5.25564">
        <ele>205</ele>
        <time>2021-02-28T10:05:12.790Z</time>
      </trkpt>
      <trkpt lat="45.76536" lon="5.25565">
        <ele>205</ele>
        <time>2021-02-28T10:05:13.789Z</time>
      </trkpt>
      <trkpt lat="45.76544" lon="5.25567">
        <ele>205</ele>
        <time>2021-02-28T10:05:14.789Z</time>
      </trkpt>
      <trkpt lat="45.76551" lon="5.25569">
        <ele>205</ele>
        <time>2021-02-28T10:05:15.790Z</time>
      </trkpt>
      <trkpt lat="45.76559" lon="5.25571">
        <ele>205</ele>
        <time>2021-02-28T10:05:16.789Z</time>
      </trkpt>
      <trkpt lat="45.76566" lon="5.25573">
        <ele>204</ele>
        <time>2021-02-28T10:05:17.789Z</time>
      </trkpt>
      <trkpt lat="45.76574" lon="5.25575">
        <ele>204</ele>
        <time>2021-02-28T10:05:18.789Z</time>
      </trkpt>
      <trkpt lat="45.7658" lon="5.25577">
        <ele>204</ele>
        <time>2021-02-28T10:05:19.789Z</time>
      </trkpt>
      <trkpt lat="45.76587" lon="5.25579">
        <ele>204</ele>
        <time>2021-02-28T10:05:20.789Z</time>
      </trkpt>
      <trkpt lat="45.76593" lon="5.25581">
        <ele>204</ele>
        <time>2021-02-28T10:05:21.789Z</time>
      </trkpt>
      <trkpt lat="45.766" lon="5.25583">
        <ele>204</ele>
        <time>2021-02-28T10:05:22.790Z</time>
      </trkpt>
      <trkpt lat="45.76607" lon="5.25584">
        <ele>204</ele>
        <time>2021-02-28T10:05:23.789Z</time>
      </trkpt>
      <trkpt lat="45.76613" lon="5.25586">
        <ele>203</ele>
        <time>2021-02-28T10:05:24.790Z</time>
      </trkpt>
      <trkpt lat="45.76619" lon="5.25588">
        <ele>203</ele>
        <time>2021-02-28T10:05:25.789Z</time>
      </trkpt>
      <trkpt lat="45.76626" lon="5.25589">
        <ele>203</ele>
        <time>2021-02-28T10:05:26.789Z</time>
      </trkpt>
      <trkpt lat="45.76632" lon="5.25591">
        <ele>203</ele>
        <time>2021-02-28T10:05:27.789Z</time>
      </trkpt>
      <trkpt lat="45.76638" lon="5.25592">
        <ele>203</ele>
        <time>2021-02-28T10:05:28.789Z</time>
      </trkpt>
      <trkpt lat="45.76644" lon="5.25594">
        <ele>203</ele>
        <time>2021-02-28T10:05:29.789Z</time>
      </trkpt>
      <trkpt lat="45.76651" lon="5.25595">
        <ele>204</ele>
        <time>2021-02-28T10:05:30.789Z</time>
      </trkpt>
      <trkpt lat="45.76657" lon="5.25597">
        <ele>204</ele>
        <time>2021-02-28T10:05:31.789Z</time>
      </trkpt>
      <trkpt lat="45.76663" lon="5.25599">
        <ele>204</ele>
        <time>2021-02-28T10:05:32.789Z</time>
      </trkpt>
      <trkpt lat="45.7667" lon="5.25601">
        <ele>204</ele>
        <time>2021-02-28T10:05:33.789Z</time>
      </trkpt>
      <trkpt lat="45.76676" lon="5.25602">
        <ele>204</ele>
        <time>2021-02-28T10:05:34.790Z</time>
      </trkpt>
      <trkpt lat="45.76682" lon="5.25603">
        <ele>204</ele>
        <time>2021-02-28T10:05:35.789Z</time>
      </trkpt>
      <trkpt lat="45.76688" lon="5.25605">
        <ele>204</ele>
        <time>2021-02-28T10:05:36.789Z</time>
      </trkpt>
      <trkpt lat="45.76694" lon="5.25607">
        <ele>204</ele>
        <time>2021-02-28T10:05:37.790Z</time>
      </trkpt>
      <trkpt lat="45.767" lon="5.25608">
        <ele>203</ele>
        <time>2021-02-28T10:05:38.789Z</time>
      </trkpt>
      <trkpt lat="45.76707" lon="5.2561">
        <ele>203</ele>
        <time>2021-02-28T10:05:39.789Z</time>
      </trkpt>
      <trkpt lat="45.76713" lon="5.25612">
        <ele>203</ele>
        <time>2021-02-28T10:05:40.789Z</time>
      </trkpt>
      <trkpt lat="45.76719" lon="5.25613">
        <ele>203</ele>
        <time>2021-02-28T10:05:41.789Z</time>
      </trkpt>
      <trkpt lat="45.76725" lon="5.25615">
        <ele>203</ele>
        <time>2021-02-28T10:05:42.790Z</time>
      </trkpt>
      <trkpt lat="45.76731" lon="5.25617">
        <ele>203</ele>
        <time>2021-02-28T10:05:43.789Z</time>
      </trkpt>
      <trkpt lat="45.76737" lon="5.25618">
        <ele>203</ele>
        <time>2021-02-28T10:05:44.790Z</time>
      </trkpt>
      <trkpt lat="45.76743" lon="5.2562">
        <ele>204</ele>
        <time>2021-02-28T10:05:45.789Z</time>
      </trkpt>
      <trkpt lat="45.76749" lon="5.25621">
        <ele>205</ele>
        <time>2021-02-28T10:05:46.789Z</time>
      </trkpt>
      <trkpt lat="45.76754" lon="5.25623">
        <ele>205</ele>
        <time>2021-02-28T10:05:47.789Z</time>
      </trkpt>
      <trkpt lat="45.7676" lon="5.25625">
        <ele>205</ele>
        <time>2021-02-28T10:05:48.789Z</time>
      </trkpt>
      <trkpt lat="45.76766" lon="5.25626">
        <ele>206</ele>
        <time>2021-02-28T10:05:49.789Z</time>
      </trkpt>
      <trkpt lat="45.76772" lon="5.25628">
        <ele>206</ele>
        <time>2021-02-28T10:05:50.789Z</time>
      </trkpt>
      <trkpt lat="45.76778" lon="5.2563">
        <ele>206</ele>
        <time>2021-02-28T10:05:51.790Z</time>
      </trkpt>
      <trkpt lat="45.76783" lon="5.25631">
        <ele>206</ele>
        <time>2021-02-28T10:05:52.790Z</time>
      </trkpt>
      <trkpt lat="45.76789" lon="5.25632">
        <ele>206</ele>
        <time>2021-02-28T10:05:53.789Z</time>
      </trkpt>
      <trkpt lat="45.76795" lon="5.25634">
        <ele>206</ele>
        <time>2021-02-28T10:05:54.790Z</time>
      </trkpt>
      <trkpt lat="45.76801" lon="5.25635">
        <ele>206</ele>
        <time>2021-02-28T10:05:55.789Z</time>
      </trkpt>
      <trkpt lat="45.76809" lon="5.25638">
        <ele>206</ele>
        <time>2021-02-28T10:05:56.789Z</time>
      </trkpt>
      <trkpt lat="45.76815" lon="5.25639">
        <ele>206</ele>
        <time>2021-02-28T10:06:58.825Z</time>
      </trkpt>
      <trkpt lat="45.76821" lon="5.25641">
        <ele>206</ele>
        <time>2021-02-28T10:06:59.825Z</time>
      </trkpt>
      <trkpt lat="45.76828" lon="5.25643">
        <ele>206</ele>
        <time>2021-02-28T10:07:00.825Z</time>
      </trkpt>
      <trkpt lat="45.76834" lon="5.25644">
        <ele>206</ele>
        <time>2021-02-28T10:07:01.826Z</time>
      </trkpt>
      <trkpt lat="45.76841" lon="5.25646">
        <ele>207</ele>
        <time>2021-02-28T10:07:02.825Z</time>
      </trkpt>
      <trkpt lat="45.76847" lon="5.25648">
        <ele>207</ele>
        <time>2021-02-28T10:07:03.825Z</time>
      </trkpt>
      <trkpt lat="45.76854" lon="5.2565">
        <ele>206</ele>
        <time>2021-02-28T10:07:04.826Z</time>
      </trkpt>
      <trkpt lat="45.7686" lon="5.25651">
        <ele>207</ele>
        <time>2021-02-28T10:07:05.825Z</time>
      </trkpt>
      <trkpt lat="45.76866" lon="5.25653">
        <ele>207</ele>
        <time>2021-02-28T10:07:06.825Z</time>
      </trkpt>
      <trkpt lat="45.76873" lon="5.25655">
        <ele>207</ele>
        <time>2021-02-28T10:07:07.825Z</time>
      </trkpt>
      <trkpt lat="45.76879" lon="5.25656">
        <ele>207</ele>
        <time>2021-02-28T10:07:08.825Z</time>
      </trkpt>
      <trkpt lat="45.76885" lon="5.25658">
        <ele>207</ele>
        <time>2021-02-28T10:07:09.825Z</time>
      </trkpt>
      <trkpt lat="45.76891" lon="5.2566">
        <ele>207</ele>
        <time>2021-02-28T10:07:10.825Z</time>
      </trkpt>
      <trkpt lat="45.76897" lon="5.25662">
        <ele>207</ele>
        <time>2021-02-28T10:07:11.825Z</time>
      </trkpt>
      <trkpt lat="45.76904" lon="5.25663">
        <ele>207</ele>
        <time>2021-02-28T10:07:12.826Z</time>
      </trkpt>
      <trkpt lat="45.7691" lon="5.25665">
        <ele>207</ele>
        <time>2021-02-28T10:07:13.826Z</time>
      </trkpt>
      <trkpt lat="45.76916" lon="5.25666">
        <ele>206</ele>
        <time>2021-02-28T10:07:14.825Z</time>
      </trkpt>
      <trkpt lat="45.76921" lon="5.25668">
        <ele>206</ele>
        <time>2021-02-28T10:07:15.825Z</time>
      </trkpt>
      <trkpt lat="45.76927" lon="5.25669">
        <ele>206</ele>
        <time>2021-02-28T10:07:16.826Z</time>
      </trkpt>
      <trkpt lat="45.76933" lon="5.25671">
        <ele>207</ele>
        <time>2021-02-28T10:07:17.825Z</time>
      </trkpt>
      <trkpt lat="45.76939" lon="5.25672">
        <ele>207</ele>
        <time>2021-02-28T10:07:18.825Z</time>
      </trkpt>
      <trkpt lat="45.76945" lon="5.25674">
        <ele>207</ele>
        <time>2021-02-28T10:07:19.825Z</time>
      </trkpt>
      <trkpt lat="45.7695" lon="5.25675">
        <ele>206</ele>
        <time>2021-02-28T10:07:20.825Z</time>
      </trkpt>
      <trkpt lat="45.76956" lon="5.25677">
        <ele>206</ele>
        <time>2021-02-28T10:07:21.825Z</time>
      </trkpt>
      <trkpt lat="45.76962" lon="5.25678">
        <ele>206</ele>
        <time>2021-02-28T10:07:22.825Z</time>
      </trkpt>
      <trkpt lat="45.76968" lon="5.2568">
        <ele>206</ele>
        <time>2021-02-28T10:07:23.826Z</time>
      </trkpt>
      <trkpt lat="45.76974" lon="5.25682">
        <ele>206</ele>
        <time>2021-02-28T10:07:24.825Z</time>
      </trkpt>
      <trkpt lat="45.76979" lon="5.25684">
        <ele>206</ele>
        <time>2021-02-28T10:07:25.826Z</time>
      </trkpt>
      <trkpt lat="45.76985" lon="5.25685">
        <ele>207</ele>
        <time>2021-02-28T10:07:26.825Z</time>
      </trkpt>
      <trkpt lat="45.76991" lon="5.25687">
        <ele>207</ele>
        <time>2021-02-28T10:07:27.825Z</time>
      </trkpt>
      <trkpt lat="45.76996" lon="5.25689">
        <ele>206</ele>
        <time>2021-02-28T10:07:28.825Z</time>
      </trkpt>
      <trkpt lat="45.77002" lon="5.25692">
        <ele>206</ele>
        <time>2021-02-28T10:07:29.826Z</time>
      </trkpt>
      <trkpt lat="45.77008" lon="5.25695">
        <ele>206</ele>
        <time>2021-02-28T10:07:30.825Z</time>
      </trkpt>
      <trkpt lat="45.77013" lon="5.25698">
        <ele>206</ele>
        <time>2021-02-28T10:07:31.825Z</time>
      </trkpt>
      <trkpt lat="45.77018" lon="5.25702">
        <ele>207</ele>
        <time>2021-02-28T10:07:32.825Z</time>
      </trkpt>
      <trkpt lat="45.77023" lon="5.25706">
        <ele>207</ele>
        <time>2021-02-28T10:07:33.826Z</time>
      </trkpt>
      <trkpt lat="45.77029" lon="5.2571">
        <ele>207</ele>
        <time>2021-02-28T10:07:34.825Z</time>
      </trkpt>
      <trkpt lat="45.77033" lon="5.25714">
        <ele>206</ele>
        <time>2021-02-28T10:07:35.825Z</time>
      </trkpt>
      <trkpt lat="45.77039" lon="5.25717">
        <ele>206</ele>
        <time>2021-02-28T10:07:36.825Z</time>
      </trkpt>
      <trkpt lat="45.77044" lon="5.25719">
        <ele>205</ele>
        <time>2021-02-28T10:07:37.826Z</time>
      </trkpt>
      <trkpt lat="45.77049" lon="5.25721">
        <ele>205</ele>
        <time>2021-02-28T10:07:38.826Z</time>
      </trkpt>
      <trkpt lat="45.77053" lon="5.25723">
        <ele>204</ele>
        <time>2021-02-28T10:07:39.825Z</time>
      </trkpt>
      <trkpt lat="45.77058" lon="5.25724">
        <ele>204</ele>
        <time>2021-02-28T10:07:40.826Z</time>
      </trkpt>
      <trkpt lat="45.77062" lon="5.25726">
        <ele>204</ele>
        <time>2021-02-28T10:07:41.826Z</time>
      </trkpt>
      <trkpt lat="45.77066" lon="5.2573">
        <ele>204</ele>
        <time>2021-02-28T10:07:42.825Z</time>
      </trkpt>
      <trkpt lat="45.77069" lon="5.25734">
        <ele>204</ele>
        <time>2021-02-28T10:07:43.826Z</time>
      </trkpt>
      <trkpt lat="45.77072" lon="5.25739">
        <ele>204</ele>
        <time>2021-02-28T10:07:44.825Z</time>
      </trkpt>
      <trkpt lat="45.77074" lon="5.25744">
        <ele>203</ele>
        <time>2021-02-28T10:07:45.825Z</time>
      </trkpt>
      <trkpt lat="45.77077" lon="5.25748">
        <ele>203</ele>
        <time>2021-02-28T10:07:46.825Z</time>
      </trkpt>
      <trkpt lat="45.7708" lon="5.25753">
        <ele>202</ele>
        <time>2021-02-28T10:07:47.825Z</time>
      </trkpt>
      <trkpt lat="45.77083" lon="5.25758">
        <ele>202</ele>
        <time>2021-02-28T10:07:48.825Z</time>
      </trkpt>
      <trkpt lat="45.77086" lon="5.25763">
        <ele>201</ele>
        <time>2021-02-28T10:07:49.825Z</time>
      </trkpt>
      <trkpt lat="45.77089" lon="5.25768">
        <ele>201</ele>
        <time>2021-02-28T10:07:50.825Z</time>
      </trkpt>
      <trkpt lat="45.77092" lon="5.25774">
        <ele>201</ele>
        <time>2021-02-28T10:07:51.825Z</time>
      </trkpt>
      <trkpt lat="45.77095" lon="5.25781">
        <ele>201</ele>
        <time>2021-02-28T10:07:52.825Z</time>
      </trkpt>
      <trkpt lat="45.77098" lon="5.25788">
        <ele>201</ele>
        <time>2021-02-28T10:07:53.825Z</time>
      </trkpt>
      <trkpt lat="45.77101" lon="5.25795">
        <ele>201</ele>
        <time>2021-02-28T10:07:54.825Z</time>
      </trkpt>
      <trkpt lat="45.77103" lon="5.25802">
        <ele>200</ele>
        <time>2021-02-28T10:07:55.826Z</time>
      </trkpt>
      <trkpt lat="45.77106" lon="5.25809">
        <ele>201</ele>
        <time>2021-02-28T10:07:56.825Z</time>
      </trkpt>
      <trkpt lat="45.77109" lon="5.25816">
        <ele>200</ele>
        <time>2021-02-28T10:07:57.825Z</time>
      </trkpt>
      <trkpt lat="45.77111" lon="5.25822">
        <ele>200</ele>
        <time>2021-02-28T10:07:58.825Z</time>
      </trkpt>
      <trkpt lat="45.77114" lon="5.25829">
        <ele>200</ele>
        <time>2021-02-28T10:07:59.825Z</time>
      </trkpt>
      <trkpt lat="45.77116" lon="5.25836">
        <ele>200</ele>
        <time>2021-02-28T10:08:00.826Z</time>
      </trkpt>
      <trkpt lat="45.77119" lon="5.25842">
        <ele>200</ele>
        <time>2021-02-28T10:08:01.825Z</time>
      </trkpt>
      <trkpt lat="45.77122" lon="5.25849">
        <ele>200</ele>
        <time>2021-02-28T10:08:02.825Z</time>
      </trkpt>
      <trkpt lat="45.77124" lon="5.25856">
        <ele>200</ele>
        <time>2021-02-28T10:08:03.825Z</time>
      </trkpt>
      <trkpt lat="45.77126" lon="5.25862">
        <ele>200</ele>
        <time>2021-02-28T10:08:04.825Z</time>
      </trkpt>
      <trkpt lat="45.77128" lon="5.25869">
        <ele>200</ele>
        <time>2021-02-28T10:08:05.825Z</time>
      </trkpt>
      <trkpt lat="45.7713" lon="5.25876">
        <ele>200</ele>
        <time>2021-02-28T10:08:06.825Z</time>
      </trkpt>
      <trkpt lat="45.77132" lon="5.25882">
        <ele>200</ele>
        <time>2021-02-28T10:08:07.825Z</time>
      </trkpt>
      <trkpt lat="45.77134" lon="5.25889">
        <ele>200</ele>
        <time>2021-02-28T10:08:08.825Z</time>
      </trkpt>
      <trkpt lat="45.77135" lon="5.25895">
        <ele>201</ele>
        <time>2021-02-28T10:08:09.825Z</time>
      </trkpt>
      <trkpt lat="45.77137" lon="5.25902">
        <ele>201</ele>
        <time>2021-02-28T10:08:10.825Z</time>
      </trkpt>
      <trkpt lat="45.77139" lon="5.25908">
        <ele>201</ele>
        <time>2021-02-28T10:08:11.826Z</time>
      </trkpt>
      <trkpt lat="45.7714" lon="5.25914">
        <ele>202</ele>
        <time>2021-02-28T10:08:12.826Z</time>
      </trkpt>
      <trkpt lat="45.77142" lon="5.25921">
        <ele>202</ele>
        <time>2021-02-28T10:08:13.825Z</time>
      </trkpt>
      <trkpt lat="45.77143" lon="5.25928">
        <ele>202</ele>
        <time>2021-02-28T10:08:14.825Z</time>
      </trkpt>
      <trkpt lat="45.77145" lon="5.25934">
        <ele>202</ele>
        <time>2021-02-28T10:08:15.825Z</time>
      </trkpt>
      <trkpt lat="45.77147" lon="5.2594">
        <ele>202</ele>
        <time>2021-02-28T10:08:16.826Z</time>
      </trkpt>
      <trkpt lat="45.77149" lon="5.25946">
        <ele>201</ele>
        <time>2021-02-28T10:08:17.825Z</time>
      </trkpt>
      <trkpt lat="45.77151" lon="5.25952">
        <ele>201</ele>
        <time>2021-02-28T10:08:18.825Z</time>
      </trkpt>
      <trkpt lat="45.77152" lon="5.25959">
        <ele>200</ele>
        <time>2021-02-28T10:08:19.826Z</time>
      </trkpt>
      <trkpt lat="45.77154" lon="5.25965">
        <ele>200</ele>
        <time>2021-02-28T10:08:20.826Z</time>
      </trkpt>
      <trkpt lat="45.77156" lon="5.25971">
        <ele>199</ele>
        <time>2021-02-28T10:08:21.825Z</time>
      </trkpt>
      <trkpt lat="45.77157" lon="5.25977">
        <ele>199</ele>
        <time>2021-02-28T10:08:22.825Z</time>
      </trkpt>
      <trkpt lat="45.77159" lon="5.25983">
        <ele>199</ele>
        <time>2021-02-28T10:08:23.826Z</time>
      </trkpt>
      <trkpt lat="45.7716" lon="5.25989">
        <ele>199</ele>
        <time>2021-02-28T10:08:24.825Z</time>
      </trkpt>
      <trkpt lat="45.77162" lon="5.25995">
        <ele>199</ele>
        <time>2021-02-28T10:08:25.825Z</time>
      </trkpt>
      <trkpt lat="45.77163" lon="5.26002">
        <ele>199</ele>
        <time>2021-02-28T10:08:26.826Z</time>
      </trkpt>
      <trkpt lat="45.77165" lon="5.26009">
        <ele>198</ele>
        <time>2021-02-28T10:08:27.825Z</time>
      </trkpt>
      <trkpt lat="45.77167" lon="5.26015">
        <ele>199</ele>
        <time>2021-02-28T10:08:28.826Z</time>
      </trkpt>
      <trkpt lat="45.77168" lon="5.26022">
        <ele>199</ele>
        <time>2021-02-28T10:08:29.825Z</time>
      </trkpt>
      <trkpt lat="45.7717" lon="5.26028">
        <ele>199</ele>
        <time>2021-02-28T10:08:30.825Z</time>
      </trkpt>
      <trkpt lat="45.77172" lon="5.26034">
        <ele>200</ele>
        <time>2021-02-28T10:08:31.825Z</time>
      </trkpt>
      <trkpt lat="45.77173" lon="5.26041">
        <ele>200</ele>
        <time>2021-02-28T10:08:32.825Z</time>
      </trkpt>
      <trkpt lat="45.77175" lon="5.26047">
        <ele>201</ele>
        <time>2021-02-28T10:08:33.825Z</time>
      </trkpt>
      <trkpt lat="45.77177" lon="5.26053">
        <ele>200</ele>
        <time>2021-02-28T10:08:34.825Z</time>
      </trkpt>
      <trkpt lat="45.77178" lon="5.26059">
        <ele>200</ele>
        <time>2021-02-28T10:08:35.825Z</time>
      </trkpt>
      <trkpt lat="45.7718" lon="5.26065">
        <ele>200</ele>
        <time>2021-02-28T10:08:36.825Z</time>
      </trkpt>
      <trkpt lat="45.77182" lon="5.26071">
        <ele>200</ele>
        <time>2021-02-28T10:08:37.825Z</time>
      </trkpt>
      <trkpt lat="45.77183" lon="5.26077">
        <ele>200</ele>
        <time>2021-02-28T10:08:38.825Z</time>
      </trkpt>
      <trkpt lat="45.77184" lon="5.26083">
        <ele>200</ele>
        <time>2021-02-28T10:08:39.825Z</time>
      </trkpt>
      <trkpt lat="45.77186" lon="5.26089">
        <ele>200</ele>
        <time>2021-02-28T10:08:40.825Z</time>
      </trkpt>
      <trkpt lat="45.77187" lon="5.26095">
        <ele>200</ele>
        <time>2021-02-28T10:08:41.825Z</time>
      </trkpt>
      <trkpt lat="45.77189" lon="5.26101">
        <ele>201</ele>
        <time>2021-02-28T10:08:42.825Z</time>
      </trkpt>
      <trkpt lat="45.77191" lon="5.26107">
        <ele>201</ele>
        <time>2021-02-28T10:08:43.825Z</time>
      </trkpt>
      <trkpt lat="45.77192" lon="5.26114">
        <ele>201</ele>
        <time>2021-02-28T10:08:44.826Z</time>
      </trkpt>
      <trkpt lat="45.77194" lon="5.2612">
        <ele>201</ele>
        <time>2021-02-28T10:08:45.825Z</time>
      </trkpt>
      <trkpt lat="45.77196" lon="5.26126">
        <ele>201</ele>
        <time>2021-02-28T10:08:46.825Z</time>
      </trkpt>
      <trkpt lat="45.77197" lon="5.26132">
        <ele>201</ele>
        <time>2021-02-28T10:08:47.825Z</time>
      </trkpt>
      <trkpt lat="45.77199" lon="5.26139">
        <ele>201</ele>
        <time>2021-02-28T10:08:48.825Z</time>
      </trkpt>
      <trkpt lat="45.772" lon="5.26145">
        <ele>201</ele>
        <time>2021-02-28T10:08:49.825Z</time>
      </trkpt>
      <trkpt lat="45.77202" lon="5.26151">
        <ele>201</ele>
        <time>2021-02-28T10:08:50.825Z</time>
      </trkpt>
      <trkpt lat="45.77203" lon="5.26157">
        <ele>202</ele>
        <time>2021-02-28T10:08:51.825Z</time>
      </trkpt>
      <trkpt lat="45.77205" lon="5.26164">
        <ele>202</ele>
        <time>2021-02-28T10:08:52.826Z</time>
      </trkpt>
      <trkpt lat="45.77207" lon="5.2617">
        <ele>202</ele>
        <time>2021-02-28T10:08:53.826Z</time>
      </trkpt>
      <trkpt lat="45.77208" lon="5.26176">
        <ele>202</ele>
        <time>2021-02-28T10:08:54.826Z</time>
      </trkpt>
      <trkpt lat="45.7721" lon="5.26182">
        <ele>201</ele>
        <time>2021-02-28T10:08:55.826Z</time>
      </trkpt>
      <trkpt lat="45.77212" lon="5.26189">
        <ele>201</ele>
        <time>2021-02-28T10:08:56.825Z</time>
      </trkpt>
      <trkpt lat="45.77213" lon="5.26195">
        <ele>201</ele>
        <time>2021-02-28T10:08:57.825Z</time>
      </trkpt>
      <trkpt lat="45.77215" lon="5.26202">
        <ele>201</ele>
        <time>2021-02-28T10:08:58.825Z</time>
      </trkpt>
      <trkpt lat="45.77217" lon="5.26208">
        <ele>201</ele>
        <time>2021-02-28T10:08:59.825Z</time>
      </trkpt>
      <trkpt lat="45.77219" lon="5.26215">
        <ele>201</ele>
        <time>2021-02-28T10:09:00.825Z</time>
      </trkpt>
      <trkpt lat="45.77221" lon="5.26222">
        <ele>201</ele>
        <time>2021-02-28T10:09:01.825Z</time>
      </trkpt>
      <trkpt lat="45.77222" lon="5.26228">
        <ele>201</ele>
        <time>2021-02-28T10:09:02.825Z</time>
      </trkpt>
      <trkpt lat="45.77224" lon="5.26235">
        <ele>201</ele>
        <time>2021-02-28T10:09:03.825Z</time>
      </trkpt>
      <trkpt lat="45.77225" lon="5.26241">
        <ele>201</ele>
        <time>2021-02-28T10:09:04.825Z</time>
      </trkpt>
      <trkpt lat="45.77227" lon="5.26248">
        <ele>201</ele>
        <time>2021-02-28T10:09:05.825Z</time>
      </trkpt>
      <trkpt lat="45.77229" lon="5.26254">
        <ele>202</ele>
        <time>2021-02-28T10:09:06.826Z</time>
      </trkpt>
      <trkpt lat="45.77231" lon="5.26261">
        <ele>202</ele>
        <time>2021-02-28T10:09:07.825Z</time>
      </trkpt>
      <trkpt lat="45.77233" lon="5.26268">
        <ele>202</ele>
        <time>2021-02-28T10:09:08.825Z</time>
      </trkpt>
      <trkpt lat="45.77235" lon="5.26274">
        <ele>202</ele>
        <time>2021-02-28T10:09:09.825Z</time>
      </trkpt>
      <trkpt lat="45.77237" lon="5.26281">
        <ele>202</ele>
        <time>2021-02-28T10:09:10.825Z</time>
      </trkpt>
      <trkpt lat="45.77238" lon="5.26287">
        <ele>202</ele>
        <time>2021-02-28T10:09:11.825Z</time>
      </trkpt>
      <trkpt lat="45.7724" lon="5.26294">
        <ele>202</ele>
        <time>2021-02-28T10:09:12.826Z</time>
      </trkpt>
      <trkpt lat="45.77242" lon="5.26301">
        <ele>202</ele>
        <time>2021-02-28T10:09:13.825Z</time>
      </trkpt>
      <trkpt lat="45.77244" lon="5.26307">
        <ele>202</ele>
        <time>2021-02-28T10:09:14.825Z</time>
      </trkpt>
      <trkpt lat="45.77245" lon="5.26314">
        <ele>202</ele>
        <time>2021-02-28T10:09:15.825Z</time>
      </trkpt>
      <trkpt lat="45.77247" lon="5.26321">
        <ele>202</ele>
        <time>2021-02-28T10:09:16.826Z</time>
      </trkpt>
      <trkpt lat="45.77249" lon="5.26328">
        <ele>202</ele>
        <time>2021-02-28T10:09:17.826Z</time>
      </trkpt>
      <trkpt lat="45.77251" lon="5.26334">
        <ele>202</ele>
        <time>2021-02-28T10:09:18.825Z</time>
      </trkpt>
      <trkpt lat="45.77252" lon="5.26341">
        <ele>203</ele>
        <time>2021-02-28T10:09:19.826Z</time>
      </trkpt>
      <trkpt lat="45.77254" lon="5.26347">
        <ele>202</ele>
        <time>2021-02-28T10:09:20.825Z</time>
      </trkpt>
      <trkpt lat="45.77256" lon="5.26354">
        <ele>202</ele>
        <time>2021-02-28T10:09:21.825Z</time>
      </trkpt>
      <trkpt lat="45.77257" lon="5.2636">
        <ele>201</ele>
        <time>2021-02-28T10:09:22.825Z</time>
      </trkpt>
      <trkpt lat="45.77259" lon="5.26367">
        <ele>201</ele>
        <time>2021-02-28T10:09:23.826Z</time>
      </trkpt>
      <trkpt lat="45.77261" lon="5.26373">
        <ele>201</ele>
        <time>2021-02-28T10:09:24.825Z</time>
      </trkpt>
      <trkpt lat="45.77263" lon="5.26379">
        <ele>201</ele>
        <time>2021-02-28T10:09:25.825Z</time>
      </trkpt>
      <trkpt lat="45.77264" lon="5.26385">
        <ele>201</ele>
        <time>2021-02-28T10:09:26.825Z</time>
      </trkpt>
      <trkpt lat="45.77266" lon="5.26391">
        <ele>201</ele>
        <time>2021-02-28T10:09:27.825Z</time>
      </trkpt>
      <trkpt lat="45.77267" lon="5.26396">
        <ele>201</ele>
        <time>2021-02-28T10:09:28.825Z</time>
      </trkpt>
      <trkpt lat="45.77267" lon="5.264">
        <ele>202</ele>
        <time>2021-02-28T10:09:29.825Z</time>
      </trkpt>
      <trkpt lat="45.77268" lon="5.26403">
        <ele>202</ele>
        <time>2021-02-28T10:09:30.825Z</time>
      </trkpt>
      <trkpt lat="45.77268" lon="5.26406">
        <ele>202</ele>
        <time>2021-02-28T10:09:31.825Z</time>
      </trkpt>
      <trkpt lat="45.77268" lon="5.2641">
        <ele>202</ele>
        <time>2021-02-28T10:09:32.826Z</time>
      </trkpt>
      <trkpt lat="45.77269" lon="5.26414">
        <ele>202</ele>
        <time>2021-02-28T10:09:33.825Z</time>
      </trkpt>
      <trkpt lat="45.7727" lon="5.26419">
        <ele>202</ele>
        <time>2021-02-28T10:09:34.825Z</time>
      </trkpt>
      <trkpt lat="45.77272" lon="5.26424">
        <ele>202</ele>
        <time>2021-02-28T10:09:35.825Z</time>
      </trkpt>
      <trkpt lat="45.77273" lon="5.2643">
        <ele>202</ele>
        <time>2021-02-28T10:09:36.826Z</time>
      </trkpt>
      <trkpt lat="45.77274" lon="5.26434">
        <ele>202</ele>
        <time>2021-02-28T10:09:37.825Z</time>
      </trkpt>
      <trkpt lat="45.77276" lon="5.26441">
        <ele>202</ele>
        <time>2021-02-28T10:09:38.826Z</time>
      </trkpt>
      <trkpt lat="45.77278" lon="5.26447">
        <ele>202</ele>
        <time>2021-02-28T10:09:39.825Z</time>
      </trkpt>
      <trkpt lat="45.7728" lon="5.26453">
        <ele>202</ele>
        <time>2021-02-28T10:09:40.825Z</time>
      </trkpt>
      <trkpt lat="45.77281" lon="5.26459">
        <ele>202</ele>
        <time>2021-02-28T10:09:41.825Z</time>
      </trkpt>
      <trkpt lat="45.77283" lon="5.26465">
        <ele>202</ele>
        <time>2021-02-28T10:09:42.825Z</time>
      </trkpt>
      <trkpt lat="45.77285" lon="5.26471">
        <ele>202</ele>
        <time>2021-02-28T10:09:43.825Z</time>
      </trkpt>
      <trkpt lat="45.77286" lon="5.26477">
        <ele>202</ele>
        <time>2021-02-28T10:09:44.825Z</time>
      </trkpt>
      <trkpt lat="45.77288" lon="5.26483">
        <ele>202</ele>
        <time>2021-02-28T10:09:45.825Z</time>
      </trkpt>
      <trkpt lat="45.7729" lon="5.26489">
        <ele>203</ele>
        <time>2021-02-28T10:09:46.825Z</time>
      </trkpt>
      <trkpt lat="45.77291" lon="5.26495">
        <ele>203</ele>
        <time>2021-02-28T10:09:47.825Z</time>
      </trkpt>
      <trkpt lat="45.77293" lon="5.26501">
        <ele>203</ele>
        <time>2021-02-28T10:09:48.826Z</time>
      </trkpt>
      <trkpt lat="45.77294" lon="5.26507">
        <ele>203</ele>
        <time>2021-02-28T10:09:49.825Z</time>
      </trkpt>
      <trkpt lat="45.77296" lon="5.26513">
        <ele>203</ele>
        <time>2021-02-28T10:09:50.825Z</time>
      </trkpt>
      <trkpt lat="45.77297" lon="5.26519">
        <ele>203</ele>
        <time>2021-02-28T10:09:51.825Z</time>
      </trkpt>
      <trkpt lat="45.77299" lon="5.26525">
        <ele>204</ele>
        <time>2021-02-28T10:09:52.826Z</time>
      </trkpt>
      <trkpt lat="45.773" lon="5.26531">
        <ele>204</ele>
        <time>2021-02-28T10:09:53.825Z</time>
      </trkpt>
      <trkpt lat="45.77302" lon="5.26536">
        <ele>204</ele>
        <time>2021-02-28T10:09:54.825Z</time>
      </trkpt>
      <trkpt lat="45.77303" lon="5.26542">
        <ele>205</ele>
        <time>2021-02-28T10:09:55.825Z</time>
      </trkpt>
      <trkpt lat="45.77305" lon="5.26547">
        <ele>205</ele>
        <time>2021-02-28T10:09:56.825Z</time>
      </trkpt>
      <trkpt lat="45.77306" lon="5.26552">
        <ele>205</ele>
        <time>2021-02-28T10:09:57.825Z</time>
      </trkpt>
      <trkpt lat="45.77308" lon="5.26558">
        <ele>204</ele>
        <time>2021-02-28T10:09:58.825Z</time>
      </trkpt>
      <trkpt lat="45.7731" lon="5.26563">
        <ele>204</ele>
        <time>2021-02-28T10:09:59.826Z</time>
      </trkpt>
      <trkpt lat="45.77311" lon="5.26569">
        <ele>204</ele>
        <time>2021-02-28T10:10:00.825Z</time>
      </trkpt>
      <trkpt lat="45.77313" lon="5.26574">
        <ele>204</ele>
        <time>2021-02-28T10:10:01.826Z</time>
      </trkpt>
      <trkpt lat="45.77315" lon="5.2658">
        <ele>205</ele>
        <time>2021-02-28T10:10:02.825Z</time>
      </trkpt>
      <trkpt lat="45.77316" lon="5.26586">
        <ele>204</ele>
        <time>2021-02-28T10:10:03.825Z</time>
      </trkpt>
      <trkpt lat="45.77317" lon="5.26592">
        <ele>204</ele>
        <time>2021-02-28T10:10:04.826Z</time>
      </trkpt>
      <trkpt lat="45.77319" lon="5.26597">
        <ele>204</ele>
        <time>2021-02-28T10:10:05.825Z</time>
      </trkpt>
      <trkpt lat="45.7732" lon="5.26603">
        <ele>203</ele>
        <time>2021-02-28T10:10:06.825Z</time>
      </trkpt>
      <trkpt lat="45.77321" lon="5.26609">
        <ele>203</ele>
        <time>2021-02-28T10:10:07.825Z</time>
      </trkpt>
      <trkpt lat="45.77322" lon="5.26615">
        <ele>204</ele>
        <time>2021-02-28T10:10:08.825Z</time>
      </trkpt>
      <trkpt lat="45.77323" lon="5.26621">
        <ele>204</ele>
        <time>2021-02-28T10:10:09.825Z</time>
      </trkpt>
      <trkpt lat="45.77325" lon="5.26626">
        <ele>204</ele>
        <time>2021-02-28T10:10:10.825Z</time>
      </trkpt>
      <trkpt lat="45.77326" lon="5.26631">
        <ele>205</ele>
        <time>2021-02-28T10:10:11.825Z</time>
      </trkpt>
      <trkpt lat="45.77327" lon="5.26636">
        <ele>206</ele>
        <time>2021-02-28T10:10:12.825Z</time>
      </trkpt>
      <trkpt lat="45.77329" lon="5.26641">
        <ele>207</ele>
        <time>2021-02-28T10:10:13.825Z</time>
      </trkpt>
      <trkpt lat="45.77331" lon="5.26646">
        <ele>208</ele>
        <time>2021-02-28T10:10:14.825Z</time>
      </trkpt>
      <trkpt lat="45.77332" lon="5.26651">
        <ele>209</ele>
        <time>2021-02-28T10:10:15.825Z</time>
      </trkpt>
      <trkpt lat="45.77334" lon="5.26656">
        <ele>209</ele>
        <time>2021-02-28T10:10:16.825Z</time>
      </trkpt>
      <trkpt lat="45.77336" lon="5.26661">
        <ele>209</ele>
        <time>2021-02-28T10:10:17.825Z</time>
      </trkpt>
      <trkpt lat="45.77338" lon="5.26666">
        <ele>210</ele>
        <time>2021-02-28T10:10:18.825Z</time>
      </trkpt>
      <trkpt lat="45.7734" lon="5.26671">
        <ele>211</ele>
        <time>2021-02-28T10:10:19.825Z</time>
      </trkpt>
      <trkpt lat="45.77341" lon="5.26677">
        <ele>211</ele>
        <time>2021-02-28T10:10:20.825Z</time>
      </trkpt>
      <trkpt lat="45.77343" lon="5.26682">
        <ele>212</ele>
        <time>2021-02-28T10:10:21.825Z</time>
      </trkpt>
      <trkpt lat="45.77345" lon="5.26687">
        <ele>212</ele>
        <time>2021-02-28T10:10:22.825Z</time>
      </trkpt>
      <trkpt lat="45.77347" lon="5.26692">
        <ele>213</ele>
        <time>2021-02-28T10:10:23.825Z</time>
      </trkpt>
      <trkpt lat="45.77347" lon="5.26692">
        <ele>213</ele>
        <time>2021-02-28T10:10:24.826Z</time>
      </trkpt>
      <trkpt lat="45.77351" lon="5.26701">
        <ele>214</ele>
        <time>2021-02-28T10:10:25.825Z</time>
      </trkpt>
      <trkpt lat="45.77353" lon="5.26706">
        <ele>214</ele>
        <time>2021-02-28T10:10:26.825Z</time>
      </trkpt>
      <trkpt lat="45.77354" lon="5.26711">
        <ele>214</ele>
        <time>2021-02-28T10:10:27.825Z</time>
      </trkpt>
      <trkpt lat="45.77355" lon="5.26715">
        <ele>214</ele>
        <time>2021-02-28T10:10:28.825Z</time>
      </trkpt>
      <trkpt lat="45.77357" lon="5.26721">
        <ele>214</ele>
        <time>2021-02-28T10:10:29.826Z</time>
      </trkpt>
      <trkpt lat="45.77359" lon="5.26725">
        <ele>213</ele>
        <time>2021-02-28T10:10:30.825Z</time>
      </trkpt>
      <trkpt lat="45.7736" lon="5.2673">
        <ele>213</ele>
        <time>2021-02-28T10:10:31.825Z</time>
      </trkpt>
      <trkpt lat="45.77362" lon="5.26735">
        <ele>213</ele>
        <time>2021-02-28T10:10:32.825Z</time>
      </trkpt>
      <trkpt lat="45.77363" lon="5.2674">
        <ele>213</ele>
        <time>2021-02-28T10:10:33.825Z</time>
      </trkpt>
      <trkpt lat="45.77365" lon="5.26745">
        <ele>213</ele>
        <time>2021-02-28T10:10:34.826Z</time>
      </trkpt>
      <trkpt lat="45.77366" lon="5.2675">
        <ele>213</ele>
        <time>2021-02-28T10:10:35.825Z</time>
      </trkpt>
      <trkpt lat="45.77368" lon="5.26756">
        <ele>213</ele>
        <time>2021-02-28T10:10:36.825Z</time>
      </trkpt>
      <trkpt lat="45.77369" lon="5.2676">
        <ele>213</ele>
        <time>2021-02-28T10:10:37.825Z</time>
      </trkpt>
      <trkpt lat="45.7737" lon="5.26765">
        <ele>214</ele>
        <time>2021-02-28T10:10:38.826Z</time>
      </trkpt>
      <trkpt lat="45.77371" lon="5.26771">
        <ele>214</ele>
        <time>2021-02-28T10:10:39.825Z</time>
      </trkpt>
      <trkpt lat="45.77373" lon="5.26777">
        <ele>213</ele>
        <time>2021-02-28T10:10:40.825Z</time>
      </trkpt>
      <trkpt lat="45.77374" lon="5.26784">
        <ele>213</ele>
        <time>2021-02-28T10:10:41.825Z</time>
      </trkpt>
      <trkpt lat="45.77376" lon="5.2679">
        <ele>212</ele>
        <time>2021-02-28T10:10:42.825Z</time>
      </trkpt>
      <trkpt lat="45.77377" lon="5.26796">
        <ele>212</ele>
        <time>2021-02-28T10:10:43.825Z</time>
      </trkpt>
      <trkpt lat="45.77379" lon="5.26803">
        <ele>211</ele>
        <time>2021-02-28T10:10:44.825Z</time>
      </trkpt>
      <trkpt lat="45.7738" lon="5.26809">
        <ele>211</ele>
        <time>2021-02-28T10:10:45.825Z</time>
      </trkpt>
      <trkpt lat="45.77382" lon="5.26815">
        <ele>211</ele>
        <time>2021-02-28T10:10:46.825Z</time>
      </trkpt>
      <trkpt lat="45.77383" lon="5.26821">
        <ele>212</ele>
        <time>2021-02-28T10:10:47.825Z</time>
      </trkpt>
      <trkpt lat="45.77385" lon="5.26826">
        <ele>212</ele>
        <time>2021-02-28T10:10:48.825Z</time>
      </trkpt>
      <trkpt lat="45.77386" lon="5.26832">
        <ele>212</ele>
        <time>2021-02-28T10:10:49.825Z</time>
      </trkpt>
      <trkpt lat="45.77387" lon="5.26838">
        <ele>213</ele>
        <time>2021-02-28T10:10:50.825Z</time>
      </trkpt>
      <trkpt lat="45.77389" lon="5.26844">
        <ele>213</ele>
        <time>2021-02-28T10:10:51.825Z</time>
      </trkpt>
      <trkpt lat="45.7739" lon="5.2685">
        <ele>214</ele>
        <time>2021-02-28T10:10:52.825Z</time>
      </trkpt>
      <trkpt lat="45.77391" lon="5.26857">
        <ele>213</ele>
        <time>2021-02-28T10:10:53.825Z</time>
      </trkpt>
      <trkpt lat="45.77393" lon="5.26863">
        <ele>213</ele>
        <time>2021-02-28T10:10:54.825Z</time>
      </trkpt>
      <trkpt lat="45.77395" lon="5.2687">
        <ele>214</ele>
        <time>2021-02-28T10:10:55.825Z</time>
      </trkpt>
      <trkpt lat="45.77396" lon="5.26875">
        <ele>214</ele>
        <time>2021-02-28T10:10:56.825Z</time>
      </trkpt>
      <trkpt lat="45.77398" lon="5.26882">
        <ele>214</ele>
        <time>2021-02-28T10:10:57.825Z</time>
      </trkpt>
      <trkpt lat="45.774" lon="5.26888">
        <ele>214</ele>
        <time>2021-02-28T10:10:58.825Z</time>
      </trkpt>
      <trkpt lat="45.77401" lon="5.26893">
        <ele>214</ele>
        <time>2021-02-28T10:10:59.825Z</time>
      </trkpt>
      <trkpt lat="45.77402" lon="5.26899">
        <ele>213</ele>
        <time>2021-02-28T10:11:00.825Z</time>
      </trkpt>
      <trkpt lat="45.77404" lon="5.26905">
        <ele>212</ele>
        <time>2021-02-28T10:11:01.825Z</time>
      </trkpt>
      <trkpt lat="45.77405" lon="5.26912">
        <ele>212</ele>
        <time>2021-02-28T10:11:02.825Z</time>
      </trkpt>
      <trkpt lat="45.77406" lon="5.26919">
        <ele>212</ele>
        <time>2021-02-28T10:11:03.825Z</time>
      </trkpt>
      <trkpt lat="45.77407" lon="5.26927">
        <ele>212</ele>
        <time>2021-02-28T10:11:04.825Z</time>
      </trkpt>
      <trkpt lat="45.77407" lon="5.26934">
        <ele>212</ele>
        <time>2021-02-28T10:11:05.825Z</time>
      </trkpt>
      <trkpt lat="45.77408" lon="5.26941">
        <ele>212</ele>
        <time>2021-02-28T10:11:06.825Z</time>
      </trkpt>
      <trkpt lat="45.77408" lon="5.26948">
        <ele>212</ele>
        <time>2021-02-28T10:11:07.825Z</time>
      </trkpt>
      <trkpt lat="45.77408" lon="5.26955">
        <ele>212</ele>
        <time>2021-02-28T10:11:08.826Z</time>
      </trkpt>
      <trkpt lat="45.77408" lon="5.26962">
        <ele>212</ele>
        <time>2021-02-28T10:11:09.825Z</time>
      </trkpt>
      <trkpt lat="45.77409" lon="5.26969">
        <ele>212</ele>
        <time>2021-02-28T10:11:10.825Z</time>
      </trkpt>
      <trkpt lat="45.77409" lon="5.26976">
        <ele>213</ele>
        <time>2021-02-28T10:11:11.826Z</time>
      </trkpt>
      <trkpt lat="45.7741" lon="5.26983">
        <ele>213</ele>
        <time>2021-02-28T10:11:12.825Z</time>
      </trkpt>
      <trkpt lat="45.77411" lon="5.26989">
        <ele>213</ele>
        <time>2021-02-28T10:11:13.825Z</time>
      </trkpt>
      <trkpt lat="45.77412" lon="5.26995">
        <ele>213</ele>
        <time>2021-02-28T10:11:14.825Z</time>
      </trkpt>
      <trkpt lat="45.77413" lon="5.27001">
        <ele>214</ele>
        <time>2021-02-28T10:11:15.825Z</time>
      </trkpt>
      <trkpt lat="45.77415" lon="5.27006">
        <ele>214</ele>
        <time>2021-02-28T10:11:16.825Z</time>
      </trkpt>
      <trkpt lat="45.77417" lon="5.27012">
        <ele>214</ele>
        <time>2021-02-28T10:11:17.825Z</time>
      </trkpt>
      <trkpt lat="45.77419" lon="5.27017">
        <ele>215</ele>
        <time>2021-02-28T10:11:18.825Z</time>
      </trkpt>
      <trkpt lat="45.77421" lon="5.27023">
        <ele>215</ele>
        <time>2021-02-28T10:11:19.825Z</time>
      </trkpt>
      <trkpt lat="45.77424" lon="5.27028">
        <ele>214</ele>
        <time>2021-02-28T10:11:20.825Z</time>
      </trkpt>
      <trkpt lat="45.77426" lon="5.27033">
        <ele>214</ele>
        <time>2021-02-28T10:11:21.825Z</time>
      </trkpt>
      <trkpt lat="45.77428" lon="5.2704">
        <ele>214</ele>
        <time>2021-02-28T10:11:22.825Z</time>
      </trkpt>
      <trkpt lat="45.77431" lon="5.27046">
        <ele>214</ele>
        <time>2021-02-28T10:11:23.825Z</time>
      </trkpt>
      <trkpt lat="45.77434" lon="5.27052">
        <ele>215</ele>
        <time>2021-02-28T10:11:24.825Z</time>
      </trkpt>
      <trkpt lat="45.77436" lon="5.27058">
        <ele>215</ele>
        <time>2021-02-28T10:11:25.825Z</time>
      </trkpt>
      <trkpt lat="45.77439" lon="5.27063">
        <ele>215</ele>
        <time>2021-02-28T10:11:26.825Z</time>
      </trkpt>
      <trkpt lat="45.77442" lon="5.27068">
        <ele>215</ele>
        <time>2021-02-28T10:11:27.825Z</time>
      </trkpt>
      <trkpt lat="45.77446" lon="5.27073">
        <ele>215</ele>
        <time>2021-02-28T10:11:28.825Z</time>
      </trkpt>
      <trkpt lat="45.77449" lon="5.27077">
        <ele>215</ele>
        <time>2021-02-28T10:11:29.825Z</time>
      </trkpt>
      <trkpt lat="45.77452" lon="5.27082">
        <ele>215</ele>
        <time>2021-02-28T10:11:30.825Z</time>
      </trkpt>
      <trkpt lat="45.77456" lon="5.27088">
        <ele>216</ele>
        <time>2021-02-28T10:11:31.825Z</time>
      </trkpt>
      <trkpt lat="45.7746" lon="5.27093">
        <ele>217</ele>
        <time>2021-02-28T10:11:32.825Z</time>
      </trkpt>
      <trkpt lat="45.77463" lon="5.27097">
        <ele>217</ele>
        <time>2021-02-28T10:11:33.825Z</time>
      </trkpt>
      <trkpt lat="45.77467" lon="5.27102">
        <ele>217</ele>
        <time>2021-02-28T10:11:34.825Z</time>
      </trkpt>
      <trkpt lat="45.77471" lon="5.27106">
        <ele>218</ele>
        <time>2021-02-28T10:11:35.825Z</time>
      </trkpt>
      <trkpt lat="45.77474" lon="5.2711">
        <ele>218</ele>
        <time>2021-02-28T10:11:36.825Z</time>
      </trkpt>
      <trkpt lat="45.77477" lon="5.27114">
        <ele>219</ele>
        <time>2021-02-28T10:11:37.825Z</time>
      </trkpt>
      <trkpt lat="45.77481" lon="5.27117">
        <ele>219</ele>
        <time>2021-02-28T10:11:38.825Z</time>
      </trkpt>
      <trkpt lat="45.77484" lon="5.27121">
        <ele>219</ele>
        <time>2021-02-28T10:11:39.825Z</time>
      </trkpt>
      <trkpt lat="45.77488" lon="5.27126">
        <ele>218</ele>
        <time>2021-02-28T10:11:40.825Z</time>
      </trkpt>
      <trkpt lat="45.77492" lon="5.27129">
        <ele>218</ele>
        <time>2021-02-28T10:11:41.825Z</time>
      </trkpt>
      <trkpt lat="45.77496" lon="5.27132">
        <ele>219</ele>
        <time>2021-02-28T10:11:42.825Z</time>
      </trkpt>
      <trkpt lat="45.775" lon="5.27135">
        <ele>219</ele>
        <time>2021-02-28T10:11:43.825Z</time>
      </trkpt>
      <trkpt lat="45.77504" lon="5.27137">
        <ele>219</ele>
        <time>2021-02-28T10:11:44.825Z</time>
      </trkpt>
      <trkpt lat="45.77508" lon="5.27139">
        <ele>219</ele>
        <time>2021-02-28T10:11:45.825Z</time>
      </trkpt>
      <trkpt lat="45.77512" lon="5.27141">
        <ele>220</ele>
        <time>2021-02-28T10:11:46.825Z</time>
      </trkpt>
      <trkpt lat="45.77516" lon="5.27142">
        <ele>220</ele>
        <time>2021-02-28T10:11:47.825Z</time>
      </trkpt>
      <trkpt lat="45.7752" lon="5.27143">
        <ele>219</ele>
        <time>2021-02-28T10:11:48.825Z</time>
      </trkpt>
      <trkpt lat="45.77524" lon="5.27144">
        <ele>219</ele>
        <time>2021-02-28T10:11:49.825Z</time>
      </trkpt>
      <trkpt lat="45.77529" lon="5.27145">
        <ele>219</ele>
        <time>2021-02-28T10:11:50.825Z</time>
      </trkpt>
      <trkpt lat="45.77533" lon="5.27146">
        <ele>219</ele>
        <time>2021-02-28T10:11:51.825Z</time>
      </trkpt>
      <trkpt lat="45.77537" lon="5.27147">
        <ele>219</ele>
        <time>2021-02-28T10:11:52.825Z</time>
      </trkpt>
      <trkpt lat="45.77541" lon="5.27148">
        <ele>220</ele>
        <time>2021-02-28T10:11:53.825Z</time>
      </trkpt>
      <trkpt lat="45.77546" lon="5.2715">
        <ele>220</ele>
        <time>2021-02-28T10:11:54.825Z</time>
      </trkpt>
      <trkpt lat="45.77551" lon="5.27151">
        <ele>220</ele>
        <time>2021-02-28T10:11:55.825Z</time>
      </trkpt>
      <trkpt lat="45.77555" lon="5.27154">
        <ele>220</ele>
        <time>2021-02-28T10:11:56.825Z</time>
      </trkpt>
      <trkpt lat="45.7756" lon="5.27157">
        <ele>220</ele>
        <time>2021-02-28T10:11:57.825Z</time>
      </trkpt>
      <trkpt lat="45.77565" lon="5.2716">
        <ele>221</ele>
        <time>2021-02-28T10:11:58.825Z</time>
      </trkpt>
      <trkpt lat="45.7757" lon="5.27164">
        <ele>221</ele>
        <time>2021-02-28T10:11:59.825Z</time>
      </trkpt>
      <trkpt lat="45.77575" lon="5.27169">
        <ele>221</ele>
        <time>2021-02-28T10:12:00.825Z</time>
      </trkpt>
      <trkpt lat="45.7758" lon="5.27173">
        <ele>221</ele>
        <time>2021-02-28T10:12:01.825Z</time>
      </trkpt>
      <trkpt lat="45.77585" lon="5.27178">
        <ele>222</ele>
        <time>2021-02-28T10:12:02.825Z</time>
      </trkpt>
      <trkpt lat="45.7759" lon="5.27183">
        <ele>222</ele>
        <time>2021-02-28T10:12:03.825Z</time>
      </trkpt>
      <trkpt lat="45.77594" lon="5.27187">
        <ele>223</ele>
        <time>2021-02-28T10:12:04.825Z</time>
      </trkpt>
      <trkpt lat="45.77598" lon="5.27192">
        <ele>223</ele>
        <time>2021-02-28T10:12:05.825Z</time>
      </trkpt>
      <trkpt lat="45.77602" lon="5.27196">
        <ele>223</ele>
        <time>2021-02-28T10:12:06.825Z</time>
      </trkpt>
      <trkpt lat="45.77606" lon="5.27201">
        <ele>223</ele>
        <time>2021-02-28T10:12:07.825Z</time>
      </trkpt>
      <trkpt lat="45.7761" lon="5.27206">
        <ele>223</ele>
        <time>2021-02-28T10:12:08.825Z</time>
      </trkpt>
      <trkpt lat="45.77614" lon="5.27211">
        <ele>223</ele>
        <time>2021-02-28T10:12:09.825Z</time>
      </trkpt>
      <trkpt lat="45.77618" lon="5.27216">
        <ele>223</ele>
        <time>2021-02-28T10:12:10.825Z</time>
      </trkpt>
      <trkpt lat="45.77623" lon="5.2722">
        <ele>224</ele>
        <time>2021-02-28T10:12:11.825Z</time>
      </trkpt>
      <trkpt lat="45.77626" lon="5.27224">
        <ele>224</ele>
        <time>2021-02-28T10:12:12.825Z</time>
      </trkpt>
      <trkpt lat="45.77631" lon="5.2723">
        <ele>224</ele>
        <time>2021-02-28T10:12:13.825Z</time>
      </trkpt>
      <trkpt lat="45.77635" lon="5.27235">
        <ele>225</ele>
        <time>2021-02-28T10:12:14.825Z</time>
      </trkpt>
      <trkpt lat="45.77638" lon="5.2724">
        <ele>225</ele>
        <time>2021-02-28T10:12:15.825Z</time>
      </trkpt>
      <trkpt lat="45.77642" lon="5.27245">
        <ele>225</ele>
        <time>2021-02-28T10:12:16.825Z</time>
      </trkpt>
      <trkpt lat="45.77646" lon="5.2725">
        <ele>225</ele>
        <time>2021-02-28T10:12:17.825Z</time>
      </trkpt>
      <trkpt lat="45.77649" lon="5.27255">
        <ele>226</ele>
        <time>2021-02-28T10:12:18.825Z</time>
      </trkpt>
      <trkpt lat="45.77652" lon="5.27261">
        <ele>226</ele>
        <time>2021-02-28T10:12:19.825Z</time>
      </trkpt>
      <trkpt lat="45.77654" lon="5.27266">
        <ele>226</ele>
        <time>2021-02-28T10:12:20.825Z</time>
      </trkpt>
      <trkpt lat="45.77656" lon="5.27272">
        <ele>226</ele>
        <time>2021-02-28T10:12:21.825Z</time>
      </trkpt>
      <trkpt lat="45.77657" lon="5.27277">
        <ele>225</ele>
        <time>2021-02-28T10:12:22.825Z</time>
      </trkpt>
      <trkpt lat="45.77659" lon="5.27282">
        <ele>225</ele>
        <time>2021-02-28T10:12:23.825Z</time>
      </trkpt>
      <trkpt lat="45.7766" lon="5.27287">
        <ele>226</ele>
        <time>2021-02-28T10:12:24.825Z</time>
      </trkpt>
      <trkpt lat="45.77661" lon="5.27292">
        <ele>226</ele>
        <time>2021-02-28T10:12:25.825Z</time>
      </trkpt>
      <trkpt lat="45.77661" lon="5.27296">
        <ele>226</ele>
        <time>2021-02-28T10:12:26.825Z</time>
      </trkpt>
      <trkpt lat="45.77662" lon="5.27301">
        <ele>226</ele>
        <time>2021-02-28T10:12:27.825Z</time>
      </trkpt>
      <trkpt lat="45.77663" lon="5.27305">
        <ele>226</ele>
        <time>2021-02-28T10:12:28.825Z</time>
      </trkpt>
      <trkpt lat="45.77663" lon="5.27308">
        <ele>226</ele>
        <time>2021-02-28T10:12:29.826Z</time>
      </trkpt>
      <trkpt lat="45.77664" lon="5.27313">
        <ele>226</ele>
        <time>2021-02-28T10:12:30.825Z</time>
      </trkpt>
      <trkpt lat="45.77664" lon="5.27316">
        <ele>227</ele>
        <time>2021-02-28T10:12:31.826Z</time>
      </trkpt>
      <trkpt lat="45.77664" lon="5.2732">
        <ele>227</ele>
        <time>2021-02-28T10:12:32.826Z</time>
      </trkpt>
      <trkpt lat="45.77664" lon="5.27323">
        <ele>227</ele>
        <time>2021-02-28T10:12:33.825Z</time>
      </trkpt>
      <trkpt lat="45.77664" lon="5.27328">
        <ele>227</ele>
        <time>2021-02-28T10:12:34.826Z</time>
      </trkpt>
      <trkpt lat="45.77664" lon="5.27333">
        <ele>227</ele>
        <time>2021-02-28T10:12:35.826Z</time>
      </trkpt>
      <trkpt lat="45.77663" lon="5.27338">
        <ele>227</ele>
        <time>2021-02-28T10:12:36.826Z</time>
      </trkpt>
      <trkpt lat="45.77663" lon="5.27344">
        <ele>227</ele>
        <time>2021-02-28T10:12:37.825Z</time>
      </trkpt>
      <trkpt lat="45.77663" lon="5.27348">
        <ele>227</ele>
        <time>2021-02-28T10:12:38.825Z</time>
      </trkpt>
      <trkpt lat="45.77663" lon="5.27356">
        <ele>227</ele>
        <time>2021-02-28T10:12:39.826Z</time>
      </trkpt>
      <trkpt lat="45.77663" lon="5.27362">
        <ele>228</ele>
        <time>2021-02-28T10:12:40.825Z</time>
      </trkpt>
      <trkpt lat="45.77663" lon="5.27368">
        <ele>228</ele>
        <time>2021-02-28T10:12:41.825Z</time>
      </trkpt>
      <trkpt lat="45.77663" lon="5.27375">
        <ele>229</ele>
        <time>2021-02-28T10:12:42.825Z</time>
      </trkpt>
      <trkpt lat="45.77663" lon="5.27381">
        <ele>229</ele>
        <time>2021-02-28T10:12:43.826Z</time>
      </trkpt>
      <trkpt lat="45.77662" lon="5.27388">
        <ele>229</ele>
        <time>2021-02-28T10:12:44.825Z</time>
      </trkpt>
      <trkpt lat="45.77662" lon="5.27395">
        <ele>229</ele>
        <time>2021-02-28T10:12:45.826Z</time>
      </trkpt>
      <trkpt lat="45.77662" lon="5.27402">
        <ele>229</ele>
        <time>2021-02-28T10:12:46.826Z</time>
      </trkpt>
      <trkpt lat="45.77662" lon="5.27407">
        <ele>229</ele>
        <time>2021-02-28T10:12:47.826Z</time>
      </trkpt>
      <trkpt lat="45.77662" lon="5.27415">
        <ele>230</ele>
        <time>2021-02-28T10:12:48.825Z</time>
      </trkpt>
      <trkpt lat="45.77662" lon="5.27422">
        <ele>230</ele>
        <time>2021-02-28T10:12:49.826Z</time>
      </trkpt>
      <trkpt lat="45.77661" lon="5.27429">
        <ele>230</ele>
        <time>2021-02-28T10:12:50.825Z</time>
      </trkpt>
      <trkpt lat="45.77661" lon="5.27437">
        <ele>230</ele>
        <time>2021-02-28T10:12:51.825Z</time>
      </trkpt>
      <trkpt lat="45.77661" lon="5.27444">
        <ele>229</ele>
        <time>2021-02-28T10:12:52.826Z</time>
      </trkpt>
      <trkpt lat="45.7766" lon="5.27452">
        <ele>229</ele>
        <time>2021-02-28T10:12:53.826Z</time>
      </trkpt>
      <trkpt lat="45.7766" lon="5.27459">
        <ele>229</ele>
        <time>2021-02-28T10:12:54.825Z</time>
      </trkpt>
      <trkpt lat="45.7766" lon="5.27467">
        <ele>228</ele>
        <time>2021-02-28T10:12:55.826Z</time>
      </trkpt>
      <trkpt lat="45.7766" lon="5.27474">
        <ele>229</ele>
        <time>2021-02-28T10:12:56.826Z</time>
      </trkpt>
      <trkpt lat="45.7766" lon="5.27482">
        <ele>229</ele>
        <time>2021-02-28T10:12:57.825Z</time>
      </trkpt>
      <trkpt lat="45.7766" lon="5.27489">
        <ele>229</ele>
        <time>2021-02-28T10:12:58.826Z</time>
      </trkpt>
      <trkpt lat="45.77659" lon="5.27496">
        <ele>229</ele>
        <time>2021-02-28T10:12:59.825Z</time>
      </trkpt>
      <trkpt lat="45.77659" lon="5.27505">
        <ele>230</ele>
        <time>2021-02-28T10:13:00.825Z</time>
      </trkpt>
      <trkpt lat="45.77658" lon="5.27511">
        <ele>230</ele>
        <time>2021-02-28T10:13:01.826Z</time>
      </trkpt>
      <trkpt lat="45.77658" lon="5.27518">
        <ele>231</ele>
        <time>2021-02-28T10:13:02.825Z</time>
      </trkpt>
      <trkpt lat="45.77657" lon="5.27525">
        <ele>231</ele>
        <time>2021-02-28T10:13:03.825Z</time>
      </trkpt>
      <trkpt lat="45.77656" lon="5.27532">
        <ele>231</ele>
        <time>2021-02-28T10:13:04.825Z</time>
      </trkpt>
      <trkpt lat="45.77655" lon="5.27539">
        <ele>231</ele>
        <time>2021-02-28T10:13:05.825Z</time>
      </trkpt>
      <trkpt lat="45.77653" lon="5.27546">
        <ele>231</ele>
        <time>2021-02-28T10:13:06.825Z</time>
      </trkpt>
      <trkpt lat="45.77652" lon="5.27553">
        <ele>231</ele>
        <time>2021-02-28T10:13:07.825Z</time>
      </trkpt>
      <trkpt lat="45.77651" lon="5.2756">
        <ele>231</ele>
        <time>2021-02-28T10:13:08.825Z</time>
      </trkpt>
      <trkpt lat="45.77649" lon="5.27567">
        <ele>231</ele>
        <time>2021-02-28T10:13:09.825Z</time>
      </trkpt>
      <trkpt lat="45.77648" lon="5.27574">
        <ele>231</ele>
        <time>2021-02-28T10:13:10.826Z</time>
      </trkpt>
      <trkpt lat="45.77646" lon="5.27581">
        <ele>231</ele>
        <time>2021-02-28T10:13:11.826Z</time>
      </trkpt>
      <trkpt lat="45.77645" lon="5.27588">
        <ele>231</ele>
        <time>2021-02-28T10:13:12.825Z</time>
      </trkpt>
      <trkpt lat="45.77643" lon="5.27595">
        <ele>231</ele>
        <time>2021-02-28T10:13:13.825Z</time>
      </trkpt>
      <trkpt lat="45.77642" lon="5.27603">
        <ele>231</ele>
        <time>2021-02-28T10:13:14.825Z</time>
      </trkpt>
      <trkpt lat="45.7764" lon="5.2761">
        <ele>231</ele>
        <time>2021-02-28T10:13:15.825Z</time>
      </trkpt>
      <trkpt lat="45.77639" lon="5.27617">
        <ele>231</ele>
        <time>2021-02-28T10:13:16.825Z</time>
      </trkpt>
      <trkpt lat="45.77638" lon="5.27624">
        <ele>231</ele>
        <time>2021-02-28T10:13:17.825Z</time>
      </trkpt>
      <trkpt lat="45.77636" lon="5.27631">
        <ele>231</ele>
        <time>2021-02-28T10:13:18.826Z</time>
      </trkpt>
      <trkpt lat="45.77635" lon="5.27638">
        <ele>231</ele>
        <time>2021-02-28T10:13:19.825Z</time>
      </trkpt>
      <trkpt lat="45.77633" lon="5.27646">
        <ele>232</ele>
        <time>2021-02-28T10:13:20.825Z</time>
      </trkpt>
      <trkpt lat="45.77632" lon="5.27653">
        <ele>232</ele>
        <time>2021-02-28T10:13:21.826Z</time>
      </trkpt>
      <trkpt lat="45.77631" lon="5.27661">
        <ele>232</ele>
        <time>2021-02-28T10:13:22.825Z</time>
      </trkpt>
      <trkpt lat="45.7763" lon="5.27668">
        <ele>232</ele>
        <time>2021-02-28T10:13:23.825Z</time>
      </trkpt>
      <trkpt lat="45.77628" lon="5.27676">
        <ele>232</ele>
        <time>2021-02-28T10:13:24.826Z</time>
      </trkpt>
      <trkpt lat="45.77627" lon="5.27683">
        <ele>232</ele>
        <time>2021-02-28T10:13:25.825Z</time>
      </trkpt>
      <trkpt lat="45.77627" lon="5.27691">
        <ele>231</ele>
        <time>2021-02-28T10:13:26.825Z</time>
      </trkpt>
      <trkpt lat="45.77626" lon="5.277">
        <ele>231</ele>
        <time>2021-02-28T10:13:27.825Z</time>
      </trkpt>
      <trkpt lat="45.77626" lon="5.27708">
        <ele>231</ele>
        <time>2021-02-28T10:13:28.826Z</time>
      </trkpt>
      <trkpt lat="45.77625" lon="5.27716">
        <ele>231</ele>
        <time>2021-02-28T10:13:29.825Z</time>
      </trkpt>
      <trkpt lat="45.77625" lon="5.27723">
        <ele>230</ele>
        <time>2021-02-28T10:13:30.825Z</time>
      </trkpt>
      <trkpt lat="45.77624" lon="5.27731">
        <ele>231</ele>
        <time>2021-02-28T10:13:31.826Z</time>
      </trkpt>
      <trkpt lat="45.77624" lon="5.27738">
        <ele>230</ele>
        <time>2021-02-28T10:13:32.825Z</time>
      </trkpt>
      <trkpt lat="45.77624" lon="5.27745">
        <ele>230</ele>
        <time>2021-02-28T10:13:33.826Z</time>
      </trkpt>
      <trkpt lat="45.77623" lon="5.27753">
        <ele>230</ele>
        <time>2021-02-28T10:13:34.826Z</time>
      </trkpt>
      <trkpt lat="45.77623" lon="5.2776">
        <ele>230</ele>
        <time>2021-02-28T10:13:35.825Z</time>
      </trkpt>
      <trkpt lat="45.77623" lon="5.27767">
        <ele>231</ele>
        <time>2021-02-28T10:13:36.825Z</time>
      </trkpt>
      <trkpt lat="45.77623" lon="5.27775">
        <ele>231</ele>
        <time>2021-02-28T10:13:37.825Z</time>
      </trkpt>
      <trkpt lat="45.77622" lon="5.27782">
        <ele>231</ele>
        <time>2021-02-28T10:13:38.825Z</time>
      </trkpt>
      <trkpt lat="45.77622" lon="5.27789">
        <ele>231</ele>
        <time>2021-02-28T10:13:39.826Z</time>
      </trkpt>
      <trkpt lat="45.77621" lon="5.27796">
        <ele>231</ele>
        <time>2021-02-28T10:13:40.825Z</time>
      </trkpt>
      <trkpt lat="45.77621" lon="5.27803">
        <ele>231</ele>
        <time>2021-02-28T10:13:41.825Z</time>
      </trkpt>
      <trkpt lat="45.7762" lon="5.27809">
        <ele>231</ele>
        <time>2021-02-28T10:13:42.826Z</time>
      </trkpt>
      <trkpt lat="45.77619" lon="5.27815">
        <ele>231</ele>
        <time>2021-02-28T10:13:43.825Z</time>
      </trkpt>
      <trkpt lat="45.77619" lon="5.27821">
        <ele>231</ele>
        <time>2021-02-28T10:13:44.825Z</time>
      </trkpt>
      <trkpt lat="45.77618" lon="5.27826">
        <ele>231</ele>
        <time>2021-02-28T10:13:45.825Z</time>
      </trkpt>
      <trkpt lat="45.77617" lon="5.27832">
        <ele>231</ele>
        <time>2021-02-28T10:13:46.825Z</time>
      </trkpt>
      <trkpt lat="45.77616" lon="5.27837">
        <ele>231</ele>
        <time>2021-02-28T10:13:47.825Z</time>
      </trkpt>
      <trkpt lat="45.77615" lon="5.27841">
        <ele>230</ele>
        <time>2021-02-28T10:13:48.825Z</time>
      </trkpt>
      <trkpt lat="45.77614" lon="5.27846">
        <ele>231</ele>
        <time>2021-02-28T10:13:49.825Z</time>
      </trkpt>
      <trkpt lat="45.77613" lon="5.2785">
        <ele>231</ele>
        <time>2021-02-28T10:13:50.825Z</time>
      </trkpt>
      <trkpt lat="45.77612" lon="5.27855">
        <ele>231</ele>
        <time>2021-02-28T10:13:51.825Z</time>
      </trkpt>
      <trkpt lat="45.7761" lon="5.27859">
        <ele>230</ele>
        <time>2021-02-28T10:13:52.826Z</time>
      </trkpt>
      <trkpt lat="45.77609" lon="5.27864">
        <ele>230</ele>
        <time>2021-02-28T10:13:53.825Z</time>
      </trkpt>
      <trkpt lat="45.77607" lon="5.27868">
        <ele>230</ele>
        <time>2021-02-28T10:13:54.825Z</time>
      </trkpt>
      <trkpt lat="45.77606" lon="5.27873">
        <ele>230</ele>
        <time>2021-02-28T10:13:55.826Z</time>
      </trkpt>
      <trkpt lat="45.77605" lon="5.27877">
        <ele>230</ele>
        <time>2021-02-28T10:13:56.825Z</time>
      </trkpt>
      <trkpt lat="45.77604" lon="5.27882">
        <ele>229</ele>
        <time>2021-02-28T10:13:57.825Z</time>
      </trkpt>
      <trkpt lat="45.77603" lon="5.27886">
        <ele>229</ele>
        <time>2021-02-28T10:13:58.825Z</time>
      </trkpt>
      <trkpt lat="45.77602" lon="5.27891">
        <ele>229</ele>
        <time>2021-02-28T10:13:59.826Z</time>
      </trkpt>
      <trkpt lat="45.77601" lon="5.27896">
        <ele>229</ele>
        <time>2021-02-28T10:14:00.825Z</time>
      </trkpt>
      <trkpt lat="45.77601" lon="5.27901">
        <ele>229</ele>
        <time>2021-02-28T10:14:01.826Z</time>
      </trkpt>
      <trkpt lat="45.776" lon="5.27905">
        <ele>230</ele>
        <time>2021-02-28T10:14:02.826Z</time>
      </trkpt>
      <trkpt lat="45.776" lon="5.2791">
        <ele>230</ele>
        <time>2021-02-28T10:14:03.825Z</time>
      </trkpt>
      <trkpt lat="45.77599" lon="5.27914">
        <ele>231</ele>
        <time>2021-02-28T10:14:04.826Z</time>
      </trkpt>
      <trkpt lat="45.77599" lon="5.27919">
        <ele>231</ele>
        <time>2021-02-28T10:14:05.825Z</time>
      </trkpt>
      <trkpt lat="45.776" lon="5.27923">
        <ele>231</ele>
        <time>2021-02-28T10:14:06.825Z</time>
      </trkpt>
      <trkpt lat="45.776" lon="5.27926">
        <ele>232</ele>
        <time>2021-02-28T10:14:07.825Z</time>
      </trkpt>
      <trkpt lat="45.77601" lon="5.27932">
        <ele>232</ele>
        <time>2021-02-28T10:14:08.825Z</time>
      </trkpt>
      <trkpt lat="45.77601" lon="5.27936">
        <ele>233</ele>
        <time>2021-02-28T10:14:09.825Z</time>
      </trkpt>
      <trkpt lat="45.77602" lon="5.2794">
        <ele>233</ele>
        <time>2021-02-28T10:14:10.826Z</time>
      </trkpt>
      <trkpt lat="45.77603" lon="5.27945">
        <ele>233</ele>
        <time>2021-02-28T10:14:11.825Z</time>
      </trkpt>
      <trkpt lat="45.77604" lon="5.27949">
        <ele>232</ele>
        <time>2021-02-28T10:14:12.825Z</time>
      </trkpt>
      <trkpt lat="45.77605" lon="5.27953">
        <ele>232</ele>
        <time>2021-02-28T10:14:13.825Z</time>
      </trkpt>
      <trkpt lat="45.77605" lon="5.27957">
        <ele>232</ele>
        <time>2021-02-28T10:14:14.825Z</time>
      </trkpt>
      <trkpt lat="45.77606" lon="5.27961">
        <ele>233</ele>
        <time>2021-02-28T10:14:15.825Z</time>
      </trkpt>
      <trkpt lat="45.77607" lon="5.27965">
        <ele>232</ele>
        <time>2021-02-28T10:14:16.825Z</time>
      </trkpt>
      <trkpt lat="45.77608" lon="5.2797">
        <ele>232</ele>
        <time>2021-02-28T10:14:17.825Z</time>
      </trkpt>
      <trkpt lat="45.77609" lon="5.27974">
        <ele>232</ele>
        <time>2021-02-28T10:14:18.825Z</time>
      </trkpt>
      <trkpt lat="45.7761" lon="5.27979">
        <ele>233</ele>
        <time>2021-02-28T10:14:19.825Z</time>
      </trkpt>
      <trkpt lat="45.7761" lon="5.27984">
        <ele>233</ele>
        <time>2021-02-28T10:14:20.826Z</time>
      </trkpt>
      <trkpt lat="45.77611" lon="5.27989">
        <ele>233</ele>
        <time>2021-02-28T10:14:21.826Z</time>
      </trkpt>
      <trkpt lat="45.77612" lon="5.27993">
        <ele>233</ele>
        <time>2021-02-28T10:14:22.825Z</time>
      </trkpt>
      <trkpt lat="45.77613" lon="5.27998">
        <ele>233</ele>
        <time>2021-02-28T10:14:23.826Z</time>
      </trkpt>
      <trkpt lat="45.77614" lon="5.28002">
        <ele>233</ele>
        <time>2021-02-28T10:14:24.825Z</time>
      </trkpt>
      <trkpt lat="45.77614" lon="5.28006">
        <ele>233</ele>
        <time>2021-02-28T10:14:25.825Z</time>
      </trkpt>
      <trkpt lat="45.77615" lon="5.2801">
        <ele>233</ele>
        <time>2021-02-28T10:14:26.825Z</time>
      </trkpt>
      <trkpt lat="45.77615" lon="5.28014">
        <ele>233</ele>
        <time>2021-02-28T10:14:27.825Z</time>
      </trkpt>
      <trkpt lat="45.77616" lon="5.28018">
        <ele>234</ele>
        <time>2021-02-28T10:14:28.825Z</time>
      </trkpt>
      <trkpt lat="45.77616" lon="5.28023">
        <ele>235</ele>
        <time>2021-02-28T10:14:29.826Z</time>
      </trkpt>
      <trkpt lat="45.77616" lon="5.28027">
        <ele>235</ele>
        <time>2021-02-28T10:14:30.826Z</time>
      </trkpt>
      <trkpt lat="45.77615" lon="5.28032">
        <ele>235</ele>
        <time>2021-02-28T10:14:31.826Z</time>
      </trkpt>
      <trkpt lat="45.77615" lon="5.28037">
        <ele>236</ele>
        <time>2021-02-28T10:14:32.826Z</time>
      </trkpt>
      <trkpt lat="45.77615" lon="5.28042">
        <ele>236</ele>
        <time>2021-02-28T10:14:33.826Z</time>
      </trkpt>
      <trkpt lat="45.77615" lon="5.28046">
        <ele>236</ele>
        <time>2021-02-28T10:14:34.825Z</time>
      </trkpt>
      <trkpt lat="45.77615" lon="5.2805">
        <ele>237</ele>
        <time>2021-02-28T10:14:35.826Z</time>
      </trkpt>
      <trkpt lat="45.77615" lon="5.28055">
        <ele>237</ele>
        <time>2021-02-28T10:14:36.826Z</time>
      </trkpt>
      <trkpt lat="45.77615" lon="5.28059">
        <ele>237</ele>
        <time>2021-02-28T10:14:37.825Z</time>
      </trkpt>
      <trkpt lat="45.77615" lon="5.28064">
        <ele>237</ele>
        <time>2021-02-28T10:14:38.826Z</time>
      </trkpt>
      <trkpt lat="45.77615" lon="5.28069">
        <ele>238</ele>
        <time>2021-02-28T10:14:39.826Z</time>
      </trkpt>
      <trkpt lat="45.77614" lon="5.28073">
        <ele>238</ele>
        <time>2021-02-28T10:14:40.825Z</time>
      </trkpt>
      <trkpt lat="45.77614" lon="5.28078">
        <ele>238</ele>
        <time>2021-02-28T10:14:41.826Z</time>
      </trkpt>
      <trkpt lat="45.77614" lon="5.28083">
        <ele>238</ele>
        <time>2021-02-28T10:14:42.826Z</time>
      </trkpt>
      <trkpt lat="45.77615" lon="5.28088">
        <ele>239</ele>
        <time>2021-02-28T10:14:43.825Z</time>
      </trkpt>
      <trkpt lat="45.77614" lon="5.28093">
        <ele>239</ele>
        <time>2021-02-28T10:14:44.826Z</time>
      </trkpt>
      <trkpt lat="45.77614" lon="5.28097">
        <ele>239</ele>
        <time>2021-02-28T10:14:45.825Z</time>
      </trkpt>
      <trkpt lat="45.77614" lon="5.28102">
        <ele>239</ele>
        <time>2021-02-28T10:14:46.826Z</time>
      </trkpt>
      <trkpt lat="45.77614" lon="5.28106">
        <ele>239</ele>
        <time>2021-02-28T10:14:47.826Z</time>
      </trkpt>
      <trkpt lat="45.77615" lon="5.2811">
        <ele>239</ele>
        <time>2021-02-28T10:14:48.825Z</time>
      </trkpt>
      <trkpt lat="45.77617" lon="5.28113">
        <ele>240</ele>
        <time>2021-02-28T10:14:49.825Z</time>
      </trkpt>
      <trkpt lat="45.77619" lon="5.28116">
        <ele>240</ele>
        <time>2021-02-28T10:14:50.825Z</time>
      </trkpt>
      <trkpt lat="45.77621" lon="5.28117">
        <ele>240</ele>
        <time>2021-02-28T10:14:51.825Z</time>
      </trkpt>
      <trkpt lat="45.77623" lon="5.28118">
        <ele>241</ele>
        <time>2021-02-28T10:14:52.825Z</time>
      </trkpt>
      <trkpt lat="45.77626" lon="5.28119">
        <ele>241</ele>
        <time>2021-02-28T10:14:53.825Z</time>
      </trkpt>
      <trkpt lat="45.77629" lon="5.2812">
        <ele>241</ele>
        <time>2021-02-28T10:14:54.825Z</time>
      </trkpt>
      <trkpt lat="45.77632" lon="5.28121">
        <ele>241</ele>
        <time>2021-02-28T10:14:55.825Z</time>
      </trkpt>
      <trkpt lat="45.77635" lon="5.28122">
        <ele>241</ele>
        <time>2021-02-28T10:14:56.826Z</time>
      </trkpt>
      <trkpt lat="45.77639" lon="5.28124">
        <ele>241</ele>
        <time>2021-02-28T10:14:57.825Z</time>
      </trkpt>
      <trkpt lat="45.77642" lon="5.28126">
        <ele>242</ele>
        <time>2021-02-28T10:14:58.826Z</time>
      </trkpt>
      <trkpt lat="45.77645" lon="5.28127">
        <ele>242</ele>
        <time>2021-02-28T10:14:59.825Z</time>
      </trkpt>
      <trkpt lat="45.77649" lon="5.28128">
        <ele>243</ele>
        <time>2021-02-28T10:15:00.825Z</time>
      </trkpt>
      <trkpt lat="45.77653" lon="5.2813">
        <ele>243</ele>
        <time>2021-02-28T10:15:01.825Z</time>
      </trkpt>
      <trkpt lat="45.77657" lon="5.28132">
        <ele>244</ele>
        <time>2021-02-28T10:15:02.825Z</time>
      </trkpt>
      <trkpt lat="45.7766" lon="5.28134">
        <ele>244</ele>
        <time>2021-02-28T10:15:03.826Z</time>
      </trkpt>
      <trkpt lat="45.77663" lon="5.28136">
        <ele>244</ele>
        <time>2021-02-28T10:15:04.826Z</time>
      </trkpt>
      <trkpt lat="45.77667" lon="5.28138">
        <ele>245</ele>
        <time>2021-02-28T10:15:05.825Z</time>
      </trkpt>
      <trkpt lat="45.7767" lon="5.2814">
        <ele>245</ele>
        <time>2021-02-28T10:15:06.825Z</time>
      </trkpt>
      <trkpt lat="45.77674" lon="5.28142">
        <ele>245</ele>
        <time>2021-02-28T10:15:07.825Z</time>
      </trkpt>
      <trkpt lat="45.77676" lon="5.28143">
        <ele>245</ele>
        <time>2021-02-28T10:15:08.825Z</time>
      </trkpt>
      <trkpt lat="45.7768" lon="5.28145">
        <ele>246</ele>
        <time>2021-02-28T10:15:09.826Z</time>
      </trkpt>
      <trkpt lat="45.77683" lon="5.28147">
        <ele>246</ele>
        <time>2021-02-28T10:15:10.826Z</time>
      </trkpt>
      <trkpt lat="45.77686" lon="5.28148">
        <ele>246</ele>
        <time>2021-02-28T10:15:11.825Z</time>
      </trkpt>
      <trkpt lat="45.77691" lon="5.2815">
        <ele>246</ele>
        <time>2021-02-28T10:15:12.825Z</time>
      </trkpt>
      <trkpt lat="45.77694" lon="5.28151">
        <ele>246</ele>
        <time>2021-02-28T10:15:13.826Z</time>
      </trkpt>
      <trkpt lat="45.77696" lon="5.28152">
        <ele>247</ele>
        <time>2021-02-28T10:15:14.825Z</time>
      </trkpt>
      <trkpt lat="45.77699" lon="5.28153">
        <ele>247</ele>
        <time>2021-02-28T10:15:15.825Z</time>
      </trkpt>
      <trkpt lat="45.77702" lon="5.28155">
        <ele>247</ele>
        <time>2021-02-28T10:15:16.826Z</time>
      </trkpt>
      <trkpt lat="45.77705" lon="5.28156">
        <ele>247</ele>
        <time>2021-02-28T10:15:17.825Z</time>
      </trkpt>
      <trkpt lat="45.77708" lon="5.28157">
        <ele>247</ele>
        <time>2021-02-28T10:15:18.825Z</time>
      </trkpt>
      <trkpt lat="45.77711" lon="5.28158">
        <ele>246</ele>
        <time>2021-02-28T10:15:19.825Z</time>
      </trkpt>
      <trkpt lat="45.77713" lon="5.28159">
        <ele>246</ele>
        <time>2021-02-28T10:15:20.825Z</time>
      </trkpt>
      <trkpt lat="45.77716" lon="5.28159">
        <ele>245</ele>
        <time>2021-02-28T10:15:21.826Z</time>
      </trkpt>
      <trkpt lat="45.7772" lon="5.2816">
        <ele>245</ele>
        <time>2021-02-28T10:15:22.825Z</time>
      </trkpt>
      <trkpt lat="45.77723" lon="5.2816">
        <ele>244</ele>
        <time>2021-02-28T10:15:23.825Z</time>
      </trkpt>
      <trkpt lat="45.77726" lon="5.2816">
        <ele>244</ele>
        <time>2021-02-28T10:15:24.825Z</time>
      </trkpt>
      <trkpt lat="45.77729" lon="5.2816">
        <ele>244</ele>
        <time>2021-02-28T10:15:25.825Z</time>
      </trkpt>
      <trkpt lat="45.77733" lon="5.28159">
        <ele>244</ele>
        <time>2021-02-28T10:15:26.825Z</time>
      </trkpt>
      <trkpt lat="45.77737" lon="5.28158">
        <ele>245</ele>
        <time>2021-02-28T10:15:27.825Z</time>
      </trkpt>
      <trkpt lat="45.77741" lon="5.28157">
        <ele>245</ele>
        <time>2021-02-28T10:15:28.825Z</time>
      </trkpt>
      <trkpt lat="45.77744" lon="5.28155">
        <ele>246</ele>
        <time>2021-02-28T10:15:29.825Z</time>
      </trkpt>
      <trkpt lat="45.77748" lon="5.28152">
        <ele>246</ele>
        <time>2021-02-28T10:15:30.825Z</time>
      </trkpt>
      <trkpt lat="45.77754" lon="5.28149">
        <ele>246</ele>
        <time>2021-02-28T10:15:31.825Z</time>
      </trkpt>
      <trkpt lat="45.77759" lon="5.28147">
        <ele>247</ele>
        <time>2021-02-28T10:15:32.825Z</time>
      </trkpt>
      <trkpt lat="45.77764" lon="5.28145">
        <ele>247</ele>
        <time>2021-02-28T10:15:33.826Z</time>
      </trkpt>
      <trkpt lat="45.77769" lon="5.28144">
        <ele>247</ele>
        <time>2021-02-28T10:15:34.825Z</time>
      </trkpt>
      <trkpt lat="45.77775" lon="5.28144">
        <ele>247</ele>
        <time>2021-02-28T10:15:35.825Z</time>
      </trkpt>
      <trkpt lat="45.7778" lon="5.28144">
        <ele>247</ele>
        <time>2021-02-28T10:15:36.825Z</time>
      </trkpt>
      <trkpt lat="45.77785" lon="5.28145">
        <ele>246</ele>
        <time>2021-02-28T10:15:37.825Z</time>
      </trkpt>
      <trkpt lat="45.7779" lon="5.28148">
        <ele>246</ele>
        <time>2021-02-28T10:15:38.826Z</time>
      </trkpt>
      <trkpt lat="45.77794" lon="5.28151">
        <ele>246</ele>
        <time>2021-02-28T10:15:39.825Z</time>
      </trkpt>
      <trkpt lat="45.77797" lon="5.28154">
        <ele>245</ele>
        <time>2021-02-28T10:15:40.825Z</time>
      </trkpt>
      <trkpt lat="45.77799" lon="5.28158">
        <ele>245</ele>
        <time>2021-02-28T10:15:41.825Z</time>
      </trkpt>
      <trkpt lat="45.77802" lon="5.28162">
        <ele>245</ele>
        <time>2021-02-28T10:15:42.826Z</time>
      </trkpt>
      <trkpt lat="45.77805" lon="5.28166">
        <ele>244</ele>
        <time>2021-02-28T10:15:43.826Z</time>
      </trkpt>
      <trkpt lat="45.77807" lon="5.2817">
        <ele>244</ele>
        <time>2021-02-28T10:15:44.825Z</time>
      </trkpt>
      <trkpt lat="45.7781" lon="5.28174">
        <ele>244</ele>
        <time>2021-02-28T10:15:45.825Z</time>
      </trkpt>
      <trkpt lat="45.77812" lon="5.28179">
        <ele>244</ele>
        <time>2021-02-28T10:15:46.825Z</time>
      </trkpt>
      <trkpt lat="45.77814" lon="5.28184">
        <ele>244</ele>
        <time>2021-02-28T10:15:47.825Z</time>
      </trkpt>
      <trkpt lat="45.77816" lon="5.28187">
        <ele>244</ele>
        <time>2021-02-28T10:15:48.825Z</time>
      </trkpt>
      <trkpt lat="45.77818" lon="5.28192">
        <ele>244</ele>
        <time>2021-02-28T10:15:49.825Z</time>
      </trkpt>
      <trkpt lat="45.77821" lon="5.28196">
        <ele>244</ele>
        <time>2021-02-28T10:15:50.825Z</time>
      </trkpt>
      <trkpt lat="45.77824" lon="5.282">
        <ele>244</ele>
        <time>2021-02-28T10:15:51.825Z</time>
      </trkpt>
      <trkpt lat="45.77827" lon="5.28204">
        <ele>243</ele>
        <time>2021-02-28T10:15:52.826Z</time>
      </trkpt>
      <trkpt lat="45.7783" lon="5.28209">
        <ele>243</ele>
        <time>2021-02-28T10:15:53.825Z</time>
      </trkpt>
      <trkpt lat="45.77833" lon="5.28213">
        <ele>243</ele>
        <time>2021-02-28T10:15:54.825Z</time>
      </trkpt>
      <trkpt lat="45.77836" lon="5.28217">
        <ele>243</ele>
        <time>2021-02-28T10:15:55.825Z</time>
      </trkpt>
      <trkpt lat="45.77839" lon="5.28221">
        <ele>243</ele>
        <time>2021-02-28T10:15:56.825Z</time>
      </trkpt>
      <trkpt lat="45.77842" lon="5.28226">
        <ele>243</ele>
        <time>2021-02-28T10:15:57.825Z</time>
      </trkpt>
      <trkpt lat="45.77845" lon="5.2823">
        <ele>243</ele>
        <time>2021-02-28T10:15:58.825Z</time>
      </trkpt>
      <trkpt lat="45.77847" lon="5.28234">
        <ele>242</ele>
        <time>2021-02-28T10:15:59.825Z</time>
      </trkpt>
      <trkpt lat="45.7785" lon="5.28237">
        <ele>242</ele>
        <time>2021-02-28T10:16:00.825Z</time>
      </trkpt>
      <trkpt lat="45.77853" lon="5.28241">
        <ele>243</ele>
        <time>2021-02-28T10:16:01.825Z</time>
      </trkpt>
      <trkpt lat="45.77856" lon="5.28245">
        <ele>243</ele>
        <time>2021-02-28T10:16:02.825Z</time>
      </trkpt>
      <trkpt lat="45.77859" lon="5.28249">
        <ele>243</ele>
        <time>2021-02-28T10:16:03.825Z</time>
      </trkpt>
      <trkpt lat="45.77862" lon="5.28253">
        <ele>243</ele>
        <time>2021-02-28T10:16:04.825Z</time>
      </trkpt>
      <trkpt lat="45.77866" lon="5.28256">
        <ele>243</ele>
        <time>2021-02-28T10:16:05.825Z</time>
      </trkpt>
      <trkpt lat="45.77869" lon="5.2826">
        <ele>243</ele>
        <time>2021-02-28T10:16:06.825Z</time>
      </trkpt>
      <trkpt lat="45.77873" lon="5.28264">
        <ele>243</ele>
        <time>2021-02-28T10:16:07.825Z</time>
      </trkpt>
      <trkpt lat="45.77877" lon="5.28267">
        <ele>243</ele>
        <time>2021-02-28T10:16:08.825Z</time>
      </trkpt>
      <trkpt lat="45.77881" lon="5.2827">
        <ele>243</ele>
        <time>2021-02-28T10:16:09.825Z</time>
      </trkpt>
      <trkpt lat="45.77885" lon="5.28273">
        <ele>244</ele>
        <time>2021-02-28T10:16:10.825Z</time>
      </trkpt>
      <trkpt lat="45.77889" lon="5.28276">
        <ele>244</ele>
        <time>2021-02-28T10:16:11.826Z</time>
      </trkpt>
      <trkpt lat="45.77892" lon="5.28279">
        <ele>244</ele>
        <time>2021-02-28T10:16:12.825Z</time>
      </trkpt>
      <trkpt lat="45.77896" lon="5.28282">
        <ele>244</ele>
        <time>2021-02-28T10:16:13.825Z</time>
      </trkpt>
      <trkpt lat="45.779" lon="5.28285">
        <ele>244</ele>
        <time>2021-02-28T10:16:14.825Z</time>
      </trkpt>
      <trkpt lat="45.77904" lon="5.28287">
        <ele>244</ele>
        <time>2021-02-28T10:16:15.825Z</time>
      </trkpt>
      <trkpt lat="45.77908" lon="5.2829">
        <ele>244</ele>
        <time>2021-02-28T10:16:16.825Z</time>
      </trkpt>
      <trkpt lat="45.77912" lon="5.28292">
        <ele>244</ele>
        <time>2021-02-28T10:16:17.825Z</time>
      </trkpt>
      <trkpt lat="45.77916" lon="5.28294">
        <ele>244</ele>
        <time>2021-02-28T10:16:18.826Z</time>
      </trkpt>
      <trkpt lat="45.7792" lon="5.28297">
        <ele>244</ele>
        <time>2021-02-28T10:16:19.825Z</time>
      </trkpt>
      <trkpt lat="45.77925" lon="5.28299">
        <ele>245</ele>
        <time>2021-02-28T10:16:20.825Z</time>
      </trkpt>
      <trkpt lat="45.7793" lon="5.28301">
        <ele>245</ele>
        <time>2021-02-28T10:16:21.825Z</time>
      </trkpt>
      <trkpt lat="45.77935" lon="5.28303">
        <ele>245</ele>
        <time>2021-02-28T10:16:22.825Z</time>
      </trkpt>
      <trkpt lat="45.7794" lon="5.28304">
        <ele>245</ele>
        <time>2021-02-28T10:16:23.825Z</time>
      </trkpt>
      <trkpt lat="45.77944" lon="5.28306">
        <ele>245</ele>
        <time>2021-02-28T10:16:24.826Z</time>
      </trkpt>
      <trkpt lat="45.7795" lon="5.28309">
        <ele>245</ele>
        <time>2021-02-28T10:16:25.826Z</time>
      </trkpt>
      <trkpt lat="45.77953" lon="5.2831">
        <ele>244</ele>
        <time>2021-02-28T10:16:26.825Z</time>
      </trkpt>
      <trkpt lat="45.77959" lon="5.28313">
        <ele>244</ele>
        <time>2021-02-28T10:16:27.826Z</time>
      </trkpt>
      <trkpt lat="45.77963" lon="5.28314">
        <ele>244</ele>
        <time>2021-02-28T10:16:28.825Z</time>
      </trkpt>
      <trkpt lat="45.77968" lon="5.28316">
        <ele>244</ele>
        <time>2021-02-28T10:16:29.825Z</time>
      </trkpt>
      <trkpt lat="45.77974" lon="5.28319">
        <ele>245</ele>
        <time>2021-02-28T10:16:30.825Z</time>
      </trkpt>
      <trkpt lat="45.77978" lon="5.2832">
        <ele>245</ele>
        <time>2021-02-28T10:16:31.825Z</time>
      </trkpt>
      <trkpt lat="45.77982" lon="5.28323">
        <ele>245</ele>
        <time>2021-02-28T10:16:32.825Z</time>
      </trkpt>
      <trkpt lat="45.77987" lon="5.28325">
        <ele>246</ele>
        <time>2021-02-28T10:16:33.826Z</time>
      </trkpt>
      <trkpt lat="45.77991" lon="5.28328">
        <ele>246</ele>
        <time>2021-02-28T10:16:34.825Z</time>
      </trkpt>
      <trkpt lat="45.77996" lon="5.28331">
        <ele>246</ele>
        <time>2021-02-28T10:16:35.825Z</time>
      </trkpt>
      <trkpt lat="45.77999" lon="5.28333">
        <ele>246</ele>
        <time>2021-02-28T10:16:36.825Z</time>
      </trkpt>
      <trkpt lat="45.78003" lon="5.28335">
        <ele>247</ele>
        <time>2021-02-28T10:16:37.825Z</time>
      </trkpt>
      <trkpt lat="45.78007" lon="5.28336">
        <ele>247</ele>
        <time>2021-02-28T10:16:38.825Z</time>
      </trkpt>
      <trkpt lat="45.7801" lon="5.28337">
        <ele>247</ele>
        <time>2021-02-28T10:16:39.825Z</time>
      </trkpt>
      <trkpt lat="45.78015" lon="5.28338">
        <ele>247</ele>
        <time>2021-02-28T10:16:40.825Z</time>
      </trkpt>
      <trkpt lat="45.78018" lon="5.28338">
        <ele>248</ele>
        <time>2021-02-28T10:16:41.826Z</time>
      </trkpt>
      <trkpt lat="45.78021" lon="5.28339">
        <ele>248</ele>
        <time>2021-02-28T10:16:42.825Z</time>
      </trkpt>
      <trkpt lat="45.78025" lon="5.2834">
        <ele>249</ele>
        <time>2021-02-28T10:16:43.826Z</time>
      </trkpt>
      <trkpt lat="45.78028" lon="5.28341">
        <ele>249</ele>
        <time>2021-02-28T10:16:44.826Z</time>
      </trkpt>
      <trkpt lat="45.78032" lon="5.28342">
        <ele>249</ele>
        <time>2021-02-28T10:16:45.825Z</time>
      </trkpt>
      <trkpt lat="45.78035" lon="5.28344">
        <ele>250</ele>
        <time>2021-02-28T10:16:46.825Z</time>
      </trkpt>
      <trkpt lat="45.78038" lon="5.28346">
        <ele>250</ele>
        <time>2021-02-28T10:16:47.825Z</time>
      </trkpt>
      <trkpt lat="45.78042" lon="5.28348">
        <ele>250</ele>
        <time>2021-02-28T10:16:48.825Z</time>
      </trkpt>
      <trkpt lat="45.78044" lon="5.2835">
        <ele>250</ele>
        <time>2021-02-28T10:16:49.826Z</time>
      </trkpt>
      <trkpt lat="45.78047" lon="5.28353">
        <ele>250</ele>
        <time>2021-02-28T10:16:50.826Z</time>
      </trkpt>
      <trkpt lat="45.78051" lon="5.28355">
        <ele>250</ele>
        <time>2021-02-28T10:16:51.825Z</time>
      </trkpt>
      <trkpt lat="45.78054" lon="5.28358">
        <ele>250</ele>
        <time>2021-02-28T10:16:52.826Z</time>
      </trkpt>
      <trkpt lat="45.78057" lon="5.2836">
        <ele>250</ele>
        <time>2021-02-28T10:16:53.825Z</time>
      </trkpt>
      <trkpt lat="45.7806" lon="5.28362">
        <ele>250</ele>
        <time>2021-02-28T10:16:54.825Z</time>
      </trkpt>
      <trkpt lat="45.7806" lon="5.28362">
        <ele>250</ele>
        <time>2021-02-28T10:16:55.825Z</time>
      </trkpt>
      <trkpt lat="45.78067" lon="5.28368">
        <ele>250</ele>
        <time>2021-02-28T10:16:56.825Z</time>
      </trkpt>
      <trkpt lat="45.78071" lon="5.2837">
        <ele>250</ele>
        <time>2021-02-28T10:16:57.825Z</time>
      </trkpt>
      <trkpt lat="45.78074" lon="5.28373">
        <ele>250</ele>
        <time>2021-02-28T10:16:58.825Z</time>
      </trkpt>
      <trkpt lat="45.78078" lon="5.28375">
        <ele>250</ele>
        <time>2021-02-28T10:16:59.825Z</time>
      </trkpt>
      <trkpt lat="45.78082" lon="5.28377">
        <ele>250</ele>
        <time>2021-02-28T10:17:00.825Z</time>
      </trkpt>
      <trkpt lat="45.78086" lon="5.2838">
        <ele>250</ele>
        <time>2021-02-28T10:17:01.825Z</time>
      </trkpt>
      <trkpt lat="45.7809" lon="5.28382">
        <ele>250</ele>
        <time>2021-02-28T10:17:02.825Z</time>
      </trkpt>
      <trkpt lat="45.78093" lon="5.28385">
        <ele>250</ele>
        <time>2021-02-28T10:17:03.826Z</time>
      </trkpt>
      <trkpt lat="45.78097" lon="5.28387">
        <ele>250</ele>
        <time>2021-02-28T10:17:04.825Z</time>
      </trkpt>
      <trkpt lat="45.78101" lon="5.2839">
        <ele>251</ele>
        <time>2021-02-28T10:17:05.825Z</time>
      </trkpt>
      <trkpt lat="45.78104" lon="5.28392">
        <ele>251</ele>
        <time>2021-02-28T10:17:06.825Z</time>
      </trkpt>
      <trkpt lat="45.78107" lon="5.28394">
        <ele>251</ele>
        <time>2021-02-28T10:17:07.825Z</time>
      </trkpt>
      <trkpt lat="45.78111" lon="5.28396">
        <ele>251</ele>
        <time>2021-02-28T10:17:08.825Z</time>
      </trkpt>
      <trkpt lat="45.78115" lon="5.28398">
        <ele>252</ele>
        <time>2021-02-28T10:17:09.826Z</time>
      </trkpt>
      <trkpt lat="45.78119" lon="5.28401">
        <ele>252</ele>
        <time>2021-02-28T10:17:10.825Z</time>
      </trkpt>
      <trkpt lat="45.78124" lon="5.28404">
        <ele>252</ele>
        <time>2021-02-28T10:17:11.826Z</time>
      </trkpt>
      <trkpt lat="45.78127" lon="5.28406">
        <ele>252</ele>
        <time>2021-02-28T10:17:12.825Z</time>
      </trkpt>
      <trkpt lat="45.78131" lon="5.28409">
        <ele>252</ele>
        <time>2021-02-28T10:17:13.825Z</time>
      </trkpt>
      <trkpt lat="45.78135" lon="5.28412">
        <ele>251</ele>
        <time>2021-02-28T10:17:14.825Z</time>
      </trkpt>
      <trkpt lat="45.7814" lon="5.28416">
        <ele>251</ele>
        <time>2021-02-28T10:17:15.826Z</time>
      </trkpt>
      <trkpt lat="45.78144" lon="5.28418">
        <ele>251</ele>
        <time>2021-02-28T10:17:16.825Z</time>
      </trkpt>
      <trkpt lat="45.78148" lon="5.28421">
        <ele>250</ele>
        <time>2021-02-28T10:17:17.825Z</time>
      </trkpt>
      <trkpt lat="45.78152" lon="5.28423">
        <ele>250</ele>
        <time>2021-02-28T10:17:18.825Z</time>
      </trkpt>
      <trkpt lat="45.78156" lon="5.28425">
        <ele>250</ele>
        <time>2021-02-28T10:17:19.825Z</time>
      </trkpt>
      <trkpt lat="45.7816" lon="5.28427">
        <ele>250</ele>
        <time>2021-02-28T10:17:20.825Z</time>
      </trkpt>
      <trkpt lat="45.78164" lon="5.28428">
        <ele>250</ele>
        <time>2021-02-28T10:17:21.826Z</time>
      </trkpt>
      <trkpt lat="45.78169" lon="5.28429">
        <ele>251</ele>
        <time>2021-02-28T10:17:22.826Z</time>
      </trkpt>
      <trkpt lat="45.78173" lon="5.2843">
        <ele>251</ele>
        <time>2021-02-28T10:17:23.825Z</time>
      </trkpt>
      <trkpt lat="45.78177" lon="5.2843">
        <ele>251</ele>
        <time>2021-02-28T10:17:24.825Z</time>
      </trkpt>
      <trkpt lat="45.78183" lon="5.2843">
        <ele>251</ele>
        <time>2021-02-28T10:17:25.825Z</time>
      </trkpt>
      <trkpt lat="45.78188" lon="5.28429">
        <ele>252</ele>
        <time>2021-02-28T10:17:26.826Z</time>
      </trkpt>
      <trkpt lat="45.78191" lon="5.28428">
        <ele>252</ele>
        <time>2021-02-28T10:17:27.825Z</time>
      </trkpt>
      <trkpt lat="45.78196" lon="5.28428">
        <ele>251</ele>
        <time>2021-02-28T10:17:28.825Z</time>
      </trkpt>
      <trkpt lat="45.78201" lon="5.28427">
        <ele>251</ele>
        <time>2021-02-28T10:17:29.825Z</time>
      </trkpt>
      <trkpt lat="45.78206" lon="5.28425">
        <ele>251</ele>
        <time>2021-02-28T10:17:30.825Z</time>
      </trkpt>
      <trkpt lat="45.78212" lon="5.28424">
        <ele>251</ele>
        <time>2021-02-28T10:17:31.825Z</time>
      </trkpt>
      <trkpt lat="45.78217" lon="5.28422">
        <ele>251</ele>
        <time>2021-02-28T10:17:32.825Z</time>
      </trkpt>
      <trkpt lat="45.78222" lon="5.2842">
        <ele>251</ele>
        <time>2021-02-28T10:17:33.826Z</time>
      </trkpt>
      <trkpt lat="45.78227" lon="5.28418">
        <ele>251</ele>
        <time>2021-02-28T10:17:34.825Z</time>
      </trkpt>
      <trkpt lat="45.78232" lon="5.28415">
        <ele>251</ele>
        <time>2021-02-28T10:17:35.825Z</time>
      </trkpt>
      <trkpt lat="45.78238" lon="5.28413">
        <ele>250</ele>
        <time>2021-02-28T10:17:36.825Z</time>
      </trkpt>
      <trkpt lat="45.78244" lon="5.2841">
        <ele>250</ele>
        <time>2021-02-28T10:17:37.825Z</time>
      </trkpt>
      <trkpt lat="45.78248" lon="5.28408">
        <ele>250</ele>
        <time>2021-02-28T10:17:38.825Z</time>
      </trkpt>
      <trkpt lat="45.78254" lon="5.28406">
        <ele>249</ele>
        <time>2021-02-28T10:17:39.826Z</time>
      </trkpt>
      <trkpt lat="45.78259" lon="5.28403">
        <ele>249</ele>
        <time>2021-02-28T10:17:40.826Z</time>
      </trkpt>
      <trkpt lat="45.78266" lon="5.284">
        <ele>249</ele>
        <time>2021-02-28T10:17:41.825Z</time>
      </trkpt>
      <trkpt lat="45.78271" lon="5.28399">
        <ele>249</ele>
        <time>2021-02-28T10:17:42.825Z</time>
      </trkpt>
      <trkpt lat="45.78276" lon="5.28397">
        <ele>249</ele>
        <time>2021-02-28T10:17:43.825Z</time>
      </trkpt>
      <trkpt lat="45.78282" lon="5.28396">
        <ele>249</ele>
        <time>2021-02-28T10:17:44.825Z</time>
      </trkpt>
      <trkpt lat="45.78288" lon="5.28395">
        <ele>249</ele>
        <time>2021-02-28T10:17:45.825Z</time>
      </trkpt>
      <trkpt lat="45.78294" lon="5.28394">
        <ele>249</ele>
        <time>2021-02-28T10:17:46.825Z</time>
      </trkpt>
      <trkpt lat="45.78299" lon="5.28394">
        <ele>249</ele>
        <time>2021-02-28T10:17:47.825Z</time>
      </trkpt>
      <trkpt lat="45.78304" lon="5.28394">
        <ele>249</ele>
        <time>2021-02-28T10:17:48.825Z</time>
      </trkpt>
      <trkpt lat="45.78309" lon="5.28394">
        <ele>249</ele>
        <time>2021-02-28T10:17:49.826Z</time>
      </trkpt>
      <trkpt lat="45.78315" lon="5.28395">
        <ele>249</ele>
        <time>2021-02-28T10:17:50.826Z</time>
      </trkpt>
      <trkpt lat="45.7832" lon="5.28396">
        <ele>249</ele>
        <time>2021-02-28T10:17:51.825Z</time>
      </trkpt>
      <trkpt lat="45.78324" lon="5.28397">
        <ele>249</ele>
        <time>2021-02-28T10:17:52.825Z</time>
      </trkpt>
      <trkpt lat="45.78329" lon="5.28398">
        <ele>249</ele>
        <time>2021-02-28T10:17:53.825Z</time>
      </trkpt>
      <trkpt lat="45.78333" lon="5.284">
        <ele>249</ele>
        <time>2021-02-28T10:17:54.826Z</time>
      </trkpt>
      <trkpt lat="45.78337" lon="5.28403">
        <ele>249</ele>
        <time>2021-02-28T10:17:55.825Z</time>
      </trkpt>
      <trkpt lat="45.78337" lon="5.28403">
        <ele>249</ele>
        <time>2021-02-28T10:17:56.826Z</time>
      </trkpt>
      <trkpt lat="45.78344" lon="5.28408">
        <ele>248</ele>
        <time>2021-02-28T10:17:57.826Z</time>
      </trkpt>
      <trkpt lat="45.78347" lon="5.2841">
        <ele>248</ele>
        <time>2021-02-28T10:17:58.825Z</time>
      </trkpt>
      <trkpt lat="45.78351" lon="5.28414">
        <ele>248</ele>
        <time>2021-02-28T10:17:59.825Z</time>
      </trkpt>
      <trkpt lat="45.78356" lon="5.28417">
        <ele>248</ele>
        <time>2021-02-28T10:18:00.825Z</time>
      </trkpt>
      <trkpt lat="45.7836" lon="5.2842">
        <ele>248</ele>
        <time>2021-02-28T10:18:01.826Z</time>
      </trkpt>
      <trkpt lat="45.78364" lon="5.28423">
        <ele>248</ele>
        <time>2021-02-28T10:18:02.825Z</time>
      </trkpt>
      <trkpt lat="45.78368" lon="5.28426">
        <ele>248</ele>
        <time>2021-02-28T10:18:03.826Z</time>
      </trkpt>
      <trkpt lat="45.78372" lon="5.28429">
        <ele>248</ele>
        <time>2021-02-28T10:18:04.825Z</time>
      </trkpt>
      <trkpt lat="45.78376" lon="5.28432">
        <ele>248</ele>
        <time>2021-02-28T10:18:05.825Z</time>
      </trkpt>
      <trkpt lat="45.78376" lon="5.28432">
        <ele>248</ele>
        <time>2021-02-28T10:18:06.825Z</time>
      </trkpt>
      <trkpt lat="45.78385" lon="5.28439">
        <ele>249</ele>
        <time>2021-02-28T10:18:07.825Z</time>
      </trkpt>
      <trkpt lat="45.78389" lon="5.28443">
        <ele>249</ele>
        <time>2021-02-28T10:18:08.825Z</time>
      </trkpt>
      <trkpt lat="45.78393" lon="5.28446">
        <ele>249</ele>
        <time>2021-02-28T10:18:09.825Z</time>
      </trkpt>
      <trkpt lat="45.78398" lon="5.2845">
        <ele>249</ele>
        <time>2021-02-28T10:18:10.826Z</time>
      </trkpt>
      <trkpt lat="45.78403" lon="5.28454">
        <ele>249</ele>
        <time>2021-02-28T10:18:11.825Z</time>
      </trkpt>
      <trkpt lat="45.78407" lon="5.28458">
        <ele>249</ele>
        <time>2021-02-28T10:18:12.825Z</time>
      </trkpt>
      <trkpt lat="45.78412" lon="5.28463">
        <ele>248</ele>
        <time>2021-02-28T10:18:13.825Z</time>
      </trkpt>
      <trkpt lat="45.78417" lon="5.28467">
        <ele>248</ele>
        <time>2021-02-28T10:18:14.826Z</time>
      </trkpt>
      <trkpt lat="45.78423" lon="5.28473">
        <ele>248</ele>
        <time>2021-02-28T10:18:15.825Z</time>
      </trkpt>
      <trkpt lat="45.78428" lon="5.28477">
        <ele>248</ele>
        <time>2021-02-28T10:18:16.825Z</time>
      </trkpt>
      <trkpt lat="45.78433" lon="5.28482">
        <ele>248</ele>
        <time>2021-02-28T10:18:17.825Z</time>
      </trkpt>
      <trkpt lat="45.78439" lon="5.28487">
        <ele>248</ele>
        <time>2021-02-28T10:18:18.825Z</time>
      </trkpt>
      <trkpt lat="45.78445" lon="5.28493">
        <ele>247</ele>
        <time>2021-02-28T10:18:19.825Z</time>
      </trkpt>
      <trkpt lat="45.78451" lon="5.28498">
        <ele>247</ele>
        <time>2021-02-28T10:18:20.825Z</time>
      </trkpt>
      <trkpt lat="45.78457" lon="5.28503">
        <ele>247</ele>
        <time>2021-02-28T10:18:21.825Z</time>
      </trkpt>
      <trkpt lat="45.78462" lon="5.28507">
        <ele>247</ele>
        <time>2021-02-28T10:18:22.826Z</time>
      </trkpt>
      <trkpt lat="45.78468" lon="5.28512">
        <ele>247</ele>
        <time>2021-02-28T10:18:23.825Z</time>
      </trkpt>
      <trkpt lat="45.78474" lon="5.28516">
        <ele>246</ele>
        <time>2021-02-28T10:18:24.826Z</time>
      </trkpt>
      <trkpt lat="45.78481" lon="5.2852">
        <ele>245</ele>
        <time>2021-02-28T10:18:25.826Z</time>
      </trkpt>
      <trkpt lat="45.78487" lon="5.28522">
        <ele>245</ele>
        <time>2021-02-28T10:18:26.825Z</time>
      </trkpt>
      <trkpt lat="45.78493" lon="5.28524">
        <ele>244</ele>
        <time>2021-02-28T10:18:27.825Z</time>
      </trkpt>
      <trkpt lat="45.785" lon="5.28525">
        <ele>244</ele>
        <time>2021-02-28T10:18:28.825Z</time>
      </trkpt>
      <trkpt lat="45.78507" lon="5.28525">
        <ele>244</ele>
        <time>2021-02-28T10:18:29.825Z</time>
      </trkpt>
      <trkpt lat="45.78514" lon="5.28523">
        <ele>244</ele>
        <time>2021-02-28T10:18:30.825Z</time>
      </trkpt>
      <trkpt lat="45.78521" lon="5.28521">
        <ele>244</ele>
        <time>2021-02-28T10:18:31.825Z</time>
      </trkpt>
      <trkpt lat="45.78527" lon="5.28518">
        <ele>244</ele>
        <time>2021-02-28T10:18:32.826Z</time>
      </trkpt>
      <trkpt lat="45.78527" lon="5.28518">
        <ele>244</ele>
        <time>2021-02-28T10:18:33.825Z</time>
      </trkpt>
      <trkpt lat="45.7854" lon="5.2851">
        <ele>244</ele>
        <time>2021-02-28T10:18:34.825Z</time>
      </trkpt>
      <trkpt lat="45.78546" lon="5.28504">
        <ele>244</ele>
        <time>2021-02-28T10:18:35.825Z</time>
      </trkpt>
      <trkpt lat="45.78552" lon="5.28499">
        <ele>244</ele>
        <time>2021-02-28T10:18:36.825Z</time>
      </trkpt>
      <trkpt lat="45.78557" lon="5.28492">
        <ele>244</ele>
        <time>2021-02-28T10:18:37.825Z</time>
      </trkpt>
      <trkpt lat="45.78563" lon="5.28487">
        <ele>244</ele>
        <time>2021-02-28T10:18:38.826Z</time>
      </trkpt>
      <trkpt lat="45.78569" lon="5.28482">
        <ele>244</ele>
        <time>2021-02-28T10:18:39.826Z</time>
      </trkpt>
      <trkpt lat="45.78575" lon="5.2848">
        <ele>243</ele>
        <time>2021-02-28T10:18:40.826Z</time>
      </trkpt>
      <trkpt lat="45.78581" lon="5.2848">
        <ele>243</ele>
        <time>2021-02-28T10:18:41.826Z</time>
      </trkpt>
      <trkpt lat="45.78587" lon="5.28482">
        <ele>243</ele>
        <time>2021-02-28T10:18:42.825Z</time>
      </trkpt>
      <trkpt lat="45.78594" lon="5.28485">
        <ele>243</ele>
        <time>2021-02-28T10:18:43.825Z</time>
      </trkpt>
      <trkpt lat="45.786" lon="5.28488">
        <ele>242</ele>
        <time>2021-02-28T10:18:44.826Z</time>
      </trkpt>
      <trkpt lat="45.78607" lon="5.28492">
        <ele>242</ele>
        <time>2021-02-28T10:18:45.825Z</time>
      </trkpt>
      <trkpt lat="45.78613" lon="5.28496">
        <ele>242</ele>
        <time>2021-02-28T10:18:46.825Z</time>
      </trkpt>
      <trkpt lat="45.78618" lon="5.28501">
        <ele>241</ele>
        <time>2021-02-28T10:18:47.825Z</time>
      </trkpt>
      <trkpt lat="45.78624" lon="5.28506">
        <ele>241</ele>
        <time>2021-02-28T10:18:48.825Z</time>
      </trkpt>
      <trkpt lat="45.7863" lon="5.28512">
        <ele>241</ele>
        <time>2021-02-28T10:18:49.825Z</time>
      </trkpt>
      <trkpt lat="45.78637" lon="5.28517">
        <ele>241</ele>
        <time>2021-02-28T10:18:50.826Z</time>
      </trkpt>
      <trkpt lat="45.78643" lon="5.28523">
        <ele>240</ele>
        <time>2021-02-28T10:18:51.825Z</time>
      </trkpt>
      <trkpt lat="45.7865" lon="5.28529">
        <ele>240</ele>
        <time>2021-02-28T10:18:52.825Z</time>
      </trkpt>
      <trkpt lat="45.78657" lon="5.28535">
        <ele>239</ele>
        <time>2021-02-28T10:18:53.825Z</time>
      </trkpt>
      <trkpt lat="45.78664" lon="5.28542">
        <ele>239</ele>
        <time>2021-02-28T10:18:54.825Z</time>
      </trkpt>
      <trkpt lat="45.78671" lon="5.28549">
        <ele>239</ele>
        <time>2021-02-28T10:18:55.825Z</time>
      </trkpt>
      <trkpt lat="45.78679" lon="5.28556">
        <ele>238</ele>
        <time>2021-02-28T10:18:56.825Z</time>
      </trkpt>
      <trkpt lat="45.78689" lon="5.28564">
        <ele>238</ele>
        <time>2021-02-28T10:18:57.825Z</time>
      </trkpt>
      <trkpt lat="45.78696" lon="5.2857">
        <ele>237</ele>
        <time>2021-02-28T10:18:58.825Z</time>
      </trkpt>
      <trkpt lat="45.78703" lon="5.28576">
        <ele>237</ele>
        <time>2021-02-28T10:18:59.825Z</time>
      </trkpt>
      <trkpt lat="45.7871" lon="5.28583">
        <ele>237</ele>
        <time>2021-02-28T10:19:00.825Z</time>
      </trkpt>
      <trkpt lat="45.78719" lon="5.2859">
        <ele>237</ele>
        <time>2021-02-28T10:19:01.825Z</time>
      </trkpt>
      <trkpt lat="45.78726" lon="5.28596">
        <ele>236</ele>
        <time>2021-02-28T10:19:02.825Z</time>
      </trkpt>
      <trkpt lat="45.78733" lon="5.28601">
        <ele>236</ele>
        <time>2021-02-28T10:19:03.825Z</time>
      </trkpt>
      <trkpt lat="45.7874" lon="5.28606">
        <ele>236</ele>
        <time>2021-02-28T10:19:04.825Z</time>
      </trkpt>
      <trkpt lat="45.78747" lon="5.28609">
        <ele>236</ele>
        <time>2021-02-28T10:19:05.826Z</time>
      </trkpt>
      <trkpt lat="45.78755" lon="5.28612">
        <ele>235</ele>
        <time>2021-02-28T10:19:06.825Z</time>
      </trkpt>
      <trkpt lat="45.78763" lon="5.28614">
        <ele>236</ele>
        <time>2021-02-28T10:19:07.826Z</time>
      </trkpt>
      <trkpt lat="45.78771" lon="5.28617">
        <ele>236</ele>
        <time>2021-02-28T10:19:08.825Z</time>
      </trkpt>
      <trkpt lat="45.78777" lon="5.28618">
        <ele>236</ele>
        <time>2021-02-28T10:19:09.825Z</time>
      </trkpt>
      <trkpt lat="45.78787" lon="5.2862">
        <ele>236</ele>
        <time>2021-02-28T10:19:10.825Z</time>
      </trkpt>
      <trkpt lat="45.78795" lon="5.28623">
        <ele>236</ele>
        <time>2021-02-28T10:19:11.825Z</time>
      </trkpt>
      <trkpt lat="45.78802" lon="5.28626">
        <ele>235</ele>
        <time>2021-02-28T10:19:12.825Z</time>
      </trkpt>
      <trkpt lat="45.7881" lon="5.2863">
        <ele>235</ele>
        <time>2021-02-28T10:19:13.825Z</time>
      </trkpt>
      <trkpt lat="45.78817" lon="5.28635">
        <ele>235</ele>
        <time>2021-02-28T10:19:14.825Z</time>
      </trkpt>
      <trkpt lat="45.78824" lon="5.2864">
        <ele>235</ele>
        <time>2021-02-28T10:19:15.825Z</time>
      </trkpt>
      <trkpt lat="45.78831" lon="5.28646">
        <ele>235</ele>
        <time>2021-02-28T10:19:16.825Z</time>
      </trkpt>
      <trkpt lat="45.78837" lon="5.28651">
        <ele>235</ele>
        <time>2021-02-28T10:19:17.825Z</time>
      </trkpt>
      <trkpt lat="45.78844" lon="5.28657">
        <ele>235</ele>
        <time>2021-02-28T10:19:18.825Z</time>
      </trkpt>
      <trkpt lat="45.78851" lon="5.28662">
        <ele>235</ele>
        <time>2021-02-28T10:19:19.826Z</time>
      </trkpt>
      <trkpt lat="45.78858" lon="5.28668">
        <ele>235</ele>
        <time>2021-02-28T10:19:20.826Z</time>
      </trkpt>
      <trkpt lat="45.78866" lon="5.28673">
        <ele>235</ele>
        <time>2021-02-28T10:19:21.825Z</time>
      </trkpt>
      <trkpt lat="45.78874" lon="5.28678">
        <ele>235</ele>
        <time>2021-02-28T10:19:22.825Z</time>
      </trkpt>
      <trkpt lat="45.7888" lon="5.28681">
        <ele>235</ele>
        <time>2021-02-28T10:19:23.825Z</time>
      </trkpt>
      <trkpt lat="45.78889" lon="5.28687">
        <ele>235</ele>
        <time>2021-02-28T10:19:24.825Z</time>
      </trkpt>
      <trkpt lat="45.78897" lon="5.28691">
        <ele>234</ele>
        <time>2021-02-28T10:19:25.825Z</time>
      </trkpt>
      <trkpt lat="45.78906" lon="5.28693">
        <ele>234</ele>
        <time>2021-02-28T10:19:26.825Z</time>
      </trkpt>
      <trkpt lat="45.78912" lon="5.28695">
        <ele>233</ele>
        <time>2021-02-28T10:19:27.826Z</time>
      </trkpt>
      <trkpt lat="45.78921" lon="5.28697">
        <ele>233</ele>
        <time>2021-02-28T10:19:28.825Z</time>
      </trkpt>
      <trkpt lat="45.78932" lon="5.28698">
        <ele>233</ele>
        <time>2021-02-28T10:19:29.826Z</time>
      </trkpt>
      <trkpt lat="45.78941" lon="5.28699">
        <ele>233</ele>
        <time>2021-02-28T10:19:30.825Z</time>
      </trkpt>
      <trkpt lat="45.7895" lon="5.28699">
        <ele>232</ele>
        <time>2021-02-28T10:19:31.825Z</time>
      </trkpt>
      <trkpt lat="45.7896" lon="5.28699">
        <ele>232</ele>
        <time>2021-02-28T10:19:32.825Z</time>
      </trkpt>
      <trkpt lat="45.78969" lon="5.28698">
        <ele>231</ele>
        <time>2021-02-28T10:19:33.826Z</time>
      </trkpt>
      <trkpt lat="45.78978" lon="5.28698">
        <ele>230</ele>
        <time>2021-02-28T10:19:34.825Z</time>
      </trkpt>
      <trkpt lat="45.78987" lon="5.28697">
        <ele>230</ele>
        <time>2021-02-28T10:19:35.825Z</time>
      </trkpt>
      <trkpt lat="45.78996" lon="5.28698">
        <ele>229</ele>
        <time>2021-02-28T10:19:36.826Z</time>
      </trkpt>
      <trkpt lat="45.79004" lon="5.28698">
        <ele>229</ele>
        <time>2021-02-28T10:19:37.825Z</time>
      </trkpt>
      <trkpt lat="45.79015" lon="5.28699">
        <ele>228</ele>
        <time>2021-02-28T10:19:38.826Z</time>
      </trkpt>
      <trkpt lat="45.79025" lon="5.28701">
        <ele>227</ele>
        <time>2021-02-28T10:19:39.825Z</time>
      </trkpt>
      <trkpt lat="45.79034" lon="5.28702">
        <ele>227</ele>
        <time>2021-02-28T10:19:40.825Z</time>
      </trkpt>
      <trkpt lat="45.79042" lon="5.28704">
        <ele>226</ele>
        <time>2021-02-28T10:19:41.825Z</time>
      </trkpt>
      <trkpt lat="45.79051" lon="5.28705">
        <ele>226</ele>
        <time>2021-02-28T10:19:42.825Z</time>
      </trkpt>
      <trkpt lat="45.79062" lon="5.28708">
        <ele>225</ele>
        <time>2021-02-28T10:19:43.825Z</time>
      </trkpt>
      <trkpt lat="45.7907" lon="5.2871">
        <ele>225</ele>
        <time>2021-02-28T10:19:44.825Z</time>
      </trkpt>
      <trkpt lat="45.79078" lon="5.28712">
        <ele>224</ele>
        <time>2021-02-28T10:19:45.825Z</time>
      </trkpt>
      <trkpt lat="45.79086" lon="5.28714">
        <ele>224</ele>
        <time>2021-02-28T10:19:46.825Z</time>
      </trkpt>
      <trkpt lat="45.79092" lon="5.28717">
        <ele>224</ele>
        <time>2021-02-28T10:19:47.825Z</time>
      </trkpt>
      <trkpt lat="45.79101" lon="5.2872">
        <ele>223</ele>
        <time>2021-02-28T10:19:48.825Z</time>
      </trkpt>
      <trkpt lat="45.79108" lon="5.28723">
        <ele>223</ele>
        <time>2021-02-28T10:19:49.825Z</time>
      </trkpt>
      <trkpt lat="45.79115" lon="5.28725">
        <ele>223</ele>
        <time>2021-02-28T10:19:50.825Z</time>
      </trkpt>
      <trkpt lat="45.79121" lon="5.28728">
        <ele>223</ele>
        <time>2021-02-28T10:19:51.826Z</time>
      </trkpt>
      <trkpt lat="45.79127" lon="5.28731">
        <ele>222</ele>
        <time>2021-02-28T10:19:52.825Z</time>
      </trkpt>
      <trkpt lat="45.79134" lon="5.28734">
        <ele>222</ele>
        <time>2021-02-28T10:19:53.825Z</time>
      </trkpt>
      <trkpt lat="45.7914" lon="5.28738">
        <ele>222</ele>
        <time>2021-02-28T10:19:54.825Z</time>
      </trkpt>
      <trkpt lat="45.79145" lon="5.28742">
        <ele>223</ele>
        <time>2021-02-28T10:19:55.825Z</time>
      </trkpt>
      <trkpt lat="45.7915" lon="5.28746">
        <ele>223</ele>
        <time>2021-02-28T10:19:56.825Z</time>
      </trkpt>
      <trkpt lat="45.79157" lon="5.28751">
        <ele>223</ele>
        <time>2021-02-28T10:19:57.825Z</time>
      </trkpt>
      <trkpt lat="45.79162" lon="5.28754">
        <ele>223</ele>
        <time>2021-02-28T10:19:58.826Z</time>
      </trkpt>
      <trkpt lat="45.79167" lon="5.28757">
        <ele>223</ele>
        <time>2021-02-28T10:19:59.825Z</time>
      </trkpt>
      <trkpt lat="45.79172" lon="5.28761">
        <ele>223</ele>
        <time>2021-02-28T10:20:00.825Z</time>
      </trkpt>
      <trkpt lat="45.79177" lon="5.28764">
        <ele>222</ele>
        <time>2021-02-28T10:20:01.825Z</time>
      </trkpt>
      <trkpt lat="45.79183" lon="5.28768">
        <ele>222</ele>
        <time>2021-02-28T10:20:02.825Z</time>
      </trkpt>
      <trkpt lat="45.79188" lon="5.28771">
        <ele>222</ele>
        <time>2021-02-28T10:20:03.825Z</time>
      </trkpt>
      <trkpt lat="45.79194" lon="5.28775">
        <ele>222</ele>
        <time>2021-02-28T10:20:04.825Z</time>
      </trkpt>
      <trkpt lat="45.792" lon="5.28779">
        <ele>222</ele>
        <time>2021-02-28T10:20:05.825Z</time>
      </trkpt>
      <trkpt lat="45.79206" lon="5.28783">
        <ele>222</ele>
        <time>2021-02-28T10:20:06.825Z</time>
      </trkpt>
      <trkpt lat="45.79212" lon="5.28787">
        <ele>222</ele>
        <time>2021-02-28T10:20:07.825Z</time>
      </trkpt>
      <trkpt lat="45.79218" lon="5.28791">
        <ele>222</ele>
        <time>2021-02-28T10:20:08.825Z</time>
      </trkpt>
      <trkpt lat="45.79223" lon="5.28794">
        <ele>223</ele>
        <time>2021-02-28T10:20:09.825Z</time>
      </trkpt>
      <trkpt lat="45.79228" lon="5.28797">
        <ele>223</ele>
        <time>2021-02-28T10:20:10.825Z</time>
      </trkpt>
      <trkpt lat="45.79234" lon="5.28802">
        <ele>223</ele>
        <time>2021-02-28T10:20:11.826Z</time>
      </trkpt>
      <trkpt lat="45.79239" lon="5.28806">
        <ele>224</ele>
        <time>2021-02-28T10:20:12.825Z</time>
      </trkpt>
      <trkpt lat="45.79244" lon="5.2881">
        <ele>225</ele>
        <time>2021-02-28T10:20:13.826Z</time>
      </trkpt>
      <trkpt lat="45.79249" lon="5.28814">
        <ele>225</ele>
        <time>2021-02-28T10:20:14.825Z</time>
      </trkpt>
      <trkpt lat="45.79253" lon="5.28819">
        <ele>226</ele>
        <time>2021-02-28T10:20:15.825Z</time>
      </trkpt>
      <trkpt lat="45.79258" lon="5.28823">
        <ele>226</ele>
        <time>2021-02-28T10:20:16.825Z</time>
      </trkpt>
      <trkpt lat="45.79263" lon="5.28827">
        <ele>225</ele>
        <time>2021-02-28T10:20:17.825Z</time>
      </trkpt>
      <trkpt lat="45.79269" lon="5.28831">
        <ele>225</ele>
        <time>2021-02-28T10:20:18.825Z</time>
      </trkpt>
      <trkpt lat="45.79273" lon="5.28834">
        <ele>224</ele>
        <time>2021-02-28T10:20:19.825Z</time>
      </trkpt>
      <trkpt lat="45.7928" lon="5.28839">
        <ele>224</ele>
        <time>2021-02-28T10:20:20.825Z</time>
      </trkpt>
      <trkpt lat="45.79286" lon="5.28843">
        <ele>224</ele>
        <time>2021-02-28T10:20:21.826Z</time>
      </trkpt>
      <trkpt lat="45.79292" lon="5.28847">
        <ele>223</ele>
        <time>2021-02-28T10:20:22.825Z</time>
      </trkpt>
      <trkpt lat="45.79298" lon="5.28852">
        <ele>222</ele>
        <time>2021-02-28T10:20:23.825Z</time>
      </trkpt>
      <trkpt lat="45.79303" lon="5.28856">
        <ele>222</ele>
        <time>2021-02-28T10:20:24.825Z</time>
      </trkpt>
      <trkpt lat="45.79308" lon="5.28859">
        <ele>221</ele>
        <time>2021-02-28T10:20:25.826Z</time>
      </trkpt>
      <trkpt lat="45.79314" lon="5.28864">
        <ele>221</ele>
        <time>2021-02-28T10:20:26.825Z</time>
      </trkpt>
      <trkpt lat="45.79319" lon="5.28868">
        <ele>221</ele>
        <time>2021-02-28T10:20:27.825Z</time>
      </trkpt>
      <trkpt lat="45.79323" lon="5.28873">
        <ele>221</ele>
        <time>2021-02-28T10:20:28.825Z</time>
      </trkpt>
      <trkpt lat="45.79327" lon="5.28879">
        <ele>220</ele>
        <time>2021-02-28T10:20:29.825Z</time>
      </trkpt>
      <trkpt lat="45.79331" lon="5.28885">
        <ele>220</ele>
        <time>2021-02-28T10:20:30.826Z</time>
      </trkpt>
      <trkpt lat="45.79334" lon="5.28891">
        <ele>219</ele>
        <time>2021-02-28T10:20:31.825Z</time>
      </trkpt>
      <trkpt lat="45.79337" lon="5.28898">
        <ele>219</ele>
        <time>2021-02-28T10:20:32.825Z</time>
      </trkpt>
      <trkpt lat="45.7934" lon="5.28905">
        <ele>218</ele>
        <time>2021-02-28T10:20:33.825Z</time>
      </trkpt>
      <trkpt lat="45.79343" lon="5.28911">
        <ele>218</ele>
        <time>2021-02-28T10:20:34.825Z</time>
      </trkpt>
      <trkpt lat="45.79345" lon="5.28917">
        <ele>218</ele>
        <time>2021-02-28T10:20:35.825Z</time>
      </trkpt>
      <trkpt lat="45.79347" lon="5.28923">
        <ele>217</ele>
        <time>2021-02-28T10:20:36.825Z</time>
      </trkpt>
      <trkpt lat="45.79349" lon="5.28928">
        <ele>217</ele>
        <time>2021-02-28T10:20:37.825Z</time>
      </trkpt>
      <trkpt lat="45.79351" lon="5.28932">
        <ele>217</ele>
        <time>2021-02-28T10:20:38.826Z</time>
      </trkpt>
      <trkpt lat="45.79353" lon="5.28937">
        <ele>217</ele>
        <time>2021-02-28T10:20:39.825Z</time>
      </trkpt>
      <trkpt lat="45.79354" lon="5.28941">
        <ele>217</ele>
        <time>2021-02-28T10:20:40.826Z</time>
      </trkpt>
      <trkpt lat="45.79356" lon="5.28945">
        <ele>218</ele>
        <time>2021-02-28T10:20:41.826Z</time>
      </trkpt>
      <trkpt lat="45.79358" lon="5.2895">
        <ele>218</ele>
        <time>2021-02-28T10:20:42.825Z</time>
      </trkpt>
      <trkpt lat="45.7936" lon="5.28954">
        <ele>218</ele>
        <time>2021-02-28T10:20:43.825Z</time>
      </trkpt>
      <trkpt lat="45.79362" lon="5.28958">
        <ele>218</ele>
        <time>2021-02-28T10:20:44.825Z</time>
      </trkpt>
      <trkpt lat="45.79364" lon="5.28963">
        <ele>218</ele>
        <time>2021-02-28T10:20:45.826Z</time>
      </trkpt>
      <trkpt lat="45.79366" lon="5.28967">
        <ele>218</ele>
        <time>2021-02-28T10:20:46.826Z</time>
      </trkpt>
      <trkpt lat="45.79368" lon="5.28971">
        <ele>219</ele>
        <time>2021-02-28T10:20:47.825Z</time>
      </trkpt>
      <trkpt lat="45.79371" lon="5.28975">
        <ele>219</ele>
        <time>2021-02-28T10:20:48.825Z</time>
      </trkpt>
      <trkpt lat="45.79373" lon="5.2898">
        <ele>219</ele>
        <time>2021-02-28T10:20:49.825Z</time>
      </trkpt>
      <trkpt lat="45.79374" lon="5.28984">
        <ele>219</ele>
        <time>2021-02-28T10:20:50.825Z</time>
      </trkpt>
      <trkpt lat="45.79377" lon="5.28989">
        <ele>219</ele>
        <time>2021-02-28T10:20:51.825Z</time>
      </trkpt>
      <trkpt lat="45.79379" lon="5.28993">
        <ele>219</ele>
        <time>2021-02-28T10:20:52.825Z</time>
      </trkpt>
      <trkpt lat="45.79381" lon="5.28997">
        <ele>219</ele>
        <time>2021-02-28T10:20:53.825Z</time>
      </trkpt>
      <trkpt lat="45.79383" lon="5.29002">
        <ele>219</ele>
        <time>2021-02-28T10:20:54.825Z</time>
      </trkpt>
      <trkpt lat="45.79385" lon="5.29006">
        <ele>219</ele>
        <time>2021-02-28T10:20:55.825Z</time>
      </trkpt>
      <trkpt lat="45.79387" lon="5.2901">
        <ele>219</ele>
        <time>2021-02-28T10:20:56.825Z</time>
      </trkpt>
      <trkpt lat="45.79389" lon="5.29013">
        <ele>219</ele>
        <time>2021-02-28T10:20:57.825Z</time>
      </trkpt>
      <trkpt lat="45.79391" lon="5.29017">
        <ele>220</ele>
        <time>2021-02-28T10:20:58.825Z</time>
      </trkpt>
      <trkpt lat="45.79393" lon="5.29021">
        <ele>221</ele>
        <time>2021-02-28T10:20:59.825Z</time>
      </trkpt>
      <trkpt lat="45.79396" lon="5.29025">
        <ele>222</ele>
        <time>2021-02-28T10:21:00.826Z</time>
      </trkpt>
      <trkpt lat="45.79398" lon="5.29029">
        <ele>222</ele>
        <time>2021-02-28T10:21:01.825Z</time>
      </trkpt>
      <trkpt lat="45.794" lon="5.29033">
        <ele>222</ele>
        <time>2021-02-28T10:21:02.826Z</time>
      </trkpt>
      <trkpt lat="45.79401" lon="5.29037">
        <ele>222</ele>
        <time>2021-02-28T10:21:03.826Z</time>
      </trkpt>
      <trkpt lat="45.79404" lon="5.2904">
        <ele>221</ele>
        <time>2021-02-28T10:21:04.825Z</time>
      </trkpt>
      <trkpt lat="45.79406" lon="5.29043">
        <ele>222</ele>
        <time>2021-02-28T10:21:05.825Z</time>
      </trkpt>
      <trkpt lat="45.79408" lon="5.29047">
        <ele>222</ele>
        <time>2021-02-28T10:21:06.825Z</time>
      </trkpt>
      <trkpt lat="45.79411" lon="5.2905">
        <ele>222</ele>
        <time>2021-02-28T10:21:07.825Z</time>
      </trkpt>
      <trkpt lat="45.79413" lon="5.29054">
        <ele>223</ele>
        <time>2021-02-28T10:21:08.825Z</time>
      </trkpt>
      <trkpt lat="45.79415" lon="5.29057">
        <ele>223</ele>
        <time>2021-02-28T10:21:09.825Z</time>
      </trkpt>
      <trkpt lat="45.79417" lon="5.29061">
        <ele>223</ele>
        <time>2021-02-28T10:21:10.826Z</time>
      </trkpt>
      <trkpt lat="45.7942" lon="5.29064">
        <ele>223</ele>
        <time>2021-02-28T10:21:11.825Z</time>
      </trkpt>
      <trkpt lat="45.79423" lon="5.29067">
        <ele>223</ele>
        <time>2021-02-28T10:21:12.825Z</time>
      </trkpt>
      <trkpt lat="45.79426" lon="5.29071">
        <ele>224</ele>
        <time>2021-02-28T10:21:13.825Z</time>
      </trkpt>
      <trkpt lat="45.79429" lon="5.29075">
        <ele>224</ele>
        <time>2021-02-28T10:21:14.825Z</time>
      </trkpt>
      <trkpt lat="45.79431" lon="5.29079">
        <ele>225</ele>
        <time>2021-02-28T10:21:15.825Z</time>
      </trkpt>
      <trkpt lat="45.79434" lon="5.29082">
        <ele>225</ele>
        <time>2021-02-28T10:21:16.826Z</time>
      </trkpt>
      <trkpt lat="45.79437" lon="5.29086">
        <ele>226</ele>
        <time>2021-02-28T10:21:17.825Z</time>
      </trkpt>
      <trkpt lat="45.7944" lon="5.2909">
        <ele>226</ele>
        <time>2021-02-28T10:21:18.826Z</time>
      </trkpt>
      <trkpt lat="45.79442" lon="5.29093">
        <ele>226</ele>
        <time>2021-02-28T10:21:19.825Z</time>
      </trkpt>
      <trkpt lat="45.79445" lon="5.29097">
        <ele>226</ele>
        <time>2021-02-28T10:21:20.825Z</time>
      </trkpt>
      <trkpt lat="45.79448" lon="5.291">
        <ele>226</ele>
        <time>2021-02-28T10:21:21.825Z</time>
      </trkpt>
      <trkpt lat="45.79451" lon="5.29104">
        <ele>226</ele>
        <time>2021-02-28T10:21:22.825Z</time>
      </trkpt>
      <trkpt lat="45.79454" lon="5.29107">
        <ele>226</ele>
        <time>2021-02-28T10:21:23.826Z</time>
      </trkpt>
      <trkpt lat="45.79457" lon="5.2911">
        <ele>226</ele>
        <time>2021-02-28T10:21:24.825Z</time>
      </trkpt>
      <trkpt lat="45.7946" lon="5.29113">
        <ele>227</ele>
        <time>2021-02-28T10:21:25.825Z</time>
      </trkpt>
      <trkpt lat="45.79463" lon="5.29116">
        <ele>227</ele>
        <time>2021-02-28T10:21:26.826Z</time>
      </trkpt>
      <trkpt lat="45.79466" lon="5.29119">
        <ele>227</ele>
        <time>2021-02-28T10:21:27.826Z</time>
      </trkpt>
      <trkpt lat="45.79469" lon="5.29121">
        <ele>228</ele>
        <time>2021-02-28T10:21:28.825Z</time>
      </trkpt>
      <trkpt lat="45.79472" lon="5.29124">
        <ele>228</ele>
        <time>2021-02-28T10:21:29.826Z</time>
      </trkpt>
      <trkpt lat="45.79475" lon="5.29126">
        <ele>228</ele>
        <time>2021-02-28T10:21:30.825Z</time>
      </trkpt>
      <trkpt lat="45.7948" lon="5.2913">
        <ele>229</ele>
        <time>2021-02-28T10:21:31.825Z</time>
      </trkpt>
      <trkpt lat="45.79483" lon="5.29133">
        <ele>229</ele>
        <time>2021-02-28T10:21:32.825Z</time>
      </trkpt>
      <trkpt lat="45.79487" lon="5.29136">
        <ele>230</ele>
        <time>2021-02-28T10:21:33.826Z</time>
      </trkpt>
      <trkpt lat="45.79491" lon="5.29138">
        <ele>230</ele>
        <time>2021-02-28T10:21:34.825Z</time>
      </trkpt>
      <trkpt lat="45.79495" lon="5.29141">
        <ele>231</ele>
        <time>2021-02-28T10:21:35.825Z</time>
      </trkpt>
      <trkpt lat="45.795" lon="5.29144">
        <ele>231</ele>
        <time>2021-02-28T10:21:36.825Z</time>
      </trkpt>
      <trkpt lat="45.79504" lon="5.29147">
        <ele>230</ele>
        <time>2021-02-28T10:21:37.825Z</time>
      </trkpt>
      <trkpt lat="45.79509" lon="5.2915">
        <ele>230</ele>
        <time>2021-02-28T10:21:38.825Z</time>
      </trkpt>
      <trkpt lat="45.79514" lon="5.29154">
        <ele>230</ele>
        <time>2021-02-28T10:21:39.825Z</time>
      </trkpt>
      <trkpt lat="45.79519" lon="5.29157">
        <ele>230</ele>
        <time>2021-02-28T10:21:40.825Z</time>
      </trkpt>
      <trkpt lat="45.79524" lon="5.2916">
        <ele>229</ele>
        <time>2021-02-28T10:21:41.825Z</time>
      </trkpt>
      <trkpt lat="45.79529" lon="5.29163">
        <ele>229</ele>
        <time>2021-02-28T10:21:42.826Z</time>
      </trkpt>
      <trkpt lat="45.79533" lon="5.29166">
        <ele>229</ele>
        <time>2021-02-28T10:21:43.825Z</time>
      </trkpt>
      <trkpt lat="45.79538" lon="5.2917">
        <ele>229</ele>
        <time>2021-02-28T10:21:44.825Z</time>
      </trkpt>
      <trkpt lat="45.79545" lon="5.29174">
        <ele>228</ele>
        <time>2021-02-28T10:21:45.826Z</time>
      </trkpt>
      <trkpt lat="45.7955" lon="5.29178">
        <ele>228</ele>
        <time>2021-02-28T10:21:46.825Z</time>
      </trkpt>
      <trkpt lat="45.7955" lon="5.29178">
        <ele>228</ele>
        <time>2021-02-28T10:21:47.825Z</time>
      </trkpt>
      <trkpt lat="45.7956" lon="5.29184">
        <ele>227</ele>
        <time>2021-02-28T10:21:48.825Z</time>
      </trkpt>
      <trkpt lat="45.79566" lon="5.29188">
        <ele>227</ele>
        <time>2021-02-28T10:21:49.825Z</time>
      </trkpt>
      <trkpt lat="45.79571" lon="5.29191">
        <ele>227</ele>
        <time>2021-02-28T10:21:50.825Z</time>
      </trkpt>
      <trkpt lat="45.79575" lon="5.29193">
        <ele>228</ele>
        <time>2021-02-28T10:21:51.825Z</time>
      </trkpt>
      <trkpt lat="45.79579" lon="5.29196">
        <ele>228</ele>
        <time>2021-02-28T10:21:52.825Z</time>
      </trkpt>
      <trkpt lat="45.79582" lon="5.29198">
        <ele>228</ele>
        <time>2021-02-28T10:21:53.826Z</time>
      </trkpt>
      <trkpt lat="45.79586" lon="5.29201">
        <ele>228</ele>
        <time>2021-02-28T10:21:54.825Z</time>
      </trkpt>
      <trkpt lat="45.79589" lon="5.29205">
        <ele>227</ele>
        <time>2021-02-28T10:21:55.825Z</time>
      </trkpt>
      <trkpt lat="45.79593" lon="5.29208">
        <ele>227</ele>
        <time>2021-02-28T10:21:56.825Z</time>
      </trkpt>
      <trkpt lat="45.79597" lon="5.29211">
        <ele>227</ele>
        <time>2021-02-28T10:21:57.825Z</time>
      </trkpt>
      <trkpt lat="45.79601" lon="5.29214">
        <ele>227</ele>
        <time>2021-02-28T10:21:58.826Z</time>
      </trkpt>
      <trkpt lat="45.79606" lon="5.29216">
        <ele>227</ele>
        <time>2021-02-28T10:21:59.825Z</time>
      </trkpt>
      <trkpt lat="45.79611" lon="5.29219">
        <ele>227</ele>
        <time>2021-02-28T10:22:00.825Z</time>
      </trkpt>
      <trkpt lat="45.79616" lon="5.29222">
        <ele>226</ele>
        <time>2021-02-28T10:22:01.825Z</time>
      </trkpt>
      <trkpt lat="45.79622" lon="5.29226">
        <ele>226</ele>
        <time>2021-02-28T10:22:02.825Z</time>
      </trkpt>
      <trkpt lat="45.79627" lon="5.29231">
        <ele>226</ele>
        <time>2021-02-28T10:22:03.825Z</time>
      </trkpt>
      <trkpt lat="45.79633" lon="5.29235">
        <ele>226</ele>
        <time>2021-02-28T10:22:04.825Z</time>
      </trkpt>
      <trkpt lat="45.79639" lon="5.29238">
        <ele>226</ele>
        <time>2021-02-28T10:22:05.826Z</time>
      </trkpt>
      <trkpt lat="45.79644" lon="5.29242">
        <ele>226</ele>
        <time>2021-02-28T10:22:06.825Z</time>
      </trkpt>
      <trkpt lat="45.7965" lon="5.29248">
        <ele>226</ele>
        <time>2021-02-28T10:22:07.825Z</time>
      </trkpt>
      <trkpt lat="45.79655" lon="5.29253">
        <ele>226</ele>
        <time>2021-02-28T10:22:08.825Z</time>
      </trkpt>
      <trkpt lat="45.7966" lon="5.29259">
        <ele>226</ele>
        <time>2021-02-28T10:22:09.825Z</time>
      </trkpt>
      <trkpt lat="45.79665" lon="5.29263">
        <ele>226</ele>
        <time>2021-02-28T10:22:10.826Z</time>
      </trkpt>
      <trkpt lat="45.79669" lon="5.29267">
        <ele>226</ele>
        <time>2021-02-28T10:22:11.826Z</time>
      </trkpt>
      <trkpt lat="45.79674" lon="5.29272">
        <ele>227</ele>
        <time>2021-02-28T10:22:12.825Z</time>
      </trkpt>
      <trkpt lat="45.79679" lon="5.29275">
        <ele>227</ele>
        <time>2021-02-28T10:22:13.825Z</time>
      </trkpt>
      <trkpt lat="45.79682" lon="5.29278">
        <ele>227</ele>
        <time>2021-02-28T10:22:14.825Z</time>
      </trkpt>
      <trkpt lat="45.79688" lon="5.29281">
        <ele>227</ele>
        <time>2021-02-28T10:22:15.825Z</time>
      </trkpt>
      <trkpt lat="45.79692" lon="5.29284">
        <ele>227</ele>
        <time>2021-02-28T10:22:16.825Z</time>
      </trkpt>
      <trkpt lat="45.79696" lon="5.29287">
        <ele>227</ele>
        <time>2021-02-28T10:22:17.825Z</time>
      </trkpt>
      <trkpt lat="45.797" lon="5.2929">
        <ele>227</ele>
        <time>2021-02-28T10:22:18.825Z</time>
      </trkpt>
      <trkpt lat="45.79702" lon="5.29295">
        <ele>227</ele>
        <time>2021-02-28T10:22:19.825Z</time>
      </trkpt>
      <trkpt lat="45.79704" lon="5.29302">
        <ele>228</ele>
        <time>2021-02-28T10:22:20.825Z</time>
      </trkpt>
      <trkpt lat="45.79705" lon="5.29309">
        <ele>228</ele>
        <time>2021-02-28T10:22:21.826Z</time>
      </trkpt>
      <trkpt lat="45.79707" lon="5.29317">
        <ele>228</ele>
        <time>2021-02-28T10:22:22.825Z</time>
      </trkpt>
      <trkpt lat="45.79709" lon="5.29326">
        <ele>228</ele>
        <time>2021-02-28T10:22:23.825Z</time>
      </trkpt>
      <trkpt lat="45.79712" lon="5.29334">
        <ele>228</ele>
        <time>2021-02-28T10:22:24.825Z</time>
      </trkpt>
      <trkpt lat="45.79716" lon="5.29346">
        <ele>227</ele>
        <time>2021-02-28T10:22:25.825Z</time>
      </trkpt>
      <trkpt lat="45.79718" lon="5.29357">
        <ele>227</ele>
        <time>2021-02-28T10:22:26.826Z</time>
      </trkpt>
      <trkpt lat="45.79721" lon="5.29369">
        <ele>226</ele>
        <time>2021-02-28T10:22:27.825Z</time>
      </trkpt>
      <trkpt lat="45.79722" lon="5.29381">
        <ele>225</ele>
        <time>2021-02-28T10:22:28.825Z</time>
      </trkpt>
      <trkpt lat="45.79723" lon="5.29395">
        <ele>224</ele>
        <time>2021-02-28T10:22:29.825Z</time>
      </trkpt>
      <trkpt lat="45.79724" lon="5.2941">
        <ele>224</ele>
        <time>2021-02-28T10:22:30.825Z</time>
      </trkpt>
      <trkpt lat="45.79725" lon="5.29424">
        <ele>223</ele>
        <time>2021-02-28T10:22:31.825Z</time>
      </trkpt>
      <trkpt lat="45.79726" lon="5.2944">
        <ele>223</ele>
        <time>2021-02-28T10:22:32.825Z</time>
      </trkpt>
      <trkpt lat="45.79728" lon="5.29451">
        <ele>222</ele>
        <time>2021-02-28T10:22:33.825Z</time>
      </trkpt>
      <trkpt lat="45.79729" lon="5.29465">
        <ele>222</ele>
        <time>2021-02-28T10:22:34.825Z</time>
      </trkpt>
      <trkpt lat="45.79732" lon="5.29476">
        <ele>221</ele>
        <time>2021-02-28T10:22:35.825Z</time>
      </trkpt>
      <trkpt lat="45.79736" lon="5.29485">
        <ele>220</ele>
        <time>2021-02-28T10:22:36.825Z</time>
      </trkpt>
      <trkpt lat="45.7974" lon="5.29494">
        <ele>219</ele>
        <time>2021-02-28T10:22:37.825Z</time>
      </trkpt>
      <trkpt lat="45.79746" lon="5.29503">
        <ele>218</ele>
        <time>2021-02-28T10:22:38.825Z</time>
      </trkpt>
      <trkpt lat="45.79752" lon="5.29511">
        <ele>218</ele>
        <time>2021-02-28T10:22:39.825Z</time>
      </trkpt>
      <trkpt lat="45.79757" lon="5.29517">
        <ele>217</ele>
        <time>2021-02-28T10:22:40.825Z</time>
      </trkpt>
      <trkpt lat="45.79761" lon="5.29522">
        <ele>217</ele>
        <time>2021-02-28T10:22:41.825Z</time>
      </trkpt>
      <trkpt lat="45.79765" lon="5.29528">
        <ele>217</ele>
        <time>2021-02-28T10:22:42.826Z</time>
      </trkpt>
      <trkpt lat="45.79769" lon="5.29534">
        <ele>216</ele>
        <time>2021-02-28T10:22:43.825Z</time>
      </trkpt>
      <trkpt lat="45.79772" lon="5.29541">
        <ele>216</ele>
        <time>2021-02-28T10:22:44.826Z</time>
      </trkpt>
      <trkpt lat="45.79773" lon="5.29549">
        <ele>215</ele>
        <time>2021-02-28T10:22:45.825Z</time>
      </trkpt>
      <trkpt lat="45.79774" lon="5.29556">
        <ele>215</ele>
        <time>2021-02-28T10:22:46.825Z</time>
      </trkpt>
      <trkpt lat="45.79777" lon="5.29566">
        <ele>215</ele>
        <time>2021-02-28T10:22:47.826Z</time>
      </trkpt>
      <trkpt lat="45.79779" lon="5.29574">
        <ele>215</ele>
        <time>2021-02-28T10:22:48.825Z</time>
      </trkpt>
      <trkpt lat="45.79781" lon="5.29581">
        <ele>214</ele>
        <time>2021-02-28T10:22:49.825Z</time>
      </trkpt>
      <trkpt lat="45.79784" lon="5.29588">
        <ele>214</ele>
        <time>2021-02-28T10:22:50.825Z</time>
      </trkpt>
      <trkpt lat="45.79786" lon="5.29595">
        <ele>214</ele>
        <time>2021-02-28T10:22:51.825Z</time>
      </trkpt>
      <trkpt lat="45.79789" lon="5.29602">
        <ele>214</ele>
        <time>2021-02-28T10:22:52.825Z</time>
      </trkpt>
      <trkpt lat="45.79791" lon="5.29609">
        <ele>213</ele>
        <time>2021-02-28T10:22:53.825Z</time>
      </trkpt>
      <trkpt lat="45.79793" lon="5.29616">
        <ele>213</ele>
        <time>2021-02-28T10:22:54.825Z</time>
      </trkpt>
      <trkpt lat="45.79796" lon="5.29623">
        <ele>213</ele>
        <time>2021-02-28T10:22:55.825Z</time>
      </trkpt>
      <trkpt lat="45.79799" lon="5.2963">
        <ele>214</ele>
        <time>2021-02-28T10:22:56.825Z</time>
      </trkpt>
      <trkpt lat="45.79802" lon="5.29637">
        <ele>214</ele>
        <time>2021-02-28T10:22:57.825Z</time>
      </trkpt>
      <trkpt lat="45.79804" lon="5.29644">
        <ele>213</ele>
        <time>2021-02-28T10:22:58.825Z</time>
      </trkpt>
      <trkpt lat="45.79807" lon="5.29651">
        <ele>213</ele>
        <time>2021-02-28T10:22:59.825Z</time>
      </trkpt>
      <trkpt lat="45.79809" lon="5.29658">
        <ele>212</ele>
        <time>2021-02-28T10:23:00.825Z</time>
      </trkpt>
      <trkpt lat="45.79812" lon="5.29665">
        <ele>211</ele>
        <time>2021-02-28T10:23:01.825Z</time>
      </trkpt>
      <trkpt lat="45.79815" lon="5.29672">
        <ele>211</ele>
        <time>2021-02-28T10:23:02.825Z</time>
      </trkpt>
      <trkpt lat="45.79818" lon="5.29679">
        <ele>211</ele>
        <time>2021-02-28T10:23:03.825Z</time>
      </trkpt>
      <trkpt lat="45.79822" lon="5.29686">
        <ele>211</ele>
        <time>2021-02-28T10:23:04.825Z</time>
      </trkpt>
      <trkpt lat="45.79825" lon="5.29693">
        <ele>210</ele>
        <time>2021-02-28T10:23:05.825Z</time>
      </trkpt>
      <trkpt lat="45.79828" lon="5.297">
        <ele>210</ele>
        <time>2021-02-28T10:23:06.825Z</time>
      </trkpt>
      <trkpt lat="45.79831" lon="5.29707">
        <ele>210</ele>
        <time>2021-02-28T10:23:07.825Z</time>
      </trkpt>
      <trkpt lat="45.79834" lon="5.29712">
        <ele>209</ele>
        <time>2021-02-28T10:23:08.825Z</time>
      </trkpt>
      <trkpt lat="45.79838" lon="5.29721">
        <ele>209</ele>
        <time>2021-02-28T10:23:09.825Z</time>
      </trkpt>
      <trkpt lat="45.79841" lon="5.29728">
        <ele>209</ele>
        <time>2021-02-28T10:23:10.825Z</time>
      </trkpt>
      <trkpt lat="45.79843" lon="5.29735">
        <ele>209</ele>
        <time>2021-02-28T10:23:11.825Z</time>
      </trkpt>
      <trkpt lat="45.79846" lon="5.29743">
        <ele>208</ele>
        <time>2021-02-28T10:23:12.825Z</time>
      </trkpt>
      <trkpt lat="45.79849" lon="5.2975">
        <ele>209</ele>
        <time>2021-02-28T10:23:13.825Z</time>
      </trkpt>
      <trkpt lat="45.79851" lon="5.29757">
        <ele>209</ele>
        <time>2021-02-28T10:23:14.825Z</time>
      </trkpt>
      <trkpt lat="45.79854" lon="5.29764">
        <ele>209</ele>
        <time>2021-02-28T10:23:15.825Z</time>
      </trkpt>
      <trkpt lat="45.79856" lon="5.29772">
        <ele>209</ele>
        <time>2021-02-28T10:23:16.825Z</time>
      </trkpt>
      <trkpt lat="45.79858" lon="5.29778">
        <ele>209</ele>
        <time>2021-02-28T10:23:17.825Z</time>
      </trkpt>
      <trkpt lat="45.79861" lon="5.29785">
        <ele>209</ele>
        <time>2021-02-28T10:23:18.825Z</time>
      </trkpt>
      <trkpt lat="45.79863" lon="5.29792">
        <ele>209</ele>
        <time>2021-02-28T10:23:19.826Z</time>
      </trkpt>
      <trkpt lat="45.79865" lon="5.29799">
        <ele>209</ele>
        <time>2021-02-28T10:23:20.825Z</time>
      </trkpt>
      <trkpt lat="45.79867" lon="5.29806">
        <ele>209</ele>
        <time>2021-02-28T10:23:21.825Z</time>
      </trkpt>
      <trkpt lat="45.79869" lon="5.29813">
        <ele>210</ele>
        <time>2021-02-28T10:23:22.825Z</time>
      </trkpt>
      <trkpt lat="45.79871" lon="5.2982">
        <ele>210</ele>
        <time>2021-02-28T10:23:23.825Z</time>
      </trkpt>
      <trkpt lat="45.79873" lon="5.29828">
        <ele>210</ele>
        <time>2021-02-28T10:23:24.826Z</time>
      </trkpt>
      <trkpt lat="45.79875" lon="5.29835">
        <ele>211</ele>
        <time>2021-02-28T10:23:25.825Z</time>
      </trkpt>
      <trkpt lat="45.79876" lon="5.29841">
        <ele>211</ele>
        <time>2021-02-28T10:23:26.825Z</time>
      </trkpt>
      <trkpt lat="45.79878" lon="5.2985">
        <ele>211</ele>
        <time>2021-02-28T10:23:27.825Z</time>
      </trkpt>
      <trkpt lat="45.7988" lon="5.29858">
        <ele>211</ele>
        <time>2021-02-28T10:23:28.825Z</time>
      </trkpt>
      <trkpt lat="45.79881" lon="5.29866">
        <ele>211</ele>
        <time>2021-02-28T10:23:29.825Z</time>
      </trkpt>
      <trkpt lat="45.79883" lon="5.29872">
        <ele>211</ele>
        <time>2021-02-28T10:23:30.825Z</time>
      </trkpt>
      <trkpt lat="45.79884" lon="5.2988">
        <ele>211</ele>
        <time>2021-02-28T10:23:31.825Z</time>
      </trkpt>
      <trkpt lat="45.79886" lon="5.29889">
        <ele>211</ele>
        <time>2021-02-28T10:23:32.825Z</time>
      </trkpt>
      <trkpt lat="45.79887" lon="5.29897">
        <ele>211</ele>
        <time>2021-02-28T10:23:33.825Z</time>
      </trkpt>
      <trkpt lat="45.79889" lon="5.29905">
        <ele>211</ele>
        <time>2021-02-28T10:23:34.825Z</time>
      </trkpt>
      <trkpt lat="45.7989" lon="5.2991">
        <ele>211</ele>
        <time>2021-02-28T10:23:35.826Z</time>
      </trkpt>
      <trkpt lat="45.79891" lon="5.29919">
        <ele>211</ele>
        <time>2021-02-28T10:23:36.825Z</time>
      </trkpt>
      <trkpt lat="45.79892" lon="5.29926">
        <ele>211</ele>
        <time>2021-02-28T10:23:37.825Z</time>
      </trkpt>
      <trkpt lat="45.79892" lon="5.29933">
        <ele>211</ele>
        <time>2021-02-28T10:23:38.825Z</time>
      </trkpt>
      <trkpt lat="45.79892" lon="5.2994">
        <ele>211</ele>
        <time>2021-02-28T10:23:39.825Z</time>
      </trkpt>
      <trkpt lat="45.79892" lon="5.29948">
        <ele>211</ele>
        <time>2021-02-28T10:23:40.825Z</time>
      </trkpt>
      <trkpt lat="45.79891" lon="5.29955">
        <ele>211</ele>
        <time>2021-02-28T10:23:41.825Z</time>
      </trkpt>
      <trkpt lat="45.7989" lon="5.29962">
        <ele>212</ele>
        <time>2021-02-28T10:23:42.825Z</time>
      </trkpt>
      <trkpt lat="45.79889" lon="5.2997">
        <ele>212</ele>
        <time>2021-02-28T10:23:43.825Z</time>
      </trkpt>
      <trkpt lat="45.79889" lon="5.29976">
        <ele>212</ele>
        <time>2021-02-28T10:23:44.825Z</time>
      </trkpt>
      <trkpt lat="45.79887" lon="5.29982">
        <ele>212</ele>
        <time>2021-02-28T10:23:45.825Z</time>
      </trkpt>
      <trkpt lat="45.79886" lon="5.29989">
        <ele>212</ele>
        <time>2021-02-28T10:23:46.825Z</time>
      </trkpt>
      <trkpt lat="45.79883" lon="5.29994">
        <ele>213</ele>
        <time>2021-02-28T10:23:47.825Z</time>
      </trkpt>
      <trkpt lat="45.7988" lon="5.29999">
        <ele>213</ele>
        <time>2021-02-28T10:23:48.825Z</time>
      </trkpt>
      <trkpt lat="45.79877" lon="5.30004">
        <ele>213</ele>
        <time>2021-02-28T10:23:49.825Z</time>
      </trkpt>
      <trkpt lat="45.79874" lon="5.30008">
        <ele>213</ele>
        <time>2021-02-28T10:23:50.826Z</time>
      </trkpt>
      <trkpt lat="45.79871" lon="5.30011">
        <ele>212</ele>
        <time>2021-02-28T10:23:51.826Z</time>
      </trkpt>
      <trkpt lat="45.79868" lon="5.30014">
        <ele>213</ele>
        <time>2021-02-28T10:23:52.825Z</time>
      </trkpt>
      <trkpt lat="45.79864" lon="5.30017">
        <ele>213</ele>
        <time>2021-02-28T10:23:53.825Z</time>
      </trkpt>
      <trkpt lat="45.79862" lon="5.3002">
        <ele>213</ele>
        <time>2021-02-28T10:23:54.825Z</time>
      </trkpt>
      <trkpt lat="45.79859" lon="5.30023">
        <ele>214</ele>
        <time>2021-02-28T10:23:55.825Z</time>
      </trkpt>
      <trkpt lat="45.79856" lon="5.30026">
        <ele>214</ele>
        <time>2021-02-28T10:23:56.825Z</time>
      </trkpt>
      <trkpt lat="45.79854" lon="5.30028">
        <ele>215</ele>
        <time>2021-02-28T10:23:57.825Z</time>
      </trkpt>
      <trkpt lat="45.79852" lon="5.30031">
        <ele>215</ele>
        <time>2021-02-28T10:23:58.825Z</time>
      </trkpt>
      <trkpt lat="45.79849" lon="5.30033">
        <ele>216</ele>
        <time>2021-02-28T10:23:59.825Z</time>
      </trkpt>
      <trkpt lat="45.79847" lon="5.30035">
        <ele>215</ele>
        <time>2021-02-28T10:24:00.825Z</time>
      </trkpt>
      <trkpt lat="45.79844" lon="5.30038">
        <ele>215</ele>
        <time>2021-02-28T10:24:01.825Z</time>
      </trkpt>
      <trkpt lat="45.79841" lon="5.30041">
        <ele>215</ele>
        <time>2021-02-28T10:24:02.825Z</time>
      </trkpt>
      <trkpt lat="45.79838" lon="5.30045">
        <ele>215</ele>
        <time>2021-02-28T10:24:03.825Z</time>
      </trkpt>
      <trkpt lat="45.79835" lon="5.30048">
        <ele>214</ele>
        <time>2021-02-28T10:24:04.825Z</time>
      </trkpt>
      <trkpt lat="45.79831" lon="5.30052">
        <ele>214</ele>
        <time>2021-02-28T10:24:05.825Z</time>
      </trkpt>
      <trkpt lat="45.79827" lon="5.30056">
        <ele>213</ele>
        <time>2021-02-28T10:24:06.825Z</time>
      </trkpt>
      <trkpt lat="45.79824" lon="5.3006">
        <ele>213</ele>
        <time>2021-02-28T10:24:07.825Z</time>
      </trkpt>
      <trkpt lat="45.7982" lon="5.30064">
        <ele>212</ele>
        <time>2021-02-28T10:24:08.825Z</time>
      </trkpt>
      <trkpt lat="45.79815" lon="5.30069">
        <ele>211</ele>
        <time>2021-02-28T10:24:09.825Z</time>
      </trkpt>
      <trkpt lat="45.79812" lon="5.30073">
        <ele>211</ele>
        <time>2021-02-28T10:24:10.825Z</time>
      </trkpt>
      <trkpt lat="45.79808" lon="5.30077">
        <ele>211</ele>
        <time>2021-02-28T10:24:11.825Z</time>
      </trkpt>
      <trkpt lat="45.79805" lon="5.30081">
        <ele>211</ele>
        <time>2021-02-28T10:24:12.825Z</time>
      </trkpt>
      <trkpt lat="45.79801" lon="5.30085">
        <ele>211</ele>
        <time>2021-02-28T10:24:13.825Z</time>
      </trkpt>
      <trkpt lat="45.79798" lon="5.3009">
        <ele>212</ele>
        <time>2021-02-28T10:24:14.825Z</time>
      </trkpt>
      <trkpt lat="45.79796" lon="5.30094">
        <ele>212</ele>
        <time>2021-02-28T10:24:15.825Z</time>
      </trkpt>
      <trkpt lat="45.79793" lon="5.30098">
        <ele>212</ele>
        <time>2021-02-28T10:24:16.825Z</time>
      </trkpt>
      <trkpt lat="45.79791" lon="5.30103">
        <ele>212</ele>
        <time>2021-02-28T10:24:17.825Z</time>
      </trkpt>
      <trkpt lat="45.79789" lon="5.30107">
        <ele>212</ele>
        <time>2021-02-28T10:24:18.825Z</time>
      </trkpt>
      <trkpt lat="45.79787" lon="5.30111">
        <ele>212</ele>
        <time>2021-02-28T10:24:19.825Z</time>
      </trkpt>
      <trkpt lat="45.79785" lon="5.30114">
        <ele>213</ele>
        <time>2021-02-28T10:24:20.825Z</time>
      </trkpt>
      <trkpt lat="45.79783" lon="5.30118">
        <ele>213</ele>
        <time>2021-02-28T10:24:21.825Z</time>
      </trkpt>
      <trkpt lat="45.79781" lon="5.30123">
        <ele>214</ele>
        <time>2021-02-28T10:24:22.826Z</time>
      </trkpt>
      <trkpt lat="45.79779" lon="5.30127">
        <ele>215</ele>
        <time>2021-02-28T10:24:23.825Z</time>
      </trkpt>
      <trkpt lat="45.79777" lon="5.30131">
        <ele>215</ele>
        <time>2021-02-28T10:24:24.825Z</time>
      </trkpt>
      <trkpt lat="45.79775" lon="5.30136">
        <ele>215</ele>
        <time>2021-02-28T10:24:25.825Z</time>
      </trkpt>
      <trkpt lat="45.79772" lon="5.3014">
        <ele>216</ele>
        <time>2021-02-28T10:24:26.825Z</time>
      </trkpt>
      <trkpt lat="45.7977" lon="5.30145">
        <ele>216</ele>
        <time>2021-02-28T10:24:27.825Z</time>
      </trkpt>
      <trkpt lat="45.79768" lon="5.3015">
        <ele>216</ele>
        <time>2021-02-28T10:24:28.825Z</time>
      </trkpt>
      <trkpt lat="45.79766" lon="5.30155">
        <ele>217</ele>
        <time>2021-02-28T10:24:29.826Z</time>
      </trkpt>
      <trkpt lat="45.79764" lon="5.3016">
        <ele>217</ele>
        <time>2021-02-28T10:24:30.825Z</time>
      </trkpt>
      <trkpt lat="45.79762" lon="5.30164">
        <ele>218</ele>
        <time>2021-02-28T10:24:31.825Z</time>
      </trkpt>
      <trkpt lat="45.79761" lon="5.30169">
        <ele>218</ele>
        <time>2021-02-28T10:24:32.825Z</time>
      </trkpt>
      <trkpt lat="45.79759" lon="5.30174">
        <ele>219</ele>
        <time>2021-02-28T10:24:33.825Z</time>
      </trkpt>
      <trkpt lat="45.79758" lon="5.3018">
        <ele>219</ele>
        <time>2021-02-28T10:24:34.825Z</time>
      </trkpt>
      <trkpt lat="45.79756" lon="5.30186">
        <ele>220</ele>
        <time>2021-02-28T10:24:35.825Z</time>
      </trkpt>
      <trkpt lat="45.79754" lon="5.30191">
        <ele>220</ele>
        <time>2021-02-28T10:24:36.825Z</time>
      </trkpt>
      <trkpt lat="45.79752" lon="5.30198">
        <ele>220</ele>
        <time>2021-02-28T10:24:37.825Z</time>
      </trkpt>
      <trkpt lat="45.7975" lon="5.30204">
        <ele>220</ele>
        <time>2021-02-28T10:24:38.826Z</time>
      </trkpt>
      <trkpt lat="45.79749" lon="5.30208">
        <ele>220</ele>
        <time>2021-02-28T10:24:39.825Z</time>
      </trkpt>
      <trkpt lat="45.79747" lon="5.30213">
        <ele>220</ele>
        <time>2021-02-28T10:24:40.825Z</time>
      </trkpt>
      <trkpt lat="45.79745" lon="5.3022">
        <ele>219</ele>
        <time>2021-02-28T10:24:41.825Z</time>
      </trkpt>
      <trkpt lat="45.79744" lon="5.30226">
        <ele>220</ele>
        <time>2021-02-28T10:24:42.825Z</time>
      </trkpt>
      <trkpt lat="45.79742" lon="5.30232">
        <ele>220</ele>
        <time>2021-02-28T10:24:43.825Z</time>
      </trkpt>
      <trkpt lat="45.79741" lon="5.30237">
        <ele>220</ele>
        <time>2021-02-28T10:24:44.825Z</time>
      </trkpt>
      <trkpt lat="45.7974" lon="5.30243">
        <ele>220</ele>
        <time>2021-02-28T10:24:45.825Z</time>
      </trkpt>
      <trkpt lat="45.79738" lon="5.3025">
        <ele>220</ele>
        <time>2021-02-28T10:24:46.826Z</time>
      </trkpt>
      <trkpt lat="45.79736" lon="5.30255">
        <ele>220</ele>
        <time>2021-02-28T10:24:47.825Z</time>
      </trkpt>
      <trkpt lat="45.79734" lon="5.3026">
        <ele>220</ele>
        <time>2021-02-28T10:24:48.825Z</time>
      </trkpt>
      <trkpt lat="45.79732" lon="5.30266">
        <ele>219</ele>
        <time>2021-02-28T10:24:49.825Z</time>
      </trkpt>
      <trkpt lat="45.79732" lon="5.30266">
        <ele>219</ele>
        <time>2021-02-28T10:24:50.825Z</time>
      </trkpt>
      <trkpt lat="45.79727" lon="5.3028">
        <ele>218</ele>
        <time>2021-02-28T10:24:51.825Z</time>
      </trkpt>
      <trkpt lat="45.79725" lon="5.30287">
        <ele>218</ele>
        <time>2021-02-28T10:24:52.825Z</time>
      </trkpt>
      <trkpt lat="45.79723" lon="5.30292">
        <ele>218</ele>
        <time>2021-02-28T10:24:53.826Z</time>
      </trkpt>
      <trkpt lat="45.7972" lon="5.30299">
        <ele>217</ele>
        <time>2021-02-28T10:24:54.825Z</time>
      </trkpt>
      <trkpt lat="45.79717" lon="5.30305">
        <ele>217</ele>
        <time>2021-02-28T10:24:55.825Z</time>
      </trkpt>
      <trkpt lat="45.79714" lon="5.30312">
        <ele>216</ele>
        <time>2021-02-28T10:24:56.825Z</time>
      </trkpt>
      <trkpt lat="45.79711" lon="5.30317">
        <ele>216</ele>
        <time>2021-02-28T10:24:57.825Z</time>
      </trkpt>
      <trkpt lat="45.79708" lon="5.30322">
        <ele>215</ele>
        <time>2021-02-28T10:24:58.825Z</time>
      </trkpt>
      <trkpt lat="45.79704" lon="5.30328">
        <ele>215</ele>
        <time>2021-02-28T10:24:59.825Z</time>
      </trkpt>
      <trkpt lat="45.797" lon="5.30336">
        <ele>215</ele>
        <time>2021-02-28T10:25:00.825Z</time>
      </trkpt>
      <trkpt lat="45.79697" lon="5.3034">
        <ele>216</ele>
        <time>2021-02-28T10:25:01.826Z</time>
      </trkpt>
      <trkpt lat="45.79693" lon="5.30346">
        <ele>216</ele>
        <time>2021-02-28T10:25:02.826Z</time>
      </trkpt>
      <trkpt lat="45.7969" lon="5.30351">
        <ele>216</ele>
        <time>2021-02-28T10:25:03.825Z</time>
      </trkpt>
      <trkpt lat="45.7969" lon="5.30351">
        <ele>216</ele>
        <time>2021-02-28T10:25:04.825Z</time>
      </trkpt>
      <trkpt lat="45.79681" lon="5.30363">
        <ele>217</ele>
        <time>2021-02-28T10:25:05.825Z</time>
      </trkpt>
      <trkpt lat="45.79676" lon="5.30369">
        <ele>217</ele>
        <time>2021-02-28T10:25:06.825Z</time>
      </trkpt>
      <trkpt lat="45.79673" lon="5.30373">
        <ele>217</ele>
        <time>2021-02-28T10:25:07.825Z</time>
      </trkpt>
      <trkpt lat="45.79668" lon="5.30377">
        <ele>217</ele>
        <time>2021-02-28T10:25:08.826Z</time>
      </trkpt>
      <trkpt lat="45.79664" lon="5.30382">
        <ele>217</ele>
        <time>2021-02-28T10:25:09.825Z</time>
      </trkpt>
      <trkpt lat="45.79659" lon="5.30386">
        <ele>217</ele>
        <time>2021-02-28T10:25:10.825Z</time>
      </trkpt>
      <trkpt lat="45.79654" lon="5.30389">
        <ele>217</ele>
        <time>2021-02-28T10:25:11.826Z</time>
      </trkpt>
      <trkpt lat="45.79649" lon="5.30393">
        <ele>218</ele>
        <time>2021-02-28T10:25:12.825Z</time>
      </trkpt>
      <trkpt lat="45.79644" lon="5.30396">
        <ele>218</ele>
        <time>2021-02-28T10:25:13.825Z</time>
      </trkpt>
      <trkpt lat="45.79639" lon="5.30399">
        <ele>219</ele>
        <time>2021-02-28T10:25:14.826Z</time>
      </trkpt>
      <trkpt lat="45.79634" lon="5.30402">
        <ele>219</ele>
        <time>2021-02-28T10:25:15.825Z</time>
      </trkpt>
      <trkpt lat="45.79629" lon="5.30404">
        <ele>220</ele>
        <time>2021-02-28T10:25:16.825Z</time>
      </trkpt>
      <trkpt lat="45.79623" lon="5.30406">
        <ele>220</ele>
        <time>2021-02-28T10:25:17.825Z</time>
      </trkpt>
      <trkpt lat="45.79618" lon="5.30408">
        <ele>220</ele>
        <time>2021-02-28T10:25:18.825Z</time>
      </trkpt>
      <trkpt lat="45.79613" lon="5.3041">
        <ele>220</ele>
        <time>2021-02-28T10:25:19.825Z</time>
      </trkpt>
      <trkpt lat="45.79608" lon="5.30411">
        <ele>220</ele>
        <time>2021-02-28T10:25:20.825Z</time>
      </trkpt>
      <trkpt lat="45.79602" lon="5.30413">
        <ele>220</ele>
        <time>2021-02-28T10:25:21.825Z</time>
      </trkpt>
      <trkpt lat="45.79597" lon="5.30414">
        <ele>221</ele>
        <time>2021-02-28T10:25:22.825Z</time>
      </trkpt>
      <trkpt lat="45.79591" lon="5.30415">
        <ele>221</ele>
        <time>2021-02-28T10:25:23.825Z</time>
      </trkpt>
      <trkpt lat="45.79585" lon="5.30417">
        <ele>222</ele>
        <time>2021-02-28T10:25:24.825Z</time>
      </trkpt>
      <trkpt lat="45.79579" lon="5.30419">
        <ele>222</ele>
        <time>2021-02-28T10:25:25.825Z</time>
      </trkpt>
      <trkpt lat="45.79579" lon="5.30419">
        <ele>222</ele>
        <time>2021-02-28T10:25:26.826Z</time>
      </trkpt>
      <trkpt lat="45.79575" lon="5.30421">
        <ele>222</ele>
        <time>2021-02-28T10:25:27.825Z</time>
      </trkpt>
      <trkpt lat="45.79563" lon="5.30424">
        <ele>221</ele>
        <time>2021-02-28T10:25:28.826Z</time>
      </trkpt>
      <trkpt lat="45.79558" lon="5.30427">
        <ele>221</ele>
        <time>2021-02-28T10:25:29.826Z</time>
      </trkpt>
      <trkpt lat="45.79552" lon="5.30429">
        <ele>221</ele>
        <time>2021-02-28T10:25:30.826Z</time>
      </trkpt>
      <trkpt lat="45.79547" lon="5.30433">
        <ele>221</ele>
        <time>2021-02-28T10:25:31.825Z</time>
      </trkpt>
      <trkpt lat="45.79543" lon="5.30436">
        <ele>221</ele>
        <time>2021-02-28T10:25:32.825Z</time>
      </trkpt>
      <trkpt lat="45.79538" lon="5.3044">
        <ele>222</ele>
        <time>2021-02-28T10:25:33.825Z</time>
      </trkpt>
      <trkpt lat="45.79538" lon="5.3044">
        <ele>222</ele>
        <time>2021-02-28T10:25:34.825Z</time>
      </trkpt>
      <trkpt lat="45.79529" lon="5.30447">
        <ele>221</ele>
        <time>2021-02-28T10:25:35.826Z</time>
      </trkpt>
      <trkpt lat="45.79529" lon="5.30447">
        <ele>221</ele>
        <time>2021-02-28T10:25:36.825Z</time>
      </trkpt>
      <trkpt lat="45.79519" lon="5.30453">
        <ele>220</ele>
        <time>2021-02-28T10:25:37.825Z</time>
      </trkpt>
      <trkpt lat="45.79515" lon="5.30456">
        <ele>220</ele>
        <time>2021-02-28T10:25:38.826Z</time>
      </trkpt>
      <trkpt lat="45.7951" lon="5.3046">
        <ele>220</ele>
        <time>2021-02-28T10:25:39.825Z</time>
      </trkpt>
      <trkpt lat="45.79507" lon="5.30463">
        <ele>220</ele>
        <time>2021-02-28T10:25:40.825Z</time>
      </trkpt>
      <trkpt lat="45.79502" lon="5.30466">
        <ele>221</ele>
        <time>2021-02-28T10:25:41.825Z</time>
      </trkpt>
      <trkpt lat="45.79497" lon="5.3047">
        <ele>221</ele>
        <time>2021-02-28T10:25:42.825Z</time>
      </trkpt>
      <trkpt lat="45.79494" lon="5.30472">
        <ele>221</ele>
        <time>2021-02-28T10:25:43.825Z</time>
      </trkpt>
      <trkpt lat="45.79494" lon="5.30472">
        <ele>221</ele>
        <time>2021-02-28T10:25:44.825Z</time>
      </trkpt>
      <trkpt lat="45.79488" lon="5.30475">
        <ele>222</ele>
        <time>2021-02-28T10:25:45.826Z</time>
      </trkpt>
      <trkpt lat="45.79485" lon="5.30478">
        <ele>222</ele>
        <time>2021-02-28T10:25:46.825Z</time>
      </trkpt>
      <trkpt lat="45.79476" lon="5.30484">
        <ele>222</ele>
        <time>2021-02-28T10:25:47.825Z</time>
      </trkpt>
      <trkpt lat="45.79476" lon="5.30484">
        <ele>222</ele>
        <time>2021-02-28T10:25:48.825Z</time>
      </trkpt>
      <trkpt lat="45.79468" lon="5.3049">
        <ele>223</ele>
        <time>2021-02-28T10:25:49.825Z</time>
      </trkpt>
      <trkpt lat="45.79464" lon="5.30492">
        <ele>222</ele>
        <time>2021-02-28T10:25:50.825Z</time>
      </trkpt>
      <trkpt lat="45.7946" lon="5.30495">
        <ele>222</ele>
        <time>2021-02-28T10:25:51.825Z</time>
      </trkpt>
      <trkpt lat="45.7946" lon="5.30495">
        <ele>222</ele>
        <time>2021-02-28T10:25:52.826Z</time>
      </trkpt>
      <trkpt lat="45.79451" lon="5.30501">
        <ele>221</ele>
        <time>2021-02-28T10:25:53.825Z</time>
      </trkpt>
      <trkpt lat="45.79447" lon="5.30504">
        <ele>221</ele>
        <time>2021-02-28T10:25:54.825Z</time>
      </trkpt>
      <trkpt lat="45.79447" lon="5.30504">
        <ele>221</ele>
        <time>2021-02-28T10:25:55.825Z</time>
      </trkpt>
      <trkpt lat="45.79439" lon="5.30508">
        <ele>221</ele>
        <time>2021-02-28T10:25:56.825Z</time>
      </trkpt>
      <trkpt lat="45.79434" lon="5.3051">
        <ele>221</ele>
        <time>2021-02-28T10:25:57.825Z</time>
      </trkpt>
      <trkpt lat="45.7943" lon="5.30513">
        <ele>221</ele>
        <time>2021-02-28T10:25:58.825Z</time>
      </trkpt>
      <trkpt lat="45.79426" lon="5.30514">
        <ele>221</ele>
        <time>2021-02-28T10:25:59.825Z</time>
      </trkpt>
      <trkpt lat="45.79422" lon="5.30517">
        <ele>220</ele>
        <time>2021-02-28T10:26:00.825Z</time>
      </trkpt>
      <trkpt lat="45.79417" lon="5.30519">
        <ele>220</ele>
        <time>2021-02-28T10:26:01.825Z</time>
      </trkpt>
      <trkpt lat="45.79411" lon="5.30522">
        <ele>220</ele>
        <time>2021-02-28T10:26:02.825Z</time>
      </trkpt>
      <trkpt lat="45.79407" lon="5.30525">
        <ele>220</ele>
        <time>2021-02-28T10:26:03.825Z</time>
      </trkpt>
      <trkpt lat="45.79402" lon="5.30527">
        <ele>220</ele>
        <time>2021-02-28T10:26:04.825Z</time>
      </trkpt>
      <trkpt lat="45.79399" lon="5.3053">
        <ele>220</ele>
        <time>2021-02-28T10:26:05.825Z</time>
      </trkpt>
      <trkpt lat="45.79399" lon="5.3053">
        <ele>220</ele>
        <time>2021-02-28T10:26:06.825Z</time>
      </trkpt>
      <trkpt lat="45.79394" lon="5.30532">
        <ele>220</ele>
        <time>2021-02-28T10:26:07.825Z</time>
      </trkpt>
      <trkpt lat="45.79384" lon="5.30539">
        <ele>221</ele>
        <time>2021-02-28T10:26:08.825Z</time>
      </trkpt>
      <trkpt lat="45.79379" lon="5.30542">
        <ele>221</ele>
        <time>2021-02-28T10:26:09.825Z</time>
      </trkpt>
      <trkpt lat="45.79375" lon="5.30544">
        <ele>222</ele>
        <time>2021-02-28T10:26:10.825Z</time>
      </trkpt>
      <trkpt lat="45.7937" lon="5.30548">
        <ele>222</ele>
        <time>2021-02-28T10:26:11.825Z</time>
      </trkpt>
      <trkpt lat="45.79365" lon="5.30552">
        <ele>222</ele>
        <time>2021-02-28T10:26:12.825Z</time>
      </trkpt>
      <trkpt lat="45.7936" lon="5.30556">
        <ele>222</ele>
        <time>2021-02-28T10:26:13.825Z</time>
      </trkpt>
      <trkpt lat="45.79355" lon="5.30559">
        <ele>221</ele>
        <time>2021-02-28T10:26:14.825Z</time>
      </trkpt>
      <trkpt lat="45.79352" lon="5.30562">
        <ele>221</ele>
        <time>2021-02-28T10:26:15.825Z</time>
      </trkpt>
      <trkpt lat="45.79346" lon="5.30567">
        <ele>220</ele>
        <time>2021-02-28T10:26:16.825Z</time>
      </trkpt>
      <trkpt lat="45.79342" lon="5.3057">
        <ele>220</ele>
        <time>2021-02-28T10:26:17.825Z</time>
      </trkpt>
      <trkpt lat="45.79342" lon="5.3057">
        <ele>220</ele>
        <time>2021-02-28T10:26:18.825Z</time>
      </trkpt>
      <trkpt lat="45.79333" lon="5.30577">
        <ele>220</ele>
        <time>2021-02-28T10:26:19.825Z</time>
      </trkpt>
      <trkpt lat="45.79329" lon="5.30581">
        <ele>220</ele>
        <time>2021-02-28T10:26:20.825Z</time>
      </trkpt>
      <trkpt lat="45.79325" lon="5.30585">
        <ele>220</ele>
        <time>2021-02-28T10:26:21.826Z</time>
      </trkpt>
      <trkpt lat="45.7932" lon="5.30589">
        <ele>220</ele>
        <time>2021-02-28T10:26:22.825Z</time>
      </trkpt>
      <trkpt lat="45.7932" lon="5.30589">
        <ele>220</ele>
        <time>2021-02-28T10:26:23.826Z</time>
      </trkpt>
      <trkpt lat="45.79312" lon="5.30596">
        <ele>220</ele>
        <time>2021-02-28T10:26:24.825Z</time>
      </trkpt>
      <trkpt lat="45.79307" lon="5.306">
        <ele>220</ele>
        <time>2021-02-28T10:26:25.825Z</time>
      </trkpt>
      <trkpt lat="45.79303" lon="5.30603">
        <ele>220</ele>
        <time>2021-02-28T10:26:26.825Z</time>
      </trkpt>
      <trkpt lat="45.793" lon="5.30607">
        <ele>220</ele>
        <time>2021-02-28T10:26:27.825Z</time>
      </trkpt>
      <trkpt lat="45.793" lon="5.30607">
        <ele>220</ele>
        <time>2021-02-28T10:26:28.826Z</time>
      </trkpt>
      <trkpt lat="45.79292" lon="5.30614">
        <ele>220</ele>
        <time>2021-02-28T10:26:29.825Z</time>
      </trkpt>
      <trkpt lat="45.79288" lon="5.30616">
        <ele>220</ele>
        <time>2021-02-28T10:26:30.825Z</time>
      </trkpt>
      <trkpt lat="45.79283" lon="5.3062">
        <ele>220</ele>
        <time>2021-02-28T10:26:31.825Z</time>
      </trkpt>
      <trkpt lat="45.79279" lon="5.30624">
        <ele>221</ele>
        <time>2021-02-28T10:26:32.826Z</time>
      </trkpt>
      <trkpt lat="45.79275" lon="5.30628">
        <ele>221</ele>
        <time>2021-02-28T10:26:33.825Z</time>
      </trkpt>
      <trkpt lat="45.79271" lon="5.30633">
        <ele>222</ele>
        <time>2021-02-28T10:26:34.825Z</time>
      </trkpt>
      <trkpt lat="45.79267" lon="5.30637">
        <ele>222</ele>
        <time>2021-02-28T10:26:35.825Z</time>
      </trkpt>
      <trkpt lat="45.79263" lon="5.30641">
        <ele>222</ele>
        <time>2021-02-28T10:26:36.826Z</time>
      </trkpt>
      <trkpt lat="45.79263" lon="5.30641">
        <ele>222</ele>
        <time>2021-02-28T10:26:37.825Z</time>
      </trkpt>
      <trkpt lat="45.79255" lon="5.30649">
        <ele>222</ele>
        <time>2021-02-28T10:26:38.825Z</time>
      </trkpt>
      <trkpt lat="45.79255" lon="5.30649">
        <ele>222</ele>
        <time>2021-02-28T10:26:39.825Z</time>
      </trkpt>
      <trkpt lat="45.79247" lon="5.30658">
        <ele>222</ele>
        <time>2021-02-28T10:26:40.825Z</time>
      </trkpt>
      <trkpt lat="45.79247" lon="5.30658">
        <ele>222</ele>
        <time>2021-02-28T10:26:41.825Z</time>
      </trkpt>
      <trkpt lat="45.79238" lon="5.30667">
        <ele>223</ele>
        <time>2021-02-28T10:26:42.825Z</time>
      </trkpt>
      <trkpt lat="45.79234" lon="5.30671">
        <ele>223</ele>
        <time>2021-02-28T10:26:43.825Z</time>
      </trkpt>
      <trkpt lat="45.7923" lon="5.30676">
        <ele>223</ele>
        <time>2021-02-28T10:26:44.825Z</time>
      </trkpt>
      <trkpt lat="45.79226" lon="5.3068">
        <ele>223</ele>
        <time>2021-02-28T10:26:45.825Z</time>
      </trkpt>
      <trkpt lat="45.79226" lon="5.3068">
        <ele>223</ele>
        <time>2021-02-28T10:26:46.825Z</time>
      </trkpt>
      <trkpt lat="45.79222" lon="5.30685">
        <ele>224</ele>
        <time>2021-02-28T10:26:47.825Z</time>
      </trkpt>
      <trkpt lat="45.79213" lon="5.30695">
        <ele>224</ele>
        <time>2021-02-28T10:26:48.825Z</time>
      </trkpt>
      <trkpt lat="45.79209" lon="5.307">
        <ele>223</ele>
        <time>2021-02-28T10:26:49.825Z</time>
      </trkpt>
      <trkpt lat="45.79204" lon="5.30706">
        <ele>223</ele>
        <time>2021-02-28T10:26:50.825Z</time>
      </trkpt>
      <trkpt lat="45.792" lon="5.30711">
        <ele>224</ele>
        <time>2021-02-28T10:26:51.825Z</time>
      </trkpt>
      <trkpt lat="45.79197" lon="5.30715">
        <ele>224</ele>
        <time>2021-02-28T10:26:52.825Z</time>
      </trkpt>
      <trkpt lat="45.79193" lon="5.3072">
        <ele>224</ele>
        <time>2021-02-28T10:26:53.825Z</time>
      </trkpt>
      <trkpt lat="45.79193" lon="5.3072">
        <ele>224</ele>
        <time>2021-02-28T10:26:54.825Z</time>
      </trkpt>
      <trkpt lat="45.79186" lon="5.30731">
        <ele>223</ele>
        <time>2021-02-28T10:26:55.825Z</time>
      </trkpt>
      <trkpt lat="45.79183" lon="5.30735">
        <ele>223</ele>
        <time>2021-02-28T10:26:56.825Z</time>
      </trkpt>
      <trkpt lat="45.79179" lon="5.30742">
        <ele>222</ele>
        <time>2021-02-28T10:26:57.825Z</time>
      </trkpt>
      <trkpt lat="45.79179" lon="5.30742">
        <ele>222</ele>
        <time>2021-02-28T10:26:58.825Z</time>
      </trkpt>
      <trkpt lat="45.79174" lon="5.30751">
        <ele>221</ele>
        <time>2021-02-28T10:26:59.825Z</time>
      </trkpt>
      <trkpt lat="45.7917" lon="5.30757">
        <ele>221</ele>
        <time>2021-02-28T10:27:00.825Z</time>
      </trkpt>
      <trkpt lat="45.7917" lon="5.30757">
        <ele>221</ele>
        <time>2021-02-28T10:27:01.825Z</time>
      </trkpt>
      <trkpt lat="45.79163" lon="5.30767">
        <ele>221</ele>
        <time>2021-02-28T10:27:02.825Z</time>
      </trkpt>
      <trkpt lat="45.7916" lon="5.3077">
        <ele>222</ele>
        <time>2021-02-28T10:27:03.825Z</time>
      </trkpt>
      <trkpt lat="45.79156" lon="5.30775">
        <ele>222</ele>
        <time>2021-02-28T10:27:04.825Z</time>
      </trkpt>
      <trkpt lat="45.79151" lon="5.3078">
        <ele>223</ele>
        <time>2021-02-28T10:27:05.826Z</time>
      </trkpt>
      <trkpt lat="45.79151" lon="5.3078">
        <ele>223</ele>
        <time>2021-02-28T10:27:06.825Z</time>
      </trkpt>
      <trkpt lat="45.79144" lon="5.30788">
        <ele>223</ele>
        <time>2021-02-28T10:27:07.825Z</time>
      </trkpt>
      <trkpt lat="45.7914" lon="5.30792">
        <ele>224</ele>
        <time>2021-02-28T10:27:08.825Z</time>
      </trkpt>
      <trkpt lat="45.79136" lon="5.30796">
        <ele>224</ele>
        <time>2021-02-28T10:27:09.825Z</time>
      </trkpt>
      <trkpt lat="45.79132" lon="5.308">
        <ele>224</ele>
        <time>2021-02-28T10:27:10.825Z</time>
      </trkpt>
      <trkpt lat="45.79128" lon="5.30803">
        <ele>225</ele>
        <time>2021-02-28T10:27:11.825Z</time>
      </trkpt>
      <trkpt lat="45.79124" lon="5.30806">
        <ele>225</ele>
        <time>2021-02-28T10:27:12.825Z</time>
      </trkpt>
      <trkpt lat="45.79124" lon="5.30806">
        <ele>225</ele>
        <time>2021-02-28T10:27:13.825Z</time>
      </trkpt>
      <trkpt lat="45.79115" lon="5.30811">
        <ele>226</ele>
        <time>2021-02-28T10:27:14.825Z</time>
      </trkpt>
      <trkpt lat="45.79109" lon="5.30814">
        <ele>227</ele>
        <time>2021-02-28T10:27:15.825Z</time>
      </trkpt>
      <trkpt lat="45.79104" lon="5.30816">
        <ele>227</ele>
        <time>2021-02-28T10:27:16.826Z</time>
      </trkpt>
      <trkpt lat="45.79099" lon="5.30818">
        <ele>227</ele>
        <time>2021-02-28T10:27:17.825Z</time>
      </trkpt>
      <trkpt lat="45.79099" lon="5.30818">
        <ele>227</ele>
        <time>2021-02-28T10:27:18.825Z</time>
      </trkpt>
      <trkpt lat="45.79089" lon="5.30822">
        <ele>228</ele>
        <time>2021-02-28T10:27:19.825Z</time>
      </trkpt>
      <trkpt lat="45.79083" lon="5.30822">
        <ele>229</ele>
        <time>2021-02-28T10:27:20.825Z</time>
      </trkpt>
      <trkpt lat="45.79083" lon="5.30822">
        <ele>229</ele>
        <time>2021-02-28T10:27:21.825Z</time>
      </trkpt>
      <trkpt lat="45.79078" lon="5.30823">
        <ele>229</ele>
        <time>2021-02-28T10:27:22.825Z</time>
      </trkpt>
      <trkpt lat="45.79068" lon="5.30823">
        <ele>229</ele>
        <time>2021-02-28T10:27:23.825Z</time>
      </trkpt>
      <trkpt lat="45.79063" lon="5.30823">
        <ele>229</ele>
        <time>2021-02-28T10:27:24.826Z</time>
      </trkpt>
      <trkpt lat="45.79063" lon="5.30823">
        <ele>229</ele>
        <time>2021-02-28T10:27:25.826Z</time>
      </trkpt>
      <trkpt lat="45.79057" lon="5.30822">
        <ele>230</ele>
        <time>2021-02-28T10:27:26.826Z</time>
      </trkpt>
      <trkpt lat="45.79052" lon="5.30821">
        <ele>230</ele>
        <time>2021-02-28T10:27:27.825Z</time>
      </trkpt>
      <trkpt lat="45.79046" lon="5.3082">
        <ele>230</ele>
        <time>2021-02-28T10:27:28.825Z</time>
      </trkpt>
      <trkpt lat="45.79036" lon="5.30818">
        <ele>231</ele>
        <time>2021-02-28T10:27:29.825Z</time>
      </trkpt>
      <trkpt lat="45.79036" lon="5.30818">
        <ele>231</ele>
        <time>2021-02-28T10:27:30.825Z</time>
      </trkpt>
      <trkpt lat="45.79031" lon="5.30816">
        <ele>231</ele>
        <time>2021-02-28T10:27:31.825Z</time>
      </trkpt>
      <trkpt lat="45.79025" lon="5.30814">
        <ele>232</ele>
        <time>2021-02-28T10:27:32.825Z</time>
      </trkpt>
      <trkpt lat="45.79014" lon="5.3081">
        <ele>231</ele>
        <time>2021-02-28T10:27:33.825Z</time>
      </trkpt>
      <trkpt lat="45.79014" lon="5.3081">
        <ele>231</ele>
        <time>2021-02-28T10:27:34.825Z</time>
      </trkpt>
      <trkpt lat="45.79004" lon="5.30806">
        <ele>231</ele>
        <time>2021-02-28T10:27:35.825Z</time>
      </trkpt>
      <trkpt lat="45.79004" lon="5.30806">
        <ele>231</ele>
        <time>2021-02-28T10:27:36.825Z</time>
      </trkpt>
      <trkpt lat="45.78998" lon="5.30803">
        <ele>231</ele>
        <time>2021-02-28T10:27:37.826Z</time>
      </trkpt>
      <trkpt lat="45.78988" lon="5.30798">
        <ele>230</ele>
        <time>2021-02-28T10:27:38.825Z</time>
      </trkpt>
      <trkpt lat="45.78988" lon="5.30798">
        <ele>230</ele>
        <time>2021-02-28T10:27:39.826Z</time>
      </trkpt>
      <trkpt lat="45.78978" lon="5.30793">
        <ele>229</ele>
        <time>2021-02-28T10:27:40.825Z</time>
      </trkpt>
      <trkpt lat="45.78978" lon="5.30793">
        <ele>229</ele>
        <time>2021-02-28T10:27:41.825Z</time>
      </trkpt>
      <trkpt lat="45.78972" lon="5.30791">
        <ele>229</ele>
        <time>2021-02-28T10:27:42.826Z</time>
      </trkpt>
      <trkpt lat="45.78961" lon="5.30786">
        <ele>230</ele>
        <time>2021-02-28T10:27:43.825Z</time>
      </trkpt>
      <trkpt lat="45.78961" lon="5.30786">
        <ele>230</ele>
        <time>2021-02-28T10:27:44.825Z</time>
      </trkpt>
      <trkpt lat="45.78956" lon="5.30783">
        <ele>230</ele>
        <time>2021-02-28T10:27:45.825Z</time>
      </trkpt>
      <trkpt lat="45.7895" lon="5.3078">
        <ele>230</ele>
        <time>2021-02-28T10:27:46.825Z</time>
      </trkpt>
      <trkpt lat="45.78945" lon="5.30778">
        <ele>229</ele>
        <time>2021-02-28T10:27:47.825Z</time>
      </trkpt>
      <trkpt lat="45.78935" lon="5.30772">
        <ele>229</ele>
        <time>2021-02-28T10:27:48.825Z</time>
      </trkpt>
      <trkpt lat="45.78929" lon="5.30769">
        <ele>229</ele>
        <time>2021-02-28T10:27:49.825Z</time>
      </trkpt>
      <trkpt lat="45.78925" lon="5.30767">
        <ele>230</ele>
        <time>2021-02-28T10:27:50.825Z</time>
      </trkpt>
      <trkpt lat="45.78925" lon="5.30767">
        <ele>230</ele>
        <time>2021-02-28T10:27:51.825Z</time>
      </trkpt>
      <trkpt lat="45.7892" lon="5.30765">
        <ele>230</ele>
        <time>2021-02-28T10:27:52.825Z</time>
      </trkpt>
      <trkpt lat="45.78915" lon="5.30762">
        <ele>230</ele>
        <time>2021-02-28T10:27:53.825Z</time>
      </trkpt>
      <trkpt lat="45.78905" lon="5.30756">
        <ele>231</ele>
        <time>2021-02-28T10:27:54.825Z</time>
      </trkpt>
      <trkpt lat="45.78899" lon="5.30753">
        <ele>231</ele>
        <time>2021-02-28T10:27:55.825Z</time>
      </trkpt>
      <trkpt lat="45.78894" lon="5.30751">
        <ele>231</ele>
        <time>2021-02-28T10:27:56.826Z</time>
      </trkpt>
      <trkpt lat="45.78894" lon="5.30751">
        <ele>231</ele>
        <time>2021-02-28T10:27:57.825Z</time>
      </trkpt>
      <trkpt lat="45.78885" lon="5.30748">
        <ele>230</ele>
        <time>2021-02-28T10:27:58.825Z</time>
      </trkpt>
      <trkpt lat="45.78878" lon="5.30747">
        <ele>230</ele>
        <time>2021-02-28T10:27:59.825Z</time>
      </trkpt>
      <trkpt lat="45.78873" lon="5.30747">
        <ele>230</ele>
        <time>2021-02-28T10:28:00.825Z</time>
      </trkpt>
      <trkpt lat="45.78868" lon="5.30747">
        <ele>230</ele>
        <time>2021-02-28T10:28:01.825Z</time>
      </trkpt>
      <trkpt lat="45.78863" lon="5.30748">
        <ele>230</ele>
        <time>2021-02-28T10:28:02.825Z</time>
      </trkpt>
      <trkpt lat="45.78857" lon="5.30749">
        <ele>230</ele>
        <time>2021-02-28T10:28:03.825Z</time>
      </trkpt>
      <trkpt lat="45.78851" lon="5.30752">
        <ele>230</ele>
        <time>2021-02-28T10:28:04.825Z</time>
      </trkpt>
      <trkpt lat="45.78846" lon="5.30754">
        <ele>230</ele>
        <time>2021-02-28T10:28:05.825Z</time>
      </trkpt>
      <trkpt lat="45.78841" lon="5.30756">
        <ele>229</ele>
        <time>2021-02-28T10:28:06.825Z</time>
      </trkpt>
      <trkpt lat="45.78837" lon="5.30757">
        <ele>229</ele>
        <time>2021-02-28T10:28:07.825Z</time>
      </trkpt>
      <trkpt lat="45.78832" lon="5.30759">
        <ele>229</ele>
        <time>2021-02-28T10:28:08.825Z</time>
      </trkpt>
      <trkpt lat="45.78826" lon="5.30762">
        <ele>229</ele>
        <time>2021-02-28T10:28:09.826Z</time>
      </trkpt>
      <trkpt lat="45.78826" lon="5.30762">
        <ele>229</ele>
        <time>2021-02-28T10:28:10.825Z</time>
      </trkpt>
      <trkpt lat="45.78816" lon="5.30767">
        <ele>231</ele>
        <time>2021-02-28T10:28:11.825Z</time>
      </trkpt>
      <trkpt lat="45.78812" lon="5.30768">
        <ele>231</ele>
        <time>2021-02-28T10:28:12.825Z</time>
      </trkpt>
      <trkpt lat="45.78812" lon="5.30768">
        <ele>231</ele>
        <time>2021-02-28T10:28:13.825Z</time>
      </trkpt>
      <trkpt lat="45.78801" lon="5.30771">
        <ele>232</ele>
        <time>2021-02-28T10:28:14.825Z</time>
      </trkpt>
      <trkpt lat="45.78796" lon="5.30773">
        <ele>232</ele>
        <time>2021-02-28T10:28:15.825Z</time>
      </trkpt>
      <trkpt lat="45.78796" lon="5.30773">
        <ele>232</ele>
        <time>2021-02-28T10:28:16.825Z</time>
      </trkpt>
      <trkpt lat="45.78791" lon="5.30775">
        <ele>233</ele>
        <time>2021-02-28T10:28:17.826Z</time>
      </trkpt>
      <trkpt lat="45.78786" lon="5.30776">
        <ele>233</ele>
        <time>2021-02-28T10:28:18.826Z</time>
      </trkpt>
      <trkpt lat="45.78775" lon="5.3078">
        <ele>233</ele>
        <time>2021-02-28T10:28:19.826Z</time>
      </trkpt>
      <trkpt lat="45.78775" lon="5.3078">
        <ele>233</ele>
        <time>2021-02-28T10:28:20.825Z</time>
      </trkpt>
      <trkpt lat="45.78771" lon="5.30782">
        <ele>233</ele>
        <time>2021-02-28T10:28:21.825Z</time>
      </trkpt>
      <trkpt lat="45.78767" lon="5.30783">
        <ele>233</ele>
        <time>2021-02-28T10:28:22.825Z</time>
      </trkpt>
      <trkpt lat="45.78759" lon="5.30787">
        <ele>232</ele>
        <time>2021-02-28T10:28:23.826Z</time>
      </trkpt>
      <trkpt lat="45.78753" lon="5.30789">
        <ele>232</ele>
        <time>2021-02-28T10:28:24.825Z</time>
      </trkpt>
      <trkpt lat="45.78753" lon="5.30789">
        <ele>232</ele>
        <time>2021-02-28T10:28:25.825Z</time>
      </trkpt>
      <trkpt lat="45.78748" lon="5.3079">
        <ele>233</ele>
        <time>2021-02-28T10:28:26.825Z</time>
      </trkpt>
      <trkpt lat="45.78743" lon="5.30792">
        <ele>233</ele>
        <time>2021-02-28T10:28:27.825Z</time>
      </trkpt>
      <trkpt lat="45.78734" lon="5.30794">
        <ele>234</ele>
        <time>2021-02-28T10:28:28.825Z</time>
      </trkpt>
      <trkpt lat="45.78734" lon="5.30794">
        <ele>234</ele>
        <time>2021-02-28T10:28:29.826Z</time>
      </trkpt>
      <trkpt lat="45.78728" lon="5.30796">
        <ele>234</ele>
        <time>2021-02-28T10:28:30.825Z</time>
      </trkpt>
      <trkpt lat="45.7872" lon="5.308">
        <ele>234</ele>
        <time>2021-02-28T10:28:31.825Z</time>
      </trkpt>
      <trkpt lat="45.7872" lon="5.308">
        <ele>234</ele>
        <time>2021-02-28T10:28:32.825Z</time>
      </trkpt>
      <trkpt lat="45.78712" lon="5.30802">
        <ele>235</ele>
        <time>2021-02-28T10:28:33.825Z</time>
      </trkpt>
      <trkpt lat="45.78712" lon="5.30802">
        <ele>235</ele>
        <time>2021-02-28T10:28:34.825Z</time>
      </trkpt>
      <trkpt lat="45.78708" lon="5.30803">
        <ele>235</ele>
        <time>2021-02-28T10:28:35.825Z</time>
      </trkpt>
      <trkpt lat="45.787" lon="5.30804">
        <ele>236</ele>
        <time>2021-02-28T10:28:36.825Z</time>
      </trkpt>
      <trkpt lat="45.78696" lon="5.30805">
        <ele>236</ele>
        <time>2021-02-28T10:28:37.825Z</time>
      </trkpt>
      <trkpt lat="45.78692" lon="5.30805">
        <ele>237</ele>
        <time>2021-02-28T10:28:38.825Z</time>
      </trkpt>
      <trkpt lat="45.78687" lon="5.30806">
        <ele>237</ele>
        <time>2021-02-28T10:28:39.825Z</time>
      </trkpt>
      <trkpt lat="45.78682" lon="5.30806">
        <ele>237</ele>
        <time>2021-02-28T10:28:40.825Z</time>
      </trkpt>
      <trkpt lat="45.78678" lon="5.30806">
        <ele>237</ele>
        <time>2021-02-28T10:28:41.825Z</time>
      </trkpt>
      <trkpt lat="45.78672" lon="5.30806">
        <ele>237</ele>
        <time>2021-02-28T10:28:42.825Z</time>
      </trkpt>
      <trkpt lat="45.78668" lon="5.30806">
        <ele>238</ele>
        <time>2021-02-28T10:28:43.825Z</time>
      </trkpt>
      <trkpt lat="45.78662" lon="5.30805">
        <ele>238</ele>
        <time>2021-02-28T10:28:44.825Z</time>
      </trkpt>
      <trkpt lat="45.78658" lon="5.30804">
        <ele>238</ele>
        <time>2021-02-28T10:28:45.826Z</time>
      </trkpt>
      <trkpt lat="45.78653" lon="5.30802">
        <ele>238</ele>
        <time>2021-02-28T10:28:46.825Z</time>
      </trkpt>
      <trkpt lat="45.78648" lon="5.308">
        <ele>238</ele>
        <time>2021-02-28T10:28:47.825Z</time>
      </trkpt>
      <trkpt lat="45.78643" lon="5.30797">
        <ele>238</ele>
        <time>2021-02-28T10:28:48.825Z</time>
      </trkpt>
      <trkpt lat="45.78639" lon="5.30794">
        <ele>238</ele>
        <time>2021-02-28T10:28:49.825Z</time>
      </trkpt>
      <trkpt lat="45.78634" lon="5.3079">
        <ele>238</ele>
        <time>2021-02-28T10:28:50.825Z</time>
      </trkpt>
      <trkpt lat="45.78629" lon="5.30787">
        <ele>238</ele>
        <time>2021-02-28T10:28:51.825Z</time>
      </trkpt>
      <trkpt lat="45.78629" lon="5.30787">
        <ele>238</ele>
        <time>2021-02-28T10:28:52.825Z</time>
      </trkpt>
      <trkpt lat="45.7862" lon="5.3078">
        <ele>238</ele>
        <time>2021-02-28T10:28:53.825Z</time>
      </trkpt>
      <trkpt lat="45.78616" lon="5.30777">
        <ele>238</ele>
        <time>2021-02-28T10:28:54.825Z</time>
      </trkpt>
      <trkpt lat="45.78611" lon="5.30774">
        <ele>238</ele>
        <time>2021-02-28T10:28:55.825Z</time>
      </trkpt>
      <trkpt lat="45.78607" lon="5.30771">
        <ele>238</ele>
        <time>2021-02-28T10:28:56.825Z</time>
      </trkpt>
      <trkpt lat="45.78602" lon="5.30768">
        <ele>238</ele>
        <time>2021-02-28T10:28:57.825Z</time>
      </trkpt>
      <trkpt lat="45.78602" lon="5.30768">
        <ele>238</ele>
        <time>2021-02-28T10:28:58.825Z</time>
      </trkpt>
      <trkpt lat="45.78598" lon="5.30766">
        <ele>238</ele>
        <time>2021-02-28T10:28:59.826Z</time>
      </trkpt>
      <trkpt lat="45.78589" lon="5.30762">
        <ele>238</ele>
        <time>2021-02-28T10:29:00.826Z</time>
      </trkpt>
      <trkpt lat="45.78589" lon="5.30762">
        <ele>238</ele>
        <time>2021-02-28T10:29:01.825Z</time>
      </trkpt>
      <trkpt lat="45.7858" lon="5.30763">
        <ele>239</ele>
        <time>2021-02-28T10:29:02.825Z</time>
      </trkpt>
      <trkpt lat="45.78576" lon="5.30765">
        <ele>239</ele>
        <time>2021-02-28T10:29:03.825Z</time>
      </trkpt>
      <trkpt lat="45.78571" lon="5.30767">
        <ele>239</ele>
        <time>2021-02-28T10:29:04.826Z</time>
      </trkpt>
      <trkpt lat="45.78571" lon="5.30767">
        <ele>239</ele>
        <time>2021-02-28T10:29:05.825Z</time>
      </trkpt>
      <trkpt lat="45.78567" lon="5.30769">
        <ele>239</ele>
        <time>2021-02-28T10:29:06.825Z</time>
      </trkpt>
      <trkpt lat="45.78563" lon="5.30772">
        <ele>240</ele>
        <time>2021-02-28T10:29:07.826Z</time>
      </trkpt>
      <trkpt lat="45.7856" lon="5.30776">
        <ele>240</ele>
        <time>2021-02-28T10:29:08.825Z</time>
      </trkpt>
      <trkpt lat="45.78553" lon="5.30783">
        <ele>240</ele>
        <time>2021-02-28T10:29:09.825Z</time>
      </trkpt>
      <trkpt lat="45.78553" lon="5.30783">
        <ele>240</ele>
        <time>2021-02-28T10:29:10.825Z</time>
      </trkpt>
      <trkpt lat="45.78546" lon="5.30793">
        <ele>241</ele>
        <time>2021-02-28T10:29:11.825Z</time>
      </trkpt>
      <trkpt lat="45.78543" lon="5.30798">
        <ele>241</ele>
        <time>2021-02-28T10:29:12.825Z</time>
      </trkpt>
      <trkpt lat="45.7854" lon="5.30804">
        <ele>241</ele>
        <time>2021-02-28T10:29:13.825Z</time>
      </trkpt>
      <trkpt lat="45.7854" lon="5.30804">
        <ele>241</ele>
        <time>2021-02-28T10:29:14.825Z</time>
      </trkpt>
      <trkpt lat="45.78538" lon="5.3081">
        <ele>241</ele>
        <time>2021-02-28T10:29:15.825Z</time>
      </trkpt>
      <trkpt lat="45.78532" lon="5.30819">
        <ele>240</ele>
        <time>2021-02-28T10:29:16.826Z</time>
      </trkpt>
      <trkpt lat="45.78532" lon="5.30819">
        <ele>240</ele>
        <time>2021-02-28T10:29:17.825Z</time>
      </trkpt>
      <trkpt lat="45.78528" lon="5.30824">
        <ele>240</ele>
        <time>2021-02-28T10:29:18.825Z</time>
      </trkpt>
      <trkpt lat="45.78524" lon="5.30829">
        <ele>240</ele>
        <time>2021-02-28T10:29:19.826Z</time>
      </trkpt>
      <trkpt lat="45.7852" lon="5.30833">
        <ele>240</ele>
        <time>2021-02-28T10:29:20.825Z</time>
      </trkpt>
      <trkpt lat="45.78512" lon="5.3084">
        <ele>241</ele>
        <time>2021-02-28T10:29:21.826Z</time>
      </trkpt>
      <trkpt lat="45.78512" lon="5.3084">
        <ele>241</ele>
        <time>2021-02-28T10:29:22.826Z</time>
      </trkpt>
      <trkpt lat="45.78507" lon="5.30843">
        <ele>242</ele>
        <time>2021-02-28T10:29:23.825Z</time>
      </trkpt>
      <trkpt lat="45.78503" lon="5.30846">
        <ele>243</ele>
        <time>2021-02-28T10:29:24.825Z</time>
      </trkpt>
      <trkpt lat="45.78494" lon="5.3085">
        <ele>245</ele>
        <time>2021-02-28T10:29:25.825Z</time>
      </trkpt>
      <trkpt lat="45.78494" lon="5.3085">
        <ele>245</ele>
        <time>2021-02-28T10:29:26.825Z</time>
      </trkpt>
      <trkpt lat="45.78485" lon="5.30852">
        <ele>247</ele>
        <time>2021-02-28T10:29:27.825Z</time>
      </trkpt>
      <trkpt lat="45.78485" lon="5.30852">
        <ele>247</ele>
        <time>2021-02-28T10:29:28.825Z</time>
      </trkpt>
      <trkpt lat="45.7848" lon="5.30854">
        <ele>248</ele>
        <time>2021-02-28T10:29:29.826Z</time>
      </trkpt>
      <trkpt lat="45.78475" lon="5.30857">
        <ele>248</ele>
        <time>2021-02-28T10:29:30.825Z</time>
      </trkpt>
      <trkpt lat="45.78471" lon="5.30859">
        <ele>249</ele>
        <time>2021-02-28T10:29:31.825Z</time>
      </trkpt>
      <trkpt lat="45.78467" lon="5.30862">
        <ele>249</ele>
        <time>2021-02-28T10:29:32.825Z</time>
      </trkpt>
      <trkpt lat="45.78462" lon="5.30865">
        <ele>249</ele>
        <time>2021-02-28T10:29:33.825Z</time>
      </trkpt>
      <trkpt lat="45.78458" lon="5.30868">
        <ele>249</ele>
        <time>2021-02-28T10:29:34.826Z</time>
      </trkpt>
      <trkpt lat="45.7845" lon="5.30875">
        <ele>250</ele>
        <time>2021-02-28T10:29:35.826Z</time>
      </trkpt>
      <trkpt lat="45.7845" lon="5.30875">
        <ele>250</ele>
        <time>2021-02-28T10:29:36.825Z</time>
      </trkpt>
      <trkpt lat="45.78446" lon="5.30879">
        <ele>250</ele>
        <time>2021-02-28T10:29:37.825Z</time>
      </trkpt>
      <trkpt lat="45.78443" lon="5.30884">
        <ele>250</ele>
        <time>2021-02-28T10:29:38.825Z</time>
      </trkpt>
      <trkpt lat="45.7844" lon="5.30889">
        <ele>249</ele>
        <time>2021-02-28T10:29:39.825Z</time>
      </trkpt>
      <trkpt lat="45.78437" lon="5.30894">
        <ele>249</ele>
        <time>2021-02-28T10:29:40.825Z</time>
      </trkpt>
      <trkpt lat="45.78433" lon="5.30905">
        <ele>249</ele>
        <time>2021-02-28T10:29:41.826Z</time>
      </trkpt>
      <trkpt lat="45.78433" lon="5.30905">
        <ele>249</ele>
        <time>2021-02-28T10:29:42.825Z</time>
      </trkpt>
      <trkpt lat="45.7843" lon="5.30911">
        <ele>248</ele>
        <time>2021-02-28T10:29:43.825Z</time>
      </trkpt>
      <trkpt lat="45.78427" lon="5.30923">
        <ele>248</ele>
        <time>2021-02-28T10:29:44.826Z</time>
      </trkpt>
      <trkpt lat="45.78426" lon="5.3093">
        <ele>248</ele>
        <time>2021-02-28T10:29:45.825Z</time>
      </trkpt>
      <trkpt lat="45.78426" lon="5.3093">
        <ele>248</ele>
        <time>2021-02-28T10:29:46.825Z</time>
      </trkpt>
      <trkpt lat="45.78425" lon="5.30936">
        <ele>249</ele>
        <time>2021-02-28T10:29:47.825Z</time>
      </trkpt>
      <trkpt lat="45.78423" lon="5.30942">
        <ele>249</ele>
        <time>2021-02-28T10:29:48.825Z</time>
      </trkpt>
      <trkpt lat="45.78421" lon="5.30948">
        <ele>250</ele>
        <time>2021-02-28T10:29:49.825Z</time>
      </trkpt>
      <trkpt lat="45.7842" lon="5.30952">
        <ele>250</ele>
        <time>2021-02-28T10:29:50.825Z</time>
      </trkpt>
      <trkpt lat="45.78418" lon="5.30958">
        <ele>250</ele>
        <time>2021-02-28T10:29:51.825Z</time>
      </trkpt>
      <trkpt lat="45.78417" lon="5.30964">
        <ele>251</ele>
        <time>2021-02-28T10:29:52.825Z</time>
      </trkpt>
      <trkpt lat="45.78414" lon="5.30971">
        <ele>251</ele>
        <time>2021-02-28T10:29:53.825Z</time>
      </trkpt>
      <trkpt lat="45.78412" lon="5.30976">
        <ele>251</ele>
        <time>2021-02-28T10:29:54.826Z</time>
      </trkpt>
      <trkpt lat="45.78409" lon="5.30982">
        <ele>251</ele>
        <time>2021-02-28T10:29:55.825Z</time>
      </trkpt>
      <trkpt lat="45.78407" lon="5.30986">
        <ele>251</ele>
        <time>2021-02-28T10:29:56.825Z</time>
      </trkpt>
      <trkpt lat="45.78404" lon="5.30991">
        <ele>251</ele>
        <time>2021-02-28T10:29:57.825Z</time>
      </trkpt>
      <trkpt lat="45.784" lon="5.30997">
        <ele>251</ele>
        <time>2021-02-28T10:29:58.825Z</time>
      </trkpt>
      <trkpt lat="45.78396" lon="5.31001">
        <ele>251</ele>
        <time>2021-02-28T10:29:59.826Z</time>
      </trkpt>
      <trkpt lat="45.78392" lon="5.31005">
        <ele>251</ele>
        <time>2021-02-28T10:30:00.825Z</time>
      </trkpt>
      <trkpt lat="45.78389" lon="5.31008">
        <ele>251</ele>
        <time>2021-02-28T10:30:01.825Z</time>
      </trkpt>
      <trkpt lat="45.78385" lon="5.31011">
        <ele>251</ele>
        <time>2021-02-28T10:30:02.826Z</time>
      </trkpt>
      <trkpt lat="45.7838" lon="5.31015">
        <ele>252</ele>
        <time>2021-02-28T10:30:03.826Z</time>
      </trkpt>
      <trkpt lat="45.78375" lon="5.31017">
        <ele>253</ele>
        <time>2021-02-28T10:30:04.826Z</time>
      </trkpt>
      <trkpt lat="45.7837" lon="5.31017">
        <ele>253</ele>
        <time>2021-02-28T10:30:05.825Z</time>
      </trkpt>
      <trkpt lat="45.78365" lon="5.31017">
        <ele>254</ele>
        <time>2021-02-28T10:30:06.825Z</time>
      </trkpt>
      <trkpt lat="45.78361" lon="5.31017">
        <ele>255</ele>
        <time>2021-02-28T10:30:07.825Z</time>
      </trkpt>
      <trkpt lat="45.78354" lon="5.31011">
        <ele>256</ele>
        <time>2021-02-28T10:30:08.826Z</time>
      </trkpt>
      <trkpt lat="45.78349" lon="5.31008">
        <ele>257</ele>
        <time>2021-02-28T10:30:09.826Z</time>
      </trkpt>
      <trkpt lat="45.78344" lon="5.31005">
        <ele>259</ele>
        <time>2021-02-28T10:30:10.825Z</time>
      </trkpt>
      <trkpt lat="45.78339" lon="5.31003">
        <ele>260</ele>
        <time>2021-02-28T10:30:11.825Z</time>
      </trkpt>
      <trkpt lat="45.78335" lon="5.31001">
        <ele>261</ele>
        <time>2021-02-28T10:30:12.825Z</time>
      </trkpt>
      <trkpt lat="45.78329" lon="5.31">
        <ele>263</ele>
        <time>2021-02-28T10:30:13.825Z</time>
      </trkpt>
      <trkpt lat="45.78324" lon="5.30999">
        <ele>264</ele>
        <time>2021-02-28T10:30:14.825Z</time>
      </trkpt>
      <trkpt lat="45.7832" lon="5.30998">
        <ele>266</ele>
        <time>2021-02-28T10:30:15.825Z</time>
      </trkpt>
      <trkpt lat="45.78315" lon="5.30996">
        <ele>267</ele>
        <time>2021-02-28T10:30:16.826Z</time>
      </trkpt>
      <trkpt lat="45.7831" lon="5.30995">
        <ele>268</ele>
        <time>2021-02-28T10:30:17.826Z</time>
      </trkpt>
      <trkpt lat="45.78305" lon="5.30993">
        <ele>269</ele>
        <time>2021-02-28T10:30:18.825Z</time>
      </trkpt>
      <trkpt lat="45.783" lon="5.30988">
        <ele>271</ele>
        <time>2021-02-28T10:30:19.825Z</time>
      </trkpt>
      <trkpt lat="45.78296" lon="5.30986">
        <ele>273</ele>
        <time>2021-02-28T10:30:20.826Z</time>
      </trkpt>
      <trkpt lat="45.78291" lon="5.30983">
        <ele>274</ele>
        <time>2021-02-28T10:30:21.826Z</time>
      </trkpt>
      <trkpt lat="45.78287" lon="5.30981">
        <ele>276</ele>
        <time>2021-02-28T10:30:22.825Z</time>
      </trkpt>
      <trkpt lat="45.78282" lon="5.30978">
        <ele>278</ele>
        <time>2021-02-28T10:30:23.826Z</time>
      </trkpt>
      <trkpt lat="45.78278" lon="5.30975">
        <ele>279</ele>
        <time>2021-02-28T10:30:24.825Z</time>
      </trkpt>
      <trkpt lat="45.78273" lon="5.30973">
        <ele>281</ele>
        <time>2021-02-28T10:30:25.825Z</time>
      </trkpt>
      <trkpt lat="45.78269" lon="5.30969">
        <ele>282</ele>
        <time>2021-02-28T10:30:26.826Z</time>
      </trkpt>
      <trkpt lat="45.78264" lon="5.30967">
        <ele>283</ele>
        <time>2021-02-28T10:30:27.826Z</time>
      </trkpt>
      <trkpt lat="45.78259" lon="5.30964">
        <ele>284</ele>
        <time>2021-02-28T10:30:28.825Z</time>
      </trkpt>
      <trkpt lat="45.78254" lon="5.30961">
        <ele>285</ele>
        <time>2021-02-28T10:30:29.825Z</time>
      </trkpt>
      <trkpt lat="45.7825" lon="5.30959">
        <ele>286</ele>
        <time>2021-02-28T10:30:30.825Z</time>
      </trkpt>
      <trkpt lat="45.78245" lon="5.30956">
        <ele>287</ele>
        <time>2021-02-28T10:30:31.825Z</time>
      </trkpt>
      <trkpt lat="45.78241" lon="5.30954">
        <ele>288</ele>
        <time>2021-02-28T10:30:32.825Z</time>
      </trkpt>
      <trkpt lat="45.78236" lon="5.30951">
        <ele>288</ele>
        <time>2021-02-28T10:30:33.825Z</time>
      </trkpt>
      <trkpt lat="45.78231" lon="5.30949">
        <ele>289</ele>
        <time>2021-02-28T10:30:34.825Z</time>
      </trkpt>
      <trkpt lat="45.78227" lon="5.30946">
        <ele>289</ele>
        <time>2021-02-28T10:30:35.826Z</time>
      </trkpt>
      <trkpt lat="45.78222" lon="5.30943">
        <ele>289</ele>
        <time>2021-02-28T10:30:36.825Z</time>
      </trkpt>
      <trkpt lat="45.78218" lon="5.3094">
        <ele>290</ele>
        <time>2021-02-28T10:30:37.825Z</time>
      </trkpt>
      <trkpt lat="45.78213" lon="5.30937">
        <ele>290</ele>
        <time>2021-02-28T10:30:38.825Z</time>
      </trkpt>
      <trkpt lat="45.78209" lon="5.30934">
        <ele>290</ele>
        <time>2021-02-28T10:30:39.825Z</time>
      </trkpt>
      <trkpt lat="45.78204" lon="5.30932">
        <ele>290</ele>
        <time>2021-02-28T10:30:40.825Z</time>
      </trkpt>
      <trkpt lat="45.782" lon="5.30929">
        <ele>290</ele>
        <time>2021-02-28T10:30:41.826Z</time>
      </trkpt>
      <trkpt lat="45.78195" lon="5.30927">
        <ele>290</ele>
        <time>2021-02-28T10:30:42.825Z</time>
      </trkpt>
      <trkpt lat="45.78191" lon="5.30925">
        <ele>290</ele>
        <time>2021-02-28T10:30:43.825Z</time>
      </trkpt>
      <trkpt lat="45.78186" lon="5.30923">
        <ele>290</ele>
        <time>2021-02-28T10:30:44.826Z</time>
      </trkpt>
      <trkpt lat="45.78182" lon="5.30921">
        <ele>290</ele>
        <time>2021-02-28T10:30:45.825Z</time>
      </trkpt>
      <trkpt lat="45.78177" lon="5.3092">
        <ele>290</ele>
        <time>2021-02-28T10:30:46.825Z</time>
      </trkpt>
      <trkpt lat="45.78173" lon="5.30918">
        <ele>290</ele>
        <time>2021-02-28T10:30:47.825Z</time>
      </trkpt>
      <trkpt lat="45.78168" lon="5.30917">
        <ele>289</ele>
        <time>2021-02-28T10:30:48.825Z</time>
      </trkpt>
      <trkpt lat="45.78164" lon="5.30917">
        <ele>288</ele>
        <time>2021-02-28T10:30:49.825Z</time>
      </trkpt>
      <trkpt lat="45.78159" lon="5.30917">
        <ele>287</ele>
        <time>2021-02-28T10:30:50.825Z</time>
      </trkpt>
      <trkpt lat="45.78153" lon="5.30916">
        <ele>287</ele>
        <time>2021-02-28T10:30:51.826Z</time>
      </trkpt>
      <trkpt lat="45.78149" lon="5.30917">
        <ele>285</ele>
        <time>2021-02-28T10:30:52.826Z</time>
      </trkpt>
      <trkpt lat="45.78144" lon="5.30918">
        <ele>284</ele>
        <time>2021-02-28T10:30:53.826Z</time>
      </trkpt>
      <trkpt lat="45.78141" lon="5.30919">
        <ele>282</ele>
        <time>2021-02-28T10:30:54.826Z</time>
      </trkpt>
      <trkpt lat="45.78136" lon="5.3092">
        <ele>280</ele>
        <time>2021-02-28T10:30:55.825Z</time>
      </trkpt>
      <trkpt lat="45.78131" lon="5.30926">
        <ele>278</ele>
        <time>2021-02-28T10:30:56.825Z</time>
      </trkpt>
      <trkpt lat="45.78127" lon="5.3093">
        <ele>276</ele>
        <time>2021-02-28T10:30:57.825Z</time>
      </trkpt>
      <trkpt lat="45.78123" lon="5.30934">
        <ele>274</ele>
        <time>2021-02-28T10:30:58.825Z</time>
      </trkpt>
      <trkpt lat="45.78118" lon="5.30937">
        <ele>271</ele>
        <time>2021-02-28T10:30:59.825Z</time>
      </trkpt>
      <trkpt lat="45.78114" lon="5.30942">
        <ele>269</ele>
        <time>2021-02-28T10:31:00.825Z</time>
      </trkpt>
      <trkpt lat="45.7811" lon="5.30947">
        <ele>267</ele>
        <time>2021-02-28T10:31:01.825Z</time>
      </trkpt>
      <trkpt lat="45.78106" lon="5.30951">
        <ele>265</ele>
        <time>2021-02-28T10:31:02.825Z</time>
      </trkpt>
      <trkpt lat="45.78101" lon="5.30956">
        <ele>264</ele>
        <time>2021-02-28T10:31:03.825Z</time>
      </trkpt>
      <trkpt lat="45.78098" lon="5.30962">
        <ele>263</ele>
        <time>2021-02-28T10:31:04.826Z</time>
      </trkpt>
      <trkpt lat="45.78095" lon="5.30967">
        <ele>261</ele>
        <time>2021-02-28T10:31:05.825Z</time>
      </trkpt>
      <trkpt lat="45.78091" lon="5.30973">
        <ele>260</ele>
        <time>2021-02-28T10:31:06.825Z</time>
      </trkpt>
      <trkpt lat="45.78087" lon="5.30978">
        <ele>259</ele>
        <time>2021-02-28T10:31:07.825Z</time>
      </trkpt>
      <trkpt lat="45.78084" lon="5.30983">
        <ele>258</ele>
        <time>2021-02-28T10:31:08.825Z</time>
      </trkpt>
      <trkpt lat="45.7808" lon="5.30988">
        <ele>257</ele>
        <time>2021-02-28T10:31:09.826Z</time>
      </trkpt>
      <trkpt lat="45.78076" lon="5.30992">
        <ele>256</ele>
        <time>2021-02-28T10:31:10.826Z</time>
      </trkpt>
      <trkpt lat="45.78072" lon="5.30996">
        <ele>255</ele>
        <time>2021-02-28T10:31:11.825Z</time>
      </trkpt>
      <trkpt lat="45.78068" lon="5.31">
        <ele>254</ele>
        <time>2021-02-28T10:31:12.825Z</time>
      </trkpt>
      <trkpt lat="45.78064" lon="5.31004">
        <ele>254</ele>
        <time>2021-02-28T10:31:13.825Z</time>
      </trkpt>
      <trkpt lat="45.78059" lon="5.31006">
        <ele>254</ele>
        <time>2021-02-28T10:31:14.825Z</time>
      </trkpt>
      <trkpt lat="45.78055" lon="5.31008">
        <ele>254</ele>
        <time>2021-02-28T10:31:15.826Z</time>
      </trkpt>
      <trkpt lat="45.7805" lon="5.3101">
        <ele>254</ele>
        <time>2021-02-28T10:31:16.825Z</time>
      </trkpt>
      <trkpt lat="45.78046" lon="5.31012">
        <ele>254</ele>
        <time>2021-02-28T10:31:17.825Z</time>
      </trkpt>
      <trkpt lat="45.78042" lon="5.31014">
        <ele>254</ele>
        <time>2021-02-28T10:31:18.825Z</time>
      </trkpt>
      <trkpt lat="45.78038" lon="5.31017">
        <ele>254</ele>
        <time>2021-02-28T10:31:19.826Z</time>
      </trkpt>
      <trkpt lat="45.78034" lon="5.31019">
        <ele>254</ele>
        <time>2021-02-28T10:31:20.825Z</time>
      </trkpt>
      <trkpt lat="45.7803" lon="5.31023">
        <ele>254</ele>
        <time>2021-02-28T10:31:21.825Z</time>
      </trkpt>
      <trkpt lat="45.78026" lon="5.31026">
        <ele>254</ele>
        <time>2021-02-28T10:31:22.826Z</time>
      </trkpt>
      <trkpt lat="45.78023" lon="5.3103">
        <ele>254</ele>
        <time>2021-02-28T10:31:23.825Z</time>
      </trkpt>
      <trkpt lat="45.78019" lon="5.31033">
        <ele>255</ele>
        <time>2021-02-28T10:31:24.825Z</time>
      </trkpt>
      <trkpt lat="45.78017" lon="5.31036">
        <ele>255</ele>
        <time>2021-02-28T10:31:25.826Z</time>
      </trkpt>
      <trkpt lat="45.78015" lon="5.31041">
        <ele>256</ele>
        <time>2021-02-28T10:31:26.826Z</time>
      </trkpt>
      <trkpt lat="45.78013" lon="5.31044">
        <ele>256</ele>
        <time>2021-02-28T10:31:27.825Z</time>
      </trkpt>
      <trkpt lat="45.7801" lon="5.31047">
        <ele>256</ele>
        <time>2021-02-28T10:31:28.825Z</time>
      </trkpt>
      <trkpt lat="45.78008" lon="5.3105">
        <ele>257</ele>
        <time>2021-02-28T10:31:29.825Z</time>
      </trkpt>
      <trkpt lat="45.78006" lon="5.31054">
        <ele>257</ele>
        <time>2021-02-28T10:31:30.825Z</time>
      </trkpt>
      <trkpt lat="45.78004" lon="5.31057">
        <ele>257</ele>
        <time>2021-02-28T10:31:31.825Z</time>
      </trkpt>
      <trkpt lat="45.78003" lon="5.3106">
        <ele>257</ele>
        <time>2021-02-28T10:31:32.826Z</time>
      </trkpt>
      <trkpt lat="45.78002" lon="5.31062">
        <ele>257</ele>
        <time>2021-02-28T10:31:33.826Z</time>
      </trkpt>
      <trkpt lat="45.78" lon="5.31065">
        <ele>257</ele>
        <time>2021-02-28T10:31:34.826Z</time>
      </trkpt>
      <trkpt lat="45.77999" lon="5.31067">
        <ele>257</ele>
        <time>2021-02-28T10:31:35.825Z</time>
      </trkpt>
      <trkpt lat="45.77997" lon="5.3107">
        <ele>257</ele>
        <time>2021-02-28T10:31:36.825Z</time>
      </trkpt>
      <trkpt lat="45.77996" lon="5.31072">
        <ele>257</ele>
        <time>2021-02-28T10:31:37.826Z</time>
      </trkpt>
      <trkpt lat="45.77994" lon="5.31074">
        <ele>257</ele>
        <time>2021-02-28T10:31:38.825Z</time>
      </trkpt>
      <trkpt lat="45.77991" lon="5.31077">
        <ele>257</ele>
        <time>2021-02-28T10:31:39.825Z</time>
      </trkpt>
      <trkpt lat="45.77988" lon="5.31079">
        <ele>257</ele>
        <time>2021-02-28T10:31:40.825Z</time>
      </trkpt>
      <trkpt lat="45.77984" lon="5.31083">
        <ele>257</ele>
        <time>2021-02-28T10:31:41.825Z</time>
      </trkpt>
      <trkpt lat="45.77981" lon="5.31086">
        <ele>257</ele>
        <time>2021-02-28T10:31:42.826Z</time>
      </trkpt>
      <trkpt lat="45.77977" lon="5.31089">
        <ele>257</ele>
        <time>2021-02-28T10:31:43.825Z</time>
      </trkpt>
      <trkpt lat="45.77972" lon="5.31092">
        <ele>256</ele>
        <time>2021-02-28T10:31:44.825Z</time>
      </trkpt>
      <trkpt lat="45.77968" lon="5.31095">
        <ele>256</ele>
        <time>2021-02-28T10:31:45.825Z</time>
      </trkpt>
      <trkpt lat="45.77963" lon="5.31096">
        <ele>256</ele>
        <time>2021-02-28T10:31:46.826Z</time>
      </trkpt>
      <trkpt lat="45.77958" lon="5.31097">
        <ele>256</ele>
        <time>2021-02-28T10:31:47.826Z</time>
      </trkpt>
      <trkpt lat="45.77953" lon="5.31098">
        <ele>256</ele>
        <time>2021-02-28T10:31:48.826Z</time>
      </trkpt>
      <trkpt lat="45.77948" lon="5.31099">
        <ele>256</ele>
        <time>2021-02-28T10:31:49.826Z</time>
      </trkpt>
      <trkpt lat="45.77944" lon="5.31101">
        <ele>256</ele>
        <time>2021-02-28T10:31:50.825Z</time>
      </trkpt>
      <trkpt lat="45.77939" lon="5.31103">
        <ele>255</ele>
        <time>2021-02-28T10:31:51.826Z</time>
      </trkpt>
      <trkpt lat="45.77934" lon="5.31104">
        <ele>256</ele>
        <time>2021-02-28T10:31:52.825Z</time>
      </trkpt>
      <trkpt lat="45.77929" lon="5.31105">
        <ele>256</ele>
        <time>2021-02-28T10:31:53.825Z</time>
      </trkpt>
      <trkpt lat="45.77925" lon="5.31107">
        <ele>256</ele>
        <time>2021-02-28T10:31:54.825Z</time>
      </trkpt>
      <trkpt lat="45.7792" lon="5.31109">
        <ele>256</ele>
        <time>2021-02-28T10:31:55.826Z</time>
      </trkpt>
      <trkpt lat="45.77915" lon="5.31108">
        <ele>256</ele>
        <time>2021-02-28T10:31:56.825Z</time>
      </trkpt>
      <trkpt lat="45.77909" lon="5.31108">
        <ele>257</ele>
        <time>2021-02-28T10:31:57.826Z</time>
      </trkpt>
      <trkpt lat="45.77905" lon="5.31109">
        <ele>257</ele>
        <time>2021-02-28T10:31:58.826Z</time>
      </trkpt>
      <trkpt lat="45.77898" lon="5.31109">
        <ele>258</ele>
        <time>2021-02-28T10:31:59.825Z</time>
      </trkpt>
      <trkpt lat="45.77893" lon="5.3111">
        <ele>258</ele>
        <time>2021-02-28T10:32:00.826Z</time>
      </trkpt>
      <trkpt lat="45.77887" lon="5.31112">
        <ele>258</ele>
        <time>2021-02-28T10:32:01.825Z</time>
      </trkpt>
      <trkpt lat="45.77881" lon="5.31114">
        <ele>258</ele>
        <time>2021-02-28T10:32:02.825Z</time>
      </trkpt>
      <trkpt lat="45.77874" lon="5.31115">
        <ele>258</ele>
        <time>2021-02-28T10:32:03.826Z</time>
      </trkpt>
      <trkpt lat="45.77867" lon="5.31116">
        <ele>258</ele>
        <time>2021-02-28T10:32:04.825Z</time>
      </trkpt>
      <trkpt lat="45.77861" lon="5.31118">
        <ele>258</ele>
        <time>2021-02-28T10:32:05.825Z</time>
      </trkpt>
      <trkpt lat="45.77854" lon="5.31119">
        <ele>258</ele>
        <time>2021-02-28T10:32:06.825Z</time>
      </trkpt>
      <trkpt lat="45.77848" lon="5.31121">
        <ele>259</ele>
        <time>2021-02-28T10:32:07.825Z</time>
      </trkpt>
      <trkpt lat="45.77843" lon="5.31124">
        <ele>259</ele>
        <time>2021-02-28T10:32:08.825Z</time>
      </trkpt>
      <trkpt lat="45.77839" lon="5.31126">
        <ele>259</ele>
        <time>2021-02-28T10:32:09.825Z</time>
      </trkpt>
      <trkpt lat="45.77832" lon="5.31129">
        <ele>260</ele>
        <time>2021-02-28T10:32:10.825Z</time>
      </trkpt>
      <trkpt lat="45.77827" lon="5.31132">
        <ele>261</ele>
        <time>2021-02-28T10:32:11.825Z</time>
      </trkpt>
      <trkpt lat="45.77823" lon="5.31136">
        <ele>261</ele>
        <time>2021-02-28T10:32:12.825Z</time>
      </trkpt>
      <trkpt lat="45.77819" lon="5.3114">
        <ele>262</ele>
        <time>2021-02-28T10:32:13.825Z</time>
      </trkpt>
      <trkpt lat="45.77815" lon="5.31144">
        <ele>262</ele>
        <time>2021-02-28T10:32:14.826Z</time>
      </trkpt>
      <trkpt lat="45.77811" lon="5.31148">
        <ele>263</ele>
        <time>2021-02-28T10:32:15.826Z</time>
      </trkpt>
      <trkpt lat="45.77807" lon="5.31151">
        <ele>263</ele>
        <time>2021-02-28T10:32:16.825Z</time>
      </trkpt>
      <trkpt lat="45.77804" lon="5.31153">
        <ele>263</ele>
        <time>2021-02-28T10:32:17.825Z</time>
      </trkpt>
      <trkpt lat="45.77801" lon="5.31156">
        <ele>263</ele>
        <time>2021-02-28T10:32:18.825Z</time>
      </trkpt>
      <trkpt lat="45.77798" lon="5.3116">
        <ele>262</ele>
        <time>2021-02-28T10:32:19.825Z</time>
      </trkpt>
      <trkpt lat="45.77794" lon="5.31164">
        <ele>262</ele>
        <time>2021-02-28T10:32:20.825Z</time>
      </trkpt>
      <trkpt lat="45.77791" lon="5.31168">
        <ele>262</ele>
        <time>2021-02-28T10:32:21.826Z</time>
      </trkpt>
      <trkpt lat="45.77788" lon="5.31173">
        <ele>262</ele>
        <time>2021-02-28T10:32:22.825Z</time>
      </trkpt>
      <trkpt lat="45.77785" lon="5.31177">
        <ele>262</ele>
        <time>2021-02-28T10:32:23.825Z</time>
      </trkpt>
      <trkpt lat="45.77783" lon="5.31181">
        <ele>262</ele>
        <time>2021-02-28T10:32:24.825Z</time>
      </trkpt>
      <trkpt lat="45.7778" lon="5.31184">
        <ele>262</ele>
        <time>2021-02-28T10:32:25.825Z</time>
      </trkpt>
      <trkpt lat="45.77777" lon="5.31187">
        <ele>263</ele>
        <time>2021-02-28T10:32:26.826Z</time>
      </trkpt>
      <trkpt lat="45.77773" lon="5.31192">
        <ele>263</ele>
        <time>2021-02-28T10:32:27.825Z</time>
      </trkpt>
      <trkpt lat="45.7777" lon="5.31197">
        <ele>264</ele>
        <time>2021-02-28T10:32:28.825Z</time>
      </trkpt>
      <trkpt lat="45.77766" lon="5.31202">
        <ele>264</ele>
        <time>2021-02-28T10:32:29.825Z</time>
      </trkpt>
      <trkpt lat="45.77764" lon="5.31207">
        <ele>264</ele>
        <time>2021-02-28T10:32:30.825Z</time>
      </trkpt>
      <trkpt lat="45.77761" lon="5.31211">
        <ele>264</ele>
        <time>2021-02-28T10:32:31.825Z</time>
      </trkpt>
      <trkpt lat="45.77758" lon="5.31215">
        <ele>264</ele>
        <time>2021-02-28T10:32:32.825Z</time>
      </trkpt>
      <trkpt lat="45.77756" lon="5.31219">
        <ele>264</ele>
        <time>2021-02-28T10:32:33.825Z</time>
      </trkpt>
      <trkpt lat="45.77753" lon="5.31222">
        <ele>264</ele>
        <time>2021-02-28T10:32:34.826Z</time>
      </trkpt>
      <trkpt lat="45.77751" lon="5.31226">
        <ele>264</ele>
        <time>2021-02-28T10:32:35.825Z</time>
      </trkpt>
      <trkpt lat="45.77748" lon="5.3123">
        <ele>264</ele>
        <time>2021-02-28T10:32:36.825Z</time>
      </trkpt>
      <trkpt lat="45.77746" lon="5.31233">
        <ele>264</ele>
        <time>2021-02-28T10:32:37.826Z</time>
      </trkpt>
      <trkpt lat="45.77743" lon="5.31236">
        <ele>264</ele>
        <time>2021-02-28T10:32:38.825Z</time>
      </trkpt>
      <trkpt lat="45.7774" lon="5.3124">
        <ele>264</ele>
        <time>2021-02-28T10:32:39.826Z</time>
      </trkpt>
      <trkpt lat="45.77737" lon="5.31244">
        <ele>264</ele>
        <time>2021-02-28T10:32:40.825Z</time>
      </trkpt>
      <trkpt lat="45.77734" lon="5.31248">
        <ele>264</ele>
        <time>2021-02-28T10:32:41.825Z</time>
      </trkpt>
      <trkpt lat="45.7773" lon="5.31252">
        <ele>264</ele>
        <time>2021-02-28T10:32:42.826Z</time>
      </trkpt>
      <trkpt lat="45.77727" lon="5.31256">
        <ele>264</ele>
        <time>2021-02-28T10:32:43.826Z</time>
      </trkpt>
      <trkpt lat="45.77724" lon="5.3126">
        <ele>265</ele>
        <time>2021-02-28T10:32:44.826Z</time>
      </trkpt>
      <trkpt lat="45.77721" lon="5.31263">
        <ele>265</ele>
        <time>2021-02-28T10:32:45.825Z</time>
      </trkpt>
      <trkpt lat="45.77718" lon="5.31267">
        <ele>266</ele>
        <time>2021-02-28T10:32:46.826Z</time>
      </trkpt>
      <trkpt lat="45.77715" lon="5.3127">
        <ele>266</ele>
        <time>2021-02-28T10:32:47.826Z</time>
      </trkpt>
      <trkpt lat="45.77712" lon="5.31272">
        <ele>267</ele>
        <time>2021-02-28T10:32:48.826Z</time>
      </trkpt>
      <trkpt lat="45.77707" lon="5.31276">
        <ele>267</ele>
        <time>2021-02-28T10:32:49.825Z</time>
      </trkpt>
      <trkpt lat="45.77699" lon="5.3128">
        <ele>268</ele>
        <time>2021-02-28T10:32:50.826Z</time>
      </trkpt>
      <trkpt lat="45.77699" lon="5.3128">
        <ele>268</ele>
        <time>2021-02-28T10:32:51.825Z</time>
      </trkpt>
      <trkpt lat="45.77696" lon="5.31282">
        <ele>268</ele>
        <time>2021-02-28T10:32:52.825Z</time>
      </trkpt>
      <trkpt lat="45.77692" lon="5.31284">
        <ele>268</ele>
        <time>2021-02-28T10:32:53.825Z</time>
      </trkpt>
      <trkpt lat="45.77688" lon="5.31286">
        <ele>268</ele>
        <time>2021-02-28T10:32:54.826Z</time>
      </trkpt>
      <trkpt lat="45.77684" lon="5.31287">
        <ele>267</ele>
        <time>2021-02-28T10:32:55.826Z</time>
      </trkpt>
      <trkpt lat="45.7768" lon="5.31288">
        <ele>267</ele>
        <time>2021-02-28T10:32:56.825Z</time>
      </trkpt>
      <trkpt lat="45.77676" lon="5.3129">
        <ele>267</ele>
        <time>2021-02-28T10:32:57.825Z</time>
      </trkpt>
      <trkpt lat="45.77673" lon="5.31291">
        <ele>267</ele>
        <time>2021-02-28T10:32:58.826Z</time>
      </trkpt>
      <trkpt lat="45.77669" lon="5.31293">
        <ele>267</ele>
        <time>2021-02-28T10:32:59.825Z</time>
      </trkpt>
      <trkpt lat="45.77665" lon="5.31293">
        <ele>267</ele>
        <time>2021-02-28T10:33:00.825Z</time>
      </trkpt>
      <trkpt lat="45.7766" lon="5.31295">
        <ele>267</ele>
        <time>2021-02-28T10:33:01.826Z</time>
      </trkpt>
      <trkpt lat="45.77655" lon="5.31296">
        <ele>267</ele>
        <time>2021-02-28T10:33:02.825Z</time>
      </trkpt>
      <trkpt lat="45.77651" lon="5.31297">
        <ele>267</ele>
        <time>2021-02-28T10:33:03.825Z</time>
      </trkpt>
      <trkpt lat="45.77644" lon="5.31299">
        <ele>267</ele>
        <time>2021-02-28T10:33:04.825Z</time>
      </trkpt>
      <trkpt lat="45.77638" lon="5.313">
        <ele>267</ele>
        <time>2021-02-28T10:33:05.826Z</time>
      </trkpt>
      <trkpt lat="45.77633" lon="5.313">
        <ele>267</ele>
        <time>2021-02-28T10:33:06.825Z</time>
      </trkpt>
      <trkpt lat="45.77627" lon="5.31301">
        <ele>266</ele>
        <time>2021-02-28T10:33:07.825Z</time>
      </trkpt>
      <trkpt lat="45.77621" lon="5.31302">
        <ele>266</ele>
        <time>2021-02-28T10:33:08.825Z</time>
      </trkpt>
      <trkpt lat="45.77617" lon="5.31303">
        <ele>265</ele>
        <time>2021-02-28T10:33:09.825Z</time>
      </trkpt>
      <trkpt lat="45.77612" lon="5.31304">
        <ele>265</ele>
        <time>2021-02-28T10:33:10.826Z</time>
      </trkpt>
      <trkpt lat="45.77607" lon="5.31306">
        <ele>265</ele>
        <time>2021-02-28T10:33:11.826Z</time>
      </trkpt>
      <trkpt lat="45.77602" lon="5.31307">
        <ele>265</ele>
        <time>2021-02-28T10:33:12.826Z</time>
      </trkpt>
      <trkpt lat="45.77598" lon="5.31307">
        <ele>265</ele>
        <time>2021-02-28T10:33:13.825Z</time>
      </trkpt>
      <trkpt lat="45.77592" lon="5.31308">
        <ele>265</ele>
        <time>2021-02-28T10:33:14.825Z</time>
      </trkpt>
      <trkpt lat="45.77587" lon="5.3131">
        <ele>266</ele>
        <time>2021-02-28T10:33:15.825Z</time>
      </trkpt>
      <trkpt lat="45.77582" lon="5.31311">
        <ele>266</ele>
        <time>2021-02-28T10:33:16.825Z</time>
      </trkpt>
      <trkpt lat="45.77577" lon="5.31312">
        <ele>267</ele>
        <time>2021-02-28T10:33:17.825Z</time>
      </trkpt>
      <trkpt lat="45.77572" lon="5.31312">
        <ele>267</ele>
        <time>2021-02-28T10:33:18.825Z</time>
      </trkpt>
      <trkpt lat="45.77568" lon="5.31312">
        <ele>267</ele>
        <time>2021-02-28T10:33:19.825Z</time>
      </trkpt>
      <trkpt lat="45.77563" lon="5.31312">
        <ele>266</ele>
        <time>2021-02-28T10:33:20.826Z</time>
      </trkpt>
      <trkpt lat="45.77558" lon="5.31311">
        <ele>266</ele>
        <time>2021-02-28T10:33:21.826Z</time>
      </trkpt>
      <trkpt lat="45.77553" lon="5.31311">
        <ele>267</ele>
        <time>2021-02-28T10:33:22.825Z</time>
      </trkpt>
      <trkpt lat="45.77548" lon="5.31312">
        <ele>267</ele>
        <time>2021-02-28T10:33:23.826Z</time>
      </trkpt>
      <trkpt lat="45.77542" lon="5.31312">
        <ele>267</ele>
        <time>2021-02-28T10:33:24.825Z</time>
      </trkpt>
      <trkpt lat="45.77536" lon="5.31312">
        <ele>268</ele>
        <time>2021-02-28T10:33:25.825Z</time>
      </trkpt>
      <trkpt lat="45.77531" lon="5.31311">
        <ele>268</ele>
        <time>2021-02-28T10:33:26.825Z</time>
      </trkpt>
      <trkpt lat="45.77525" lon="5.3131">
        <ele>268</ele>
        <time>2021-02-28T10:33:27.825Z</time>
      </trkpt>
      <trkpt lat="45.7752" lon="5.3131">
        <ele>268</ele>
        <time>2021-02-28T10:33:28.825Z</time>
      </trkpt>
      <trkpt lat="45.77515" lon="5.3131">
        <ele>269</ele>
        <time>2021-02-28T10:33:29.825Z</time>
      </trkpt>
      <trkpt lat="45.7751" lon="5.3131">
        <ele>269</ele>
        <time>2021-02-28T10:33:30.825Z</time>
      </trkpt>
      <trkpt lat="45.77506" lon="5.3131">
        <ele>269</ele>
        <time>2021-02-28T10:33:31.825Z</time>
      </trkpt>
      <trkpt lat="45.77501" lon="5.3131">
        <ele>269</ele>
        <time>2021-02-28T10:33:32.825Z</time>
      </trkpt>
      <trkpt lat="45.77496" lon="5.31309">
        <ele>268</ele>
        <time>2021-02-28T10:33:33.825Z</time>
      </trkpt>
      <trkpt lat="45.77491" lon="5.3131">
        <ele>268</ele>
        <time>2021-02-28T10:33:34.825Z</time>
      </trkpt>
      <trkpt lat="45.77486" lon="5.3131">
        <ele>269</ele>
        <time>2021-02-28T10:33:35.826Z</time>
      </trkpt>
      <trkpt lat="45.7748" lon="5.31311">
        <ele>269</ele>
        <time>2021-02-28T10:33:36.825Z</time>
      </trkpt>
      <trkpt lat="45.77476" lon="5.3131">
        <ele>269</ele>
        <time>2021-02-28T10:33:37.826Z</time>
      </trkpt>
      <trkpt lat="45.77471" lon="5.31311">
        <ele>269</ele>
        <time>2021-02-28T10:33:38.825Z</time>
      </trkpt>
      <trkpt lat="45.77466" lon="5.31312">
        <ele>270</ele>
        <time>2021-02-28T10:33:39.825Z</time>
      </trkpt>
      <trkpt lat="45.77462" lon="5.31313">
        <ele>270</ele>
        <time>2021-02-28T10:33:40.825Z</time>
      </trkpt>
      <trkpt lat="45.77458" lon="5.31315">
        <ele>271</ele>
        <time>2021-02-28T10:33:41.825Z</time>
      </trkpt>
      <trkpt lat="45.77454" lon="5.31317">
        <ele>271</ele>
        <time>2021-02-28T10:33:42.826Z</time>
      </trkpt>
      <trkpt lat="45.7745" lon="5.31319">
        <ele>271</ele>
        <time>2021-02-28T10:33:43.825Z</time>
      </trkpt>
      <trkpt lat="45.77446" lon="5.31321">
        <ele>271</ele>
        <time>2021-02-28T10:33:44.826Z</time>
      </trkpt>
      <trkpt lat="45.77442" lon="5.31322">
        <ele>271</ele>
        <time>2021-02-28T10:33:45.826Z</time>
      </trkpt>
      <trkpt lat="45.77439" lon="5.31325">
        <ele>272</ele>
        <time>2021-02-28T10:33:46.825Z</time>
      </trkpt>
      <trkpt lat="45.77436" lon="5.31327">
        <ele>272</ele>
        <time>2021-02-28T10:33:47.826Z</time>
      </trkpt>
      <trkpt lat="45.77433" lon="5.31329">
        <ele>272</ele>
        <time>2021-02-28T10:33:48.826Z</time>
      </trkpt>
      <trkpt lat="45.77429" lon="5.31331">
        <ele>271</ele>
        <time>2021-02-28T10:33:49.826Z</time>
      </trkpt>
      <trkpt lat="45.77426" lon="5.31333">
        <ele>271</ele>
        <time>2021-02-28T10:33:50.826Z</time>
      </trkpt>
      <trkpt lat="45.77423" lon="5.31335">
        <ele>271</ele>
        <time>2021-02-28T10:33:51.825Z</time>
      </trkpt>
      <trkpt lat="45.7742" lon="5.31337">
        <ele>271</ele>
        <time>2021-02-28T10:33:52.826Z</time>
      </trkpt>
      <trkpt lat="45.77417" lon="5.31339">
        <ele>271</ele>
        <time>2021-02-28T10:33:53.825Z</time>
      </trkpt>
      <trkpt lat="45.77414" lon="5.31341">
        <ele>270</ele>
        <time>2021-02-28T10:33:54.826Z</time>
      </trkpt>
      <trkpt lat="45.77412" lon="5.31343">
        <ele>270</ele>
        <time>2021-02-28T10:33:55.825Z</time>
      </trkpt>
      <trkpt lat="45.7741" lon="5.31344">
        <ele>269</ele>
        <time>2021-02-28T10:33:56.825Z</time>
      </trkpt>
      <trkpt lat="45.77407" lon="5.31347">
        <ele>268</ele>
        <time>2021-02-28T10:33:57.825Z</time>
      </trkpt>
      <trkpt lat="45.77404" lon="5.31349">
        <ele>267</ele>
        <time>2021-02-28T10:33:58.826Z</time>
      </trkpt>
      <trkpt lat="45.77402" lon="5.31352">
        <ele>267</ele>
        <time>2021-02-28T10:33:59.826Z</time>
      </trkpt>
      <trkpt lat="45.77399" lon="5.31354">
        <ele>266</ele>
        <time>2021-02-28T10:34:00.825Z</time>
      </trkpt>
      <trkpt lat="45.77397" lon="5.31356">
        <ele>266</ele>
        <time>2021-02-28T10:34:01.825Z</time>
      </trkpt>
      <trkpt lat="45.77394" lon="5.31359">
        <ele>266</ele>
        <time>2021-02-28T10:34:02.825Z</time>
      </trkpt>
      <trkpt lat="45.77391" lon="5.31362">
        <ele>265</ele>
        <time>2021-02-28T10:34:03.825Z</time>
      </trkpt>
      <trkpt lat="45.77389" lon="5.31364">
        <ele>265</ele>
        <time>2021-02-28T10:34:04.825Z</time>
      </trkpt>
      <trkpt lat="45.77387" lon="5.31367">
        <ele>264</ele>
        <time>2021-02-28T10:34:05.825Z</time>
      </trkpt>
      <trkpt lat="45.77384" lon="5.31369">
        <ele>263</ele>
        <time>2021-02-28T10:34:06.825Z</time>
      </trkpt>
      <trkpt lat="45.77382" lon="5.31371">
        <ele>263</ele>
        <time>2021-02-28T10:34:07.826Z</time>
      </trkpt>
      <trkpt lat="45.7738" lon="5.31374">
        <ele>262</ele>
        <time>2021-02-28T10:34:08.825Z</time>
      </trkpt>
      <trkpt lat="45.77377" lon="5.31377">
        <ele>262</ele>
        <time>2021-02-28T10:34:09.826Z</time>
      </trkpt>
      <trkpt lat="45.77375" lon="5.3138">
        <ele>262</ele>
        <time>2021-02-28T10:34:10.825Z</time>
      </trkpt>
      <trkpt lat="45.77372" lon="5.31384">
        <ele>262</ele>
        <time>2021-02-28T10:34:11.826Z</time>
      </trkpt>
      <trkpt lat="45.7737" lon="5.31386">
        <ele>262</ele>
        <time>2021-02-28T10:34:12.826Z</time>
      </trkpt>
      <trkpt lat="45.77367" lon="5.3139">
        <ele>262</ele>
        <time>2021-02-28T10:34:13.825Z</time>
      </trkpt>
      <trkpt lat="45.77365" lon="5.31394">
        <ele>262</ele>
        <time>2021-02-28T10:34:14.825Z</time>
      </trkpt>
      <trkpt lat="45.77363" lon="5.31398">
        <ele>262</ele>
        <time>2021-02-28T10:34:15.825Z</time>
      </trkpt>
      <trkpt lat="45.7736" lon="5.31402">
        <ele>263</ele>
        <time>2021-02-28T10:34:16.825Z</time>
      </trkpt>
      <trkpt lat="45.77358" lon="5.31406">
        <ele>263</ele>
        <time>2021-02-28T10:34:17.826Z</time>
      </trkpt>
      <trkpt lat="45.77356" lon="5.3141">
        <ele>263</ele>
        <time>2021-02-28T10:34:18.825Z</time>
      </trkpt>
      <trkpt lat="45.77354" lon="5.31414">
        <ele>263</ele>
        <time>2021-02-28T10:34:19.825Z</time>
      </trkpt>
      <trkpt lat="45.77351" lon="5.31418">
        <ele>263</ele>
        <time>2021-02-28T10:34:20.825Z</time>
      </trkpt>
      <trkpt lat="45.7735" lon="5.31422">
        <ele>263</ele>
        <time>2021-02-28T10:34:21.825Z</time>
      </trkpt>
      <trkpt lat="45.77347" lon="5.31427">
        <ele>263</ele>
        <time>2021-02-28T10:34:22.826Z</time>
      </trkpt>
      <trkpt lat="45.77345" lon="5.31431">
        <ele>263</ele>
        <time>2021-02-28T10:34:23.825Z</time>
      </trkpt>
      <trkpt lat="45.77343" lon="5.31435">
        <ele>263</ele>
        <time>2021-02-28T10:34:24.825Z</time>
      </trkpt>
      <trkpt lat="45.77341" lon="5.31439">
        <ele>263</ele>
        <time>2021-02-28T10:34:25.825Z</time>
      </trkpt>
      <trkpt lat="45.77339" lon="5.31443">
        <ele>263</ele>
        <time>2021-02-28T10:34:26.825Z</time>
      </trkpt>
      <trkpt lat="45.77338" lon="5.31447">
        <ele>263</ele>
        <time>2021-02-28T10:34:27.826Z</time>
      </trkpt>
      <trkpt lat="45.77336" lon="5.31451">
        <ele>263</ele>
        <time>2021-02-28T10:34:28.825Z</time>
      </trkpt>
      <trkpt lat="45.77334" lon="5.31454">
        <ele>263</ele>
        <time>2021-02-28T10:34:29.825Z</time>
      </trkpt>
      <trkpt lat="45.77332" lon="5.31457">
        <ele>262</ele>
        <time>2021-02-28T10:34:30.825Z</time>
      </trkpt>
      <trkpt lat="45.7733" lon="5.31461">
        <ele>262</ele>
        <time>2021-02-28T10:34:31.825Z</time>
      </trkpt>
      <trkpt lat="45.77328" lon="5.31464">
        <ele>262</ele>
        <time>2021-02-28T10:34:32.826Z</time>
      </trkpt>
      <trkpt lat="45.77326" lon="5.31467">
        <ele>263</ele>
        <time>2021-02-28T10:34:33.825Z</time>
      </trkpt>
      <trkpt lat="45.77324" lon="5.3147">
        <ele>262</ele>
        <time>2021-02-28T10:34:34.826Z</time>
      </trkpt>
      <trkpt lat="45.77322" lon="5.31473">
        <ele>262</ele>
        <time>2021-02-28T10:34:35.825Z</time>
      </trkpt>
      <trkpt lat="45.77319" lon="5.31478">
        <ele>262</ele>
        <time>2021-02-28T10:34:36.826Z</time>
      </trkpt>
      <trkpt lat="45.77317" lon="5.31482">
        <ele>262</ele>
        <time>2021-02-28T10:34:37.825Z</time>
      </trkpt>
      <trkpt lat="45.77315" lon="5.31487">
        <ele>262</ele>
        <time>2021-02-28T10:34:38.825Z</time>
      </trkpt>
      <trkpt lat="45.77312" lon="5.31491">
        <ele>263</ele>
        <time>2021-02-28T10:34:39.825Z</time>
      </trkpt>
      <trkpt lat="45.7731" lon="5.31494">
        <ele>263</ele>
        <time>2021-02-28T10:34:40.825Z</time>
      </trkpt>
      <trkpt lat="45.77307" lon="5.31499">
        <ele>263</ele>
        <time>2021-02-28T10:34:41.825Z</time>
      </trkpt>
      <trkpt lat="45.77305" lon="5.31502">
        <ele>264</ele>
        <time>2021-02-28T10:34:42.825Z</time>
      </trkpt>
      <trkpt lat="45.77302" lon="5.31506">
        <ele>264</ele>
        <time>2021-02-28T10:34:43.825Z</time>
      </trkpt>
      <trkpt lat="45.77299" lon="5.3151">
        <ele>264</ele>
        <time>2021-02-28T10:34:44.826Z</time>
      </trkpt>
      <trkpt lat="45.77297" lon="5.31514">
        <ele>264</ele>
        <time>2021-02-28T10:34:45.825Z</time>
      </trkpt>
      <trkpt lat="45.77294" lon="5.31518">
        <ele>265</ele>
        <time>2021-02-28T10:34:46.825Z</time>
      </trkpt>
      <trkpt lat="45.77292" lon="5.31521">
        <ele>265</ele>
        <time>2021-02-28T10:34:47.825Z</time>
      </trkpt>
      <trkpt lat="45.77289" lon="5.31525">
        <ele>265</ele>
        <time>2021-02-28T10:34:48.825Z</time>
      </trkpt>
      <trkpt lat="45.77287" lon="5.31528">
        <ele>265</ele>
        <time>2021-02-28T10:34:49.825Z</time>
      </trkpt>
      <trkpt lat="45.77286" lon="5.31531">
        <ele>265</ele>
        <time>2021-02-28T10:34:50.825Z</time>
      </trkpt>
      <trkpt lat="45.77284" lon="5.31534">
        <ele>265</ele>
        <time>2021-02-28T10:34:51.825Z</time>
      </trkpt>
      <trkpt lat="45.77282" lon="5.31536">
        <ele>265</ele>
        <time>2021-02-28T10:34:52.825Z</time>
      </trkpt>
      <trkpt lat="45.7728" lon="5.31538">
        <ele>266</ele>
        <time>2021-02-28T10:34:53.826Z</time>
      </trkpt>
      <trkpt lat="45.77279" lon="5.31541">
        <ele>266</ele>
        <time>2021-02-28T10:34:54.825Z</time>
      </trkpt>
      <trkpt lat="45.77277" lon="5.31543">
        <ele>266</ele>
        <time>2021-02-28T10:34:55.825Z</time>
      </trkpt>
      <trkpt lat="45.77275" lon="5.31546">
        <ele>266</ele>
        <time>2021-02-28T10:34:56.825Z</time>
      </trkpt>
      <trkpt lat="45.77272" lon="5.31548">
        <ele>266</ele>
        <time>2021-02-28T10:34:57.825Z</time>
      </trkpt>
      <trkpt lat="45.7727" lon="5.31552">
        <ele>266</ele>
        <time>2021-02-28T10:34:58.825Z</time>
      </trkpt>
      <trkpt lat="45.77267" lon="5.31555">
        <ele>266</ele>
        <time>2021-02-28T10:34:59.826Z</time>
      </trkpt>
      <trkpt lat="45.77266" lon="5.31557">
        <ele>266</ele>
        <time>2021-02-28T10:35:00.825Z</time>
      </trkpt>
      <trkpt lat="45.77263" lon="5.31561">
        <ele>266</ele>
        <time>2021-02-28T10:35:01.825Z</time>
      </trkpt>
      <trkpt lat="45.7726" lon="5.31564">
        <ele>267</ele>
        <time>2021-02-28T10:35:02.826Z</time>
      </trkpt>
      <trkpt lat="45.77258" lon="5.31568">
        <ele>267</ele>
        <time>2021-02-28T10:35:03.825Z</time>
      </trkpt>
      <trkpt lat="45.77255" lon="5.31571">
        <ele>267</ele>
        <time>2021-02-28T10:35:04.825Z</time>
      </trkpt>
      <trkpt lat="45.77252" lon="5.31574">
        <ele>267</ele>
        <time>2021-02-28T10:35:05.825Z</time>
      </trkpt>
      <trkpt lat="45.77249" lon="5.31578">
        <ele>268</ele>
        <time>2021-02-28T10:35:06.825Z</time>
      </trkpt>
      <trkpt lat="45.77246" lon="5.31581">
        <ele>268</ele>
        <time>2021-02-28T10:35:07.826Z</time>
      </trkpt>
      <trkpt lat="45.77243" lon="5.31585">
        <ele>269</ele>
        <time>2021-02-28T10:35:08.825Z</time>
      </trkpt>
      <trkpt lat="45.7724" lon="5.31588">
        <ele>269</ele>
        <time>2021-02-28T10:35:09.825Z</time>
      </trkpt>
      <trkpt lat="45.77236" lon="5.31592">
        <ele>269</ele>
        <time>2021-02-28T10:35:10.825Z</time>
      </trkpt>
      <trkpt lat="45.77233" lon="5.31596">
        <ele>270</ele>
        <time>2021-02-28T10:35:11.825Z</time>
      </trkpt>
      <trkpt lat="45.7723" lon="5.316">
        <ele>270</ele>
        <time>2021-02-28T10:35:12.826Z</time>
      </trkpt>
      <trkpt lat="45.77226" lon="5.31603">
        <ele>271</ele>
        <time>2021-02-28T10:35:13.825Z</time>
      </trkpt>
      <trkpt lat="45.77223" lon="5.31607">
        <ele>271</ele>
        <time>2021-02-28T10:35:14.825Z</time>
      </trkpt>
      <trkpt lat="45.7722" lon="5.31611">
        <ele>271</ele>
        <time>2021-02-28T10:35:15.825Z</time>
      </trkpt>
      <trkpt lat="45.77217" lon="5.31615">
        <ele>271</ele>
        <time>2021-02-28T10:35:16.825Z</time>
      </trkpt>
      <trkpt lat="45.77214" lon="5.31619">
        <ele>270</ele>
        <time>2021-02-28T10:35:17.825Z</time>
      </trkpt>
      <trkpt lat="45.77212" lon="5.31623">
        <ele>270</ele>
        <time>2021-02-28T10:35:18.825Z</time>
      </trkpt>
      <trkpt lat="45.77209" lon="5.31627">
        <ele>270</ele>
        <time>2021-02-28T10:35:19.825Z</time>
      </trkpt>
      <trkpt lat="45.77206" lon="5.31631">
        <ele>271</ele>
        <time>2021-02-28T10:35:20.825Z</time>
      </trkpt>
      <trkpt lat="45.77204" lon="5.31636">
        <ele>271</ele>
        <time>2021-02-28T10:35:21.826Z</time>
      </trkpt>
      <trkpt lat="45.77201" lon="5.3164">
        <ele>272</ele>
        <time>2021-02-28T10:35:22.826Z</time>
      </trkpt>
      <trkpt lat="45.77198" lon="5.31644">
        <ele>272</ele>
        <time>2021-02-28T10:35:23.825Z</time>
      </trkpt>
      <trkpt lat="45.77196" lon="5.31648">
        <ele>272</ele>
        <time>2021-02-28T10:35:24.825Z</time>
      </trkpt>
      <trkpt lat="45.77194" lon="5.31652">
        <ele>272</ele>
        <time>2021-02-28T10:35:25.825Z</time>
      </trkpt>
      <trkpt lat="45.77192" lon="5.31656">
        <ele>272</ele>
        <time>2021-02-28T10:35:26.825Z</time>
      </trkpt>
      <trkpt lat="45.7719" lon="5.31661">
        <ele>272</ele>
        <time>2021-02-28T10:35:27.825Z</time>
      </trkpt>
      <trkpt lat="45.77188" lon="5.31665">
        <ele>272</ele>
        <time>2021-02-28T10:35:28.826Z</time>
      </trkpt>
      <trkpt lat="45.77187" lon="5.31669">
        <ele>272</ele>
        <time>2021-02-28T10:35:29.825Z</time>
      </trkpt>
      <trkpt lat="45.77186" lon="5.31673">
        <ele>271</ele>
        <time>2021-02-28T10:35:30.826Z</time>
      </trkpt>
      <trkpt lat="45.77185" lon="5.31677">
        <ele>271</ele>
        <time>2021-02-28T10:35:31.826Z</time>
      </trkpt>
      <trkpt lat="45.77184" lon="5.31682">
        <ele>271</ele>
        <time>2021-02-28T10:35:32.825Z</time>
      </trkpt>
      <trkpt lat="45.77183" lon="5.31687">
        <ele>271</ele>
        <time>2021-02-28T10:35:33.825Z</time>
      </trkpt>
      <trkpt lat="45.77183" lon="5.31691">
        <ele>271</ele>
        <time>2021-02-28T10:35:34.825Z</time>
      </trkpt>
      <trkpt lat="45.77183" lon="5.31696">
        <ele>271</ele>
        <time>2021-02-28T10:35:35.826Z</time>
      </trkpt>
      <trkpt lat="45.77182" lon="5.31702">
        <ele>271</ele>
        <time>2021-02-28T10:35:36.825Z</time>
      </trkpt>
      <trkpt lat="45.77183" lon="5.31706">
        <ele>271</ele>
        <time>2021-02-28T10:35:37.825Z</time>
      </trkpt>
      <trkpt lat="45.77183" lon="5.3171">
        <ele>271</ele>
        <time>2021-02-28T10:35:38.825Z</time>
      </trkpt>
      <trkpt lat="45.77183" lon="5.31715">
        <ele>272</ele>
        <time>2021-02-28T10:35:39.826Z</time>
      </trkpt>
      <trkpt lat="45.77184" lon="5.31719">
        <ele>272</ele>
        <time>2021-02-28T10:35:40.825Z</time>
      </trkpt>
      <trkpt lat="45.77184" lon="5.31723">
        <ele>273</ele>
        <time>2021-02-28T10:35:41.825Z</time>
      </trkpt>
      <trkpt lat="45.77185" lon="5.31728">
        <ele>273</ele>
        <time>2021-02-28T10:35:42.825Z</time>
      </trkpt>
      <trkpt lat="45.77185" lon="5.31732">
        <ele>273</ele>
        <time>2021-02-28T10:35:43.825Z</time>
      </trkpt>
      <trkpt lat="45.77186" lon="5.31736">
        <ele>273</ele>
        <time>2021-02-28T10:35:44.825Z</time>
      </trkpt>
      <trkpt lat="45.77186" lon="5.31741">
        <ele>273</ele>
        <time>2021-02-28T10:35:45.825Z</time>
      </trkpt>
      <trkpt lat="45.77186" lon="5.31745">
        <ele>273</ele>
        <time>2021-02-28T10:35:46.825Z</time>
      </trkpt>
      <trkpt lat="45.77187" lon="5.3175">
        <ele>273</ele>
        <time>2021-02-28T10:35:47.825Z</time>
      </trkpt>
      <trkpt lat="45.77187" lon="5.31754">
        <ele>273</ele>
        <time>2021-02-28T10:35:48.826Z</time>
      </trkpt>
      <trkpt lat="45.77187" lon="5.31758">
        <ele>273</ele>
        <time>2021-02-28T10:35:49.825Z</time>
      </trkpt>
      <trkpt lat="45.77187" lon="5.31762">
        <ele>274</ele>
        <time>2021-02-28T10:35:50.825Z</time>
      </trkpt>
      <trkpt lat="45.77187" lon="5.31767">
        <ele>274</ele>
        <time>2021-02-28T10:35:51.826Z</time>
      </trkpt>
      <trkpt lat="45.77188" lon="5.31771">
        <ele>274</ele>
        <time>2021-02-28T10:35:52.826Z</time>
      </trkpt>
      <trkpt lat="45.77188" lon="5.31776">
        <ele>273</ele>
        <time>2021-02-28T10:35:53.825Z</time>
      </trkpt>
      <trkpt lat="45.77188" lon="5.3178">
        <ele>273</ele>
        <time>2021-02-28T10:35:54.825Z</time>
      </trkpt>
      <trkpt lat="45.77187" lon="5.31784">
        <ele>273</ele>
        <time>2021-02-28T10:35:55.826Z</time>
      </trkpt>
      <trkpt lat="45.77187" lon="5.31789">
        <ele>273</ele>
        <time>2021-02-28T10:35:56.825Z</time>
      </trkpt>
      <trkpt lat="45.77187" lon="5.31793">
        <ele>273</ele>
        <time>2021-02-28T10:35:57.825Z</time>
      </trkpt>
      <trkpt lat="45.77186" lon="5.31798">
        <ele>274</ele>
        <time>2021-02-28T10:35:58.825Z</time>
      </trkpt>
      <trkpt lat="45.77185" lon="5.31803">
        <ele>274</ele>
        <time>2021-02-28T10:35:59.826Z</time>
      </trkpt>
      <trkpt lat="45.77184" lon="5.31808">
        <ele>275</ele>
        <time>2021-02-28T10:36:00.826Z</time>
      </trkpt>
      <trkpt lat="45.77183" lon="5.31813">
        <ele>275</ele>
        <time>2021-02-28T10:36:01.825Z</time>
      </trkpt>
      <trkpt lat="45.77182" lon="5.31818">
        <ele>276</ele>
        <time>2021-02-28T10:36:02.826Z</time>
      </trkpt>
      <trkpt lat="45.7718" lon="5.31823">
        <ele>276</ele>
        <time>2021-02-28T10:36:03.826Z</time>
      </trkpt>
      <trkpt lat="45.77179" lon="5.31828">
        <ele>276</ele>
        <time>2021-02-28T10:36:04.825Z</time>
      </trkpt>
      <trkpt lat="45.77178" lon="5.31834">
        <ele>276</ele>
        <time>2021-02-28T10:36:05.825Z</time>
      </trkpt>
      <trkpt lat="45.77176" lon="5.31839">
        <ele>276</ele>
        <time>2021-02-28T10:36:06.825Z</time>
      </trkpt>
      <trkpt lat="45.77175" lon="5.31844">
        <ele>276</ele>
        <time>2021-02-28T10:36:07.825Z</time>
      </trkpt>
      <trkpt lat="45.77173" lon="5.3185">
        <ele>276</ele>
        <time>2021-02-28T10:36:08.825Z</time>
      </trkpt>
      <trkpt lat="45.77171" lon="5.31855">
        <ele>276</ele>
        <time>2021-02-28T10:36:09.825Z</time>
      </trkpt>
      <trkpt lat="45.77169" lon="5.3186">
        <ele>276</ele>
        <time>2021-02-28T10:36:10.826Z</time>
      </trkpt>
      <trkpt lat="45.77168" lon="5.31866">
        <ele>276</ele>
        <time>2021-02-28T10:36:11.826Z</time>
      </trkpt>
      <trkpt lat="45.77166" lon="5.31871">
        <ele>276</ele>
        <time>2021-02-28T10:36:12.825Z</time>
      </trkpt>
      <trkpt lat="45.77164" lon="5.31876">
        <ele>276</ele>
        <time>2021-02-28T10:36:13.826Z</time>
      </trkpt>
      <trkpt lat="45.77162" lon="5.31881">
        <ele>275</ele>
        <time>2021-02-28T10:36:14.825Z</time>
      </trkpt>
      <trkpt lat="45.7716" lon="5.31886">
        <ele>275</ele>
        <time>2021-02-28T10:36:15.825Z</time>
      </trkpt>
      <trkpt lat="45.77158" lon="5.31892">
        <ele>276</ele>
        <time>2021-02-28T10:36:16.826Z</time>
      </trkpt>
      <trkpt lat="45.77156" lon="5.31897">
        <ele>276</ele>
        <time>2021-02-28T10:36:17.826Z</time>
      </trkpt>
      <trkpt lat="45.77153" lon="5.31902">
        <ele>277</ele>
        <time>2021-02-28T10:36:18.826Z</time>
      </trkpt>
      <trkpt lat="45.77151" lon="5.31908">
        <ele>277</ele>
        <time>2021-02-28T10:36:19.825Z</time>
      </trkpt>
      <trkpt lat="45.77149" lon="5.31913">
        <ele>277</ele>
        <time>2021-02-28T10:36:20.825Z</time>
      </trkpt>
      <trkpt lat="45.77147" lon="5.31918">
        <ele>277</ele>
        <time>2021-02-28T10:36:21.825Z</time>
      </trkpt>
      <trkpt lat="45.77145" lon="5.31923">
        <ele>277</ele>
        <time>2021-02-28T10:36:22.825Z</time>
      </trkpt>
      <trkpt lat="45.77142" lon="5.31928">
        <ele>277</ele>
        <time>2021-02-28T10:36:23.826Z</time>
      </trkpt>
      <trkpt lat="45.77139" lon="5.31933">
        <ele>277</ele>
        <time>2021-02-28T10:36:24.826Z</time>
      </trkpt>
      <trkpt lat="45.77137" lon="5.31937">
        <ele>277</ele>
        <time>2021-02-28T10:36:25.826Z</time>
      </trkpt>
      <trkpt lat="45.77133" lon="5.31941">
        <ele>277</ele>
        <time>2021-02-28T10:36:26.825Z</time>
      </trkpt>
      <trkpt lat="45.7713" lon="5.31945">
        <ele>278</ele>
        <time>2021-02-28T10:36:27.825Z</time>
      </trkpt>
      <trkpt lat="45.77126" lon="5.31948">
        <ele>278</ele>
        <time>2021-02-28T10:36:28.825Z</time>
      </trkpt>
      <trkpt lat="45.77122" lon="5.31951">
        <ele>279</ele>
        <time>2021-02-28T10:36:29.825Z</time>
      </trkpt>
      <trkpt lat="45.77118" lon="5.31953">
        <ele>279</ele>
        <time>2021-02-28T10:36:30.825Z</time>
      </trkpt>
      <trkpt lat="45.77114" lon="5.31955">
        <ele>279</ele>
        <time>2021-02-28T10:36:31.825Z</time>
      </trkpt>
      <trkpt lat="45.7711" lon="5.31956">
        <ele>280</ele>
        <time>2021-02-28T10:36:32.826Z</time>
      </trkpt>
      <trkpt lat="45.77106" lon="5.31957">
        <ele>280</ele>
        <time>2021-02-28T10:36:33.825Z</time>
      </trkpt>
      <trkpt lat="45.77101" lon="5.31958">
        <ele>280</ele>
        <time>2021-02-28T10:36:34.825Z</time>
      </trkpt>
      <trkpt lat="45.77096" lon="5.3196">
        <ele>280</ele>
        <time>2021-02-28T10:36:35.825Z</time>
      </trkpt>
      <trkpt lat="45.77091" lon="5.31961">
        <ele>280</ele>
        <time>2021-02-28T10:36:36.826Z</time>
      </trkpt>
      <trkpt lat="45.77086" lon="5.31962">
        <ele>280</ele>
        <time>2021-02-28T10:36:37.826Z</time>
      </trkpt>
      <trkpt lat="45.77081" lon="5.31963">
        <ele>280</ele>
        <time>2021-02-28T10:36:38.826Z</time>
      </trkpt>
      <trkpt lat="45.77076" lon="5.31964">
        <ele>280</ele>
        <time>2021-02-28T10:36:39.826Z</time>
      </trkpt>
      <trkpt lat="45.77071" lon="5.31966">
        <ele>280</ele>
        <time>2021-02-28T10:36:40.825Z</time>
      </trkpt>
      <trkpt lat="45.77064" lon="5.31968">
        <ele>280</ele>
        <time>2021-02-28T10:36:41.825Z</time>
      </trkpt>
      <trkpt lat="45.7706" lon="5.31969">
        <ele>280</ele>
        <time>2021-02-28T10:36:42.825Z</time>
      </trkpt>
      <trkpt lat="45.77054" lon="5.31971">
        <ele>280</ele>
        <time>2021-02-28T10:36:43.826Z</time>
      </trkpt>
      <trkpt lat="45.77047" lon="5.31972">
        <ele>280</ele>
        <time>2021-02-28T10:36:44.826Z</time>
      </trkpt>
      <trkpt lat="45.77041" lon="5.31974">
        <ele>279</ele>
        <time>2021-02-28T10:36:45.826Z</time>
      </trkpt>
      <trkpt lat="45.77035" lon="5.31975">
        <ele>279</ele>
        <time>2021-02-28T10:36:46.825Z</time>
      </trkpt>
      <trkpt lat="45.77027" lon="5.31977">
        <ele>278</ele>
        <time>2021-02-28T10:36:47.825Z</time>
      </trkpt>
      <trkpt lat="45.77022" lon="5.31978">
        <ele>278</ele>
        <time>2021-02-28T10:36:48.825Z</time>
      </trkpt>
      <trkpt lat="45.77016" lon="5.3198">
        <ele>278</ele>
        <time>2021-02-28T10:36:49.825Z</time>
      </trkpt>
      <trkpt lat="45.77009" lon="5.31982">
        <ele>278</ele>
        <time>2021-02-28T10:36:50.826Z</time>
      </trkpt>
      <trkpt lat="45.77003" lon="5.31984">
        <ele>278</ele>
        <time>2021-02-28T10:36:51.826Z</time>
      </trkpt>
      <trkpt lat="45.76996" lon="5.31986">
        <ele>278</ele>
        <time>2021-02-28T10:36:52.825Z</time>
      </trkpt>
      <trkpt lat="45.7699" lon="5.31988">
        <ele>278</ele>
        <time>2021-02-28T10:36:53.825Z</time>
      </trkpt>
      <trkpt lat="45.76984" lon="5.31991">
        <ele>278</ele>
        <time>2021-02-28T10:36:54.825Z</time>
      </trkpt>
      <trkpt lat="45.76977" lon="5.31993">
        <ele>278</ele>
        <time>2021-02-28T10:36:55.825Z</time>
      </trkpt>
      <trkpt lat="45.76972" lon="5.31995">
        <ele>278</ele>
        <time>2021-02-28T10:36:56.826Z</time>
      </trkpt>
      <trkpt lat="45.76966" lon="5.31998">
        <ele>278</ele>
        <time>2021-02-28T10:36:57.825Z</time>
      </trkpt>
      <trkpt lat="45.7696" lon="5.32">
        <ele>277</ele>
        <time>2021-02-28T10:36:58.825Z</time>
      </trkpt>
      <trkpt lat="45.76954" lon="5.32002">
        <ele>277</ele>
        <time>2021-02-28T10:36:59.826Z</time>
      </trkpt>
      <trkpt lat="45.76948" lon="5.32005">
        <ele>277</ele>
        <time>2021-02-28T10:37:00.825Z</time>
      </trkpt>
      <trkpt lat="45.76942" lon="5.32007">
        <ele>277</ele>
        <time>2021-02-28T10:37:01.825Z</time>
      </trkpt>
      <trkpt lat="45.76935" lon="5.3201">
        <ele>277</ele>
        <time>2021-02-28T10:37:02.826Z</time>
      </trkpt>
      <trkpt lat="45.7693" lon="5.32012">
        <ele>276</ele>
        <time>2021-02-28T10:37:03.826Z</time>
      </trkpt>
      <trkpt lat="45.76924" lon="5.32014">
        <ele>276</ele>
        <time>2021-02-28T10:37:04.825Z</time>
      </trkpt>
      <trkpt lat="45.76918" lon="5.32015">
        <ele>276</ele>
        <time>2021-02-28T10:37:05.825Z</time>
      </trkpt>
      <trkpt lat="45.76912" lon="5.32016">
        <ele>276</ele>
        <time>2021-02-28T10:37:06.826Z</time>
      </trkpt>
      <trkpt lat="45.76906" lon="5.32017">
        <ele>276</ele>
        <time>2021-02-28T10:37:07.826Z</time>
      </trkpt>
      <trkpt lat="45.769" lon="5.32017">
        <ele>276</ele>
        <time>2021-02-28T10:37:08.826Z</time>
      </trkpt>
      <trkpt lat="45.76894" lon="5.32017">
        <ele>276</ele>
        <time>2021-02-28T10:37:09.825Z</time>
      </trkpt>
      <trkpt lat="45.76888" lon="5.32017">
        <ele>276</ele>
        <time>2021-02-28T10:37:10.825Z</time>
      </trkpt>
      <trkpt lat="45.76883" lon="5.32017">
        <ele>276</ele>
        <time>2021-02-28T10:37:11.826Z</time>
      </trkpt>
      <trkpt lat="45.76876" lon="5.32016">
        <ele>276</ele>
        <time>2021-02-28T10:37:12.825Z</time>
      </trkpt>
      <trkpt lat="45.76871" lon="5.32016">
        <ele>276</ele>
        <time>2021-02-28T10:37:13.826Z</time>
      </trkpt>
      <trkpt lat="45.76867" lon="5.32015">
        <ele>277</ele>
        <time>2021-02-28T10:37:14.825Z</time>
      </trkpt>
      <trkpt lat="45.76862" lon="5.32015">
        <ele>277</ele>
        <time>2021-02-28T10:37:15.825Z</time>
      </trkpt>
      <trkpt lat="45.76856" lon="5.32015">
        <ele>277</ele>
        <time>2021-02-28T10:37:16.825Z</time>
      </trkpt>
      <trkpt lat="45.76851" lon="5.32014">
        <ele>277</ele>
        <time>2021-02-28T10:37:17.825Z</time>
      </trkpt>
      <trkpt lat="45.76848" lon="5.32014">
        <ele>278</ele>
        <time>2021-02-28T10:37:18.825Z</time>
      </trkpt>
      <trkpt lat="45.76843" lon="5.32013">
        <ele>278</ele>
        <time>2021-02-28T10:37:19.825Z</time>
      </trkpt>
      <trkpt lat="45.76838" lon="5.32013">
        <ele>278</ele>
        <time>2021-02-28T10:37:20.825Z</time>
      </trkpt>
      <trkpt lat="45.76833" lon="5.32012">
        <ele>279</ele>
        <time>2021-02-28T10:37:21.826Z</time>
      </trkpt>
      <trkpt lat="45.76828" lon="5.32011">
        <ele>279</ele>
        <time>2021-02-28T10:37:22.825Z</time>
      </trkpt>
      <trkpt lat="45.76824" lon="5.32011">
        <ele>279</ele>
        <time>2021-02-28T10:37:23.826Z</time>
      </trkpt>
      <trkpt lat="45.76819" lon="5.32011">
        <ele>280</ele>
        <time>2021-02-28T10:37:24.826Z</time>
      </trkpt>
      <trkpt lat="45.76814" lon="5.32011">
        <ele>280</ele>
        <time>2021-02-28T10:37:25.825Z</time>
      </trkpt>
      <trkpt lat="45.76809" lon="5.32011">
        <ele>280</ele>
        <time>2021-02-28T10:37:26.825Z</time>
      </trkpt>
      <trkpt lat="45.76805" lon="5.32011">
        <ele>280</ele>
        <time>2021-02-28T10:37:27.825Z</time>
      </trkpt>
      <trkpt lat="45.76801" lon="5.32012">
        <ele>280</ele>
        <time>2021-02-28T10:37:28.825Z</time>
      </trkpt>
      <trkpt lat="45.76797" lon="5.32013">
        <ele>280</ele>
        <time>2021-02-28T10:37:29.825Z</time>
      </trkpt>
      <trkpt lat="45.76792" lon="5.32015">
        <ele>280</ele>
        <time>2021-02-28T10:37:30.825Z</time>
      </trkpt>
      <trkpt lat="45.76788" lon="5.32017">
        <ele>280</ele>
        <time>2021-02-28T10:37:31.825Z</time>
      </trkpt>
      <trkpt lat="45.76785" lon="5.32018">
        <ele>280</ele>
        <time>2021-02-28T10:37:32.825Z</time>
      </trkpt>
      <trkpt lat="45.76781" lon="5.3202">
        <ele>280</ele>
        <time>2021-02-28T10:37:33.825Z</time>
      </trkpt>
      <trkpt lat="45.76776" lon="5.32023">
        <ele>280</ele>
        <time>2021-02-28T10:37:34.825Z</time>
      </trkpt>
      <trkpt lat="45.76772" lon="5.32024">
        <ele>280</ele>
        <time>2021-02-28T10:37:35.825Z</time>
      </trkpt>
      <trkpt lat="45.76768" lon="5.32027">
        <ele>279</ele>
        <time>2021-02-28T10:37:36.825Z</time>
      </trkpt>
      <trkpt lat="45.76764" lon="5.32029">
        <ele>279</ele>
        <time>2021-02-28T10:37:37.826Z</time>
      </trkpt>
      <trkpt lat="45.76761" lon="5.32031">
        <ele>279</ele>
        <time>2021-02-28T10:37:38.825Z</time>
      </trkpt>
      <trkpt lat="45.76756" lon="5.32032">
        <ele>279</ele>
        <time>2021-02-28T10:37:39.826Z</time>
      </trkpt>
      <trkpt lat="45.76752" lon="5.32034">
        <ele>279</ele>
        <time>2021-02-28T10:37:40.825Z</time>
      </trkpt>
      <trkpt lat="45.76747" lon="5.32036">
        <ele>279</ele>
        <time>2021-02-28T10:37:41.826Z</time>
      </trkpt>
      <trkpt lat="45.76743" lon="5.32038">
        <ele>279</ele>
        <time>2021-02-28T10:37:42.825Z</time>
      </trkpt>
      <trkpt lat="45.76739" lon="5.3204">
        <ele>279</ele>
        <time>2021-02-28T10:37:43.825Z</time>
      </trkpt>
      <trkpt lat="45.76733" lon="5.32043">
        <ele>279</ele>
        <time>2021-02-28T10:37:44.826Z</time>
      </trkpt>
      <trkpt lat="45.76729" lon="5.32045">
        <ele>279</ele>
        <time>2021-02-28T10:37:45.825Z</time>
      </trkpt>
      <trkpt lat="45.76725" lon="5.32047">
        <ele>279</ele>
        <time>2021-02-28T10:37:46.825Z</time>
      </trkpt>
      <trkpt lat="45.76721" lon="5.32048">
        <ele>279</ele>
        <time>2021-02-28T10:37:47.825Z</time>
      </trkpt>
      <trkpt lat="45.76716" lon="5.3205">
        <ele>279</ele>
        <time>2021-02-28T10:37:48.826Z</time>
      </trkpt>
      <trkpt lat="45.76711" lon="5.32053">
        <ele>279</ele>
        <time>2021-02-28T10:37:49.825Z</time>
      </trkpt>
      <trkpt lat="45.76707" lon="5.32055">
        <ele>279</ele>
        <time>2021-02-28T10:37:50.826Z</time>
      </trkpt>
      <trkpt lat="45.76702" lon="5.32057">
        <ele>280</ele>
        <time>2021-02-28T10:37:51.825Z</time>
      </trkpt>
      <trkpt lat="45.76697" lon="5.32059">
        <ele>280</ele>
        <time>2021-02-28T10:37:52.826Z</time>
      </trkpt>
      <trkpt lat="45.76693" lon="5.32061">
        <ele>280</ele>
        <time>2021-02-28T10:37:53.825Z</time>
      </trkpt>
      <trkpt lat="45.76688" lon="5.32063">
        <ele>280</ele>
        <time>2021-02-28T10:37:54.825Z</time>
      </trkpt>
      <trkpt lat="45.76683" lon="5.32064">
        <ele>280</ele>
        <time>2021-02-28T10:37:55.825Z</time>
      </trkpt>
      <trkpt lat="45.76678" lon="5.32066">
        <ele>280</ele>
        <time>2021-02-28T10:37:56.825Z</time>
      </trkpt>
      <trkpt lat="45.76674" lon="5.32067">
        <ele>280</ele>
        <time>2021-02-28T10:37:57.825Z</time>
      </trkpt>
      <trkpt lat="45.76669" lon="5.32069">
        <ele>280</ele>
        <time>2021-02-28T10:37:58.826Z</time>
      </trkpt>
      <trkpt lat="45.76664" lon="5.3207">
        <ele>280</ele>
        <time>2021-02-28T10:37:59.826Z</time>
      </trkpt>
      <trkpt lat="45.76659" lon="5.32072">
        <ele>280</ele>
        <time>2021-02-28T10:38:00.825Z</time>
      </trkpt>
      <trkpt lat="45.76654" lon="5.32073">
        <ele>280</ele>
        <time>2021-02-28T10:38:01.825Z</time>
      </trkpt>
      <trkpt lat="45.76651" lon="5.32075">
        <ele>280</ele>
        <time>2021-02-28T10:38:02.826Z</time>
      </trkpt>
      <trkpt lat="45.76646" lon="5.32076">
        <ele>280</ele>
        <time>2021-02-28T10:38:03.825Z</time>
      </trkpt>
      <trkpt lat="45.76641" lon="5.32077">
        <ele>280</ele>
        <time>2021-02-28T10:38:04.826Z</time>
      </trkpt>
      <trkpt lat="45.76637" lon="5.32078">
        <ele>280</ele>
        <time>2021-02-28T10:38:05.825Z</time>
      </trkpt>
      <trkpt lat="45.76632" lon="5.3208">
        <ele>280</ele>
        <time>2021-02-28T10:38:06.825Z</time>
      </trkpt>
      <trkpt lat="45.76627" lon="5.32082">
        <ele>279</ele>
        <time>2021-02-28T10:38:07.825Z</time>
      </trkpt>
      <trkpt lat="45.76622" lon="5.32083">
        <ele>279</ele>
        <time>2021-02-28T10:38:08.825Z</time>
      </trkpt>
      <trkpt lat="45.76617" lon="5.32085">
        <ele>279</ele>
        <time>2021-02-28T10:38:09.825Z</time>
      </trkpt>
      <trkpt lat="45.76612" lon="5.32086">
        <ele>279</ele>
        <time>2021-02-28T10:38:10.825Z</time>
      </trkpt>
      <trkpt lat="45.76606" lon="5.32088">
        <ele>279</ele>
        <time>2021-02-28T10:38:11.825Z</time>
      </trkpt>
      <trkpt lat="45.76599" lon="5.3209">
        <ele>279</ele>
        <time>2021-02-28T10:38:12.825Z</time>
      </trkpt>
      <trkpt lat="45.76592" lon="5.32093">
        <ele>279</ele>
        <time>2021-02-28T10:38:13.825Z</time>
      </trkpt>
      <trkpt lat="45.76585" lon="5.32097">
        <ele>278</ele>
        <time>2021-02-28T10:38:14.825Z</time>
      </trkpt>
      <trkpt lat="45.76577" lon="5.32104">
        <ele>278</ele>
        <time>2021-02-28T10:38:15.825Z</time>
      </trkpt>
      <trkpt lat="45.7657" lon="5.3211">
        <ele>278</ele>
        <time>2021-02-28T10:38:16.826Z</time>
      </trkpt>
      <trkpt lat="45.76564" lon="5.32116">
        <ele>277</ele>
        <time>2021-02-28T10:38:17.825Z</time>
      </trkpt>
      <trkpt lat="45.76556" lon="5.32125">
        <ele>277</ele>
        <time>2021-02-28T10:38:18.825Z</time>
      </trkpt>
      <trkpt lat="45.76549" lon="5.32133">
        <ele>276</ele>
        <time>2021-02-28T10:38:19.826Z</time>
      </trkpt>
      <trkpt lat="45.76541" lon="5.32142">
        <ele>276</ele>
        <time>2021-02-28T10:38:20.825Z</time>
      </trkpt>
      <trkpt lat="45.76532" lon="5.32152">
        <ele>276</ele>
        <time>2021-02-28T10:38:21.825Z</time>
      </trkpt>
      <trkpt lat="45.76526" lon="5.32159">
        <ele>275</ele>
        <time>2021-02-28T10:38:22.825Z</time>
      </trkpt>
      <trkpt lat="45.76519" lon="5.32167">
        <ele>275</ele>
        <time>2021-02-28T10:38:23.825Z</time>
      </trkpt>
      <trkpt lat="45.7651" lon="5.32176">
        <ele>275</ele>
        <time>2021-02-28T10:38:24.826Z</time>
      </trkpt>
      <trkpt lat="45.76505" lon="5.32182">
        <ele>276</ele>
        <time>2021-02-28T10:38:25.825Z</time>
      </trkpt>
      <trkpt lat="45.76499" lon="5.32189">
        <ele>276</ele>
        <time>2021-02-28T10:38:26.825Z</time>
      </trkpt>
      <trkpt lat="45.76493" lon="5.32195">
        <ele>277</ele>
        <time>2021-02-28T10:38:27.826Z</time>
      </trkpt>
      <trkpt lat="45.76488" lon="5.322">
        <ele>277</ele>
        <time>2021-02-28T10:38:28.825Z</time>
      </trkpt>
      <trkpt lat="45.76482" lon="5.32204">
        <ele>277</ele>
        <time>2021-02-28T10:38:29.826Z</time>
      </trkpt>
      <trkpt lat="45.76478" lon="5.32208">
        <ele>277</ele>
        <time>2021-02-28T10:38:30.825Z</time>
      </trkpt>
      <trkpt lat="45.76475" lon="5.32211">
        <ele>277</ele>
        <time>2021-02-28T10:38:31.825Z</time>
      </trkpt>
      <trkpt lat="45.7647" lon="5.32214">
        <ele>278</ele>
        <time>2021-02-28T10:38:32.825Z</time>
      </trkpt>
      <trkpt lat="45.76466" lon="5.32218">
        <ele>278</ele>
        <time>2021-02-28T10:38:33.825Z</time>
      </trkpt>
      <trkpt lat="45.76462" lon="5.32221">
        <ele>278</ele>
        <time>2021-02-28T10:38:34.825Z</time>
      </trkpt>
      <trkpt lat="45.76459" lon="5.32224">
        <ele>278</ele>
        <time>2021-02-28T10:38:35.825Z</time>
      </trkpt>
      <trkpt lat="45.76455" lon="5.32227">
        <ele>278</ele>
        <time>2021-02-28T10:38:36.825Z</time>
      </trkpt>
      <trkpt lat="45.7645" lon="5.3223">
        <ele>278</ele>
        <time>2021-02-28T10:38:37.825Z</time>
      </trkpt>
      <trkpt lat="45.76446" lon="5.32233">
        <ele>278</ele>
        <time>2021-02-28T10:38:38.825Z</time>
      </trkpt>
      <trkpt lat="45.76442" lon="5.32236">
        <ele>278</ele>
        <time>2021-02-28T10:45:53.901Z</time>
      </trkpt>
      <trkpt lat="45.76437" lon="5.32239">
        <ele>278</ele>
        <time>2021-02-28T10:45:54.902Z</time>
      </trkpt>
      <trkpt lat="45.76433" lon="5.32242">
        <ele>278</ele>
        <time>2021-02-28T10:45:55.901Z</time>
      </trkpt>
      <trkpt lat="45.7643" lon="5.32244">
        <ele>278</ele>
        <time>2021-02-28T10:45:56.901Z</time>
      </trkpt>
      <trkpt lat="45.76426" lon="5.32246">
        <ele>277</ele>
        <time>2021-02-28T10:45:57.902Z</time>
      </trkpt>
      <trkpt lat="45.76422" lon="5.32248">
        <ele>277</ele>
        <time>2021-02-28T10:45:58.902Z</time>
      </trkpt>
      <trkpt lat="45.76417" lon="5.32251">
        <ele>277</ele>
        <time>2021-02-28T10:45:59.902Z</time>
      </trkpt>
      <trkpt lat="45.76414" lon="5.32253">
        <ele>277</ele>
        <time>2021-02-28T10:46:00.901Z</time>
      </trkpt>
      <trkpt lat="45.7641" lon="5.32255">
        <ele>278</ele>
        <time>2021-02-28T10:46:01.902Z</time>
      </trkpt>
      <trkpt lat="45.76406" lon="5.32257">
        <ele>279</ele>
        <time>2021-02-28T10:46:02.901Z</time>
      </trkpt>
      <trkpt lat="45.76402" lon="5.32259">
        <ele>279</ele>
        <time>2021-02-28T10:46:03.901Z</time>
      </trkpt>
      <trkpt lat="45.76397" lon="5.32261">
        <ele>280</ele>
        <time>2021-02-28T10:46:04.901Z</time>
      </trkpt>
      <trkpt lat="45.76393" lon="5.32263">
        <ele>280</ele>
        <time>2021-02-28T10:46:05.901Z</time>
      </trkpt>
      <trkpt lat="45.76389" lon="5.32265">
        <ele>281</ele>
        <time>2021-02-28T10:46:06.901Z</time>
      </trkpt>
      <trkpt lat="45.76385" lon="5.32267">
        <ele>282</ele>
        <time>2021-02-28T10:46:07.901Z</time>
      </trkpt>
      <trkpt lat="45.7638" lon="5.32269">
        <ele>282</ele>
        <time>2021-02-28T10:46:08.901Z</time>
      </trkpt>
      <trkpt lat="45.76375" lon="5.32272">
        <ele>282</ele>
        <time>2021-02-28T10:46:09.901Z</time>
      </trkpt>
      <trkpt lat="45.76371" lon="5.32274">
        <ele>282</ele>
        <time>2021-02-28T10:46:10.901Z</time>
      </trkpt>
      <trkpt lat="45.76366" lon="5.32276">
        <ele>281</ele>
        <time>2021-02-28T10:46:11.901Z</time>
      </trkpt>
      <trkpt lat="45.7636" lon="5.32278">
        <ele>281</ele>
        <time>2021-02-28T10:46:12.901Z</time>
      </trkpt>
      <trkpt lat="45.76355" lon="5.32281">
        <ele>281</ele>
        <time>2021-02-28T10:46:13.902Z</time>
      </trkpt>
      <trkpt lat="45.76349" lon="5.32283">
        <ele>281</ele>
        <time>2021-02-28T10:46:14.901Z</time>
      </trkpt>
      <trkpt lat="45.76344" lon="5.32285">
        <ele>280</ele>
        <time>2021-02-28T10:46:15.901Z</time>
      </trkpt>
      <trkpt lat="45.76339" lon="5.32287">
        <ele>280</ele>
        <time>2021-02-28T10:46:16.902Z</time>
      </trkpt>
      <trkpt lat="45.76334" lon="5.32289">
        <ele>280</ele>
        <time>2021-02-28T10:46:17.902Z</time>
      </trkpt>
      <trkpt lat="45.76328" lon="5.32291">
        <ele>280</ele>
        <time>2021-02-28T10:46:18.901Z</time>
      </trkpt>
      <trkpt lat="45.76323" lon="5.32293">
        <ele>280</ele>
        <time>2021-02-28T10:46:19.901Z</time>
      </trkpt>
      <trkpt lat="45.76318" lon="5.32295">
        <ele>280</ele>
        <time>2021-02-28T10:46:20.901Z</time>
      </trkpt>
      <trkpt lat="45.76312" lon="5.32297">
        <ele>279</ele>
        <time>2021-02-28T10:46:21.902Z</time>
      </trkpt>
      <trkpt lat="45.76307" lon="5.32299">
        <ele>279</ele>
        <time>2021-02-28T10:46:22.902Z</time>
      </trkpt>
      <trkpt lat="45.76302" lon="5.32302">
        <ele>279</ele>
        <time>2021-02-28T10:46:23.901Z</time>
      </trkpt>
      <trkpt lat="45.76295" lon="5.32304">
        <ele>279</ele>
        <time>2021-02-28T10:46:24.901Z</time>
      </trkpt>
      <trkpt lat="45.76291" lon="5.32305">
        <ele>279</ele>
        <time>2021-02-28T10:46:25.902Z</time>
      </trkpt>
      <trkpt lat="45.76286" lon="5.32307">
        <ele>279</ele>
        <time>2021-02-28T10:46:26.901Z</time>
      </trkpt>
      <trkpt lat="45.76281" lon="5.32308">
        <ele>279</ele>
        <time>2021-02-28T10:46:27.901Z</time>
      </trkpt>
      <trkpt lat="45.76275" lon="5.3231">
        <ele>279</ele>
        <time>2021-02-28T10:46:28.901Z</time>
      </trkpt>
      <trkpt lat="45.76269" lon="5.32312">
        <ele>279</ele>
        <time>2021-02-28T10:46:29.901Z</time>
      </trkpt>
      <trkpt lat="45.76263" lon="5.32314">
        <ele>279</ele>
        <time>2021-02-28T10:46:30.901Z</time>
      </trkpt>
      <trkpt lat="45.76257" lon="5.32315">
        <ele>279</ele>
        <time>2021-02-28T10:46:31.901Z</time>
      </trkpt>
      <trkpt lat="45.76251" lon="5.32317">
        <ele>279</ele>
        <time>2021-02-28T10:46:32.901Z</time>
      </trkpt>
      <trkpt lat="45.76245" lon="5.32319">
        <ele>279</ele>
        <time>2021-02-28T10:46:33.901Z</time>
      </trkpt>
      <trkpt lat="45.76239" lon="5.32322">
        <ele>279</ele>
        <time>2021-02-28T10:46:34.902Z</time>
      </trkpt>
      <trkpt lat="45.76233" lon="5.32325">
        <ele>279</ele>
        <time>2021-02-28T10:46:35.902Z</time>
      </trkpt>
      <trkpt lat="45.76227" lon="5.32328">
        <ele>279</ele>
        <time>2021-02-28T10:46:36.902Z</time>
      </trkpt>
      <trkpt lat="45.76222" lon="5.32331">
        <ele>279</ele>
        <time>2021-02-28T10:46:37.902Z</time>
      </trkpt>
      <trkpt lat="45.76216" lon="5.32335">
        <ele>279</ele>
        <time>2021-02-28T10:46:38.902Z</time>
      </trkpt>
      <trkpt lat="45.76209" lon="5.3234">
        <ele>279</ele>
        <time>2021-02-28T10:46:39.901Z</time>
      </trkpt>
      <trkpt lat="45.76204" lon="5.32343">
        <ele>278</ele>
        <time>2021-02-28T10:46:40.901Z</time>
      </trkpt>
      <trkpt lat="45.76198" lon="5.32347">
        <ele>278</ele>
        <time>2021-02-28T10:46:41.901Z</time>
      </trkpt>
      <trkpt lat="45.76193" lon="5.32352">
        <ele>278</ele>
        <time>2021-02-28T10:46:42.902Z</time>
      </trkpt>
      <trkpt lat="45.76187" lon="5.32357">
        <ele>277</ele>
        <time>2021-02-28T10:46:43.902Z</time>
      </trkpt>
      <trkpt lat="45.76182" lon="5.32363">
        <ele>277</ele>
        <time>2021-02-28T10:46:44.901Z</time>
      </trkpt>
      <trkpt lat="45.76178" lon="5.32367">
        <ele>276</ele>
        <time>2021-02-28T10:46:45.901Z</time>
      </trkpt>
      <trkpt lat="45.76174" lon="5.32373">
        <ele>276</ele>
        <time>2021-02-28T10:46:46.902Z</time>
      </trkpt>
      <trkpt lat="45.7617" lon="5.32379">
        <ele>276</ele>
        <time>2021-02-28T10:46:47.901Z</time>
      </trkpt>
      <trkpt lat="45.76167" lon="5.32386">
        <ele>276</ele>
        <time>2021-02-28T10:46:48.902Z</time>
      </trkpt>
      <trkpt lat="45.76163" lon="5.32393">
        <ele>276</ele>
        <time>2021-02-28T10:46:49.901Z</time>
      </trkpt>
      <trkpt lat="45.76161" lon="5.32401">
        <ele>276</ele>
        <time>2021-02-28T10:46:50.901Z</time>
      </trkpt>
      <trkpt lat="45.76158" lon="5.32409">
        <ele>276</ele>
        <time>2021-02-28T10:46:51.902Z</time>
      </trkpt>
      <trkpt lat="45.76156" lon="5.32417">
        <ele>277</ele>
        <time>2021-02-28T10:46:52.901Z</time>
      </trkpt>
      <trkpt lat="45.76154" lon="5.32426">
        <ele>277</ele>
        <time>2021-02-28T10:46:53.902Z</time>
      </trkpt>
      <trkpt lat="45.76152" lon="5.32434">
        <ele>277</ele>
        <time>2021-02-28T10:46:54.901Z</time>
      </trkpt>
      <trkpt lat="45.76151" lon="5.32443">
        <ele>278</ele>
        <time>2021-02-28T10:46:55.902Z</time>
      </trkpt>
      <trkpt lat="45.76149" lon="5.32451">
        <ele>278</ele>
        <time>2021-02-28T10:46:56.901Z</time>
      </trkpt>
      <trkpt lat="45.76147" lon="5.32459">
        <ele>278</ele>
        <time>2021-02-28T10:46:57.901Z</time>
      </trkpt>
      <trkpt lat="45.76144" lon="5.32469">
        <ele>278</ele>
        <time>2021-02-28T10:46:58.901Z</time>
      </trkpt>
      <trkpt lat="45.76141" lon="5.32475">
        <ele>277</ele>
        <time>2021-02-28T10:46:59.901Z</time>
      </trkpt>
      <trkpt lat="45.76138" lon="5.32482">
        <ele>277</ele>
        <time>2021-02-28T10:47:00.901Z</time>
      </trkpt>
      <trkpt lat="45.76134" lon="5.32489">
        <ele>277</ele>
        <time>2021-02-28T10:47:01.901Z</time>
      </trkpt>
      <trkpt lat="45.7613" lon="5.32495">
        <ele>276</ele>
        <time>2021-02-28T10:47:02.901Z</time>
      </trkpt>
      <trkpt lat="45.76124" lon="5.32501">
        <ele>276</ele>
        <time>2021-02-28T10:47:03.901Z</time>
      </trkpt>
      <trkpt lat="45.76121" lon="5.32505">
        <ele>276</ele>
        <time>2021-02-28T10:47:04.901Z</time>
      </trkpt>
      <trkpt lat="45.76116" lon="5.3251">
        <ele>276</ele>
        <time>2021-02-28T10:47:05.901Z</time>
      </trkpt>
      <trkpt lat="45.76111" lon="5.32514">
        <ele>276</ele>
        <time>2021-02-28T10:47:06.902Z</time>
      </trkpt>
      <trkpt lat="45.76105" lon="5.32518">
        <ele>276</ele>
        <time>2021-02-28T10:47:07.901Z</time>
      </trkpt>
      <trkpt lat="45.76099" lon="5.32522">
        <ele>275</ele>
        <time>2021-02-28T10:47:08.901Z</time>
      </trkpt>
      <trkpt lat="45.76095" lon="5.32524">
        <ele>275</ele>
        <time>2021-02-28T10:47:09.901Z</time>
      </trkpt>
      <trkpt lat="45.76089" lon="5.32527">
        <ele>275</ele>
        <time>2021-02-28T10:47:10.901Z</time>
      </trkpt>
      <trkpt lat="45.76084" lon="5.32529">
        <ele>274</ele>
        <time>2021-02-28T10:47:11.901Z</time>
      </trkpt>
      <trkpt lat="45.76078" lon="5.32531">
        <ele>274</ele>
        <time>2021-02-28T10:47:12.902Z</time>
      </trkpt>
      <trkpt lat="45.76073" lon="5.32533">
        <ele>275</ele>
        <time>2021-02-28T10:47:13.901Z</time>
      </trkpt>
      <trkpt lat="45.76067" lon="5.32533">
        <ele>275</ele>
        <time>2021-02-28T10:47:14.901Z</time>
      </trkpt>
      <trkpt lat="45.76061" lon="5.32534">
        <ele>276</ele>
        <time>2021-02-28T10:47:15.902Z</time>
      </trkpt>
      <trkpt lat="45.76055" lon="5.32534">
        <ele>276</ele>
        <time>2021-02-28T10:47:16.901Z</time>
      </trkpt>
      <trkpt lat="45.76049" lon="5.32534">
        <ele>277</ele>
        <time>2021-02-28T10:47:17.901Z</time>
      </trkpt>
      <trkpt lat="45.76044" lon="5.32534">
        <ele>277</ele>
        <time>2021-02-28T10:47:18.901Z</time>
      </trkpt>
      <trkpt lat="45.76038" lon="5.32534">
        <ele>278</ele>
        <time>2021-02-28T10:47:19.901Z</time>
      </trkpt>
      <trkpt lat="45.76032" lon="5.32535">
        <ele>278</ele>
        <time>2021-02-28T10:47:20.901Z</time>
      </trkpt>
      <trkpt lat="45.76026" lon="5.32536">
        <ele>279</ele>
        <time>2021-02-28T10:47:21.901Z</time>
      </trkpt>
      <trkpt lat="45.7602" lon="5.32537">
        <ele>279</ele>
        <time>2021-02-28T10:47:22.901Z</time>
      </trkpt>
      <trkpt lat="45.76015" lon="5.32539">
        <ele>279</ele>
        <time>2021-02-28T10:47:23.901Z</time>
      </trkpt>
      <trkpt lat="45.76009" lon="5.32542">
        <ele>279</ele>
        <time>2021-02-28T10:47:24.901Z</time>
      </trkpt>
      <trkpt lat="45.76004" lon="5.32544">
        <ele>278</ele>
        <time>2021-02-28T10:47:25.901Z</time>
      </trkpt>
      <trkpt lat="45.75999" lon="5.32548">
        <ele>278</ele>
        <time>2021-02-28T10:47:26.901Z</time>
      </trkpt>
      <trkpt lat="45.75994" lon="5.32552">
        <ele>277</ele>
        <time>2021-02-28T10:47:27.901Z</time>
      </trkpt>
      <trkpt lat="45.7599" lon="5.32556">
        <ele>277</ele>
        <time>2021-02-28T10:47:28.901Z</time>
      </trkpt>
      <trkpt lat="45.75985" lon="5.3256">
        <ele>277</ele>
        <time>2021-02-28T10:47:29.902Z</time>
      </trkpt>
      <trkpt lat="45.7598" lon="5.32564">
        <ele>277</ele>
        <time>2021-02-28T10:47:30.901Z</time>
      </trkpt>
      <trkpt lat="45.75976" lon="5.32569">
        <ele>277</ele>
        <time>2021-02-28T10:47:31.901Z</time>
      </trkpt>
      <trkpt lat="45.75971" lon="5.32574">
        <ele>277</ele>
        <time>2021-02-28T10:47:32.902Z</time>
      </trkpt>
      <trkpt lat="45.75967" lon="5.32578">
        <ele>278</ele>
        <time>2021-02-28T10:47:33.902Z</time>
      </trkpt>
      <trkpt lat="45.75962" lon="5.32583">
        <ele>278</ele>
        <time>2021-02-28T10:47:34.901Z</time>
      </trkpt>
      <trkpt lat="45.75958" lon="5.32588">
        <ele>279</ele>
        <time>2021-02-28T10:47:35.901Z</time>
      </trkpt>
      <trkpt lat="45.75953" lon="5.32592">
        <ele>279</ele>
        <time>2021-02-28T10:47:36.902Z</time>
      </trkpt>
      <trkpt lat="45.75949" lon="5.32597">
        <ele>278</ele>
        <time>2021-02-28T10:47:37.901Z</time>
      </trkpt>
      <trkpt lat="45.75944" lon="5.32601">
        <ele>279</ele>
        <time>2021-02-28T10:47:38.901Z</time>
      </trkpt>
      <trkpt lat="45.7594" lon="5.32606">
        <ele>279</ele>
        <time>2021-02-28T10:47:39.902Z</time>
      </trkpt>
      <trkpt lat="45.75936" lon="5.32611">
        <ele>279</ele>
        <time>2021-02-28T10:47:40.901Z</time>
      </trkpt>
      <trkpt lat="45.75931" lon="5.32616">
        <ele>278</ele>
        <time>2021-02-28T10:47:41.902Z</time>
      </trkpt>
      <trkpt lat="45.75927" lon="5.3262">
        <ele>278</ele>
        <time>2021-02-28T10:47:42.902Z</time>
      </trkpt>
      <trkpt lat="45.75922" lon="5.32625">
        <ele>278</ele>
        <time>2021-02-28T10:47:43.901Z</time>
      </trkpt>
      <trkpt lat="45.75918" lon="5.3263">
        <ele>278</ele>
        <time>2021-02-28T10:47:44.902Z</time>
      </trkpt>
      <trkpt lat="45.75914" lon="5.32635">
        <ele>278</ele>
        <time>2021-02-28T10:47:45.901Z</time>
      </trkpt>
      <trkpt lat="45.75909" lon="5.32639">
        <ele>278</ele>
        <time>2021-02-28T10:47:46.901Z</time>
      </trkpt>
      <trkpt lat="45.75905" lon="5.32644">
        <ele>279</ele>
        <time>2021-02-28T10:47:47.902Z</time>
      </trkpt>
      <trkpt lat="45.759" lon="5.32649">
        <ele>279</ele>
        <time>2021-02-28T10:47:48.901Z</time>
      </trkpt>
      <trkpt lat="45.75896" lon="5.32654">
        <ele>279</ele>
        <time>2021-02-28T10:47:49.902Z</time>
      </trkpt>
      <trkpt lat="45.75891" lon="5.32659">
        <ele>279</ele>
        <time>2021-02-28T10:47:50.902Z</time>
      </trkpt>
      <trkpt lat="45.75887" lon="5.32664">
        <ele>279</ele>
        <time>2021-02-28T10:47:51.902Z</time>
      </trkpt>
      <trkpt lat="45.75882" lon="5.32669">
        <ele>279</ele>
        <time>2021-02-28T10:47:52.901Z</time>
      </trkpt>
      <trkpt lat="45.75878" lon="5.32674">
        <ele>279</ele>
        <time>2021-02-28T10:47:53.901Z</time>
      </trkpt>
      <trkpt lat="45.75873" lon="5.32679">
        <ele>279</ele>
        <time>2021-02-28T10:47:54.901Z</time>
      </trkpt>
      <trkpt lat="45.75868" lon="5.32685">
        <ele>279</ele>
        <time>2021-02-28T10:47:55.902Z</time>
      </trkpt>
      <trkpt lat="45.75863" lon="5.3269">
        <ele>279</ele>
        <time>2021-02-28T10:47:56.901Z</time>
      </trkpt>
      <trkpt lat="45.75858" lon="5.32696">
        <ele>279</ele>
        <time>2021-02-28T10:47:57.902Z</time>
      </trkpt>
      <trkpt lat="45.75854" lon="5.32699">
        <ele>279</ele>
        <time>2021-02-28T10:47:58.901Z</time>
      </trkpt>
      <trkpt lat="45.75849" lon="5.32704">
        <ele>279</ele>
        <time>2021-02-28T10:47:59.901Z</time>
      </trkpt>
      <trkpt lat="45.75845" lon="5.32709">
        <ele>279</ele>
        <time>2021-02-28T10:48:00.901Z</time>
      </trkpt>
      <trkpt lat="45.7584" lon="5.32714">
        <ele>279</ele>
        <time>2021-02-28T10:48:01.902Z</time>
      </trkpt>
      <trkpt lat="45.75835" lon="5.3272">
        <ele>279</ele>
        <time>2021-02-28T10:48:02.901Z</time>
      </trkpt>
      <trkpt lat="45.75831" lon="5.32725">
        <ele>280</ele>
        <time>2021-02-28T10:48:03.901Z</time>
      </trkpt>
      <trkpt lat="45.75826" lon="5.3273">
        <ele>280</ele>
        <time>2021-02-28T10:48:04.902Z</time>
      </trkpt>
      <trkpt lat="45.75821" lon="5.32735">
        <ele>280</ele>
        <time>2021-02-28T10:48:05.902Z</time>
      </trkpt>
      <trkpt lat="45.75816" lon="5.32741">
        <ele>279</ele>
        <time>2021-02-28T10:48:06.901Z</time>
      </trkpt>
      <trkpt lat="45.75811" lon="5.32746">
        <ele>279</ele>
        <time>2021-02-28T10:48:07.901Z</time>
      </trkpt>
      <trkpt lat="45.75807" lon="5.32751">
        <ele>278</ele>
        <time>2021-02-28T10:48:08.902Z</time>
      </trkpt>
      <trkpt lat="45.75802" lon="5.32756">
        <ele>278</ele>
        <time>2021-02-28T10:48:09.901Z</time>
      </trkpt>
      <trkpt lat="45.75797" lon="5.32761">
        <ele>278</ele>
        <time>2021-02-28T10:48:10.902Z</time>
      </trkpt>
      <trkpt lat="45.75793" lon="5.32766">
        <ele>278</ele>
        <time>2021-02-28T10:48:11.901Z</time>
      </trkpt>
      <trkpt lat="45.75788" lon="5.32771">
        <ele>277</ele>
        <time>2021-02-28T10:48:12.901Z</time>
      </trkpt>
      <trkpt lat="45.75783" lon="5.32776">
        <ele>277</ele>
        <time>2021-02-28T10:48:13.901Z</time>
      </trkpt>
      <trkpt lat="45.75779" lon="5.32781">
        <ele>277</ele>
        <time>2021-02-28T10:48:14.901Z</time>
      </trkpt>
      <trkpt lat="45.75774" lon="5.32786">
        <ele>278</ele>
        <time>2021-02-28T10:48:15.901Z</time>
      </trkpt>
      <trkpt lat="45.75769" lon="5.32791">
        <ele>278</ele>
        <time>2021-02-28T10:48:16.901Z</time>
      </trkpt>
      <trkpt lat="45.75765" lon="5.32796">
        <ele>278</ele>
        <time>2021-02-28T10:48:17.902Z</time>
      </trkpt>
      <trkpt lat="45.75761" lon="5.328">
        <ele>278</ele>
        <time>2021-02-28T10:48:18.901Z</time>
      </trkpt>
      <trkpt lat="45.75756" lon="5.32805">
        <ele>279</ele>
        <time>2021-02-28T10:48:19.902Z</time>
      </trkpt>
      <trkpt lat="45.75752" lon="5.3281">
        <ele>279</ele>
        <time>2021-02-28T10:48:20.901Z</time>
      </trkpt>
      <trkpt lat="45.75748" lon="5.32814">
        <ele>278</ele>
        <time>2021-02-28T10:48:21.901Z</time>
      </trkpt>
      <trkpt lat="45.75744" lon="5.32818">
        <ele>278</ele>
        <time>2021-02-28T10:48:22.902Z</time>
      </trkpt>
      <trkpt lat="45.7574" lon="5.32822">
        <ele>278</ele>
        <time>2021-02-28T10:48:23.902Z</time>
      </trkpt>
      <trkpt lat="45.75736" lon="5.32827">
        <ele>277</ele>
        <time>2021-02-28T10:48:24.901Z</time>
      </trkpt>
      <trkpt lat="45.75732" lon="5.32831">
        <ele>277</ele>
        <time>2021-02-28T10:48:25.901Z</time>
      </trkpt>
      <trkpt lat="45.75728" lon="5.32836">
        <ele>277</ele>
        <time>2021-02-28T10:48:26.901Z</time>
      </trkpt>
      <trkpt lat="45.75724" lon="5.3284">
        <ele>277</ele>
        <time>2021-02-28T10:48:27.901Z</time>
      </trkpt>
      <trkpt lat="45.7572" lon="5.32844">
        <ele>277</ele>
        <time>2021-02-28T10:48:28.901Z</time>
      </trkpt>
      <trkpt lat="45.75716" lon="5.32849">
        <ele>277</ele>
        <time>2021-02-28T10:48:29.901Z</time>
      </trkpt>
      <trkpt lat="45.75712" lon="5.32853">
        <ele>278</ele>
        <time>2021-02-28T10:48:30.901Z</time>
      </trkpt>
      <trkpt lat="45.75709" lon="5.32857">
        <ele>277</ele>
        <time>2021-02-28T10:48:31.901Z</time>
      </trkpt>
      <trkpt lat="45.75705" lon="5.32861">
        <ele>277</ele>
        <time>2021-02-28T10:48:32.902Z</time>
      </trkpt>
      <trkpt lat="45.75702" lon="5.32865">
        <ele>276</ele>
        <time>2021-02-28T10:48:33.902Z</time>
      </trkpt>
      <trkpt lat="45.75698" lon="5.32869">
        <ele>276</ele>
        <time>2021-02-28T10:48:34.901Z</time>
      </trkpt>
      <trkpt lat="45.75694" lon="5.32873">
        <ele>276</ele>
        <time>2021-02-28T10:48:35.901Z</time>
      </trkpt>
      <trkpt lat="45.7569" lon="5.32877">
        <ele>276</ele>
        <time>2021-02-28T10:48:36.901Z</time>
      </trkpt>
      <trkpt lat="45.75686" lon="5.32881">
        <ele>277</ele>
        <time>2021-02-28T10:48:37.902Z</time>
      </trkpt>
      <trkpt lat="45.75683" lon="5.32884">
        <ele>277</ele>
        <time>2021-02-28T10:48:38.901Z</time>
      </trkpt>
      <trkpt lat="45.75679" lon="5.32888">
        <ele>276</ele>
        <time>2021-02-28T10:48:39.902Z</time>
      </trkpt>
      <trkpt lat="45.75676" lon="5.32892">
        <ele>276</ele>
        <time>2021-02-28T10:48:40.901Z</time>
      </trkpt>
      <trkpt lat="45.75673" lon="5.32897">
        <ele>275</ele>
        <time>2021-02-28T10:48:41.902Z</time>
      </trkpt>
      <trkpt lat="45.7567" lon="5.32901">
        <ele>275</ele>
        <time>2021-02-28T10:48:42.902Z</time>
      </trkpt>
      <trkpt lat="45.75668" lon="5.32905">
        <ele>274</ele>
        <time>2021-02-28T10:48:43.902Z</time>
      </trkpt>
      <trkpt lat="45.75665" lon="5.32909">
        <ele>274</ele>
        <time>2021-02-28T10:48:44.902Z</time>
      </trkpt>
      <trkpt lat="45.75661" lon="5.32912">
        <ele>274</ele>
        <time>2021-02-28T10:48:45.901Z</time>
      </trkpt>
      <trkpt lat="45.75657" lon="5.32914">
        <ele>274</ele>
        <time>2021-02-28T10:48:46.902Z</time>
      </trkpt>
      <trkpt lat="45.75653" lon="5.32915">
        <ele>274</ele>
        <time>2021-02-28T10:48:47.901Z</time>
      </trkpt>
      <trkpt lat="45.75649" lon="5.32916">
        <ele>274</ele>
        <time>2021-02-28T10:48:48.902Z</time>
      </trkpt>
      <trkpt lat="45.75644" lon="5.32917">
        <ele>274</ele>
        <time>2021-02-28T10:48:49.901Z</time>
      </trkpt>
      <trkpt lat="45.75639" lon="5.32918">
        <ele>275</ele>
        <time>2021-02-28T10:48:50.901Z</time>
      </trkpt>
      <trkpt lat="45.75634" lon="5.32919">
        <ele>276</ele>
        <time>2021-02-28T10:48:51.902Z</time>
      </trkpt>
      <trkpt lat="45.75628" lon="5.3292">
        <ele>276</ele>
        <time>2021-02-28T10:48:52.901Z</time>
      </trkpt>
      <trkpt lat="45.75623" lon="5.32922">
        <ele>277</ele>
        <time>2021-02-28T10:48:53.901Z</time>
      </trkpt>
      <trkpt lat="45.75618" lon="5.32923">
        <ele>278</ele>
        <time>2021-02-28T10:48:54.901Z</time>
      </trkpt>
      <trkpt lat="45.75613" lon="5.32925">
        <ele>278</ele>
        <time>2021-02-28T10:48:55.901Z</time>
      </trkpt>
      <trkpt lat="45.75607" lon="5.32927">
        <ele>278</ele>
        <time>2021-02-28T10:48:56.901Z</time>
      </trkpt>
      <trkpt lat="45.75602" lon="5.32929">
        <ele>279</ele>
        <time>2021-02-28T10:48:57.901Z</time>
      </trkpt>
      <trkpt lat="45.75596" lon="5.32931">
        <ele>279</ele>
        <time>2021-02-28T10:48:58.901Z</time>
      </trkpt>
      <trkpt lat="45.75591" lon="5.32932">
        <ele>279</ele>
        <time>2021-02-28T10:48:59.902Z</time>
      </trkpt>
      <trkpt lat="45.75585" lon="5.32934">
        <ele>280</ele>
        <time>2021-02-28T10:49:00.902Z</time>
      </trkpt>
      <trkpt lat="45.7558" lon="5.32935">
        <ele>280</ele>
        <time>2021-02-28T10:49:01.901Z</time>
      </trkpt>
      <trkpt lat="45.75575" lon="5.32936">
        <ele>281</ele>
        <time>2021-02-28T10:49:02.901Z</time>
      </trkpt>
      <trkpt lat="45.7557" lon="5.32937">
        <ele>281</ele>
        <time>2021-02-28T10:49:03.901Z</time>
      </trkpt>
      <trkpt lat="45.75565" lon="5.32939">
        <ele>281</ele>
        <time>2021-02-28T10:49:04.902Z</time>
      </trkpt>
      <trkpt lat="45.7556" lon="5.3294">
        <ele>281</ele>
        <time>2021-02-28T10:49:05.901Z</time>
      </trkpt>
      <trkpt lat="45.75555" lon="5.32942">
        <ele>281</ele>
        <time>2021-02-28T10:49:06.901Z</time>
      </trkpt>
      <trkpt lat="45.7555" lon="5.32943">
        <ele>281</ele>
        <time>2021-02-28T10:49:07.901Z</time>
      </trkpt>
      <trkpt lat="45.75545" lon="5.32945">
        <ele>282</ele>
        <time>2021-02-28T10:49:08.901Z</time>
      </trkpt>
      <trkpt lat="45.75539" lon="5.32947">
        <ele>282</ele>
        <time>2021-02-28T10:49:09.902Z</time>
      </trkpt>
      <trkpt lat="45.75535" lon="5.32948">
        <ele>283</ele>
        <time>2021-02-28T10:49:10.902Z</time>
      </trkpt>
      <trkpt lat="45.7553" lon="5.32949">
        <ele>283</ele>
        <time>2021-02-28T10:49:11.901Z</time>
      </trkpt>
      <trkpt lat="45.75525" lon="5.3295">
        <ele>284</ele>
        <time>2021-02-28T10:49:12.902Z</time>
      </trkpt>
      <trkpt lat="45.7552" lon="5.32951">
        <ele>284</ele>
        <time>2021-02-28T10:49:13.901Z</time>
      </trkpt>
      <trkpt lat="45.75516" lon="5.32953">
        <ele>285</ele>
        <time>2021-02-28T10:49:14.901Z</time>
      </trkpt>
      <trkpt lat="45.75511" lon="5.32954">
        <ele>285</ele>
        <time>2021-02-28T10:49:15.901Z</time>
      </trkpt>
      <trkpt lat="45.75507" lon="5.32956">
        <ele>285</ele>
        <time>2021-02-28T10:49:16.901Z</time>
      </trkpt>
      <trkpt lat="45.75503" lon="5.32957">
        <ele>285</ele>
        <time>2021-02-28T10:49:17.901Z</time>
      </trkpt>
      <trkpt lat="45.75499" lon="5.32958">
        <ele>285</ele>
        <time>2021-02-28T10:49:18.902Z</time>
      </trkpt>
      <trkpt lat="45.75494" lon="5.32959">
        <ele>284</ele>
        <time>2021-02-28T10:49:19.901Z</time>
      </trkpt>
      <trkpt lat="45.7549" lon="5.32961">
        <ele>284</ele>
        <time>2021-02-28T10:49:20.901Z</time>
      </trkpt>
      <trkpt lat="45.75486" lon="5.32962">
        <ele>284</ele>
        <time>2021-02-28T10:49:21.901Z</time>
      </trkpt>
      <trkpt lat="45.75481" lon="5.32963">
        <ele>283</ele>
        <time>2021-02-28T10:49:22.901Z</time>
      </trkpt>
      <trkpt lat="45.75477" lon="5.32964">
        <ele>283</ele>
        <time>2021-02-28T10:49:23.901Z</time>
      </trkpt>
      <trkpt lat="45.75472" lon="5.32966">
        <ele>283</ele>
        <time>2021-02-28T10:49:24.902Z</time>
      </trkpt>
      <trkpt lat="45.75468" lon="5.32967">
        <ele>282</ele>
        <time>2021-02-28T10:49:25.902Z</time>
      </trkpt>
      <trkpt lat="45.75463" lon="5.32968">
        <ele>282</ele>
        <time>2021-02-28T10:49:26.902Z</time>
      </trkpt>
      <trkpt lat="45.75458" lon="5.32969">
        <ele>282</ele>
        <time>2021-02-28T10:49:27.901Z</time>
      </trkpt>
      <trkpt lat="45.75454" lon="5.32971">
        <ele>282</ele>
        <time>2021-02-28T10:49:28.902Z</time>
      </trkpt>
      <trkpt lat="45.75449" lon="5.32972">
        <ele>281</ele>
        <time>2021-02-28T10:49:29.901Z</time>
      </trkpt>
      <trkpt lat="45.75444" lon="5.32973">
        <ele>281</ele>
        <time>2021-02-28T10:49:30.901Z</time>
      </trkpt>
      <trkpt lat="45.7544" lon="5.32975">
        <ele>281</ele>
        <time>2021-02-28T10:49:31.902Z</time>
      </trkpt>
      <trkpt lat="45.75435" lon="5.32977">
        <ele>281</ele>
        <time>2021-02-28T10:49:32.901Z</time>
      </trkpt>
      <trkpt lat="45.7543" lon="5.32979">
        <ele>281</ele>
        <time>2021-02-28T10:49:33.902Z</time>
      </trkpt>
      <trkpt lat="45.75425" lon="5.32981">
        <ele>281</ele>
        <time>2021-02-28T10:49:34.901Z</time>
      </trkpt>
      <trkpt lat="45.7542" lon="5.32983">
        <ele>281</ele>
        <time>2021-02-28T10:49:35.901Z</time>
      </trkpt>
      <trkpt lat="45.75415" lon="5.32985">
        <ele>281</ele>
        <time>2021-02-28T10:49:36.902Z</time>
      </trkpt>
      <trkpt lat="45.7541" lon="5.32987">
        <ele>281</ele>
        <time>2021-02-28T10:49:37.901Z</time>
      </trkpt>
      <trkpt lat="45.75405" lon="5.32989">
        <ele>281</ele>
        <time>2021-02-28T10:49:38.901Z</time>
      </trkpt>
      <trkpt lat="45.754" lon="5.32991">
        <ele>281</ele>
        <time>2021-02-28T10:49:39.901Z</time>
      </trkpt>
      <trkpt lat="45.75395" lon="5.32993">
        <ele>281</ele>
        <time>2021-02-28T10:49:40.901Z</time>
      </trkpt>
      <trkpt lat="45.7539" lon="5.32995">
        <ele>280</ele>
        <time>2021-02-28T10:49:41.901Z</time>
      </trkpt>
      <trkpt lat="45.75385" lon="5.32997">
        <ele>281</ele>
        <time>2021-02-28T10:49:42.901Z</time>
      </trkpt>
      <trkpt lat="45.7538" lon="5.32998">
        <ele>281</ele>
        <time>2021-02-28T10:49:43.901Z</time>
      </trkpt>
      <trkpt lat="45.75375" lon="5.32999">
        <ele>282</ele>
        <time>2021-02-28T10:49:44.902Z</time>
      </trkpt>
      <trkpt lat="45.7537" lon="5.33">
        <ele>282</ele>
        <time>2021-02-28T10:49:45.901Z</time>
      </trkpt>
      <trkpt lat="45.75365" lon="5.33">
        <ele>282</ele>
        <time>2021-02-28T10:49:46.901Z</time>
      </trkpt>
      <trkpt lat="45.75361" lon="5.33">
        <ele>282</ele>
        <time>2021-02-28T10:49:47.901Z</time>
      </trkpt>
      <trkpt lat="45.75356" lon="5.33">
        <ele>282</ele>
        <time>2021-02-28T10:49:48.901Z</time>
      </trkpt>
      <trkpt lat="45.75352" lon="5.33">
        <ele>281</ele>
        <time>2021-02-28T10:49:49.902Z</time>
      </trkpt>
      <trkpt lat="45.75347" lon="5.33">
        <ele>281</ele>
        <time>2021-02-28T10:49:50.901Z</time>
      </trkpt>
      <trkpt lat="45.75343" lon="5.33">
        <ele>281</ele>
        <time>2021-02-28T10:49:51.901Z</time>
      </trkpt>
      <trkpt lat="45.75339" lon="5.33">
        <ele>281</ele>
        <time>2021-02-28T10:49:52.902Z</time>
      </trkpt>
      <trkpt lat="45.75335" lon="5.33">
        <ele>282</ele>
        <time>2021-02-28T10:49:53.902Z</time>
      </trkpt>
      <trkpt lat="45.7533" lon="5.33">
        <ele>282</ele>
        <time>2021-02-28T10:49:54.901Z</time>
      </trkpt>
      <trkpt lat="45.75326" lon="5.33">
        <ele>283</ele>
        <time>2021-02-28T10:49:55.901Z</time>
      </trkpt>
      <trkpt lat="45.75321" lon="5.33">
        <ele>283</ele>
        <time>2021-02-28T10:49:56.902Z</time>
      </trkpt>
      <trkpt lat="45.75317" lon="5.33">
        <ele>283</ele>
        <time>2021-02-28T10:49:57.901Z</time>
      </trkpt>
      <trkpt lat="45.75313" lon="5.33">
        <ele>284</ele>
        <time>2021-02-28T10:49:58.902Z</time>
      </trkpt>
      <trkpt lat="45.75308" lon="5.33">
        <ele>284</ele>
        <time>2021-02-28T10:49:59.902Z</time>
      </trkpt>
      <trkpt lat="45.75304" lon="5.33">
        <ele>284</ele>
        <time>2021-02-28T10:50:00.901Z</time>
      </trkpt>
      <trkpt lat="45.753" lon="5.33">
        <ele>284</ele>
        <time>2021-02-28T10:50:01.901Z</time>
      </trkpt>
      <trkpt lat="45.75295" lon="5.32999">
        <ele>284</ele>
        <time>2021-02-28T10:50:02.902Z</time>
      </trkpt>
      <trkpt lat="45.75291" lon="5.32999">
        <ele>284</ele>
        <time>2021-02-28T10:50:03.901Z</time>
      </trkpt>
      <trkpt lat="45.75286" lon="5.32999">
        <ele>284</ele>
        <time>2021-02-28T10:50:04.902Z</time>
      </trkpt>
      <trkpt lat="45.75282" lon="5.32999">
        <ele>285</ele>
        <time>2021-02-28T10:50:05.902Z</time>
      </trkpt>
      <trkpt lat="45.75278" lon="5.32999">
        <ele>285</ele>
        <time>2021-02-28T10:50:06.901Z</time>
      </trkpt>
      <trkpt lat="45.75273" lon="5.32999">
        <ele>286</ele>
        <time>2021-02-28T10:50:07.901Z</time>
      </trkpt>
      <trkpt lat="45.75269" lon="5.32999">
        <ele>286</ele>
        <time>2021-02-28T10:50:08.901Z</time>
      </trkpt>
      <trkpt lat="45.75265" lon="5.32999">
        <ele>286</ele>
        <time>2021-02-28T10:50:09.901Z</time>
      </trkpt>
      <trkpt lat="45.7526" lon="5.32998">
        <ele>287</ele>
        <time>2021-02-28T10:50:10.902Z</time>
      </trkpt>
      <trkpt lat="45.75255" lon="5.32998">
        <ele>288</ele>
        <time>2021-02-28T10:50:11.901Z</time>
      </trkpt>
      <trkpt lat="45.75251" lon="5.32996">
        <ele>288</ele>
        <time>2021-02-28T10:50:12.901Z</time>
      </trkpt>
      <trkpt lat="45.75247" lon="5.32994">
        <ele>289</ele>
        <time>2021-02-28T10:50:13.901Z</time>
      </trkpt>
      <trkpt lat="45.75243" lon="5.32992">
        <ele>289</ele>
        <time>2021-02-28T10:50:14.901Z</time>
      </trkpt>
      <trkpt lat="45.75239" lon="5.3299">
        <ele>289</ele>
        <time>2021-02-28T10:50:15.901Z</time>
      </trkpt>
      <trkpt lat="45.75235" lon="5.32988">
        <ele>290</ele>
        <time>2021-02-28T10:50:16.901Z</time>
      </trkpt>
      <trkpt lat="45.7523" lon="5.32986">
        <ele>290</ele>
        <time>2021-02-28T10:50:17.902Z</time>
      </trkpt>
      <trkpt lat="45.75226" lon="5.32984">
        <ele>290</ele>
        <time>2021-02-28T10:50:18.901Z</time>
      </trkpt>
      <trkpt lat="45.75222" lon="5.32982">
        <ele>290</ele>
        <time>2021-02-28T10:50:19.901Z</time>
      </trkpt>
      <trkpt lat="45.75217" lon="5.3298">
        <ele>290</ele>
        <time>2021-02-28T10:50:20.901Z</time>
      </trkpt>
      <trkpt lat="45.75213" lon="5.32978">
        <ele>290</ele>
        <time>2021-02-28T10:50:21.901Z</time>
      </trkpt>
      <trkpt lat="45.75208" lon="5.32976">
        <ele>289</ele>
        <time>2021-02-28T10:50:22.902Z</time>
      </trkpt>
      <trkpt lat="45.75203" lon="5.32973">
        <ele>289</ele>
        <time>2021-02-28T10:50:23.902Z</time>
      </trkpt>
      <trkpt lat="45.75198" lon="5.32971">
        <ele>289</ele>
        <time>2021-02-28T10:50:24.902Z</time>
      </trkpt>
      <trkpt lat="45.75193" lon="5.32968">
        <ele>289</ele>
        <time>2021-02-28T10:50:25.901Z</time>
      </trkpt>
      <trkpt lat="45.75188" lon="5.32966">
        <ele>288</ele>
        <time>2021-02-28T10:50:26.901Z</time>
      </trkpt>
      <trkpt lat="45.75183" lon="5.32964">
        <ele>288</ele>
        <time>2021-02-28T10:50:27.901Z</time>
      </trkpt>
      <trkpt lat="45.75178" lon="5.32962">
        <ele>288</ele>
        <time>2021-02-28T10:50:28.901Z</time>
      </trkpt>
      <trkpt lat="45.75173" lon="5.3296">
        <ele>288</ele>
        <time>2021-02-28T10:50:29.901Z</time>
      </trkpt>
      <trkpt lat="45.75168" lon="5.32958">
        <ele>287</ele>
        <time>2021-02-28T10:50:30.901Z</time>
      </trkpt>
      <trkpt lat="45.75163" lon="5.32955">
        <ele>286</ele>
        <time>2021-02-28T10:50:31.901Z</time>
      </trkpt>
      <trkpt lat="45.75158" lon="5.32953">
        <ele>286</ele>
        <time>2021-02-28T10:50:32.902Z</time>
      </trkpt>
      <trkpt lat="45.75152" lon="5.3295">
        <ele>285</ele>
        <time>2021-02-28T10:50:33.901Z</time>
      </trkpt>
      <trkpt lat="45.75147" lon="5.32948">
        <ele>285</ele>
        <time>2021-02-28T10:50:34.901Z</time>
      </trkpt>
      <trkpt lat="45.75141" lon="5.32945">
        <ele>285</ele>
        <time>2021-02-28T10:50:35.902Z</time>
      </trkpt>
      <trkpt lat="45.75136" lon="5.32943">
        <ele>285</ele>
        <time>2021-02-28T10:50:36.901Z</time>
      </trkpt>
      <trkpt lat="45.75131" lon="5.32941">
        <ele>284</ele>
        <time>2021-02-28T10:50:37.902Z</time>
      </trkpt>
      <trkpt lat="45.75125" lon="5.32939">
        <ele>284</ele>
        <time>2021-02-28T10:50:38.901Z</time>
      </trkpt>
      <trkpt lat="45.7512" lon="5.32936">
        <ele>284</ele>
        <time>2021-02-28T10:50:39.901Z</time>
      </trkpt>
      <trkpt lat="45.75114" lon="5.32934">
        <ele>284</ele>
        <time>2021-02-28T10:50:40.901Z</time>
      </trkpt>
      <trkpt lat="45.75109" lon="5.32932">
        <ele>284</ele>
        <time>2021-02-28T10:50:41.902Z</time>
      </trkpt>
      <trkpt lat="45.75104" lon="5.3293">
        <ele>284</ele>
        <time>2021-02-28T10:50:42.901Z</time>
      </trkpt>
      <trkpt lat="45.75098" lon="5.32928">
        <ele>284</ele>
        <time>2021-02-28T10:50:43.901Z</time>
      </trkpt>
      <trkpt lat="45.75093" lon="5.32926">
        <ele>284</ele>
        <time>2021-02-28T10:50:44.901Z</time>
      </trkpt>
      <trkpt lat="45.75088" lon="5.32924">
        <ele>285</ele>
        <time>2021-02-28T10:50:45.902Z</time>
      </trkpt>
      <trkpt lat="45.75082" lon="5.32923">
        <ele>285</ele>
        <time>2021-02-28T10:50:46.902Z</time>
      </trkpt>
      <trkpt lat="45.75077" lon="5.32922">
        <ele>285</ele>
        <time>2021-02-28T10:50:47.902Z</time>
      </trkpt>
      <trkpt lat="45.75072" lon="5.32921">
        <ele>285</ele>
        <time>2021-02-28T10:50:48.901Z</time>
      </trkpt>
      <trkpt lat="45.75066" lon="5.3292">
        <ele>286</ele>
        <time>2021-02-28T10:50:49.901Z</time>
      </trkpt>
      <trkpt lat="45.75061" lon="5.3292">
        <ele>286</ele>
        <time>2021-02-28T10:50:50.901Z</time>
      </trkpt>
      <trkpt lat="45.75056" lon="5.3292">
        <ele>286</ele>
        <time>2021-02-28T10:50:51.901Z</time>
      </trkpt>
      <trkpt lat="45.75051" lon="5.32921">
        <ele>286</ele>
        <time>2021-02-28T10:50:52.901Z</time>
      </trkpt>
      <trkpt lat="45.75047" lon="5.32921">
        <ele>287</ele>
        <time>2021-02-28T10:50:53.901Z</time>
      </trkpt>
      <trkpt lat="45.75043" lon="5.32922">
        <ele>288</ele>
        <time>2021-02-28T10:50:54.901Z</time>
      </trkpt>
      <trkpt lat="45.75038" lon="5.32923">
        <ele>288</ele>
        <time>2021-02-28T10:50:55.901Z</time>
      </trkpt>
      <trkpt lat="45.75034" lon="5.32923">
        <ele>288</ele>
        <time>2021-02-28T10:50:56.902Z</time>
      </trkpt>
      <trkpt lat="45.7503" lon="5.32923">
        <ele>288</ele>
        <time>2021-02-28T10:50:57.901Z</time>
      </trkpt>
      <trkpt lat="45.75025" lon="5.32922">
        <ele>288</ele>
        <time>2021-02-28T10:50:58.901Z</time>
      </trkpt>
      <trkpt lat="45.75021" lon="5.32921">
        <ele>288</ele>
        <time>2021-02-28T10:50:59.901Z</time>
      </trkpt>
      <trkpt lat="45.75017" lon="5.32919">
        <ele>289</ele>
        <time>2021-02-28T10:51:00.902Z</time>
      </trkpt>
      <trkpt lat="45.75012" lon="5.32917">
        <ele>289</ele>
        <time>2021-02-28T10:51:01.901Z</time>
      </trkpt>
      <trkpt lat="45.75008" lon="5.32914">
        <ele>289</ele>
        <time>2021-02-28T10:51:02.901Z</time>
      </trkpt>
      <trkpt lat="45.75003" lon="5.32911">
        <ele>289</ele>
        <time>2021-02-28T10:51:03.901Z</time>
      </trkpt>
      <trkpt lat="45.74998" lon="5.32907">
        <ele>288</ele>
        <time>2021-02-28T10:51:04.902Z</time>
      </trkpt>
      <trkpt lat="45.74994" lon="5.32903">
        <ele>288</ele>
        <time>2021-02-28T10:51:05.901Z</time>
      </trkpt>
      <trkpt lat="45.74989" lon="5.32899">
        <ele>288</ele>
        <time>2021-02-28T10:51:06.902Z</time>
      </trkpt>
      <trkpt lat="45.74984" lon="5.32896">
        <ele>288</ele>
        <time>2021-02-28T10:51:07.901Z</time>
      </trkpt>
      <trkpt lat="45.74978" lon="5.32893">
        <ele>288</ele>
        <time>2021-02-28T10:51:08.901Z</time>
      </trkpt>
      <trkpt lat="45.74973" lon="5.3289">
        <ele>289</ele>
        <time>2021-02-28T10:51:09.902Z</time>
      </trkpt>
      <trkpt lat="45.74967" lon="5.32888">
        <ele>289</ele>
        <time>2021-02-28T10:51:10.901Z</time>
      </trkpt>
      <trkpt lat="45.74961" lon="5.32885">
        <ele>290</ele>
        <time>2021-02-28T10:51:11.901Z</time>
      </trkpt>
      <trkpt lat="45.74955" lon="5.32882">
        <ele>290</ele>
        <time>2021-02-28T10:51:12.901Z</time>
      </trkpt>
      <trkpt lat="45.7495" lon="5.32879">
        <ele>290</ele>
        <time>2021-02-28T10:51:13.901Z</time>
      </trkpt>
      <trkpt lat="45.74944" lon="5.32877">
        <ele>290</ele>
        <time>2021-02-28T10:51:14.901Z</time>
      </trkpt>
      <trkpt lat="45.74938" lon="5.32875">
        <ele>290</ele>
        <time>2021-02-28T10:51:15.901Z</time>
      </trkpt>
      <trkpt lat="45.74933" lon="5.32873">
        <ele>289</ele>
        <time>2021-02-28T10:51:16.901Z</time>
      </trkpt>
      <trkpt lat="45.74928" lon="5.3287">
        <ele>288</ele>
        <time>2021-02-28T10:51:17.901Z</time>
      </trkpt>
      <trkpt lat="45.74922" lon="5.32867">
        <ele>288</ele>
        <time>2021-02-28T10:51:18.901Z</time>
      </trkpt>
      <trkpt lat="45.74917" lon="5.32864">
        <ele>287</ele>
        <time>2021-02-28T10:51:19.901Z</time>
      </trkpt>
      <trkpt lat="45.74912" lon="5.3286">
        <ele>286</ele>
        <time>2021-02-28T10:51:20.901Z</time>
      </trkpt>
      <trkpt lat="45.74908" lon="5.32856">
        <ele>286</ele>
        <time>2021-02-28T10:51:21.902Z</time>
      </trkpt>
      <trkpt lat="45.74903" lon="5.32852">
        <ele>285</ele>
        <time>2021-02-28T10:51:22.901Z</time>
      </trkpt>
      <trkpt lat="45.74898" lon="5.32847">
        <ele>285</ele>
        <time>2021-02-28T10:51:23.902Z</time>
      </trkpt>
      <trkpt lat="45.74893" lon="5.32842">
        <ele>285</ele>
        <time>2021-02-28T10:51:24.902Z</time>
      </trkpt>
      <trkpt lat="45.74888" lon="5.32836">
        <ele>286</ele>
        <time>2021-02-28T10:51:25.901Z</time>
      </trkpt>
      <trkpt lat="45.74885" lon="5.3283">
        <ele>285</ele>
        <time>2021-02-28T10:51:26.901Z</time>
      </trkpt>
      <trkpt lat="45.74881" lon="5.32824">
        <ele>285</ele>
        <time>2021-02-28T10:51:27.901Z</time>
      </trkpt>
      <trkpt lat="45.74879" lon="5.32818">
        <ele>285</ele>
        <time>2021-02-28T10:51:28.902Z</time>
      </trkpt>
      <trkpt lat="45.74876" lon="5.32811">
        <ele>285</ele>
        <time>2021-02-28T10:51:29.901Z</time>
      </trkpt>
      <trkpt lat="45.74874" lon="5.32805">
        <ele>286</ele>
        <time>2021-02-28T10:51:30.901Z</time>
      </trkpt>
      <trkpt lat="45.74871" lon="5.32798">
        <ele>286</ele>
        <time>2021-02-28T10:51:31.901Z</time>
      </trkpt>
      <trkpt lat="45.74869" lon="5.32791">
        <ele>286</ele>
        <time>2021-02-28T10:51:32.901Z</time>
      </trkpt>
      <trkpt lat="45.74866" lon="5.32784">
        <ele>286</ele>
        <time>2021-02-28T10:51:33.901Z</time>
      </trkpt>
      <trkpt lat="45.74864" lon="5.32777">
        <ele>286</ele>
        <time>2021-02-28T10:51:34.902Z</time>
      </trkpt>
      <trkpt lat="45.74862" lon="5.32771">
        <ele>286</ele>
        <time>2021-02-28T10:51:35.902Z</time>
      </trkpt>
      <trkpt lat="45.74859" lon="5.32764">
        <ele>286</ele>
        <time>2021-02-28T10:51:36.901Z</time>
      </trkpt>
      <trkpt lat="45.74857" lon="5.32756">
        <ele>286</ele>
        <time>2021-02-28T10:51:37.901Z</time>
      </trkpt>
      <trkpt lat="45.74855" lon="5.32749">
        <ele>286</ele>
        <time>2021-02-28T10:51:38.902Z</time>
      </trkpt>
      <trkpt lat="45.74852" lon="5.32742">
        <ele>286</ele>
        <time>2021-02-28T10:51:39.901Z</time>
      </trkpt>
      <trkpt lat="45.7485" lon="5.32735">
        <ele>286</ele>
        <time>2021-02-28T10:51:40.901Z</time>
      </trkpt>
      <trkpt lat="45.74847" lon="5.32728">
        <ele>285</ele>
        <time>2021-02-28T10:51:41.901Z</time>
      </trkpt>
      <trkpt lat="45.74845" lon="5.32721">
        <ele>285</ele>
        <time>2021-02-28T10:51:42.902Z</time>
      </trkpt>
      <trkpt lat="45.74842" lon="5.32714">
        <ele>286</ele>
        <time>2021-02-28T10:51:43.901Z</time>
      </trkpt>
      <trkpt lat="45.7484" lon="5.32707">
        <ele>286</ele>
        <time>2021-02-28T10:51:44.902Z</time>
      </trkpt>
      <trkpt lat="45.74837" lon="5.32699">
        <ele>286</ele>
        <time>2021-02-28T10:51:45.901Z</time>
      </trkpt>
      <trkpt lat="45.74835" lon="5.32692">
        <ele>286</ele>
        <time>2021-02-28T10:51:46.901Z</time>
      </trkpt>
      <trkpt lat="45.74833" lon="5.32685">
        <ele>285</ele>
        <time>2021-02-28T10:51:47.901Z</time>
      </trkpt>
      <trkpt lat="45.7483" lon="5.32678">
        <ele>285</ele>
        <time>2021-02-28T10:51:48.901Z</time>
      </trkpt>
      <trkpt lat="45.74828" lon="5.32671">
        <ele>285</ele>
        <time>2021-02-28T10:51:49.901Z</time>
      </trkpt>
      <trkpt lat="45.74825" lon="5.32664">
        <ele>284</ele>
        <time>2021-02-28T10:51:50.901Z</time>
      </trkpt>
      <trkpt lat="45.74823" lon="5.32657">
        <ele>285</ele>
        <time>2021-02-28T10:51:51.901Z</time>
      </trkpt>
      <trkpt lat="45.7482" lon="5.3265">
        <ele>285</ele>
        <time>2021-02-28T10:51:52.902Z</time>
      </trkpt>
      <trkpt lat="45.74818" lon="5.32643">
        <ele>285</ele>
        <time>2021-02-28T10:51:53.901Z</time>
      </trkpt>
      <trkpt lat="45.74815" lon="5.32636">
        <ele>285</ele>
        <time>2021-02-28T10:51:54.901Z</time>
      </trkpt>
      <trkpt lat="45.74813" lon="5.32629">
        <ele>285</ele>
        <time>2021-02-28T10:51:55.901Z</time>
      </trkpt>
      <trkpt lat="45.7481" lon="5.32621">
        <ele>285</ele>
        <time>2021-02-28T10:51:56.901Z</time>
      </trkpt>
      <trkpt lat="45.74807" lon="5.32615">
        <ele>285</ele>
        <time>2021-02-28T10:51:57.901Z</time>
      </trkpt>
      <trkpt lat="45.74805" lon="5.32608">
        <ele>286</ele>
        <time>2021-02-28T10:51:58.901Z</time>
      </trkpt>
      <trkpt lat="45.74802" lon="5.32602">
        <ele>286</ele>
        <time>2021-02-28T10:51:59.902Z</time>
      </trkpt>
      <trkpt lat="45.74799" lon="5.32596">
        <ele>286</ele>
        <time>2021-02-28T10:52:00.902Z</time>
      </trkpt>
      <trkpt lat="45.74796" lon="5.3259">
        <ele>287</ele>
        <time>2021-02-28T10:52:01.902Z</time>
      </trkpt>
      <trkpt lat="45.74792" lon="5.32585">
        <ele>287</ele>
        <time>2021-02-28T10:52:02.901Z</time>
      </trkpt>
      <trkpt lat="45.74789" lon="5.32581">
        <ele>286</ele>
        <time>2021-02-28T10:52:03.901Z</time>
      </trkpt>
      <trkpt lat="45.74785" lon="5.32576">
        <ele>286</ele>
        <time>2021-02-28T10:52:04.901Z</time>
      </trkpt>
      <trkpt lat="45.74781" lon="5.32572">
        <ele>286</ele>
        <time>2021-02-28T10:52:05.901Z</time>
      </trkpt>
      <trkpt lat="45.74776" lon="5.32569">
        <ele>285</ele>
        <time>2021-02-28T10:52:06.901Z</time>
      </trkpt>
      <trkpt lat="45.74772" lon="5.32566">
        <ele>285</ele>
        <time>2021-02-28T10:52:07.901Z</time>
      </trkpt>
      <trkpt lat="45.74767" lon="5.32563">
        <ele>285</ele>
        <time>2021-02-28T10:52:08.902Z</time>
      </trkpt>
      <trkpt lat="45.74762" lon="5.32561">
        <ele>286</ele>
        <time>2021-02-28T10:52:09.902Z</time>
      </trkpt>
      <trkpt lat="45.74757" lon="5.32559">
        <ele>286</ele>
        <time>2021-02-28T10:52:10.901Z</time>
      </trkpt>
      <trkpt lat="45.74752" lon="5.32557">
        <ele>286</ele>
        <time>2021-02-28T10:52:11.901Z</time>
      </trkpt>
      <trkpt lat="45.74747" lon="5.32556">
        <ele>286</ele>
        <time>2021-02-28T10:52:12.901Z</time>
      </trkpt>
      <trkpt lat="45.74743" lon="5.32555">
        <ele>286</ele>
        <time>2021-02-28T10:52:13.901Z</time>
      </trkpt>
      <trkpt lat="45.74738" lon="5.32553">
        <ele>286</ele>
        <time>2021-02-28T10:52:14.902Z</time>
      </trkpt>
      <trkpt lat="45.74733" lon="5.32552">
        <ele>286</ele>
        <time>2021-02-28T10:52:15.902Z</time>
      </trkpt>
      <trkpt lat="45.74729" lon="5.32552">
        <ele>286</ele>
        <time>2021-02-28T10:52:16.901Z</time>
      </trkpt>
      <trkpt lat="45.74724" lon="5.32551">
        <ele>287</ele>
        <time>2021-02-28T10:52:17.901Z</time>
      </trkpt>
      <trkpt lat="45.74719" lon="5.3255">
        <ele>287</ele>
        <time>2021-02-28T10:52:18.901Z</time>
      </trkpt>
      <trkpt lat="45.74714" lon="5.32549">
        <ele>287</ele>
        <time>2021-02-28T10:52:19.902Z</time>
      </trkpt>
      <trkpt lat="45.74709" lon="5.32548">
        <ele>287</ele>
        <time>2021-02-28T10:52:20.901Z</time>
      </trkpt>
      <trkpt lat="45.74704" lon="5.32547">
        <ele>288</ele>
        <time>2021-02-28T10:52:21.901Z</time>
      </trkpt>
      <trkpt lat="45.74699" lon="5.32546">
        <ele>288</ele>
        <time>2021-02-28T10:52:22.902Z</time>
      </trkpt>
      <trkpt lat="45.74693" lon="5.32545">
        <ele>288</ele>
        <time>2021-02-28T10:52:23.902Z</time>
      </trkpt>
      <trkpt lat="45.74688" lon="5.32544">
        <ele>289</ele>
        <time>2021-02-28T10:52:24.901Z</time>
      </trkpt>
      <trkpt lat="45.74682" lon="5.32543">
        <ele>289</ele>
        <time>2021-02-28T10:52:25.902Z</time>
      </trkpt>
      <trkpt lat="45.74676" lon="5.32542">
        <ele>289</ele>
        <time>2021-02-28T10:52:26.901Z</time>
      </trkpt>
      <trkpt lat="45.74671" lon="5.32541">
        <ele>290</ele>
        <time>2021-02-28T10:52:27.901Z</time>
      </trkpt>
      <trkpt lat="45.74666" lon="5.3254">
        <ele>290</ele>
        <time>2021-02-28T10:52:28.901Z</time>
      </trkpt>
      <trkpt lat="45.74661" lon="5.32539">
        <ele>290</ele>
        <time>2021-02-28T10:52:29.901Z</time>
      </trkpt>
      <trkpt lat="45.74655" lon="5.32538">
        <ele>290</ele>
        <time>2021-02-28T10:52:30.901Z</time>
      </trkpt>
      <trkpt lat="45.7465" lon="5.32537">
        <ele>290</ele>
        <time>2021-02-28T10:52:31.901Z</time>
      </trkpt>
      <trkpt lat="45.74645" lon="5.32536">
        <ele>290</ele>
        <time>2021-02-28T10:52:32.901Z</time>
      </trkpt>
      <trkpt lat="45.7464" lon="5.32535">
        <ele>290</ele>
        <time>2021-02-28T10:52:33.902Z</time>
      </trkpt>
      <trkpt lat="45.74635" lon="5.32534">
        <ele>290</ele>
        <time>2021-02-28T10:52:34.901Z</time>
      </trkpt>
      <trkpt lat="45.7463" lon="5.32532">
        <ele>289</ele>
        <time>2021-02-28T10:52:35.901Z</time>
      </trkpt>
      <trkpt lat="45.74625" lon="5.32531">
        <ele>288</ele>
        <time>2021-02-28T10:52:36.901Z</time>
      </trkpt>
      <trkpt lat="45.74621" lon="5.3253">
        <ele>288</ele>
        <time>2021-02-28T10:52:37.902Z</time>
      </trkpt>
      <trkpt lat="45.74616" lon="5.32529">
        <ele>287</ele>
        <time>2021-02-28T10:52:38.901Z</time>
      </trkpt>
      <trkpt lat="45.74612" lon="5.32528">
        <ele>286</ele>
        <time>2021-02-28T10:52:39.902Z</time>
      </trkpt>
      <trkpt lat="45.74607" lon="5.32528">
        <ele>286</ele>
        <time>2021-02-28T10:52:40.902Z</time>
      </trkpt>
      <trkpt lat="45.74603" lon="5.32527">
        <ele>286</ele>
        <time>2021-02-28T10:52:41.901Z</time>
      </trkpt>
      <trkpt lat="45.74598" lon="5.32526">
        <ele>286</ele>
        <time>2021-02-28T10:52:42.901Z</time>
      </trkpt>
      <trkpt lat="45.74594" lon="5.32525">
        <ele>287</ele>
        <time>2021-02-28T10:52:43.902Z</time>
      </trkpt>
      <trkpt lat="45.7459" lon="5.32523">
        <ele>287</ele>
        <time>2021-02-28T10:52:44.901Z</time>
      </trkpt>
      <trkpt lat="45.74585" lon="5.32522">
        <ele>288</ele>
        <time>2021-02-28T10:52:45.901Z</time>
      </trkpt>
      <trkpt lat="45.74581" lon="5.32521">
        <ele>288</ele>
        <time>2021-02-28T10:52:46.901Z</time>
      </trkpt>
      <trkpt lat="45.74576" lon="5.3252">
        <ele>288</ele>
        <time>2021-02-28T10:52:47.901Z</time>
      </trkpt>
      <trkpt lat="45.74572" lon="5.32518">
        <ele>288</ele>
        <time>2021-02-28T10:52:48.902Z</time>
      </trkpt>
      <trkpt lat="45.74568" lon="5.32517">
        <ele>288</ele>
        <time>2021-02-28T10:52:49.902Z</time>
      </trkpt>
      <trkpt lat="45.74563" lon="5.32516">
        <ele>288</ele>
        <time>2021-02-28T10:52:50.901Z</time>
      </trkpt>
      <trkpt lat="45.74559" lon="5.32515">
        <ele>289</ele>
        <time>2021-02-28T10:52:51.902Z</time>
      </trkpt>
      <trkpt lat="45.74554" lon="5.32514">
        <ele>288</ele>
        <time>2021-02-28T10:52:52.901Z</time>
      </trkpt>
      <trkpt lat="45.7455" lon="5.32513">
        <ele>288</ele>
        <time>2021-02-28T10:52:53.902Z</time>
      </trkpt>
      <trkpt lat="45.74545" lon="5.32512">
        <ele>289</ele>
        <time>2021-02-28T10:52:54.901Z</time>
      </trkpt>
      <trkpt lat="45.74541" lon="5.32511">
        <ele>289</ele>
        <time>2021-02-28T10:52:55.902Z</time>
      </trkpt>
      <trkpt lat="45.74536" lon="5.32511">
        <ele>289</ele>
        <time>2021-02-28T10:52:56.901Z</time>
      </trkpt>
      <trkpt lat="45.74532" lon="5.32509">
        <ele>289</ele>
        <time>2021-02-28T10:52:57.901Z</time>
      </trkpt>
      <trkpt lat="45.74527" lon="5.32508">
        <ele>289</ele>
        <time>2021-02-28T10:52:58.902Z</time>
      </trkpt>
      <trkpt lat="45.74523" lon="5.32507">
        <ele>289</ele>
        <time>2021-02-28T10:52:59.901Z</time>
      </trkpt>
      <trkpt lat="45.74519" lon="5.32507">
        <ele>290</ele>
        <time>2021-02-28T10:53:00.901Z</time>
      </trkpt>
      <trkpt lat="45.74514" lon="5.32505">
        <ele>290</ele>
        <time>2021-02-28T10:53:01.901Z</time>
      </trkpt>
      <trkpt lat="45.7451" lon="5.32505">
        <ele>290</ele>
        <time>2021-02-28T10:53:02.902Z</time>
      </trkpt>
      <trkpt lat="45.74505" lon="5.32504">
        <ele>290</ele>
        <time>2021-02-28T10:53:03.901Z</time>
      </trkpt>
      <trkpt lat="45.745" lon="5.32503">
        <ele>290</ele>
        <time>2021-02-28T10:53:04.901Z</time>
      </trkpt>
      <trkpt lat="45.74496" lon="5.32502">
        <ele>290</ele>
        <time>2021-02-28T10:53:05.902Z</time>
      </trkpt>
      <trkpt lat="45.74491" lon="5.32501">
        <ele>291</ele>
        <time>2021-02-28T10:53:06.901Z</time>
      </trkpt>
      <trkpt lat="45.74486" lon="5.325">
        <ele>291</ele>
        <time>2021-02-28T10:53:07.901Z</time>
      </trkpt>
      <trkpt lat="45.74482" lon="5.32499">
        <ele>291</ele>
        <time>2021-02-28T10:53:08.902Z</time>
      </trkpt>
      <trkpt lat="45.74477" lon="5.32498">
        <ele>292</ele>
        <time>2021-02-28T10:53:09.902Z</time>
      </trkpt>
      <trkpt lat="45.74472" lon="5.32497">
        <ele>292</ele>
        <time>2021-02-28T10:53:10.901Z</time>
      </trkpt>
      <trkpt lat="45.74467" lon="5.32496">
        <ele>292</ele>
        <time>2021-02-28T10:53:11.901Z</time>
      </trkpt>
      <trkpt lat="45.74462" lon="5.32495">
        <ele>292</ele>
        <time>2021-02-28T10:53:12.901Z</time>
      </trkpt>
      <trkpt lat="45.74458" lon="5.32495">
        <ele>292</ele>
        <time>2021-02-28T10:53:13.902Z</time>
      </trkpt>
      <trkpt lat="45.74453" lon="5.32493">
        <ele>292</ele>
        <time>2021-02-28T10:53:14.901Z</time>
      </trkpt>
      <trkpt lat="45.74449" lon="5.32492">
        <ele>293</ele>
        <time>2021-02-28T10:53:15.902Z</time>
      </trkpt>
      <trkpt lat="45.74444" lon="5.32491">
        <ele>293</ele>
        <time>2021-02-28T10:53:16.901Z</time>
      </trkpt>
      <trkpt lat="45.74439" lon="5.3249">
        <ele>293</ele>
        <time>2021-02-28T10:53:17.901Z</time>
      </trkpt>
      <trkpt lat="45.74435" lon="5.32489">
        <ele>293</ele>
        <time>2021-02-28T10:53:18.901Z</time>
      </trkpt>
      <trkpt lat="45.7443" lon="5.32488">
        <ele>294</ele>
        <time>2021-02-28T10:53:19.902Z</time>
      </trkpt>
      <trkpt lat="45.74425" lon="5.32487">
        <ele>294</ele>
        <time>2021-02-28T10:53:20.901Z</time>
      </trkpt>
      <trkpt lat="45.74421" lon="5.32486">
        <ele>294</ele>
        <time>2021-02-28T10:53:21.901Z</time>
      </trkpt>
      <trkpt lat="45.74416" lon="5.32485">
        <ele>293</ele>
        <time>2021-02-28T10:53:22.901Z</time>
      </trkpt>
      <trkpt lat="45.74412" lon="5.32484">
        <ele>293</ele>
        <time>2021-02-28T10:53:23.901Z</time>
      </trkpt>
      <trkpt lat="45.74407" lon="5.32483">
        <ele>294</ele>
        <time>2021-02-28T10:53:24.901Z</time>
      </trkpt>
      <trkpt lat="45.74403" lon="5.32482">
        <ele>294</ele>
        <time>2021-02-28T10:53:25.902Z</time>
      </trkpt>
      <trkpt lat="45.74398" lon="5.32481">
        <ele>294</ele>
        <time>2021-02-28T10:53:26.902Z</time>
      </trkpt>
      <trkpt lat="45.74394" lon="5.3248">
        <ele>294</ele>
        <time>2021-02-28T10:53:27.901Z</time>
      </trkpt>
      <trkpt lat="45.74389" lon="5.32479">
        <ele>295</ele>
        <time>2021-02-28T10:53:28.901Z</time>
      </trkpt>
      <trkpt lat="45.74385" lon="5.32478">
        <ele>294</ele>
        <time>2021-02-28T10:53:29.902Z</time>
      </trkpt>
      <trkpt lat="45.7438" lon="5.32477">
        <ele>295</ele>
        <time>2021-02-28T10:53:30.901Z</time>
      </trkpt>
      <trkpt lat="45.74376" lon="5.32476">
        <ele>296</ele>
        <time>2021-02-28T10:53:31.901Z</time>
      </trkpt>
      <trkpt lat="45.74371" lon="5.32475">
        <ele>296</ele>
        <time>2021-02-28T10:53:32.901Z</time>
      </trkpt>
      <trkpt lat="45.74367" lon="5.32474">
        <ele>296</ele>
        <time>2021-02-28T10:53:33.901Z</time>
      </trkpt>
      <trkpt lat="45.74362" lon="5.32473">
        <ele>296</ele>
        <time>2021-02-28T10:53:34.901Z</time>
      </trkpt>
      <trkpt lat="45.74358" lon="5.32472">
        <ele>297</ele>
        <time>2021-02-28T10:53:35.901Z</time>
      </trkpt>
      <trkpt lat="45.74353" lon="5.32471">
        <ele>297</ele>
        <time>2021-02-28T10:53:36.901Z</time>
      </trkpt>
      <trkpt lat="45.74348" lon="5.3247">
        <ele>297</ele>
        <time>2021-02-28T10:53:37.902Z</time>
      </trkpt>
      <trkpt lat="45.74344" lon="5.32469">
        <ele>297</ele>
        <time>2021-02-28T10:53:38.902Z</time>
      </trkpt>
      <trkpt lat="45.74339" lon="5.32468">
        <ele>297</ele>
        <time>2021-02-28T10:53:39.902Z</time>
      </trkpt>
      <trkpt lat="45.74335" lon="5.32467">
        <ele>297</ele>
        <time>2021-02-28T10:53:40.902Z</time>
      </trkpt>
      <trkpt lat="45.7433" lon="5.32466">
        <ele>297</ele>
        <time>2021-02-28T10:53:41.901Z</time>
      </trkpt>
      <trkpt lat="45.74326" lon="5.32464">
        <ele>297</ele>
        <time>2021-02-28T10:53:42.901Z</time>
      </trkpt>
      <trkpt lat="45.74322" lon="5.32463">
        <ele>297</ele>
        <time>2021-02-28T10:53:43.901Z</time>
      </trkpt>
      <trkpt lat="45.74317" lon="5.32461">
        <ele>297</ele>
        <time>2021-02-28T10:53:44.902Z</time>
      </trkpt>
      <trkpt lat="45.74313" lon="5.32459">
        <ele>297</ele>
        <time>2021-02-28T10:53:45.901Z</time>
      </trkpt>
      <trkpt lat="45.74309" lon="5.32457">
        <ele>297</ele>
        <time>2021-02-28T10:53:46.902Z</time>
      </trkpt>
      <trkpt lat="45.74305" lon="5.32454">
        <ele>297</ele>
        <time>2021-02-28T10:53:47.901Z</time>
      </trkpt>
      <trkpt lat="45.74301" lon="5.32451">
        <ele>297</ele>
        <time>2021-02-28T10:53:48.901Z</time>
      </trkpt>
      <trkpt lat="45.74298" lon="5.32448">
        <ele>298</ele>
        <time>2021-02-28T10:53:49.901Z</time>
      </trkpt>
      <trkpt lat="45.74295" lon="5.32443">
        <ele>298</ele>
        <time>2021-02-28T10:53:50.901Z</time>
      </trkpt>
      <trkpt lat="45.74292" lon="5.32438">
        <ele>299</ele>
        <time>2021-02-28T10:53:51.901Z</time>
      </trkpt>
      <trkpt lat="45.7429" lon="5.32432">
        <ele>299</ele>
        <time>2021-02-28T10:53:52.901Z</time>
      </trkpt>
      <trkpt lat="45.74288" lon="5.32426">
        <ele>300</ele>
        <time>2021-02-28T10:53:53.902Z</time>
      </trkpt>
      <trkpt lat="45.74287" lon="5.3242">
        <ele>300</ele>
        <time>2021-02-28T10:53:54.901Z</time>
      </trkpt>
      <trkpt lat="45.74287" lon="5.32413">
        <ele>300</ele>
        <time>2021-02-28T10:53:55.902Z</time>
      </trkpt>
      <trkpt lat="45.74287" lon="5.32407">
        <ele>300</ele>
        <time>2021-02-28T10:53:56.902Z</time>
      </trkpt>
      <trkpt lat="45.74287" lon="5.324">
        <ele>300</ele>
        <time>2021-02-28T10:53:57.902Z</time>
      </trkpt>
      <trkpt lat="45.74288" lon="5.32394">
        <ele>301</ele>
        <time>2021-02-28T10:53:58.901Z</time>
      </trkpt>
      <trkpt lat="45.74289" lon="5.32387">
        <ele>301</ele>
        <time>2021-02-28T10:53:59.902Z</time>
      </trkpt>
      <trkpt lat="45.7429" lon="5.32381">
        <ele>301</ele>
        <time>2021-02-28T10:54:00.901Z</time>
      </trkpt>
      <trkpt lat="45.74292" lon="5.32376">
        <ele>301</ele>
        <time>2021-02-28T10:54:01.902Z</time>
      </trkpt>
      <trkpt lat="45.74294" lon="5.3237">
        <ele>301</ele>
        <time>2021-02-28T10:54:02.901Z</time>
      </trkpt>
      <trkpt lat="45.74296" lon="5.32364">
        <ele>301</ele>
        <time>2021-02-28T10:54:03.901Z</time>
      </trkpt>
      <trkpt lat="45.74298" lon="5.32359">
        <ele>302</ele>
        <time>2021-02-28T10:54:04.902Z</time>
      </trkpt>
      <trkpt lat="45.743" lon="5.32354">
        <ele>302</ele>
        <time>2021-02-28T10:54:05.901Z</time>
      </trkpt>
      <trkpt lat="45.74301" lon="5.32348">
        <ele>303</ele>
        <time>2021-02-28T10:54:06.901Z</time>
      </trkpt>
      <trkpt lat="45.74303" lon="5.32343">
        <ele>303</ele>
        <time>2021-02-28T10:54:07.901Z</time>
      </trkpt>
      <trkpt lat="45.74305" lon="5.32338">
        <ele>304</ele>
        <time>2021-02-28T10:54:08.902Z</time>
      </trkpt>
      <trkpt lat="45.74306" lon="5.32333">
        <ele>304</ele>
        <time>2021-02-28T10:54:09.902Z</time>
      </trkpt>
      <trkpt lat="45.74307" lon="5.32327">
        <ele>305</ele>
        <time>2021-02-28T10:54:10.902Z</time>
      </trkpt>
      <trkpt lat="45.74308" lon="5.32322">
        <ele>305</ele>
        <time>2021-02-28T10:54:11.901Z</time>
      </trkpt>
      <trkpt lat="45.74308" lon="5.32317">
        <ele>305</ele>
        <time>2021-02-28T10:54:12.901Z</time>
      </trkpt>
      <trkpt lat="45.74308" lon="5.32311">
        <ele>306</ele>
        <time>2021-02-28T10:54:13.901Z</time>
      </trkpt>
      <trkpt lat="45.74308" lon="5.32306">
        <ele>306</ele>
        <time>2021-02-28T10:54:14.901Z</time>
      </trkpt>
      <trkpt lat="45.74307" lon="5.323">
        <ele>306</ele>
        <time>2021-02-28T10:54:15.901Z</time>
      </trkpt>
      <trkpt lat="45.74306" lon="5.32295">
        <ele>306</ele>
        <time>2021-02-28T10:54:16.901Z</time>
      </trkpt>
      <trkpt lat="45.74304" lon="5.3229">
        <ele>306</ele>
        <time>2021-02-28T10:54:17.902Z</time>
      </trkpt>
      <trkpt lat="45.74303" lon="5.32285">
        <ele>306</ele>
        <time>2021-02-28T10:54:18.902Z</time>
      </trkpt>
      <trkpt lat="45.743" lon="5.3228">
        <ele>306</ele>
        <time>2021-02-28T10:54:19.901Z</time>
      </trkpt>
      <trkpt lat="45.74297" lon="5.32275">
        <ele>306</ele>
        <time>2021-02-28T10:54:20.902Z</time>
      </trkpt>
      <trkpt lat="45.74294" lon="5.32271">
        <ele>306</ele>
        <time>2021-02-28T10:54:21.901Z</time>
      </trkpt>
      <trkpt lat="45.74291" lon="5.32268">
        <ele>306</ele>
        <time>2021-02-28T10:54:22.901Z</time>
      </trkpt>
      <trkpt lat="45.74287" lon="5.32264">
        <ele>307</ele>
        <time>2021-02-28T10:54:23.901Z</time>
      </trkpt>
      <trkpt lat="45.74283" lon="5.32261">
        <ele>307</ele>
        <time>2021-02-28T10:54:24.901Z</time>
      </trkpt>
      <trkpt lat="45.74279" lon="5.32258">
        <ele>308</ele>
        <time>2021-02-28T10:54:25.901Z</time>
      </trkpt>
      <trkpt lat="45.74275" lon="5.32255">
        <ele>308</ele>
        <time>2021-02-28T10:54:26.901Z</time>
      </trkpt>
      <trkpt lat="45.74272" lon="5.32252">
        <ele>308</ele>
        <time>2021-02-28T10:54:27.901Z</time>
      </trkpt>
      <trkpt lat="45.74268" lon="5.32249">
        <ele>309</ele>
        <time>2021-02-28T10:54:28.901Z</time>
      </trkpt>
      <trkpt lat="45.74264" lon="5.32246">
        <ele>310</ele>
        <time>2021-02-28T10:54:29.901Z</time>
      </trkpt>
      <trkpt lat="45.74261" lon="5.32244">
        <ele>310</ele>
        <time>2021-02-28T10:54:30.902Z</time>
      </trkpt>
      <trkpt lat="45.74257" lon="5.32241">
        <ele>310</ele>
        <time>2021-02-28T10:54:31.901Z</time>
      </trkpt>
      <trkpt lat="45.74254" lon="5.32238">
        <ele>310</ele>
        <time>2021-02-28T10:54:32.901Z</time>
      </trkpt>
      <trkpt lat="45.7425" lon="5.32236">
        <ele>310</ele>
        <time>2021-02-28T10:54:33.901Z</time>
      </trkpt>
      <trkpt lat="45.74247" lon="5.32233">
        <ele>310</ele>
        <time>2021-02-28T10:54:34.902Z</time>
      </trkpt>
      <trkpt lat="45.74244" lon="5.32231">
        <ele>310</ele>
        <time>2021-02-28T10:54:35.901Z</time>
      </trkpt>
      <trkpt lat="45.7424" lon="5.32228">
        <ele>310</ele>
        <time>2021-02-28T10:54:36.901Z</time>
      </trkpt>
      <trkpt lat="45.74237" lon="5.32225">
        <ele>310</ele>
        <time>2021-02-28T10:54:37.901Z</time>
      </trkpt>
      <trkpt lat="45.74234" lon="5.32223">
        <ele>309</ele>
        <time>2021-02-28T10:54:38.901Z</time>
      </trkpt>
      <trkpt lat="45.74231" lon="5.3222">
        <ele>310</ele>
        <time>2021-02-28T10:54:39.901Z</time>
      </trkpt>
      <trkpt lat="45.74227" lon="5.32217">
        <ele>310</ele>
        <time>2021-02-28T10:54:40.902Z</time>
      </trkpt>
      <trkpt lat="45.74224" lon="5.32215">
        <ele>311</ele>
        <time>2021-02-28T10:54:41.902Z</time>
      </trkpt>
      <trkpt lat="45.7422" lon="5.32212">
        <ele>311</ele>
        <time>2021-02-28T10:54:42.901Z</time>
      </trkpt>
      <trkpt lat="45.74217" lon="5.3221">
        <ele>312</ele>
        <time>2021-02-28T10:54:43.901Z</time>
      </trkpt>
      <trkpt lat="45.74214" lon="5.32207">
        <ele>312</ele>
        <time>2021-02-28T10:54:44.901Z</time>
      </trkpt>
      <trkpt lat="45.7421" lon="5.32205">
        <ele>312</ele>
        <time>2021-02-28T10:54:45.901Z</time>
      </trkpt>
      <trkpt lat="45.74207" lon="5.32202">
        <ele>312</ele>
        <time>2021-02-28T10:54:46.901Z</time>
      </trkpt>
      <trkpt lat="45.74204" lon="5.322">
        <ele>313</ele>
        <time>2021-02-28T10:54:47.901Z</time>
      </trkpt>
      <trkpt lat="45.742" lon="5.32197">
        <ele>313</ele>
        <time>2021-02-28T10:54:48.902Z</time>
      </trkpt>
      <trkpt lat="45.74197" lon="5.32194">
        <ele>313</ele>
        <time>2021-02-28T10:54:49.901Z</time>
      </trkpt>
      <trkpt lat="45.74194" lon="5.32191">
        <ele>313</ele>
        <time>2021-02-28T10:54:50.901Z</time>
      </trkpt>
      <trkpt lat="45.74191" lon="5.32188">
        <ele>313</ele>
        <time>2021-02-28T10:54:51.902Z</time>
      </trkpt>
      <trkpt lat="45.74187" lon="5.32186">
        <ele>313</ele>
        <time>2021-02-28T10:54:52.901Z</time>
      </trkpt>
      <trkpt lat="45.74184" lon="5.32183">
        <ele>314</ele>
        <time>2021-02-28T10:54:53.901Z</time>
      </trkpt>
      <trkpt lat="45.74181" lon="5.3218">
        <ele>314</ele>
        <time>2021-02-28T10:54:54.901Z</time>
      </trkpt>
      <trkpt lat="45.74177" lon="5.32178">
        <ele>314</ele>
        <time>2021-02-28T10:54:55.901Z</time>
      </trkpt>
      <trkpt lat="45.74174" lon="5.32175">
        <ele>315</ele>
        <time>2021-02-28T10:54:56.901Z</time>
      </trkpt>
      <trkpt lat="45.74171" lon="5.32172">
        <ele>315</ele>
        <time>2021-02-28T10:54:57.901Z</time>
      </trkpt>
      <trkpt lat="45.74168" lon="5.3217">
        <ele>315</ele>
        <time>2021-02-28T10:54:58.901Z</time>
      </trkpt>
      <trkpt lat="45.74165" lon="5.32168">
        <ele>315</ele>
        <time>2021-02-28T10:54:59.901Z</time>
      </trkpt>
      <trkpt lat="45.74161" lon="5.32165">
        <ele>315</ele>
        <time>2021-02-28T10:55:00.901Z</time>
      </trkpt>
      <trkpt lat="45.74158" lon="5.32162">
        <ele>315</ele>
        <time>2021-02-28T10:55:01.902Z</time>
      </trkpt>
      <trkpt lat="45.74154" lon="5.3216">
        <ele>315</ele>
        <time>2021-02-28T10:55:02.901Z</time>
      </trkpt>
      <trkpt lat="45.74151" lon="5.32157">
        <ele>316</ele>
        <time>2021-02-28T10:55:03.902Z</time>
      </trkpt>
      <trkpt lat="45.74148" lon="5.32155">
        <ele>316</ele>
        <time>2021-02-28T10:55:04.901Z</time>
      </trkpt>
      <trkpt lat="45.74144" lon="5.32152">
        <ele>317</ele>
        <time>2021-02-28T10:55:05.901Z</time>
      </trkpt>
      <trkpt lat="45.74141" lon="5.32149">
        <ele>317</ele>
        <time>2021-02-28T10:55:06.902Z</time>
      </trkpt>
      <trkpt lat="45.74138" lon="5.32147">
        <ele>317</ele>
        <time>2021-02-28T10:55:07.902Z</time>
      </trkpt>
      <trkpt lat="45.74134" lon="5.32144">
        <ele>317</ele>
        <time>2021-02-28T10:55:08.901Z</time>
      </trkpt>
      <trkpt lat="45.74131" lon="5.32141">
        <ele>318</ele>
        <time>2021-02-28T10:55:09.902Z</time>
      </trkpt>
      <trkpt lat="45.74128" lon="5.32138">
        <ele>318</ele>
        <time>2021-02-28T10:55:10.901Z</time>
      </trkpt>
      <trkpt lat="45.74124" lon="5.32135">
        <ele>318</ele>
        <time>2021-02-28T10:55:11.901Z</time>
      </trkpt>
      <trkpt lat="45.7412" lon="5.32132">
        <ele>318</ele>
        <time>2021-02-28T10:55:12.901Z</time>
      </trkpt>
      <trkpt lat="45.74116" lon="5.32129">
        <ele>318</ele>
        <time>2021-02-28T10:55:13.902Z</time>
      </trkpt>
      <trkpt lat="45.74113" lon="5.32126">
        <ele>318</ele>
        <time>2021-02-28T10:55:14.901Z</time>
      </trkpt>
      <trkpt lat="45.74109" lon="5.32123">
        <ele>318</ele>
        <time>2021-02-28T10:55:15.901Z</time>
      </trkpt>
      <trkpt lat="45.74106" lon="5.3212">
        <ele>318</ele>
        <time>2021-02-28T10:55:16.901Z</time>
      </trkpt>
      <trkpt lat="45.74102" lon="5.32116">
        <ele>318</ele>
        <time>2021-02-28T10:55:17.901Z</time>
      </trkpt>
      <trkpt lat="45.74099" lon="5.32114">
        <ele>318</ele>
        <time>2021-02-28T10:55:18.901Z</time>
      </trkpt>
      <trkpt lat="45.74095" lon="5.32111">
        <ele>318</ele>
        <time>2021-02-28T10:55:19.902Z</time>
      </trkpt>
      <trkpt lat="45.74091" lon="5.32108">
        <ele>318</ele>
        <time>2021-02-28T10:55:20.901Z</time>
      </trkpt>
      <trkpt lat="45.74088" lon="5.32105">
        <ele>318</ele>
        <time>2021-02-28T10:55:21.901Z</time>
      </trkpt>
      <trkpt lat="45.74084" lon="5.32102">
        <ele>318</ele>
        <time>2021-02-28T10:55:22.901Z</time>
      </trkpt>
      <trkpt lat="45.74081" lon="5.321">
        <ele>319</ele>
        <time>2021-02-28T10:55:23.902Z</time>
      </trkpt>
      <trkpt lat="45.74077" lon="5.32097">
        <ele>318</ele>
        <time>2021-02-28T10:55:24.901Z</time>
      </trkpt>
      <trkpt lat="45.74074" lon="5.32094">
        <ele>319</ele>
        <time>2021-02-28T10:55:25.902Z</time>
      </trkpt>
      <trkpt lat="45.7407" lon="5.32092">
        <ele>319</ele>
        <time>2021-02-28T10:55:26.901Z</time>
      </trkpt>
      <trkpt lat="45.74066" lon="5.32089">
        <ele>319</ele>
        <time>2021-02-28T10:55:27.902Z</time>
      </trkpt>
      <trkpt lat="45.74062" lon="5.32086">
        <ele>319</ele>
        <time>2021-02-28T10:55:28.902Z</time>
      </trkpt>
      <trkpt lat="45.74059" lon="5.32084">
        <ele>319</ele>
        <time>2021-02-28T10:55:29.901Z</time>
      </trkpt>
      <trkpt lat="45.74055" lon="5.32082">
        <ele>319</ele>
        <time>2021-02-28T10:55:30.901Z</time>
      </trkpt>
      <trkpt lat="45.74052" lon="5.3208">
        <ele>319</ele>
        <time>2021-02-28T10:55:31.901Z</time>
      </trkpt>
      <trkpt lat="45.74048" lon="5.32077">
        <ele>319</ele>
        <time>2021-02-28T10:55:32.901Z</time>
      </trkpt>
      <trkpt lat="45.74045" lon="5.32076">
        <ele>320</ele>
        <time>2021-02-28T10:55:33.901Z</time>
      </trkpt>
      <trkpt lat="45.74042" lon="5.32074">
        <ele>321</ele>
        <time>2021-02-28T10:55:34.901Z</time>
      </trkpt>
      <trkpt lat="45.74039" lon="5.32073">
        <ele>321</ele>
        <time>2021-02-28T10:55:35.901Z</time>
      </trkpt>
      <trkpt lat="45.74036" lon="5.32071">
        <ele>321</ele>
        <time>2021-02-28T10:55:36.901Z</time>
      </trkpt>
      <trkpt lat="45.74033" lon="5.3207">
        <ele>321</ele>
        <time>2021-02-28T10:55:37.901Z</time>
      </trkpt>
      <trkpt lat="45.7403" lon="5.32069">
        <ele>321</ele>
        <time>2021-02-28T10:55:38.901Z</time>
      </trkpt>
      <trkpt lat="45.74026" lon="5.32068">
        <ele>321</ele>
        <time>2021-02-28T10:55:39.902Z</time>
      </trkpt>
      <trkpt lat="45.74023" lon="5.32067">
        <ele>321</ele>
        <time>2021-02-28T10:55:40.901Z</time>
      </trkpt>
      <trkpt lat="45.74019" lon="5.32065">
        <ele>320</ele>
        <time>2021-02-28T10:55:41.901Z</time>
      </trkpt>
      <trkpt lat="45.74015" lon="5.32064">
        <ele>320</ele>
        <time>2021-02-28T10:55:42.901Z</time>
      </trkpt>
      <trkpt lat="45.74011" lon="5.32063">
        <ele>320</ele>
        <time>2021-02-28T10:55:43.902Z</time>
      </trkpt>
      <trkpt lat="45.74007" lon="5.32062">
        <ele>320</ele>
        <time>2021-02-28T10:55:44.901Z</time>
      </trkpt>
      <trkpt lat="45.74004" lon="5.32061">
        <ele>320</ele>
        <time>2021-02-28T10:55:45.901Z</time>
      </trkpt>
      <trkpt lat="45.74" lon="5.32059">
        <ele>320</ele>
        <time>2021-02-28T10:55:46.902Z</time>
      </trkpt>
      <trkpt lat="45.73996" lon="5.32058">
        <ele>320</ele>
        <time>2021-02-28T10:55:47.901Z</time>
      </trkpt>
      <trkpt lat="45.73992" lon="5.32057">
        <ele>320</ele>
        <time>2021-02-28T10:55:48.901Z</time>
      </trkpt>
      <trkpt lat="45.73989" lon="5.32055">
        <ele>319</ele>
        <time>2021-02-28T10:55:49.901Z</time>
      </trkpt>
      <trkpt lat="45.73985" lon="5.32053">
        <ele>319</ele>
        <time>2021-02-28T10:55:50.901Z</time>
      </trkpt>
      <trkpt lat="45.73981" lon="5.32052">
        <ele>320</ele>
        <time>2021-02-28T10:55:51.901Z</time>
      </trkpt>
      <trkpt lat="45.73978" lon="5.3205">
        <ele>320</ele>
        <time>2021-02-28T10:55:52.901Z</time>
      </trkpt>
      <trkpt lat="45.73974" lon="5.32047">
        <ele>320</ele>
        <time>2021-02-28T10:55:53.901Z</time>
      </trkpt>
      <trkpt lat="45.73971" lon="5.32044">
        <ele>320</ele>
        <time>2021-02-28T10:55:54.901Z</time>
      </trkpt>
      <trkpt lat="45.73968" lon="5.3204">
        <ele>320</ele>
        <time>2021-02-28T10:55:55.902Z</time>
      </trkpt>
      <trkpt lat="45.73965" lon="5.32036">
        <ele>320</ele>
        <time>2021-02-28T10:55:56.901Z</time>
      </trkpt>
      <trkpt lat="45.73963" lon="5.32031">
        <ele>320</ele>
        <time>2021-02-28T10:55:57.901Z</time>
      </trkpt>
      <trkpt lat="45.73961" lon="5.32027">
        <ele>321</ele>
        <time>2021-02-28T10:55:58.901Z</time>
      </trkpt>
      <trkpt lat="45.73959" lon="5.32022">
        <ele>321</ele>
        <time>2021-02-28T10:55:59.901Z</time>
      </trkpt>
      <trkpt lat="45.73957" lon="5.32018">
        <ele>322</ele>
        <time>2021-02-28T10:56:00.901Z</time>
      </trkpt>
      <trkpt lat="45.73955" lon="5.32013">
        <ele>322</ele>
        <time>2021-02-28T10:56:01.901Z</time>
      </trkpt>
      <trkpt lat="45.73953" lon="5.32009">
        <ele>322</ele>
        <time>2021-02-28T10:56:02.902Z</time>
      </trkpt>
      <trkpt lat="45.73951" lon="5.32005">
        <ele>323</ele>
        <time>2021-02-28T10:56:03.901Z</time>
      </trkpt>
      <trkpt lat="45.7395" lon="5.32001">
        <ele>323</ele>
        <time>2021-02-28T10:56:04.902Z</time>
      </trkpt>
      <trkpt lat="45.73948" lon="5.31996">
        <ele>323</ele>
        <time>2021-02-28T10:56:05.901Z</time>
      </trkpt>
      <trkpt lat="45.73947" lon="5.31992">
        <ele>323</ele>
        <time>2021-02-28T10:56:06.901Z</time>
      </trkpt>
      <trkpt lat="45.73946" lon="5.31987">
        <ele>323</ele>
        <time>2021-02-28T10:56:07.901Z</time>
      </trkpt>
      <trkpt lat="45.73944" lon="5.31983">
        <ele>324</ele>
        <time>2021-02-28T10:56:08.901Z</time>
      </trkpt>
      <trkpt lat="45.73943" lon="5.31979">
        <ele>324</ele>
        <time>2021-02-28T10:56:09.901Z</time>
      </trkpt>
      <trkpt lat="45.73941" lon="5.31975">
        <ele>325</ele>
        <time>2021-02-28T10:56:10.902Z</time>
      </trkpt>
      <trkpt lat="45.73939" lon="5.31972">
        <ele>326</ele>
        <time>2021-02-28T10:56:11.901Z</time>
      </trkpt>
      <trkpt lat="45.73937" lon="5.31969">
        <ele>326</ele>
        <time>2021-02-28T10:56:12.902Z</time>
      </trkpt>
      <trkpt lat="45.73935" lon="5.31966">
        <ele>327</ele>
        <time>2021-02-28T10:56:13.901Z</time>
      </trkpt>
      <trkpt lat="45.73933" lon="5.31963">
        <ele>327</ele>
        <time>2021-02-28T10:56:14.901Z</time>
      </trkpt>
      <trkpt lat="45.7393" lon="5.3196">
        <ele>327</ele>
        <time>2021-02-28T10:56:15.902Z</time>
      </trkpt>
      <trkpt lat="45.73928" lon="5.31957">
        <ele>328</ele>
        <time>2021-02-28T10:56:16.901Z</time>
      </trkpt>
      <trkpt lat="45.73926" lon="5.31955">
        <ele>328</ele>
        <time>2021-02-28T10:56:17.901Z</time>
      </trkpt>
      <trkpt lat="45.73923" lon="5.31952">
        <ele>328</ele>
        <time>2021-02-28T10:56:18.902Z</time>
      </trkpt>
      <trkpt lat="45.7392" lon="5.31951">
        <ele>329</ele>
        <time>2021-02-28T10:56:19.901Z</time>
      </trkpt>
      <trkpt lat="45.73917" lon="5.31949">
        <ele>329</ele>
        <time>2021-02-28T10:56:20.901Z</time>
      </trkpt>
      <trkpt lat="45.73913" lon="5.31947">
        <ele>329</ele>
        <time>2021-02-28T10:56:21.901Z</time>
      </trkpt>
      <trkpt lat="45.7391" lon="5.31945">
        <ele>329</ele>
        <time>2021-02-28T10:56:22.901Z</time>
      </trkpt>
      <trkpt lat="45.73907" lon="5.31944">
        <ele>329</ele>
        <time>2021-02-28T10:56:23.901Z</time>
      </trkpt>
      <trkpt lat="45.73904" lon="5.31943">
        <ele>329</ele>
        <time>2021-02-28T10:56:24.901Z</time>
      </trkpt>
      <trkpt lat="45.73901" lon="5.31942">
        <ele>329</ele>
        <time>2021-02-28T10:56:25.901Z</time>
      </trkpt>
      <trkpt lat="45.73898" lon="5.31942">
        <ele>330</ele>
        <time>2021-02-28T10:56:26.901Z</time>
      </trkpt>
      <trkpt lat="45.73895" lon="5.31941">
        <ele>330</ele>
        <time>2021-02-28T10:56:27.902Z</time>
      </trkpt>
      <trkpt lat="45.73893" lon="5.31941">
        <ele>329</ele>
        <time>2021-02-28T10:56:28.901Z</time>
      </trkpt>
      <trkpt lat="45.7389" lon="5.31941">
        <ele>329</ele>
        <time>2021-02-28T10:56:29.901Z</time>
      </trkpt>
      <trkpt lat="45.73887" lon="5.3194">
        <ele>329</ele>
        <time>2021-02-28T10:56:30.902Z</time>
      </trkpt>
      <trkpt lat="45.73884" lon="5.31939">
        <ele>329</ele>
        <time>2021-02-28T10:56:31.901Z</time>
      </trkpt>
      <trkpt lat="45.73881" lon="5.31939">
        <ele>329</ele>
        <time>2021-02-28T10:56:32.902Z</time>
      </trkpt>
      <trkpt lat="45.73878" lon="5.31938">
        <ele>329</ele>
        <time>2021-02-28T10:56:33.901Z</time>
      </trkpt>
      <trkpt lat="45.73874" lon="5.31937">
        <ele>329</ele>
        <time>2021-02-28T10:56:34.902Z</time>
      </trkpt>
      <trkpt lat="45.73871" lon="5.31937">
        <ele>329</ele>
        <time>2021-02-28T10:56:35.901Z</time>
      </trkpt>
      <trkpt lat="45.73867" lon="5.31936">
        <ele>329</ele>
        <time>2021-02-28T10:56:36.901Z</time>
      </trkpt>
      <trkpt lat="45.73864" lon="5.31935">
        <ele>329</ele>
        <time>2021-02-28T10:56:37.901Z</time>
      </trkpt>
      <trkpt lat="45.7386" lon="5.31935">
        <ele>330</ele>
        <time>2021-02-28T10:56:38.901Z</time>
      </trkpt>
      <trkpt lat="45.73857" lon="5.31934">
        <ele>330</ele>
        <time>2021-02-28T10:56:39.901Z</time>
      </trkpt>
      <trkpt lat="45.73853" lon="5.31933">
        <ele>331</ele>
        <time>2021-02-28T10:56:40.901Z</time>
      </trkpt>
      <trkpt lat="45.73849" lon="5.31932">
        <ele>331</ele>
        <time>2021-02-28T10:56:41.901Z</time>
      </trkpt>
      <trkpt lat="45.73846" lon="5.31931">
        <ele>330</ele>
        <time>2021-02-28T10:56:42.901Z</time>
      </trkpt>
      <trkpt lat="45.73842" lon="5.3193">
        <ele>330</ele>
        <time>2021-02-28T10:56:43.901Z</time>
      </trkpt>
      <trkpt lat="45.73838" lon="5.3193">
        <ele>330</ele>
        <time>2021-02-28T10:56:44.901Z</time>
      </trkpt>
      <trkpt lat="45.73834" lon="5.31929">
        <ele>329</ele>
        <time>2021-02-28T10:56:45.901Z</time>
      </trkpt>
      <trkpt lat="45.73831" lon="5.31929">
        <ele>330</ele>
        <time>2021-02-28T10:56:46.901Z</time>
      </trkpt>
      <trkpt lat="45.73827" lon="5.31928">
        <ele>330</ele>
        <time>2021-02-28T10:56:47.901Z</time>
      </trkpt>
      <trkpt lat="45.73823" lon="5.31928">
        <ele>331</ele>
        <time>2021-02-28T10:56:48.901Z</time>
      </trkpt>
      <trkpt lat="45.7382" lon="5.31927">
        <ele>331</ele>
        <time>2021-02-28T10:56:49.901Z</time>
      </trkpt>
      <trkpt lat="45.73816" lon="5.31926">
        <ele>331</ele>
        <time>2021-02-28T10:56:50.901Z</time>
      </trkpt>
      <trkpt lat="45.73813" lon="5.31926">
        <ele>332</ele>
        <time>2021-02-28T10:56:51.902Z</time>
      </trkpt>
      <trkpt lat="45.73809" lon="5.31925">
        <ele>333</ele>
        <time>2021-02-28T10:56:52.901Z</time>
      </trkpt>
      <trkpt lat="45.73805" lon="5.31924">
        <ele>333</ele>
        <time>2021-02-28T10:56:53.902Z</time>
      </trkpt>
      <trkpt lat="45.73801" lon="5.31922">
        <ele>334</ele>
        <time>2021-02-28T10:57:00.016Z</time>
      </trkpt>
      <trkpt lat="45.73798" lon="5.3192">
        <ele>335</ele>
        <time>2021-02-28T10:57:01.017Z</time>
      </trkpt>
      <trkpt lat="45.73794" lon="5.31917">
        <ele>335</ele>
        <time>2021-02-28T10:57:02.016Z</time>
      </trkpt>
      <trkpt lat="45.7379" lon="5.31914">
        <ele>335</ele>
        <time>2021-02-28T10:57:53.158Z</time>
      </trkpt>
      <trkpt lat="45.73787" lon="5.31911">
        <ele>335</ele>
        <time>2021-02-28T10:57:54.157Z</time>
      </trkpt>
      <trkpt lat="45.73783" lon="5.31907">
        <ele>335</ele>
        <time>2021-02-28T10:57:55.157Z</time>
      </trkpt>
      <trkpt lat="45.7378" lon="5.31903">
        <ele>335</ele>
        <time>2021-02-28T10:57:56.158Z</time>
      </trkpt>
      <trkpt lat="45.73777" lon="5.31899">
        <ele>335</ele>
        <time>2021-02-28T10:57:57.158Z</time>
      </trkpt>
      <trkpt lat="45.73775" lon="5.31895">
        <ele>336</ele>
        <time>2021-02-28T10:57:58.157Z</time>
      </trkpt>
      <trkpt lat="45.73772" lon="5.31889">
        <ele>336</ele>
        <time>2021-02-28T10:57:59.158Z</time>
      </trkpt>
      <trkpt lat="45.73769" lon="5.31884">
        <ele>337</ele>
        <time>2021-02-28T10:58:00.158Z</time>
      </trkpt>
      <trkpt lat="45.73766" lon="5.31879">
        <ele>337</ele>
        <time>2021-02-28T10:58:01.157Z</time>
      </trkpt>
      <trkpt lat="45.73764" lon="5.31873">
        <ele>338</ele>
        <time>2021-02-28T10:58:02.158Z</time>
      </trkpt>
      <trkpt lat="45.73761" lon="5.31868">
        <ele>338</ele>
        <time>2021-02-28T10:58:03.157Z</time>
      </trkpt>
      <trkpt lat="45.73759" lon="5.31862">
        <ele>339</ele>
        <time>2021-02-28T10:58:04.158Z</time>
      </trkpt>
      <trkpt lat="45.73756" lon="5.31857">
        <ele>340</ele>
        <time>2021-02-28T10:58:05.158Z</time>
      </trkpt>
      <trkpt lat="45.73754" lon="5.31851">
        <ele>340</ele>
        <time>2021-02-28T10:58:06.158Z</time>
      </trkpt>
      <trkpt lat="45.73752" lon="5.31846">
        <ele>340</ele>
        <time>2021-02-28T10:58:07.158Z</time>
      </trkpt>
      <trkpt lat="45.73749" lon="5.3184">
        <ele>340</ele>
        <time>2021-02-28T10:58:08.157Z</time>
      </trkpt>
      <trkpt lat="45.73747" lon="5.31834">
        <ele>341</ele>
        <time>2021-02-28T10:58:09.158Z</time>
      </trkpt>
      <trkpt lat="45.73745" lon="5.31829">
        <ele>341</ele>
        <time>2021-02-28T10:58:10.158Z</time>
      </trkpt>
      <trkpt lat="45.73742" lon="5.31824">
        <ele>341</ele>
        <time>2021-02-28T10:58:11.158Z</time>
      </trkpt>
      <trkpt lat="45.73739" lon="5.31819">
        <ele>341</ele>
        <time>2021-02-28T10:58:12.158Z</time>
      </trkpt>
      <trkpt lat="45.73736" lon="5.31814">
        <ele>342</ele>
        <time>2021-02-28T10:58:13.157Z</time>
      </trkpt>
      <trkpt lat="45.73733" lon="5.3181">
        <ele>341</ele>
        <time>2021-02-28T10:58:14.157Z</time>
      </trkpt>
      <trkpt lat="45.7373" lon="5.31806">
        <ele>342</ele>
        <time>2021-02-28T10:58:15.157Z</time>
      </trkpt>
      <trkpt lat="45.73726" lon="5.31802">
        <ele>342</ele>
        <time>2021-02-28T10:58:16.158Z</time>
      </trkpt>
      <trkpt lat="45.73723" lon="5.31798">
        <ele>343</ele>
        <time>2021-02-28T10:58:17.157Z</time>
      </trkpt>
      <trkpt lat="45.73719" lon="5.31795">
        <ele>344</ele>
        <time>2021-02-28T10:58:18.158Z</time>
      </trkpt>
      <trkpt lat="45.73715" lon="5.31793">
        <ele>344</ele>
        <time>2021-02-28T10:58:19.158Z</time>
      </trkpt>
      <trkpt lat="45.73711" lon="5.3179">
        <ele>344</ele>
        <time>2021-02-28T10:58:20.157Z</time>
      </trkpt>
      <trkpt lat="45.73707" lon="5.31788">
        <ele>344</ele>
        <time>2021-02-28T10:58:21.157Z</time>
      </trkpt>
      <trkpt lat="45.73703" lon="5.31785">
        <ele>343</ele>
        <time>2021-02-28T10:58:22.158Z</time>
      </trkpt>
      <trkpt lat="45.73699" lon="5.31783">
        <ele>343</ele>
        <time>2021-02-28T10:58:23.158Z</time>
      </trkpt>
      <trkpt lat="45.73695" lon="5.31781">
        <ele>342</ele>
        <time>2021-02-28T10:58:24.157Z</time>
      </trkpt>
      <trkpt lat="45.7369" lon="5.31779">
        <ele>342</ele>
        <time>2021-02-28T10:58:25.157Z</time>
      </trkpt>
      <trkpt lat="45.73686" lon="5.31777">
        <ele>342</ele>
        <time>2021-02-28T10:58:26.157Z</time>
      </trkpt>
      <trkpt lat="45.73681" lon="5.31776">
        <ele>342</ele>
        <time>2021-02-28T10:58:27.157Z</time>
      </trkpt>
      <trkpt lat="45.73676" lon="5.31774">
        <ele>342</ele>
        <time>2021-02-28T10:58:28.157Z</time>
      </trkpt>
      <trkpt lat="45.73672" lon="5.31773">
        <ele>343</ele>
        <time>2021-02-28T10:58:29.158Z</time>
      </trkpt>
      <trkpt lat="45.73667" lon="5.31771">
        <ele>343</ele>
        <time>2021-02-28T10:58:30.157Z</time>
      </trkpt>
      <trkpt lat="45.73663" lon="5.3177">
        <ele>343</ele>
        <time>2021-02-28T10:58:31.157Z</time>
      </trkpt>
      <trkpt lat="45.73658" lon="5.31768">
        <ele>344</ele>
        <time>2021-02-28T10:58:32.158Z</time>
      </trkpt>
      <trkpt lat="45.73654" lon="5.31767">
        <ele>345</ele>
        <time>2021-02-28T10:58:33.157Z</time>
      </trkpt>
      <trkpt lat="45.73649" lon="5.31765">
        <ele>346</ele>
        <time>2021-02-28T10:58:34.158Z</time>
      </trkpt>
      <trkpt lat="45.73645" lon="5.31763">
        <ele>346</ele>
        <time>2021-02-28T10:58:35.157Z</time>
      </trkpt>
      <trkpt lat="45.73641" lon="5.31761">
        <ele>346</ele>
        <time>2021-02-28T10:58:36.158Z</time>
      </trkpt>
      <trkpt lat="45.73636" lon="5.31759">
        <ele>347</ele>
        <time>2021-02-28T10:58:37.158Z</time>
      </trkpt>
      <trkpt lat="45.73632" lon="5.31757">
        <ele>347</ele>
        <time>2021-02-28T10:58:38.157Z</time>
      </trkpt>
      <trkpt lat="45.73628" lon="5.31755">
        <ele>347</ele>
        <time>2021-02-28T10:58:39.157Z</time>
      </trkpt>
      <trkpt lat="45.73623" lon="5.31752">
        <ele>348</ele>
        <time>2021-02-28T10:58:40.158Z</time>
      </trkpt>
      <trkpt lat="45.73619" lon="5.31749">
        <ele>348</ele>
        <time>2021-02-28T10:58:41.157Z</time>
      </trkpt>
      <trkpt lat="45.73615" lon="5.31746">
        <ele>349</ele>
        <time>2021-02-28T10:58:42.157Z</time>
      </trkpt>
      <trkpt lat="45.73611" lon="5.31743">
        <ele>349</ele>
        <time>2021-02-28T10:58:43.157Z</time>
      </trkpt>
      <trkpt lat="45.73607" lon="5.3174">
        <ele>349</ele>
        <time>2021-02-28T10:58:44.157Z</time>
      </trkpt>
      <trkpt lat="45.73603" lon="5.31736">
        <ele>350</ele>
        <time>2021-02-28T10:58:45.157Z</time>
      </trkpt>
      <trkpt lat="45.73599" lon="5.31733">
        <ele>350</ele>
        <time>2021-02-28T10:58:46.158Z</time>
      </trkpt>
      <trkpt lat="45.73595" lon="5.31729">
        <ele>350</ele>
        <time>2021-02-28T10:58:47.158Z</time>
      </trkpt>
      <trkpt lat="45.73591" lon="5.31725">
        <ele>350</ele>
        <time>2021-02-28T10:58:48.157Z</time>
      </trkpt>
      <trkpt lat="45.73588" lon="5.31721">
        <ele>350</ele>
        <time>2021-02-28T10:58:49.158Z</time>
      </trkpt>
      <trkpt lat="45.73585" lon="5.31718">
        <ele>350</ele>
        <time>2021-02-28T10:58:50.158Z</time>
      </trkpt>
      <trkpt lat="45.73581" lon="5.31714">
        <ele>350</ele>
        <time>2021-02-28T10:58:51.158Z</time>
      </trkpt>
      <trkpt lat="45.73578" lon="5.3171">
        <ele>350</ele>
        <time>2021-02-28T10:58:52.157Z</time>
      </trkpt>
      <trkpt lat="45.73575" lon="5.31706">
        <ele>350</ele>
        <time>2021-02-28T10:58:53.157Z</time>
      </trkpt>
      <trkpt lat="45.73572" lon="5.31703">
        <ele>351</ele>
        <time>2021-02-28T10:58:54.157Z</time>
      </trkpt>
      <trkpt lat="45.73569" lon="5.317">
        <ele>351</ele>
        <time>2021-02-28T10:58:55.158Z</time>
      </trkpt>
      <trkpt lat="45.73566" lon="5.31698">
        <ele>351</ele>
        <time>2021-02-28T10:58:56.157Z</time>
      </trkpt>
      <trkpt lat="45.73563" lon="5.31695">
        <ele>352</ele>
        <time>2021-02-28T10:58:57.157Z</time>
      </trkpt>
      <trkpt lat="45.7356" lon="5.31692">
        <ele>353</ele>
        <time>2021-02-28T10:58:58.157Z</time>
      </trkpt>
      <trkpt lat="45.73558" lon="5.3169">
        <ele>353</ele>
        <time>2021-02-28T10:58:59.157Z</time>
      </trkpt>
      <trkpt lat="45.73555" lon="5.31687">
        <ele>353</ele>
        <time>2021-02-28T10:59:00.158Z</time>
      </trkpt>
      <trkpt lat="45.73553" lon="5.31686">
        <ele>353</ele>
        <time>2021-02-28T10:59:01.157Z</time>
      </trkpt>
      <trkpt lat="45.73551" lon="5.31684">
        <ele>353</ele>
        <time>2021-02-28T10:59:02.157Z</time>
      </trkpt>
      <trkpt lat="45.73549" lon="5.31682">
        <ele>354</ele>
        <time>2021-02-28T10:59:03.157Z</time>
      </trkpt>
      <trkpt lat="45.73548" lon="5.31681">
        <ele>354</ele>
        <time>2021-02-28T10:59:04.157Z</time>
      </trkpt>
      <trkpt lat="45.73546" lon="5.31679">
        <ele>354</ele>
        <time>2021-02-28T10:59:05.158Z</time>
      </trkpt>
      <trkpt lat="45.73545" lon="5.31678">
        <ele>355</ele>
        <time>2021-02-28T10:59:06.157Z</time>
      </trkpt>
      <trkpt lat="45.73543" lon="5.31677">
        <ele>355</ele>
        <time>2021-02-28T10:59:07.158Z</time>
      </trkpt>
      <trkpt lat="45.73542" lon="5.31675">
        <ele>355</ele>
        <time>2021-02-28T10:59:08.157Z</time>
      </trkpt>
      <trkpt lat="45.73541" lon="5.31673">
        <ele>355</ele>
        <time>2021-02-28T10:59:09.158Z</time>
      </trkpt>
      <trkpt lat="45.73539" lon="5.31672">
        <ele>355</ele>
        <time>2021-02-28T10:59:10.157Z</time>
      </trkpt>
      <trkpt lat="45.73539" lon="5.31671">
        <ele>355</ele>
        <time>2021-02-28T10:59:11.157Z</time>
      </trkpt>
      <trkpt lat="45.73538" lon="5.3167">
        <ele>355</ele>
        <time>2021-02-28T10:59:12.158Z</time>
      </trkpt>
      <trkpt lat="45.73537" lon="5.31669">
        <ele>354</ele>
        <time>2021-02-28T10:59:13.158Z</time>
      </trkpt>
      <trkpt lat="45.73537" lon="5.31669">
        <ele>354</ele>
        <time>2021-02-28T10:59:14.157Z</time>
      </trkpt>
      <trkpt lat="45.73538" lon="5.31668">
        <ele>354</ele>
        <time>2021-02-28T10:59:15.157Z</time>
      </trkpt>
      <trkpt lat="45.73545" lon="5.31676">
        <ele>354</ele>
        <time>2021-02-28T10:59:16.158Z</time>
      </trkpt>
      <trkpt lat="45.73547" lon="5.31676">
        <ele>354</ele>
        <time>2021-02-28T10:59:17.158Z</time>
      </trkpt>
      <trkpt lat="45.73548" lon="5.31676">
        <ele>354</ele>
        <time>2021-02-28T10:59:18.157Z</time>
      </trkpt>
      <trkpt lat="45.73549" lon="5.31676">
        <ele>354</ele>
        <time>2021-02-28T10:59:19.158Z</time>
      </trkpt>
      <trkpt lat="45.7355" lon="5.31675">
        <ele>354</ele>
        <time>2021-02-28T10:59:20.158Z</time>
      </trkpt>
      <trkpt lat="45.73551" lon="5.31674">
        <ele>354</ele>
        <time>2021-02-28T10:59:21.158Z</time>
      </trkpt>
      <trkpt lat="45.73552" lon="5.31672">
        <ele>355</ele>
        <time>2021-02-28T10:59:22.158Z</time>
      </trkpt>
      <trkpt lat="45.73552" lon="5.31671">
        <ele>355</ele>
        <time>2021-02-28T10:59:23.158Z</time>
      </trkpt>
      <trkpt lat="45.73552" lon="5.31669">
        <ele>355</ele>
        <time>2021-02-28T10:59:24.158Z</time>
      </trkpt>
      <trkpt lat="45.73553" lon="5.31668">
        <ele>355</ele>
        <time>2021-02-28T10:59:25.157Z</time>
      </trkpt>
      <trkpt lat="45.73553" lon="5.31666">
        <ele>355</ele>
        <time>2021-02-28T10:59:26.158Z</time>
      </trkpt>
      <trkpt lat="45.73554" lon="5.31664">
        <ele>355</ele>
        <time>2021-02-28T10:59:27.158Z</time>
      </trkpt>
      <trkpt lat="45.73555" lon="5.31663">
        <ele>355</ele>
        <time>2021-02-28T10:59:28.158Z</time>
      </trkpt>
      <trkpt lat="45.73556" lon="5.31662">
        <ele>355</ele>
        <time>2021-02-28T10:59:29.158Z</time>
      </trkpt>
      <trkpt lat="45.73557" lon="5.31662">
        <ele>355</ele>
        <time>2021-02-28T10:59:30.157Z</time>
      </trkpt>
      <trkpt lat="45.73557" lon="5.31662">
        <ele>355</ele>
        <time>2021-02-28T10:59:31.157Z</time>
      </trkpt>
      <trkpt lat="45.73557" lon="5.31662">
        <ele>356</ele>
        <time>2021-02-28T10:59:32.157Z</time>
      </trkpt>
      <trkpt lat="45.73557" lon="5.31662">
        <ele>356</ele>
        <time>2021-02-28T10:59:33.158Z</time>
      </trkpt>
      <trkpt lat="45.73558" lon="5.31662">
        <ele>357</ele>
        <time>2021-02-28T10:59:34.159Z</time>
      </trkpt>
      <trkpt lat="45.73557" lon="5.31662">
        <ele>357</ele>
        <time>2021-02-28T10:59:35.159Z</time>
      </trkpt>
      <trkpt lat="45.73557" lon="5.31662">
        <ele>358</ele>
        <time>2021-02-28T10:59:36.158Z</time>
      </trkpt>
      <trkpt lat="45.73556" lon="5.3166">
        <ele>359</ele>
        <time>2021-02-28T10:59:37.159Z</time>
      </trkpt>
      <trkpt lat="45.73556" lon="5.3166">
        <ele>359</ele>
        <time>2021-02-28T10:59:38.160Z</time>
      </trkpt>
      <trkpt lat="45.73556" lon="5.3166">
        <ele>359</ele>
        <time>2021-02-28T10:59:39.159Z</time>
      </trkpt>
      <trkpt lat="45.73556" lon="5.31659">
        <ele>361</ele>
        <time>2021-02-28T10:59:40.160Z</time>
      </trkpt>
      <trkpt lat="45.73557" lon="5.3166">
        <ele>361</ele>
        <time>2021-02-28T10:59:41.160Z</time>
      </trkpt>
      <trkpt lat="45.73557" lon="5.31661">
        <ele>361</ele>
        <time>2021-02-28T10:59:42.159Z</time>
      </trkpt>
      <trkpt lat="45.73557" lon="5.31659">
        <ele>361</ele>
        <time>2021-02-28T10:59:43.160Z</time>
      </trkpt>
      <trkpt lat="45.73558" lon="5.31655">
        <ele>361</ele>
        <time>2021-02-28T10:59:44.160Z</time>
      </trkpt>
      <trkpt lat="45.7356" lon="5.3165">
        <ele>361</ele>
        <time>2021-02-28T10:59:45.160Z</time>
      </trkpt>
      <trkpt lat="45.7356" lon="5.31651">
        <ele>361</ele>
        <time>2021-02-28T10:59:46.160Z</time>
      </trkpt>
      <trkpt lat="45.73558" lon="5.31656">
        <ele>361</ele>
        <time>2021-02-28T10:59:47.160Z</time>
      </trkpt>
      <trkpt lat="45.73558" lon="5.31659">
        <ele>361</ele>
        <time>2021-02-28T10:59:48.160Z</time>
      </trkpt>
      <trkpt lat="45.73559" lon="5.31658">
        <ele>361</ele>
        <time>2021-02-28T10:59:49.160Z</time>
      </trkpt>
      <trkpt lat="45.7356" lon="5.31658">
        <ele>361</ele>
        <time>2021-02-28T10:59:50.159Z</time>
      </trkpt>
      <trkpt lat="45.7356" lon="5.31661">
        <ele>361</ele>
        <time>2021-02-28T10:59:51.160Z</time>
      </trkpt>
      <trkpt lat="45.7356" lon="5.31663">
        <ele>361</ele>
        <time>2021-02-28T10:59:52.160Z</time>
      </trkpt>
      <trkpt lat="45.73559" lon="5.31667">
        <ele>361</ele>
        <time>2021-02-28T10:59:53.160Z</time>
      </trkpt>
      <trkpt lat="45.73558" lon="5.31671">
        <ele>361</ele>
        <time>2021-02-28T10:59:54.160Z</time>
      </trkpt>
      <trkpt lat="45.73558" lon="5.31674">
        <ele>361</ele>
        <time>2021-02-28T10:59:55.159Z</time>
      </trkpt>
      <trkpt lat="45.73557" lon="5.31677">
        <ele>361</ele>
        <time>2021-02-28T10:59:56.159Z</time>
      </trkpt>
      <trkpt lat="45.73557" lon="5.31677">
        <ele>361</ele>
        <time>2021-02-28T10:59:57.160Z</time>
      </trkpt>
      <trkpt lat="45.73556" lon="5.31677">
        <ele>361</ele>
        <time>2021-02-28T10:59:58.160Z</time>
      </trkpt>
      <trkpt lat="45.73557" lon="5.31674">
        <ele>361</ele>
        <time>2021-02-28T10:59:59.160Z</time>
      </trkpt>
      <trkpt lat="45.73558" lon="5.31667">
        <ele>361</ele>
        <time>2021-02-28T11:00:00.160Z</time>
      </trkpt>
      <trkpt lat="45.73558" lon="5.31664">
        <ele>361</ele>
        <time>2021-02-28T11:00:01.159Z</time>
      </trkpt>
      <trkpt lat="45.73559" lon="5.3166">
        <ele>361</ele>
        <time>2021-02-28T11:00:02.160Z</time>
      </trkpt>
      <trkpt lat="45.7356" lon="5.31658">
        <ele>361</ele>
        <time>2021-02-28T11:00:03.160Z</time>
      </trkpt>
      <trkpt lat="45.73561" lon="5.31656">
        <ele>362</ele>
        <time>2021-02-28T11:00:04.160Z</time>
      </trkpt>
      <trkpt lat="45.73563" lon="5.31653">
        <ele>362</ele>
        <time>2021-02-28T11:00:05.160Z</time>
      </trkpt>
      <trkpt lat="45.73564" lon="5.3165">
        <ele>362</ele>
        <time>2021-02-28T11:00:06.160Z</time>
      </trkpt>
      <trkpt lat="45.73564" lon="5.31649">
        <ele>362</ele>
        <time>2021-02-28T11:00:07.160Z</time>
      </trkpt>
      <trkpt lat="45.73564" lon="5.31648">
        <ele>362</ele>
        <time>2021-02-28T11:00:08.159Z</time>
      </trkpt>
      <trkpt lat="45.73564" lon="5.31647">
        <ele>362</ele>
        <time>2021-02-28T11:00:09.160Z</time>
      </trkpt>
      <trkpt lat="45.73565" lon="5.31646">
        <ele>362</ele>
        <time>2021-02-28T11:00:10.159Z</time>
      </trkpt>
      <trkpt lat="45.73565" lon="5.31646">
        <ele>362</ele>
        <time>2021-02-28T11:00:11.159Z</time>
      </trkpt>
      <trkpt lat="45.73566" lon="5.31645">
        <ele>362</ele>
        <time>2021-02-28T11:00:12.160Z</time>
      </trkpt>
      <trkpt lat="45.73566" lon="5.31647">
        <ele>361</ele>
        <time>2021-02-28T11:00:13.159Z</time>
      </trkpt>
      <trkpt lat="45.73564" lon="5.31649">
        <ele>361</ele>
        <time>2021-02-28T11:00:14.160Z</time>
      </trkpt>
      <trkpt lat="45.73564" lon="5.31648">
        <ele>361</ele>
        <time>2021-02-28T11:00:15.159Z</time>
      </trkpt>
      <trkpt lat="45.73563" lon="5.31649">
        <ele>361</ele>
        <time>2021-02-28T11:00:16.160Z</time>
      </trkpt>
      <trkpt lat="45.73563" lon="5.31649">
        <ele>361</ele>
        <time>2021-02-28T11:00:17.159Z</time>
      </trkpt>
      <trkpt lat="45.73563" lon="5.3165">
        <ele>360</ele>
        <time>2021-02-28T11:00:18.160Z</time>
      </trkpt>
      <trkpt lat="45.73563" lon="5.3165">
        <ele>360</ele>
        <time>2021-02-28T11:00:19.160Z</time>
      </trkpt>
      <trkpt lat="45.73562" lon="5.3165">
        <ele>360</ele>
        <time>2021-02-28T11:00:20.159Z</time>
      </trkpt>
      <trkpt lat="45.73562" lon="5.31651">
        <ele>360</ele>
        <time>2021-02-28T11:00:21.160Z</time>
      </trkpt>
      <trkpt lat="45.73562" lon="5.31651">
        <ele>360</ele>
        <time>2021-02-28T11:00:22.160Z</time>
      </trkpt>
      <trkpt lat="45.73563" lon="5.3165">
        <ele>360</ele>
        <time>2021-02-28T11:00:23.160Z</time>
      </trkpt>
      <trkpt lat="45.73563" lon="5.31651">
        <ele>360</ele>
        <time>2021-02-28T11:00:24.161Z</time>
      </trkpt>
      <trkpt lat="45.73563" lon="5.31651">
        <ele>360</ele>
        <time>2021-02-28T11:00:25.161Z</time>
      </trkpt>
      <trkpt lat="45.73564" lon="5.31651">
        <ele>360</ele>
        <time>2021-02-28T11:00:26.161Z</time>
      </trkpt>
      <trkpt lat="45.73564" lon="5.31651">
        <ele>360</ele>
        <time>2021-02-28T11:00:27.161Z</time>
      </trkpt>
      <trkpt lat="45.73565" lon="5.3165">
        <ele>360</ele>
        <time>2021-02-28T11:00:28.161Z</time>
      </trkpt>
      <trkpt lat="45.73566" lon="5.31648">
        <ele>360</ele>
        <time>2021-02-28T11:00:29.161Z</time>
      </trkpt>
      <trkpt lat="45.73566" lon="5.31648">
        <ele>360</ele>
        <time>2021-02-28T11:00:30.161Z</time>
      </trkpt>
      <trkpt lat="45.73566" lon="5.31648">
        <ele>360</ele>
        <time>2021-02-28T11:00:31.160Z</time>
      </trkpt>
      <trkpt lat="45.73564" lon="5.3165">
        <ele>359</ele>
        <time>2021-02-28T11:00:32.161Z</time>
      </trkpt>
      <trkpt lat="45.73562" lon="5.31654">
        <ele>359</ele>
        <time>2021-02-28T11:00:33.161Z</time>
      </trkpt>
      <trkpt lat="45.73561" lon="5.31655">
        <ele>359</ele>
        <time>2021-02-28T11:00:34.160Z</time>
      </trkpt>
      <trkpt lat="45.73562" lon="5.31655">
        <ele>359</ele>
        <time>2021-02-28T11:00:35.161Z</time>
      </trkpt>
      <trkpt lat="45.73563" lon="5.31655">
        <ele>358</ele>
        <time>2021-02-28T11:00:36.161Z</time>
      </trkpt>
      <trkpt lat="45.73563" lon="5.31655">
        <ele>358</ele>
        <time>2021-02-28T11:00:37.161Z</time>
      </trkpt>
      <trkpt lat="45.73562" lon="5.31655">
        <ele>358</ele>
        <time>2021-02-28T11:00:38.161Z</time>
      </trkpt>
      <trkpt lat="45.73562" lon="5.31656">
        <ele>357</ele>
        <time>2021-02-28T11:00:39.161Z</time>
      </trkpt>
      <trkpt lat="45.73562" lon="5.31657">
        <ele>357</ele>
        <time>2021-02-28T11:00:40.161Z</time>
      </trkpt>
      <trkpt lat="45.73561" lon="5.31657">
        <ele>356</ele>
        <time>2021-02-28T11:00:41.161Z</time>
      </trkpt>
      <trkpt lat="45.73561" lon="5.31658">
        <ele>355</ele>
        <time>2021-02-28T11:00:42.161Z</time>
      </trkpt>
      <trkpt lat="45.73561" lon="5.31658">
        <ele>355</ele>
        <time>2021-02-28T11:00:43.161Z</time>
      </trkpt>
      <trkpt lat="45.73561" lon="5.31657">
        <ele>355</ele>
        <time>2021-02-28T11:00:44.160Z</time>
      </trkpt>
      <trkpt lat="45.73561" lon="5.31657">
        <ele>354</ele>
        <time>2021-02-28T11:00:45.161Z</time>
      </trkpt>
      <trkpt lat="45.73559" lon="5.31658">
        <ele>350</ele>
        <time>2021-02-28T11:00:46.161Z</time>
      </trkpt>
      <trkpt lat="45.73558" lon="5.31657">
        <ele>350</ele>
        <time>2021-02-28T11:00:47.162Z</time>
      </trkpt>
      <trkpt lat="45.73557" lon="5.31657">
        <ele>350</ele>
        <time>2021-02-28T11:00:48.163Z</time>
      </trkpt>
      <trkpt lat="45.73557" lon="5.31658">
        <ele>350</ele>
        <time>2021-02-28T11:00:49.163Z</time>
      </trkpt>
      <trkpt lat="45.73554" lon="5.31662">
        <ele>352</ele>
        <time>2021-02-28T11:00:50.163Z</time>
      </trkpt>
      <trkpt lat="45.73553" lon="5.31664">
        <ele>352</ele>
        <time>2021-02-28T11:00:51.163Z</time>
      </trkpt>
      <trkpt lat="45.73553" lon="5.31665">
        <ele>352</ele>
        <time>2021-02-28T11:00:52.162Z</time>
      </trkpt>
      <trkpt lat="45.73553" lon="5.31667">
        <ele>352</ele>
        <time>2021-02-28T11:00:53.162Z</time>
      </trkpt>
      <trkpt lat="45.73552" lon="5.31669">
        <ele>352</ele>
        <time>2021-02-28T11:00:54.163Z</time>
      </trkpt>
      <trkpt lat="45.73552" lon="5.31671">
        <ele>352</ele>
        <time>2021-02-28T11:00:55.163Z</time>
      </trkpt>
      <trkpt lat="45.73552" lon="5.31673">
        <ele>352</ele>
        <time>2021-02-28T11:00:56.163Z</time>
      </trkpt>
      <trkpt lat="45.73552" lon="5.31674">
        <ele>351</ele>
        <time>2021-02-28T11:00:57.163Z</time>
      </trkpt>
      <trkpt lat="45.73551" lon="5.31675">
        <ele>351</ele>
        <time>2021-02-28T11:00:58.163Z</time>
      </trkpt>
      <trkpt lat="45.73551" lon="5.31676">
        <ele>351</ele>
        <time>2021-02-28T11:00:59.163Z</time>
      </trkpt>
      <trkpt lat="45.7355" lon="5.31676">
        <ele>351</ele>
        <time>2021-02-28T11:01:00.163Z</time>
      </trkpt>
      <trkpt lat="45.7355" lon="5.31676">
        <ele>351</ele>
        <time>2021-02-28T11:01:01.163Z</time>
      </trkpt>
      <trkpt lat="45.73549" lon="5.31676">
        <ele>351</ele>
        <time>2021-02-28T11:01:02.163Z</time>
      </trkpt>
      <trkpt lat="45.73549" lon="5.31675">
        <ele>351</ele>
        <time>2021-02-28T11:01:03.162Z</time>
      </trkpt>
      <trkpt lat="45.73546" lon="5.31675">
        <ele>350</ele>
        <time>2021-02-28T11:01:04.163Z</time>
      </trkpt>
      <trkpt lat="45.73545" lon="5.31675">
        <ele>350</ele>
        <time>2021-02-28T11:01:05.163Z</time>
      </trkpt>
      <trkpt lat="45.73545" lon="5.31674">
        <ele>350</ele>
        <time>2021-02-28T11:01:06.162Z</time>
      </trkpt>
      <trkpt lat="45.73544" lon="5.31674">
        <ele>349</ele>
        <time>2021-02-28T11:01:07.163Z</time>
      </trkpt>
      <trkpt lat="45.73543" lon="5.31673">
        <ele>349</ele>
        <time>2021-02-28T11:01:08.163Z</time>
      </trkpt>
      <trkpt lat="45.73542" lon="5.31672">
        <ele>349</ele>
        <time>2021-02-28T11:01:09.163Z</time>
      </trkpt>
      <trkpt lat="45.73542" lon="5.31671">
        <ele>349</ele>
        <time>2021-02-28T11:01:10.163Z</time>
      </trkpt>
      <trkpt lat="45.73541" lon="5.31671">
        <ele>349</ele>
        <time>2021-02-28T11:01:11.163Z</time>
      </trkpt>
      <trkpt lat="45.7354" lon="5.31671">
        <ele>349</ele>
        <time>2021-02-28T11:01:12.163Z</time>
      </trkpt>
      <trkpt lat="45.7354" lon="5.31671">
        <ele>349</ele>
        <time>2021-02-28T11:01:13.162Z</time>
      </trkpt>
      <trkpt lat="45.73539" lon="5.3167">
        <ele>349</ele>
        <time>2021-02-28T11:01:14.163Z</time>
      </trkpt>
      <trkpt lat="45.73539" lon="5.3167">
        <ele>349</ele>
        <time>2021-02-28T11:01:15.163Z</time>
      </trkpt>
      <trkpt lat="45.73538" lon="5.31669">
        <ele>349</ele>
        <time>2021-02-28T11:01:16.163Z</time>
      </trkpt>
      <trkpt lat="45.73538" lon="5.31669">
        <ele>350</ele>
        <time>2021-02-28T11:01:17.163Z</time>
      </trkpt>
      <trkpt lat="45.73538" lon="5.31671">
        <ele>353</ele>
        <time>2021-02-28T11:01:18.164Z</time>
      </trkpt>
      <trkpt lat="45.73534" lon="5.31672">
        <ele>351</ele>
        <time>2021-02-28T11:01:19.164Z</time>
      </trkpt>
      <trkpt lat="45.73531" lon="5.31672">
        <ele>351</ele>
        <time>2021-02-28T11:01:20.163Z</time>
      </trkpt>
      <trkpt lat="45.73527" lon="5.31671">
        <ele>351</ele>
        <time>2021-02-28T11:01:21.163Z</time>
      </trkpt>
      <trkpt lat="45.73523" lon="5.31669">
        <ele>351</ele>
        <time>2021-02-28T11:01:22.164Z</time>
      </trkpt>
      <trkpt lat="45.73519" lon="5.31668">
        <ele>351</ele>
        <time>2021-02-28T11:01:23.163Z</time>
      </trkpt>
      <trkpt lat="45.73515" lon="5.31666">
        <ele>350</ele>
        <time>2021-02-28T11:01:24.164Z</time>
      </trkpt>
      <trkpt lat="45.73509" lon="5.31664">
        <ele>351</ele>
        <time>2021-02-28T11:01:25.164Z</time>
      </trkpt>
      <trkpt lat="45.73504" lon="5.31662">
        <ele>351</ele>
        <time>2021-02-28T11:01:26.163Z</time>
      </trkpt>
      <trkpt lat="45.73499" lon="5.3166">
        <ele>351</ele>
        <time>2021-02-28T11:01:27.163Z</time>
      </trkpt>
      <trkpt lat="45.73494" lon="5.31658">
        <ele>351</ele>
        <time>2021-02-28T11:01:28.164Z</time>
      </trkpt>
      <trkpt lat="45.73489" lon="5.31655">
        <ele>351</ele>
        <time>2021-02-28T11:01:29.164Z</time>
      </trkpt>
      <trkpt lat="45.73484" lon="5.31653">
        <ele>350</ele>
        <time>2021-02-28T11:01:30.163Z</time>
      </trkpt>
      <trkpt lat="45.73479" lon="5.31651">
        <ele>350</ele>
        <time>2021-02-28T11:01:31.164Z</time>
      </trkpt>
      <trkpt lat="45.73474" lon="5.31649">
        <ele>350</ele>
        <time>2021-02-28T11:01:32.164Z</time>
      </trkpt>
      <trkpt lat="45.73469" lon="5.31646">
        <ele>350</ele>
        <time>2021-02-28T11:01:33.164Z</time>
      </trkpt>
      <trkpt lat="45.73464" lon="5.31643">
        <ele>350</ele>
        <time>2021-02-28T11:01:34.164Z</time>
      </trkpt>
      <trkpt lat="45.7346" lon="5.3164">
        <ele>350</ele>
        <time>2021-02-28T11:01:35.164Z</time>
      </trkpt>
      <trkpt lat="45.73454" lon="5.31635">
        <ele>350</ele>
        <time>2021-02-28T11:01:36.163Z</time>
      </trkpt>
      <trkpt lat="45.73449" lon="5.31629">
        <ele>350</ele>
        <time>2021-02-28T11:01:37.163Z</time>
      </trkpt>
      <trkpt lat="45.73445" lon="5.31625">
        <ele>350</ele>
        <time>2021-02-28T11:01:38.164Z</time>
      </trkpt>
      <trkpt lat="45.73441" lon="5.31619">
        <ele>350</ele>
        <time>2021-02-28T11:01:39.164Z</time>
      </trkpt>
      <trkpt lat="45.73436" lon="5.31613">
        <ele>350</ele>
        <time>2021-02-28T11:01:40.163Z</time>
      </trkpt>
      <trkpt lat="45.7343" lon="5.31607">
        <ele>349</ele>
        <time>2021-02-28T11:01:41.164Z</time>
      </trkpt>
      <trkpt lat="45.73425" lon="5.31602">
        <ele>349</ele>
        <time>2021-02-28T11:01:42.164Z</time>
      </trkpt>
      <trkpt lat="45.7342" lon="5.31597">
        <ele>348</ele>
        <time>2021-02-28T11:01:43.163Z</time>
      </trkpt>
      <trkpt lat="45.73415" lon="5.31592">
        <ele>348</ele>
        <time>2021-02-28T11:01:44.163Z</time>
      </trkpt>
      <trkpt lat="45.73409" lon="5.31587">
        <ele>348</ele>
        <time>2021-02-28T11:01:45.164Z</time>
      </trkpt>
      <trkpt lat="45.73402" lon="5.31581">
        <ele>348</ele>
        <time>2021-02-28T11:01:46.164Z</time>
      </trkpt>
      <trkpt lat="45.73397" lon="5.31577">
        <ele>347</ele>
        <time>2021-02-28T11:01:47.163Z</time>
      </trkpt>
      <trkpt lat="45.73391" lon="5.31573">
        <ele>347</ele>
        <time>2021-02-28T11:01:48.164Z</time>
      </trkpt>
      <trkpt lat="45.73385" lon="5.3157">
        <ele>347</ele>
        <time>2021-02-28T11:01:49.164Z</time>
      </trkpt>
      <trkpt lat="45.7338" lon="5.31566">
        <ele>347</ele>
        <time>2021-02-28T11:01:50.164Z</time>
      </trkpt>
      <trkpt lat="45.73376" lon="5.31563">
        <ele>347</ele>
        <time>2021-02-28T11:01:51.163Z</time>
      </trkpt>
      <trkpt lat="45.73371" lon="5.3156">
        <ele>347</ele>
        <time>2021-02-28T11:01:52.164Z</time>
      </trkpt>
      <trkpt lat="45.73366" lon="5.31557">
        <ele>347</ele>
        <time>2021-02-28T11:01:53.163Z</time>
      </trkpt>
      <trkpt lat="45.73361" lon="5.31554">
        <ele>346</ele>
        <time>2021-02-28T11:01:54.164Z</time>
      </trkpt>
      <trkpt lat="45.73356" lon="5.3155">
        <ele>345</ele>
        <time>2021-02-28T11:01:55.164Z</time>
      </trkpt>
      <trkpt lat="45.73351" lon="5.31547">
        <ele>345</ele>
        <time>2021-02-28T11:01:56.164Z</time>
      </trkpt>
      <trkpt lat="45.73346" lon="5.31543">
        <ele>345</ele>
        <time>2021-02-28T11:01:57.163Z</time>
      </trkpt>
      <trkpt lat="45.73341" lon="5.3154">
        <ele>345</ele>
        <time>2021-02-28T11:01:58.164Z</time>
      </trkpt>
      <trkpt lat="45.73337" lon="5.31538">
        <ele>345</ele>
        <time>2021-02-28T11:01:59.164Z</time>
      </trkpt>
      <trkpt lat="45.73332" lon="5.31535">
        <ele>345</ele>
        <time>2021-02-28T11:02:00.164Z</time>
      </trkpt>
      <trkpt lat="45.73326" lon="5.31533">
        <ele>345</ele>
        <time>2021-02-28T11:02:01.164Z</time>
      </trkpt>
      <trkpt lat="45.7332" lon="5.31529">
        <ele>345</ele>
        <time>2021-02-28T11:02:02.164Z</time>
      </trkpt>
      <trkpt lat="45.73314" lon="5.31527">
        <ele>344</ele>
        <time>2021-02-28T11:02:03.164Z</time>
      </trkpt>
      <trkpt lat="45.73308" lon="5.31525">
        <ele>344</ele>
        <time>2021-02-28T11:02:04.164Z</time>
      </trkpt>
      <trkpt lat="45.73303" lon="5.31522">
        <ele>344</ele>
        <time>2021-02-28T11:02:05.164Z</time>
      </trkpt>
      <trkpt lat="45.73296" lon="5.31519">
        <ele>343</ele>
        <time>2021-02-28T11:02:06.164Z</time>
      </trkpt>
      <trkpt lat="45.73289" lon="5.31516">
        <ele>343</ele>
        <time>2021-02-28T11:02:07.164Z</time>
      </trkpt>
      <trkpt lat="45.73282" lon="5.31513">
        <ele>343</ele>
        <time>2021-02-28T11:02:08.164Z</time>
      </trkpt>
      <trkpt lat="45.73276" lon="5.3151">
        <ele>343</ele>
        <time>2021-02-28T11:02:09.163Z</time>
      </trkpt>
      <trkpt lat="45.73268" lon="5.31508">
        <ele>342</ele>
        <time>2021-02-28T11:02:10.164Z</time>
      </trkpt>
      <trkpt lat="45.73261" lon="5.31506">
        <ele>342</ele>
        <time>2021-02-28T11:02:11.164Z</time>
      </trkpt>
      <trkpt lat="45.73254" lon="5.31505">
        <ele>341</ele>
        <time>2021-02-28T11:02:12.164Z</time>
      </trkpt>
      <trkpt lat="45.73246" lon="5.31504">
        <ele>341</ele>
        <time>2021-02-28T11:02:13.164Z</time>
      </trkpt>
      <trkpt lat="45.7324" lon="5.31505">
        <ele>340</ele>
        <time>2021-02-28T11:02:14.163Z</time>
      </trkpt>
      <trkpt lat="45.73231" lon="5.31509">
        <ele>339</ele>
        <time>2021-02-28T11:02:15.164Z</time>
      </trkpt>
      <trkpt lat="45.73224" lon="5.31513">
        <ele>339</ele>
        <time>2021-02-28T11:02:16.164Z</time>
      </trkpt>
      <trkpt lat="45.73216" lon="5.31518">
        <ele>339</ele>
        <time>2021-02-28T11:02:17.164Z</time>
      </trkpt>
      <trkpt lat="45.73209" lon="5.31523">
        <ele>339</ele>
        <time>2021-02-28T11:02:18.163Z</time>
      </trkpt>
      <trkpt lat="45.73202" lon="5.31529">
        <ele>339</ele>
        <time>2021-02-28T11:02:19.164Z</time>
      </trkpt>
      <trkpt lat="45.73196" lon="5.31535">
        <ele>340</ele>
        <time>2021-02-28T11:02:20.164Z</time>
      </trkpt>
      <trkpt lat="45.7319" lon="5.3154">
        <ele>339</ele>
        <time>2021-02-28T11:02:21.164Z</time>
      </trkpt>
      <trkpt lat="45.73182" lon="5.31547">
        <ele>339</ele>
        <time>2021-02-28T11:02:22.164Z</time>
      </trkpt>
      <trkpt lat="45.73175" lon="5.31553">
        <ele>339</ele>
        <time>2021-02-28T11:02:23.164Z</time>
      </trkpt>
      <trkpt lat="45.73168" lon="5.31559">
        <ele>339</ele>
        <time>2021-02-28T11:02:24.164Z</time>
      </trkpt>
      <trkpt lat="45.73162" lon="5.31565">
        <ele>338</ele>
        <time>2021-02-28T11:02:25.164Z</time>
      </trkpt>
      <trkpt lat="45.73156" lon="5.31569">
        <ele>338</ele>
        <time>2021-02-28T11:02:26.163Z</time>
      </trkpt>
      <trkpt lat="45.73147" lon="5.31577">
        <ele>337</ele>
        <time>2021-02-28T11:02:27.163Z</time>
      </trkpt>
      <trkpt lat="45.7314" lon="5.31583">
        <ele>337</ele>
        <time>2021-02-28T11:02:28.164Z</time>
      </trkpt>
      <trkpt lat="45.73132" lon="5.31589">
        <ele>337</ele>
        <time>2021-02-28T11:02:29.164Z</time>
      </trkpt>
      <trkpt lat="45.73124" lon="5.31594">
        <ele>337</ele>
        <time>2021-02-28T11:02:30.163Z</time>
      </trkpt>
      <trkpt lat="45.73118" lon="5.31599">
        <ele>337</ele>
        <time>2021-02-28T11:02:31.164Z</time>
      </trkpt>
      <trkpt lat="45.73108" lon="5.31606">
        <ele>337</ele>
        <time>2021-02-28T11:02:32.164Z</time>
      </trkpt>
      <trkpt lat="45.731" lon="5.31613">
        <ele>337</ele>
        <time>2021-02-28T11:02:33.163Z</time>
      </trkpt>
      <trkpt lat="45.73092" lon="5.31619">
        <ele>337</ele>
        <time>2021-02-28T11:02:34.164Z</time>
      </trkpt>
      <trkpt lat="45.73084" lon="5.31625">
        <ele>337</ele>
        <time>2021-02-28T11:02:35.164Z</time>
      </trkpt>
      <trkpt lat="45.73077" lon="5.31632">
        <ele>337</ele>
        <time>2021-02-28T11:02:36.164Z</time>
      </trkpt>
      <trkpt lat="45.7307" lon="5.31638">
        <ele>337</ele>
        <time>2021-02-28T11:02:37.164Z</time>
      </trkpt>
      <trkpt lat="45.73063" lon="5.31644">
        <ele>337</ele>
        <time>2021-02-28T11:02:38.164Z</time>
      </trkpt>
      <trkpt lat="45.73057" lon="5.31651">
        <ele>336</ele>
        <time>2021-02-28T11:02:39.164Z</time>
      </trkpt>
      <trkpt lat="45.73052" lon="5.31658">
        <ele>336</ele>
        <time>2021-02-28T11:02:40.164Z</time>
      </trkpt>
      <trkpt lat="45.73047" lon="5.31664">
        <ele>336</ele>
        <time>2021-02-28T11:02:41.164Z</time>
      </trkpt>
      <trkpt lat="45.73041" lon="5.31671">
        <ele>336</ele>
        <time>2021-02-28T11:02:42.164Z</time>
      </trkpt>
      <trkpt lat="45.73036" lon="5.31678">
        <ele>336</ele>
        <time>2021-02-28T11:02:43.164Z</time>
      </trkpt>
      <trkpt lat="45.7303" lon="5.31685">
        <ele>335</ele>
        <time>2021-02-28T11:02:44.163Z</time>
      </trkpt>
      <trkpt lat="45.73025" lon="5.31691">
        <ele>336</ele>
        <time>2021-02-28T11:02:45.164Z</time>
      </trkpt>
      <trkpt lat="45.73018" lon="5.31697">
        <ele>336</ele>
        <time>2021-02-28T11:02:46.164Z</time>
      </trkpt>
      <trkpt lat="45.73012" lon="5.31703">
        <ele>336</ele>
        <time>2021-02-28T11:02:47.164Z</time>
      </trkpt>
      <trkpt lat="45.73005" lon="5.31707">
        <ele>336</ele>
        <time>2021-02-28T11:02:48.163Z</time>
      </trkpt>
      <trkpt lat="45.72999" lon="5.31713">
        <ele>336</ele>
        <time>2021-02-28T11:02:49.164Z</time>
      </trkpt>
      <trkpt lat="45.72992" lon="5.31718">
        <ele>336</ele>
        <time>2021-02-28T11:02:50.163Z</time>
      </trkpt>
      <trkpt lat="45.72985" lon="5.31724">
        <ele>336</ele>
        <time>2021-02-28T11:02:51.164Z</time>
      </trkpt>
      <trkpt lat="45.72978" lon="5.31731">
        <ele>337</ele>
        <time>2021-02-28T11:02:52.164Z</time>
      </trkpt>
      <trkpt lat="45.72971" lon="5.31737">
        <ele>337</ele>
        <time>2021-02-28T11:02:53.163Z</time>
      </trkpt>
      <trkpt lat="45.72964" lon="5.31742">
        <ele>338</ele>
        <time>2021-02-28T11:02:54.164Z</time>
      </trkpt>
      <trkpt lat="45.72958" lon="5.31748">
        <ele>338</ele>
        <time>2021-02-28T11:02:55.163Z</time>
      </trkpt>
      <trkpt lat="45.72951" lon="5.31754">
        <ele>339</ele>
        <time>2021-02-28T11:02:56.163Z</time>
      </trkpt>
      <trkpt lat="45.72943" lon="5.3176">
        <ele>339</ele>
        <time>2021-02-28T11:02:57.164Z</time>
      </trkpt>
      <trkpt lat="45.72936" lon="5.31765">
        <ele>340</ele>
        <time>2021-02-28T11:02:58.164Z</time>
      </trkpt>
      <trkpt lat="45.72929" lon="5.3177">
        <ele>340</ele>
        <time>2021-02-28T11:02:59.164Z</time>
      </trkpt>
      <trkpt lat="45.72922" lon="5.31776">
        <ele>340</ele>
        <time>2021-02-28T11:03:00.163Z</time>
      </trkpt>
      <trkpt lat="45.72914" lon="5.3178">
        <ele>341</ele>
        <time>2021-02-28T11:03:01.164Z</time>
      </trkpt>
      <trkpt lat="45.72907" lon="5.31784">
        <ele>341</ele>
        <time>2021-02-28T11:03:02.163Z</time>
      </trkpt>
      <trkpt lat="45.72899" lon="5.31787">
        <ele>341</ele>
        <time>2021-02-28T11:03:03.164Z</time>
      </trkpt>
      <trkpt lat="45.72892" lon="5.31789">
        <ele>340</ele>
        <time>2021-02-28T11:03:04.164Z</time>
      </trkpt>
      <trkpt lat="45.72884" lon="5.31791">
        <ele>340</ele>
        <time>2021-02-28T11:03:05.164Z</time>
      </trkpt>
      <trkpt lat="45.72876" lon="5.31793">
        <ele>340</ele>
        <time>2021-02-28T11:03:06.163Z</time>
      </trkpt>
      <trkpt lat="45.72869" lon="5.31795">
        <ele>340</ele>
        <time>2021-02-28T11:03:07.164Z</time>
      </trkpt>
      <trkpt lat="45.72861" lon="5.31797">
        <ele>341</ele>
        <time>2021-02-28T11:03:08.164Z</time>
      </trkpt>
      <trkpt lat="45.72853" lon="5.31799">
        <ele>341</ele>
        <time>2021-02-28T11:03:09.163Z</time>
      </trkpt>
      <trkpt lat="45.72846" lon="5.318">
        <ele>341</ele>
        <time>2021-02-28T11:03:10.163Z</time>
      </trkpt>
      <trkpt lat="45.72838" lon="5.31801">
        <ele>341</ele>
        <time>2021-02-28T11:03:11.164Z</time>
      </trkpt>
      <trkpt lat="45.72831" lon="5.31803">
        <ele>341</ele>
        <time>2021-02-28T11:03:12.163Z</time>
      </trkpt>
      <trkpt lat="45.72823" lon="5.31803">
        <ele>341</ele>
        <time>2021-02-28T11:03:13.164Z</time>
      </trkpt>
      <trkpt lat="45.72816" lon="5.31804">
        <ele>342</ele>
        <time>2021-02-28T11:03:14.164Z</time>
      </trkpt>
      <trkpt lat="45.72808" lon="5.31805">
        <ele>342</ele>
        <time>2021-02-28T11:03:15.164Z</time>
      </trkpt>
      <trkpt lat="45.72801" lon="5.31806">
        <ele>342</ele>
        <time>2021-02-28T11:03:16.164Z</time>
      </trkpt>
      <trkpt lat="45.72793" lon="5.31807">
        <ele>343</ele>
        <time>2021-02-28T11:03:17.164Z</time>
      </trkpt>
      <trkpt lat="45.72786" lon="5.31809">
        <ele>344</ele>
        <time>2021-02-28T11:03:18.164Z</time>
      </trkpt>
      <trkpt lat="45.72778" lon="5.3181">
        <ele>344</ele>
        <time>2021-02-28T11:03:19.163Z</time>
      </trkpt>
      <trkpt lat="45.72771" lon="5.31812">
        <ele>345</ele>
        <time>2021-02-28T11:03:20.164Z</time>
      </trkpt>
      <trkpt lat="45.72764" lon="5.31812">
        <ele>345</ele>
        <time>2021-02-28T11:03:21.164Z</time>
      </trkpt>
      <trkpt lat="45.72759" lon="5.31813">
        <ele>345</ele>
        <time>2021-02-28T11:03:22.164Z</time>
      </trkpt>
      <trkpt lat="45.7275" lon="5.31815">
        <ele>345</ele>
        <time>2021-02-28T11:03:23.164Z</time>
      </trkpt>
      <trkpt lat="45.72744" lon="5.31817">
        <ele>344</ele>
        <time>2021-02-28T11:03:24.164Z</time>
      </trkpt>
      <trkpt lat="45.72737" lon="5.31819">
        <ele>344</ele>
        <time>2021-02-28T11:03:25.164Z</time>
      </trkpt>
      <trkpt lat="45.72731" lon="5.3182">
        <ele>344</ele>
        <time>2021-02-28T11:03:26.163Z</time>
      </trkpt>
      <trkpt lat="45.72722" lon="5.31821">
        <ele>344</ele>
        <time>2021-02-28T11:03:27.163Z</time>
      </trkpt>
      <trkpt lat="45.72715" lon="5.31822">
        <ele>345</ele>
        <time>2021-02-28T11:03:28.163Z</time>
      </trkpt>
      <trkpt lat="45.72709" lon="5.31823">
        <ele>345</ele>
        <time>2021-02-28T11:03:29.164Z</time>
      </trkpt>
      <trkpt lat="45.72703" lon="5.31824">
        <ele>345</ele>
        <time>2021-02-28T11:03:30.164Z</time>
      </trkpt>
      <trkpt lat="45.72697" lon="5.31825">
        <ele>345</ele>
        <time>2021-02-28T11:03:31.164Z</time>
      </trkpt>
      <trkpt lat="45.72691" lon="5.31826">
        <ele>345</ele>
        <time>2021-02-28T11:03:32.164Z</time>
      </trkpt>
      <trkpt lat="45.72685" lon="5.31827">
        <ele>345</ele>
        <time>2021-02-28T11:03:33.164Z</time>
      </trkpt>
      <trkpt lat="45.72679" lon="5.31827">
        <ele>346</ele>
        <time>2021-02-28T11:03:34.164Z</time>
      </trkpt>
      <trkpt lat="45.72674" lon="5.31828">
        <ele>346</ele>
        <time>2021-02-28T11:03:35.164Z</time>
      </trkpt>
      <trkpt lat="45.72668" lon="5.31827">
        <ele>346</ele>
        <time>2021-02-28T11:03:36.164Z</time>
      </trkpt>
      <trkpt lat="45.72663" lon="5.31826">
        <ele>346</ele>
        <time>2021-02-28T11:03:37.164Z</time>
      </trkpt>
      <trkpt lat="45.72659" lon="5.31825">
        <ele>346</ele>
        <time>2021-02-28T11:03:38.163Z</time>
      </trkpt>
      <trkpt lat="45.72653" lon="5.31824">
        <ele>346</ele>
        <time>2021-02-28T11:03:39.164Z</time>
      </trkpt>
      <trkpt lat="45.72649" lon="5.31824">
        <ele>346</ele>
        <time>2021-02-28T11:03:40.163Z</time>
      </trkpt>
      <trkpt lat="45.72645" lon="5.31822">
        <ele>346</ele>
        <time>2021-02-28T11:03:41.164Z</time>
      </trkpt>
      <trkpt lat="45.72642" lon="5.31821">
        <ele>347</ele>
        <time>2021-02-28T11:03:42.163Z</time>
      </trkpt>
      <trkpt lat="45.72638" lon="5.3182">
        <ele>347</ele>
        <time>2021-02-28T11:03:43.164Z</time>
      </trkpt>
      <trkpt lat="45.72635" lon="5.31819">
        <ele>346</ele>
        <time>2021-02-28T11:03:44.164Z</time>
      </trkpt>
      <trkpt lat="45.72631" lon="5.31818">
        <ele>346</ele>
        <time>2021-02-28T11:03:45.164Z</time>
      </trkpt>
      <trkpt lat="45.72628" lon="5.31817">
        <ele>346</ele>
        <time>2021-02-28T11:03:46.164Z</time>
      </trkpt>
      <trkpt lat="45.72625" lon="5.31817">
        <ele>346</ele>
        <time>2021-02-28T11:03:47.163Z</time>
      </trkpt>
      <trkpt lat="45.72622" lon="5.31816">
        <ele>346</ele>
        <time>2021-02-28T11:03:48.164Z</time>
      </trkpt>
      <trkpt lat="45.72618" lon="5.31815">
        <ele>346</ele>
        <time>2021-02-28T11:03:49.164Z</time>
      </trkpt>
      <trkpt lat="45.72615" lon="5.31815">
        <ele>345</ele>
        <time>2021-02-28T11:03:50.164Z</time>
      </trkpt>
      <trkpt lat="45.72612" lon="5.31814">
        <ele>345</ele>
        <time>2021-02-28T11:03:51.163Z</time>
      </trkpt>
      <trkpt lat="45.72609" lon="5.31814">
        <ele>345</ele>
        <time>2021-02-28T11:03:52.164Z</time>
      </trkpt>
      <trkpt lat="45.72607" lon="5.31814">
        <ele>345</ele>
        <time>2021-02-28T11:03:53.164Z</time>
      </trkpt>
      <trkpt lat="45.72604" lon="5.31815">
        <ele>345</ele>
        <time>2021-02-28T11:03:54.164Z</time>
      </trkpt>
      <trkpt lat="45.72601" lon="5.31815">
        <ele>345</ele>
        <time>2021-02-28T11:03:55.164Z</time>
      </trkpt>
      <trkpt lat="45.72598" lon="5.31816">
        <ele>345</ele>
        <time>2021-02-28T11:03:56.164Z</time>
      </trkpt>
      <trkpt lat="45.72595" lon="5.31816">
        <ele>345</ele>
        <time>2021-02-28T11:03:57.164Z</time>
      </trkpt>
      <trkpt lat="45.72592" lon="5.31817">
        <ele>345</ele>
        <time>2021-02-28T11:03:58.164Z</time>
      </trkpt>
      <trkpt lat="45.72589" lon="5.31817">
        <ele>345</ele>
        <time>2021-02-28T11:03:59.164Z</time>
      </trkpt>
      <trkpt lat="45.72586" lon="5.31818">
        <ele>345</ele>
        <time>2021-02-28T11:04:00.164Z</time>
      </trkpt>
      <trkpt lat="45.72583" lon="5.31819">
        <ele>345</ele>
        <time>2021-02-28T11:04:01.164Z</time>
      </trkpt>
      <trkpt lat="45.72579" lon="5.3182">
        <ele>345</ele>
        <time>2021-02-28T11:04:02.164Z</time>
      </trkpt>
      <trkpt lat="45.72576" lon="5.31821">
        <ele>345</ele>
        <time>2021-02-28T11:04:03.164Z</time>
      </trkpt>
      <trkpt lat="45.72572" lon="5.31821">
        <ele>344</ele>
        <time>2021-02-28T11:04:04.164Z</time>
      </trkpt>
      <trkpt lat="45.72569" lon="5.31822">
        <ele>344</ele>
        <time>2021-02-28T11:04:05.164Z</time>
      </trkpt>
      <trkpt lat="45.72564" lon="5.31824">
        <ele>344</ele>
        <time>2021-02-28T11:04:06.164Z</time>
      </trkpt>
      <trkpt lat="45.72562" lon="5.31825">
        <ele>344</ele>
        <time>2021-02-28T11:04:07.164Z</time>
      </trkpt>
      <trkpt lat="45.72558" lon="5.31825">
        <ele>344</ele>
        <time>2021-02-28T11:04:08.164Z</time>
      </trkpt>
      <trkpt lat="45.72554" lon="5.31825">
        <ele>343</ele>
        <time>2021-02-28T11:04:09.164Z</time>
      </trkpt>
      <trkpt lat="45.72551" lon="5.31826">
        <ele>343</ele>
        <time>2021-02-28T11:04:10.164Z</time>
      </trkpt>
      <trkpt lat="45.72547" lon="5.31826">
        <ele>343</ele>
        <time>2021-02-28T11:04:11.164Z</time>
      </trkpt>
      <trkpt lat="45.72544" lon="5.31826">
        <ele>343</ele>
        <time>2021-02-28T11:04:12.163Z</time>
      </trkpt>
      <trkpt lat="45.72541" lon="5.31826">
        <ele>343</ele>
        <time>2021-02-28T11:04:13.163Z</time>
      </trkpt>
      <trkpt lat="45.72537" lon="5.31826">
        <ele>343</ele>
        <time>2021-02-28T11:04:14.164Z</time>
      </trkpt>
      <trkpt lat="45.72533" lon="5.31826">
        <ele>343</ele>
        <time>2021-02-28T11:04:15.164Z</time>
      </trkpt>
      <trkpt lat="45.72529" lon="5.31826">
        <ele>342</ele>
        <time>2021-02-28T11:04:16.164Z</time>
      </trkpt>
      <trkpt lat="45.72526" lon="5.31827">
        <ele>342</ele>
        <time>2021-02-28T11:04:17.164Z</time>
      </trkpt>
      <trkpt lat="45.72523" lon="5.31827">
        <ele>342</ele>
        <time>2021-02-28T11:04:18.164Z</time>
      </trkpt>
      <trkpt lat="45.7252" lon="5.31827">
        <ele>342</ele>
        <time>2021-02-28T11:04:19.163Z</time>
      </trkpt>
      <trkpt lat="45.72516" lon="5.31828">
        <ele>343</ele>
        <time>2021-02-28T11:04:20.164Z</time>
      </trkpt>
      <trkpt lat="45.72512" lon="5.31828">
        <ele>343</ele>
        <time>2021-02-28T11:04:21.164Z</time>
      </trkpt>
      <trkpt lat="45.72509" lon="5.31828">
        <ele>343</ele>
        <time>2021-02-28T11:04:22.163Z</time>
      </trkpt>
      <trkpt lat="45.72506" lon="5.31829">
        <ele>343</ele>
        <time>2021-02-28T11:04:23.164Z</time>
      </trkpt>
      <trkpt lat="45.72501" lon="5.31829">
        <ele>343</ele>
        <time>2021-02-28T11:04:24.164Z</time>
      </trkpt>
      <trkpt lat="45.72497" lon="5.3183">
        <ele>343</ele>
        <time>2021-02-28T11:04:25.164Z</time>
      </trkpt>
      <trkpt lat="45.72493" lon="5.3183">
        <ele>343</ele>
        <time>2021-02-28T11:04:26.164Z</time>
      </trkpt>
      <trkpt lat="45.72489" lon="5.3183">
        <ele>343</ele>
        <time>2021-02-28T11:04:27.163Z</time>
      </trkpt>
      <trkpt lat="45.72486" lon="5.3183">
        <ele>343</ele>
        <time>2021-02-28T11:04:28.163Z</time>
      </trkpt>
      <trkpt lat="45.72481" lon="5.31831">
        <ele>343</ele>
        <time>2021-02-28T11:04:29.164Z</time>
      </trkpt>
      <trkpt lat="45.72476" lon="5.31831">
        <ele>343</ele>
        <time>2021-02-28T11:04:30.163Z</time>
      </trkpt>
      <trkpt lat="45.72472" lon="5.31832">
        <ele>343</ele>
        <time>2021-02-28T11:04:31.164Z</time>
      </trkpt>
      <trkpt lat="45.72467" lon="5.31832">
        <ele>344</ele>
        <time>2021-02-28T11:04:32.164Z</time>
      </trkpt>
      <trkpt lat="45.72462" lon="5.31833">
        <ele>344</ele>
        <time>2021-02-28T11:04:33.164Z</time>
      </trkpt>
      <trkpt lat="45.72458" lon="5.31833">
        <ele>343</ele>
        <time>2021-02-28T11:04:34.164Z</time>
      </trkpt>
      <trkpt lat="45.72453" lon="5.31834">
        <ele>343</ele>
        <time>2021-02-28T11:04:35.164Z</time>
      </trkpt>
      <trkpt lat="45.72449" lon="5.31834">
        <ele>343</ele>
        <time>2021-02-28T11:04:36.164Z</time>
      </trkpt>
      <trkpt lat="45.72444" lon="5.31835">
        <ele>343</ele>
        <time>2021-02-28T11:04:37.164Z</time>
      </trkpt>
      <trkpt lat="45.72439" lon="5.31835">
        <ele>343</ele>
        <time>2021-02-28T11:04:38.163Z</time>
      </trkpt>
      <trkpt lat="45.72435" lon="5.31835">
        <ele>343</ele>
        <time>2021-02-28T11:04:39.164Z</time>
      </trkpt>
      <trkpt lat="45.7243" lon="5.31836">
        <ele>343</ele>
        <time>2021-02-28T11:04:40.164Z</time>
      </trkpt>
      <trkpt lat="45.72427" lon="5.31836">
        <ele>343</ele>
        <time>2021-02-28T11:04:41.163Z</time>
      </trkpt>
      <trkpt lat="45.72423" lon="5.31836">
        <ele>343</ele>
        <time>2021-02-28T11:04:42.164Z</time>
      </trkpt>
      <trkpt lat="45.7242" lon="5.31837">
        <ele>343</ele>
        <time>2021-02-28T11:04:43.163Z</time>
      </trkpt>
      <trkpt lat="45.72416" lon="5.31837">
        <ele>343</ele>
        <time>2021-02-28T11:04:44.164Z</time>
      </trkpt>
      <trkpt lat="45.72412" lon="5.31838">
        <ele>343</ele>
        <time>2021-02-28T11:04:45.164Z</time>
      </trkpt>
      <trkpt lat="45.72407" lon="5.31838">
        <ele>343</ele>
        <time>2021-02-28T11:04:46.163Z</time>
      </trkpt>
      <trkpt lat="45.72402" lon="5.31838">
        <ele>343</ele>
        <time>2021-02-28T11:04:47.164Z</time>
      </trkpt>
      <trkpt lat="45.72397" lon="5.31839">
        <ele>343</ele>
        <time>2021-02-28T11:04:48.164Z</time>
      </trkpt>
      <trkpt lat="45.72391" lon="5.3184">
        <ele>342</ele>
        <time>2021-02-28T11:04:49.164Z</time>
      </trkpt>
      <trkpt lat="45.72384" lon="5.31841">
        <ele>342</ele>
        <time>2021-02-28T11:04:50.163Z</time>
      </trkpt>
      <trkpt lat="45.72378" lon="5.31842">
        <ele>342</ele>
        <time>2021-02-28T11:04:51.163Z</time>
      </trkpt>
      <trkpt lat="45.72372" lon="5.31843">
        <ele>342</ele>
        <time>2021-02-28T11:04:52.163Z</time>
      </trkpt>
      <trkpt lat="45.72365" lon="5.31844">
        <ele>341</ele>
        <time>2021-02-28T11:04:53.164Z</time>
      </trkpt>
      <trkpt lat="45.72359" lon="5.31845">
        <ele>340</ele>
        <time>2021-02-28T11:04:54.164Z</time>
      </trkpt>
      <trkpt lat="45.72351" lon="5.31846">
        <ele>340</ele>
        <time>2021-02-28T11:04:55.163Z</time>
      </trkpt>
      <trkpt lat="45.72344" lon="5.31847">
        <ele>339</ele>
        <time>2021-02-28T11:04:56.163Z</time>
      </trkpt>
      <trkpt lat="45.72337" lon="5.31848">
        <ele>338</ele>
        <time>2021-02-28T11:04:57.163Z</time>
      </trkpt>
      <trkpt lat="45.72329" lon="5.31849">
        <ele>337</ele>
        <time>2021-02-28T11:04:58.163Z</time>
      </trkpt>
      <trkpt lat="45.72322" lon="5.3185">
        <ele>337</ele>
        <time>2021-02-28T11:04:59.163Z</time>
      </trkpt>
      <trkpt lat="45.72316" lon="5.31851">
        <ele>336</ele>
        <time>2021-02-28T11:05:00.164Z</time>
      </trkpt>
      <trkpt lat="45.72307" lon="5.31852">
        <ele>335</ele>
        <time>2021-02-28T11:05:01.163Z</time>
      </trkpt>
      <trkpt lat="45.72299" lon="5.31854">
        <ele>335</ele>
        <time>2021-02-28T11:05:02.163Z</time>
      </trkpt>
      <trkpt lat="45.72291" lon="5.31855">
        <ele>335</ele>
        <time>2021-02-28T11:05:03.164Z</time>
      </trkpt>
      <trkpt lat="45.72283" lon="5.31856">
        <ele>335</ele>
        <time>2021-02-28T11:05:04.164Z</time>
      </trkpt>
      <trkpt lat="45.72275" lon="5.31857">
        <ele>334</ele>
        <time>2021-02-28T11:05:05.164Z</time>
      </trkpt>
      <trkpt lat="45.72266" lon="5.31859">
        <ele>334</ele>
        <time>2021-02-28T11:05:06.164Z</time>
      </trkpt>
      <trkpt lat="45.72258" lon="5.31861">
        <ele>333</ele>
        <time>2021-02-28T11:05:07.164Z</time>
      </trkpt>
      <trkpt lat="45.7225" lon="5.31862">
        <ele>333</ele>
        <time>2021-02-28T11:05:08.164Z</time>
      </trkpt>
      <trkpt lat="45.72241" lon="5.31864">
        <ele>332</ele>
        <time>2021-02-28T11:05:09.164Z</time>
      </trkpt>
      <trkpt lat="45.72232" lon="5.31866">
        <ele>332</ele>
        <time>2021-02-28T11:05:10.163Z</time>
      </trkpt>
      <trkpt lat="45.72225" lon="5.31867">
        <ele>332</ele>
        <time>2021-02-28T11:05:11.164Z</time>
      </trkpt>
      <trkpt lat="45.72213" lon="5.31868">
        <ele>332</ele>
        <time>2021-02-28T11:05:12.164Z</time>
      </trkpt>
      <trkpt lat="45.72204" lon="5.31869">
        <ele>332</ele>
        <time>2021-02-28T11:05:13.163Z</time>
      </trkpt>
      <trkpt lat="45.72194" lon="5.3187">
        <ele>331</ele>
        <time>2021-02-28T11:05:14.164Z</time>
      </trkpt>
      <trkpt lat="45.72183" lon="5.31872">
        <ele>331</ele>
        <time>2021-02-28T11:05:15.164Z</time>
      </trkpt>
      <trkpt lat="45.72173" lon="5.31872">
        <ele>331</ele>
        <time>2021-02-28T11:05:16.164Z</time>
      </trkpt>
      <trkpt lat="45.72163" lon="5.31873">
        <ele>331</ele>
        <time>2021-02-28T11:05:17.164Z</time>
      </trkpt>
      <trkpt lat="45.72153" lon="5.31874">
        <ele>330</ele>
        <time>2021-02-28T11:05:18.163Z</time>
      </trkpt>
      <trkpt lat="45.72143" lon="5.31875">
        <ele>329</ele>
        <time>2021-02-28T11:05:19.163Z</time>
      </trkpt>
      <trkpt lat="45.72134" lon="5.31876">
        <ele>328</ele>
        <time>2021-02-28T11:05:20.164Z</time>
      </trkpt>
      <trkpt lat="45.72126" lon="5.31876">
        <ele>328</ele>
        <time>2021-02-28T11:05:21.163Z</time>
      </trkpt>
      <trkpt lat="45.72115" lon="5.31876">
        <ele>328</ele>
        <time>2021-02-28T11:05:22.164Z</time>
      </trkpt>
      <trkpt lat="45.72105" lon="5.31877">
        <ele>328</ele>
        <time>2021-02-28T11:05:23.164Z</time>
      </trkpt>
      <trkpt lat="45.72098" lon="5.31877">
        <ele>328</ele>
        <time>2021-02-28T11:05:24.164Z</time>
      </trkpt>
      <trkpt lat="45.72088" lon="5.31877">
        <ele>328</ele>
        <time>2021-02-28T11:05:25.163Z</time>
      </trkpt>
      <trkpt lat="45.72079" lon="5.31877">
        <ele>328</ele>
        <time>2021-02-28T11:05:26.163Z</time>
      </trkpt>
      <trkpt lat="45.72071" lon="5.31877">
        <ele>328</ele>
        <time>2021-02-28T11:05:27.164Z</time>
      </trkpt>
      <trkpt lat="45.72062" lon="5.31877">
        <ele>329</ele>
        <time>2021-02-28T11:05:28.163Z</time>
      </trkpt>
      <trkpt lat="45.72055" lon="5.31877">
        <ele>329</ele>
        <time>2021-02-28T11:05:29.164Z</time>
      </trkpt>
      <trkpt lat="45.72047" lon="5.31877">
        <ele>329</ele>
        <time>2021-02-28T11:05:30.164Z</time>
      </trkpt>
      <trkpt lat="45.72041" lon="5.31877">
        <ele>329</ele>
        <time>2021-02-28T11:05:31.164Z</time>
      </trkpt>
      <trkpt lat="45.72031" lon="5.31876">
        <ele>329</ele>
        <time>2021-02-28T11:05:32.164Z</time>
      </trkpt>
      <trkpt lat="45.72023" lon="5.31874">
        <ele>329</ele>
        <time>2021-02-28T11:05:33.164Z</time>
      </trkpt>
      <trkpt lat="45.72015" lon="5.31873">
        <ele>329</ele>
        <time>2021-02-28T11:05:34.164Z</time>
      </trkpt>
      <trkpt lat="45.72008" lon="5.31871">
        <ele>329</ele>
        <time>2021-02-28T11:05:35.163Z</time>
      </trkpt>
      <trkpt lat="45.71999" lon="5.31869">
        <ele>329</ele>
        <time>2021-02-28T11:05:36.163Z</time>
      </trkpt>
      <trkpt lat="45.71991" lon="5.31868">
        <ele>328</ele>
        <time>2021-02-28T11:05:37.164Z</time>
      </trkpt>
      <trkpt lat="45.71983" lon="5.31867">
        <ele>328</ele>
        <time>2021-02-28T11:05:38.163Z</time>
      </trkpt>
      <trkpt lat="45.71974" lon="5.31867">
        <ele>328</ele>
        <time>2021-02-28T11:05:39.163Z</time>
      </trkpt>
      <trkpt lat="45.71966" lon="5.31867">
        <ele>328</ele>
        <time>2021-02-28T11:05:40.164Z</time>
      </trkpt>
      <trkpt lat="45.71958" lon="5.31868">
        <ele>327</ele>
        <time>2021-02-28T11:05:41.164Z</time>
      </trkpt>
      <trkpt lat="45.7195" lon="5.3187">
        <ele>327</ele>
        <time>2021-02-28T11:05:42.164Z</time>
      </trkpt>
      <trkpt lat="45.71942" lon="5.31872">
        <ele>327</ele>
        <time>2021-02-28T11:05:43.164Z</time>
      </trkpt>
      <trkpt lat="45.71933" lon="5.31875">
        <ele>327</ele>
        <time>2021-02-28T11:05:44.164Z</time>
      </trkpt>
      <trkpt lat="45.71924" lon="5.31878">
        <ele>327</ele>
        <time>2021-02-28T11:05:45.164Z</time>
      </trkpt>
      <trkpt lat="45.71917" lon="5.3188">
        <ele>327</ele>
        <time>2021-02-28T11:05:46.163Z</time>
      </trkpt>
      <trkpt lat="45.71907" lon="5.31883">
        <ele>327</ele>
        <time>2021-02-28T11:05:47.163Z</time>
      </trkpt>
      <trkpt lat="45.71898" lon="5.31884">
        <ele>327</ele>
        <time>2021-02-28T11:05:48.164Z</time>
      </trkpt>
      <trkpt lat="45.7189" lon="5.31885">
        <ele>327</ele>
        <time>2021-02-28T11:05:49.164Z</time>
      </trkpt>
      <trkpt lat="45.71882" lon="5.31887">
        <ele>327</ele>
        <time>2021-02-28T11:05:50.164Z</time>
      </trkpt>
      <trkpt lat="45.71874" lon="5.31889">
        <ele>327</ele>
        <time>2021-02-28T11:05:51.163Z</time>
      </trkpt>
      <trkpt lat="45.71868" lon="5.3189">
        <ele>327</ele>
        <time>2021-02-28T11:05:52.164Z</time>
      </trkpt>
      <trkpt lat="45.71859" lon="5.3189">
        <ele>327</ele>
        <time>2021-02-28T11:05:53.164Z</time>
      </trkpt>
      <trkpt lat="45.71851" lon="5.3189">
        <ele>326</ele>
        <time>2021-02-28T11:05:54.164Z</time>
      </trkpt>
      <trkpt lat="45.71843" lon="5.31889">
        <ele>325</ele>
        <time>2021-02-28T11:05:55.164Z</time>
      </trkpt>
      <trkpt lat="45.71835" lon="5.31888">
        <ele>325</ele>
        <time>2021-02-28T11:05:56.164Z</time>
      </trkpt>
      <trkpt lat="45.71828" lon="5.31886">
        <ele>324</ele>
        <time>2021-02-28T11:05:57.164Z</time>
      </trkpt>
      <trkpt lat="45.7182" lon="5.31885">
        <ele>324</ele>
        <time>2021-02-28T11:05:58.163Z</time>
      </trkpt>
      <trkpt lat="45.71812" lon="5.31884">
        <ele>324</ele>
        <time>2021-02-28T11:05:59.164Z</time>
      </trkpt>
      <trkpt lat="45.71804" lon="5.31882">
        <ele>324</ele>
        <time>2021-02-28T11:06:00.164Z</time>
      </trkpt>
      <trkpt lat="45.71798" lon="5.31881">
        <ele>323</ele>
        <time>2021-02-28T11:06:01.164Z</time>
      </trkpt>
      <trkpt lat="45.71789" lon="5.3188">
        <ele>322</ele>
        <time>2021-02-28T11:06:02.164Z</time>
      </trkpt>
      <trkpt lat="45.7178" lon="5.31879">
        <ele>321</ele>
        <time>2021-02-28T11:06:03.164Z</time>
      </trkpt>
      <trkpt lat="45.71771" lon="5.31877">
        <ele>320</ele>
        <time>2021-02-28T11:06:04.164Z</time>
      </trkpt>
      <trkpt lat="45.71763" lon="5.31876">
        <ele>320</ele>
        <time>2021-02-28T11:06:05.163Z</time>
      </trkpt>
      <trkpt lat="45.71754" lon="5.31875">
        <ele>320</ele>
        <time>2021-02-28T11:06:06.163Z</time>
      </trkpt>
      <trkpt lat="45.71745" lon="5.31874">
        <ele>320</ele>
        <time>2021-02-28T11:06:07.164Z</time>
      </trkpt>
      <trkpt lat="45.71737" lon="5.31874">
        <ele>320</ele>
        <time>2021-02-28T11:06:08.164Z</time>
      </trkpt>
      <trkpt lat="45.71728" lon="5.31874">
        <ele>319</ele>
        <time>2021-02-28T11:06:09.164Z</time>
      </trkpt>
      <trkpt lat="45.7172" lon="5.31875">
        <ele>319</ele>
        <time>2021-02-28T11:06:10.164Z</time>
      </trkpt>
      <trkpt lat="45.71712" lon="5.31877">
        <ele>319</ele>
        <time>2021-02-28T11:06:11.163Z</time>
      </trkpt>
      <trkpt lat="45.71704" lon="5.3188">
        <ele>318</ele>
        <time>2021-02-28T11:06:12.164Z</time>
      </trkpt>
      <trkpt lat="45.71696" lon="5.31884">
        <ele>318</ele>
        <time>2021-02-28T11:06:13.163Z</time>
      </trkpt>
      <trkpt lat="45.71689" lon="5.31889">
        <ele>318</ele>
        <time>2021-02-28T11:06:14.164Z</time>
      </trkpt>
      <trkpt lat="45.71682" lon="5.31894">
        <ele>317</ele>
        <time>2021-02-28T11:06:15.163Z</time>
      </trkpt>
      <trkpt lat="45.71675" lon="5.31899">
        <ele>317</ele>
        <time>2021-02-28T11:06:16.164Z</time>
      </trkpt>
      <trkpt lat="45.71668" lon="5.31905">
        <ele>317</ele>
        <time>2021-02-28T11:06:17.164Z</time>
      </trkpt>
      <trkpt lat="45.71662" lon="5.31911">
        <ele>317</ele>
        <time>2021-02-28T11:06:18.164Z</time>
      </trkpt>
      <trkpt lat="45.71655" lon="5.31918">
        <ele>316</ele>
        <time>2021-02-28T11:06:19.164Z</time>
      </trkpt>
      <trkpt lat="45.71649" lon="5.31925">
        <ele>316</ele>
        <time>2021-02-28T11:06:20.163Z</time>
      </trkpt>
      <trkpt lat="45.71643" lon="5.31932">
        <ele>316</ele>
        <time>2021-02-28T11:06:21.164Z</time>
      </trkpt>
      <trkpt lat="45.71637" lon="5.31939">
        <ele>315</ele>
        <time>2021-02-28T11:06:22.163Z</time>
      </trkpt>
      <trkpt lat="45.71631" lon="5.31947">
        <ele>315</ele>
        <time>2021-02-28T11:06:23.164Z</time>
      </trkpt>
      <trkpt lat="45.71625" lon="5.31955">
        <ele>315</ele>
        <time>2021-02-28T11:06:24.163Z</time>
      </trkpt>
      <trkpt lat="45.71619" lon="5.31963">
        <ele>315</ele>
        <time>2021-02-28T11:06:25.163Z</time>
      </trkpt>
      <trkpt lat="45.71613" lon="5.31971">
        <ele>314</ele>
        <time>2021-02-28T11:06:26.163Z</time>
      </trkpt>
      <trkpt lat="45.71606" lon="5.31979">
        <ele>314</ele>
        <time>2021-02-28T11:06:27.164Z</time>
      </trkpt>
      <trkpt lat="45.716" lon="5.31987">
        <ele>314</ele>
        <time>2021-02-28T11:06:28.164Z</time>
      </trkpt>
      <trkpt lat="45.71594" lon="5.31996">
        <ele>314</ele>
        <time>2021-02-28T11:06:29.164Z</time>
      </trkpt>
      <trkpt lat="45.71588" lon="5.32004">
        <ele>314</ele>
        <time>2021-02-28T11:06:30.164Z</time>
      </trkpt>
      <trkpt lat="45.71581" lon="5.32013">
        <ele>314</ele>
        <time>2021-02-28T11:06:31.164Z</time>
      </trkpt>
      <trkpt lat="45.71576" lon="5.32021">
        <ele>314</ele>
        <time>2021-02-28T11:06:32.164Z</time>
      </trkpt>
      <trkpt lat="45.71568" lon="5.32032">
        <ele>314</ele>
        <time>2021-02-28T11:06:33.164Z</time>
      </trkpt>
      <trkpt lat="45.71561" lon="5.32042">
        <ele>314</ele>
        <time>2021-02-28T11:06:34.164Z</time>
      </trkpt>
      <trkpt lat="45.71555" lon="5.32051">
        <ele>314</ele>
        <time>2021-02-28T11:06:35.164Z</time>
      </trkpt>
      <trkpt lat="45.71547" lon="5.3206">
        <ele>314</ele>
        <time>2021-02-28T11:06:36.164Z</time>
      </trkpt>
      <trkpt lat="45.7154" lon="5.32069">
        <ele>313</ele>
        <time>2021-02-28T11:06:37.163Z</time>
      </trkpt>
      <trkpt lat="45.71532" lon="5.32078">
        <ele>313</ele>
        <time>2021-02-28T11:06:38.164Z</time>
      </trkpt>
      <trkpt lat="45.71523" lon="5.32086">
        <ele>313</ele>
        <time>2021-02-28T11:06:39.164Z</time>
      </trkpt>
      <trkpt lat="45.71515" lon="5.32093">
        <ele>312</ele>
        <time>2021-02-28T11:06:40.164Z</time>
      </trkpt>
      <trkpt lat="45.71506" lon="5.321">
        <ele>312</ele>
        <time>2021-02-28T11:06:41.164Z</time>
      </trkpt>
      <trkpt lat="45.71498" lon="5.32106">
        <ele>311</ele>
        <time>2021-02-28T11:06:42.164Z</time>
      </trkpt>
      <trkpt lat="45.7149" lon="5.32111">
        <ele>310</ele>
        <time>2021-02-28T11:06:43.164Z</time>
      </trkpt>
      <trkpt lat="45.7148" lon="5.32118">
        <ele>309</ele>
        <time>2021-02-28T11:06:44.163Z</time>
      </trkpt>
      <trkpt lat="45.71471" lon="5.32124">
        <ele>308</ele>
        <time>2021-02-28T11:06:45.163Z</time>
      </trkpt>
      <trkpt lat="45.71462" lon="5.32129">
        <ele>308</ele>
        <time>2021-02-28T11:06:46.164Z</time>
      </trkpt>
      <trkpt lat="45.71453" lon="5.32133">
        <ele>307</ele>
        <time>2021-02-28T11:06:47.164Z</time>
      </trkpt>
      <trkpt lat="45.71445" lon="5.32138">
        <ele>306</ele>
        <time>2021-02-28T11:06:48.163Z</time>
      </trkpt>
      <trkpt lat="45.71436" lon="5.32141">
        <ele>306</ele>
        <time>2021-02-28T11:06:49.163Z</time>
      </trkpt>
      <trkpt lat="45.71427" lon="5.32146">
        <ele>306</ele>
        <time>2021-02-28T11:06:50.164Z</time>
      </trkpt>
      <trkpt lat="45.71419" lon="5.3215">
        <ele>305</ele>
        <time>2021-02-28T11:06:51.163Z</time>
      </trkpt>
      <trkpt lat="45.71412" lon="5.32153">
        <ele>305</ele>
        <time>2021-02-28T11:06:52.163Z</time>
      </trkpt>
      <trkpt lat="45.71403" lon="5.32157">
        <ele>304</ele>
        <time>2021-02-28T11:06:53.164Z</time>
      </trkpt>
      <trkpt lat="45.71395" lon="5.32161">
        <ele>304</ele>
        <time>2021-02-28T11:06:54.164Z</time>
      </trkpt>
      <trkpt lat="45.71387" lon="5.32166">
        <ele>304</ele>
        <time>2021-02-28T11:06:55.164Z</time>
      </trkpt>
      <trkpt lat="45.71378" lon="5.32171">
        <ele>304</ele>
        <time>2021-02-28T11:06:56.164Z</time>
      </trkpt>
      <trkpt lat="45.71371" lon="5.32175">
        <ele>304</ele>
        <time>2021-02-28T11:06:57.164Z</time>
      </trkpt>
      <trkpt lat="45.71363" lon="5.3218">
        <ele>304</ele>
        <time>2021-02-28T11:06:58.164Z</time>
      </trkpt>
      <trkpt lat="45.71355" lon="5.32186">
        <ele>304</ele>
        <time>2021-02-28T11:06:59.164Z</time>
      </trkpt>
      <trkpt lat="45.71348" lon="5.32191">
        <ele>304</ele>
        <time>2021-02-28T11:07:00.163Z</time>
      </trkpt>
      <trkpt lat="45.7134" lon="5.32197">
        <ele>304</ele>
        <time>2021-02-28T11:07:01.163Z</time>
      </trkpt>
      <trkpt lat="45.71333" lon="5.32203">
        <ele>304</ele>
        <time>2021-02-28T11:07:02.164Z</time>
      </trkpt>
      <trkpt lat="45.71326" lon="5.3221">
        <ele>304</ele>
        <time>2021-02-28T11:07:03.163Z</time>
      </trkpt>
      <trkpt lat="45.7132" lon="5.32216">
        <ele>303</ele>
        <time>2021-02-28T11:07:04.164Z</time>
      </trkpt>
      <trkpt lat="45.71313" lon="5.32223">
        <ele>303</ele>
        <time>2021-02-28T11:07:05.163Z</time>
      </trkpt>
      <trkpt lat="45.71306" lon="5.3223">
        <ele>302</ele>
        <time>2021-02-28T11:07:06.163Z</time>
      </trkpt>
      <trkpt lat="45.713" lon="5.32236">
        <ele>302</ele>
        <time>2021-02-28T11:07:07.164Z</time>
      </trkpt>
      <trkpt lat="45.71293" lon="5.32243">
        <ele>301</ele>
        <time>2021-02-28T11:07:08.164Z</time>
      </trkpt>
      <trkpt lat="45.71287" lon="5.32248">
        <ele>301</ele>
        <time>2021-02-28T11:07:09.164Z</time>
      </trkpt>
      <trkpt lat="45.7128" lon="5.32254">
        <ele>301</ele>
        <time>2021-02-28T11:07:10.164Z</time>
      </trkpt>
      <trkpt lat="45.71273" lon="5.3226">
        <ele>300</ele>
        <time>2021-02-28T11:07:11.164Z</time>
      </trkpt>
      <trkpt lat="45.71266" lon="5.32266">
        <ele>300</ele>
        <time>2021-02-28T11:07:12.164Z</time>
      </trkpt>
      <trkpt lat="45.71259" lon="5.32272">
        <ele>300</ele>
        <time>2021-02-28T11:07:13.163Z</time>
      </trkpt>
      <trkpt lat="45.71252" lon="5.32277">
        <ele>299</ele>
        <time>2021-02-28T11:07:14.163Z</time>
      </trkpt>
      <trkpt lat="45.71244" lon="5.32283">
        <ele>299</ele>
        <time>2021-02-28T11:07:15.164Z</time>
      </trkpt>
      <trkpt lat="45.71237" lon="5.3229">
        <ele>298</ele>
        <time>2021-02-28T11:07:16.164Z</time>
      </trkpt>
      <trkpt lat="45.71229" lon="5.32296">
        <ele>298</ele>
        <time>2021-02-28T11:07:17.164Z</time>
      </trkpt>
      <trkpt lat="45.71221" lon="5.32302">
        <ele>298</ele>
        <time>2021-02-28T11:07:18.164Z</time>
      </trkpt>
      <trkpt lat="45.71212" lon="5.32309">
        <ele>298</ele>
        <time>2021-02-28T11:07:19.164Z</time>
      </trkpt>
      <trkpt lat="45.71204" lon="5.32316">
        <ele>297</ele>
        <time>2021-02-28T11:07:20.164Z</time>
      </trkpt>
      <trkpt lat="45.71196" lon="5.32322">
        <ele>297</ele>
        <time>2021-02-28T11:07:21.164Z</time>
      </trkpt>
      <trkpt lat="45.71188" lon="5.32329">
        <ele>296</ele>
        <time>2021-02-28T11:07:22.164Z</time>
      </trkpt>
      <trkpt lat="45.71179" lon="5.32336">
        <ele>295</ele>
        <time>2021-02-28T11:07:23.164Z</time>
      </trkpt>
      <trkpt lat="45.71171" lon="5.32342">
        <ele>294</ele>
        <time>2021-02-28T11:07:24.164Z</time>
      </trkpt>
      <trkpt lat="45.71161" lon="5.32351">
        <ele>294</ele>
        <time>2021-02-28T11:07:25.163Z</time>
      </trkpt>
      <trkpt lat="45.71154" lon="5.32356">
        <ele>294</ele>
        <time>2021-02-28T11:07:26.163Z</time>
      </trkpt>
      <trkpt lat="45.71144" lon="5.32364">
        <ele>294</ele>
        <time>2021-02-28T11:07:27.164Z</time>
      </trkpt>
      <trkpt lat="45.71137" lon="5.32369">
        <ele>294</ele>
        <time>2021-02-28T11:07:28.163Z</time>
      </trkpt>
      <trkpt lat="45.71128" lon="5.32376">
        <ele>294</ele>
        <time>2021-02-28T11:07:29.164Z</time>
      </trkpt>
      <trkpt lat="45.7112" lon="5.32382">
        <ele>294</ele>
        <time>2021-02-28T11:07:30.163Z</time>
      </trkpt>
      <trkpt lat="45.71111" lon="5.32389">
        <ele>293</ele>
        <time>2021-02-28T11:07:31.164Z</time>
      </trkpt>
      <trkpt lat="45.71103" lon="5.32396">
        <ele>293</ele>
        <time>2021-02-28T11:07:32.164Z</time>
      </trkpt>
      <trkpt lat="45.71094" lon="5.32403">
        <ele>292</ele>
        <time>2021-02-28T11:07:33.163Z</time>
      </trkpt>
      <trkpt lat="45.71086" lon="5.3241">
        <ele>292</ele>
        <time>2021-02-28T11:07:34.164Z</time>
      </trkpt>
      <trkpt lat="45.71077" lon="5.32417">
        <ele>292</ele>
        <time>2021-02-28T11:07:35.163Z</time>
      </trkpt>
      <trkpt lat="45.71069" lon="5.32423">
        <ele>291</ele>
        <time>2021-02-28T11:07:36.163Z</time>
      </trkpt>
      <trkpt lat="45.71061" lon="5.3243">
        <ele>291</ele>
        <time>2021-02-28T11:07:37.163Z</time>
      </trkpt>
      <trkpt lat="45.71053" lon="5.32437">
        <ele>291</ele>
        <time>2021-02-28T11:07:38.164Z</time>
      </trkpt>
      <trkpt lat="45.71045" lon="5.32444">
        <ele>290</ele>
        <time>2021-02-28T11:07:39.164Z</time>
      </trkpt>
      <trkpt lat="45.71038" lon="5.32451">
        <ele>290</ele>
        <time>2021-02-28T11:07:40.163Z</time>
      </trkpt>
      <trkpt lat="45.7103" lon="5.32458">
        <ele>290</ele>
        <time>2021-02-28T11:07:41.163Z</time>
      </trkpt>
      <trkpt lat="45.71022" lon="5.32466">
        <ele>290</ele>
        <time>2021-02-28T11:07:42.164Z</time>
      </trkpt>
      <trkpt lat="45.71015" lon="5.32473">
        <ele>289</ele>
        <time>2021-02-28T11:07:43.164Z</time>
      </trkpt>
      <trkpt lat="45.71007" lon="5.3248">
        <ele>289</ele>
        <time>2021-02-28T11:07:44.164Z</time>
      </trkpt>
      <trkpt lat="45.71" lon="5.32488">
        <ele>289</ele>
        <time>2021-02-28T11:07:45.164Z</time>
      </trkpt>
      <trkpt lat="45.70992" lon="5.32495">
        <ele>288</ele>
        <time>2021-02-28T11:07:46.163Z</time>
      </trkpt>
      <trkpt lat="45.70985" lon="5.32503">
        <ele>288</ele>
        <time>2021-02-28T11:07:47.164Z</time>
      </trkpt>
      <trkpt lat="45.70977" lon="5.3251">
        <ele>287</ele>
        <time>2021-02-28T11:07:48.164Z</time>
      </trkpt>
      <trkpt lat="45.7097" lon="5.32518">
        <ele>287</ele>
        <time>2021-02-28T11:07:49.163Z</time>
      </trkpt>
      <trkpt lat="45.70962" lon="5.32525">
        <ele>287</ele>
        <time>2021-02-28T11:07:50.164Z</time>
      </trkpt>
      <trkpt lat="45.70955" lon="5.32533">
        <ele>287</ele>
        <time>2021-02-28T11:07:51.164Z</time>
      </trkpt>
      <trkpt lat="45.70948" lon="5.3254">
        <ele>287</ele>
        <time>2021-02-28T11:07:52.164Z</time>
      </trkpt>
      <trkpt lat="45.70941" lon="5.32548">
        <ele>287</ele>
        <time>2021-02-28T11:07:53.164Z</time>
      </trkpt>
      <trkpt lat="45.70934" lon="5.32555">
        <ele>287</ele>
        <time>2021-02-28T11:07:54.163Z</time>
      </trkpt>
      <trkpt lat="45.70927" lon="5.32562">
        <ele>286</ele>
        <time>2021-02-28T11:07:55.164Z</time>
      </trkpt>
      <trkpt lat="45.70921" lon="5.32568">
        <ele>286</ele>
        <time>2021-02-28T11:07:56.163Z</time>
      </trkpt>
      <trkpt lat="45.70914" lon="5.32575">
        <ele>286</ele>
        <time>2021-02-28T11:07:57.163Z</time>
      </trkpt>
      <trkpt lat="45.70907" lon="5.32582">
        <ele>286</ele>
        <time>2021-02-28T11:07:58.164Z</time>
      </trkpt>
      <trkpt lat="45.709" lon="5.32589">
        <ele>285</ele>
        <time>2021-02-28T11:07:59.164Z</time>
      </trkpt>
      <trkpt lat="45.70894" lon="5.32595">
        <ele>285</ele>
        <time>2021-02-28T11:08:00.163Z</time>
      </trkpt>
      <trkpt lat="45.70887" lon="5.32602">
        <ele>285</ele>
        <time>2021-02-28T11:08:01.164Z</time>
      </trkpt>
      <trkpt lat="45.70881" lon="5.32609">
        <ele>285</ele>
        <time>2021-02-28T11:08:02.164Z</time>
      </trkpt>
      <trkpt lat="45.70874" lon="5.32616">
        <ele>285</ele>
        <time>2021-02-28T11:08:03.163Z</time>
      </trkpt>
      <trkpt lat="45.70868" lon="5.32622">
        <ele>285</ele>
        <time>2021-02-28T11:08:04.164Z</time>
      </trkpt>
      <trkpt lat="45.70861" lon="5.32629">
        <ele>284</ele>
        <time>2021-02-28T11:08:05.163Z</time>
      </trkpt>
      <trkpt lat="45.70855" lon="5.32636">
        <ele>284</ele>
        <time>2021-02-28T11:08:06.164Z</time>
      </trkpt>
      <trkpt lat="45.70848" lon="5.32642">
        <ele>284</ele>
        <time>2021-02-28T11:08:07.163Z</time>
      </trkpt>
      <trkpt lat="45.70842" lon="5.32649">
        <ele>284</ele>
        <time>2021-02-28T11:08:08.164Z</time>
      </trkpt>
      <trkpt lat="45.70835" lon="5.32655">
        <ele>284</ele>
        <time>2021-02-28T11:08:09.164Z</time>
      </trkpt>
      <trkpt lat="45.70829" lon="5.32662">
        <ele>284</ele>
        <time>2021-02-28T11:08:10.164Z</time>
      </trkpt>
      <trkpt lat="45.70823" lon="5.32668">
        <ele>284</ele>
        <time>2021-02-28T11:08:11.164Z</time>
      </trkpt>
      <trkpt lat="45.70817" lon="5.32674">
        <ele>285</ele>
        <time>2021-02-28T11:08:12.164Z</time>
      </trkpt>
      <trkpt lat="45.70811" lon="5.3268">
        <ele>285</ele>
        <time>2021-02-28T11:08:13.164Z</time>
      </trkpt>
      <trkpt lat="45.70804" lon="5.32685">
        <ele>285</ele>
        <time>2021-02-28T11:08:14.164Z</time>
      </trkpt>
      <trkpt lat="45.70798" lon="5.32691">
        <ele>284</ele>
        <time>2021-02-28T11:08:15.164Z</time>
      </trkpt>
      <trkpt lat="45.70792" lon="5.32697">
        <ele>284</ele>
        <time>2021-02-28T11:08:16.163Z</time>
      </trkpt>
      <trkpt lat="45.70786" lon="5.32702">
        <ele>285</ele>
        <time>2021-02-28T11:08:17.164Z</time>
      </trkpt>
      <trkpt lat="45.7078" lon="5.32708">
        <ele>285</ele>
        <time>2021-02-28T11:08:18.164Z</time>
      </trkpt>
      <trkpt lat="45.70774" lon="5.32713">
        <ele>285</ele>
        <time>2021-02-28T11:08:19.164Z</time>
      </trkpt>
      <trkpt lat="45.70768" lon="5.32718">
        <ele>285</ele>
        <time>2021-02-28T11:08:20.164Z</time>
      </trkpt>
      <trkpt lat="45.70761" lon="5.32722">
        <ele>286</ele>
        <time>2021-02-28T11:08:21.164Z</time>
      </trkpt>
      <trkpt lat="45.70755" lon="5.32726">
        <ele>286</ele>
        <time>2021-02-28T11:08:22.164Z</time>
      </trkpt>
      <trkpt lat="45.70748" lon="5.32729">
        <ele>286</ele>
        <time>2021-02-28T11:08:23.164Z</time>
      </trkpt>
      <trkpt lat="45.70741" lon="5.32731">
        <ele>286</ele>
        <time>2021-02-28T11:08:24.164Z</time>
      </trkpt>
      <trkpt lat="45.70734" lon="5.32734">
        <ele>286</ele>
        <time>2021-02-28T11:08:25.164Z</time>
      </trkpt>
      <trkpt lat="45.70727" lon="5.32737">
        <ele>286</ele>
        <time>2021-02-28T11:08:26.164Z</time>
      </trkpt>
      <trkpt lat="45.7072" lon="5.3274">
        <ele>286</ele>
        <time>2021-02-28T11:08:27.164Z</time>
      </trkpt>
      <trkpt lat="45.70713" lon="5.32743">
        <ele>286</ele>
        <time>2021-02-28T11:08:28.164Z</time>
      </trkpt>
      <trkpt lat="45.70705" lon="5.32746">
        <ele>286</ele>
        <time>2021-02-28T11:08:29.164Z</time>
      </trkpt>
      <trkpt lat="45.70698" lon="5.32749">
        <ele>286</ele>
        <time>2021-02-28T11:08:30.163Z</time>
      </trkpt>
      <trkpt lat="45.7069" lon="5.32752">
        <ele>286</ele>
        <time>2021-02-28T11:08:31.164Z</time>
      </trkpt>
      <trkpt lat="45.70682" lon="5.32755">
        <ele>286</ele>
        <time>2021-02-28T11:08:32.164Z</time>
      </trkpt>
      <trkpt lat="45.70675" lon="5.32759">
        <ele>286</ele>
        <time>2021-02-28T11:08:33.164Z</time>
      </trkpt>
      <trkpt lat="45.70667" lon="5.32762">
        <ele>286</ele>
        <time>2021-02-28T11:08:34.163Z</time>
      </trkpt>
      <trkpt lat="45.70659" lon="5.32765">
        <ele>286</ele>
        <time>2021-02-28T11:08:35.164Z</time>
      </trkpt>
      <trkpt lat="45.70652" lon="5.32768">
        <ele>286</ele>
        <time>2021-02-28T11:08:36.164Z</time>
      </trkpt>
      <trkpt lat="45.70644" lon="5.32771">
        <ele>286</ele>
        <time>2021-02-28T11:08:37.164Z</time>
      </trkpt>
      <trkpt lat="45.70636" lon="5.32774">
        <ele>286</ele>
        <time>2021-02-28T11:08:38.164Z</time>
      </trkpt>
      <trkpt lat="45.70628" lon="5.32777">
        <ele>286</ele>
        <time>2021-02-28T11:08:39.164Z</time>
      </trkpt>
      <trkpt lat="45.70621" lon="5.3278">
        <ele>286</ele>
        <time>2021-02-28T11:08:40.164Z</time>
      </trkpt>
      <trkpt lat="45.70613" lon="5.32783">
        <ele>285</ele>
        <time>2021-02-28T11:08:41.164Z</time>
      </trkpt>
      <trkpt lat="45.70605" lon="5.32786">
        <ele>284</ele>
        <time>2021-02-28T11:08:42.164Z</time>
      </trkpt>
      <trkpt lat="45.70598" lon="5.32789">
        <ele>284</ele>
        <time>2021-02-28T11:08:43.164Z</time>
      </trkpt>
      <trkpt lat="45.7059" lon="5.32793">
        <ele>283</ele>
        <time>2021-02-28T11:08:44.163Z</time>
      </trkpt>
      <trkpt lat="45.70583" lon="5.32796">
        <ele>283</ele>
        <time>2021-02-28T11:08:45.164Z</time>
      </trkpt>
      <trkpt lat="45.70575" lon="5.328">
        <ele>282</ele>
        <time>2021-02-28T11:08:46.164Z</time>
      </trkpt>
      <trkpt lat="45.70568" lon="5.32803">
        <ele>282</ele>
        <time>2021-02-28T11:08:47.164Z</time>
      </trkpt>
      <trkpt lat="45.70562" lon="5.32807">
        <ele>282</ele>
        <time>2021-02-28T11:08:48.164Z</time>
      </trkpt>
      <trkpt lat="45.70555" lon="5.32811">
        <ele>282</ele>
        <time>2021-02-28T11:08:49.163Z</time>
      </trkpt>
      <trkpt lat="45.70549" lon="5.32815">
        <ele>281</ele>
        <time>2021-02-28T11:08:50.164Z</time>
      </trkpt>
      <trkpt lat="45.70543" lon="5.3282">
        <ele>281</ele>
        <time>2021-02-28T11:08:51.164Z</time>
      </trkpt>
      <trkpt lat="45.70536" lon="5.32824">
        <ele>282</ele>
        <time>2021-02-28T11:08:52.164Z</time>
      </trkpt>
      <trkpt lat="45.70529" lon="5.32828">
        <ele>282</ele>
        <time>2021-02-28T11:08:53.164Z</time>
      </trkpt>
      <trkpt lat="45.70523" lon="5.32832">
        <ele>282</ele>
        <time>2021-02-28T11:08:54.164Z</time>
      </trkpt>
      <trkpt lat="45.70516" lon="5.32835">
        <ele>283</ele>
        <time>2021-02-28T11:08:55.164Z</time>
      </trkpt>
      <trkpt lat="45.70508" lon="5.32838">
        <ele>282</ele>
        <time>2021-02-28T11:08:56.163Z</time>
      </trkpt>
      <trkpt lat="45.70501" lon="5.32841">
        <ele>282</ele>
        <time>2021-02-28T11:08:57.164Z</time>
      </trkpt>
      <trkpt lat="45.70493" lon="5.32845">
        <ele>282</ele>
        <time>2021-02-28T11:08:58.164Z</time>
      </trkpt>
      <trkpt lat="45.70485" lon="5.32848">
        <ele>282</ele>
        <time>2021-02-28T11:08:59.163Z</time>
      </trkpt>
      <trkpt lat="45.70477" lon="5.32851">
        <ele>282</ele>
        <time>2021-02-28T11:09:00.164Z</time>
      </trkpt>
      <trkpt lat="45.70469" lon="5.32855">
        <ele>281</ele>
        <time>2021-02-28T11:09:01.164Z</time>
      </trkpt>
      <trkpt lat="45.70461" lon="5.32859">
        <ele>280</ele>
        <time>2021-02-28T11:09:02.164Z</time>
      </trkpt>
      <trkpt lat="45.70452" lon="5.32863">
        <ele>280</ele>
        <time>2021-02-28T11:09:03.163Z</time>
      </trkpt>
      <trkpt lat="45.70443" lon="5.32867">
        <ele>279</ele>
        <time>2021-02-28T11:09:04.164Z</time>
      </trkpt>
      <trkpt lat="45.70435" lon="5.32871">
        <ele>279</ele>
        <time>2021-02-28T11:09:05.164Z</time>
      </trkpt>
      <trkpt lat="45.70426" lon="5.32875">
        <ele>279</ele>
        <time>2021-02-28T11:09:06.164Z</time>
      </trkpt>
      <trkpt lat="45.70417" lon="5.32878">
        <ele>279</ele>
        <time>2021-02-28T11:09:07.164Z</time>
      </trkpt>
      <trkpt lat="45.70409" lon="5.32881">
        <ele>278</ele>
        <time>2021-02-28T11:09:08.163Z</time>
      </trkpt>
      <trkpt lat="45.704" lon="5.32882">
        <ele>278</ele>
        <time>2021-02-28T11:09:09.164Z</time>
      </trkpt>
      <trkpt lat="45.70391" lon="5.32883">
        <ele>277</ele>
        <time>2021-02-28T11:09:10.163Z</time>
      </trkpt>
      <trkpt lat="45.70382" lon="5.32883">
        <ele>277</ele>
        <time>2021-02-28T11:09:11.164Z</time>
      </trkpt>
      <trkpt lat="45.70374" lon="5.32884">
        <ele>277</ele>
        <time>2021-02-28T11:09:12.164Z</time>
      </trkpt>
      <trkpt lat="45.70365" lon="5.32883">
        <ele>276</ele>
        <time>2021-02-28T11:09:13.163Z</time>
      </trkpt>
      <trkpt lat="45.70357" lon="5.32883">
        <ele>276</ele>
        <time>2021-02-28T11:09:14.163Z</time>
      </trkpt>
      <trkpt lat="45.70349" lon="5.32883">
        <ele>276</ele>
        <time>2021-02-28T11:09:15.163Z</time>
      </trkpt>
      <trkpt lat="45.7034" lon="5.32882">
        <ele>276</ele>
        <time>2021-02-28T11:09:16.163Z</time>
      </trkpt>
      <trkpt lat="45.70332" lon="5.32882">
        <ele>276</ele>
        <time>2021-02-28T11:09:17.164Z</time>
      </trkpt>
      <trkpt lat="45.70324" lon="5.32882">
        <ele>276</ele>
        <time>2021-02-28T11:09:18.163Z</time>
      </trkpt>
      <trkpt lat="45.70316" lon="5.32882">
        <ele>275</ele>
        <time>2021-02-28T11:09:19.164Z</time>
      </trkpt>
      <trkpt lat="45.70308" lon="5.32882">
        <ele>275</ele>
        <time>2021-02-28T11:09:20.164Z</time>
      </trkpt>
      <trkpt lat="45.70301" lon="5.32882">
        <ele>274</ele>
        <time>2021-02-28T11:09:21.164Z</time>
      </trkpt>
      <trkpt lat="45.70292" lon="5.32883">
        <ele>275</ele>
        <time>2021-02-28T11:09:22.163Z</time>
      </trkpt>
      <trkpt lat="45.70286" lon="5.32883">
        <ele>275</ele>
        <time>2021-02-28T11:09:23.164Z</time>
      </trkpt>
      <trkpt lat="45.70277" lon="5.32884">
        <ele>275</ele>
        <time>2021-02-28T11:09:24.163Z</time>
      </trkpt>
      <trkpt lat="45.70269" lon="5.32883">
        <ele>274</ele>
        <time>2021-02-28T11:09:25.163Z</time>
      </trkpt>
      <trkpt lat="45.70261" lon="5.32883">
        <ele>275</ele>
        <time>2021-02-28T11:09:26.164Z</time>
      </trkpt>
      <trkpt lat="45.70253" lon="5.32883">
        <ele>275</ele>
        <time>2021-02-28T11:09:27.164Z</time>
      </trkpt>
      <trkpt lat="45.70245" lon="5.32883">
        <ele>275</ele>
        <time>2021-02-28T11:09:28.164Z</time>
      </trkpt>
      <trkpt lat="45.70238" lon="5.32883">
        <ele>275</ele>
        <time>2021-02-28T11:09:29.164Z</time>
      </trkpt>
      <trkpt lat="45.70231" lon="5.32883">
        <ele>275</ele>
        <time>2021-02-28T11:09:30.163Z</time>
      </trkpt>
      <trkpt lat="45.70224" lon="5.32883">
        <ele>275</ele>
        <time>2021-02-28T11:09:31.164Z</time>
      </trkpt>
      <trkpt lat="45.70218" lon="5.32883">
        <ele>275</ele>
        <time>2021-02-28T11:09:32.164Z</time>
      </trkpt>
      <trkpt lat="45.70212" lon="5.32882">
        <ele>275</ele>
        <time>2021-02-28T11:09:33.163Z</time>
      </trkpt>
      <trkpt lat="45.70207" lon="5.32882">
        <ele>275</ele>
        <time>2021-02-28T11:09:34.164Z</time>
      </trkpt>
      <trkpt lat="45.70202" lon="5.32882">
        <ele>275</ele>
        <time>2021-02-28T11:09:35.164Z</time>
      </trkpt>
      <trkpt lat="45.70198" lon="5.32882">
        <ele>275</ele>
        <time>2021-02-28T11:09:36.163Z</time>
      </trkpt>
      <trkpt lat="45.70194" lon="5.32882">
        <ele>275</ele>
        <time>2021-02-28T11:09:37.164Z</time>
      </trkpt>
      <trkpt lat="45.70191" lon="5.32882">
        <ele>276</ele>
        <time>2021-02-28T11:09:38.164Z</time>
      </trkpt>
      <trkpt lat="45.70187" lon="5.32881">
        <ele>276</ele>
        <time>2021-02-28T11:09:39.164Z</time>
      </trkpt>
      <trkpt lat="45.70184" lon="5.3288">
        <ele>277</ele>
        <time>2021-02-28T11:09:40.164Z</time>
      </trkpt>
      <trkpt lat="45.7018" lon="5.3288">
        <ele>277</ele>
        <time>2021-02-28T11:09:41.163Z</time>
      </trkpt>
      <trkpt lat="45.70176" lon="5.32879">
        <ele>277</ele>
        <time>2021-02-28T11:09:42.164Z</time>
      </trkpt>
      <trkpt lat="45.70173" lon="5.32878">
        <ele>277</ele>
        <time>2021-02-28T11:09:43.164Z</time>
      </trkpt>
      <trkpt lat="45.70169" lon="5.32878">
        <ele>277</ele>
        <time>2021-02-28T11:09:44.163Z</time>
      </trkpt>
      <trkpt lat="45.70164" lon="5.32877">
        <ele>277</ele>
        <time>2021-02-28T11:09:45.163Z</time>
      </trkpt>
      <trkpt lat="45.7016" lon="5.32876">
        <ele>277</ele>
        <time>2021-02-28T11:09:46.164Z</time>
      </trkpt>
      <trkpt lat="45.70156" lon="5.32876">
        <ele>277</ele>
        <time>2021-02-28T11:09:47.164Z</time>
      </trkpt>
      <trkpt lat="45.70151" lon="5.32876">
        <ele>278</ele>
        <time>2021-02-28T11:09:48.164Z</time>
      </trkpt>
      <trkpt lat="45.70147" lon="5.32877">
        <ele>278</ele>
        <time>2021-02-28T11:09:49.164Z</time>
      </trkpt>
      <trkpt lat="45.70143" lon="5.32877">
        <ele>279</ele>
        <time>2021-02-28T11:09:50.164Z</time>
      </trkpt>
      <trkpt lat="45.70139" lon="5.32877">
        <ele>279</ele>
        <time>2021-02-28T11:09:51.164Z</time>
      </trkpt>
      <trkpt lat="45.70134" lon="5.32878">
        <ele>280</ele>
        <time>2021-02-28T11:09:52.164Z</time>
      </trkpt>
      <trkpt lat="45.7013" lon="5.32879">
        <ele>281</ele>
        <time>2021-02-28T11:09:53.164Z</time>
      </trkpt>
      <trkpt lat="45.70126" lon="5.3288">
        <ele>281</ele>
        <time>2021-02-28T11:09:54.164Z</time>
      </trkpt>
      <trkpt lat="45.70122" lon="5.32882">
        <ele>281</ele>
        <time>2021-02-28T11:09:55.164Z</time>
      </trkpt>
      <trkpt lat="45.70117" lon="5.32883">
        <ele>282</ele>
        <time>2021-02-28T11:09:56.164Z</time>
      </trkpt>
      <trkpt lat="45.70113" lon="5.32885">
        <ele>282</ele>
        <time>2021-02-28T11:09:57.164Z</time>
      </trkpt>
      <trkpt lat="45.70108" lon="5.32886">
        <ele>282</ele>
        <time>2021-02-28T11:09:58.164Z</time>
      </trkpt>
      <trkpt lat="45.70104" lon="5.32887">
        <ele>282</ele>
        <time>2021-02-28T11:09:59.163Z</time>
      </trkpt>
      <trkpt lat="45.70099" lon="5.32888">
        <ele>282</ele>
        <time>2021-02-28T11:10:00.164Z</time>
      </trkpt>
      <trkpt lat="45.70095" lon="5.32889">
        <ele>282</ele>
        <time>2021-02-28T11:10:01.163Z</time>
      </trkpt>
      <trkpt lat="45.7009" lon="5.32891">
        <ele>281</ele>
        <time>2021-02-28T11:10:02.164Z</time>
      </trkpt>
      <trkpt lat="45.70086" lon="5.32893">
        <ele>281</ele>
        <time>2021-02-28T11:10:03.164Z</time>
      </trkpt>
      <trkpt lat="45.70081" lon="5.32895">
        <ele>281</ele>
        <time>2021-02-28T11:10:04.163Z</time>
      </trkpt>
      <trkpt lat="45.70077" lon="5.32896">
        <ele>280</ele>
        <time>2021-02-28T11:10:05.164Z</time>
      </trkpt>
      <trkpt lat="45.70073" lon="5.32897">
        <ele>280</ele>
        <time>2021-02-28T11:10:06.164Z</time>
      </trkpt>
      <trkpt lat="45.70068" lon="5.32898">
        <ele>280</ele>
        <time>2021-02-28T11:10:07.164Z</time>
      </trkpt>
      <trkpt lat="45.70064" lon="5.329">
        <ele>280</ele>
        <time>2021-02-28T11:10:08.164Z</time>
      </trkpt>
      <trkpt lat="45.7006" lon="5.32901">
        <ele>280</ele>
        <time>2021-02-28T11:10:09.163Z</time>
      </trkpt>
      <trkpt lat="45.70055" lon="5.32901">
        <ele>280</ele>
        <time>2021-02-28T11:10:10.164Z</time>
      </trkpt>
      <trkpt lat="45.7005" lon="5.32901">
        <ele>281</ele>
        <time>2021-02-28T11:10:11.163Z</time>
      </trkpt>
      <trkpt lat="45.70046" lon="5.329">
        <ele>281</ele>
        <time>2021-02-28T11:10:12.164Z</time>
      </trkpt>
      <trkpt lat="45.70041" lon="5.32899">
        <ele>281</ele>
        <time>2021-02-28T11:10:13.164Z</time>
      </trkpt>
      <trkpt lat="45.70036" lon="5.32898">
        <ele>281</ele>
        <time>2021-02-28T11:10:14.163Z</time>
      </trkpt>
      <trkpt lat="45.70031" lon="5.32896">
        <ele>281</ele>
        <time>2021-02-28T11:10:15.164Z</time>
      </trkpt>
      <trkpt lat="45.70026" lon="5.32894">
        <ele>281</ele>
        <time>2021-02-28T11:10:16.164Z</time>
      </trkpt>
      <trkpt lat="45.70021" lon="5.32892">
        <ele>281</ele>
        <time>2021-02-28T11:10:17.163Z</time>
      </trkpt>
      <trkpt lat="45.70016" lon="5.32889">
        <ele>281</ele>
        <time>2021-02-28T11:10:18.163Z</time>
      </trkpt>
      <trkpt lat="45.70012" lon="5.32886">
        <ele>280</ele>
        <time>2021-02-28T11:10:19.164Z</time>
      </trkpt>
      <trkpt lat="45.70007" lon="5.32883">
        <ele>280</ele>
        <time>2021-02-28T11:10:20.163Z</time>
      </trkpt>
      <trkpt lat="45.70003" lon="5.32878">
        <ele>280</ele>
        <time>2021-02-28T11:10:21.164Z</time>
      </trkpt>
      <trkpt lat="45.69999" lon="5.32874">
        <ele>280</ele>
        <time>2021-02-28T11:10:22.164Z</time>
      </trkpt>
      <trkpt lat="45.69995" lon="5.32868">
        <ele>280</ele>
        <time>2021-02-28T11:10:23.164Z</time>
      </trkpt>
      <trkpt lat="45.69993" lon="5.32862">
        <ele>280</ele>
        <time>2021-02-28T11:10:24.164Z</time>
      </trkpt>
      <trkpt lat="45.69991" lon="5.32856">
        <ele>280</ele>
        <time>2021-02-28T11:10:25.164Z</time>
      </trkpt>
      <trkpt lat="45.69989" lon="5.3285">
        <ele>280</ele>
        <time>2021-02-28T11:10:26.164Z</time>
      </trkpt>
      <trkpt lat="45.69989" lon="5.32843">
        <ele>280</ele>
        <time>2021-02-28T11:10:27.164Z</time>
      </trkpt>
      <trkpt lat="45.69988" lon="5.32837">
        <ele>280</ele>
        <time>2021-02-28T11:10:28.164Z</time>
      </trkpt>
      <trkpt lat="45.69988" lon="5.32829">
        <ele>279</ele>
        <time>2021-02-28T11:10:29.164Z</time>
      </trkpt>
      <trkpt lat="45.69988" lon="5.32822">
        <ele>279</ele>
        <time>2021-02-28T11:10:30.164Z</time>
      </trkpt>
      <trkpt lat="45.69989" lon="5.32815">
        <ele>279</ele>
        <time>2021-02-28T11:10:31.163Z</time>
      </trkpt>
      <trkpt lat="45.69989" lon="5.32808">
        <ele>280</ele>
        <time>2021-02-28T11:10:32.163Z</time>
      </trkpt>
      <trkpt lat="45.69989" lon="5.32801">
        <ele>280</ele>
        <time>2021-02-28T11:10:33.163Z</time>
      </trkpt>
      <trkpt lat="45.69988" lon="5.32794">
        <ele>280</ele>
        <time>2021-02-28T11:10:34.163Z</time>
      </trkpt>
      <trkpt lat="45.69987" lon="5.32787">
        <ele>281</ele>
        <time>2021-02-28T11:10:35.164Z</time>
      </trkpt>
      <trkpt lat="45.69986" lon="5.32782">
        <ele>282</ele>
        <time>2021-02-28T11:10:36.164Z</time>
      </trkpt>
      <trkpt lat="45.69984" lon="5.32774">
        <ele>282</ele>
        <time>2021-02-28T11:10:37.163Z</time>
      </trkpt>
      <trkpt lat="45.69981" lon="5.32768">
        <ele>283</ele>
        <time>2021-02-28T11:10:38.163Z</time>
      </trkpt>
      <trkpt lat="45.69978" lon="5.32763">
        <ele>283</ele>
        <time>2021-02-28T11:10:39.164Z</time>
      </trkpt>
      <trkpt lat="45.69975" lon="5.32759">
        <ele>283</ele>
        <time>2021-02-28T11:10:40.163Z</time>
      </trkpt>
      <trkpt lat="45.69971" lon="5.32754">
        <ele>284</ele>
        <time>2021-02-28T11:10:41.163Z</time>
      </trkpt>
      <trkpt lat="45.69967" lon="5.32751">
        <ele>284</ele>
        <time>2021-02-28T11:10:42.164Z</time>
      </trkpt>
      <trkpt lat="45.69962" lon="5.32745">
        <ele>284</ele>
        <time>2021-02-28T11:10:43.163Z</time>
      </trkpt>
      <trkpt lat="45.69958" lon="5.32741">
        <ele>284</ele>
        <time>2021-02-28T11:10:44.164Z</time>
      </trkpt>
      <trkpt lat="45.69955" lon="5.32736">
        <ele>284</ele>
        <time>2021-02-28T11:10:45.164Z</time>
      </trkpt>
      <trkpt lat="45.69951" lon="5.32731">
        <ele>284</ele>
        <time>2021-02-28T11:10:46.164Z</time>
      </trkpt>
      <trkpt lat="45.69947" lon="5.32726">
        <ele>283</ele>
        <time>2021-02-28T11:10:47.163Z</time>
      </trkpt>
      <trkpt lat="45.69943" lon="5.32722">
        <ele>283</ele>
        <time>2021-02-28T11:10:48.164Z</time>
      </trkpt>
      <trkpt lat="45.69938" lon="5.32717">
        <ele>282</ele>
        <time>2021-02-28T11:10:49.164Z</time>
      </trkpt>
      <trkpt lat="45.69934" lon="5.32713">
        <ele>282</ele>
        <time>2021-02-28T11:10:50.164Z</time>
      </trkpt>
      <trkpt lat="45.6993" lon="5.32709">
        <ele>282</ele>
        <time>2021-02-28T11:10:51.164Z</time>
      </trkpt>
      <trkpt lat="45.69926" lon="5.32706">
        <ele>282</ele>
        <time>2021-02-28T11:10:52.164Z</time>
      </trkpt>
      <trkpt lat="45.6992" lon="5.32702">
        <ele>282</ele>
        <time>2021-02-28T11:10:53.164Z</time>
      </trkpt>
      <trkpt lat="45.69915" lon="5.32699">
        <ele>282</ele>
        <time>2021-02-28T11:10:54.164Z</time>
      </trkpt>
      <trkpt lat="45.6991" lon="5.32695">
        <ele>282</ele>
        <time>2021-02-28T11:10:55.163Z</time>
      </trkpt>
      <trkpt lat="45.69905" lon="5.32692">
        <ele>283</ele>
        <time>2021-02-28T11:10:56.164Z</time>
      </trkpt>
      <trkpt lat="45.699" lon="5.32689">
        <ele>283</ele>
        <time>2021-02-28T11:10:57.164Z</time>
      </trkpt>
      <trkpt lat="45.69894" lon="5.32686">
        <ele>283</ele>
        <time>2021-02-28T11:10:58.164Z</time>
      </trkpt>
      <trkpt lat="45.69889" lon="5.32682">
        <ele>284</ele>
        <time>2021-02-28T11:10:59.163Z</time>
      </trkpt>
      <trkpt lat="45.69883" lon="5.32679">
        <ele>284</ele>
        <time>2021-02-28T11:11:00.164Z</time>
      </trkpt>
      <trkpt lat="45.69878" lon="5.32675">
        <ele>284</ele>
        <time>2021-02-28T11:11:01.164Z</time>
      </trkpt>
      <trkpt lat="45.69872" lon="5.32671">
        <ele>285</ele>
        <time>2021-02-28T11:11:02.164Z</time>
      </trkpt>
      <trkpt lat="45.69866" lon="5.32665">
        <ele>285</ele>
        <time>2021-02-28T11:11:03.164Z</time>
      </trkpt>
      <trkpt lat="45.69862" lon="5.3266">
        <ele>285</ele>
        <time>2021-02-28T11:11:04.164Z</time>
      </trkpt>
      <trkpt lat="45.69856" lon="5.32652">
        <ele>285</ele>
        <time>2021-02-28T11:11:05.164Z</time>
      </trkpt>
      <trkpt lat="45.6985" lon="5.32646">
        <ele>285</ele>
        <time>2021-02-28T11:11:06.164Z</time>
      </trkpt>
      <trkpt lat="45.69845" lon="5.32639">
        <ele>286</ele>
        <time>2021-02-28T11:11:07.164Z</time>
      </trkpt>
      <trkpt lat="45.69841" lon="5.32634">
        <ele>286</ele>
        <time>2021-02-28T11:11:08.164Z</time>
      </trkpt>
      <trkpt lat="45.69834" lon="5.32627">
        <ele>287</ele>
        <time>2021-02-28T11:11:09.164Z</time>
      </trkpt>
      <trkpt lat="45.69828" lon="5.32622">
        <ele>287</ele>
        <time>2021-02-28T11:11:10.163Z</time>
      </trkpt>
      <trkpt lat="45.69823" lon="5.32618">
        <ele>287</ele>
        <time>2021-02-28T11:11:11.163Z</time>
      </trkpt>
      <trkpt lat="45.69818" lon="5.32616">
        <ele>287</ele>
        <time>2021-02-28T11:11:12.163Z</time>
      </trkpt>
      <trkpt lat="45.69812" lon="5.32613">
        <ele>287</ele>
        <time>2021-02-28T11:11:13.163Z</time>
      </trkpt>
      <trkpt lat="45.69807" lon="5.32611">
        <ele>286</ele>
        <time>2021-02-28T11:11:14.163Z</time>
      </trkpt>
      <trkpt lat="45.69802" lon="5.3261">
        <ele>286</ele>
        <time>2021-02-28T11:11:15.164Z</time>
      </trkpt>
      <trkpt lat="45.69798" lon="5.32609">
        <ele>286</ele>
        <time>2021-02-28T11:11:16.163Z</time>
      </trkpt>
      <trkpt lat="45.69794" lon="5.32609">
        <ele>286</ele>
        <time>2021-02-28T11:11:17.164Z</time>
      </trkpt>
      <trkpt lat="45.6979" lon="5.32608">
        <ele>285</ele>
        <time>2021-02-28T11:11:18.163Z</time>
      </trkpt>
      <trkpt lat="45.69786" lon="5.32607">
        <ele>285</ele>
        <time>2021-02-28T11:11:19.163Z</time>
      </trkpt>
      <trkpt lat="45.69782" lon="5.32607">
        <ele>285</ele>
        <time>2021-02-28T11:11:20.164Z</time>
      </trkpt>
      <trkpt lat="45.69778" lon="5.32606">
        <ele>285</ele>
        <time>2021-02-28T11:11:21.164Z</time>
      </trkpt>
      <trkpt lat="45.69774" lon="5.32605">
        <ele>284</ele>
        <time>2021-02-28T11:11:22.164Z</time>
      </trkpt>
      <trkpt lat="45.6977" lon="5.32605">
        <ele>284</ele>
        <time>2021-02-28T11:11:23.163Z</time>
      </trkpt>
      <trkpt lat="45.69766" lon="5.32604">
        <ele>284</ele>
        <time>2021-02-28T11:11:24.164Z</time>
      </trkpt>
      <trkpt lat="45.69762" lon="5.32604">
        <ele>284</ele>
        <time>2021-02-28T11:11:25.164Z</time>
      </trkpt>
      <trkpt lat="45.69757" lon="5.32604">
        <ele>284</ele>
        <time>2021-02-28T11:11:26.164Z</time>
      </trkpt>
      <trkpt lat="45.69753" lon="5.32603">
        <ele>284</ele>
        <time>2021-02-28T11:11:27.163Z</time>
      </trkpt>
      <trkpt lat="45.69748" lon="5.32602">
        <ele>284</ele>
        <time>2021-02-28T11:11:28.164Z</time>
      </trkpt>
      <trkpt lat="45.69744" lon="5.32602">
        <ele>284</ele>
        <time>2021-02-28T11:11:29.164Z</time>
      </trkpt>
      <trkpt lat="45.6974" lon="5.32601">
        <ele>285</ele>
        <time>2021-02-28T11:11:30.164Z</time>
      </trkpt>
      <trkpt lat="45.69735" lon="5.326">
        <ele>285</ele>
        <time>2021-02-28T11:11:31.163Z</time>
      </trkpt>
      <trkpt lat="45.69731" lon="5.32598">
        <ele>286</ele>
        <time>2021-02-28T11:11:32.164Z</time>
      </trkpt>
      <trkpt lat="45.69727" lon="5.32596">
        <ele>286</ele>
        <time>2021-02-28T11:11:33.164Z</time>
      </trkpt>
      <trkpt lat="45.69722" lon="5.32595">
        <ele>286</ele>
        <time>2021-02-28T11:11:34.164Z</time>
      </trkpt>
      <trkpt lat="45.69718" lon="5.32593">
        <ele>286</ele>
        <time>2021-02-28T11:11:35.164Z</time>
      </trkpt>
      <trkpt lat="45.69714" lon="5.3259">
        <ele>286</ele>
        <time>2021-02-28T11:11:36.164Z</time>
      </trkpt>
      <trkpt lat="45.6971" lon="5.32588">
        <ele>286</ele>
        <time>2021-02-28T11:11:37.164Z</time>
      </trkpt>
      <trkpt lat="45.69707" lon="5.32586">
        <ele>286</ele>
        <time>2021-02-28T11:11:38.164Z</time>
      </trkpt>
      <trkpt lat="45.69702" lon="5.32583">
        <ele>286</ele>
        <time>2021-02-28T11:11:39.164Z</time>
      </trkpt>
      <trkpt lat="45.69699" lon="5.3258">
        <ele>287</ele>
        <time>2021-02-28T11:11:40.164Z</time>
      </trkpt>
      <trkpt lat="45.69695" lon="5.32576">
        <ele>287</ele>
        <time>2021-02-28T11:11:41.164Z</time>
      </trkpt>
      <trkpt lat="45.69692" lon="5.32573">
        <ele>287</ele>
        <time>2021-02-28T11:11:42.163Z</time>
      </trkpt>
      <trkpt lat="45.69688" lon="5.32571">
        <ele>288</ele>
        <time>2021-02-28T11:11:43.164Z</time>
      </trkpt>
      <trkpt lat="45.69684" lon="5.32568">
        <ele>288</ele>
        <time>2021-02-28T11:11:44.164Z</time>
      </trkpt>
      <trkpt lat="45.69679" lon="5.32566">
        <ele>289</ele>
        <time>2021-02-28T11:11:45.164Z</time>
      </trkpt>
      <trkpt lat="45.69675" lon="5.32564">
        <ele>290</ele>
        <time>2021-02-28T11:11:46.163Z</time>
      </trkpt>
      <trkpt lat="45.69671" lon="5.32561">
        <ele>291</ele>
        <time>2021-02-28T11:11:47.164Z</time>
      </trkpt>
      <trkpt lat="45.69666" lon="5.32559">
        <ele>292</ele>
        <time>2021-02-28T11:11:48.163Z</time>
      </trkpt>
      <trkpt lat="45.69662" lon="5.32556">
        <ele>292</ele>
        <time>2021-02-28T11:11:49.163Z</time>
      </trkpt>
      <trkpt lat="45.69657" lon="5.32554">
        <ele>293</ele>
        <time>2021-02-28T11:11:50.164Z</time>
      </trkpt>
      <trkpt lat="45.69653" lon="5.32552">
        <ele>293</ele>
        <time>2021-02-28T11:11:51.163Z</time>
      </trkpt>
      <trkpt lat="45.69648" lon="5.3255">
        <ele>294</ele>
        <time>2021-02-28T11:11:52.164Z</time>
      </trkpt>
      <trkpt lat="45.69643" lon="5.32548">
        <ele>295</ele>
        <time>2021-02-28T11:11:53.164Z</time>
      </trkpt>
      <trkpt lat="45.69639" lon="5.32546">
        <ele>296</ele>
        <time>2021-02-28T11:11:54.164Z</time>
      </trkpt>
      <trkpt lat="45.69634" lon="5.32544">
        <ele>296</ele>
        <time>2021-02-28T11:11:55.163Z</time>
      </trkpt>
      <trkpt lat="45.6963" lon="5.32542">
        <ele>296</ele>
        <time>2021-02-28T11:11:56.164Z</time>
      </trkpt>
      <trkpt lat="45.69626" lon="5.32541">
        <ele>296</ele>
        <time>2021-02-28T11:11:57.164Z</time>
      </trkpt>
      <trkpt lat="45.69622" lon="5.32539">
        <ele>296</ele>
        <time>2021-02-28T11:11:58.164Z</time>
      </trkpt>
      <trkpt lat="45.69616" lon="5.32537">
        <ele>296</ele>
        <time>2021-02-28T11:11:59.164Z</time>
      </trkpt>
      <trkpt lat="45.69612" lon="5.32534">
        <ele>296</ele>
        <time>2021-02-28T11:12:00.163Z</time>
      </trkpt>
      <trkpt lat="45.69607" lon="5.32532">
        <ele>296</ele>
        <time>2021-02-28T11:12:01.164Z</time>
      </trkpt>
      <trkpt lat="45.69603" lon="5.32529">
        <ele>296</ele>
        <time>2021-02-28T11:12:02.163Z</time>
      </trkpt>
      <trkpt lat="45.69599" lon="5.32528">
        <ele>296</ele>
        <time>2021-02-28T11:12:03.163Z</time>
      </trkpt>
      <trkpt lat="45.69594" lon="5.32525">
        <ele>296</ele>
        <time>2021-02-28T11:12:04.164Z</time>
      </trkpt>
      <trkpt lat="45.69588" lon="5.32522">
        <ele>296</ele>
        <time>2021-02-28T11:12:05.164Z</time>
      </trkpt>
      <trkpt lat="45.69584" lon="5.3252">
        <ele>296</ele>
        <time>2021-02-28T11:12:06.164Z</time>
      </trkpt>
      <trkpt lat="45.69579" lon="5.32517">
        <ele>296</ele>
        <time>2021-02-28T11:12:07.163Z</time>
      </trkpt>
      <trkpt lat="45.69575" lon="5.32515">
        <ele>296</ele>
        <time>2021-02-28T11:12:08.163Z</time>
      </trkpt>
      <trkpt lat="45.69571" lon="5.32514">
        <ele>296</ele>
        <time>2021-02-28T11:12:09.164Z</time>
      </trkpt>
      <trkpt lat="45.69566" lon="5.32511">
        <ele>296</ele>
        <time>2021-02-28T11:12:10.164Z</time>
      </trkpt>
      <trkpt lat="45.69561" lon="5.32509">
        <ele>296</ele>
        <time>2021-02-28T11:12:11.164Z</time>
      </trkpt>
      <trkpt lat="45.69556" lon="5.32506">
        <ele>296</ele>
        <time>2021-02-28T11:12:12.164Z</time>
      </trkpt>
      <trkpt lat="45.69552" lon="5.32504">
        <ele>296</ele>
        <time>2021-02-28T11:12:13.164Z</time>
      </trkpt>
      <trkpt lat="45.69548" lon="5.32502">
        <ele>296</ele>
        <time>2021-02-28T11:12:14.164Z</time>
      </trkpt>
      <trkpt lat="45.69543" lon="5.325">
        <ele>296</ele>
        <time>2021-02-28T11:12:15.164Z</time>
      </trkpt>
      <trkpt lat="45.69539" lon="5.32497">
        <ele>296</ele>
        <time>2021-02-28T11:12:16.164Z</time>
      </trkpt>
      <trkpt lat="45.69534" lon="5.32495">
        <ele>296</ele>
        <time>2021-02-28T11:12:17.164Z</time>
      </trkpt>
      <trkpt lat="45.6953" lon="5.32493">
        <ele>296</ele>
        <time>2021-02-28T11:12:18.163Z</time>
      </trkpt>
      <trkpt lat="45.69526" lon="5.32492">
        <ele>296</ele>
        <time>2021-02-28T11:12:19.164Z</time>
      </trkpt>
      <trkpt lat="45.69522" lon="5.3249">
        <ele>296</ele>
        <time>2021-02-28T11:12:20.164Z</time>
      </trkpt>
      <trkpt lat="45.69517" lon="5.32487">
        <ele>297</ele>
        <time>2021-02-28T11:12:21.163Z</time>
      </trkpt>
      <trkpt lat="45.69514" lon="5.32486">
        <ele>296</ele>
        <time>2021-02-28T11:12:22.164Z</time>
      </trkpt>
      <trkpt lat="45.6951" lon="5.32484">
        <ele>296</ele>
        <time>2021-02-28T11:12:23.164Z</time>
      </trkpt>
      <trkpt lat="45.69506" lon="5.32482">
        <ele>296</ele>
        <time>2021-02-28T11:12:24.164Z</time>
      </trkpt>
      <trkpt lat="45.69501" lon="5.3248">
        <ele>296</ele>
        <time>2021-02-28T11:12:25.164Z</time>
      </trkpt>
      <trkpt lat="45.69498" lon="5.32479">
        <ele>296</ele>
        <time>2021-02-28T11:12:26.164Z</time>
      </trkpt>
      <trkpt lat="45.69495" lon="5.32477">
        <ele>296</ele>
        <time>2021-02-28T11:12:27.164Z</time>
      </trkpt>
      <trkpt lat="45.69492" lon="5.32476">
        <ele>296</ele>
        <time>2021-02-28T11:12:28.164Z</time>
      </trkpt>
      <trkpt lat="45.69489" lon="5.32474">
        <ele>296</ele>
        <time>2021-02-28T11:12:29.164Z</time>
      </trkpt>
      <trkpt lat="45.69484" lon="5.32472">
        <ele>296</ele>
        <time>2021-02-28T11:12:30.163Z</time>
      </trkpt>
      <trkpt lat="45.69481" lon="5.32471">
        <ele>296</ele>
        <time>2021-02-28T11:12:31.164Z</time>
      </trkpt>
      <trkpt lat="45.69477" lon="5.3247">
        <ele>296</ele>
        <time>2021-02-28T11:12:32.164Z</time>
      </trkpt>
      <trkpt lat="45.69474" lon="5.32468">
        <ele>296</ele>
        <time>2021-02-28T11:12:33.164Z</time>
      </trkpt>
      <trkpt lat="45.69471" lon="5.32467">
        <ele>296</ele>
        <time>2021-02-28T11:12:34.164Z</time>
      </trkpt>
      <trkpt lat="45.69467" lon="5.32465">
        <ele>296</ele>
        <time>2021-02-28T11:12:35.164Z</time>
      </trkpt>
      <trkpt lat="45.69463" lon="5.32464">
        <ele>296</ele>
        <time>2021-02-28T11:12:36.164Z</time>
      </trkpt>
      <trkpt lat="45.69459" lon="5.32462">
        <ele>296</ele>
        <time>2021-02-28T11:12:37.164Z</time>
      </trkpt>
      <trkpt lat="45.69455" lon="5.32461">
        <ele>297</ele>
        <time>2021-02-28T11:12:38.163Z</time>
      </trkpt>
      <trkpt lat="45.69452" lon="5.32459">
        <ele>297</ele>
        <time>2021-02-28T11:12:39.164Z</time>
      </trkpt>
      <trkpt lat="45.69448" lon="5.32457">
        <ele>297</ele>
        <time>2021-02-28T11:12:40.164Z</time>
      </trkpt>
      <trkpt lat="45.69444" lon="5.32455">
        <ele>298</ele>
        <time>2021-02-28T11:12:41.164Z</time>
      </trkpt>
      <trkpt lat="45.6944" lon="5.32453">
        <ele>298</ele>
        <time>2021-02-28T11:12:42.164Z</time>
      </trkpt>
      <trkpt lat="45.69436" lon="5.32451">
        <ele>298</ele>
        <time>2021-02-28T11:12:43.163Z</time>
      </trkpt>
      <trkpt lat="45.69432" lon="5.3245">
        <ele>298</ele>
        <time>2021-02-28T11:12:44.163Z</time>
      </trkpt>
      <trkpt lat="45.69429" lon="5.32448">
        <ele>298</ele>
        <time>2021-02-28T11:12:45.164Z</time>
      </trkpt>
      <trkpt lat="45.69424" lon="5.32446">
        <ele>299</ele>
        <time>2021-02-28T11:12:46.164Z</time>
      </trkpt>
      <trkpt lat="45.6942" lon="5.32444">
        <ele>298</ele>
        <time>2021-02-28T11:12:47.164Z</time>
      </trkpt>
      <trkpt lat="45.69416" lon="5.32441">
        <ele>298</ele>
        <time>2021-02-28T11:12:48.163Z</time>
      </trkpt>
      <trkpt lat="45.69412" lon="5.32439">
        <ele>298</ele>
        <time>2021-02-28T11:12:49.164Z</time>
      </trkpt>
      <trkpt lat="45.69407" lon="5.32436">
        <ele>297</ele>
        <time>2021-02-28T11:12:50.163Z</time>
      </trkpt>
      <trkpt lat="45.69401" lon="5.32434">
        <ele>297</ele>
        <time>2021-02-28T11:12:51.164Z</time>
      </trkpt>
      <trkpt lat="45.69396" lon="5.32431">
        <ele>297</ele>
        <time>2021-02-28T11:12:52.164Z</time>
      </trkpt>
      <trkpt lat="45.69392" lon="5.32429">
        <ele>296</ele>
        <time>2021-02-28T11:12:53.164Z</time>
      </trkpt>
      <trkpt lat="45.69387" lon="5.32427">
        <ele>295</ele>
        <time>2021-02-28T11:12:54.164Z</time>
      </trkpt>
      <trkpt lat="45.6938" lon="5.32425">
        <ele>295</ele>
        <time>2021-02-28T11:12:55.163Z</time>
      </trkpt>
      <trkpt lat="45.69374" lon="5.32423">
        <ele>294</ele>
        <time>2021-02-28T11:12:56.164Z</time>
      </trkpt>
      <trkpt lat="45.69369" lon="5.32422">
        <ele>294</ele>
        <time>2021-02-28T11:12:57.163Z</time>
      </trkpt>
      <trkpt lat="45.69363" lon="5.32421">
        <ele>294</ele>
        <time>2021-02-28T11:12:58.164Z</time>
      </trkpt>
      <trkpt lat="45.69358" lon="5.3242">
        <ele>294</ele>
        <time>2021-02-28T11:12:59.164Z</time>
      </trkpt>
      <trkpt lat="45.69352" lon="5.32419">
        <ele>294</ele>
        <time>2021-02-28T11:13:00.163Z</time>
      </trkpt>
      <trkpt lat="45.69344" lon="5.32418">
        <ele>294</ele>
        <time>2021-02-28T11:13:01.164Z</time>
      </trkpt>
      <trkpt lat="45.69338" lon="5.32418">
        <ele>293</ele>
        <time>2021-02-28T11:13:02.164Z</time>
      </trkpt>
      <trkpt lat="45.69333" lon="5.32418">
        <ele>293</ele>
        <time>2021-02-28T11:13:03.164Z</time>
      </trkpt>
      <trkpt lat="45.69327" lon="5.32418">
        <ele>293</ele>
        <time>2021-02-28T11:13:04.163Z</time>
      </trkpt>
      <trkpt lat="45.69321" lon="5.32418">
        <ele>292</ele>
        <time>2021-02-28T11:13:05.164Z</time>
      </trkpt>
      <trkpt lat="45.69313" lon="5.32418">
        <ele>292</ele>
        <time>2021-02-28T11:13:06.164Z</time>
      </trkpt>
      <trkpt lat="45.69308" lon="5.32417">
        <ele>292</ele>
        <time>2021-02-28T11:13:07.164Z</time>
      </trkpt>
      <trkpt lat="45.69303" lon="5.32417">
        <ele>292</ele>
        <time>2021-02-28T11:13:08.164Z</time>
      </trkpt>
      <trkpt lat="45.69297" lon="5.32417">
        <ele>292</ele>
        <time>2021-02-28T11:13:09.163Z</time>
      </trkpt>
      <trkpt lat="45.69291" lon="5.32416">
        <ele>291</ele>
        <time>2021-02-28T11:13:10.163Z</time>
      </trkpt>
      <trkpt lat="45.69284" lon="5.32416">
        <ele>291</ele>
        <time>2021-02-28T11:13:11.164Z</time>
      </trkpt>
      <trkpt lat="45.69279" lon="5.32415">
        <ele>291</ele>
        <time>2021-02-28T11:13:12.164Z</time>
      </trkpt>
      <trkpt lat="45.69274" lon="5.32413">
        <ele>291</ele>
        <time>2021-02-28T11:13:13.163Z</time>
      </trkpt>
      <trkpt lat="45.69268" lon="5.32412">
        <ele>291</ele>
        <time>2021-02-28T11:13:14.163Z</time>
      </trkpt>
      <trkpt lat="45.69263" lon="5.32411">
        <ele>291</ele>
        <time>2021-02-28T11:13:15.164Z</time>
      </trkpt>
      <trkpt lat="45.69258" lon="5.3241">
        <ele>292</ele>
        <time>2021-02-28T11:13:16.164Z</time>
      </trkpt>
      <trkpt lat="45.69253" lon="5.32408">
        <ele>291</ele>
        <time>2021-02-28T11:13:17.163Z</time>
      </trkpt>
      <trkpt lat="45.69249" lon="5.32406">
        <ele>291</ele>
        <time>2021-02-28T11:13:18.164Z</time>
      </trkpt>
      <trkpt lat="45.69244" lon="5.32404">
        <ele>291</ele>
        <time>2021-02-28T11:13:19.164Z</time>
      </trkpt>
      <trkpt lat="45.69239" lon="5.32402">
        <ele>290</ele>
        <time>2021-02-28T11:13:20.164Z</time>
      </trkpt>
      <trkpt lat="45.69232" lon="5.32399">
        <ele>290</ele>
        <time>2021-02-28T11:13:21.164Z</time>
      </trkpt>
      <trkpt lat="45.69227" lon="5.32396">
        <ele>290</ele>
        <time>2021-02-28T11:13:22.163Z</time>
      </trkpt>
      <trkpt lat="45.69223" lon="5.32394">
        <ele>290</ele>
        <time>2021-02-28T11:13:23.164Z</time>
      </trkpt>
      <trkpt lat="45.69218" lon="5.32391">
        <ele>290</ele>
        <time>2021-02-28T11:13:24.164Z</time>
      </trkpt>
      <trkpt lat="45.69211" lon="5.32387">
        <ele>290</ele>
        <time>2021-02-28T11:13:25.164Z</time>
      </trkpt>
      <trkpt lat="45.69206" lon="5.32384">
        <ele>291</ele>
        <time>2021-02-28T11:13:26.163Z</time>
      </trkpt>
      <trkpt lat="45.69201" lon="5.32381">
        <ele>291</ele>
        <time>2021-02-28T11:13:27.164Z</time>
      </trkpt>
      <trkpt lat="45.69197" lon="5.32377">
        <ele>291</ele>
        <time>2021-02-28T11:13:28.164Z</time>
      </trkpt>
      <trkpt lat="45.69193" lon="5.32374">
        <ele>291</ele>
        <time>2021-02-28T11:13:29.164Z</time>
      </trkpt>
      <trkpt lat="45.69188" lon="5.32371">
        <ele>292</ele>
        <time>2021-02-28T11:13:30.164Z</time>
      </trkpt>
      <trkpt lat="45.69182" lon="5.32367">
        <ele>292</ele>
        <time>2021-02-28T11:13:31.164Z</time>
      </trkpt>
      <trkpt lat="45.69177" lon="5.32364">
        <ele>293</ele>
        <time>2021-02-28T11:13:32.164Z</time>
      </trkpt>
      <trkpt lat="45.69172" lon="5.32361">
        <ele>294</ele>
        <time>2021-02-28T11:13:33.164Z</time>
      </trkpt>
      <trkpt lat="45.69168" lon="5.32358">
        <ele>295</ele>
        <time>2021-02-28T11:13:34.164Z</time>
      </trkpt>
      <trkpt lat="45.69163" lon="5.32355">
        <ele>295</ele>
        <time>2021-02-28T11:13:35.164Z</time>
      </trkpt>
      <trkpt lat="45.69157" lon="5.32351">
        <ele>296</ele>
        <time>2021-02-28T11:13:36.164Z</time>
      </trkpt>
      <trkpt lat="45.69152" lon="5.32347">
        <ele>296</ele>
        <time>2021-02-28T11:13:37.164Z</time>
      </trkpt>
      <trkpt lat="45.69147" lon="5.32344">
        <ele>296</ele>
        <time>2021-02-28T11:13:38.164Z</time>
      </trkpt>
      <trkpt lat="45.69142" lon="5.32341">
        <ele>296</ele>
        <time>2021-02-28T11:13:39.163Z</time>
      </trkpt>
      <trkpt lat="45.69138" lon="5.32339">
        <ele>296</ele>
        <time>2021-02-28T11:13:40.164Z</time>
      </trkpt>
      <trkpt lat="45.69131" lon="5.32335">
        <ele>296</ele>
        <time>2021-02-28T11:13:41.164Z</time>
      </trkpt>
      <trkpt lat="45.69126" lon="5.32331">
        <ele>296</ele>
        <time>2021-02-28T11:13:42.164Z</time>
      </trkpt>
      <trkpt lat="45.69122" lon="5.32328">
        <ele>295</ele>
        <time>2021-02-28T11:13:43.164Z</time>
      </trkpt>
      <trkpt lat="45.69116" lon="5.32323">
        <ele>294</ele>
        <time>2021-02-28T11:13:44.164Z</time>
      </trkpt>
      <trkpt lat="45.69112" lon="5.32318">
        <ele>293</ele>
        <time>2021-02-28T11:13:45.164Z</time>
      </trkpt>
      <trkpt lat="45.69106" lon="5.32312">
        <ele>293</ele>
        <time>2021-02-28T11:13:46.163Z</time>
      </trkpt>
      <trkpt lat="45.69101" lon="5.32307">
        <ele>292</ele>
        <time>2021-02-28T11:13:47.163Z</time>
      </trkpt>
      <trkpt lat="45.69095" lon="5.32304">
        <ele>291</ele>
        <time>2021-02-28T11:13:48.164Z</time>
      </trkpt>
      <trkpt lat="45.69091" lon="5.32302">
        <ele>291</ele>
        <time>2021-02-28T11:13:49.163Z</time>
      </trkpt>
      <trkpt lat="45.69084" lon="5.323">
        <ele>290</ele>
        <time>2021-02-28T11:13:50.163Z</time>
      </trkpt>
      <trkpt lat="45.69078" lon="5.32299">
        <ele>290</ele>
        <time>2021-02-28T11:13:51.164Z</time>
      </trkpt>
      <trkpt lat="45.69072" lon="5.32299">
        <ele>290</ele>
        <time>2021-02-28T11:13:52.164Z</time>
      </trkpt>
      <trkpt lat="45.69066" lon="5.32298">
        <ele>290</ele>
        <time>2021-02-28T11:13:53.163Z</time>
      </trkpt>
      <trkpt lat="45.69061" lon="5.32297">
        <ele>290</ele>
        <time>2021-02-28T11:13:54.164Z</time>
      </trkpt>
      <trkpt lat="45.69054" lon="5.32295">
        <ele>289</ele>
        <time>2021-02-28T11:13:55.164Z</time>
      </trkpt>
      <trkpt lat="45.69046" lon="5.32294">
        <ele>289</ele>
        <time>2021-02-28T11:13:56.163Z</time>
      </trkpt>
      <trkpt lat="45.69039" lon="5.32292">
        <ele>289</ele>
        <time>2021-02-28T11:13:57.164Z</time>
      </trkpt>
      <trkpt lat="45.69032" lon="5.3229">
        <ele>289</ele>
        <time>2021-02-28T11:13:58.164Z</time>
      </trkpt>
      <trkpt lat="45.69027" lon="5.32288">
        <ele>288</ele>
        <time>2021-02-28T11:13:59.164Z</time>
      </trkpt>
      <trkpt lat="45.6902" lon="5.32286">
        <ele>288</ele>
        <time>2021-02-28T11:14:00.164Z</time>
      </trkpt>
      <trkpt lat="45.69012" lon="5.32283">
        <ele>288</ele>
        <time>2021-02-28T11:14:01.164Z</time>
      </trkpt>
      <trkpt lat="45.69006" lon="5.32281">
        <ele>287</ele>
        <time>2021-02-28T11:14:02.163Z</time>
      </trkpt>
      <trkpt lat="45.69" lon="5.32278">
        <ele>288</ele>
        <time>2021-02-28T11:14:03.164Z</time>
      </trkpt>
      <trkpt lat="45.68993" lon="5.32275">
        <ele>287</ele>
        <time>2021-02-28T11:14:04.163Z</time>
      </trkpt>
      <trkpt lat="45.68987" lon="5.32271">
        <ele>287</ele>
        <time>2021-02-28T11:14:05.164Z</time>
      </trkpt>
      <trkpt lat="45.68981" lon="5.32266">
        <ele>287</ele>
        <time>2021-02-28T11:14:06.164Z</time>
      </trkpt>
      <trkpt lat="45.68976" lon="5.32262">
        <ele>287</ele>
        <time>2021-02-28T11:14:07.164Z</time>
      </trkpt>
      <trkpt lat="45.68971" lon="5.32258">
        <ele>288</ele>
        <time>2021-02-28T11:14:08.164Z</time>
      </trkpt>
      <trkpt lat="45.68966" lon="5.32252">
        <ele>288</ele>
        <time>2021-02-28T11:14:09.164Z</time>
      </trkpt>
      <trkpt lat="45.6896" lon="5.32246">
        <ele>287</ele>
        <time>2021-02-28T11:14:10.164Z</time>
      </trkpt>
      <trkpt lat="45.68955" lon="5.32238">
        <ele>287</ele>
        <time>2021-02-28T11:14:11.164Z</time>
      </trkpt>
      <trkpt lat="45.6895" lon="5.32231">
        <ele>287</ele>
        <time>2021-02-28T11:14:12.164Z</time>
      </trkpt>
      <trkpt lat="45.68945" lon="5.32224">
        <ele>288</ele>
        <time>2021-02-28T11:14:13.164Z</time>
      </trkpt>
      <trkpt lat="45.68941" lon="5.32218">
        <ele>288</ele>
        <time>2021-02-28T11:14:14.164Z</time>
      </trkpt>
      <trkpt lat="45.68936" lon="5.32211">
        <ele>288</ele>
        <time>2021-02-28T11:14:15.164Z</time>
      </trkpt>
      <trkpt lat="45.6893" lon="5.32203">
        <ele>288</ele>
        <time>2021-02-28T11:14:16.163Z</time>
      </trkpt>
      <trkpt lat="45.68924" lon="5.32197">
        <ele>288</ele>
        <time>2021-02-28T11:14:17.164Z</time>
      </trkpt>
      <trkpt lat="45.68919" lon="5.32193">
        <ele>288</ele>
        <time>2021-02-28T11:14:18.164Z</time>
      </trkpt>
      <trkpt lat="45.68912" lon="5.32188">
        <ele>288</ele>
        <time>2021-02-28T11:14:19.164Z</time>
      </trkpt>
      <trkpt lat="45.68906" lon="5.32184">
        <ele>288</ele>
        <time>2021-02-28T11:14:20.164Z</time>
      </trkpt>
      <trkpt lat="45.68898" lon="5.32179">
        <ele>288</ele>
        <time>2021-02-28T11:14:21.163Z</time>
      </trkpt>
      <trkpt lat="45.6889" lon="5.32176">
        <ele>287</ele>
        <time>2021-02-28T11:14:22.164Z</time>
      </trkpt>
      <trkpt lat="45.68883" lon="5.32173">
        <ele>287</ele>
        <time>2021-02-28T11:14:23.163Z</time>
      </trkpt>
      <trkpt lat="45.68875" lon="5.3217">
        <ele>287</ele>
        <time>2021-02-28T11:14:24.163Z</time>
      </trkpt>
      <trkpt lat="45.68868" lon="5.32167">
        <ele>287</ele>
        <time>2021-02-28T11:14:25.164Z</time>
      </trkpt>
      <trkpt lat="45.6886" lon="5.32165">
        <ele>287</ele>
        <time>2021-02-28T11:14:26.163Z</time>
      </trkpt>
      <trkpt lat="45.68852" lon="5.32162">
        <ele>287</ele>
        <time>2021-02-28T11:14:27.164Z</time>
      </trkpt>
      <trkpt lat="45.68846" lon="5.32161">
        <ele>286</ele>
        <time>2021-02-28T11:14:28.164Z</time>
      </trkpt>
      <trkpt lat="45.68839" lon="5.32159">
        <ele>286</ele>
        <time>2021-02-28T11:14:29.164Z</time>
      </trkpt>
      <trkpt lat="45.6883" lon="5.32157">
        <ele>286</ele>
        <time>2021-02-28T11:14:30.164Z</time>
      </trkpt>
      <trkpt lat="45.68823" lon="5.32156">
        <ele>285</ele>
        <time>2021-02-28T11:14:31.164Z</time>
      </trkpt>
      <trkpt lat="45.68817" lon="5.32154">
        <ele>285</ele>
        <time>2021-02-28T11:14:32.164Z</time>
      </trkpt>
      <trkpt lat="45.6881" lon="5.32153">
        <ele>285</ele>
        <time>2021-02-28T11:14:33.164Z</time>
      </trkpt>
      <trkpt lat="45.68804" lon="5.32152">
        <ele>285</ele>
        <time>2021-02-28T11:14:34.164Z</time>
      </trkpt>
      <trkpt lat="45.68797" lon="5.32151">
        <ele>286</ele>
        <time>2021-02-28T11:14:35.164Z</time>
      </trkpt>
      <trkpt lat="45.68791" lon="5.3215">
        <ele>286</ele>
        <time>2021-02-28T11:14:36.163Z</time>
      </trkpt>
      <trkpt lat="45.68784" lon="5.32149">
        <ele>287</ele>
        <time>2021-02-28T11:14:37.164Z</time>
      </trkpt>
      <trkpt lat="45.68778" lon="5.32147">
        <ele>287</ele>
        <time>2021-02-28T11:14:38.164Z</time>
      </trkpt>
      <trkpt lat="45.68771" lon="5.32145">
        <ele>287</ele>
        <time>2021-02-28T11:14:39.164Z</time>
      </trkpt>
      <trkpt lat="45.68765" lon="5.32143">
        <ele>287</ele>
        <time>2021-02-28T11:14:40.164Z</time>
      </trkpt>
      <trkpt lat="45.68758" lon="5.32142">
        <ele>287</ele>
        <time>2021-02-28T11:14:41.164Z</time>
      </trkpt>
      <trkpt lat="45.68752" lon="5.3214">
        <ele>287</ele>
        <time>2021-02-28T11:14:42.163Z</time>
      </trkpt>
      <trkpt lat="45.68745" lon="5.32139">
        <ele>287</ele>
        <time>2021-02-28T11:14:43.164Z</time>
      </trkpt>
      <trkpt lat="45.68739" lon="5.32138">
        <ele>287</ele>
        <time>2021-02-28T11:14:44.164Z</time>
      </trkpt>
      <trkpt lat="45.68732" lon="5.32136">
        <ele>287</ele>
        <time>2021-02-28T11:14:45.164Z</time>
      </trkpt>
      <trkpt lat="45.68727" lon="5.32135">
        <ele>287</ele>
        <time>2021-02-28T11:14:46.164Z</time>
      </trkpt>
      <trkpt lat="45.68721" lon="5.32134">
        <ele>288</ele>
        <time>2021-02-28T11:14:47.164Z</time>
      </trkpt>
      <trkpt lat="45.68717" lon="5.32133">
        <ele>288</ele>
        <time>2021-02-28T11:14:48.163Z</time>
      </trkpt>
      <trkpt lat="45.68711" lon="5.32131">
        <ele>288</ele>
        <time>2021-02-28T11:14:49.164Z</time>
      </trkpt>
      <trkpt lat="45.68706" lon="5.32129">
        <ele>288</ele>
        <time>2021-02-28T11:14:50.163Z</time>
      </trkpt>
      <trkpt lat="45.687" lon="5.32126">
        <ele>288</ele>
        <time>2021-02-28T11:14:51.163Z</time>
      </trkpt>
      <trkpt lat="45.68695" lon="5.32124">
        <ele>288</ele>
        <time>2021-02-28T11:14:52.163Z</time>
      </trkpt>
      <trkpt lat="45.6869" lon="5.32121">
        <ele>288</ele>
        <time>2021-02-28T11:14:53.163Z</time>
      </trkpt>
      <trkpt lat="45.68686" lon="5.32119">
        <ele>287</ele>
        <time>2021-02-28T11:14:54.163Z</time>
      </trkpt>
      <trkpt lat="45.68682" lon="5.32117">
        <ele>287</ele>
        <time>2021-02-28T11:14:55.164Z</time>
      </trkpt>
      <trkpt lat="45.68679" lon="5.32114">
        <ele>287</ele>
        <time>2021-02-28T11:14:56.163Z</time>
      </trkpt>
      <trkpt lat="45.68678" lon="5.32111">
        <ele>287</ele>
        <time>2021-02-28T11:14:57.164Z</time>
      </trkpt>
      <trkpt lat="45.68678" lon="5.32107">
        <ele>287</ele>
        <time>2021-02-28T11:14:58.163Z</time>
      </trkpt>
      <trkpt lat="45.6868" lon="5.32102">
        <ele>287</ele>
        <time>2021-02-28T11:14:59.164Z</time>
      </trkpt>
      <trkpt lat="45.68681" lon="5.32098">
        <ele>286</ele>
        <time>2021-02-28T11:15:00.163Z</time>
      </trkpt>
      <trkpt lat="45.68685" lon="5.3209">
        <ele>285</ele>
        <time>2021-02-28T11:15:01.164Z</time>
      </trkpt>
      <trkpt lat="45.68689" lon="5.32082">
        <ele>284</ele>
        <time>2021-02-28T11:15:02.164Z</time>
      </trkpt>
      <trkpt lat="45.68692" lon="5.32076">
        <ele>283</ele>
        <time>2021-02-28T11:15:03.164Z</time>
      </trkpt>
      <trkpt lat="45.68696" lon="5.32066">
        <ele>283</ele>
        <time>2021-02-28T11:15:04.163Z</time>
      </trkpt>
      <trkpt lat="45.68699" lon="5.32058">
        <ele>282</ele>
        <time>2021-02-28T11:15:05.164Z</time>
      </trkpt>
      <trkpt lat="45.68702" lon="5.32049">
        <ele>281</ele>
        <time>2021-02-28T11:15:06.164Z</time>
      </trkpt>
      <trkpt lat="45.68705" lon="5.32039">
        <ele>281</ele>
        <time>2021-02-28T11:15:07.164Z</time>
      </trkpt>
      <trkpt lat="45.68708" lon="5.32029">
        <ele>281</ele>
        <time>2021-02-28T11:15:08.163Z</time>
      </trkpt>
      <trkpt lat="45.6871" lon="5.32018">
        <ele>281</ele>
        <time>2021-02-28T11:15:09.163Z</time>
      </trkpt>
      <trkpt lat="45.68712" lon="5.3201">
        <ele>280</ele>
        <time>2021-02-28T11:15:10.163Z</time>
      </trkpt>
      <trkpt lat="45.68713" lon="5.31998">
        <ele>279</ele>
        <time>2021-02-28T11:15:11.164Z</time>
      </trkpt>
      <trkpt lat="45.68713" lon="5.31989">
        <ele>279</ele>
        <time>2021-02-28T11:15:12.164Z</time>
      </trkpt>
      <trkpt lat="45.68713" lon="5.3198">
        <ele>278</ele>
        <time>2021-02-28T11:15:13.163Z</time>
      </trkpt>
      <trkpt lat="45.68712" lon="5.31971">
        <ele>277</ele>
        <time>2021-02-28T11:15:14.163Z</time>
      </trkpt>
      <trkpt lat="45.68711" lon="5.31963">
        <ele>276</ele>
        <time>2021-02-28T11:15:15.164Z</time>
      </trkpt>
      <trkpt lat="45.68709" lon="5.31955">
        <ele>275</ele>
        <time>2021-02-28T11:15:16.163Z</time>
      </trkpt>
      <trkpt lat="45.68708" lon="5.31948">
        <ele>274</ele>
        <time>2021-02-28T11:15:17.163Z</time>
      </trkpt>
      <trkpt lat="45.68705" lon="5.31941">
        <ele>274</ele>
        <time>2021-02-28T11:15:18.164Z</time>
      </trkpt>
      <trkpt lat="45.68703" lon="5.31935">
        <ele>273</ele>
        <time>2021-02-28T11:15:19.164Z</time>
      </trkpt>
      <trkpt lat="45.687" lon="5.31927">
        <ele>273</ele>
        <time>2021-02-28T11:15:20.164Z</time>
      </trkpt>
      <trkpt lat="45.68696" lon="5.31921">
        <ele>273</ele>
        <time>2021-02-28T11:15:21.164Z</time>
      </trkpt>
      <trkpt lat="45.68693" lon="5.31914">
        <ele>273</ele>
        <time>2021-02-28T11:15:22.164Z</time>
      </trkpt>
      <trkpt lat="45.6869" lon="5.31907">
        <ele>274</ele>
        <time>2021-02-28T11:15:23.163Z</time>
      </trkpt>
      <trkpt lat="45.68687" lon="5.31901">
        <ele>274</ele>
        <time>2021-02-28T11:15:24.163Z</time>
      </trkpt>
      <trkpt lat="45.68683" lon="5.31895">
        <ele>274</ele>
        <time>2021-02-28T11:15:25.164Z</time>
      </trkpt>
      <trkpt lat="45.6868" lon="5.31889">
        <ele>275</ele>
        <time>2021-02-28T11:15:26.163Z</time>
      </trkpt>
      <trkpt lat="45.68677" lon="5.31882">
        <ele>275</ele>
        <time>2021-02-28T11:15:27.164Z</time>
      </trkpt>
      <trkpt lat="45.68673" lon="5.31876">
        <ele>275</ele>
        <time>2021-02-28T11:15:28.164Z</time>
      </trkpt>
      <trkpt lat="45.68671" lon="5.31872">
        <ele>276</ele>
        <time>2021-02-28T11:15:29.164Z</time>
      </trkpt>
      <trkpt lat="45.68667" lon="5.31866">
        <ele>276</ele>
        <time>2021-02-28T11:15:30.163Z</time>
      </trkpt>
      <trkpt lat="45.68664" lon="5.31861">
        <ele>277</ele>
        <time>2021-02-28T11:15:31.164Z</time>
      </trkpt>
      <trkpt lat="45.68662" lon="5.31857">
        <ele>278</ele>
        <time>2021-02-28T11:15:32.164Z</time>
      </trkpt>
      <trkpt lat="45.68659" lon="5.31853">
        <ele>278</ele>
        <time>2021-02-28T11:15:33.164Z</time>
      </trkpt>
      <trkpt lat="45.68657" lon="5.31849">
        <ele>278</ele>
        <time>2021-02-28T11:15:34.164Z</time>
      </trkpt>
      <trkpt lat="45.68654" lon="5.31846">
        <ele>279</ele>
        <time>2021-02-28T11:15:35.164Z</time>
      </trkpt>
      <trkpt lat="45.6865" lon="5.31843">
        <ele>279</ele>
        <time>2021-02-28T11:15:36.164Z</time>
      </trkpt>
      <trkpt lat="45.68646" lon="5.31841">
        <ele>279</ele>
        <time>2021-02-28T11:15:37.164Z</time>
      </trkpt>
      <trkpt lat="45.68642" lon="5.31839">
        <ele>279</ele>
        <time>2021-02-28T11:15:38.163Z</time>
      </trkpt>
      <trkpt lat="45.68636" lon="5.31837">
        <ele>280</ele>
        <time>2021-02-28T11:15:39.164Z</time>
      </trkpt>
      <trkpt lat="45.68631" lon="5.31834">
        <ele>280</ele>
        <time>2021-02-28T11:15:40.164Z</time>
      </trkpt>
      <trkpt lat="45.68625" lon="5.31832">
        <ele>281</ele>
        <time>2021-02-28T11:15:41.164Z</time>
      </trkpt>
      <trkpt lat="45.68619" lon="5.3183">
        <ele>281</ele>
        <time>2021-02-28T11:15:42.164Z</time>
      </trkpt>
      <trkpt lat="45.68612" lon="5.31827">
        <ele>281</ele>
        <time>2021-02-28T11:15:43.164Z</time>
      </trkpt>
      <trkpt lat="45.68605" lon="5.31824">
        <ele>281</ele>
        <time>2021-02-28T11:15:44.163Z</time>
      </trkpt>
      <trkpt lat="45.68598" lon="5.31821">
        <ele>281</ele>
        <time>2021-02-28T11:15:45.164Z</time>
      </trkpt>
      <trkpt lat="45.68591" lon="5.31818">
        <ele>281</ele>
        <time>2021-02-28T11:15:46.164Z</time>
      </trkpt>
      <trkpt lat="45.68582" lon="5.31814">
        <ele>280</ele>
        <time>2021-02-28T11:15:47.163Z</time>
      </trkpt>
      <trkpt lat="45.68576" lon="5.31812">
        <ele>280</ele>
        <time>2021-02-28T11:15:48.163Z</time>
      </trkpt>
      <trkpt lat="45.68568" lon="5.31809">
        <ele>280</ele>
        <time>2021-02-28T11:15:49.163Z</time>
      </trkpt>
      <trkpt lat="45.6856" lon="5.31805">
        <ele>280</ele>
        <time>2021-02-28T11:15:50.164Z</time>
      </trkpt>
      <trkpt lat="45.68552" lon="5.31802">
        <ele>280</ele>
        <time>2021-02-28T11:15:51.164Z</time>
      </trkpt>
      <trkpt lat="45.68544" lon="5.31799">
        <ele>279</ele>
        <time>2021-02-28T11:15:52.164Z</time>
      </trkpt>
      <trkpt lat="45.68535" lon="5.31796">
        <ele>279</ele>
        <time>2021-02-28T11:15:53.163Z</time>
      </trkpt>
      <trkpt lat="45.68527" lon="5.31793">
        <ele>278</ele>
        <time>2021-02-28T11:15:54.164Z</time>
      </trkpt>
      <trkpt lat="45.68517" lon="5.31789">
        <ele>278</ele>
        <time>2021-02-28T11:15:55.164Z</time>
      </trkpt>
      <trkpt lat="45.6851" lon="5.31786">
        <ele>278</ele>
        <time>2021-02-28T11:15:56.164Z</time>
      </trkpt>
      <trkpt lat="45.68502" lon="5.31783">
        <ele>277</ele>
        <time>2021-02-28T11:15:57.163Z</time>
      </trkpt>
      <trkpt lat="45.68493" lon="5.31779">
        <ele>277</ele>
        <time>2021-02-28T11:15:58.163Z</time>
      </trkpt>
      <trkpt lat="45.68484" lon="5.31775">
        <ele>276</ele>
        <time>2021-02-28T11:15:59.163Z</time>
      </trkpt>
      <trkpt lat="45.68475" lon="5.31771">
        <ele>276</ele>
        <time>2021-02-28T11:16:00.164Z</time>
      </trkpt>
      <trkpt lat="45.68466" lon="5.31767">
        <ele>275</ele>
        <time>2021-02-28T11:16:01.163Z</time>
      </trkpt>
      <trkpt lat="45.68457" lon="5.31763">
        <ele>275</ele>
        <time>2021-02-28T11:16:02.163Z</time>
      </trkpt>
      <trkpt lat="45.68448" lon="5.31758">
        <ele>274</ele>
        <time>2021-02-28T11:16:03.164Z</time>
      </trkpt>
      <trkpt lat="45.68439" lon="5.31753">
        <ele>273</ele>
        <time>2021-02-28T11:16:04.164Z</time>
      </trkpt>
      <trkpt lat="45.6843" lon="5.31749">
        <ele>273</ele>
        <time>2021-02-28T11:16:05.164Z</time>
      </trkpt>
      <trkpt lat="45.6842" lon="5.31744">
        <ele>272</ele>
        <time>2021-02-28T11:16:06.164Z</time>
      </trkpt>
      <trkpt lat="45.68411" lon="5.3174">
        <ele>272</ele>
        <time>2021-02-28T11:16:07.164Z</time>
      </trkpt>
      <trkpt lat="45.68401" lon="5.31735">
        <ele>271</ele>
        <time>2021-02-28T11:16:08.164Z</time>
      </trkpt>
      <trkpt lat="45.68391" lon="5.31731">
        <ele>271</ele>
        <time>2021-02-28T11:16:09.164Z</time>
      </trkpt>
      <trkpt lat="45.68379" lon="5.31726">
        <ele>270</ele>
        <time>2021-02-28T11:16:10.163Z</time>
      </trkpt>
      <trkpt lat="45.68371" lon="5.31723">
        <ele>270</ele>
        <time>2021-02-28T11:16:11.164Z</time>
      </trkpt>
      <trkpt lat="45.68361" lon="5.31719">
        <ele>269</ele>
        <time>2021-02-28T11:16:12.164Z</time>
      </trkpt>
      <trkpt lat="45.68351" lon="5.31714">
        <ele>268</ele>
        <time>2021-02-28T11:16:13.164Z</time>
      </trkpt>
      <trkpt lat="45.68341" lon="5.3171">
        <ele>267</ele>
        <time>2021-02-28T11:16:14.163Z</time>
      </trkpt>
      <trkpt lat="45.68331" lon="5.31705">
        <ele>266</ele>
        <time>2021-02-28T11:16:15.164Z</time>
      </trkpt>
      <trkpt lat="45.68321" lon="5.31701">
        <ele>266</ele>
        <time>2021-02-28T11:16:16.163Z</time>
      </trkpt>
      <trkpt lat="45.6831" lon="5.31696">
        <ele>265</ele>
        <time>2021-02-28T11:16:17.163Z</time>
      </trkpt>
      <trkpt lat="45.683" lon="5.31692">
        <ele>264</ele>
        <time>2021-02-28T11:16:18.163Z</time>
      </trkpt>
      <trkpt lat="45.68289" lon="5.31688">
        <ele>264</ele>
        <time>2021-02-28T11:16:19.164Z</time>
      </trkpt>
      <trkpt lat="45.68279" lon="5.31684">
        <ele>263</ele>
        <time>2021-02-28T11:16:20.164Z</time>
      </trkpt>
      <trkpt lat="45.68269" lon="5.3168">
        <ele>263</ele>
        <time>2021-02-28T11:16:21.163Z</time>
      </trkpt>
      <trkpt lat="45.6826" lon="5.31676">
        <ele>262</ele>
        <time>2021-02-28T11:16:22.164Z</time>
      </trkpt>
      <trkpt lat="45.68252" lon="5.31672">
        <ele>262</ele>
        <time>2021-02-28T11:16:23.164Z</time>
      </trkpt>
      <trkpt lat="45.68244" lon="5.31667">
        <ele>261</ele>
        <time>2021-02-28T11:16:24.163Z</time>
      </trkpt>
      <trkpt lat="45.68236" lon="5.31663">
        <ele>261</ele>
        <time>2021-02-28T11:16:25.163Z</time>
      </trkpt>
      <trkpt lat="45.68227" lon="5.3166">
        <ele>261</ele>
        <time>2021-02-28T11:16:26.164Z</time>
      </trkpt>
      <trkpt lat="45.68218" lon="5.31657">
        <ele>261</ele>
        <time>2021-02-28T11:16:27.164Z</time>
      </trkpt>
      <trkpt lat="45.68211" lon="5.31655">
        <ele>260</ele>
        <time>2021-02-28T11:16:28.164Z</time>
      </trkpt>
      <trkpt lat="45.68203" lon="5.31652">
        <ele>260</ele>
        <time>2021-02-28T11:16:29.164Z</time>
      </trkpt>
      <trkpt lat="45.68196" lon="5.31651">
        <ele>259</ele>
        <time>2021-02-28T11:16:30.164Z</time>
      </trkpt>
      <trkpt lat="45.68186" lon="5.31648">
        <ele>258</ele>
        <time>2021-02-28T11:16:31.164Z</time>
      </trkpt>
      <trkpt lat="45.68178" lon="5.31646">
        <ele>258</ele>
        <time>2021-02-28T11:16:32.164Z</time>
      </trkpt>
      <trkpt lat="45.68171" lon="5.31643">
        <ele>257</ele>
        <time>2021-02-28T11:16:33.164Z</time>
      </trkpt>
      <trkpt lat="45.68163" lon="5.31641">
        <ele>256</ele>
        <time>2021-02-28T11:16:34.164Z</time>
      </trkpt>
      <trkpt lat="45.68155" lon="5.31638">
        <ele>256</ele>
        <time>2021-02-28T11:16:35.163Z</time>
      </trkpt>
      <trkpt lat="45.68147" lon="5.31637">
        <ele>255</ele>
        <time>2021-02-28T11:16:36.163Z</time>
      </trkpt>
      <trkpt lat="45.68139" lon="5.31636">
        <ele>255</ele>
        <time>2021-02-28T11:16:37.164Z</time>
      </trkpt>
      <trkpt lat="45.68129" lon="5.31634">
        <ele>255</ele>
        <time>2021-02-28T11:16:38.164Z</time>
      </trkpt>
      <trkpt lat="45.68123" lon="5.31632">
        <ele>255</ele>
        <time>2021-02-28T11:16:39.164Z</time>
      </trkpt>
      <trkpt lat="45.68115" lon="5.31631">
        <ele>255</ele>
        <time>2021-02-28T11:16:40.163Z</time>
      </trkpt>
      <trkpt lat="45.68105" lon="5.31629">
        <ele>254</ele>
        <time>2021-02-28T11:16:41.164Z</time>
      </trkpt>
      <trkpt lat="45.681" lon="5.31627">
        <ele>254</ele>
        <time>2021-02-28T11:16:42.163Z</time>
      </trkpt>
      <trkpt lat="45.68091" lon="5.31624">
        <ele>254</ele>
        <time>2021-02-28T11:16:43.164Z</time>
      </trkpt>
      <trkpt lat="45.68086" lon="5.31622">
        <ele>253</ele>
        <time>2021-02-28T11:16:44.164Z</time>
      </trkpt>
      <trkpt lat="45.68079" lon="5.31617">
        <ele>253</ele>
        <time>2021-02-28T11:16:45.164Z</time>
      </trkpt>
      <trkpt lat="45.68073" lon="5.31611">
        <ele>252</ele>
        <time>2021-02-28T11:16:46.164Z</time>
      </trkpt>
      <trkpt lat="45.68067" lon="5.31603">
        <ele>252</ele>
        <time>2021-02-28T11:16:47.164Z</time>
      </trkpt>
      <trkpt lat="45.68063" lon="5.31597">
        <ele>251</ele>
        <time>2021-02-28T11:16:48.164Z</time>
      </trkpt>
      <trkpt lat="45.68058" lon="5.31589">
        <ele>251</ele>
        <time>2021-02-28T11:16:49.163Z</time>
      </trkpt>
      <trkpt lat="45.68054" lon="5.31581">
        <ele>251</ele>
        <time>2021-02-28T11:16:50.164Z</time>
      </trkpt>
      <trkpt lat="45.6805" lon="5.31573">
        <ele>250</ele>
        <time>2021-02-28T11:16:51.164Z</time>
      </trkpt>
      <trkpt lat="45.68046" lon="5.31564">
        <ele>250</ele>
        <time>2021-02-28T11:16:52.163Z</time>
      </trkpt>
      <trkpt lat="45.68042" lon="5.31555">
        <ele>249</ele>
        <time>2021-02-28T11:16:53.164Z</time>
      </trkpt>
      <trkpt lat="45.68038" lon="5.31546">
        <ele>249</ele>
        <time>2021-02-28T11:16:54.163Z</time>
      </trkpt>
      <trkpt lat="45.68034" lon="5.31537">
        <ele>249</ele>
        <time>2021-02-28T11:16:55.164Z</time>
      </trkpt>
      <trkpt lat="45.68029" lon="5.31528">
        <ele>249</ele>
        <time>2021-02-28T11:16:56.164Z</time>
      </trkpt>
      <trkpt lat="45.68025" lon="5.31519">
        <ele>249</ele>
        <time>2021-02-28T11:16:57.164Z</time>
      </trkpt>
      <trkpt lat="45.6802" lon="5.3151">
        <ele>248</ele>
        <time>2021-02-28T11:16:58.164Z</time>
      </trkpt>
      <trkpt lat="45.68016" lon="5.31501">
        <ele>249</ele>
        <time>2021-02-28T11:16:59.164Z</time>
      </trkpt>
      <trkpt lat="45.68011" lon="5.3149">
        <ele>249</ele>
        <time>2021-02-28T11:17:00.164Z</time>
      </trkpt>
      <trkpt lat="45.68008" lon="5.31483">
        <ele>249</ele>
        <time>2021-02-28T11:17:01.164Z</time>
      </trkpt>
      <trkpt lat="45.68004" lon="5.31474">
        <ele>248</ele>
        <time>2021-02-28T11:17:02.164Z</time>
      </trkpt>
      <trkpt lat="45.67999" lon="5.31465">
        <ele>248</ele>
        <time>2021-02-28T11:17:03.164Z</time>
      </trkpt>
      <trkpt lat="45.67995" lon="5.31456">
        <ele>248</ele>
        <time>2021-02-28T11:17:04.164Z</time>
      </trkpt>
      <trkpt lat="45.67991" lon="5.31447">
        <ele>248</ele>
        <time>2021-02-28T11:17:05.164Z</time>
      </trkpt>
      <trkpt lat="45.67987" lon="5.31438">
        <ele>249</ele>
        <time>2021-02-28T11:17:06.164Z</time>
      </trkpt>
      <trkpt lat="45.67983" lon="5.3143">
        <ele>249</ele>
        <time>2021-02-28T11:17:07.164Z</time>
      </trkpt>
      <trkpt lat="45.67979" lon="5.31422">
        <ele>250</ele>
        <time>2021-02-28T11:17:08.163Z</time>
      </trkpt>
      <trkpt lat="45.67975" lon="5.31414">
        <ele>250</ele>
        <time>2021-02-28T11:17:09.163Z</time>
      </trkpt>
      <trkpt lat="45.6797" lon="5.31405">
        <ele>250</ele>
        <time>2021-02-28T11:17:10.164Z</time>
      </trkpt>
      <trkpt lat="45.67968" lon="5.31399">
        <ele>250</ele>
        <time>2021-02-28T11:17:11.164Z</time>
      </trkpt>
      <trkpt lat="45.67964" lon="5.31391">
        <ele>250</ele>
        <time>2021-02-28T11:17:12.164Z</time>
      </trkpt>
      <trkpt lat="45.6796" lon="5.31382">
        <ele>250</ele>
        <time>2021-02-28T11:17:13.164Z</time>
      </trkpt>
      <trkpt lat="45.67957" lon="5.31376">
        <ele>250</ele>
        <time>2021-02-28T11:17:14.164Z</time>
      </trkpt>
      <trkpt lat="45.67954" lon="5.31368">
        <ele>250</ele>
        <time>2021-02-28T11:17:15.164Z</time>
      </trkpt>
      <trkpt lat="45.6795" lon="5.3136">
        <ele>250</ele>
        <time>2021-02-28T11:17:16.164Z</time>
      </trkpt>
      <trkpt lat="45.67947" lon="5.31352">
        <ele>250</ele>
        <time>2021-02-28T11:17:17.163Z</time>
      </trkpt>
      <trkpt lat="45.67943" lon="5.31345">
        <ele>250</ele>
        <time>2021-02-28T11:17:18.163Z</time>
      </trkpt>
      <trkpt lat="45.6794" lon="5.31337">
        <ele>250</ele>
        <time>2021-02-28T11:17:19.164Z</time>
      </trkpt>
      <trkpt lat="45.67936" lon="5.31329">
        <ele>250</ele>
        <time>2021-02-28T11:17:20.164Z</time>
      </trkpt>
      <trkpt lat="45.67933" lon="5.31322">
        <ele>250</ele>
        <time>2021-02-28T11:17:21.164Z</time>
      </trkpt>
      <trkpt lat="45.67929" lon="5.31314">
        <ele>250</ele>
        <time>2021-02-28T11:17:22.164Z</time>
      </trkpt>
      <trkpt lat="45.67926" lon="5.31305">
        <ele>250</ele>
        <time>2021-02-28T11:17:23.164Z</time>
      </trkpt>
      <trkpt lat="45.67923" lon="5.31297">
        <ele>250</ele>
        <time>2021-02-28T11:17:24.164Z</time>
      </trkpt>
      <trkpt lat="45.6792" lon="5.31289">
        <ele>250</ele>
        <time>2021-02-28T11:17:25.164Z</time>
      </trkpt>
      <trkpt lat="45.67917" lon="5.3128">
        <ele>250</ele>
        <time>2021-02-28T11:17:26.164Z</time>
      </trkpt>
      <trkpt lat="45.67914" lon="5.31272">
        <ele>250</ele>
        <time>2021-02-28T11:17:27.163Z</time>
      </trkpt>
      <trkpt lat="45.67911" lon="5.31264">
        <ele>250</ele>
        <time>2021-02-28T11:17:28.164Z</time>
      </trkpt>
      <trkpt lat="45.67908" lon="5.31255">
        <ele>250</ele>
        <time>2021-02-28T11:17:29.164Z</time>
      </trkpt>
      <trkpt lat="45.67905" lon="5.31248">
        <ele>249</ele>
        <time>2021-02-28T11:17:30.164Z</time>
      </trkpt>
      <trkpt lat="45.67901" lon="5.3124">
        <ele>249</ele>
        <time>2021-02-28T11:17:31.164Z</time>
      </trkpt>
      <trkpt lat="45.67898" lon="5.31233">
        <ele>249</ele>
        <time>2021-02-28T11:17:32.164Z</time>
      </trkpt>
      <trkpt lat="45.67895" lon="5.31226">
        <ele>249</ele>
        <time>2021-02-28T11:17:33.164Z</time>
      </trkpt>
      <trkpt lat="45.67891" lon="5.31219">
        <ele>250</ele>
        <time>2021-02-28T11:17:34.164Z</time>
      </trkpt>
      <trkpt lat="45.67887" lon="5.31213">
        <ele>250</ele>
        <time>2021-02-28T11:17:35.164Z</time>
      </trkpt>
      <trkpt lat="45.67883" lon="5.31207">
        <ele>250</ele>
        <time>2021-02-28T11:17:36.164Z</time>
      </trkpt>
      <trkpt lat="45.67878" lon="5.31202">
        <ele>250</ele>
        <time>2021-02-28T11:17:37.164Z</time>
      </trkpt>
      <trkpt lat="45.67874" lon="5.31197">
        <ele>250</ele>
        <time>2021-02-28T11:17:38.164Z</time>
      </trkpt>
      <trkpt lat="45.67869" lon="5.31192">
        <ele>249</ele>
        <time>2021-02-28T11:17:39.164Z</time>
      </trkpt>
      <trkpt lat="45.67865" lon="5.31188">
        <ele>249</ele>
        <time>2021-02-28T11:17:40.164Z</time>
      </trkpt>
      <trkpt lat="45.6786" lon="5.31183">
        <ele>248</ele>
        <time>2021-02-28T11:17:41.163Z</time>
      </trkpt>
      <trkpt lat="45.67855" lon="5.31179">
        <ele>248</ele>
        <time>2021-02-28T11:17:42.164Z</time>
      </trkpt>
      <trkpt lat="45.6785" lon="5.31175">
        <ele>248</ele>
        <time>2021-02-28T11:17:43.163Z</time>
      </trkpt>
      <trkpt lat="45.67845" lon="5.3117">
        <ele>248</ele>
        <time>2021-02-28T11:17:44.163Z</time>
      </trkpt>
      <trkpt lat="45.6784" lon="5.31166">
        <ele>248</ele>
        <time>2021-02-28T11:17:45.164Z</time>
      </trkpt>
      <trkpt lat="45.67836" lon="5.31161">
        <ele>248</ele>
        <time>2021-02-28T11:17:46.164Z</time>
      </trkpt>
      <trkpt lat="45.67831" lon="5.31157">
        <ele>249</ele>
        <time>2021-02-28T11:17:47.164Z</time>
      </trkpt>
      <trkpt lat="45.67826" lon="5.31154">
        <ele>249</ele>
        <time>2021-02-28T11:17:48.164Z</time>
      </trkpt>
      <trkpt lat="45.67821" lon="5.3115">
        <ele>249</ele>
        <time>2021-02-28T11:17:49.164Z</time>
      </trkpt>
      <trkpt lat="45.67816" lon="5.31147">
        <ele>249</ele>
        <time>2021-02-28T11:17:50.164Z</time>
      </trkpt>
      <trkpt lat="45.67811" lon="5.31145">
        <ele>249</ele>
        <time>2021-02-28T11:17:51.164Z</time>
      </trkpt>
      <trkpt lat="45.67806" lon="5.31143">
        <ele>249</ele>
        <time>2021-02-28T11:17:52.164Z</time>
      </trkpt>
      <trkpt lat="45.67801" lon="5.31141">
        <ele>250</ele>
        <time>2021-02-28T11:17:53.163Z</time>
      </trkpt>
      <trkpt lat="45.67795" lon="5.3114">
        <ele>250</ele>
        <time>2021-02-28T11:17:54.164Z</time>
      </trkpt>
      <trkpt lat="45.6779" lon="5.31139">
        <ele>250</ele>
        <time>2021-02-28T11:17:55.164Z</time>
      </trkpt>
      <trkpt lat="45.67784" lon="5.3114">
        <ele>250</ele>
        <time>2021-02-28T11:17:56.164Z</time>
      </trkpt>
      <trkpt lat="45.67779" lon="5.31141">
        <ele>250</ele>
        <time>2021-02-28T11:17:57.164Z</time>
      </trkpt>
      <trkpt lat="45.67774" lon="5.31143">
        <ele>249</ele>
        <time>2021-02-28T11:17:58.164Z</time>
      </trkpt>
      <trkpt lat="45.67768" lon="5.31145">
        <ele>249</ele>
        <time>2021-02-28T11:17:59.164Z</time>
      </trkpt>
      <trkpt lat="45.67763" lon="5.31147">
        <ele>249</ele>
        <time>2021-02-28T11:18:00.164Z</time>
      </trkpt>
      <trkpt lat="45.67758" lon="5.3115">
        <ele>248</ele>
        <time>2021-02-28T11:18:01.163Z</time>
      </trkpt>
      <trkpt lat="45.67753" lon="5.31153">
        <ele>248</ele>
        <time>2021-02-28T11:18:02.164Z</time>
      </trkpt>
      <trkpt lat="45.67748" lon="5.31155">
        <ele>248</ele>
        <time>2021-02-28T11:18:03.164Z</time>
      </trkpt>
      <trkpt lat="45.67742" lon="5.31157">
        <ele>247</ele>
        <time>2021-02-28T11:18:04.164Z</time>
      </trkpt>
      <trkpt lat="45.67736" lon="5.31159">
        <ele>246</ele>
        <time>2021-02-28T11:18:05.163Z</time>
      </trkpt>
      <trkpt lat="45.6773" lon="5.3116">
        <ele>246</ele>
        <time>2021-02-28T11:18:06.163Z</time>
      </trkpt>
      <trkpt lat="45.67723" lon="5.31161">
        <ele>245</ele>
        <time>2021-02-28T11:18:07.164Z</time>
      </trkpt>
      <trkpt lat="45.67716" lon="5.31161">
        <ele>245</ele>
        <time>2021-02-28T11:18:08.164Z</time>
      </trkpt>
      <trkpt lat="45.67709" lon="5.31161">
        <ele>245</ele>
        <time>2021-02-28T11:18:09.164Z</time>
      </trkpt>
      <trkpt lat="45.67701" lon="5.31161">
        <ele>245</ele>
        <time>2021-02-28T11:18:10.164Z</time>
      </trkpt>
      <trkpt lat="45.67694" lon="5.31161">
        <ele>245</ele>
        <time>2021-02-28T11:18:11.164Z</time>
      </trkpt>
      <trkpt lat="45.67686" lon="5.31161">
        <ele>244</ele>
        <time>2021-02-28T11:18:12.164Z</time>
      </trkpt>
      <trkpt lat="45.67678" lon="5.31161">
        <ele>244</ele>
        <time>2021-02-28T11:18:13.164Z</time>
      </trkpt>
      <trkpt lat="45.67669" lon="5.31162">
        <ele>244</ele>
        <time>2021-02-28T11:18:14.164Z</time>
      </trkpt>
      <trkpt lat="45.6766" lon="5.31162">
        <ele>244</ele>
        <time>2021-02-28T11:18:15.164Z</time>
      </trkpt>
      <trkpt lat="45.67651" lon="5.31163">
        <ele>244</ele>
        <time>2021-02-28T11:18:16.163Z</time>
      </trkpt>
      <trkpt lat="45.67642" lon="5.31163">
        <ele>243</ele>
        <time>2021-02-28T11:18:17.163Z</time>
      </trkpt>
      <trkpt lat="45.67634" lon="5.31162">
        <ele>243</ele>
        <time>2021-02-28T11:18:18.164Z</time>
      </trkpt>
      <trkpt lat="45.67625" lon="5.3116">
        <ele>243</ele>
        <time>2021-02-28T11:18:19.164Z</time>
      </trkpt>
      <trkpt lat="45.67616" lon="5.31157">
        <ele>243</ele>
        <time>2021-02-28T11:18:20.164Z</time>
      </trkpt>
      <trkpt lat="45.67609" lon="5.31152">
        <ele>243</ele>
        <time>2021-02-28T11:18:21.163Z</time>
      </trkpt>
      <trkpt lat="45.67601" lon="5.31148">
        <ele>243</ele>
        <time>2021-02-28T11:18:22.164Z</time>
      </trkpt>
      <trkpt lat="45.67594" lon="5.31142">
        <ele>243</ele>
        <time>2021-02-28T11:18:23.164Z</time>
      </trkpt>
      <trkpt lat="45.67588" lon="5.31137">
        <ele>243</ele>
        <time>2021-02-28T11:18:24.164Z</time>
      </trkpt>
      <trkpt lat="45.67582" lon="5.31131">
        <ele>243</ele>
        <time>2021-02-28T11:18:25.164Z</time>
      </trkpt>
      <trkpt lat="45.67576" lon="5.31126">
        <ele>243</ele>
        <time>2021-02-28T11:18:26.164Z</time>
      </trkpt>
      <trkpt lat="45.6757" lon="5.3112">
        <ele>243</ele>
        <time>2021-02-28T11:18:27.163Z</time>
      </trkpt>
      <trkpt lat="45.67565" lon="5.31114">
        <ele>243</ele>
        <time>2021-02-28T11:18:28.164Z</time>
      </trkpt>
      <trkpt lat="45.67559" lon="5.31108">
        <ele>244</ele>
        <time>2021-02-28T11:18:29.163Z</time>
      </trkpt>
      <trkpt lat="45.67554" lon="5.31103">
        <ele>244</ele>
        <time>2021-02-28T11:18:30.164Z</time>
      </trkpt>
      <trkpt lat="45.67549" lon="5.31097">
        <ele>245</ele>
        <time>2021-02-28T11:18:31.163Z</time>
      </trkpt>
      <trkpt lat="45.67544" lon="5.31091">
        <ele>246</ele>
        <time>2021-02-28T11:18:32.164Z</time>
      </trkpt>
      <trkpt lat="45.67539" lon="5.31085">
        <ele>246</ele>
        <time>2021-02-28T11:18:33.164Z</time>
      </trkpt>
      <trkpt lat="45.67534" lon="5.31079">
        <ele>246</ele>
        <time>2021-02-28T11:18:34.164Z</time>
      </trkpt>
      <trkpt lat="45.67528" lon="5.31073">
        <ele>246</ele>
        <time>2021-02-28T11:18:35.163Z</time>
      </trkpt>
      <trkpt lat="45.67523" lon="5.31066">
        <ele>246</ele>
        <time>2021-02-28T11:18:36.164Z</time>
      </trkpt>
      <trkpt lat="45.67518" lon="5.31059">
        <ele>246</ele>
        <time>2021-02-28T11:18:37.164Z</time>
      </trkpt>
      <trkpt lat="45.67513" lon="5.31054">
        <ele>246</ele>
        <time>2021-02-28T11:18:38.164Z</time>
      </trkpt>
      <trkpt lat="45.67506" lon="5.31046">
        <ele>246</ele>
        <time>2021-02-28T11:18:39.163Z</time>
      </trkpt>
      <trkpt lat="45.675" lon="5.3104">
        <ele>245</ele>
        <time>2021-02-28T11:18:40.164Z</time>
      </trkpt>
      <trkpt lat="45.67495" lon="5.31034">
        <ele>245</ele>
        <time>2021-02-28T11:18:41.163Z</time>
      </trkpt>
      <trkpt lat="45.67489" lon="5.31027">
        <ele>244</ele>
        <time>2021-02-28T11:18:42.164Z</time>
      </trkpt>
      <trkpt lat="45.67482" lon="5.31021">
        <ele>244</ele>
        <time>2021-02-28T11:18:43.164Z</time>
      </trkpt>
      <trkpt lat="45.67476" lon="5.31015">
        <ele>244</ele>
        <time>2021-02-28T11:18:44.164Z</time>
      </trkpt>
      <trkpt lat="45.6747" lon="5.31009">
        <ele>243</ele>
        <time>2021-02-28T11:18:45.164Z</time>
      </trkpt>
      <trkpt lat="45.67464" lon="5.31003">
        <ele>243</ele>
        <time>2021-02-28T11:18:46.164Z</time>
      </trkpt>
      <trkpt lat="45.67457" lon="5.30996">
        <ele>242</ele>
        <time>2021-02-28T11:18:47.164Z</time>
      </trkpt>
      <trkpt lat="45.67451" lon="5.3099">
        <ele>242</ele>
        <time>2021-02-28T11:18:48.163Z</time>
      </trkpt>
      <trkpt lat="45.67443" lon="5.30982">
        <ele>242</ele>
        <time>2021-02-28T11:18:49.163Z</time>
      </trkpt>
      <trkpt lat="45.67437" lon="5.30975">
        <ele>242</ele>
        <time>2021-02-28T11:18:50.164Z</time>
      </trkpt>
      <trkpt lat="45.6743" lon="5.30967">
        <ele>242</ele>
        <time>2021-02-28T11:18:51.163Z</time>
      </trkpt>
      <trkpt lat="45.67424" lon="5.30959">
        <ele>242</ele>
        <time>2021-02-28T11:18:52.164Z</time>
      </trkpt>
      <trkpt lat="45.67418" lon="5.30951">
        <ele>242</ele>
        <time>2021-02-28T11:18:53.164Z</time>
      </trkpt>
      <trkpt lat="45.67412" lon="5.30942">
        <ele>242</ele>
        <time>2021-02-28T11:18:54.163Z</time>
      </trkpt>
      <trkpt lat="45.67406" lon="5.30934">
        <ele>242</ele>
        <time>2021-02-28T11:18:55.164Z</time>
      </trkpt>
      <trkpt lat="45.674" lon="5.30926">
        <ele>242</ele>
        <time>2021-02-28T11:18:56.164Z</time>
      </trkpt>
      <trkpt lat="45.67395" lon="5.30917">
        <ele>242</ele>
        <time>2021-02-28T11:18:57.164Z</time>
      </trkpt>
      <trkpt lat="45.6739" lon="5.30909">
        <ele>242</ele>
        <time>2021-02-28T11:18:58.163Z</time>
      </trkpt>
      <trkpt lat="45.67385" lon="5.30901">
        <ele>242</ele>
        <time>2021-02-28T11:18:59.164Z</time>
      </trkpt>
      <trkpt lat="45.6738" lon="5.30894">
        <ele>242</ele>
        <time>2021-02-28T11:19:00.164Z</time>
      </trkpt>
      <trkpt lat="45.67376" lon="5.30887">
        <ele>242</ele>
        <time>2021-02-28T11:19:01.164Z</time>
      </trkpt>
      <trkpt lat="45.6737" lon="5.30879">
        <ele>241</ele>
        <time>2021-02-28T11:19:02.164Z</time>
      </trkpt>
      <trkpt lat="45.67367" lon="5.30873">
        <ele>241</ele>
        <time>2021-02-28T11:19:03.164Z</time>
      </trkpt>
      <trkpt lat="45.67361" lon="5.30865">
        <ele>240</ele>
        <time>2021-02-28T11:19:04.164Z</time>
      </trkpt>
      <trkpt lat="45.67355" lon="5.30859">
        <ele>240</ele>
        <time>2021-02-28T11:19:05.163Z</time>
      </trkpt>
      <trkpt lat="45.6735" lon="5.30855">
        <ele>240</ele>
        <time>2021-02-28T11:19:06.164Z</time>
      </trkpt>
      <trkpt lat="45.67344" lon="5.3085">
        <ele>240</ele>
        <time>2021-02-28T11:19:07.164Z</time>
      </trkpt>
      <trkpt lat="45.67337" lon="5.30846">
        <ele>240</ele>
        <time>2021-02-28T11:19:08.164Z</time>
      </trkpt>
      <trkpt lat="45.67331" lon="5.30843">
        <ele>239</ele>
        <time>2021-02-28T11:19:09.164Z</time>
      </trkpt>
      <trkpt lat="45.67323" lon="5.30839">
        <ele>239</ele>
        <time>2021-02-28T11:19:10.163Z</time>
      </trkpt>
      <trkpt lat="45.67318" lon="5.30836">
        <ele>238</ele>
        <time>2021-02-28T11:19:11.164Z</time>
      </trkpt>
      <trkpt lat="45.67311" lon="5.30833">
        <ele>237</ele>
        <time>2021-02-28T11:19:12.164Z</time>
      </trkpt>
      <trkpt lat="45.67304" lon="5.30829">
        <ele>236</ele>
        <time>2021-02-28T11:19:13.163Z</time>
      </trkpt>
      <trkpt lat="45.67299" lon="5.30826">
        <ele>236</ele>
        <time>2021-02-28T11:19:14.163Z</time>
      </trkpt>
      <trkpt lat="45.67293" lon="5.30822">
        <ele>236</ele>
        <time>2021-02-28T11:19:15.164Z</time>
      </trkpt>
      <trkpt lat="45.67288" lon="5.30819">
        <ele>236</ele>
        <time>2021-02-28T11:19:16.164Z</time>
      </trkpt>
      <trkpt lat="45.67282" lon="5.30814">
        <ele>236</ele>
        <time>2021-02-28T11:19:17.164Z</time>
      </trkpt>
      <trkpt lat="45.67278" lon="5.30811">
        <ele>235</ele>
        <time>2021-02-28T11:19:18.164Z</time>
      </trkpt>
      <trkpt lat="45.67272" lon="5.30804">
        <ele>235</ele>
        <time>2021-02-28T11:19:19.164Z</time>
      </trkpt>
      <trkpt lat="45.67267" lon="5.30799">
        <ele>234</ele>
        <time>2021-02-28T11:19:20.164Z</time>
      </trkpt>
      <trkpt lat="45.67262" lon="5.30794">
        <ele>234</ele>
        <time>2021-02-28T11:19:21.164Z</time>
      </trkpt>
      <trkpt lat="45.67257" lon="5.30788">
        <ele>234</ele>
        <time>2021-02-28T11:19:22.164Z</time>
      </trkpt>
      <trkpt lat="45.67254" lon="5.30784">
        <ele>234</ele>
        <time>2021-02-28T11:19:23.164Z</time>
      </trkpt>
      <trkpt lat="45.67249" lon="5.30777">
        <ele>233</ele>
        <time>2021-02-28T11:19:24.164Z</time>
      </trkpt>
      <trkpt lat="45.67245" lon="5.30771">
        <ele>233</ele>
        <time>2021-02-28T11:19:25.164Z</time>
      </trkpt>
      <trkpt lat="45.67241" lon="5.30765">
        <ele>233</ele>
        <time>2021-02-28T11:19:26.163Z</time>
      </trkpt>
      <trkpt lat="45.67237" lon="5.30759">
        <ele>234</ele>
        <time>2021-02-28T11:19:27.164Z</time>
      </trkpt>
      <trkpt lat="45.67233" lon="5.30753">
        <ele>234</ele>
        <time>2021-02-28T11:19:28.164Z</time>
      </trkpt>
      <trkpt lat="45.67229" lon="5.30747">
        <ele>235</ele>
        <time>2021-02-28T11:19:29.164Z</time>
      </trkpt>
      <trkpt lat="45.67225" lon="5.30741">
        <ele>235</ele>
        <time>2021-02-28T11:19:30.164Z</time>
      </trkpt>
      <trkpt lat="45.67221" lon="5.30735">
        <ele>235</ele>
        <time>2021-02-28T11:19:31.163Z</time>
      </trkpt>
      <trkpt lat="45.67217" lon="5.30728">
        <ele>235</ele>
        <time>2021-02-28T11:19:32.163Z</time>
      </trkpt>
      <trkpt lat="45.67213" lon="5.30722">
        <ele>235</ele>
        <time>2021-02-28T11:19:33.163Z</time>
      </trkpt>
      <trkpt lat="45.67209" lon="5.30716">
        <ele>235</ele>
        <time>2021-02-28T11:19:34.164Z</time>
      </trkpt>
      <trkpt lat="45.67204" lon="5.30711">
        <ele>236</ele>
        <time>2021-02-28T11:19:35.164Z</time>
      </trkpt>
      <trkpt lat="45.67201" lon="5.30707">
        <ele>236</ele>
        <time>2021-02-28T11:19:36.164Z</time>
      </trkpt>
      <trkpt lat="45.67195" lon="5.307">
        <ele>236</ele>
        <time>2021-02-28T11:19:37.164Z</time>
      </trkpt>
      <trkpt lat="45.67192" lon="5.30696">
        <ele>237</ele>
        <time>2021-02-28T11:19:38.163Z</time>
      </trkpt>
      <trkpt lat="45.67187" lon="5.3069">
        <ele>237</ele>
        <time>2021-02-28T11:19:39.163Z</time>
      </trkpt>
      <trkpt lat="45.67182" lon="5.30686">
        <ele>238</ele>
        <time>2021-02-28T11:19:40.163Z</time>
      </trkpt>
      <trkpt lat="45.67178" lon="5.30682">
        <ele>238</ele>
        <time>2021-02-28T11:19:41.163Z</time>
      </trkpt>
      <trkpt lat="45.67174" lon="5.30679">
        <ele>238</ele>
        <time>2021-02-28T11:19:42.164Z</time>
      </trkpt>
      <trkpt lat="45.67169" lon="5.30675">
        <ele>238</ele>
        <time>2021-02-28T11:19:43.164Z</time>
      </trkpt>
      <trkpt lat="45.67165" lon="5.30672">
        <ele>238</ele>
        <time>2021-02-28T11:19:44.163Z</time>
      </trkpt>
      <trkpt lat="45.67161" lon="5.30668">
        <ele>238</ele>
        <time>2021-02-28T11:19:45.163Z</time>
      </trkpt>
      <trkpt lat="45.67157" lon="5.30664">
        <ele>238</ele>
        <time>2021-02-28T11:19:46.163Z</time>
      </trkpt>
      <trkpt lat="45.67154" lon="5.30661">
        <ele>238</ele>
        <time>2021-02-28T11:19:47.163Z</time>
      </trkpt>
      <trkpt lat="45.6715" lon="5.30657">
        <ele>237</ele>
        <time>2021-02-28T11:19:48.164Z</time>
      </trkpt>
      <trkpt lat="45.67145" lon="5.30652">
        <ele>237</ele>
        <time>2021-02-28T11:19:49.164Z</time>
      </trkpt>
      <trkpt lat="45.67141" lon="5.30647">
        <ele>237</ele>
        <time>2021-02-28T11:19:50.164Z</time>
      </trkpt>
      <trkpt lat="45.67139" lon="5.30643">
        <ele>237</ele>
        <time>2021-02-28T11:19:51.164Z</time>
      </trkpt>
      <trkpt lat="45.67135" lon="5.30637">
        <ele>236</ele>
        <time>2021-02-28T11:19:52.163Z</time>
      </trkpt>
      <trkpt lat="45.6713" lon="5.30631">
        <ele>236</ele>
        <time>2021-02-28T11:19:53.164Z</time>
      </trkpt>
      <trkpt lat="45.67125" lon="5.30623">
        <ele>237</ele>
        <time>2021-02-28T11:19:54.163Z</time>
      </trkpt>
      <trkpt lat="45.6712" lon="5.30617">
        <ele>237</ele>
        <time>2021-02-28T11:19:55.164Z</time>
      </trkpt>
      <trkpt lat="45.67115" lon="5.3061">
        <ele>238</ele>
        <time>2021-02-28T11:19:56.164Z</time>
      </trkpt>
      <trkpt lat="45.67111" lon="5.30604">
        <ele>238</ele>
        <time>2021-02-28T11:19:57.164Z</time>
      </trkpt>
      <trkpt lat="45.67106" lon="5.30596">
        <ele>237</ele>
        <time>2021-02-28T11:19:58.164Z</time>
      </trkpt>
      <trkpt lat="45.67101" lon="5.30589">
        <ele>237</ele>
        <time>2021-02-28T11:19:59.164Z</time>
      </trkpt>
      <trkpt lat="45.67096" lon="5.30582">
        <ele>237</ele>
        <time>2021-02-28T11:20:00.164Z</time>
      </trkpt>
      <trkpt lat="45.67093" lon="5.30577">
        <ele>237</ele>
        <time>2021-02-28T11:20:01.164Z</time>
      </trkpt>
      <trkpt lat="45.67088" lon="5.30571">
        <ele>237</ele>
        <time>2021-02-28T11:20:02.164Z</time>
      </trkpt>
      <trkpt lat="45.67083" lon="5.30563">
        <ele>237</ele>
        <time>2021-02-28T11:20:03.164Z</time>
      </trkpt>
      <trkpt lat="45.67078" lon="5.30556">
        <ele>238</ele>
        <time>2021-02-28T11:20:04.163Z</time>
      </trkpt>
      <trkpt lat="45.67074" lon="5.3055">
        <ele>238</ele>
        <time>2021-02-28T11:20:05.164Z</time>
      </trkpt>
      <trkpt lat="45.67071" lon="5.30544">
        <ele>238</ele>
        <time>2021-02-28T11:20:06.163Z</time>
      </trkpt>
      <trkpt lat="45.67067" lon="5.30538">
        <ele>238</ele>
        <time>2021-02-28T11:20:07.163Z</time>
      </trkpt>
      <trkpt lat="45.67062" lon="5.30529">
        <ele>238</ele>
        <time>2021-02-28T11:20:08.164Z</time>
      </trkpt>
      <trkpt lat="45.67058" lon="5.30521">
        <ele>238</ele>
        <time>2021-02-28T11:20:09.163Z</time>
      </trkpt>
      <trkpt lat="45.67053" lon="5.30513">
        <ele>239</ele>
        <time>2021-02-28T11:20:10.164Z</time>
      </trkpt>
      <trkpt lat="45.67048" lon="5.30504">
        <ele>239</ele>
        <time>2021-02-28T11:20:11.164Z</time>
      </trkpt>
      <trkpt lat="45.67043" lon="5.30496">
        <ele>239</ele>
        <time>2021-02-28T11:20:12.164Z</time>
      </trkpt>
      <trkpt lat="45.67039" lon="5.30488">
        <ele>239</ele>
        <time>2021-02-28T11:20:13.163Z</time>
      </trkpt>
      <trkpt lat="45.67033" lon="5.30477">
        <ele>238</ele>
        <time>2021-02-28T11:20:14.163Z</time>
      </trkpt>
      <trkpt lat="45.67028" lon="5.30467">
        <ele>238</ele>
        <time>2021-02-28T11:20:15.164Z</time>
      </trkpt>
      <trkpt lat="45.67022" lon="5.30457">
        <ele>237</ele>
        <time>2021-02-28T11:20:16.164Z</time>
      </trkpt>
      <trkpt lat="45.67016" lon="5.30447">
        <ele>236</ele>
        <time>2021-02-28T11:20:17.164Z</time>
      </trkpt>
      <trkpt lat="45.6701" lon="5.30436">
        <ele>236</ele>
        <time>2021-02-28T11:20:18.163Z</time>
      </trkpt>
      <trkpt lat="45.67004" lon="5.30425">
        <ele>235</ele>
        <time>2021-02-28T11:20:19.164Z</time>
      </trkpt>
      <trkpt lat="45.66998" lon="5.30414">
        <ele>234</ele>
        <time>2021-02-28T11:20:20.164Z</time>
      </trkpt>
      <trkpt lat="45.66992" lon="5.30403">
        <ele>234</ele>
        <time>2021-02-28T11:20:21.163Z</time>
      </trkpt>
      <trkpt lat="45.66985" lon="5.30392">
        <ele>234</ele>
        <time>2021-02-28T11:20:22.164Z</time>
      </trkpt>
      <trkpt lat="45.66979" lon="5.30381">
        <ele>233</ele>
        <time>2021-02-28T11:20:23.163Z</time>
      </trkpt>
      <trkpt lat="45.66973" lon="5.30369">
        <ele>233</ele>
        <time>2021-02-28T11:20:24.163Z</time>
      </trkpt>
      <trkpt lat="45.66966" lon="5.30358">
        <ele>232</ele>
        <time>2021-02-28T11:20:25.163Z</time>
      </trkpt>
      <trkpt lat="45.6696" lon="5.30347">
        <ele>231</ele>
        <time>2021-02-28T11:20:26.164Z</time>
      </trkpt>
      <trkpt lat="45.66954" lon="5.30336">
        <ele>231</ele>
        <time>2021-02-28T11:20:27.164Z</time>
      </trkpt>
      <trkpt lat="45.66947" lon="5.30325">
        <ele>230</ele>
        <time>2021-02-28T11:20:28.163Z</time>
      </trkpt>
      <trkpt lat="45.66941" lon="5.30315">
        <ele>230</ele>
        <time>2021-02-28T11:20:29.163Z</time>
      </trkpt>
      <trkpt lat="45.66935" lon="5.30305">
        <ele>229</ele>
        <time>2021-02-28T11:20:30.164Z</time>
      </trkpt>
      <trkpt lat="45.66928" lon="5.30295">
        <ele>229</ele>
        <time>2021-02-28T11:20:31.164Z</time>
      </trkpt>
      <trkpt lat="45.66922" lon="5.30286">
        <ele>229</ele>
        <time>2021-02-28T11:20:32.164Z</time>
      </trkpt>
      <trkpt lat="45.66916" lon="5.30277">
        <ele>229</ele>
        <time>2021-02-28T11:20:33.163Z</time>
      </trkpt>
      <trkpt lat="45.66909" lon="5.30269">
        <ele>229</ele>
        <time>2021-02-28T11:20:34.163Z</time>
      </trkpt>
      <trkpt lat="45.66903" lon="5.30261">
        <ele>229</ele>
        <time>2021-02-28T11:20:35.163Z</time>
      </trkpt>
      <trkpt lat="45.66896" lon="5.30253">
        <ele>230</ele>
        <time>2021-02-28T11:20:36.164Z</time>
      </trkpt>
      <trkpt lat="45.66891" lon="5.30244">
        <ele>230</ele>
        <time>2021-02-28T11:20:37.164Z</time>
      </trkpt>
      <trkpt lat="45.66886" lon="5.30235">
        <ele>230</ele>
        <time>2021-02-28T11:20:38.163Z</time>
      </trkpt>
      <trkpt lat="45.66882" lon="5.30226">
        <ele>230</ele>
        <time>2021-02-28T11:20:39.163Z</time>
      </trkpt>
      <trkpt lat="45.66879" lon="5.30217">
        <ele>229</ele>
        <time>2021-02-28T11:20:40.164Z</time>
      </trkpt>
      <trkpt lat="45.66875" lon="5.30207">
        <ele>229</ele>
        <time>2021-02-28T11:20:41.164Z</time>
      </trkpt>
      <trkpt lat="45.66872" lon="5.30197">
        <ele>229</ele>
        <time>2021-02-28T11:20:42.164Z</time>
      </trkpt>
      <trkpt lat="45.66869" lon="5.30188">
        <ele>228</ele>
        <time>2021-02-28T11:20:43.163Z</time>
      </trkpt>
      <trkpt lat="45.66865" lon="5.30178">
        <ele>229</ele>
        <time>2021-02-28T11:20:44.163Z</time>
      </trkpt>
      <trkpt lat="45.6686" lon="5.3017">
        <ele>228</ele>
        <time>2021-02-28T11:20:45.163Z</time>
      </trkpt>
      <trkpt lat="45.66856" lon="5.30161">
        <ele>228</ele>
        <time>2021-02-28T11:20:46.164Z</time>
      </trkpt>
      <trkpt lat="45.66851" lon="5.30153">
        <ele>228</ele>
        <time>2021-02-28T11:20:47.164Z</time>
      </trkpt>
      <trkpt lat="45.66846" lon="5.30145">
        <ele>227</ele>
        <time>2021-02-28T11:20:48.163Z</time>
      </trkpt>
      <trkpt lat="45.66841" lon="5.30138">
        <ele>227</ele>
        <time>2021-02-28T11:20:49.163Z</time>
      </trkpt>
      <trkpt lat="45.66835" lon="5.3013">
        <ele>227</ele>
        <time>2021-02-28T11:20:50.163Z</time>
      </trkpt>
      <trkpt lat="45.66831" lon="5.30123">
        <ele>227</ele>
        <time>2021-02-28T11:20:51.164Z</time>
      </trkpt>
      <trkpt lat="45.66826" lon="5.30114">
        <ele>227</ele>
        <time>2021-02-28T11:20:52.163Z</time>
      </trkpt>
      <trkpt lat="45.66822" lon="5.30105">
        <ele>227</ele>
        <time>2021-02-28T11:20:53.163Z</time>
      </trkpt>
      <trkpt lat="45.6682" lon="5.30096">
        <ele>228</ele>
        <time>2021-02-28T11:20:54.163Z</time>
      </trkpt>
      <trkpt lat="45.66818" lon="5.30086">
        <ele>228</ele>
        <time>2021-02-28T11:20:55.163Z</time>
      </trkpt>
      <trkpt lat="45.66817" lon="5.30076">
        <ele>227</ele>
        <time>2021-02-28T11:20:56.164Z</time>
      </trkpt>
      <trkpt lat="45.66817" lon="5.30066">
        <ele>227</ele>
        <time>2021-02-28T11:20:57.163Z</time>
      </trkpt>
      <trkpt lat="45.66818" lon="5.30056">
        <ele>227</ele>
        <time>2021-02-28T11:20:58.163Z</time>
      </trkpt>
      <trkpt lat="45.6682" lon="5.30046">
        <ele>226</ele>
        <time>2021-02-28T11:20:59.163Z</time>
      </trkpt>
      <trkpt lat="45.66822" lon="5.30037">
        <ele>225</ele>
        <time>2021-02-28T11:21:00.163Z</time>
      </trkpt>
      <trkpt lat="45.66825" lon="5.30028">
        <ele>224</ele>
        <time>2021-02-28T11:21:01.164Z</time>
      </trkpt>
      <trkpt lat="45.66827" lon="5.30019">
        <ele>224</ele>
        <time>2021-02-28T11:21:02.164Z</time>
      </trkpt>
      <trkpt lat="45.6683" lon="5.30011">
        <ele>224</ele>
        <time>2021-02-28T11:21:03.163Z</time>
      </trkpt>
      <trkpt lat="45.66833" lon="5.30003">
        <ele>223</ele>
        <time>2021-02-28T11:21:04.163Z</time>
      </trkpt>
      <trkpt lat="45.66836" lon="5.29996">
        <ele>223</ele>
        <time>2021-02-28T11:21:05.163Z</time>
      </trkpt>
      <trkpt lat="45.66839" lon="5.29989">
        <ele>223</ele>
        <time>2021-02-28T11:21:06.164Z</time>
      </trkpt>
      <trkpt lat="45.66841" lon="5.29981">
        <ele>222</ele>
        <time>2021-02-28T11:21:07.164Z</time>
      </trkpt>
      <trkpt lat="45.66842" lon="5.29975">
        <ele>222</ele>
        <time>2021-02-28T11:21:08.163Z</time>
      </trkpt>
      <trkpt lat="45.66844" lon="5.29968">
        <ele>222</ele>
        <time>2021-02-28T11:21:09.163Z</time>
      </trkpt>
      <trkpt lat="45.66846" lon="5.29962">
        <ele>222</ele>
        <time>2021-02-28T11:21:10.163Z</time>
      </trkpt>
      <trkpt lat="45.66848" lon="5.29957">
        <ele>223</ele>
        <time>2021-02-28T11:21:11.164Z</time>
      </trkpt>
      <trkpt lat="45.6685" lon="5.29951">
        <ele>223</ele>
        <time>2021-02-28T11:21:12.163Z</time>
      </trkpt>
      <trkpt lat="45.66851" lon="5.29946">
        <ele>223</ele>
        <time>2021-02-28T11:21:13.163Z</time>
      </trkpt>
      <trkpt lat="45.66852" lon="5.29941">
        <ele>223</ele>
        <time>2021-02-28T11:21:14.163Z</time>
      </trkpt>
      <trkpt lat="45.66853" lon="5.29936">
        <ele>223</ele>
        <time>2021-02-28T11:21:15.163Z</time>
      </trkpt>
      <trkpt lat="45.66855" lon="5.29931">
        <ele>224</ele>
        <time>2021-02-28T11:21:16.164Z</time>
      </trkpt>
      <trkpt lat="45.66856" lon="5.29926">
        <ele>224</ele>
        <time>2021-02-28T11:21:17.163Z</time>
      </trkpt>
      <trkpt lat="45.66858" lon="5.29922">
        <ele>224</ele>
        <time>2021-02-28T11:21:18.163Z</time>
      </trkpt>
      <trkpt lat="45.6686" lon="5.29916">
        <ele>224</ele>
        <time>2021-02-28T11:21:19.163Z</time>
      </trkpt>
      <trkpt lat="45.66862" lon="5.29911">
        <ele>224</ele>
        <time>2021-02-28T11:21:20.163Z</time>
      </trkpt>
      <trkpt lat="45.66863" lon="5.29907">
        <ele>224</ele>
        <time>2021-02-28T11:21:21.164Z</time>
      </trkpt>
      <trkpt lat="45.66865" lon="5.29902">
        <ele>224</ele>
        <time>2021-02-28T11:21:22.163Z</time>
      </trkpt>
      <trkpt lat="45.66867" lon="5.29897">
        <ele>224</ele>
        <time>2021-02-28T11:21:23.163Z</time>
      </trkpt>
      <trkpt lat="45.66869" lon="5.29892">
        <ele>224</ele>
        <time>2021-02-28T11:21:24.163Z</time>
      </trkpt>
      <trkpt lat="45.66871" lon="5.29888">
        <ele>224</ele>
        <time>2021-02-28T11:21:25.163Z</time>
      </trkpt>
      <trkpt lat="45.66872" lon="5.29884">
        <ele>224</ele>
        <time>2021-02-28T11:21:26.163Z</time>
      </trkpt>
      <trkpt lat="45.66873" lon="5.2988">
        <ele>224</ele>
        <time>2021-02-28T11:21:27.163Z</time>
      </trkpt>
      <trkpt lat="45.66875" lon="5.29876">
        <ele>224</ele>
        <time>2021-02-28T11:21:28.163Z</time>
      </trkpt>
      <trkpt lat="45.66876" lon="5.29873">
        <ele>224</ele>
        <time>2021-02-28T11:21:29.163Z</time>
      </trkpt>
      <trkpt lat="45.66877" lon="5.29871">
        <ele>224</ele>
        <time>2021-02-28T11:21:30.163Z</time>
      </trkpt>
      <trkpt lat="45.66877" lon="5.29869">
        <ele>224</ele>
        <time>2021-02-28T11:21:31.163Z</time>
      </trkpt>
      <trkpt lat="45.66878" lon="5.29867">
        <ele>224</ele>
        <time>2021-02-28T11:21:32.163Z</time>
      </trkpt>
      <trkpt lat="45.66879" lon="5.29866">
        <ele>225</ele>
        <time>2021-02-28T11:21:33.164Z</time>
      </trkpt>
      <trkpt lat="45.6688" lon="5.29864">
        <ele>225</ele>
        <time>2021-02-28T11:21:34.163Z</time>
      </trkpt>
      <trkpt lat="45.66881" lon="5.29862">
        <ele>225</ele>
        <time>2021-02-28T11:21:35.163Z</time>
      </trkpt>
      <trkpt lat="45.66881" lon="5.2986">
        <ele>226</ele>
        <time>2021-02-28T11:21:36.164Z</time>
      </trkpt>
      <trkpt lat="45.6688" lon="5.29857">
        <ele>226</ele>
        <time>2021-02-28T11:21:37.164Z</time>
      </trkpt>
      <trkpt lat="45.6688" lon="5.29855">
        <ele>226</ele>
        <time>2021-02-28T11:21:38.164Z</time>
      </trkpt>
      <trkpt lat="45.66877" lon="5.29852">
        <ele>226</ele>
        <time>2021-02-28T11:21:39.163Z</time>
      </trkpt>
      <trkpt lat="45.66875" lon="5.29851">
        <ele>226</ele>
        <time>2021-02-28T11:21:40.163Z</time>
      </trkpt>
      <trkpt lat="45.66872" lon="5.29849">
        <ele>226</ele>
        <time>2021-02-28T11:21:41.164Z</time>
      </trkpt>
      <trkpt lat="45.66868" lon="5.29847">
        <ele>226</ele>
        <time>2021-02-28T11:21:42.164Z</time>
      </trkpt>
      <trkpt lat="45.66865" lon="5.29845">
        <ele>227</ele>
        <time>2021-02-28T11:21:43.164Z</time>
      </trkpt>
      <trkpt lat="45.66861" lon="5.29843">
        <ele>227</ele>
        <time>2021-02-28T11:21:44.164Z</time>
      </trkpt>
      <trkpt lat="45.66858" lon="5.29841">
        <ele>227</ele>
        <time>2021-02-28T11:21:45.164Z</time>
      </trkpt>
      <trkpt lat="45.66854" lon="5.29838">
        <ele>227</ele>
        <time>2021-02-28T11:21:46.164Z</time>
      </trkpt>
      <trkpt lat="45.6685" lon="5.29835">
        <ele>228</ele>
        <time>2021-02-28T11:21:47.164Z</time>
      </trkpt>
      <trkpt lat="45.66846" lon="5.29833">
        <ele>228</ele>
        <time>2021-02-28T11:21:48.163Z</time>
      </trkpt>
      <trkpt lat="45.66842" lon="5.2983">
        <ele>229</ele>
        <time>2021-02-28T11:21:49.164Z</time>
      </trkpt>
      <trkpt lat="45.66838" lon="5.29827">
        <ele>229</ele>
        <time>2021-02-28T11:21:50.164Z</time>
      </trkpt>
      <trkpt lat="45.66834" lon="5.29824">
        <ele>229</ele>
        <time>2021-02-28T11:21:51.164Z</time>
      </trkpt>
      <trkpt lat="45.66829" lon="5.29821">
        <ele>229</ele>
        <time>2021-02-28T11:21:52.163Z</time>
      </trkpt>
      <trkpt lat="45.66825" lon="5.29818">
        <ele>228</ele>
        <time>2021-02-28T11:21:53.164Z</time>
      </trkpt>
      <trkpt lat="45.6682" lon="5.29815">
        <ele>229</ele>
        <time>2021-02-28T11:21:54.164Z</time>
      </trkpt>
      <trkpt lat="45.66815" lon="5.29812">
        <ele>229</ele>
        <time>2021-02-28T11:21:55.164Z</time>
      </trkpt>
      <trkpt lat="45.66811" lon="5.29809">
        <ele>230</ele>
        <time>2021-02-28T11:21:56.164Z</time>
      </trkpt>
      <trkpt lat="45.66806" lon="5.29806">
        <ele>230</ele>
        <time>2021-02-28T11:21:57.163Z</time>
      </trkpt>
      <trkpt lat="45.66801" lon="5.29802">
        <ele>230</ele>
        <time>2021-02-28T11:21:58.164Z</time>
      </trkpt>
      <trkpt lat="45.66796" lon="5.29798">
        <ele>230</ele>
        <time>2021-02-28T11:21:59.163Z</time>
      </trkpt>
      <trkpt lat="45.66791" lon="5.29795">
        <ele>230</ele>
        <time>2021-02-28T11:22:00.164Z</time>
      </trkpt>
      <trkpt lat="45.66785" lon="5.29791">
        <ele>230</ele>
        <time>2021-02-28T11:22:01.164Z</time>
      </trkpt>
      <trkpt lat="45.6678" lon="5.29787">
        <ele>231</ele>
        <time>2021-02-28T11:22:02.163Z</time>
      </trkpt>
      <trkpt lat="45.66774" lon="5.29784">
        <ele>231</ele>
        <time>2021-02-28T11:22:03.163Z</time>
      </trkpt>
      <trkpt lat="45.66769" lon="5.2978">
        <ele>231</ele>
        <time>2021-02-28T11:22:04.164Z</time>
      </trkpt>
      <trkpt lat="45.66763" lon="5.29776">
        <ele>230</ele>
        <time>2021-02-28T11:22:05.164Z</time>
      </trkpt>
      <trkpt lat="45.66757" lon="5.29772">
        <ele>230</ele>
        <time>2021-02-28T11:22:06.164Z</time>
      </trkpt>
      <trkpt lat="45.66752" lon="5.29768">
        <ele>230</ele>
        <time>2021-02-28T11:22:07.164Z</time>
      </trkpt>
      <trkpt lat="45.66747" lon="5.29764">
        <ele>230</ele>
        <time>2021-02-28T11:22:08.164Z</time>
      </trkpt>
      <trkpt lat="45.66742" lon="5.29761">
        <ele>230</ele>
        <time>2021-02-28T11:22:09.163Z</time>
      </trkpt>
      <trkpt lat="45.66736" lon="5.29757">
        <ele>230</ele>
        <time>2021-02-28T11:22:10.163Z</time>
      </trkpt>
      <trkpt lat="45.66732" lon="5.29754">
        <ele>230</ele>
        <time>2021-02-28T11:22:11.163Z</time>
      </trkpt>
      <trkpt lat="45.66727" lon="5.2975">
        <ele>230</ele>
        <time>2021-02-28T11:22:12.163Z</time>
      </trkpt>
      <trkpt lat="45.66722" lon="5.29746">
        <ele>230</ele>
        <time>2021-02-28T11:22:13.164Z</time>
      </trkpt>
      <trkpt lat="45.66717" lon="5.29742">
        <ele>229</ele>
        <time>2021-02-28T11:22:14.164Z</time>
      </trkpt>
      <trkpt lat="45.66712" lon="5.29738">
        <ele>229</ele>
        <time>2021-02-28T11:22:15.164Z</time>
      </trkpt>
      <trkpt lat="45.66706" lon="5.29734">
        <ele>229</ele>
        <time>2021-02-28T11:22:16.164Z</time>
      </trkpt>
      <trkpt lat="45.667" lon="5.2973">
        <ele>229</ele>
        <time>2021-02-28T11:22:17.163Z</time>
      </trkpt>
      <trkpt lat="45.66694" lon="5.29726">
        <ele>229</ele>
        <time>2021-02-28T11:22:18.163Z</time>
      </trkpt>
      <trkpt lat="45.66688" lon="5.29721">
        <ele>228</ele>
        <time>2021-02-28T11:22:19.164Z</time>
      </trkpt>
      <trkpt lat="45.66682" lon="5.29717">
        <ele>228</ele>
        <time>2021-02-28T11:22:20.164Z</time>
      </trkpt>
      <trkpt lat="45.66676" lon="5.29713">
        <ele>228</ele>
        <time>2021-02-28T11:22:21.163Z</time>
      </trkpt>
      <trkpt lat="45.6667" lon="5.29708">
        <ele>228</ele>
        <time>2021-02-28T11:22:22.164Z</time>
      </trkpt>
      <trkpt lat="45.66663" lon="5.29704">
        <ele>228</ele>
        <time>2021-02-28T11:22:23.164Z</time>
      </trkpt>
      <trkpt lat="45.66657" lon="5.29699">
        <ele>227</ele>
        <time>2021-02-28T11:22:24.164Z</time>
      </trkpt>
      <trkpt lat="45.66651" lon="5.29693">
        <ele>226</ele>
        <time>2021-02-28T11:22:25.164Z</time>
      </trkpt>
      <trkpt lat="45.66645" lon="5.29688">
        <ele>225</ele>
        <time>2021-02-28T11:22:26.164Z</time>
      </trkpt>
      <trkpt lat="45.6664" lon="5.29682">
        <ele>225</ele>
        <time>2021-02-28T11:22:27.163Z</time>
      </trkpt>
      <trkpt lat="45.66634" lon="5.29677">
        <ele>225</ele>
        <time>2021-02-28T11:22:28.163Z</time>
      </trkpt>
      <trkpt lat="45.66628" lon="5.29671">
        <ele>225</ele>
        <time>2021-02-28T11:22:29.163Z</time>
      </trkpt>
      <trkpt lat="45.66622" lon="5.29665">
        <ele>226</ele>
        <time>2021-02-28T11:22:30.163Z</time>
      </trkpt>
      <trkpt lat="45.66617" lon="5.29659">
        <ele>225</ele>
        <time>2021-02-28T11:22:31.163Z</time>
      </trkpt>
      <trkpt lat="45.66612" lon="5.29652">
        <ele>225</ele>
        <time>2021-02-28T11:22:32.163Z</time>
      </trkpt>
      <trkpt lat="45.66606" lon="5.29646">
        <ele>226</ele>
        <time>2021-02-28T11:22:33.164Z</time>
      </trkpt>
      <trkpt lat="45.66601" lon="5.29639">
        <ele>226</ele>
        <time>2021-02-28T11:22:34.164Z</time>
      </trkpt>
      <trkpt lat="45.66596" lon="5.29633">
        <ele>226</ele>
        <time>2021-02-28T11:22:35.163Z</time>
      </trkpt>
      <trkpt lat="45.6659" lon="5.29627">
        <ele>226</ele>
        <time>2021-02-28T11:22:36.164Z</time>
      </trkpt>
      <trkpt lat="45.66585" lon="5.2962">
        <ele>226</ele>
        <time>2021-02-28T11:22:37.163Z</time>
      </trkpt>
      <trkpt lat="45.6658" lon="5.29613">
        <ele>226</ele>
        <time>2021-02-28T11:22:38.164Z</time>
      </trkpt>
      <trkpt lat="45.66575" lon="5.29606">
        <ele>226</ele>
        <time>2021-02-28T11:22:39.163Z</time>
      </trkpt>
      <trkpt lat="45.6657" lon="5.296">
        <ele>226</ele>
        <time>2021-02-28T11:22:40.164Z</time>
      </trkpt>
      <trkpt lat="45.66564" lon="5.29593">
        <ele>226</ele>
        <time>2021-02-28T11:22:41.163Z</time>
      </trkpt>
      <trkpt lat="45.66559" lon="5.29586">
        <ele>226</ele>
        <time>2021-02-28T11:22:42.163Z</time>
      </trkpt>
      <trkpt lat="45.66554" lon="5.29579">
        <ele>226</ele>
        <time>2021-02-28T11:22:43.163Z</time>
      </trkpt>
      <trkpt lat="45.66549" lon="5.29573">
        <ele>226</ele>
        <time>2021-02-28T11:22:44.164Z</time>
      </trkpt>
      <trkpt lat="45.66544" lon="5.29567">
        <ele>226</ele>
        <time>2021-02-28T11:22:45.164Z</time>
      </trkpt>
      <trkpt lat="45.66539" lon="5.2956">
        <ele>226</ele>
        <time>2021-02-28T11:22:46.163Z</time>
      </trkpt>
      <trkpt lat="45.66534" lon="5.29553">
        <ele>226</ele>
        <time>2021-02-28T11:22:47.163Z</time>
      </trkpt>
      <trkpt lat="45.66529" lon="5.29547">
        <ele>225</ele>
        <time>2021-02-28T11:22:48.164Z</time>
      </trkpt>
      <trkpt lat="45.66523" lon="5.2954">
        <ele>225</ele>
        <time>2021-02-28T11:22:49.163Z</time>
      </trkpt>
      <trkpt lat="45.66518" lon="5.29534">
        <ele>224</ele>
        <time>2021-02-28T11:22:50.164Z</time>
      </trkpt>
      <trkpt lat="45.66513" lon="5.29527">
        <ele>224</ele>
        <time>2021-02-28T11:22:51.163Z</time>
      </trkpt>
      <trkpt lat="45.66508" lon="5.2952">
        <ele>223</ele>
        <time>2021-02-28T11:22:52.164Z</time>
      </trkpt>
      <trkpt lat="45.66502" lon="5.29514">
        <ele>223</ele>
        <time>2021-02-28T11:22:53.163Z</time>
      </trkpt>
      <trkpt lat="45.66497" lon="5.29508">
        <ele>222</ele>
        <time>2021-02-28T11:22:54.164Z</time>
      </trkpt>
      <trkpt lat="45.66492" lon="5.29501">
        <ele>223</ele>
        <time>2021-02-28T11:22:55.163Z</time>
      </trkpt>
      <trkpt lat="45.66486" lon="5.29494">
        <ele>223</ele>
        <time>2021-02-28T11:22:56.164Z</time>
      </trkpt>
      <trkpt lat="45.66481" lon="5.29488">
        <ele>222</ele>
        <time>2021-02-28T11:22:57.164Z</time>
      </trkpt>
      <trkpt lat="45.66476" lon="5.29481">
        <ele>222</ele>
        <time>2021-02-28T11:22:58.164Z</time>
      </trkpt>
      <trkpt lat="45.6647" lon="5.29474">
        <ele>222</ele>
        <time>2021-02-28T11:22:59.164Z</time>
      </trkpt>
      <trkpt lat="45.66465" lon="5.29467">
        <ele>222</ele>
        <time>2021-02-28T11:23:00.164Z</time>
      </trkpt>
      <trkpt lat="45.6646" lon="5.2946">
        <ele>222</ele>
        <time>2021-02-28T11:23:01.164Z</time>
      </trkpt>
      <trkpt lat="45.66454" lon="5.29453">
        <ele>222</ele>
        <time>2021-02-28T11:23:02.164Z</time>
      </trkpt>
      <trkpt lat="45.66449" lon="5.29446">
        <ele>221</ele>
        <time>2021-02-28T11:23:03.163Z</time>
      </trkpt>
      <trkpt lat="45.66443" lon="5.29439">
        <ele>221</ele>
        <time>2021-02-28T11:23:04.163Z</time>
      </trkpt>
      <trkpt lat="45.66437" lon="5.29432">
        <ele>221</ele>
        <time>2021-02-28T11:23:05.164Z</time>
      </trkpt>
      <trkpt lat="45.66432" lon="5.29424">
        <ele>221</ele>
        <time>2021-02-28T11:23:06.164Z</time>
      </trkpt>
      <trkpt lat="45.66426" lon="5.29417">
        <ele>221</ele>
        <time>2021-02-28T11:23:07.164Z</time>
      </trkpt>
      <trkpt lat="45.6642" lon="5.2941">
        <ele>221</ele>
        <time>2021-02-28T11:23:08.164Z</time>
      </trkpt>
      <trkpt lat="45.66415" lon="5.29402">
        <ele>221</ele>
        <time>2021-02-28T11:23:09.164Z</time>
      </trkpt>
      <trkpt lat="45.66409" lon="5.29395">
        <ele>221</ele>
        <time>2021-02-28T11:23:10.164Z</time>
      </trkpt>
      <trkpt lat="45.66404" lon="5.29388">
        <ele>221</ele>
        <time>2021-02-28T11:23:11.164Z</time>
      </trkpt>
      <trkpt lat="45.66398" lon="5.2938">
        <ele>221</ele>
        <time>2021-02-28T11:23:12.164Z</time>
      </trkpt>
      <trkpt lat="45.66392" lon="5.29373">
        <ele>221</ele>
        <time>2021-02-28T11:23:13.164Z</time>
      </trkpt>
      <trkpt lat="45.66387" lon="5.29366">
        <ele>221</ele>
        <time>2021-02-28T11:23:14.164Z</time>
      </trkpt>
      <trkpt lat="45.66381" lon="5.29358">
        <ele>220</ele>
        <time>2021-02-28T11:23:15.164Z</time>
      </trkpt>
      <trkpt lat="45.66375" lon="5.29351">
        <ele>220</ele>
        <time>2021-02-28T11:23:16.163Z</time>
      </trkpt>
      <trkpt lat="45.66369" lon="5.29343">
        <ele>219</ele>
        <time>2021-02-28T11:23:17.164Z</time>
      </trkpt>
      <trkpt lat="45.66363" lon="5.29336">
        <ele>219</ele>
        <time>2021-02-28T11:23:18.163Z</time>
      </trkpt>
      <trkpt lat="45.66358" lon="5.29329">
        <ele>218</ele>
        <time>2021-02-28T11:23:19.164Z</time>
      </trkpt>
      <trkpt lat="45.66352" lon="5.29321">
        <ele>218</ele>
        <time>2021-02-28T11:23:20.163Z</time>
      </trkpt>
      <trkpt lat="45.66346" lon="5.29314">
        <ele>218</ele>
        <time>2021-02-28T11:23:21.164Z</time>
      </trkpt>
      <trkpt lat="45.66341" lon="5.29307">
        <ele>217</ele>
        <time>2021-02-28T11:23:22.163Z</time>
      </trkpt>
      <trkpt lat="45.66335" lon="5.293">
        <ele>218</ele>
        <time>2021-02-28T11:23:23.164Z</time>
      </trkpt>
      <trkpt lat="45.6633" lon="5.29293">
        <ele>218</ele>
        <time>2021-02-28T11:23:24.163Z</time>
      </trkpt>
      <trkpt lat="45.66325" lon="5.29286">
        <ele>217</ele>
        <time>2021-02-28T11:23:25.163Z</time>
      </trkpt>
      <trkpt lat="45.66319" lon="5.29279">
        <ele>217</ele>
        <time>2021-02-28T11:23:26.164Z</time>
      </trkpt>
      <trkpt lat="45.66314" lon="5.29273">
        <ele>217</ele>
        <time>2021-02-28T11:23:27.163Z</time>
      </trkpt>
      <trkpt lat="45.66309" lon="5.29267">
        <ele>217</ele>
        <time>2021-02-28T11:23:28.164Z</time>
      </trkpt>
      <trkpt lat="45.66303" lon="5.2926">
        <ele>217</ele>
        <time>2021-02-28T11:23:29.164Z</time>
      </trkpt>
      <trkpt lat="45.66299" lon="5.29254">
        <ele>217</ele>
        <time>2021-02-28T11:23:30.163Z</time>
      </trkpt>
      <trkpt lat="45.66293" lon="5.29247">
        <ele>217</ele>
        <time>2021-02-28T11:23:31.163Z</time>
      </trkpt>
      <trkpt lat="45.66289" lon="5.29241">
        <ele>216</ele>
        <time>2021-02-28T11:23:32.164Z</time>
      </trkpt>
      <trkpt lat="45.66283" lon="5.29234">
        <ele>216</ele>
        <time>2021-02-28T11:23:33.164Z</time>
      </trkpt>
      <trkpt lat="45.66278" lon="5.29228">
        <ele>216</ele>
        <time>2021-02-28T11:23:34.164Z</time>
      </trkpt>
      <trkpt lat="45.66273" lon="5.29221">
        <ele>216</ele>
        <time>2021-02-28T11:23:35.164Z</time>
      </trkpt>
      <trkpt lat="45.66268" lon="5.29215">
        <ele>216</ele>
        <time>2021-02-28T11:23:36.163Z</time>
      </trkpt>
      <trkpt lat="45.66263" lon="5.29208">
        <ele>215</ele>
        <time>2021-02-28T11:23:37.164Z</time>
      </trkpt>
      <trkpt lat="45.66258" lon="5.29202">
        <ele>215</ele>
        <time>2021-02-28T11:23:38.164Z</time>
      </trkpt>
      <trkpt lat="45.66253" lon="5.29195">
        <ele>215</ele>
        <time>2021-02-28T11:23:39.164Z</time>
      </trkpt>
      <trkpt lat="45.66248" lon="5.29188">
        <ele>215</ele>
        <time>2021-02-28T11:23:40.163Z</time>
      </trkpt>
      <trkpt lat="45.66243" lon="5.29181">
        <ele>214</ele>
        <time>2021-02-28T11:23:41.164Z</time>
      </trkpt>
      <trkpt lat="45.66238" lon="5.29175">
        <ele>214</ele>
        <time>2021-02-28T11:23:42.163Z</time>
      </trkpt>
      <trkpt lat="45.66232" lon="5.29168">
        <ele>214</ele>
        <time>2021-02-28T11:23:43.163Z</time>
      </trkpt>
      <trkpt lat="45.66227" lon="5.29161">
        <ele>214</ele>
        <time>2021-02-28T11:23:44.163Z</time>
      </trkpt>
      <trkpt lat="45.66222" lon="5.29154">
        <ele>215</ele>
        <time>2021-02-28T11:23:45.164Z</time>
      </trkpt>
      <trkpt lat="45.66217" lon="5.29148">
        <ele>215</ele>
        <time>2021-02-28T11:23:46.164Z</time>
      </trkpt>
      <trkpt lat="45.66212" lon="5.29141">
        <ele>215</ele>
        <time>2021-02-28T11:23:47.164Z</time>
      </trkpt>
      <trkpt lat="45.66207" lon="5.29135">
        <ele>215</ele>
        <time>2021-02-28T11:23:48.164Z</time>
      </trkpt>
      <trkpt lat="45.66202" lon="5.29129">
        <ele>216</ele>
        <time>2021-02-28T11:23:49.164Z</time>
      </trkpt>
      <trkpt lat="45.66197" lon="5.29123">
        <ele>216</ele>
        <time>2021-02-28T11:23:50.164Z</time>
      </trkpt>
      <trkpt lat="45.66192" lon="5.29118">
        <ele>216</ele>
        <time>2021-02-28T11:23:51.164Z</time>
      </trkpt>
      <trkpt lat="45.66187" lon="5.29112">
        <ele>216</ele>
        <time>2021-02-28T11:23:52.163Z</time>
      </trkpt>
      <trkpt lat="45.66182" lon="5.29106">
        <ele>216</ele>
        <time>2021-02-28T11:23:53.164Z</time>
      </trkpt>
      <trkpt lat="45.66177" lon="5.291">
        <ele>217</ele>
        <time>2021-02-28T11:23:54.163Z</time>
      </trkpt>
      <trkpt lat="45.66171" lon="5.29095">
        <ele>217</ele>
        <time>2021-02-28T11:23:55.164Z</time>
      </trkpt>
      <trkpt lat="45.66166" lon="5.2909">
        <ele>217</ele>
        <time>2021-02-28T11:23:56.163Z</time>
      </trkpt>
      <trkpt lat="45.66161" lon="5.29085">
        <ele>217</ele>
        <time>2021-02-28T11:23:57.164Z</time>
      </trkpt>
      <trkpt lat="45.66156" lon="5.2908">
        <ele>217</ele>
        <time>2021-02-28T11:23:58.164Z</time>
      </trkpt>
      <trkpt lat="45.66152" lon="5.29076">
        <ele>217</ele>
        <time>2021-02-28T11:23:59.164Z</time>
      </trkpt>
      <trkpt lat="45.66147" lon="5.29072">
        <ele>217</ele>
        <time>2021-02-28T11:24:00.164Z</time>
      </trkpt>
      <trkpt lat="45.66142" lon="5.29068">
        <ele>217</ele>
        <time>2021-02-28T11:24:01.164Z</time>
      </trkpt>
      <trkpt lat="45.66137" lon="5.29065">
        <ele>217</ele>
        <time>2021-02-28T11:24:02.164Z</time>
      </trkpt>
      <trkpt lat="45.66132" lon="5.29061">
        <ele>218</ele>
        <time>2021-02-28T11:24:03.164Z</time>
      </trkpt>
      <trkpt lat="45.66127" lon="5.29058">
        <ele>218</ele>
        <time>2021-02-28T11:24:04.164Z</time>
      </trkpt>
      <trkpt lat="45.66121" lon="5.29054">
        <ele>218</ele>
        <time>2021-02-28T11:24:05.164Z</time>
      </trkpt>
      <trkpt lat="45.66115" lon="5.2905">
        <ele>218</ele>
        <time>2021-02-28T11:24:06.164Z</time>
      </trkpt>
      <trkpt lat="45.66109" lon="5.29046">
        <ele>218</ele>
        <time>2021-02-28T11:24:07.163Z</time>
      </trkpt>
      <trkpt lat="45.66103" lon="5.29042">
        <ele>218</ele>
        <time>2021-02-28T11:24:08.163Z</time>
      </trkpt>
      <trkpt lat="45.66096" lon="5.29038">
        <ele>219</ele>
        <time>2021-02-28T11:24:09.164Z</time>
      </trkpt>
      <trkpt lat="45.6609" lon="5.29033">
        <ele>219</ele>
        <time>2021-02-28T11:24:10.164Z</time>
      </trkpt>
      <trkpt lat="45.66083" lon="5.29029">
        <ele>220</ele>
        <time>2021-02-28T11:24:11.164Z</time>
      </trkpt>
      <trkpt lat="45.66076" lon="5.29025">
        <ele>220</ele>
        <time>2021-02-28T11:24:12.164Z</time>
      </trkpt>
      <trkpt lat="45.6607" lon="5.29021">
        <ele>220</ele>
        <time>2021-02-28T11:24:13.164Z</time>
      </trkpt>
      <trkpt lat="45.66063" lon="5.29016">
        <ele>220</ele>
        <time>2021-02-28T11:24:14.164Z</time>
      </trkpt>
      <trkpt lat="45.66056" lon="5.29012">
        <ele>220</ele>
        <time>2021-02-28T11:24:15.163Z</time>
      </trkpt>
      <trkpt lat="45.6605" lon="5.29007">
        <ele>220</ele>
        <time>2021-02-28T11:24:16.164Z</time>
      </trkpt>
      <trkpt lat="45.66043" lon="5.29003">
        <ele>220</ele>
        <time>2021-02-28T11:24:17.164Z</time>
      </trkpt>
      <trkpt lat="45.66037" lon="5.28998">
        <ele>220</ele>
        <time>2021-02-28T11:24:18.163Z</time>
      </trkpt>
      <trkpt lat="45.6603" lon="5.28994">
        <ele>220</ele>
        <time>2021-02-28T11:24:19.164Z</time>
      </trkpt>
      <trkpt lat="45.66023" lon="5.28989">
        <ele>220</ele>
        <time>2021-02-28T11:24:20.163Z</time>
      </trkpt>
      <trkpt lat="45.66017" lon="5.28985">
        <ele>220</ele>
        <time>2021-02-28T11:24:21.164Z</time>
      </trkpt>
      <trkpt lat="45.66011" lon="5.2898">
        <ele>219</ele>
        <time>2021-02-28T11:24:22.164Z</time>
      </trkpt>
      <trkpt lat="45.66004" lon="5.28976">
        <ele>219</ele>
        <time>2021-02-28T11:24:23.164Z</time>
      </trkpt>
      <trkpt lat="45.65998" lon="5.28972">
        <ele>219</ele>
        <time>2021-02-28T11:24:24.164Z</time>
      </trkpt>
      <trkpt lat="45.65992" lon="5.28968">
        <ele>219</ele>
        <time>2021-02-28T11:24:25.164Z</time>
      </trkpt>
      <trkpt lat="45.65986" lon="5.28964">
        <ele>219</ele>
        <time>2021-02-28T11:24:26.164Z</time>
      </trkpt>
      <trkpt lat="45.65979" lon="5.28959">
        <ele>219</ele>
        <time>2021-02-28T11:24:27.164Z</time>
      </trkpt>
      <trkpt lat="45.65973" lon="5.28955">
        <ele>219</ele>
        <time>2021-02-28T11:24:28.164Z</time>
      </trkpt>
      <trkpt lat="45.65969" lon="5.28951">
        <ele>218</ele>
        <time>2021-02-28T11:24:29.163Z</time>
      </trkpt>
      <trkpt lat="45.65963" lon="5.28948">
        <ele>219</ele>
        <time>2021-02-28T11:24:30.164Z</time>
      </trkpt>
      <trkpt lat="45.65958" lon="5.28944">
        <ele>218</ele>
        <time>2021-02-28T11:24:31.164Z</time>
      </trkpt>
      <trkpt lat="45.65952" lon="5.2894">
        <ele>218</ele>
        <time>2021-02-28T11:24:32.164Z</time>
      </trkpt>
      <trkpt lat="45.65947" lon="5.28937">
        <ele>218</ele>
        <time>2021-02-28T11:24:33.163Z</time>
      </trkpt>
      <trkpt lat="45.65941" lon="5.28933">
        <ele>218</ele>
        <time>2021-02-28T11:24:34.164Z</time>
      </trkpt>
      <trkpt lat="45.65935" lon="5.28929">
        <ele>217</ele>
        <time>2021-02-28T11:24:35.164Z</time>
      </trkpt>
      <trkpt lat="45.6593" lon="5.28925">
        <ele>217</ele>
        <time>2021-02-28T11:24:36.163Z</time>
      </trkpt>
      <trkpt lat="45.65924" lon="5.28921">
        <ele>216</ele>
        <time>2021-02-28T11:24:37.164Z</time>
      </trkpt>
      <trkpt lat="45.65919" lon="5.28917">
        <ele>216</ele>
        <time>2021-02-28T11:24:38.164Z</time>
      </trkpt>
      <trkpt lat="45.65913" lon="5.28913">
        <ele>215</ele>
        <time>2021-02-28T11:24:39.163Z</time>
      </trkpt>
      <trkpt lat="45.65906" lon="5.28909">
        <ele>215</ele>
        <time>2021-02-28T11:24:40.164Z</time>
      </trkpt>
      <trkpt lat="45.659" lon="5.28905">
        <ele>215</ele>
        <time>2021-02-28T11:24:41.164Z</time>
      </trkpt>
      <trkpt lat="45.65894" lon="5.28902">
        <ele>215</ele>
        <time>2021-02-28T11:24:42.163Z</time>
      </trkpt>
      <trkpt lat="45.65888" lon="5.28899">
        <ele>215</ele>
        <time>2021-02-28T11:24:43.164Z</time>
      </trkpt>
      <trkpt lat="45.65881" lon="5.28896">
        <ele>216</ele>
        <time>2021-02-28T11:24:44.164Z</time>
      </trkpt>
      <trkpt lat="45.65875" lon="5.28895">
        <ele>216</ele>
        <time>2021-02-28T11:24:45.163Z</time>
      </trkpt>
      <trkpt lat="45.65868" lon="5.28893">
        <ele>217</ele>
        <time>2021-02-28T11:24:46.164Z</time>
      </trkpt>
      <trkpt lat="45.65862" lon="5.28892">
        <ele>217</ele>
        <time>2021-02-28T11:24:47.163Z</time>
      </trkpt>
      <trkpt lat="45.65855" lon="5.28891">
        <ele>218</ele>
        <time>2021-02-28T11:24:48.164Z</time>
      </trkpt>
      <trkpt lat="45.65848" lon="5.2889">
        <ele>218</ele>
        <time>2021-02-28T11:24:49.163Z</time>
      </trkpt>
      <trkpt lat="45.65841" lon="5.28889">
        <ele>218</ele>
        <time>2021-02-28T11:24:50.164Z</time>
      </trkpt>
      <trkpt lat="45.65834" lon="5.28889">
        <ele>218</ele>
        <time>2021-02-28T11:24:51.164Z</time>
      </trkpt>
      <trkpt lat="45.65827" lon="5.28889">
        <ele>219</ele>
        <time>2021-02-28T11:24:52.164Z</time>
      </trkpt>
      <trkpt lat="45.65821" lon="5.28889">
        <ele>219</ele>
        <time>2021-02-28T11:24:53.164Z</time>
      </trkpt>
      <trkpt lat="45.65814" lon="5.2889">
        <ele>219</ele>
        <time>2021-02-28T11:24:54.164Z</time>
      </trkpt>
      <trkpt lat="45.65807" lon="5.28891">
        <ele>219</ele>
        <time>2021-02-28T11:24:55.164Z</time>
      </trkpt>
      <trkpt lat="45.658" lon="5.28892">
        <ele>219</ele>
        <time>2021-02-28T11:24:56.163Z</time>
      </trkpt>
      <trkpt lat="45.65794" lon="5.28893">
        <ele>219</ele>
        <time>2021-02-28T11:24:57.164Z</time>
      </trkpt>
      <trkpt lat="45.65787" lon="5.28894">
        <ele>219</ele>
        <time>2021-02-28T11:24:58.164Z</time>
      </trkpt>
      <trkpt lat="45.65781" lon="5.28896">
        <ele>219</ele>
        <time>2021-02-28T11:24:59.163Z</time>
      </trkpt>
      <trkpt lat="45.65774" lon="5.28898">
        <ele>219</ele>
        <time>2021-02-28T11:25:00.163Z</time>
      </trkpt>
      <trkpt lat="45.65767" lon="5.28901">
        <ele>219</ele>
        <time>2021-02-28T11:25:01.163Z</time>
      </trkpt>
      <trkpt lat="45.65761" lon="5.28904">
        <ele>220</ele>
        <time>2021-02-28T11:25:02.164Z</time>
      </trkpt>
      <trkpt lat="45.65754" lon="5.28907">
        <ele>220</ele>
        <time>2021-02-28T11:25:03.164Z</time>
      </trkpt>
      <trkpt lat="45.65747" lon="5.2891">
        <ele>220</ele>
        <time>2021-02-28T11:25:04.164Z</time>
      </trkpt>
      <trkpt lat="45.65741" lon="5.28913">
        <ele>220</ele>
        <time>2021-02-28T11:25:05.164Z</time>
      </trkpt>
      <trkpt lat="45.65734" lon="5.28917">
        <ele>220</ele>
        <time>2021-02-28T11:25:06.163Z</time>
      </trkpt>
      <trkpt lat="45.65728" lon="5.28921">
        <ele>220</ele>
        <time>2021-02-28T11:25:07.163Z</time>
      </trkpt>
      <trkpt lat="45.65722" lon="5.28926">
        <ele>220</ele>
        <time>2021-02-28T11:25:08.163Z</time>
      </trkpt>
      <trkpt lat="45.65716" lon="5.28932">
        <ele>220</ele>
        <time>2021-02-28T11:25:09.164Z</time>
      </trkpt>
      <trkpt lat="45.6571" lon="5.28938">
        <ele>220</ele>
        <time>2021-02-28T11:25:10.164Z</time>
      </trkpt>
      <trkpt lat="45.65704" lon="5.28943">
        <ele>220</ele>
        <time>2021-02-28T11:25:11.164Z</time>
      </trkpt>
      <trkpt lat="45.65699" lon="5.28949">
        <ele>220</ele>
        <time>2021-02-28T11:25:12.163Z</time>
      </trkpt>
      <trkpt lat="45.65693" lon="5.28955">
        <ele>220</ele>
        <time>2021-02-28T11:25:13.163Z</time>
      </trkpt>
      <trkpt lat="45.65687" lon="5.28961">
        <ele>220</ele>
        <time>2021-02-28T11:25:14.164Z</time>
      </trkpt>
      <trkpt lat="45.65682" lon="5.28968">
        <ele>220</ele>
        <time>2021-02-28T11:25:15.163Z</time>
      </trkpt>
      <trkpt lat="45.65677" lon="5.28974">
        <ele>220</ele>
        <time>2021-02-28T11:25:16.164Z</time>
      </trkpt>
      <trkpt lat="45.65672" lon="5.2898">
        <ele>221</ele>
        <time>2021-02-28T11:25:17.163Z</time>
      </trkpt>
      <trkpt lat="45.65666" lon="5.28987">
        <ele>221</ele>
        <time>2021-02-28T11:25:18.164Z</time>
      </trkpt>
      <trkpt lat="45.65661" lon="5.28993">
        <ele>222</ele>
        <time>2021-02-28T11:25:19.164Z</time>
      </trkpt>
      <trkpt lat="45.65656" lon="5.28999">
        <ele>222</ele>
        <time>2021-02-28T11:25:20.164Z</time>
      </trkpt>
      <trkpt lat="45.6565" lon="5.29006">
        <ele>223</ele>
        <time>2021-02-28T11:25:21.164Z</time>
      </trkpt>
      <trkpt lat="45.65645" lon="5.29012">
        <ele>223</ele>
        <time>2021-02-28T11:25:22.164Z</time>
      </trkpt>
      <trkpt lat="45.6564" lon="5.29017">
        <ele>223</ele>
        <time>2021-02-28T11:25:23.163Z</time>
      </trkpt>
      <trkpt lat="45.65635" lon="5.29024">
        <ele>224</ele>
        <time>2021-02-28T11:25:24.164Z</time>
      </trkpt>
      <trkpt lat="45.6563" lon="5.29029">
        <ele>224</ele>
        <time>2021-02-28T11:25:25.164Z</time>
      </trkpt>
      <trkpt lat="45.65625" lon="5.29035">
        <ele>224</ele>
        <time>2021-02-28T11:25:26.164Z</time>
      </trkpt>
      <trkpt lat="45.6562" lon="5.29041">
        <ele>224</ele>
        <time>2021-02-28T11:25:27.163Z</time>
      </trkpt>
      <trkpt lat="45.65615" lon="5.29047">
        <ele>224</ele>
        <time>2021-02-28T11:25:28.163Z</time>
      </trkpt>
      <trkpt lat="45.6561" lon="5.29052">
        <ele>224</ele>
        <time>2021-02-28T11:25:29.164Z</time>
      </trkpt>
      <trkpt lat="45.65605" lon="5.29058">
        <ele>224</ele>
        <time>2021-02-28T11:25:30.163Z</time>
      </trkpt>
      <trkpt lat="45.656" lon="5.29064">
        <ele>224</ele>
        <time>2021-02-28T11:25:31.164Z</time>
      </trkpt>
      <trkpt lat="45.65595" lon="5.29069">
        <ele>224</ele>
        <time>2021-02-28T11:25:32.164Z</time>
      </trkpt>
      <trkpt lat="45.6559" lon="5.29075">
        <ele>224</ele>
        <time>2021-02-28T11:25:33.164Z</time>
      </trkpt>
      <trkpt lat="45.65585" lon="5.2908">
        <ele>224</ele>
        <time>2021-02-28T11:25:34.164Z</time>
      </trkpt>
      <trkpt lat="45.6558" lon="5.29086">
        <ele>224</ele>
        <time>2021-02-28T11:25:35.163Z</time>
      </trkpt>
      <trkpt lat="45.65575" lon="5.29092">
        <ele>224</ele>
        <time>2021-02-28T11:25:36.163Z</time>
      </trkpt>
      <trkpt lat="45.6557" lon="5.29098">
        <ele>224</ele>
        <time>2021-02-28T11:25:37.164Z</time>
      </trkpt>
      <trkpt lat="45.65565" lon="5.29104">
        <ele>224</ele>
        <time>2021-02-28T11:25:38.163Z</time>
      </trkpt>
      <trkpt lat="45.6556" lon="5.2911">
        <ele>224</ele>
        <time>2021-02-28T11:25:39.164Z</time>
      </trkpt>
      <trkpt lat="45.65555" lon="5.29116">
        <ele>224</ele>
        <time>2021-02-28T11:25:40.164Z</time>
      </trkpt>
      <trkpt lat="45.6555" lon="5.29122">
        <ele>223</ele>
        <time>2021-02-28T11:25:41.163Z</time>
      </trkpt>
      <trkpt lat="45.65545" lon="5.29127">
        <ele>223</ele>
        <time>2021-02-28T11:25:42.164Z</time>
      </trkpt>
      <trkpt lat="45.6554" lon="5.29133">
        <ele>223</ele>
        <time>2021-02-28T11:25:43.164Z</time>
      </trkpt>
      <trkpt lat="45.65535" lon="5.29139">
        <ele>223</ele>
        <time>2021-02-28T11:25:44.163Z</time>
      </trkpt>
      <trkpt lat="45.6553" lon="5.29145">
        <ele>223</ele>
        <time>2021-02-28T11:25:45.163Z</time>
      </trkpt>
      <trkpt lat="45.65525" lon="5.2915">
        <ele>222</ele>
        <time>2021-02-28T11:25:46.163Z</time>
      </trkpt>
      <trkpt lat="45.65521" lon="5.29156">
        <ele>222</ele>
        <time>2021-02-28T11:25:47.164Z</time>
      </trkpt>
      <trkpt lat="45.65516" lon="5.29161">
        <ele>222</ele>
        <time>2021-02-28T11:25:48.164Z</time>
      </trkpt>
      <trkpt lat="45.65512" lon="5.29167">
        <ele>221</ele>
        <time>2021-02-28T11:25:49.164Z</time>
      </trkpt>
      <trkpt lat="45.65507" lon="5.29172">
        <ele>221</ele>
        <time>2021-02-28T11:25:50.163Z</time>
      </trkpt>
      <trkpt lat="45.65503" lon="5.29177">
        <ele>221</ele>
        <time>2021-02-28T11:25:51.164Z</time>
      </trkpt>
      <trkpt lat="45.65498" lon="5.29182">
        <ele>220</ele>
        <time>2021-02-28T11:25:52.164Z</time>
      </trkpt>
      <trkpt lat="45.65493" lon="5.29188">
        <ele>220</ele>
        <time>2021-02-28T11:25:53.163Z</time>
      </trkpt>
      <trkpt lat="45.65488" lon="5.29193">
        <ele>220</ele>
        <time>2021-02-28T11:25:54.164Z</time>
      </trkpt>
      <trkpt lat="45.65484" lon="5.29198">
        <ele>220</ele>
        <time>2021-02-28T11:25:55.163Z</time>
      </trkpt>
      <trkpt lat="45.65479" lon="5.29203">
        <ele>220</ele>
        <time>2021-02-28T11:25:56.164Z</time>
      </trkpt>
      <trkpt lat="45.65474" lon="5.29209">
        <ele>220</ele>
        <time>2021-02-28T11:25:57.163Z</time>
      </trkpt>
      <trkpt lat="45.65469" lon="5.29214">
        <ele>220</ele>
        <time>2021-02-28T11:25:58.164Z</time>
      </trkpt>
      <trkpt lat="45.65465" lon="5.29219">
        <ele>220</ele>
        <time>2021-02-28T11:25:59.164Z</time>
      </trkpt>
      <trkpt lat="45.6546" lon="5.29224">
        <ele>220</ele>
        <time>2021-02-28T11:26:00.164Z</time>
      </trkpt>
      <trkpt lat="45.65455" lon="5.2923">
        <ele>219</ele>
        <time>2021-02-28T11:26:01.164Z</time>
      </trkpt>
      <trkpt lat="45.65451" lon="5.29235">
        <ele>219</ele>
        <time>2021-02-28T11:26:02.164Z</time>
      </trkpt>
      <trkpt lat="45.65446" lon="5.2924">
        <ele>219</ele>
        <time>2021-02-28T11:26:03.164Z</time>
      </trkpt>
      <trkpt lat="45.65442" lon="5.29246">
        <ele>219</ele>
        <time>2021-02-28T11:26:04.164Z</time>
      </trkpt>
      <trkpt lat="45.65437" lon="5.29251">
        <ele>219</ele>
        <time>2021-02-28T11:26:05.164Z</time>
      </trkpt>
      <trkpt lat="45.65432" lon="5.29257">
        <ele>218</ele>
        <time>2021-02-28T11:26:06.163Z</time>
      </trkpt>
      <trkpt lat="45.65427" lon="5.29262">
        <ele>218</ele>
        <time>2021-02-28T11:26:07.163Z</time>
      </trkpt>
      <trkpt lat="45.65423" lon="5.29267">
        <ele>218</ele>
        <time>2021-02-28T11:26:08.164Z</time>
      </trkpt>
      <trkpt lat="45.65418" lon="5.29273">
        <ele>218</ele>
        <time>2021-02-28T11:26:09.164Z</time>
      </trkpt>
      <trkpt lat="45.65413" lon="5.29278">
        <ele>218</ele>
        <time>2021-02-28T11:26:10.163Z</time>
      </trkpt>
      <trkpt lat="45.65409" lon="5.29284">
        <ele>218</ele>
        <time>2021-02-28T11:26:11.164Z</time>
      </trkpt>
      <trkpt lat="45.65404" lon="5.29289">
        <ele>218</ele>
        <time>2021-02-28T11:26:12.164Z</time>
      </trkpt>
      <trkpt lat="45.65399" lon="5.29295">
        <ele>218</ele>
        <time>2021-02-28T11:26:13.164Z</time>
      </trkpt>
      <trkpt lat="45.65394" lon="5.29301">
        <ele>219</ele>
        <time>2021-02-28T11:26:14.163Z</time>
      </trkpt>
      <trkpt lat="45.65389" lon="5.29306">
        <ele>219</ele>
        <time>2021-02-28T11:26:15.164Z</time>
      </trkpt>
      <trkpt lat="45.65384" lon="5.29312">
        <ele>219</ele>
        <time>2021-02-28T11:26:16.163Z</time>
      </trkpt>
      <trkpt lat="45.65379" lon="5.29317">
        <ele>218</ele>
        <time>2021-02-28T11:26:17.164Z</time>
      </trkpt>
      <trkpt lat="45.65374" lon="5.29323">
        <ele>218</ele>
        <time>2021-02-28T11:26:18.163Z</time>
      </trkpt>
      <trkpt lat="45.65369" lon="5.29328">
        <ele>218</ele>
        <time>2021-02-28T11:26:19.164Z</time>
      </trkpt>
      <trkpt lat="45.65364" lon="5.29334">
        <ele>218</ele>
        <time>2021-02-28T11:26:20.164Z</time>
      </trkpt>
      <trkpt lat="45.65359" lon="5.2934">
        <ele>218</ele>
        <time>2021-02-28T11:26:21.164Z</time>
      </trkpt>
      <trkpt lat="45.65354" lon="5.29346">
        <ele>218</ele>
        <time>2021-02-28T11:26:22.163Z</time>
      </trkpt>
      <trkpt lat="45.65349" lon="5.29351">
        <ele>219</ele>
        <time>2021-02-28T11:26:23.164Z</time>
      </trkpt>
      <trkpt lat="45.65344" lon="5.29357">
        <ele>219</ele>
        <time>2021-02-28T11:26:24.164Z</time>
      </trkpt>
      <trkpt lat="45.65339" lon="5.29363">
        <ele>219</ele>
        <time>2021-02-28T11:26:25.164Z</time>
      </trkpt>
      <trkpt lat="45.65334" lon="5.29369">
        <ele>220</ele>
        <time>2021-02-28T11:26:26.164Z</time>
      </trkpt>
      <trkpt lat="45.65329" lon="5.29374">
        <ele>220</ele>
        <time>2021-02-28T11:26:27.164Z</time>
      </trkpt>
      <trkpt lat="45.65324" lon="5.2938">
        <ele>220</ele>
        <time>2021-02-28T11:26:28.164Z</time>
      </trkpt>
      <trkpt lat="45.65319" lon="5.29386">
        <ele>221</ele>
        <time>2021-02-28T11:26:29.164Z</time>
      </trkpt>
      <trkpt lat="45.65314" lon="5.29392">
        <ele>221</ele>
        <time>2021-02-28T11:26:30.163Z</time>
      </trkpt>
      <trkpt lat="45.65309" lon="5.29397">
        <ele>221</ele>
        <time>2021-02-28T11:26:31.163Z</time>
      </trkpt>
      <trkpt lat="45.65304" lon="5.29403">
        <ele>221</ele>
        <time>2021-02-28T11:26:32.164Z</time>
      </trkpt>
      <trkpt lat="45.653" lon="5.29409">
        <ele>221</ele>
        <time>2021-02-28T11:26:33.163Z</time>
      </trkpt>
      <trkpt lat="45.65295" lon="5.29415">
        <ele>221</ele>
        <time>2021-02-28T11:26:34.163Z</time>
      </trkpt>
      <trkpt lat="45.6529" lon="5.29421">
        <ele>221</ele>
        <time>2021-02-28T11:26:35.163Z</time>
      </trkpt>
      <trkpt lat="45.65285" lon="5.29427">
        <ele>220</ele>
        <time>2021-02-28T11:26:36.164Z</time>
      </trkpt>
      <trkpt lat="45.6528" lon="5.29433">
        <ele>220</ele>
        <time>2021-02-28T11:26:37.164Z</time>
      </trkpt>
      <trkpt lat="45.65275" lon="5.29439">
        <ele>220</ele>
        <time>2021-02-28T11:26:38.164Z</time>
      </trkpt>
      <trkpt lat="45.65271" lon="5.29445">
        <ele>220</ele>
        <time>2021-02-28T11:26:39.164Z</time>
      </trkpt>
      <trkpt lat="45.65266" lon="5.29451">
        <ele>220</ele>
        <time>2021-02-28T11:26:40.164Z</time>
      </trkpt>
      <trkpt lat="45.65262" lon="5.29457">
        <ele>221</ele>
        <time>2021-02-28T11:26:41.163Z</time>
      </trkpt>
      <trkpt lat="45.65258" lon="5.29463">
        <ele>221</ele>
        <time>2021-02-28T11:26:42.163Z</time>
      </trkpt>
      <trkpt lat="45.65253" lon="5.29469">
        <ele>221</ele>
        <time>2021-02-28T11:26:43.164Z</time>
      </trkpt>
      <trkpt lat="45.65249" lon="5.29475">
        <ele>222</ele>
        <time>2021-02-28T11:26:44.164Z</time>
      </trkpt>
      <trkpt lat="45.65244" lon="5.29481">
        <ele>222</ele>
        <time>2021-02-28T11:26:45.163Z</time>
      </trkpt>
      <trkpt lat="45.6524" lon="5.29486">
        <ele>222</ele>
        <time>2021-02-28T11:26:46.164Z</time>
      </trkpt>
      <trkpt lat="45.65235" lon="5.29492">
        <ele>223</ele>
        <time>2021-02-28T11:26:47.163Z</time>
      </trkpt>
      <trkpt lat="45.65231" lon="5.29498">
        <ele>223</ele>
        <time>2021-02-28T11:26:48.163Z</time>
      </trkpt>
      <trkpt lat="45.65226" lon="5.29503">
        <ele>224</ele>
        <time>2021-02-28T11:26:49.163Z</time>
      </trkpt>
      <trkpt lat="45.65222" lon="5.29509">
        <ele>224</ele>
        <time>2021-02-28T11:26:50.164Z</time>
      </trkpt>
      <trkpt lat="45.65218" lon="5.29515">
        <ele>224</ele>
        <time>2021-02-28T11:26:51.164Z</time>
      </trkpt>
      <trkpt lat="45.65214" lon="5.2952">
        <ele>224</ele>
        <time>2021-02-28T11:26:52.164Z</time>
      </trkpt>
      <trkpt lat="45.6521" lon="5.29525">
        <ele>225</ele>
        <time>2021-02-28T11:26:53.163Z</time>
      </trkpt>
      <trkpt lat="45.65206" lon="5.2953">
        <ele>225</ele>
        <time>2021-02-28T11:26:54.164Z</time>
      </trkpt>
      <trkpt lat="45.65203" lon="5.29535">
        <ele>225</ele>
        <time>2021-02-28T11:26:55.164Z</time>
      </trkpt>
      <trkpt lat="45.65199" lon="5.2954">
        <ele>225</ele>
        <time>2021-02-28T11:26:56.164Z</time>
      </trkpt>
      <trkpt lat="45.65196" lon="5.29545">
        <ele>225</ele>
        <time>2021-02-28T11:26:57.163Z</time>
      </trkpt>
      <trkpt lat="45.65192" lon="5.2955">
        <ele>225</ele>
        <time>2021-02-28T11:26:58.163Z</time>
      </trkpt>
      <trkpt lat="45.65189" lon="5.29554">
        <ele>225</ele>
        <time>2021-02-28T11:26:59.164Z</time>
      </trkpt>
      <trkpt lat="45.65186" lon="5.29559">
        <ele>225</ele>
        <time>2021-02-28T11:27:00.164Z</time>
      </trkpt>
      <trkpt lat="45.65183" lon="5.29563">
        <ele>224</ele>
        <time>2021-02-28T11:27:01.163Z</time>
      </trkpt>
      <trkpt lat="45.6518" lon="5.29567">
        <ele>224</ele>
        <time>2021-02-28T11:27:02.163Z</time>
      </trkpt>
      <trkpt lat="45.65177" lon="5.2957">
        <ele>224</ele>
        <time>2021-02-28T11:27:03.163Z</time>
      </trkpt>
      <trkpt lat="45.65174" lon="5.29574">
        <ele>224</ele>
        <time>2021-02-28T11:27:04.163Z</time>
      </trkpt>
      <trkpt lat="45.65171" lon="5.29578">
        <ele>224</ele>
        <time>2021-02-28T11:27:05.164Z</time>
      </trkpt>
      <trkpt lat="45.65168" lon="5.29582">
        <ele>224</ele>
        <time>2021-02-28T11:27:06.164Z</time>
      </trkpt>
      <trkpt lat="45.65165" lon="5.29587">
        <ele>224</ele>
        <time>2021-02-28T11:27:07.164Z</time>
      </trkpt>
      <trkpt lat="45.65161" lon="5.29591">
        <ele>225</ele>
        <time>2021-02-28T11:27:08.163Z</time>
      </trkpt>
      <trkpt lat="45.65158" lon="5.29596">
        <ele>225</ele>
        <time>2021-02-28T11:27:09.164Z</time>
      </trkpt>
      <trkpt lat="45.65155" lon="5.29601">
        <ele>226</ele>
        <time>2021-02-28T11:27:10.164Z</time>
      </trkpt>
      <trkpt lat="45.65152" lon="5.29605">
        <ele>226</ele>
        <time>2021-02-28T11:27:11.164Z</time>
      </trkpt>
      <trkpt lat="45.6515" lon="5.29609">
        <ele>226</ele>
        <time>2021-02-28T11:27:12.164Z</time>
      </trkpt>
      <trkpt lat="45.65147" lon="5.29615">
        <ele>227</ele>
        <time>2021-02-28T11:27:13.163Z</time>
      </trkpt>
      <trkpt lat="45.65143" lon="5.29622">
        <ele>227</ele>
        <time>2021-02-28T11:27:14.164Z</time>
      </trkpt>
      <trkpt lat="45.65138" lon="5.29628">
        <ele>228</ele>
        <time>2021-02-28T11:27:15.163Z</time>
      </trkpt>
      <trkpt lat="45.65134" lon="5.29633">
        <ele>228</ele>
        <time>2021-02-28T11:27:16.164Z</time>
      </trkpt>
      <trkpt lat="45.6513" lon="5.29639">
        <ele>228</ele>
        <time>2021-02-28T11:27:17.164Z</time>
      </trkpt>
      <trkpt lat="45.65126" lon="5.29645">
        <ele>228</ele>
        <time>2021-02-28T11:27:18.163Z</time>
      </trkpt>
      <trkpt lat="45.65122" lon="5.29651">
        <ele>228</ele>
        <time>2021-02-28T11:27:19.163Z</time>
      </trkpt>
      <trkpt lat="45.65117" lon="5.29657">
        <ele>228</ele>
        <time>2021-02-28T11:27:20.163Z</time>
      </trkpt>
      <trkpt lat="45.65112" lon="5.29664">
        <ele>228</ele>
        <time>2021-02-28T11:27:21.164Z</time>
      </trkpt>
      <trkpt lat="45.65108" lon="5.2967">
        <ele>228</ele>
        <time>2021-02-28T11:27:22.163Z</time>
      </trkpt>
      <trkpt lat="45.65103" lon="5.29676">
        <ele>228</ele>
        <time>2021-02-28T11:27:23.164Z</time>
      </trkpt>
      <trkpt lat="45.65098" lon="5.29683">
        <ele>228</ele>
        <time>2021-02-28T11:27:24.164Z</time>
      </trkpt>
      <trkpt lat="45.65094" lon="5.29689">
        <ele>228</ele>
        <time>2021-02-28T11:27:25.163Z</time>
      </trkpt>
      <trkpt lat="45.6509" lon="5.29694">
        <ele>228</ele>
        <time>2021-02-28T11:27:26.164Z</time>
      </trkpt>
      <trkpt lat="45.65085" lon="5.29699">
        <ele>228</ele>
        <time>2021-02-28T11:27:27.163Z</time>
      </trkpt>
      <trkpt lat="45.65081" lon="5.29704">
        <ele>228</ele>
        <time>2021-02-28T11:27:28.164Z</time>
      </trkpt>
      <trkpt lat="45.65077" lon="5.2971">
        <ele>227</ele>
        <time>2021-02-28T11:27:29.164Z</time>
      </trkpt>
      <trkpt lat="45.65072" lon="5.29716">
        <ele>227</ele>
        <time>2021-02-28T11:27:30.164Z</time>
      </trkpt>
      <trkpt lat="45.65068" lon="5.29722">
        <ele>227</ele>
        <time>2021-02-28T11:27:31.164Z</time>
      </trkpt>
      <trkpt lat="45.65064" lon="5.29728">
        <ele>227</ele>
        <time>2021-02-28T11:27:32.163Z</time>
      </trkpt>
      <trkpt lat="45.65059" lon="5.29734">
        <ele>226</ele>
        <time>2021-02-28T11:27:33.164Z</time>
      </trkpt>
      <trkpt lat="45.65055" lon="5.2974">
        <ele>226</ele>
        <time>2021-02-28T11:27:34.164Z</time>
      </trkpt>
      <trkpt lat="45.6505" lon="5.29746">
        <ele>226</ele>
        <time>2021-02-28T11:27:35.164Z</time>
      </trkpt>
      <trkpt lat="45.65045" lon="5.29754">
        <ele>226</ele>
        <time>2021-02-28T11:27:36.164Z</time>
      </trkpt>
      <trkpt lat="45.65041" lon="5.29758">
        <ele>225</ele>
        <time>2021-02-28T11:27:37.164Z</time>
      </trkpt>
      <trkpt lat="45.65037" lon="5.29765">
        <ele>225</ele>
        <time>2021-02-28T11:27:38.164Z</time>
      </trkpt>
      <trkpt lat="45.65031" lon="5.29772">
        <ele>225</ele>
        <time>2021-02-28T11:27:39.164Z</time>
      </trkpt>
      <trkpt lat="45.65027" lon="5.29778">
        <ele>225</ele>
        <time>2021-02-28T11:27:40.163Z</time>
      </trkpt>
      <trkpt lat="45.65022" lon="5.29785">
        <ele>225</ele>
        <time>2021-02-28T11:27:41.163Z</time>
      </trkpt>
      <trkpt lat="45.65018" lon="5.2979">
        <ele>225</ele>
        <time>2021-02-28T11:27:42.164Z</time>
      </trkpt>
      <trkpt lat="45.65013" lon="5.29798">
        <ele>225</ele>
        <time>2021-02-28T11:27:43.164Z</time>
      </trkpt>
      <trkpt lat="45.65008" lon="5.29804">
        <ele>225</ele>
        <time>2021-02-28T11:27:44.164Z</time>
      </trkpt>
      <trkpt lat="45.65003" lon="5.2981">
        <ele>225</ele>
        <time>2021-02-28T11:27:45.163Z</time>
      </trkpt>
      <trkpt lat="45.64998" lon="5.29816">
        <ele>225</ele>
        <time>2021-02-28T11:27:46.163Z</time>
      </trkpt>
      <trkpt lat="45.64994" lon="5.29823">
        <ele>225</ele>
        <time>2021-02-28T11:27:47.164Z</time>
      </trkpt>
      <trkpt lat="45.64989" lon="5.29829">
        <ele>225</ele>
        <time>2021-02-28T11:27:48.164Z</time>
      </trkpt>
      <trkpt lat="45.64984" lon="5.29836">
        <ele>225</ele>
        <time>2021-02-28T11:27:49.164Z</time>
      </trkpt>
      <trkpt lat="45.6498" lon="5.29842">
        <ele>224</ele>
        <time>2021-02-28T11:27:50.163Z</time>
      </trkpt>
      <trkpt lat="45.64976" lon="5.29847">
        <ele>224</ele>
        <time>2021-02-28T11:27:51.164Z</time>
      </trkpt>
      <trkpt lat="45.64971" lon="5.29853">
        <ele>224</ele>
        <time>2021-02-28T11:27:52.164Z</time>
      </trkpt>
      <trkpt lat="45.64965" lon="5.29861">
        <ele>224</ele>
        <time>2021-02-28T11:27:53.164Z</time>
      </trkpt>
      <trkpt lat="45.64961" lon="5.29867">
        <ele>225</ele>
        <time>2021-02-28T11:27:54.164Z</time>
      </trkpt>
      <trkpt lat="45.64957" lon="5.29873">
        <ele>225</ele>
        <time>2021-02-28T11:27:55.164Z</time>
      </trkpt>
      <trkpt lat="45.64952" lon="5.29879">
        <ele>225</ele>
        <time>2021-02-28T11:27:56.164Z</time>
      </trkpt>
      <trkpt lat="45.64946" lon="5.29887">
        <ele>225</ele>
        <time>2021-02-28T11:27:57.163Z</time>
      </trkpt>
      <trkpt lat="45.64942" lon="5.29893">
        <ele>225</ele>
        <time>2021-02-28T11:27:58.164Z</time>
      </trkpt>
      <trkpt lat="45.64937" lon="5.299">
        <ele>225</ele>
        <time>2021-02-28T11:27:59.163Z</time>
      </trkpt>
      <trkpt lat="45.64932" lon="5.29906">
        <ele>226</ele>
        <time>2021-02-28T11:28:00.163Z</time>
      </trkpt>
      <trkpt lat="45.64928" lon="5.29912">
        <ele>226</ele>
        <time>2021-02-28T11:28:01.164Z</time>
      </trkpt>
      <trkpt lat="45.64922" lon="5.29919">
        <ele>226</ele>
        <time>2021-02-28T11:28:02.163Z</time>
      </trkpt>
      <trkpt lat="45.64918" lon="5.29926">
        <ele>226</ele>
        <time>2021-02-28T11:28:03.163Z</time>
      </trkpt>
      <trkpt lat="45.64914" lon="5.29931">
        <ele>226</ele>
        <time>2021-02-28T11:28:04.164Z</time>
      </trkpt>
      <trkpt lat="45.64909" lon="5.29937">
        <ele>226</ele>
        <time>2021-02-28T11:28:05.164Z</time>
      </trkpt>
      <trkpt lat="45.64903" lon="5.29945">
        <ele>226</ele>
        <time>2021-02-28T11:28:06.164Z</time>
      </trkpt>
      <trkpt lat="45.64898" lon="5.29951">
        <ele>226</ele>
        <time>2021-02-28T11:28:07.163Z</time>
      </trkpt>
      <trkpt lat="45.64894" lon="5.29957">
        <ele>225</ele>
        <time>2021-02-28T11:28:08.164Z</time>
      </trkpt>
      <trkpt lat="45.64889" lon="5.29964">
        <ele>225</ele>
        <time>2021-02-28T11:28:09.164Z</time>
      </trkpt>
      <trkpt lat="45.64885" lon="5.29969">
        <ele>225</ele>
        <time>2021-02-28T11:28:10.164Z</time>
      </trkpt>
      <trkpt lat="45.64879" lon="5.29976">
        <ele>225</ele>
        <time>2021-02-28T11:28:11.164Z</time>
      </trkpt>
      <trkpt lat="45.64874" lon="5.29983">
        <ele>225</ele>
        <time>2021-02-28T11:28:12.164Z</time>
      </trkpt>
      <trkpt lat="45.6487" lon="5.29989">
        <ele>224</ele>
        <time>2021-02-28T11:28:13.163Z</time>
      </trkpt>
      <trkpt lat="45.64866" lon="5.29995">
        <ele>224</ele>
        <time>2021-02-28T11:28:14.164Z</time>
      </trkpt>
      <trkpt lat="45.64861" lon="5.30001">
        <ele>224</ele>
        <time>2021-02-28T11:28:15.164Z</time>
      </trkpt>
      <trkpt lat="45.64855" lon="5.30008">
        <ele>224</ele>
        <time>2021-02-28T11:28:16.164Z</time>
      </trkpt>
      <trkpt lat="45.6485" lon="5.30014">
        <ele>224</ele>
        <time>2021-02-28T11:28:17.164Z</time>
      </trkpt>
      <trkpt lat="45.64845" lon="5.3002">
        <ele>224</ele>
        <time>2021-02-28T11:28:18.164Z</time>
      </trkpt>
      <trkpt lat="45.64839" lon="5.30027">
        <ele>224</ele>
        <time>2021-02-28T11:28:19.163Z</time>
      </trkpt>
      <trkpt lat="45.64834" lon="5.30033">
        <ele>224</ele>
        <time>2021-02-28T11:28:20.164Z</time>
      </trkpt>
      <trkpt lat="45.64828" lon="5.30038">
        <ele>225</ele>
        <time>2021-02-28T11:28:21.164Z</time>
      </trkpt>
      <trkpt lat="45.64822" lon="5.30044">
        <ele>225</ele>
        <time>2021-02-28T11:28:22.163Z</time>
      </trkpt>
      <trkpt lat="45.64817" lon="5.30048">
        <ele>225</ele>
        <time>2021-02-28T11:28:23.164Z</time>
      </trkpt>
      <trkpt lat="45.6481" lon="5.30053">
        <ele>225</ele>
        <time>2021-02-28T11:28:24.164Z</time>
      </trkpt>
      <trkpt lat="45.64803" lon="5.30058">
        <ele>225</ele>
        <time>2021-02-28T11:28:25.164Z</time>
      </trkpt>
      <trkpt lat="45.64796" lon="5.30063">
        <ele>225</ele>
        <time>2021-02-28T11:28:26.163Z</time>
      </trkpt>
      <trkpt lat="45.64789" lon="5.30067">
        <ele>224</ele>
        <time>2021-02-28T11:28:27.163Z</time>
      </trkpt>
      <trkpt lat="45.64784" lon="5.30071">
        <ele>224</ele>
        <time>2021-02-28T11:28:28.164Z</time>
      </trkpt>
      <trkpt lat="45.64778" lon="5.30075">
        <ele>223</ele>
        <time>2021-02-28T11:28:29.163Z</time>
      </trkpt>
      <trkpt lat="45.6477" lon="5.30079">
        <ele>223</ele>
        <time>2021-02-28T11:28:30.164Z</time>
      </trkpt>
      <trkpt lat="45.64764" lon="5.30083">
        <ele>223</ele>
        <time>2021-02-28T11:28:31.164Z</time>
      </trkpt>
      <trkpt lat="45.64759" lon="5.30087">
        <ele>222</ele>
        <time>2021-02-28T11:28:32.164Z</time>
      </trkpt>
      <trkpt lat="45.64753" lon="5.30091">
        <ele>222</ele>
        <time>2021-02-28T11:28:33.163Z</time>
      </trkpt>
      <trkpt lat="45.64747" lon="5.30095">
        <ele>222</ele>
        <time>2021-02-28T11:28:34.164Z</time>
      </trkpt>
      <trkpt lat="45.6474" lon="5.30099">
        <ele>222</ele>
        <time>2021-02-28T11:28:35.163Z</time>
      </trkpt>
      <trkpt lat="45.64734" lon="5.30103">
        <ele>222</ele>
        <time>2021-02-28T11:28:36.164Z</time>
      </trkpt>
      <trkpt lat="45.64728" lon="5.30107">
        <ele>222</ele>
        <time>2021-02-28T11:28:37.164Z</time>
      </trkpt>
      <trkpt lat="45.64722" lon="5.30112">
        <ele>222</ele>
        <time>2021-02-28T11:28:38.163Z</time>
      </trkpt>
      <trkpt lat="45.64716" lon="5.30116">
        <ele>221</ele>
        <time>2021-02-28T11:28:39.164Z</time>
      </trkpt>
      <trkpt lat="45.6471" lon="5.3012">
        <ele>221</ele>
        <time>2021-02-28T11:28:40.163Z</time>
      </trkpt>
      <trkpt lat="45.64704" lon="5.30124">
        <ele>221</ele>
        <time>2021-02-28T11:28:41.164Z</time>
      </trkpt>
      <trkpt lat="45.64698" lon="5.30128">
        <ele>220</ele>
        <time>2021-02-28T11:28:42.163Z</time>
      </trkpt>
      <trkpt lat="45.64691" lon="5.30132">
        <ele>220</ele>
        <time>2021-02-28T11:28:43.164Z</time>
      </trkpt>
      <trkpt lat="45.64685" lon="5.30136">
        <ele>220</ele>
        <time>2021-02-28T11:28:44.163Z</time>
      </trkpt>
      <trkpt lat="45.64679" lon="5.3014">
        <ele>221</ele>
        <time>2021-02-28T11:28:45.164Z</time>
      </trkpt>
      <trkpt lat="45.64672" lon="5.30144">
        <ele>221</ele>
        <time>2021-02-28T11:28:46.164Z</time>
      </trkpt>
      <trkpt lat="45.64666" lon="5.30148">
        <ele>221</ele>
        <time>2021-02-28T11:28:47.163Z</time>
      </trkpt>
      <trkpt lat="45.6466" lon="5.30152">
        <ele>221</ele>
        <time>2021-02-28T11:28:48.164Z</time>
      </trkpt>
      <trkpt lat="45.64654" lon="5.30155">
        <ele>220</ele>
        <time>2021-02-28T11:28:49.163Z</time>
      </trkpt>
      <trkpt lat="45.64647" lon="5.30158">
        <ele>220</ele>
        <time>2021-02-28T11:28:50.163Z</time>
      </trkpt>
      <trkpt lat="45.64641" lon="5.30161">
        <ele>220</ele>
        <time>2021-02-28T11:28:51.164Z</time>
      </trkpt>
      <trkpt lat="45.64635" lon="5.30164">
        <ele>220</ele>
        <time>2021-02-28T11:28:52.164Z</time>
      </trkpt>
      <trkpt lat="45.64629" lon="5.30168">
        <ele>220</ele>
        <time>2021-02-28T11:28:53.164Z</time>
      </trkpt>
      <trkpt lat="45.64623" lon="5.30172">
        <ele>219</ele>
        <time>2021-02-28T11:28:54.163Z</time>
      </trkpt>
      <trkpt lat="45.64618" lon="5.30176">
        <ele>220</ele>
        <time>2021-02-28T11:28:55.164Z</time>
      </trkpt>
      <trkpt lat="45.64613" lon="5.30178">
        <ele>220</ele>
        <time>2021-02-28T11:28:56.164Z</time>
      </trkpt>
      <trkpt lat="45.64607" lon="5.3018">
        <ele>220</ele>
        <time>2021-02-28T11:28:57.164Z</time>
      </trkpt>
      <trkpt lat="45.64602" lon="5.3018">
        <ele>220</ele>
        <time>2021-02-28T11:28:58.163Z</time>
      </trkpt>
      <trkpt lat="45.64597" lon="5.30179">
        <ele>220</ele>
        <time>2021-02-28T11:28:59.163Z</time>
      </trkpt>
      <trkpt lat="45.64592" lon="5.30178">
        <ele>220</ele>
        <time>2021-02-28T11:29:00.164Z</time>
      </trkpt>
      <trkpt lat="45.64588" lon="5.30175">
        <ele>220</ele>
        <time>2021-02-28T11:29:01.163Z</time>
      </trkpt>
      <trkpt lat="45.64583" lon="5.30173">
        <ele>220</ele>
        <time>2021-02-28T11:29:02.163Z</time>
      </trkpt>
      <trkpt lat="45.64579" lon="5.30171">
        <ele>220</ele>
        <time>2021-02-28T11:29:03.164Z</time>
      </trkpt>
      <trkpt lat="45.64574" lon="5.30168">
        <ele>221</ele>
        <time>2021-02-28T11:29:04.163Z</time>
      </trkpt>
      <trkpt lat="45.6457" lon="5.30164">
        <ele>221</ele>
        <time>2021-02-28T11:29:05.163Z</time>
      </trkpt>
      <trkpt lat="45.64566" lon="5.3016">
        <ele>221</ele>
        <time>2021-02-28T11:29:06.163Z</time>
      </trkpt>
      <trkpt lat="45.64562" lon="5.30156">
        <ele>221</ele>
        <time>2021-02-28T11:29:07.163Z</time>
      </trkpt>
      <trkpt lat="45.64558" lon="5.30151">
        <ele>222</ele>
        <time>2021-02-28T11:29:08.163Z</time>
      </trkpt>
      <trkpt lat="45.64555" lon="5.30146">
        <ele>222</ele>
        <time>2021-02-28T11:29:09.163Z</time>
      </trkpt>
      <trkpt lat="45.64551" lon="5.3014">
        <ele>222</ele>
        <time>2021-02-28T11:29:10.164Z</time>
      </trkpt>
      <trkpt lat="45.64548" lon="5.30135">
        <ele>221</ele>
        <time>2021-02-28T11:29:11.164Z</time>
      </trkpt>
      <trkpt lat="45.64544" lon="5.30129">
        <ele>221</ele>
        <time>2021-02-28T11:29:12.163Z</time>
      </trkpt>
      <trkpt lat="45.64541" lon="5.30124">
        <ele>220</ele>
        <time>2021-02-28T11:29:13.163Z</time>
      </trkpt>
      <trkpt lat="45.64538" lon="5.30118">
        <ele>220</ele>
        <time>2021-02-28T11:29:14.164Z</time>
      </trkpt>
      <trkpt lat="45.64534" lon="5.30112">
        <ele>220</ele>
        <time>2021-02-28T11:29:15.164Z</time>
      </trkpt>
      <trkpt lat="45.6453" lon="5.30106">
        <ele>220</ele>
        <time>2021-02-28T11:29:16.164Z</time>
      </trkpt>
      <trkpt lat="45.64526" lon="5.301">
        <ele>220</ele>
        <time>2021-02-28T11:29:17.163Z</time>
      </trkpt>
      <trkpt lat="45.64522" lon="5.30094">
        <ele>220</ele>
        <time>2021-02-28T11:29:18.164Z</time>
      </trkpt>
      <trkpt lat="45.64518" lon="5.30088">
        <ele>220</ele>
        <time>2021-02-28T11:29:19.164Z</time>
      </trkpt>
      <trkpt lat="45.64515" lon="5.30083">
        <ele>220</ele>
        <time>2021-02-28T11:29:20.164Z</time>
      </trkpt>
      <trkpt lat="45.64511" lon="5.30077">
        <ele>221</ele>
        <time>2021-02-28T11:29:21.164Z</time>
      </trkpt>
      <trkpt lat="45.64507" lon="5.30071">
        <ele>221</ele>
        <time>2021-02-28T11:29:22.163Z</time>
      </trkpt>
      <trkpt lat="45.64503" lon="5.30066">
        <ele>221</ele>
        <time>2021-02-28T11:29:23.164Z</time>
      </trkpt>
      <trkpt lat="45.645" lon="5.3006">
        <ele>222</ele>
        <time>2021-02-28T11:29:24.164Z</time>
      </trkpt>
      <trkpt lat="45.64496" lon="5.30055">
        <ele>222</ele>
        <time>2021-02-28T11:29:25.164Z</time>
      </trkpt>
      <trkpt lat="45.64492" lon="5.30049">
        <ele>222</ele>
        <time>2021-02-28T11:29:26.164Z</time>
      </trkpt>
      <trkpt lat="45.64488" lon="5.30043">
        <ele>223</ele>
        <time>2021-02-28T11:29:27.163Z</time>
      </trkpt>
      <trkpt lat="45.64485" lon="5.30037">
        <ele>223</ele>
        <time>2021-02-28T11:29:28.164Z</time>
      </trkpt>
      <trkpt lat="45.64481" lon="5.30031">
        <ele>223</ele>
        <time>2021-02-28T11:29:29.164Z</time>
      </trkpt>
      <trkpt lat="45.64477" lon="5.30024">
        <ele>223</ele>
        <time>2021-02-28T11:29:30.164Z</time>
      </trkpt>
      <trkpt lat="45.64473" lon="5.30018">
        <ele>224</ele>
        <time>2021-02-28T11:29:31.163Z</time>
      </trkpt>
      <trkpt lat="45.64469" lon="5.30012">
        <ele>224</ele>
        <time>2021-02-28T11:29:32.164Z</time>
      </trkpt>
      <trkpt lat="45.64465" lon="5.30005">
        <ele>224</ele>
        <time>2021-02-28T11:29:33.164Z</time>
      </trkpt>
      <trkpt lat="45.64461" lon="5.3">
        <ele>224</ele>
        <time>2021-02-28T11:29:34.164Z</time>
      </trkpt>
      <trkpt lat="45.64457" lon="5.29994">
        <ele>224</ele>
        <time>2021-02-28T11:29:35.164Z</time>
      </trkpt>
      <trkpt lat="45.64453" lon="5.29988">
        <ele>224</ele>
        <time>2021-02-28T11:29:36.164Z</time>
      </trkpt>
      <trkpt lat="45.64449" lon="5.29982">
        <ele>224</ele>
        <time>2021-02-28T11:29:37.164Z</time>
      </trkpt>
      <trkpt lat="45.64445" lon="5.29976">
        <ele>224</ele>
        <time>2021-02-28T11:29:38.164Z</time>
      </trkpt>
      <trkpt lat="45.64441" lon="5.2997">
        <ele>224</ele>
        <time>2021-02-28T11:29:39.164Z</time>
      </trkpt>
      <trkpt lat="45.64436" lon="5.29964">
        <ele>225</ele>
        <time>2021-02-28T11:29:40.163Z</time>
      </trkpt>
      <trkpt lat="45.64432" lon="5.29958">
        <ele>225</ele>
        <time>2021-02-28T11:29:41.163Z</time>
      </trkpt>
      <trkpt lat="45.64428" lon="5.29952">
        <ele>225</ele>
        <time>2021-02-28T11:29:42.163Z</time>
      </trkpt>
      <trkpt lat="45.64424" lon="5.29947">
        <ele>225</ele>
        <time>2021-02-28T11:29:43.164Z</time>
      </trkpt>
      <trkpt lat="45.6442" lon="5.29941">
        <ele>225</ele>
        <time>2021-02-28T11:29:44.163Z</time>
      </trkpt>
      <trkpt lat="45.64416" lon="5.29935">
        <ele>225</ele>
        <time>2021-02-28T11:29:45.164Z</time>
      </trkpt>
      <trkpt lat="45.64412" lon="5.29929">
        <ele>225</ele>
        <time>2021-02-28T11:29:46.164Z</time>
      </trkpt>
      <trkpt lat="45.64408" lon="5.29924">
        <ele>225</ele>
        <time>2021-02-28T11:29:47.164Z</time>
      </trkpt>
      <trkpt lat="45.64404" lon="5.29918">
        <ele>225</ele>
        <time>2021-02-28T11:29:48.164Z</time>
      </trkpt>
      <trkpt lat="45.64401" lon="5.29913">
        <ele>225</ele>
        <time>2021-02-28T11:29:49.163Z</time>
      </trkpt>
      <trkpt lat="45.64397" lon="5.29907">
        <ele>226</ele>
        <time>2021-02-28T11:29:50.163Z</time>
      </trkpt>
      <trkpt lat="45.64393" lon="5.29901">
        <ele>225</ele>
        <time>2021-02-28T11:29:51.163Z</time>
      </trkpt>
      <trkpt lat="45.64388" lon="5.29896">
        <ele>225</ele>
        <time>2021-02-28T11:29:52.164Z</time>
      </trkpt>
      <trkpt lat="45.64384" lon="5.2989">
        <ele>226</ele>
        <time>2021-02-28T11:29:53.164Z</time>
      </trkpt>
      <trkpt lat="45.6438" lon="5.29884">
        <ele>226</ele>
        <time>2021-02-28T11:29:54.164Z</time>
      </trkpt>
      <trkpt lat="45.64376" lon="5.29878">
        <ele>225</ele>
        <time>2021-02-28T11:29:55.163Z</time>
      </trkpt>
      <trkpt lat="45.64372" lon="5.29872">
        <ele>225</ele>
        <time>2021-02-28T11:29:56.164Z</time>
      </trkpt>
      <trkpt lat="45.64368" lon="5.29867">
        <ele>225</ele>
        <time>2021-02-28T11:29:57.163Z</time>
      </trkpt>
      <trkpt lat="45.64364" lon="5.29861">
        <ele>225</ele>
        <time>2021-02-28T11:29:58.164Z</time>
      </trkpt>
      <trkpt lat="45.6436" lon="5.29856">
        <ele>225</ele>
        <time>2021-02-28T11:29:59.164Z</time>
      </trkpt>
      <trkpt lat="45.64356" lon="5.2985">
        <ele>225</ele>
        <time>2021-02-28T11:30:00.163Z</time>
      </trkpt>
      <trkpt lat="45.64352" lon="5.29844">
        <ele>225</ele>
        <time>2021-02-28T11:30:01.164Z</time>
      </trkpt>
      <trkpt lat="45.64348" lon="5.29839">
        <ele>225</ele>
        <time>2021-02-28T11:30:02.163Z</time>
      </trkpt>
      <trkpt lat="45.64345" lon="5.29833">
        <ele>225</ele>
        <time>2021-02-28T11:30:03.164Z</time>
      </trkpt>
      <trkpt lat="45.64341" lon="5.29828">
        <ele>224</ele>
        <time>2021-02-28T11:30:04.164Z</time>
      </trkpt>
      <trkpt lat="45.64338" lon="5.29823">
        <ele>224</ele>
        <time>2021-02-28T11:30:05.163Z</time>
      </trkpt>
      <trkpt lat="45.64334" lon="5.29817">
        <ele>224</ele>
        <time>2021-02-28T11:30:06.163Z</time>
      </trkpt>
      <trkpt lat="45.64331" lon="5.29812">
        <ele>224</ele>
        <time>2021-02-28T11:30:07.164Z</time>
      </trkpt>
      <trkpt lat="45.64327" lon="5.29807">
        <ele>223</ele>
        <time>2021-02-28T11:30:08.163Z</time>
      </trkpt>
      <trkpt lat="45.64323" lon="5.29801">
        <ele>223</ele>
        <time>2021-02-28T11:30:09.164Z</time>
      </trkpt>
      <trkpt lat="45.6432" lon="5.29796">
        <ele>223</ele>
        <time>2021-02-28T11:30:10.164Z</time>
      </trkpt>
      <trkpt lat="45.64316" lon="5.2979">
        <ele>224</ele>
        <time>2021-02-28T11:30:11.164Z</time>
      </trkpt>
      <trkpt lat="45.64312" lon="5.29785">
        <ele>224</ele>
        <time>2021-02-28T11:30:12.164Z</time>
      </trkpt>
      <trkpt lat="45.64307" lon="5.29779">
        <ele>224</ele>
        <time>2021-02-28T11:30:13.163Z</time>
      </trkpt>
      <trkpt lat="45.64303" lon="5.29774">
        <ele>223</ele>
        <time>2021-02-28T11:30:14.163Z</time>
      </trkpt>
      <trkpt lat="45.64299" lon="5.29768">
        <ele>223</ele>
        <time>2021-02-28T11:30:15.164Z</time>
      </trkpt>
      <trkpt lat="45.64295" lon="5.29762">
        <ele>223</ele>
        <time>2021-02-28T11:30:16.164Z</time>
      </trkpt>
      <trkpt lat="45.6429" lon="5.29757">
        <ele>223</ele>
        <time>2021-02-28T11:30:17.164Z</time>
      </trkpt>
      <trkpt lat="45.64286" lon="5.29751">
        <ele>223</ele>
        <time>2021-02-28T11:30:18.164Z</time>
      </trkpt>
      <trkpt lat="45.64281" lon="5.29746">
        <ele>223</ele>
        <time>2021-02-28T11:30:19.163Z</time>
      </trkpt>
      <trkpt lat="45.64277" lon="5.29741">
        <ele>222</ele>
        <time>2021-02-28T11:30:20.164Z</time>
      </trkpt>
      <trkpt lat="45.64272" lon="5.29736">
        <ele>222</ele>
        <time>2021-02-28T11:30:21.164Z</time>
      </trkpt>
      <trkpt lat="45.64267" lon="5.29731">
        <ele>222</ele>
        <time>2021-02-28T11:30:22.164Z</time>
      </trkpt>
      <trkpt lat="45.64263" lon="5.29726">
        <ele>222</ele>
        <time>2021-02-28T11:30:23.163Z</time>
      </trkpt>
      <trkpt lat="45.64258" lon="5.29722">
        <ele>222</ele>
        <time>2021-02-28T11:30:24.163Z</time>
      </trkpt>
      <trkpt lat="45.64254" lon="5.29718">
        <ele>222</ele>
        <time>2021-02-28T11:30:25.164Z</time>
      </trkpt>
      <trkpt lat="45.6425" lon="5.29714">
        <ele>221</ele>
        <time>2021-02-28T11:30:26.163Z</time>
      </trkpt>
      <trkpt lat="45.64245" lon="5.2971">
        <ele>221</ele>
        <time>2021-02-28T11:30:27.164Z</time>
      </trkpt>
      <trkpt lat="45.6424" lon="5.29707">
        <ele>222</ele>
        <time>2021-02-28T11:30:28.163Z</time>
      </trkpt>
      <trkpt lat="45.64235" lon="5.29704">
        <ele>222</ele>
        <time>2021-02-28T11:30:29.163Z</time>
      </trkpt>
      <trkpt lat="45.64231" lon="5.29702">
        <ele>222</ele>
        <time>2021-02-28T11:30:30.164Z</time>
      </trkpt>
      <trkpt lat="45.64227" lon="5.297">
        <ele>222</ele>
        <time>2021-02-28T11:30:31.164Z</time>
      </trkpt>
      <trkpt lat="45.64223" lon="5.29697">
        <ele>223</ele>
        <time>2021-02-28T11:30:32.164Z</time>
      </trkpt>
      <trkpt lat="45.64219" lon="5.29695">
        <ele>223</ele>
        <time>2021-02-28T11:30:33.164Z</time>
      </trkpt>
      <trkpt lat="45.64216" lon="5.29693">
        <ele>224</ele>
        <time>2021-02-28T11:30:34.163Z</time>
      </trkpt>
      <trkpt lat="45.64212" lon="5.29691">
        <ele>224</ele>
        <time>2021-02-28T11:30:35.163Z</time>
      </trkpt>
      <trkpt lat="45.64207" lon="5.29689">
        <ele>224</ele>
        <time>2021-02-28T11:30:36.164Z</time>
      </trkpt>
      <trkpt lat="45.64203" lon="5.29687">
        <ele>224</ele>
        <time>2021-02-28T11:30:37.164Z</time>
      </trkpt>
      <trkpt lat="45.64198" lon="5.29686">
        <ele>224</ele>
        <time>2021-02-28T11:30:38.164Z</time>
      </trkpt>
      <trkpt lat="45.64193" lon="5.29684">
        <ele>224</ele>
        <time>2021-02-28T11:30:39.164Z</time>
      </trkpt>
      <trkpt lat="45.64188" lon="5.29683">
        <ele>223</ele>
        <time>2021-02-28T11:30:40.164Z</time>
      </trkpt>
      <trkpt lat="45.64183" lon="5.29681">
        <ele>223</ele>
        <time>2021-02-28T11:30:41.164Z</time>
      </trkpt>
      <trkpt lat="45.64177" lon="5.2968">
        <ele>223</ele>
        <time>2021-02-28T11:30:42.164Z</time>
      </trkpt>
      <trkpt lat="45.64172" lon="5.29679">
        <ele>223</ele>
        <time>2021-02-28T11:30:43.164Z</time>
      </trkpt>
      <trkpt lat="45.64166" lon="5.29678">
        <ele>223</ele>
        <time>2021-02-28T11:30:44.164Z</time>
      </trkpt>
      <trkpt lat="45.6416" lon="5.29677">
        <ele>223</ele>
        <time>2021-02-28T11:30:45.164Z</time>
      </trkpt>
      <trkpt lat="45.64154" lon="5.29676">
        <ele>223</ele>
        <time>2021-02-28T11:30:46.164Z</time>
      </trkpt>
      <trkpt lat="45.64149" lon="5.29675">
        <ele>223</ele>
        <time>2021-02-28T11:30:47.164Z</time>
      </trkpt>
      <trkpt lat="45.64143" lon="5.29673">
        <ele>223</ele>
        <time>2021-02-28T11:30:48.164Z</time>
      </trkpt>
      <trkpt lat="45.64136" lon="5.29672">
        <ele>223</ele>
        <time>2021-02-28T11:30:49.163Z</time>
      </trkpt>
      <trkpt lat="45.6413" lon="5.29672">
        <ele>224</ele>
        <time>2021-02-28T11:30:50.164Z</time>
      </trkpt>
      <trkpt lat="45.64124" lon="5.29671">
        <ele>224</ele>
        <time>2021-02-28T11:30:51.164Z</time>
      </trkpt>
      <trkpt lat="45.64118" lon="5.2967">
        <ele>224</ele>
        <time>2021-02-28T11:30:52.164Z</time>
      </trkpt>
      <trkpt lat="45.64111" lon="5.29669">
        <ele>224</ele>
        <time>2021-02-28T11:30:53.164Z</time>
      </trkpt>
      <trkpt lat="45.64105" lon="5.29668">
        <ele>224</ele>
        <time>2021-02-28T11:30:54.164Z</time>
      </trkpt>
      <trkpt lat="45.641" lon="5.29667">
        <ele>224</ele>
        <time>2021-02-28T11:30:55.164Z</time>
      </trkpt>
      <trkpt lat="45.64093" lon="5.29666">
        <ele>224</ele>
        <time>2021-02-28T11:30:56.164Z</time>
      </trkpt>
      <trkpt lat="45.64087" lon="5.29665">
        <ele>224</ele>
        <time>2021-02-28T11:30:57.164Z</time>
      </trkpt>
      <trkpt lat="45.64081" lon="5.29665">
        <ele>224</ele>
        <time>2021-02-28T11:30:58.164Z</time>
      </trkpt>
      <trkpt lat="45.64075" lon="5.29664">
        <ele>224</ele>
        <time>2021-02-28T11:30:59.164Z</time>
      </trkpt>
      <trkpt lat="45.64069" lon="5.29663">
        <ele>224</ele>
        <time>2021-02-28T11:31:00.164Z</time>
      </trkpt>
      <trkpt lat="45.64063" lon="5.29663">
        <ele>223</ele>
        <time>2021-02-28T11:31:01.164Z</time>
      </trkpt>
      <trkpt lat="45.64057" lon="5.29661">
        <ele>223</ele>
        <time>2021-02-28T11:31:02.164Z</time>
      </trkpt>
      <trkpt lat="45.64051" lon="5.29661">
        <ele>223</ele>
        <time>2021-02-28T11:31:03.164Z</time>
      </trkpt>
      <trkpt lat="45.64045" lon="5.2966">
        <ele>222</ele>
        <time>2021-02-28T11:31:04.163Z</time>
      </trkpt>
      <trkpt lat="45.64039" lon="5.29659">
        <ele>222</ele>
        <time>2021-02-28T11:31:05.164Z</time>
      </trkpt>
      <trkpt lat="45.64033" lon="5.29658">
        <ele>222</ele>
        <time>2021-02-28T11:31:06.164Z</time>
      </trkpt>
      <trkpt lat="45.64027" lon="5.29657">
        <ele>222</ele>
        <time>2021-02-28T11:31:07.163Z</time>
      </trkpt>
      <trkpt lat="45.6402" lon="5.29657">
        <ele>222</ele>
        <time>2021-02-28T11:31:08.164Z</time>
      </trkpt>
      <trkpt lat="45.64014" lon="5.29656">
        <ele>222</ele>
        <time>2021-02-28T11:31:09.164Z</time>
      </trkpt>
      <trkpt lat="45.64008" lon="5.29654">
        <ele>221</ele>
        <time>2021-02-28T11:31:10.164Z</time>
      </trkpt>
      <trkpt lat="45.64001" lon="5.29653">
        <ele>221</ele>
        <time>2021-02-28T11:31:11.164Z</time>
      </trkpt>
      <trkpt lat="45.63995" lon="5.29653">
        <ele>221</ele>
        <time>2021-02-28T11:31:12.164Z</time>
      </trkpt>
      <trkpt lat="45.63989" lon="5.29652">
        <ele>220</ele>
        <time>2021-02-28T11:31:13.164Z</time>
      </trkpt>
      <trkpt lat="45.63982" lon="5.29651">
        <ele>220</ele>
        <time>2021-02-28T11:31:14.164Z</time>
      </trkpt>
      <trkpt lat="45.63976" lon="5.29651">
        <ele>221</ele>
        <time>2021-02-28T11:31:15.164Z</time>
      </trkpt>
      <trkpt lat="45.6397" lon="5.2965">
        <ele>221</ele>
        <time>2021-02-28T11:31:16.164Z</time>
      </trkpt>
      <trkpt lat="45.63963" lon="5.29649">
        <ele>221</ele>
        <time>2021-02-28T11:31:17.164Z</time>
      </trkpt>
      <trkpt lat="45.63957" lon="5.29648">
        <ele>221</ele>
        <time>2021-02-28T11:31:18.164Z</time>
      </trkpt>
      <trkpt lat="45.63951" lon="5.29647">
        <ele>221</ele>
        <time>2021-02-28T11:31:19.163Z</time>
      </trkpt>
      <trkpt lat="45.63945" lon="5.29646">
        <ele>221</ele>
        <time>2021-02-28T11:31:20.164Z</time>
      </trkpt>
      <trkpt lat="45.63939" lon="5.29645">
        <ele>221</ele>
        <time>2021-02-28T11:31:21.163Z</time>
      </trkpt>
      <trkpt lat="45.63932" lon="5.29644">
        <ele>221</ele>
        <time>2021-02-28T11:31:22.164Z</time>
      </trkpt>
      <trkpt lat="45.63926" lon="5.29643">
        <ele>221</ele>
        <time>2021-02-28T11:31:23.164Z</time>
      </trkpt>
      <trkpt lat="45.6392" lon="5.29642">
        <ele>222</ele>
        <time>2021-02-28T11:31:24.164Z</time>
      </trkpt>
      <trkpt lat="45.63914" lon="5.29641">
        <ele>222</ele>
        <time>2021-02-28T11:31:25.163Z</time>
      </trkpt>
      <trkpt lat="45.63908" lon="5.2964">
        <ele>223</ele>
        <time>2021-02-28T11:31:26.164Z</time>
      </trkpt>
      <trkpt lat="45.63902" lon="5.29639">
        <ele>223</ele>
        <time>2021-02-28T11:31:27.164Z</time>
      </trkpt>
      <trkpt lat="45.63896" lon="5.29638">
        <ele>223</ele>
        <time>2021-02-28T11:31:28.164Z</time>
      </trkpt>
      <trkpt lat="45.6389" lon="5.29637">
        <ele>223</ele>
        <time>2021-02-28T11:31:29.164Z</time>
      </trkpt>
      <trkpt lat="45.63884" lon="5.29636">
        <ele>223</ele>
        <time>2021-02-28T11:31:30.163Z</time>
      </trkpt>
      <trkpt lat="45.63877" lon="5.29635">
        <ele>223</ele>
        <time>2021-02-28T11:31:31.164Z</time>
      </trkpt>
      <trkpt lat="45.63871" lon="5.29634">
        <ele>223</ele>
        <time>2021-02-28T11:31:32.163Z</time>
      </trkpt>
      <trkpt lat="45.63865" lon="5.29633">
        <ele>223</ele>
        <time>2021-02-28T11:31:33.164Z</time>
      </trkpt>
      <trkpt lat="45.63859" lon="5.29632">
        <ele>223</ele>
        <time>2021-02-28T11:31:34.164Z</time>
      </trkpt>
      <trkpt lat="45.63852" lon="5.29632">
        <ele>223</ele>
        <time>2021-02-28T11:31:35.164Z</time>
      </trkpt>
      <trkpt lat="45.63846" lon="5.29631">
        <ele>223</ele>
        <time>2021-02-28T11:31:36.163Z</time>
      </trkpt>
      <trkpt lat="45.6384" lon="5.2963">
        <ele>223</ele>
        <time>2021-02-28T11:31:37.164Z</time>
      </trkpt>
      <trkpt lat="45.63834" lon="5.29629">
        <ele>223</ele>
        <time>2021-02-28T11:31:38.164Z</time>
      </trkpt>
      <trkpt lat="45.63828" lon="5.29628">
        <ele>223</ele>
        <time>2021-02-28T11:31:39.164Z</time>
      </trkpt>
      <trkpt lat="45.63821" lon="5.29627">
        <ele>223</ele>
        <time>2021-02-28T11:31:40.163Z</time>
      </trkpt>
      <trkpt lat="45.63815" lon="5.29626">
        <ele>223</ele>
        <time>2021-02-28T11:31:41.164Z</time>
      </trkpt>
      <trkpt lat="45.63809" lon="5.29625">
        <ele>223</ele>
        <time>2021-02-28T11:31:42.164Z</time>
      </trkpt>
      <trkpt lat="45.63802" lon="5.29624">
        <ele>223</ele>
        <time>2021-02-28T11:31:43.163Z</time>
      </trkpt>
      <trkpt lat="45.63796" lon="5.29623">
        <ele>223</ele>
        <time>2021-02-28T11:31:44.164Z</time>
      </trkpt>
      <trkpt lat="45.6379" lon="5.29622">
        <ele>223</ele>
        <time>2021-02-28T11:31:45.163Z</time>
      </trkpt>
      <trkpt lat="45.63784" lon="5.29621">
        <ele>223</ele>
        <time>2021-02-28T11:31:46.163Z</time>
      </trkpt>
      <trkpt lat="45.63778" lon="5.2962">
        <ele>223</ele>
        <time>2021-02-28T11:31:47.164Z</time>
      </trkpt>
      <trkpt lat="45.63772" lon="5.29619">
        <ele>223</ele>
        <time>2021-02-28T11:31:48.163Z</time>
      </trkpt>
      <trkpt lat="45.63765" lon="5.29617">
        <ele>223</ele>
        <time>2021-02-28T11:31:49.164Z</time>
      </trkpt>
      <trkpt lat="45.63759" lon="5.29616">
        <ele>223</ele>
        <time>2021-02-28T11:31:50.164Z</time>
      </trkpt>
      <trkpt lat="45.63753" lon="5.29615">
        <ele>223</ele>
        <time>2021-02-28T11:31:51.163Z</time>
      </trkpt>
      <trkpt lat="45.63746" lon="5.29614">
        <ele>223</ele>
        <time>2021-02-28T11:31:52.164Z</time>
      </trkpt>
      <trkpt lat="45.6374" lon="5.29613">
        <ele>223</ele>
        <time>2021-02-28T11:31:53.163Z</time>
      </trkpt>
      <trkpt lat="45.63733" lon="5.29613">
        <ele>223</ele>
        <time>2021-02-28T11:31:54.163Z</time>
      </trkpt>
      <trkpt lat="45.63727" lon="5.29612">
        <ele>223</ele>
        <time>2021-02-28T11:31:55.164Z</time>
      </trkpt>
      <trkpt lat="45.63721" lon="5.2961">
        <ele>223</ele>
        <time>2021-02-28T11:31:56.163Z</time>
      </trkpt>
      <trkpt lat="45.63714" lon="5.29609">
        <ele>223</ele>
        <time>2021-02-28T11:31:57.164Z</time>
      </trkpt>
      <trkpt lat="45.63708" lon="5.29609">
        <ele>223</ele>
        <time>2021-02-28T11:31:58.164Z</time>
      </trkpt>
      <trkpt lat="45.63701" lon="5.29608">
        <ele>223</ele>
        <time>2021-02-28T11:31:59.164Z</time>
      </trkpt>
      <trkpt lat="45.63695" lon="5.29607">
        <ele>223</ele>
        <time>2021-02-28T11:32:00.164Z</time>
      </trkpt>
      <trkpt lat="45.63688" lon="5.29606">
        <ele>224</ele>
        <time>2021-02-28T11:32:01.164Z</time>
      </trkpt>
      <trkpt lat="45.63682" lon="5.29605">
        <ele>224</ele>
        <time>2021-02-28T11:32:02.164Z</time>
      </trkpt>
      <trkpt lat="45.63676" lon="5.29604">
        <ele>224</ele>
        <time>2021-02-28T11:32:03.164Z</time>
      </trkpt>
      <trkpt lat="45.63669" lon="5.29603">
        <ele>224</ele>
        <time>2021-02-28T11:32:04.163Z</time>
      </trkpt>
      <trkpt lat="45.63663" lon="5.29602">
        <ele>224</ele>
        <time>2021-02-28T11:32:05.163Z</time>
      </trkpt>
      <trkpt lat="45.63657" lon="5.29601">
        <ele>224</ele>
        <time>2021-02-28T11:32:06.163Z</time>
      </trkpt>
      <trkpt lat="45.6365" lon="5.296">
        <ele>224</ele>
        <time>2021-02-28T11:32:07.164Z</time>
      </trkpt>
      <trkpt lat="45.63644" lon="5.29599">
        <ele>224</ele>
        <time>2021-02-28T11:32:08.163Z</time>
      </trkpt>
      <trkpt lat="45.63637" lon="5.29598">
        <ele>224</ele>
        <time>2021-02-28T11:32:09.164Z</time>
      </trkpt>
      <trkpt lat="45.6363" lon="5.29597">
        <ele>224</ele>
        <time>2021-02-28T11:32:10.164Z</time>
      </trkpt>
      <trkpt lat="45.63624" lon="5.29596">
        <ele>223</ele>
        <time>2021-02-28T11:32:11.163Z</time>
      </trkpt>
      <trkpt lat="45.63617" lon="5.29595">
        <ele>223</ele>
        <time>2021-02-28T11:32:12.164Z</time>
      </trkpt>
      <trkpt lat="45.63611" lon="5.29594">
        <ele>223</ele>
        <time>2021-02-28T11:32:13.164Z</time>
      </trkpt>
      <trkpt lat="45.63604" lon="5.29593">
        <ele>223</ele>
        <time>2021-02-28T11:32:14.164Z</time>
      </trkpt>
      <trkpt lat="45.63598" lon="5.29592">
        <ele>223</ele>
        <time>2021-02-28T11:32:15.164Z</time>
      </trkpt>
      <trkpt lat="45.63591" lon="5.29592">
        <ele>223</ele>
        <time>2021-02-28T11:32:16.164Z</time>
      </trkpt>
      <trkpt lat="45.63585" lon="5.29591">
        <ele>223</ele>
        <time>2021-02-28T11:32:17.164Z</time>
      </trkpt>
      <trkpt lat="45.63578" lon="5.2959">
        <ele>223</ele>
        <time>2021-02-28T11:32:18.164Z</time>
      </trkpt>
      <trkpt lat="45.63572" lon="5.29589">
        <ele>223</ele>
        <time>2021-02-28T11:32:19.164Z</time>
      </trkpt>
      <trkpt lat="45.63565" lon="5.29588">
        <ele>223</ele>
        <time>2021-02-28T11:32:20.164Z</time>
      </trkpt>
      <trkpt lat="45.63558" lon="5.29587">
        <ele>224</ele>
        <time>2021-02-28T11:32:21.164Z</time>
      </trkpt>
      <trkpt lat="45.63551" lon="5.29586">
        <ele>224</ele>
        <time>2021-02-28T11:32:22.164Z</time>
      </trkpt>
      <trkpt lat="45.63544" lon="5.29585">
        <ele>224</ele>
        <time>2021-02-28T11:32:23.164Z</time>
      </trkpt>
      <trkpt lat="45.63537" lon="5.29584">
        <ele>224</ele>
        <time>2021-02-28T11:32:24.164Z</time>
      </trkpt>
      <trkpt lat="45.6353" lon="5.29583">
        <ele>224</ele>
        <time>2021-02-28T11:32:25.163Z</time>
      </trkpt>
      <trkpt lat="45.63523" lon="5.29582">
        <ele>223</ele>
        <time>2021-02-28T11:32:26.164Z</time>
      </trkpt>
      <trkpt lat="45.63516" lon="5.29581">
        <ele>224</ele>
        <time>2021-02-28T11:32:27.163Z</time>
      </trkpt>
      <trkpt lat="45.63509" lon="5.2958">
        <ele>224</ele>
        <time>2021-02-28T11:32:28.164Z</time>
      </trkpt>
      <trkpt lat="45.63502" lon="5.29578">
        <ele>224</ele>
        <time>2021-02-28T11:32:29.164Z</time>
      </trkpt>
      <trkpt lat="45.63494" lon="5.29577">
        <ele>224</ele>
        <time>2021-02-28T11:32:30.164Z</time>
      </trkpt>
      <trkpt lat="45.63487" lon="5.29576">
        <ele>224</ele>
        <time>2021-02-28T11:32:31.164Z</time>
      </trkpt>
      <trkpt lat="45.6348" lon="5.29574">
        <ele>224</ele>
        <time>2021-02-28T11:32:32.164Z</time>
      </trkpt>
      <trkpt lat="45.63472" lon="5.29572">
        <ele>225</ele>
        <time>2021-02-28T11:32:33.163Z</time>
      </trkpt>
      <trkpt lat="45.63465" lon="5.29571">
        <ele>224</ele>
        <time>2021-02-28T11:32:34.164Z</time>
      </trkpt>
      <trkpt lat="45.63458" lon="5.29569">
        <ele>224</ele>
        <time>2021-02-28T11:32:35.163Z</time>
      </trkpt>
      <trkpt lat="45.63451" lon="5.29567">
        <ele>223</ele>
        <time>2021-02-28T11:32:36.164Z</time>
      </trkpt>
      <trkpt lat="45.63443" lon="5.29564">
        <ele>223</ele>
        <time>2021-02-28T11:32:37.164Z</time>
      </trkpt>
      <trkpt lat="45.63436" lon="5.29562">
        <ele>223</ele>
        <time>2021-02-28T11:32:38.163Z</time>
      </trkpt>
      <trkpt lat="45.63429" lon="5.29559">
        <ele>223</ele>
        <time>2021-02-28T11:32:39.164Z</time>
      </trkpt>
      <trkpt lat="45.63421" lon="5.29556">
        <ele>224</ele>
        <time>2021-02-28T11:32:40.164Z</time>
      </trkpt>
      <trkpt lat="45.63414" lon="5.29553">
        <ele>224</ele>
        <time>2021-02-28T11:32:41.164Z</time>
      </trkpt>
      <trkpt lat="45.63407" lon="5.29549">
        <ele>224</ele>
        <time>2021-02-28T11:32:42.164Z</time>
      </trkpt>
      <trkpt lat="45.634" lon="5.29545">
        <ele>224</ele>
        <time>2021-02-28T11:32:43.164Z</time>
      </trkpt>
      <trkpt lat="45.63393" lon="5.2954">
        <ele>224</ele>
        <time>2021-02-28T11:32:44.164Z</time>
      </trkpt>
      <trkpt lat="45.63387" lon="5.29535">
        <ele>224</ele>
        <time>2021-02-28T11:32:45.164Z</time>
      </trkpt>
      <trkpt lat="45.6338" lon="5.2953">
        <ele>225</ele>
        <time>2021-02-28T11:32:46.164Z</time>
      </trkpt>
      <trkpt lat="45.63374" lon="5.29524">
        <ele>225</ele>
        <time>2021-02-28T11:32:47.163Z</time>
      </trkpt>
      <trkpt lat="45.63367" lon="5.29518">
        <ele>225</ele>
        <time>2021-02-28T11:32:48.164Z</time>
      </trkpt>
      <trkpt lat="45.63361" lon="5.29512">
        <ele>225</ele>
        <time>2021-02-28T11:32:49.164Z</time>
      </trkpt>
      <trkpt lat="45.63355" lon="5.29506">
        <ele>225</ele>
        <time>2021-02-28T11:32:50.164Z</time>
      </trkpt>
      <trkpt lat="45.63349" lon="5.295">
        <ele>226</ele>
        <time>2021-02-28T11:32:51.164Z</time>
      </trkpt>
      <trkpt lat="45.63343" lon="5.29494">
        <ele>226</ele>
        <time>2021-02-28T11:32:52.163Z</time>
      </trkpt>
      <trkpt lat="45.63338" lon="5.29487">
        <ele>225</ele>
        <time>2021-02-28T11:32:53.164Z</time>
      </trkpt>
      <trkpt lat="45.63332" lon="5.29481">
        <ele>225</ele>
        <time>2021-02-28T11:32:54.164Z</time>
      </trkpt>
      <trkpt lat="45.63326" lon="5.29475">
        <ele>225</ele>
        <time>2021-02-28T11:32:55.164Z</time>
      </trkpt>
      <trkpt lat="45.63321" lon="5.29469">
        <ele>225</ele>
        <time>2021-02-28T11:32:56.164Z</time>
      </trkpt>
      <trkpt lat="45.63315" lon="5.29463">
        <ele>225</ele>
        <time>2021-02-28T11:32:57.164Z</time>
      </trkpt>
      <trkpt lat="45.6331" lon="5.29457">
        <ele>224</ele>
        <time>2021-02-28T11:32:58.164Z</time>
      </trkpt>
      <trkpt lat="45.63304" lon="5.29451">
        <ele>224</ele>
        <time>2021-02-28T11:32:59.163Z</time>
      </trkpt>
      <trkpt lat="45.63299" lon="5.29445">
        <ele>223</ele>
        <time>2021-02-28T11:33:00.163Z</time>
      </trkpt>
      <trkpt lat="45.63293" lon="5.29438">
        <ele>223</ele>
        <time>2021-02-28T11:33:01.164Z</time>
      </trkpt>
      <trkpt lat="45.63288" lon="5.29432">
        <ele>222</ele>
        <time>2021-02-28T11:33:02.163Z</time>
      </trkpt>
      <trkpt lat="45.63282" lon="5.29426">
        <ele>222</ele>
        <time>2021-02-28T11:33:03.164Z</time>
      </trkpt>
      <trkpt lat="45.63277" lon="5.29421">
        <ele>223</ele>
        <time>2021-02-28T11:33:04.163Z</time>
      </trkpt>
      <trkpt lat="45.63271" lon="5.29415">
        <ele>223</ele>
        <time>2021-02-28T11:33:05.164Z</time>
      </trkpt>
      <trkpt lat="45.63265" lon="5.29409">
        <ele>223</ele>
        <time>2021-02-28T11:33:06.163Z</time>
      </trkpt>
      <trkpt lat="45.6326" lon="5.29403">
        <ele>223</ele>
        <time>2021-02-28T11:33:07.163Z</time>
      </trkpt>
      <trkpt lat="45.63255" lon="5.29397">
        <ele>223</ele>
        <time>2021-02-28T11:33:08.164Z</time>
      </trkpt>
      <trkpt lat="45.63249" lon="5.2939">
        <ele>223</ele>
        <time>2021-02-28T11:33:09.164Z</time>
      </trkpt>
      <trkpt lat="45.63244" lon="5.29384">
        <ele>223</ele>
        <time>2021-02-28T11:33:10.164Z</time>
      </trkpt>
      <trkpt lat="45.63238" lon="5.29377">
        <ele>223</ele>
        <time>2021-02-28T11:33:11.163Z</time>
      </trkpt>
      <trkpt lat="45.63233" lon="5.29371">
        <ele>223</ele>
        <time>2021-02-28T11:33:12.164Z</time>
      </trkpt>
      <trkpt lat="45.63228" lon="5.29365">
        <ele>223</ele>
        <time>2021-02-28T11:33:13.164Z</time>
      </trkpt>
      <trkpt lat="45.63223" lon="5.29358">
        <ele>223</ele>
        <time>2021-02-28T11:33:14.163Z</time>
      </trkpt>
      <trkpt lat="45.63218" lon="5.29352">
        <ele>223</ele>
        <time>2021-02-28T11:33:15.163Z</time>
      </trkpt>
      <trkpt lat="45.63213" lon="5.29345">
        <ele>223</ele>
        <time>2021-02-28T11:33:16.163Z</time>
      </trkpt>
      <trkpt lat="45.63207" lon="5.29339">
        <ele>223</ele>
        <time>2021-02-28T11:33:17.164Z</time>
      </trkpt>
      <trkpt lat="45.63202" lon="5.29333">
        <ele>223</ele>
        <time>2021-02-28T11:33:18.164Z</time>
      </trkpt>
      <trkpt lat="45.63197" lon="5.29326">
        <ele>223</ele>
        <time>2021-02-28T11:33:19.164Z</time>
      </trkpt>
      <trkpt lat="45.63192" lon="5.2932">
        <ele>224</ele>
        <time>2021-02-28T11:33:20.164Z</time>
      </trkpt>
      <trkpt lat="45.63187" lon="5.29314">
        <ele>224</ele>
        <time>2021-02-28T11:33:21.163Z</time>
      </trkpt>
      <trkpt lat="45.63182" lon="5.29307">
        <ele>223</ele>
        <time>2021-02-28T11:33:22.164Z</time>
      </trkpt>
      <trkpt lat="45.63177" lon="5.29301">
        <ele>223</ele>
        <time>2021-02-28T11:33:23.164Z</time>
      </trkpt>
      <trkpt lat="45.63172" lon="5.29295">
        <ele>223</ele>
        <time>2021-02-28T11:33:24.164Z</time>
      </trkpt>
      <trkpt lat="45.63167" lon="5.29289">
        <ele>223</ele>
        <time>2021-02-28T11:33:25.163Z</time>
      </trkpt>
      <trkpt lat="45.63162" lon="5.29282">
        <ele>223</ele>
        <time>2021-02-28T11:33:26.164Z</time>
      </trkpt>
      <trkpt lat="45.63158" lon="5.29276">
        <ele>223</ele>
        <time>2021-02-28T11:33:27.164Z</time>
      </trkpt>
      <trkpt lat="45.63153" lon="5.2927">
        <ele>223</ele>
        <time>2021-02-28T11:33:28.164Z</time>
      </trkpt>
      <trkpt lat="45.63148" lon="5.29263">
        <ele>223</ele>
        <time>2021-02-28T11:33:29.163Z</time>
      </trkpt>
      <trkpt lat="45.63143" lon="5.29257">
        <ele>223</ele>
        <time>2021-02-28T11:33:30.164Z</time>
      </trkpt>
      <trkpt lat="45.63138" lon="5.29251">
        <ele>223</ele>
        <time>2021-02-28T11:33:31.163Z</time>
      </trkpt>
      <trkpt lat="45.63133" lon="5.29245">
        <ele>223</ele>
        <time>2021-02-28T11:33:32.164Z</time>
      </trkpt>
      <trkpt lat="45.63129" lon="5.29239">
        <ele>223</ele>
        <time>2021-02-28T11:33:33.164Z</time>
      </trkpt>
      <trkpt lat="45.63124" lon="5.29234">
        <ele>223</ele>
        <time>2021-02-28T11:33:34.164Z</time>
      </trkpt>
      <trkpt lat="45.6312" lon="5.29228">
        <ele>223</ele>
        <time>2021-02-28T11:33:35.164Z</time>
      </trkpt>
      <trkpt lat="45.63116" lon="5.29222">
        <ele>223</ele>
        <time>2021-02-28T11:33:36.163Z</time>
      </trkpt>
      <trkpt lat="45.63112" lon="5.29216">
        <ele>223</ele>
        <time>2021-02-28T11:33:37.164Z</time>
      </trkpt>
      <trkpt lat="45.63108" lon="5.2921">
        <ele>223</ele>
        <time>2021-02-28T11:33:38.164Z</time>
      </trkpt>
      <trkpt lat="45.63103" lon="5.29205">
        <ele>224</ele>
        <time>2021-02-28T11:33:39.163Z</time>
      </trkpt>
      <trkpt lat="45.63099" lon="5.29199">
        <ele>224</ele>
        <time>2021-02-28T11:33:40.164Z</time>
      </trkpt>
      <trkpt lat="45.63094" lon="5.29194">
        <ele>224</ele>
        <time>2021-02-28T11:33:41.164Z</time>
      </trkpt>
      <trkpt lat="45.6309" lon="5.29188">
        <ele>224</ele>
        <time>2021-02-28T11:33:42.164Z</time>
      </trkpt>
      <trkpt lat="45.63085" lon="5.29183">
        <ele>224</ele>
        <time>2021-02-28T11:33:43.164Z</time>
      </trkpt>
      <trkpt lat="45.63081" lon="5.29178">
        <ele>224</ele>
        <time>2021-02-28T11:33:44.164Z</time>
      </trkpt>
      <trkpt lat="45.63077" lon="5.29172">
        <ele>223</ele>
        <time>2021-02-28T11:33:45.164Z</time>
      </trkpt>
      <trkpt lat="45.63073" lon="5.29167">
        <ele>223</ele>
        <time>2021-02-28T11:33:46.163Z</time>
      </trkpt>
      <trkpt lat="45.63069" lon="5.29162">
        <ele>223</ele>
        <time>2021-02-28T11:33:47.164Z</time>
      </trkpt>
      <trkpt lat="45.63065" lon="5.29157">
        <ele>222</ele>
        <time>2021-02-28T11:33:48.163Z</time>
      </trkpt>
      <trkpt lat="45.63061" lon="5.29151">
        <ele>222</ele>
        <time>2021-02-28T11:33:49.163Z</time>
      </trkpt>
      <trkpt lat="45.63057" lon="5.29146">
        <ele>221</ele>
        <time>2021-02-28T11:33:50.163Z</time>
      </trkpt>
      <trkpt lat="45.63053" lon="5.29141">
        <ele>222</ele>
        <time>2021-02-28T11:33:51.164Z</time>
      </trkpt>
      <trkpt lat="45.63049" lon="5.29135">
        <ele>221</ele>
        <time>2021-02-28T11:33:52.164Z</time>
      </trkpt>
      <trkpt lat="45.63044" lon="5.2913">
        <ele>221</ele>
        <time>2021-02-28T11:33:53.163Z</time>
      </trkpt>
      <trkpt lat="45.6304" lon="5.29124">
        <ele>221</ele>
        <time>2021-02-28T11:33:54.164Z</time>
      </trkpt>
      <trkpt lat="45.63036" lon="5.29118">
        <ele>221</ele>
        <time>2021-02-28T11:33:55.163Z</time>
      </trkpt>
      <trkpt lat="45.63031" lon="5.29113">
        <ele>220</ele>
        <time>2021-02-28T11:33:56.164Z</time>
      </trkpt>
      <trkpt lat="45.63026" lon="5.29107">
        <ele>221</ele>
        <time>2021-02-28T11:33:57.164Z</time>
      </trkpt>
      <trkpt lat="45.63022" lon="5.29101">
        <ele>221</ele>
        <time>2021-02-28T11:33:58.164Z</time>
      </trkpt>
      <trkpt lat="45.63017" lon="5.29095">
        <ele>221</ele>
        <time>2021-02-28T11:33:59.164Z</time>
      </trkpt>
      <trkpt lat="45.63013" lon="5.29089">
        <ele>222</ele>
        <time>2021-02-28T11:34:00.164Z</time>
      </trkpt>
      <trkpt lat="45.63008" lon="5.29083">
        <ele>222</ele>
        <time>2021-02-28T11:34:01.164Z</time>
      </trkpt>
      <trkpt lat="45.63003" lon="5.29078">
        <ele>223</ele>
        <time>2021-02-28T11:34:02.164Z</time>
      </trkpt>
      <trkpt lat="45.62999" lon="5.29072">
        <ele>223</ele>
        <time>2021-02-28T11:34:03.163Z</time>
      </trkpt>
      <trkpt lat="45.62994" lon="5.29067">
        <ele>223</ele>
        <time>2021-02-28T11:34:04.164Z</time>
      </trkpt>
      <trkpt lat="45.6299" lon="5.29061">
        <ele>223</ele>
        <time>2021-02-28T11:34:05.164Z</time>
      </trkpt>
      <trkpt lat="45.62986" lon="5.29055">
        <ele>223</ele>
        <time>2021-02-28T11:34:06.163Z</time>
      </trkpt>
      <trkpt lat="45.62981" lon="5.2905">
        <ele>223</ele>
        <time>2021-02-28T11:34:07.163Z</time>
      </trkpt>
      <trkpt lat="45.62977" lon="5.29045">
        <ele>223</ele>
        <time>2021-02-28T11:34:08.164Z</time>
      </trkpt>
      <trkpt lat="45.62972" lon="5.29039">
        <ele>222</ele>
        <time>2021-02-28T11:34:09.163Z</time>
      </trkpt>
      <trkpt lat="45.62968" lon="5.29033">
        <ele>222</ele>
        <time>2021-02-28T11:34:10.163Z</time>
      </trkpt>
      <trkpt lat="45.62964" lon="5.29027">
        <ele>222</ele>
        <time>2021-02-28T11:34:11.164Z</time>
      </trkpt>
      <trkpt lat="45.62959" lon="5.29022">
        <ele>222</ele>
        <time>2021-02-28T11:34:12.163Z</time>
      </trkpt>
      <trkpt lat="45.62955" lon="5.29016">
        <ele>222</ele>
        <time>2021-02-28T11:34:13.164Z</time>
      </trkpt>
      <trkpt lat="45.62951" lon="5.2901">
        <ele>221</ele>
        <time>2021-02-28T11:34:14.164Z</time>
      </trkpt>
      <trkpt lat="45.62946" lon="5.29005">
        <ele>222</ele>
        <time>2021-02-28T11:34:15.164Z</time>
      </trkpt>
      <trkpt lat="45.62942" lon="5.28999">
        <ele>222</ele>
        <time>2021-02-28T11:34:16.164Z</time>
      </trkpt>
      <trkpt lat="45.62937" lon="5.28994">
        <ele>223</ele>
        <time>2021-02-28T11:34:17.164Z</time>
      </trkpt>
      <trkpt lat="45.62932" lon="5.28988">
        <ele>223</ele>
        <time>2021-02-28T11:34:18.164Z</time>
      </trkpt>
      <trkpt lat="45.62928" lon="5.28983">
        <ele>223</ele>
        <time>2021-02-28T11:34:19.164Z</time>
      </trkpt>
      <trkpt lat="45.62923" lon="5.28977">
        <ele>223</ele>
        <time>2021-02-28T11:34:20.164Z</time>
      </trkpt>
      <trkpt lat="45.62919" lon="5.28971">
        <ele>223</ele>
        <time>2021-02-28T11:34:21.164Z</time>
      </trkpt>
      <trkpt lat="45.62914" lon="5.28965">
        <ele>222</ele>
        <time>2021-02-28T11:34:22.164Z</time>
      </trkpt>
      <trkpt lat="45.6291" lon="5.2896">
        <ele>223</ele>
        <time>2021-02-28T11:34:23.163Z</time>
      </trkpt>
      <trkpt lat="45.62905" lon="5.28955">
        <ele>223</ele>
        <time>2021-02-28T11:34:24.164Z</time>
      </trkpt>
      <trkpt lat="45.62901" lon="5.28949">
        <ele>223</ele>
        <time>2021-02-28T11:34:25.163Z</time>
      </trkpt>
      <trkpt lat="45.62897" lon="5.28944">
        <ele>223</ele>
        <time>2021-02-28T11:34:26.164Z</time>
      </trkpt>
      <trkpt lat="45.62893" lon="5.28938">
        <ele>223</ele>
        <time>2021-02-28T11:34:27.164Z</time>
      </trkpt>
      <trkpt lat="45.62888" lon="5.28933">
        <ele>224</ele>
        <time>2021-02-28T11:34:28.164Z</time>
      </trkpt>
      <trkpt lat="45.62884" lon="5.28927">
        <ele>224</ele>
        <time>2021-02-28T11:34:29.164Z</time>
      </trkpt>
      <trkpt lat="45.6288" lon="5.28922">
        <ele>223</ele>
        <time>2021-02-28T11:34:30.164Z</time>
      </trkpt>
      <trkpt lat="45.62876" lon="5.28916">
        <ele>223</ele>
        <time>2021-02-28T11:34:31.164Z</time>
      </trkpt>
      <trkpt lat="45.62872" lon="5.28911">
        <ele>223</ele>
        <time>2021-02-28T11:34:32.164Z</time>
      </trkpt>
      <trkpt lat="45.62868" lon="5.28906">
        <ele>223</ele>
        <time>2021-02-28T11:34:33.164Z</time>
      </trkpt>
      <trkpt lat="45.62863" lon="5.289">
        <ele>223</ele>
        <time>2021-02-28T11:34:34.164Z</time>
      </trkpt>
      <trkpt lat="45.62859" lon="5.28894">
        <ele>223</ele>
        <time>2021-02-28T11:34:35.164Z</time>
      </trkpt>
      <trkpt lat="45.62854" lon="5.28888">
        <ele>223</ele>
        <time>2021-02-28T11:34:36.164Z</time>
      </trkpt>
      <trkpt lat="45.62849" lon="5.28882">
        <ele>223</ele>
        <time>2021-02-28T11:34:37.164Z</time>
      </trkpt>
      <trkpt lat="45.62845" lon="5.28877">
        <ele>224</ele>
        <time>2021-02-28T11:34:38.164Z</time>
      </trkpt>
      <trkpt lat="45.6284" lon="5.28871">
        <ele>224</ele>
        <time>2021-02-28T11:34:39.164Z</time>
      </trkpt>
      <trkpt lat="45.62835" lon="5.28865">
        <ele>225</ele>
        <time>2021-02-28T11:34:40.164Z</time>
      </trkpt>
      <trkpt lat="45.62831" lon="5.28859">
        <ele>225</ele>
        <time>2021-02-28T11:34:41.163Z</time>
      </trkpt>
      <trkpt lat="45.62826" lon="5.28854">
        <ele>225</ele>
        <time>2021-02-28T11:34:42.163Z</time>
      </trkpt>
      <trkpt lat="45.62822" lon="5.28848">
        <ele>226</ele>
        <time>2021-02-28T11:34:43.164Z</time>
      </trkpt>
      <trkpt lat="45.62817" lon="5.28843">
        <ele>226</ele>
        <time>2021-02-28T11:34:44.163Z</time>
      </trkpt>
      <trkpt lat="45.62813" lon="5.28837">
        <ele>226</ele>
        <time>2021-02-28T11:34:45.163Z</time>
      </trkpt>
      <trkpt lat="45.62808" lon="5.28832">
        <ele>226</ele>
        <time>2021-02-28T11:34:46.164Z</time>
      </trkpt>
      <trkpt lat="45.62804" lon="5.28826">
        <ele>226</ele>
        <time>2021-02-28T11:34:47.164Z</time>
      </trkpt>
      <trkpt lat="45.62799" lon="5.2882">
        <ele>226</ele>
        <time>2021-02-28T11:34:48.164Z</time>
      </trkpt>
      <trkpt lat="45.62795" lon="5.28815">
        <ele>226</ele>
        <time>2021-02-28T11:34:49.164Z</time>
      </trkpt>
      <trkpt lat="45.62791" lon="5.28809">
        <ele>226</ele>
        <time>2021-02-28T11:34:50.164Z</time>
      </trkpt>
      <trkpt lat="45.62787" lon="5.28804">
        <ele>226</ele>
        <time>2021-02-28T11:34:51.163Z</time>
      </trkpt>
      <trkpt lat="45.62782" lon="5.28798">
        <ele>226</ele>
        <time>2021-02-28T11:34:52.164Z</time>
      </trkpt>
      <trkpt lat="45.62778" lon="5.28793">
        <ele>225</ele>
        <time>2021-02-28T11:34:53.164Z</time>
      </trkpt>
      <trkpt lat="45.62773" lon="5.28787">
        <ele>225</ele>
        <time>2021-02-28T11:34:54.164Z</time>
      </trkpt>
      <trkpt lat="45.62769" lon="5.28781">
        <ele>224</ele>
        <time>2021-02-28T11:34:55.164Z</time>
      </trkpt>
      <trkpt lat="45.62764" lon="5.28776">
        <ele>224</ele>
        <time>2021-02-28T11:34:56.164Z</time>
      </trkpt>
      <trkpt lat="45.6276" lon="5.2877">
        <ele>223</ele>
        <time>2021-02-28T11:34:57.163Z</time>
      </trkpt>
      <trkpt lat="45.62756" lon="5.28764">
        <ele>223</ele>
        <time>2021-02-28T11:34:58.164Z</time>
      </trkpt>
      <trkpt lat="45.62751" lon="5.28758">
        <ele>223</ele>
        <time>2021-02-28T11:34:59.164Z</time>
      </trkpt>
      <trkpt lat="45.62747" lon="5.28752">
        <ele>222</ele>
        <time>2021-02-28T11:35:00.163Z</time>
      </trkpt>
      <trkpt lat="45.62742" lon="5.28747">
        <ele>222</ele>
        <time>2021-02-28T11:35:01.164Z</time>
      </trkpt>
      <trkpt lat="45.62738" lon="5.28741">
        <ele>222</ele>
        <time>2021-02-28T11:35:02.164Z</time>
      </trkpt>
      <trkpt lat="45.62733" lon="5.28735">
        <ele>222</ele>
        <time>2021-02-28T11:35:03.164Z</time>
      </trkpt>
      <trkpt lat="45.62729" lon="5.28729">
        <ele>221</ele>
        <time>2021-02-28T11:35:04.163Z</time>
      </trkpt>
      <trkpt lat="45.62724" lon="5.28723">
        <ele>220</ele>
        <time>2021-02-28T11:35:05.164Z</time>
      </trkpt>
      <trkpt lat="45.62719" lon="5.28718">
        <ele>220</ele>
        <time>2021-02-28T11:35:06.163Z</time>
      </trkpt>
      <trkpt lat="45.62714" lon="5.28714">
        <ele>220</ele>
        <time>2021-02-28T11:35:07.163Z</time>
      </trkpt>
      <trkpt lat="45.62708" lon="5.2871">
        <ele>220</ele>
        <time>2021-02-28T11:35:08.164Z</time>
      </trkpt>
      <trkpt lat="45.62702" lon="5.28707">
        <ele>221</ele>
        <time>2021-02-28T11:35:09.164Z</time>
      </trkpt>
      <trkpt lat="45.62696" lon="5.28704">
        <ele>221</ele>
        <time>2021-02-28T11:35:10.164Z</time>
      </trkpt>
      <trkpt lat="45.6269" lon="5.28701">
        <ele>221</ele>
        <time>2021-02-28T11:35:11.164Z</time>
      </trkpt>
      <trkpt lat="45.62684" lon="5.28699">
        <ele>221</ele>
        <time>2021-02-28T11:35:12.164Z</time>
      </trkpt>
      <trkpt lat="45.62678" lon="5.28698">
        <ele>221</ele>
        <time>2021-02-28T11:35:13.164Z</time>
      </trkpt>
      <trkpt lat="45.62672" lon="5.28696">
        <ele>221</ele>
        <time>2021-02-28T11:35:14.164Z</time>
      </trkpt>
      <trkpt lat="45.62665" lon="5.28694">
        <ele>221</ele>
        <time>2021-02-28T11:35:15.164Z</time>
      </trkpt>
      <trkpt lat="45.62659" lon="5.28691">
        <ele>221</ele>
        <time>2021-02-28T11:35:16.163Z</time>
      </trkpt>
      <trkpt lat="45.62653" lon="5.28688">
        <ele>222</ele>
        <time>2021-02-28T11:35:17.164Z</time>
      </trkpt>
      <trkpt lat="45.62647" lon="5.28685">
        <ele>222</ele>
        <time>2021-02-28T11:35:18.164Z</time>
      </trkpt>
      <trkpt lat="45.62641" lon="5.28683">
        <ele>222</ele>
        <time>2021-02-28T11:35:19.164Z</time>
      </trkpt>
      <trkpt lat="45.62635" lon="5.2868">
        <ele>222</ele>
        <time>2021-02-28T11:35:20.163Z</time>
      </trkpt>
      <trkpt lat="45.6263" lon="5.28679">
        <ele>222</ele>
        <time>2021-02-28T11:35:21.164Z</time>
      </trkpt>
      <trkpt lat="45.62625" lon="5.28677">
        <ele>221</ele>
        <time>2021-02-28T11:35:22.164Z</time>
      </trkpt>
      <trkpt lat="45.6262" lon="5.28675">
        <ele>221</ele>
        <time>2021-02-28T11:35:23.164Z</time>
      </trkpt>
      <trkpt lat="45.62616" lon="5.28672">
        <ele>221</ele>
        <time>2021-02-28T11:35:24.164Z</time>
      </trkpt>
      <trkpt lat="45.62612" lon="5.28668">
        <ele>220</ele>
        <time>2021-02-28T11:35:25.164Z</time>
      </trkpt>
      <trkpt lat="45.62608" lon="5.28664">
        <ele>221</ele>
        <time>2021-02-28T11:35:26.164Z</time>
      </trkpt>
      <trkpt lat="45.62604" lon="5.28659">
        <ele>221</ele>
        <time>2021-02-28T11:35:27.163Z</time>
      </trkpt>
      <trkpt lat="45.626" lon="5.28655">
        <ele>221</ele>
        <time>2021-02-28T11:35:28.163Z</time>
      </trkpt>
      <trkpt lat="45.62595" lon="5.28652">
        <ele>221</ele>
        <time>2021-02-28T11:35:29.164Z</time>
      </trkpt>
      <trkpt lat="45.6259" lon="5.2865">
        <ele>221</ele>
        <time>2021-02-28T11:35:30.164Z</time>
      </trkpt>
      <trkpt lat="45.62585" lon="5.28648">
        <ele>221</ele>
        <time>2021-02-28T11:35:31.163Z</time>
      </trkpt>
      <trkpt lat="45.6258" lon="5.28645">
        <ele>222</ele>
        <time>2021-02-28T11:35:32.164Z</time>
      </trkpt>
      <trkpt lat="45.62575" lon="5.2864">
        <ele>222</ele>
        <time>2021-02-28T11:35:33.164Z</time>
      </trkpt>
      <trkpt lat="45.62571" lon="5.28635">
        <ele>222</ele>
        <time>2021-02-28T11:35:34.164Z</time>
      </trkpt>
      <trkpt lat="45.62566" lon="5.28629">
        <ele>222</ele>
        <time>2021-02-28T11:35:35.164Z</time>
      </trkpt>
      <trkpt lat="45.62562" lon="5.28622">
        <ele>221</ele>
        <time>2021-02-28T11:35:36.163Z</time>
      </trkpt>
      <trkpt lat="45.62557" lon="5.28616">
        <ele>221</ele>
        <time>2021-02-28T11:35:37.164Z</time>
      </trkpt>
      <trkpt lat="45.62553" lon="5.2861">
        <ele>221</ele>
        <time>2021-02-28T11:35:38.164Z</time>
      </trkpt>
      <trkpt lat="45.62548" lon="5.28604">
        <ele>221</ele>
        <time>2021-02-28T11:35:39.163Z</time>
      </trkpt>
      <trkpt lat="45.62544" lon="5.28598">
        <ele>221</ele>
        <time>2021-02-28T11:35:40.164Z</time>
      </trkpt>
      <trkpt lat="45.62539" lon="5.28593">
        <ele>222</ele>
        <time>2021-02-28T11:35:41.164Z</time>
      </trkpt>
      <trkpt lat="45.62535" lon="5.28588">
        <ele>222</ele>
        <time>2021-02-28T11:35:42.164Z</time>
      </trkpt>
      <trkpt lat="45.62531" lon="5.28583">
        <ele>222</ele>
        <time>2021-02-28T11:35:43.164Z</time>
      </trkpt>
      <trkpt lat="45.62526" lon="5.28578">
        <ele>223</ele>
        <time>2021-02-28T11:35:44.164Z</time>
      </trkpt>
      <trkpt lat="45.62522" lon="5.28572">
        <ele>223</ele>
        <time>2021-02-28T11:35:45.163Z</time>
      </trkpt>
      <trkpt lat="45.62518" lon="5.28567">
        <ele>223</ele>
        <time>2021-02-28T11:35:46.164Z</time>
      </trkpt>
      <trkpt lat="45.62514" lon="5.28562">
        <ele>223</ele>
        <time>2021-02-28T11:35:47.163Z</time>
      </trkpt>
      <trkpt lat="45.6251" lon="5.28556">
        <ele>224</ele>
        <time>2021-02-28T11:35:48.164Z</time>
      </trkpt>
      <trkpt lat="45.62506" lon="5.2855">
        <ele>224</ele>
        <time>2021-02-28T11:35:49.163Z</time>
      </trkpt>
      <trkpt lat="45.62502" lon="5.28543">
        <ele>224</ele>
        <time>2021-02-28T11:35:50.164Z</time>
      </trkpt>
      <trkpt lat="45.62499" lon="5.28536">
        <ele>224</ele>
        <time>2021-02-28T11:35:51.164Z</time>
      </trkpt>
      <trkpt lat="45.62496" lon="5.28529">
        <ele>223</ele>
        <time>2021-02-28T11:35:52.163Z</time>
      </trkpt>
      <trkpt lat="45.62493" lon="5.28521">
        <ele>223</ele>
        <time>2021-02-28T11:35:53.164Z</time>
      </trkpt>
      <trkpt lat="45.6249" lon="5.28512">
        <ele>223</ele>
        <time>2021-02-28T11:35:54.164Z</time>
      </trkpt>
      <trkpt lat="45.62488" lon="5.28504">
        <ele>224</ele>
        <time>2021-02-28T11:35:55.164Z</time>
      </trkpt>
      <trkpt lat="45.62487" lon="5.28495">
        <ele>223</ele>
        <time>2021-02-28T11:35:56.164Z</time>
      </trkpt>
      <trkpt lat="45.62485" lon="5.28486">
        <ele>223</ele>
        <time>2021-02-28T11:35:57.164Z</time>
      </trkpt>
      <trkpt lat="45.62484" lon="5.28477">
        <ele>223</ele>
        <time>2021-02-28T11:35:58.164Z</time>
      </trkpt>
      <trkpt lat="45.62483" lon="5.28468">
        <ele>223</ele>
        <time>2021-02-28T11:35:59.164Z</time>
      </trkpt>
      <trkpt lat="45.62481" lon="5.28459">
        <ele>223</ele>
        <time>2021-02-28T11:36:00.164Z</time>
      </trkpt>
      <trkpt lat="45.6248" lon="5.2845">
        <ele>223</ele>
        <time>2021-02-28T11:36:01.164Z</time>
      </trkpt>
      <trkpt lat="45.62479" lon="5.28442">
        <ele>222</ele>
        <time>2021-02-28T11:36:02.164Z</time>
      </trkpt>
      <trkpt lat="45.62477" lon="5.28434">
        <ele>222</ele>
        <time>2021-02-28T11:36:03.164Z</time>
      </trkpt>
      <trkpt lat="45.62475" lon="5.28426">
        <ele>222</ele>
        <time>2021-02-28T11:36:04.163Z</time>
      </trkpt>
      <trkpt lat="45.62473" lon="5.28418">
        <ele>222</ele>
        <time>2021-02-28T11:36:05.164Z</time>
      </trkpt>
      <trkpt lat="45.62471" lon="5.28411">
        <ele>222</ele>
        <time>2021-02-28T11:36:06.164Z</time>
      </trkpt>
      <trkpt lat="45.62468" lon="5.28403">
        <ele>222</ele>
        <time>2021-02-28T11:36:07.164Z</time>
      </trkpt>
      <trkpt lat="45.62465" lon="5.28396">
        <ele>222</ele>
        <time>2021-02-28T11:36:08.164Z</time>
      </trkpt>
      <trkpt lat="45.62462" lon="5.2839">
        <ele>222</ele>
        <time>2021-02-28T11:36:09.164Z</time>
      </trkpt>
      <trkpt lat="45.62458" lon="5.28384">
        <ele>222</ele>
        <time>2021-02-28T11:36:10.164Z</time>
      </trkpt>
      <trkpt lat="45.62454" lon="5.28378">
        <ele>223</ele>
        <time>2021-02-28T11:36:11.164Z</time>
      </trkpt>
      <trkpt lat="45.6245" lon="5.28372">
        <ele>223</ele>
        <time>2021-02-28T11:36:12.164Z</time>
      </trkpt>
      <trkpt lat="45.62446" lon="5.28366">
        <ele>222</ele>
        <time>2021-02-28T11:36:13.164Z</time>
      </trkpt>
      <trkpt lat="45.62441" lon="5.2836">
        <ele>222</ele>
        <time>2021-02-28T11:36:14.163Z</time>
      </trkpt>
      <trkpt lat="45.62437" lon="5.28354">
        <ele>222</ele>
        <time>2021-02-28T11:36:15.163Z</time>
      </trkpt>
      <trkpt lat="45.62432" lon="5.28349">
        <ele>222</ele>
        <time>2021-02-28T11:36:16.163Z</time>
      </trkpt>
      <trkpt lat="45.62428" lon="5.28343">
        <ele>222</ele>
        <time>2021-02-28T11:36:17.164Z</time>
      </trkpt>
      <trkpt lat="45.62424" lon="5.28337">
        <ele>222</ele>
        <time>2021-02-28T11:36:18.164Z</time>
      </trkpt>
      <trkpt lat="45.62419" lon="5.28332">
        <ele>222</ele>
        <time>2021-02-28T11:36:19.164Z</time>
      </trkpt>
      <trkpt lat="45.62415" lon="5.28326">
        <ele>222</ele>
        <time>2021-02-28T11:36:20.163Z</time>
      </trkpt>
      <trkpt lat="45.6241" lon="5.2832">
        <ele>223</ele>
        <time>2021-02-28T11:36:21.164Z</time>
      </trkpt>
      <trkpt lat="45.62406" lon="5.28314">
        <ele>223</ele>
        <time>2021-02-28T11:36:22.164Z</time>
      </trkpt>
      <trkpt lat="45.62402" lon="5.28308">
        <ele>222</ele>
        <time>2021-02-28T11:36:23.163Z</time>
      </trkpt>
      <trkpt lat="45.62397" lon="5.28302">
        <ele>222</ele>
        <time>2021-02-28T11:36:24.163Z</time>
      </trkpt>
      <trkpt lat="45.62393" lon="5.28297">
        <ele>222</ele>
        <time>2021-02-28T11:36:25.164Z</time>
      </trkpt>
      <trkpt lat="45.62389" lon="5.28292">
        <ele>223</ele>
        <time>2021-02-28T11:36:26.164Z</time>
      </trkpt>
      <trkpt lat="45.62384" lon="5.28287">
        <ele>223</ele>
        <time>2021-02-28T11:36:27.164Z</time>
      </trkpt>
      <trkpt lat="45.6238" lon="5.28282">
        <ele>224</ele>
        <time>2021-02-28T11:36:28.164Z</time>
      </trkpt>
      <trkpt lat="45.62376" lon="5.28277">
        <ele>224</ele>
        <time>2021-02-28T11:36:29.164Z</time>
      </trkpt>
      <trkpt lat="45.62373" lon="5.28273">
        <ele>225</ele>
        <time>2021-02-28T11:36:30.164Z</time>
      </trkpt>
      <trkpt lat="45.62369" lon="5.28268">
        <ele>225</ele>
        <time>2021-02-28T11:36:31.164Z</time>
      </trkpt>
      <trkpt lat="45.62365" lon="5.28263">
        <ele>225</ele>
        <time>2021-02-28T11:36:32.163Z</time>
      </trkpt>
      <trkpt lat="45.62362" lon="5.28259">
        <ele>225</ele>
        <time>2021-02-28T11:36:33.163Z</time>
      </trkpt>
      <trkpt lat="45.62358" lon="5.28254">
        <ele>225</ele>
        <time>2021-02-28T11:36:34.164Z</time>
      </trkpt>
      <trkpt lat="45.62354" lon="5.28249">
        <ele>224</ele>
        <time>2021-02-28T11:36:35.163Z</time>
      </trkpt>
      <trkpt lat="45.6235" lon="5.28244">
        <ele>224</ele>
        <time>2021-02-28T11:36:36.164Z</time>
      </trkpt>
      <trkpt lat="45.62346" lon="5.28239">
        <ele>224</ele>
        <time>2021-02-28T11:36:37.163Z</time>
      </trkpt>
      <trkpt lat="45.62342" lon="5.28235">
        <ele>224</ele>
        <time>2021-02-28T11:36:38.164Z</time>
      </trkpt>
      <trkpt lat="45.62339" lon="5.2823">
        <ele>223</ele>
        <time>2021-02-28T11:36:39.163Z</time>
      </trkpt>
      <trkpt lat="45.62335" lon="5.28225">
        <ele>223</ele>
        <time>2021-02-28T11:36:40.163Z</time>
      </trkpt>
      <trkpt lat="45.62331" lon="5.2822">
        <ele>222</ele>
        <time>2021-02-28T11:36:41.163Z</time>
      </trkpt>
      <trkpt lat="45.62328" lon="5.28215">
        <ele>223</ele>
        <time>2021-02-28T11:36:42.163Z</time>
      </trkpt>
      <trkpt lat="45.62324" lon="5.2821">
        <ele>223</ele>
        <time>2021-02-28T11:36:43.164Z</time>
      </trkpt>
      <trkpt lat="45.6232" lon="5.28205">
        <ele>223</ele>
        <time>2021-02-28T11:36:44.164Z</time>
      </trkpt>
      <trkpt lat="45.62317" lon="5.28201">
        <ele>223</ele>
        <time>2021-02-28T11:36:45.163Z</time>
      </trkpt>
      <trkpt lat="45.62313" lon="5.28196">
        <ele>224</ele>
        <time>2021-02-28T11:36:46.164Z</time>
      </trkpt>
      <trkpt lat="45.62309" lon="5.28191">
        <ele>224</ele>
        <time>2021-02-28T11:36:47.164Z</time>
      </trkpt>
      <trkpt lat="45.62306" lon="5.28186">
        <ele>223</ele>
        <time>2021-02-28T11:36:48.164Z</time>
      </trkpt>
      <trkpt lat="45.62302" lon="5.28182">
        <ele>223</ele>
        <time>2021-02-28T11:36:49.163Z</time>
      </trkpt>
      <trkpt lat="45.62299" lon="5.28177">
        <ele>224</ele>
        <time>2021-02-28T11:36:50.164Z</time>
      </trkpt>
      <trkpt lat="45.62295" lon="5.28173">
        <ele>224</ele>
        <time>2021-02-28T11:36:51.163Z</time>
      </trkpt>
      <trkpt lat="45.62292" lon="5.28168">
        <ele>224</ele>
        <time>2021-02-28T11:36:52.164Z</time>
      </trkpt>
      <trkpt lat="45.62288" lon="5.28164">
        <ele>224</ele>
        <time>2021-02-28T11:36:53.164Z</time>
      </trkpt>
      <trkpt lat="45.62285" lon="5.28159">
        <ele>224</ele>
        <time>2021-02-28T11:36:54.164Z</time>
      </trkpt>
      <trkpt lat="45.62281" lon="5.28155">
        <ele>225</ele>
        <time>2021-02-28T11:36:55.164Z</time>
      </trkpt>
      <trkpt lat="45.62278" lon="5.2815">
        <ele>225</ele>
        <time>2021-02-28T11:36:56.163Z</time>
      </trkpt>
      <trkpt lat="45.62274" lon="5.28146">
        <ele>225</ele>
        <time>2021-02-28T11:36:57.164Z</time>
      </trkpt>
      <trkpt lat="45.6227" lon="5.28141">
        <ele>226</ele>
        <time>2021-02-28T11:36:58.163Z</time>
      </trkpt>
      <trkpt lat="45.62266" lon="5.28136">
        <ele>226</ele>
        <time>2021-02-28T11:36:59.164Z</time>
      </trkpt>
      <trkpt lat="45.62262" lon="5.28132">
        <ele>226</ele>
        <time>2021-02-28T11:37:00.163Z</time>
      </trkpt>
      <trkpt lat="45.62259" lon="5.28127">
        <ele>226</ele>
        <time>2021-02-28T11:37:01.164Z</time>
      </trkpt>
      <trkpt lat="45.62255" lon="5.28122">
        <ele>227</ele>
        <time>2021-02-28T11:37:02.164Z</time>
      </trkpt>
      <trkpt lat="45.62251" lon="5.28117">
        <ele>227</ele>
        <time>2021-02-28T11:37:03.164Z</time>
      </trkpt>
      <trkpt lat="45.62247" lon="5.28113">
        <ele>227</ele>
        <time>2021-02-28T11:37:04.164Z</time>
      </trkpt>
      <trkpt lat="45.62244" lon="5.28108">
        <ele>227</ele>
        <time>2021-02-28T11:37:05.164Z</time>
      </trkpt>
      <trkpt lat="45.6224" lon="5.28103">
        <ele>227</ele>
        <time>2021-02-28T11:37:06.164Z</time>
      </trkpt>
      <trkpt lat="45.62237" lon="5.28099">
        <ele>227</ele>
        <time>2021-02-28T11:37:07.163Z</time>
      </trkpt>
      <trkpt lat="45.62233" lon="5.28094">
        <ele>226</ele>
        <time>2021-02-28T11:37:08.164Z</time>
      </trkpt>
      <trkpt lat="45.6223" lon="5.28089">
        <ele>226</ele>
        <time>2021-02-28T11:37:09.163Z</time>
      </trkpt>
      <trkpt lat="45.62226" lon="5.28084">
        <ele>226</ele>
        <time>2021-02-28T11:37:10.164Z</time>
      </trkpt>
      <trkpt lat="45.62222" lon="5.28079">
        <ele>225</ele>
        <time>2021-02-28T11:37:11.164Z</time>
      </trkpt>
      <trkpt lat="45.62218" lon="5.28074">
        <ele>225</ele>
        <time>2021-02-28T11:37:12.164Z</time>
      </trkpt>
      <trkpt lat="45.62215" lon="5.28069">
        <ele>225</ele>
        <time>2021-02-28T11:37:13.164Z</time>
      </trkpt>
      <trkpt lat="45.62211" lon="5.28065">
        <ele>226</ele>
        <time>2021-02-28T11:37:14.163Z</time>
      </trkpt>
      <trkpt lat="45.62207" lon="5.2806">
        <ele>226</ele>
        <time>2021-02-28T11:37:15.164Z</time>
      </trkpt>
      <trkpt lat="45.62203" lon="5.28055">
        <ele>226</ele>
        <time>2021-02-28T11:37:16.164Z</time>
      </trkpt>
      <trkpt lat="45.62199" lon="5.2805">
        <ele>226</ele>
        <time>2021-02-28T11:37:17.164Z</time>
      </trkpt>
      <trkpt lat="45.62195" lon="5.28045">
        <ele>226</ele>
        <time>2021-02-28T11:37:18.163Z</time>
      </trkpt>
      <trkpt lat="45.62191" lon="5.2804">
        <ele>226</ele>
        <time>2021-02-28T11:37:19.164Z</time>
      </trkpt>
      <trkpt lat="45.62187" lon="5.28035">
        <ele>227</ele>
        <time>2021-02-28T11:37:20.163Z</time>
      </trkpt>
      <trkpt lat="45.62184" lon="5.2803">
        <ele>227</ele>
        <time>2021-02-28T11:37:21.163Z</time>
      </trkpt>
      <trkpt lat="45.6218" lon="5.28025">
        <ele>227</ele>
        <time>2021-02-28T11:37:22.164Z</time>
      </trkpt>
      <trkpt lat="45.62176" lon="5.28019">
        <ele>227</ele>
        <time>2021-02-28T11:37:23.164Z</time>
      </trkpt>
      <trkpt lat="45.62172" lon="5.28014">
        <ele>227</ele>
        <time>2021-02-28T11:37:24.164Z</time>
      </trkpt>
      <trkpt lat="45.62169" lon="5.2801">
        <ele>228</ele>
        <time>2021-02-28T11:37:25.164Z</time>
      </trkpt>
      <trkpt lat="45.62165" lon="5.28005">
        <ele>228</ele>
        <time>2021-02-28T11:37:26.164Z</time>
      </trkpt>
      <trkpt lat="45.62162" lon="5.28">
        <ele>228</ele>
        <time>2021-02-28T11:37:27.163Z</time>
      </trkpt>
      <trkpt lat="45.62159" lon="5.27995">
        <ele>228</ele>
        <time>2021-02-28T11:37:28.164Z</time>
      </trkpt>
      <trkpt lat="45.62156" lon="5.2799">
        <ele>228</ele>
        <time>2021-02-28T11:37:29.164Z</time>
      </trkpt>
      <trkpt lat="45.62153" lon="5.27985">
        <ele>228</ele>
        <time>2021-02-28T11:37:30.164Z</time>
      </trkpt>
      <trkpt lat="45.62149" lon="5.2798">
        <ele>229</ele>
        <time>2021-02-28T11:37:31.164Z</time>
      </trkpt>
      <trkpt lat="45.62146" lon="5.27975">
        <ele>229</ele>
        <time>2021-02-28T11:37:32.163Z</time>
      </trkpt>
      <trkpt lat="45.62143" lon="5.2797">
        <ele>229</ele>
        <time>2021-02-28T11:37:33.164Z</time>
      </trkpt>
      <trkpt lat="45.62139" lon="5.27964">
        <ele>229</ele>
        <time>2021-02-28T11:37:34.164Z</time>
      </trkpt>
      <trkpt lat="45.62136" lon="5.27958">
        <ele>230</ele>
        <time>2021-02-28T11:37:35.164Z</time>
      </trkpt>
      <trkpt lat="45.62132" lon="5.27952">
        <ele>230</ele>
        <time>2021-02-28T11:37:36.163Z</time>
      </trkpt>
      <trkpt lat="45.62128" lon="5.27946">
        <ele>230</ele>
        <time>2021-02-28T11:37:37.163Z</time>
      </trkpt>
      <trkpt lat="45.62125" lon="5.2794">
        <ele>230</ele>
        <time>2021-02-28T11:37:38.164Z</time>
      </trkpt>
      <trkpt lat="45.62121" lon="5.27934">
        <ele>230</ele>
        <time>2021-02-28T11:37:39.163Z</time>
      </trkpt>
      <trkpt lat="45.62117" lon="5.27928">
        <ele>230</ele>
        <time>2021-02-28T11:37:40.164Z</time>
      </trkpt>
      <trkpt lat="45.62114" lon="5.27922">
        <ele>231</ele>
        <time>2021-02-28T11:37:41.164Z</time>
      </trkpt>
      <trkpt lat="45.6211" lon="5.27915">
        <ele>231</ele>
        <time>2021-02-28T11:37:42.164Z</time>
      </trkpt>
      <trkpt lat="45.62107" lon="5.27909">
        <ele>232</ele>
        <time>2021-02-28T11:37:43.164Z</time>
      </trkpt>
      <trkpt lat="45.62103" lon="5.27903">
        <ele>233</ele>
        <time>2021-02-28T11:37:44.164Z</time>
      </trkpt>
      <trkpt lat="45.621" lon="5.27896">
        <ele>233</ele>
        <time>2021-02-28T11:37:45.164Z</time>
      </trkpt>
      <trkpt lat="45.62096" lon="5.2789">
        <ele>233</ele>
        <time>2021-02-28T11:37:46.164Z</time>
      </trkpt>
      <trkpt lat="45.62093" lon="5.27883">
        <ele>233</ele>
        <time>2021-02-28T11:37:47.164Z</time>
      </trkpt>
      <trkpt lat="45.62089" lon="5.27876">
        <ele>233</ele>
        <time>2021-02-28T11:37:48.164Z</time>
      </trkpt>
      <trkpt lat="45.62086" lon="5.27869">
        <ele>233</ele>
        <time>2021-02-28T11:37:49.164Z</time>
      </trkpt>
      <trkpt lat="45.62082" lon="5.27862">
        <ele>233</ele>
        <time>2021-02-28T11:37:50.164Z</time>
      </trkpt>
      <trkpt lat="45.62079" lon="5.27855">
        <ele>233</ele>
        <time>2021-02-28T11:37:51.164Z</time>
      </trkpt>
      <trkpt lat="45.62076" lon="5.27848">
        <ele>233</ele>
        <time>2021-02-28T11:37:52.164Z</time>
      </trkpt>
      <trkpt lat="45.62072" lon="5.2784">
        <ele>233</ele>
        <time>2021-02-28T11:37:53.164Z</time>
      </trkpt>
      <trkpt lat="45.62069" lon="5.27832">
        <ele>233</ele>
        <time>2021-02-28T11:37:54.164Z</time>
      </trkpt>
      <trkpt lat="45.62065" lon="5.27824">
        <ele>232</ele>
        <time>2021-02-28T11:37:55.164Z</time>
      </trkpt>
      <trkpt lat="45.62062" lon="5.27817">
        <ele>232</ele>
        <time>2021-02-28T11:37:56.164Z</time>
      </trkpt>
      <trkpt lat="45.62058" lon="5.27809">
        <ele>232</ele>
        <time>2021-02-28T11:37:57.164Z</time>
      </trkpt>
      <trkpt lat="45.62054" lon="5.27801">
        <ele>232</ele>
        <time>2021-02-28T11:37:58.164Z</time>
      </trkpt>
      <trkpt lat="45.6205" lon="5.27793">
        <ele>231</ele>
        <time>2021-02-28T11:37:59.164Z</time>
      </trkpt>
      <trkpt lat="45.62045" lon="5.27785">
        <ele>231</ele>
        <time>2021-02-28T11:38:00.164Z</time>
      </trkpt>
      <trkpt lat="45.62041" lon="5.27777">
        <ele>230</ele>
        <time>2021-02-28T11:38:01.164Z</time>
      </trkpt>
      <trkpt lat="45.62037" lon="5.27769">
        <ele>230</ele>
        <time>2021-02-28T11:38:02.164Z</time>
      </trkpt>
      <trkpt lat="45.62033" lon="5.2776">
        <ele>229</ele>
        <time>2021-02-28T11:38:03.164Z</time>
      </trkpt>
      <trkpt lat="45.62029" lon="5.27751">
        <ele>229</ele>
        <time>2021-02-28T11:38:04.164Z</time>
      </trkpt>
      <trkpt lat="45.62026" lon="5.27742">
        <ele>229</ele>
        <time>2021-02-28T11:38:05.164Z</time>
      </trkpt>
      <trkpt lat="45.62023" lon="5.27733">
        <ele>228</ele>
        <time>2021-02-28T11:38:06.164Z</time>
      </trkpt>
      <trkpt lat="45.6202" lon="5.27724">
        <ele>228</ele>
        <time>2021-02-28T11:38:07.164Z</time>
      </trkpt>
      <trkpt lat="45.62017" lon="5.27715">
        <ele>228</ele>
        <time>2021-02-28T11:38:08.164Z</time>
      </trkpt>
      <trkpt lat="45.62014" lon="5.27706">
        <ele>228</ele>
        <time>2021-02-28T11:38:09.164Z</time>
      </trkpt>
      <trkpt lat="45.62011" lon="5.27697">
        <ele>228</ele>
        <time>2021-02-28T11:38:10.164Z</time>
      </trkpt>
      <trkpt lat="45.62008" lon="5.27687">
        <ele>228</ele>
        <time>2021-02-28T11:38:11.164Z</time>
      </trkpt>
      <trkpt lat="45.62005" lon="5.27678">
        <ele>227</ele>
        <time>2021-02-28T11:38:12.164Z</time>
      </trkpt>
      <trkpt lat="45.62002" lon="5.27669">
        <ele>227</ele>
        <time>2021-02-28T11:38:13.163Z</time>
      </trkpt>
      <trkpt lat="45.61999" lon="5.2766">
        <ele>227</ele>
        <time>2021-02-28T11:38:14.164Z</time>
      </trkpt>
      <trkpt lat="45.61996" lon="5.27651">
        <ele>227</ele>
        <time>2021-02-28T11:38:15.164Z</time>
      </trkpt>
      <trkpt lat="45.61993" lon="5.27642">
        <ele>227</ele>
        <time>2021-02-28T11:38:16.164Z</time>
      </trkpt>
      <trkpt lat="45.61991" lon="5.27636">
        <ele>226</ele>
        <time>2021-02-28T11:38:17.163Z</time>
      </trkpt>
      <trkpt lat="45.61987" lon="5.27629">
        <ele>226</ele>
        <time>2021-02-28T11:38:18.164Z</time>
      </trkpt>
      <trkpt lat="45.61982" lon="5.27622">
        <ele>226</ele>
        <time>2021-02-28T11:38:19.164Z</time>
      </trkpt>
      <trkpt lat="45.61977" lon="5.27616">
        <ele>225</ele>
        <time>2021-02-28T11:38:20.164Z</time>
      </trkpt>
      <trkpt lat="45.61973" lon="5.27609">
        <ele>225</ele>
        <time>2021-02-28T11:38:21.164Z</time>
      </trkpt>
      <trkpt lat="45.61969" lon="5.27602">
        <ele>224</ele>
        <time>2021-02-28T11:38:22.164Z</time>
      </trkpt>
      <trkpt lat="45.61965" lon="5.27594">
        <ele>224</ele>
        <time>2021-02-28T11:38:23.164Z</time>
      </trkpt>
      <trkpt lat="45.61961" lon="5.27588">
        <ele>223</ele>
        <time>2021-02-28T11:38:24.163Z</time>
      </trkpt>
      <trkpt lat="45.61956" lon="5.27581">
        <ele>222</ele>
        <time>2021-02-28T11:38:25.164Z</time>
      </trkpt>
      <trkpt lat="45.61952" lon="5.27576">
        <ele>222</ele>
        <time>2021-02-28T11:38:26.164Z</time>
      </trkpt>
      <trkpt lat="45.61948" lon="5.2757">
        <ele>222</ele>
        <time>2021-02-28T11:38:27.163Z</time>
      </trkpt>
      <trkpt lat="45.61943" lon="5.27565">
        <ele>222</ele>
        <time>2021-02-28T11:38:28.164Z</time>
      </trkpt>
      <trkpt lat="45.61939" lon="5.27561">
        <ele>221</ele>
        <time>2021-02-28T11:38:29.164Z</time>
      </trkpt>
      <trkpt lat="45.61934" lon="5.27556">
        <ele>221</ele>
        <time>2021-02-28T11:38:30.163Z</time>
      </trkpt>
      <trkpt lat="45.6193" lon="5.27552">
        <ele>222</ele>
        <time>2021-02-28T11:38:31.163Z</time>
      </trkpt>
      <trkpt lat="45.61925" lon="5.27548">
        <ele>221</ele>
        <time>2021-02-28T11:38:32.164Z</time>
      </trkpt>
      <trkpt lat="45.61921" lon="5.27544">
        <ele>221</ele>
        <time>2021-02-28T11:38:33.163Z</time>
      </trkpt>
      <trkpt lat="45.61916" lon="5.2754">
        <ele>222</ele>
        <time>2021-02-28T11:38:34.163Z</time>
      </trkpt>
      <trkpt lat="45.61911" lon="5.27536">
        <ele>222</ele>
        <time>2021-02-28T11:38:35.164Z</time>
      </trkpt>
      <trkpt lat="45.61907" lon="5.27533">
        <ele>222</ele>
        <time>2021-02-28T11:38:36.163Z</time>
      </trkpt>
      <trkpt lat="45.61902" lon="5.27529">
        <ele>222</ele>
        <time>2021-02-28T11:38:37.164Z</time>
      </trkpt>
      <trkpt lat="45.61897" lon="5.27525">
        <ele>222</ele>
        <time>2021-02-28T11:38:38.164Z</time>
      </trkpt>
      <trkpt lat="45.61892" lon="5.27521">
        <ele>223</ele>
        <time>2021-02-28T11:38:39.164Z</time>
      </trkpt>
      <trkpt lat="45.61888" lon="5.27517">
        <ele>223</ele>
        <time>2021-02-28T11:38:40.164Z</time>
      </trkpt>
      <trkpt lat="45.61883" lon="5.27513">
        <ele>223</ele>
        <time>2021-02-28T11:38:41.163Z</time>
      </trkpt>
      <trkpt lat="45.61878" lon="5.2751">
        <ele>223</ele>
        <time>2021-02-28T11:38:42.164Z</time>
      </trkpt>
      <trkpt lat="45.61873" lon="5.27506">
        <ele>224</ele>
        <time>2021-02-28T11:38:43.164Z</time>
      </trkpt>
      <trkpt lat="45.61869" lon="5.27503">
        <ele>224</ele>
        <time>2021-02-28T11:38:44.163Z</time>
      </trkpt>
      <trkpt lat="45.61864" lon="5.27499">
        <ele>224</ele>
        <time>2021-02-28T11:38:45.164Z</time>
      </trkpt>
      <trkpt lat="45.6186" lon="5.27496">
        <ele>224</ele>
        <time>2021-02-28T11:38:46.164Z</time>
      </trkpt>
      <trkpt lat="45.61856" lon="5.27493">
        <ele>224</ele>
        <time>2021-02-28T11:38:47.163Z</time>
      </trkpt>
      <trkpt lat="45.61852" lon="5.2749">
        <ele>224</ele>
        <time>2021-02-28T11:38:48.164Z</time>
      </trkpt>
      <trkpt lat="45.61848" lon="5.27488">
        <ele>223</ele>
        <time>2021-02-28T11:38:49.164Z</time>
      </trkpt>
      <trkpt lat="45.61844" lon="5.27486">
        <ele>223</ele>
        <time>2021-02-28T11:38:50.164Z</time>
      </trkpt>
      <trkpt lat="45.61839" lon="5.27486">
        <ele>223</ele>
        <time>2021-02-28T11:38:51.164Z</time>
      </trkpt>
      <trkpt lat="45.61835" lon="5.27487">
        <ele>223</ele>
        <time>2021-02-28T11:38:52.163Z</time>
      </trkpt>
      <trkpt lat="45.61832" lon="5.27489">
        <ele>223</ele>
        <time>2021-02-28T11:38:53.164Z</time>
      </trkpt>
      <trkpt lat="45.61829" lon="5.27492">
        <ele>223</ele>
        <time>2021-02-28T11:38:54.164Z</time>
      </trkpt>
      <trkpt lat="45.61827" lon="5.27496">
        <ele>223</ele>
        <time>2021-02-28T11:38:55.163Z</time>
      </trkpt>
      <trkpt lat="45.61824" lon="5.27501">
        <ele>224</ele>
        <time>2021-02-28T11:38:56.164Z</time>
      </trkpt>
      <trkpt lat="45.61823" lon="5.27506">
        <ele>223</ele>
        <time>2021-02-28T11:38:57.164Z</time>
      </trkpt>
      <trkpt lat="45.61821" lon="5.27513">
        <ele>223</ele>
        <time>2021-02-28T11:38:58.164Z</time>
      </trkpt>
      <trkpt lat="45.61819" lon="5.27519">
        <ele>223</ele>
        <time>2021-02-28T11:38:59.164Z</time>
      </trkpt>
      <trkpt lat="45.61818" lon="5.27525">
        <ele>224</ele>
        <time>2021-02-28T11:39:00.163Z</time>
      </trkpt>
      <trkpt lat="45.61816" lon="5.2753">
        <ele>224</ele>
        <time>2021-02-28T11:39:01.164Z</time>
      </trkpt>
      <trkpt lat="45.61815" lon="5.27537">
        <ele>224</ele>
        <time>2021-02-28T11:39:02.163Z</time>
      </trkpt>
      <trkpt lat="45.61813" lon="5.27544">
        <ele>224</ele>
        <time>2021-02-28T11:39:03.164Z</time>
      </trkpt>
      <trkpt lat="45.61811" lon="5.27551">
        <ele>224</ele>
        <time>2021-02-28T11:39:04.164Z</time>
      </trkpt>
      <trkpt lat="45.61809" lon="5.27557">
        <ele>224</ele>
        <time>2021-02-28T11:39:05.164Z</time>
      </trkpt>
      <trkpt lat="45.61808" lon="5.27562">
        <ele>224</ele>
        <time>2021-02-28T11:39:06.164Z</time>
      </trkpt>
      <trkpt lat="45.61807" lon="5.27569">
        <ele>224</ele>
        <time>2021-02-28T11:39:07.163Z</time>
      </trkpt>
      <trkpt lat="45.61804" lon="5.27576">
        <ele>224</ele>
        <time>2021-02-28T11:39:08.164Z</time>
      </trkpt>
      <trkpt lat="45.61803" lon="5.27583">
        <ele>224</ele>
        <time>2021-02-28T11:39:09.164Z</time>
      </trkpt>
      <trkpt lat="45.61801" lon="5.27589">
        <ele>224</ele>
        <time>2021-02-28T11:39:10.163Z</time>
      </trkpt>
      <trkpt lat="45.618" lon="5.27593">
        <ele>224</ele>
        <time>2021-02-28T11:39:11.163Z</time>
      </trkpt>
      <trkpt lat="45.61798" lon="5.276">
        <ele>223</ele>
        <time>2021-02-28T11:39:12.164Z</time>
      </trkpt>
      <trkpt lat="45.61796" lon="5.27607">
        <ele>223</ele>
        <time>2021-02-28T11:39:13.164Z</time>
      </trkpt>
      <trkpt lat="45.61795" lon="5.27613">
        <ele>223</ele>
        <time>2021-02-28T11:39:14.164Z</time>
      </trkpt>
      <trkpt lat="45.61794" lon="5.27618">
        <ele>223</ele>
        <time>2021-02-28T11:39:15.164Z</time>
      </trkpt>
      <trkpt lat="45.61792" lon="5.27624">
        <ele>223</ele>
        <time>2021-02-28T11:39:16.164Z</time>
      </trkpt>
      <trkpt lat="45.6179" lon="5.27631">
        <ele>224</ele>
        <time>2021-02-28T11:39:17.163Z</time>
      </trkpt>
      <trkpt lat="45.61789" lon="5.27636">
        <ele>224</ele>
        <time>2021-02-28T11:39:18.164Z</time>
      </trkpt>
      <trkpt lat="45.61787" lon="5.27642">
        <ele>224</ele>
        <time>2021-02-28T11:39:19.164Z</time>
      </trkpt>
      <trkpt lat="45.61786" lon="5.27646">
        <ele>224</ele>
        <time>2021-02-28T11:39:20.164Z</time>
      </trkpt>
      <trkpt lat="45.61784" lon="5.27652">
        <ele>224</ele>
        <time>2021-02-28T11:39:21.164Z</time>
      </trkpt>
      <trkpt lat="45.61783" lon="5.27657">
        <ele>224</ele>
        <time>2021-02-28T11:39:22.164Z</time>
      </trkpt>
      <trkpt lat="45.6178" lon="5.27664">
        <ele>224</ele>
        <time>2021-02-28T11:39:23.164Z</time>
      </trkpt>
      <trkpt lat="45.61779" lon="5.27669">
        <ele>223</ele>
        <time>2021-02-28T11:39:24.164Z</time>
      </trkpt>
      <trkpt lat="45.61777" lon="5.27674">
        <ele>224</ele>
        <time>2021-02-28T11:39:25.164Z</time>
      </trkpt>
      <trkpt lat="45.61775" lon="5.27679">
        <ele>224</ele>
        <time>2021-02-28T11:39:26.164Z</time>
      </trkpt>
      <trkpt lat="45.61773" lon="5.27684">
        <ele>224</ele>
        <time>2021-02-28T11:39:27.164Z</time>
      </trkpt>
      <trkpt lat="45.6177" lon="5.27688">
        <ele>224</ele>
        <time>2021-02-28T11:39:28.163Z</time>
      </trkpt>
      <trkpt lat="45.61767" lon="5.27691">
        <ele>224</ele>
        <time>2021-02-28T11:39:29.164Z</time>
      </trkpt>
      <trkpt lat="45.61764" lon="5.27692">
        <ele>224</ele>
        <time>2021-02-28T11:39:30.164Z</time>
      </trkpt>
      <trkpt lat="45.6176" lon="5.27692">
        <ele>225</ele>
        <time>2021-02-28T11:39:31.164Z</time>
      </trkpt>
      <trkpt lat="45.61756" lon="5.27691">
        <ele>225</ele>
        <time>2021-02-28T11:39:32.164Z</time>
      </trkpt>
      <trkpt lat="45.61752" lon="5.27689">
        <ele>225</ele>
        <time>2021-02-28T11:39:33.163Z</time>
      </trkpt>
      <trkpt lat="45.61748" lon="5.27687">
        <ele>226</ele>
        <time>2021-02-28T11:39:34.164Z</time>
      </trkpt>
      <trkpt lat="45.61744" lon="5.27685">
        <ele>226</ele>
        <time>2021-02-28T11:39:35.164Z</time>
      </trkpt>
      <trkpt lat="45.6174" lon="5.27683">
        <ele>226</ele>
        <time>2021-02-28T11:39:36.163Z</time>
      </trkpt>
      <trkpt lat="45.61736" lon="5.27681">
        <ele>226</ele>
        <time>2021-02-28T11:39:37.164Z</time>
      </trkpt>
      <trkpt lat="45.61731" lon="5.27679">
        <ele>227</ele>
        <time>2021-02-28T11:39:38.164Z</time>
      </trkpt>
      <trkpt lat="45.61728" lon="5.27677">
        <ele>228</ele>
        <time>2021-02-28T11:39:39.163Z</time>
      </trkpt>
      <trkpt lat="45.61723" lon="5.27674">
        <ele>228</ele>
        <time>2021-02-28T11:39:40.164Z</time>
      </trkpt>
      <trkpt lat="45.61718" lon="5.27672">
        <ele>228</ele>
        <time>2021-02-28T11:39:41.164Z</time>
      </trkpt>
      <trkpt lat="45.61715" lon="5.27671">
        <ele>229</ele>
        <time>2021-02-28T11:39:42.164Z</time>
      </trkpt>
      <trkpt lat="45.61711" lon="5.27669">
        <ele>229</ele>
        <time>2021-02-28T11:39:43.163Z</time>
      </trkpt>
      <trkpt lat="45.61705" lon="5.27666">
        <ele>229</ele>
        <time>2021-02-28T11:39:44.164Z</time>
      </trkpt>
      <trkpt lat="45.61701" lon="5.27664">
        <ele>229</ele>
        <time>2021-02-28T11:39:45.163Z</time>
      </trkpt>
      <trkpt lat="45.61697" lon="5.27662">
        <ele>229</ele>
        <time>2021-02-28T11:39:46.163Z</time>
      </trkpt>
      <trkpt lat="45.61692" lon="5.27659">
        <ele>229</ele>
        <time>2021-02-28T11:39:47.164Z</time>
      </trkpt>
      <trkpt lat="45.61688" lon="5.27657">
        <ele>229</ele>
        <time>2021-02-28T11:39:48.163Z</time>
      </trkpt>
      <trkpt lat="45.61684" lon="5.27654">
        <ele>230</ele>
        <time>2021-02-28T11:39:49.164Z</time>
      </trkpt>
      <trkpt lat="45.6168" lon="5.27652">
        <ele>230</ele>
        <time>2021-02-28T11:39:50.164Z</time>
      </trkpt>
      <trkpt lat="45.61675" lon="5.2765">
        <ele>230</ele>
        <time>2021-02-28T11:39:51.163Z</time>
      </trkpt>
      <trkpt lat="45.61672" lon="5.27648">
        <ele>231</ele>
        <time>2021-02-28T11:39:52.163Z</time>
      </trkpt>
      <trkpt lat="45.61667" lon="5.27645">
        <ele>231</ele>
        <time>2021-02-28T11:39:53.163Z</time>
      </trkpt>
      <trkpt lat="45.61662" lon="5.27643">
        <ele>231</ele>
        <time>2021-02-28T11:39:54.163Z</time>
      </trkpt>
      <trkpt lat="45.61658" lon="5.27641">
        <ele>232</ele>
        <time>2021-02-28T11:39:55.163Z</time>
      </trkpt>
      <trkpt lat="45.61654" lon="5.27638">
        <ele>232</ele>
        <time>2021-02-28T11:39:56.164Z</time>
      </trkpt>
      <trkpt lat="45.61649" lon="5.27636">
        <ele>232</ele>
        <time>2021-02-28T11:39:57.163Z</time>
      </trkpt>
      <trkpt lat="45.61645" lon="5.27633">
        <ele>232</ele>
        <time>2021-02-28T11:39:58.163Z</time>
      </trkpt>
      <trkpt lat="45.61641" lon="5.27631">
        <ele>232</ele>
        <time>2021-02-28T11:39:59.163Z</time>
      </trkpt>
      <trkpt lat="45.61636" lon="5.27628">
        <ele>232</ele>
        <time>2021-02-28T11:40:00.164Z</time>
      </trkpt>
      <trkpt lat="45.61633" lon="5.27627">
        <ele>232</ele>
        <time>2021-02-28T11:40:01.164Z</time>
      </trkpt>
      <trkpt lat="45.61628" lon="5.27624">
        <ele>232</ele>
        <time>2021-02-28T11:40:02.163Z</time>
      </trkpt>
      <trkpt lat="45.61623" lon="5.27621">
        <ele>232</ele>
        <time>2021-02-28T11:40:03.164Z</time>
      </trkpt>
      <trkpt lat="45.61619" lon="5.27619">
        <ele>232</ele>
        <time>2021-02-28T11:40:04.163Z</time>
      </trkpt>
      <trkpt lat="45.61615" lon="5.27617">
        <ele>232</ele>
        <time>2021-02-28T11:40:05.164Z</time>
      </trkpt>
      <trkpt lat="45.6161" lon="5.27615">
        <ele>232</ele>
        <time>2021-02-28T11:40:06.164Z</time>
      </trkpt>
      <trkpt lat="45.61605" lon="5.27612">
        <ele>232</ele>
        <time>2021-02-28T11:40:07.163Z</time>
      </trkpt>
      <trkpt lat="45.616" lon="5.27609">
        <ele>232</ele>
        <time>2021-02-28T11:40:08.163Z</time>
      </trkpt>
      <trkpt lat="45.61596" lon="5.27607">
        <ele>232</ele>
        <time>2021-02-28T11:40:09.164Z</time>
      </trkpt>
      <trkpt lat="45.61593" lon="5.27605">
        <ele>232</ele>
        <time>2021-02-28T11:40:10.163Z</time>
      </trkpt>
      <trkpt lat="45.61588" lon="5.27601">
        <ele>232</ele>
        <time>2021-02-28T11:40:11.164Z</time>
      </trkpt>
      <trkpt lat="45.61583" lon="5.27599">
        <ele>232</ele>
        <time>2021-02-28T11:40:12.164Z</time>
      </trkpt>
      <trkpt lat="45.61579" lon="5.27596">
        <ele>232</ele>
        <time>2021-02-28T11:40:13.163Z</time>
      </trkpt>
      <trkpt lat="45.61576" lon="5.27594">
        <ele>232</ele>
        <time>2021-02-28T11:40:14.164Z</time>
      </trkpt>
      <trkpt lat="45.61571" lon="5.27591">
        <ele>232</ele>
        <time>2021-02-28T11:40:15.164Z</time>
      </trkpt>
      <trkpt lat="45.61566" lon="5.27588">
        <ele>232</ele>
        <time>2021-02-28T11:40:16.163Z</time>
      </trkpt>
      <trkpt lat="45.61562" lon="5.27586">
        <ele>231</ele>
        <time>2021-02-28T11:40:17.164Z</time>
      </trkpt>
      <trkpt lat="45.61558" lon="5.27584">
        <ele>231</ele>
        <time>2021-02-28T11:40:18.164Z</time>
      </trkpt>
      <trkpt lat="45.61555" lon="5.27582">
        <ele>231</ele>
        <time>2021-02-28T11:40:19.164Z</time>
      </trkpt>
      <trkpt lat="45.6155" lon="5.2758">
        <ele>231</ele>
        <time>2021-02-28T11:40:20.164Z</time>
      </trkpt>
      <trkpt lat="45.61547" lon="5.27578">
        <ele>231</ele>
        <time>2021-02-28T11:40:21.164Z</time>
      </trkpt>
      <trkpt lat="45.61543" lon="5.27577">
        <ele>231</ele>
        <time>2021-02-28T11:40:22.164Z</time>
      </trkpt>
      <trkpt lat="45.6154" lon="5.27575">
        <ele>231</ele>
        <time>2021-02-28T11:40:23.164Z</time>
      </trkpt>
      <trkpt lat="45.61538" lon="5.27574">
        <ele>231</ele>
        <time>2021-02-28T11:40:24.163Z</time>
      </trkpt>
      <trkpt lat="45.61534" lon="5.27572">
        <ele>231</ele>
        <time>2021-02-28T11:40:25.164Z</time>
      </trkpt>
      <trkpt lat="45.61532" lon="5.27571">
        <ele>232</ele>
        <time>2021-02-28T11:40:26.164Z</time>
      </trkpt>
      <trkpt lat="45.61529" lon="5.2757">
        <ele>232</ele>
        <time>2021-02-28T11:40:27.163Z</time>
      </trkpt>
      <trkpt lat="45.61527" lon="5.27568">
        <ele>232</ele>
        <time>2021-02-28T11:40:28.164Z</time>
      </trkpt>
      <trkpt lat="45.61525" lon="5.27564">
        <ele>232</ele>
        <time>2021-02-28T11:40:29.164Z</time>
      </trkpt>
      <trkpt lat="45.61524" lon="5.27561">
        <ele>233</ele>
        <time>2021-02-28T11:40:30.164Z</time>
      </trkpt>
      <trkpt lat="45.61524" lon="5.27557">
        <ele>232</ele>
        <time>2021-02-28T11:40:31.163Z</time>
      </trkpt>
      <trkpt lat="45.61524" lon="5.27554">
        <ele>232</ele>
        <time>2021-02-28T11:40:32.164Z</time>
      </trkpt>
      <trkpt lat="45.61524" lon="5.2755">
        <ele>232</ele>
        <time>2021-02-28T11:40:33.164Z</time>
      </trkpt>
      <trkpt lat="45.61525" lon="5.27545">
        <ele>232</ele>
        <time>2021-02-28T11:40:34.164Z</time>
      </trkpt>
      <trkpt lat="45.61525" lon="5.27541">
        <ele>231</ele>
        <time>2021-02-28T11:40:35.163Z</time>
      </trkpt>
      <trkpt lat="45.61527" lon="5.27536">
        <ele>231</ele>
        <time>2021-02-28T11:40:36.163Z</time>
      </trkpt>
      <trkpt lat="45.61528" lon="5.27531">
        <ele>231</ele>
        <time>2021-02-28T11:40:37.163Z</time>
      </trkpt>
      <trkpt lat="45.61529" lon="5.27527">
        <ele>230</ele>
        <time>2021-02-28T11:40:38.164Z</time>
      </trkpt>
      <trkpt lat="45.61531" lon="5.2752">
        <ele>230</ele>
        <time>2021-02-28T11:40:39.164Z</time>
      </trkpt>
      <trkpt lat="45.61532" lon="5.27513">
        <ele>230</ele>
        <time>2021-02-28T11:40:40.164Z</time>
      </trkpt>
      <trkpt lat="45.61534" lon="5.27506">
        <ele>229</ele>
        <time>2021-02-28T11:40:41.164Z</time>
      </trkpt>
      <trkpt lat="45.61535" lon="5.27501">
        <ele>229</ele>
        <time>2021-02-28T11:40:42.164Z</time>
      </trkpt>
      <trkpt lat="45.61536" lon="5.27494">
        <ele>229</ele>
        <time>2021-02-28T11:40:43.164Z</time>
      </trkpt>
      <trkpt lat="45.61537" lon="5.27489">
        <ele>228</ele>
        <time>2021-02-28T11:40:44.163Z</time>
      </trkpt>
      <trkpt lat="45.61536" lon="5.27484">
        <ele>228</ele>
        <time>2021-02-28T11:40:45.164Z</time>
      </trkpt>
      <trkpt lat="45.61534" lon="5.27482">
        <ele>228</ele>
        <time>2021-02-28T11:40:46.164Z</time>
      </trkpt>
      <trkpt lat="45.61532" lon="5.27479">
        <ele>228</ele>
        <time>2021-02-28T11:40:47.163Z</time>
      </trkpt>
      <trkpt lat="45.61528" lon="5.27477">
        <ele>228</ele>
        <time>2021-02-28T11:40:48.164Z</time>
      </trkpt>
      <trkpt lat="45.61525" lon="5.27475">
        <ele>228</ele>
        <time>2021-02-28T11:40:49.164Z</time>
      </trkpt>
      <trkpt lat="45.61521" lon="5.27474">
        <ele>228</ele>
        <time>2021-02-28T11:40:50.164Z</time>
      </trkpt>
      <trkpt lat="45.61518" lon="5.27473">
        <ele>228</ele>
        <time>2021-02-28T11:40:51.164Z</time>
      </trkpt>
      <trkpt lat="45.61514" lon="5.27472">
        <ele>227</ele>
        <time>2021-02-28T11:40:52.164Z</time>
      </trkpt>
      <trkpt lat="45.6151" lon="5.27471">
        <ele>226</ele>
        <time>2021-02-28T11:40:53.164Z</time>
      </trkpt>
      <trkpt lat="45.61507" lon="5.27469">
        <ele>226</ele>
        <time>2021-02-28T11:40:54.164Z</time>
      </trkpt>
      <trkpt lat="45.61504" lon="5.27468">
        <ele>225</ele>
        <time>2021-02-28T11:40:55.164Z</time>
      </trkpt>
      <trkpt lat="45.61502" lon="5.27467">
        <ele>225</ele>
        <time>2021-02-28T11:40:56.164Z</time>
      </trkpt>
      <trkpt lat="45.61499" lon="5.27467">
        <ele>225</ele>
        <time>2021-02-28T11:40:57.163Z</time>
      </trkpt>
      <trkpt lat="45.61497" lon="5.27466">
        <ele>225</ele>
        <time>2021-02-28T11:40:58.164Z</time>
      </trkpt>
      <trkpt lat="45.61496" lon="5.27466">
        <ele>225</ele>
        <time>2021-02-28T11:40:59.164Z</time>
      </trkpt>
      <trkpt lat="45.61495" lon="5.27466">
        <ele>225</ele>
        <time>2021-02-28T11:41:00.163Z</time>
      </trkpt>
      <trkpt lat="45.61495" lon="5.27467">
        <ele>225</ele>
        <time>2021-02-28T11:41:01.163Z</time>
      </trkpt>
      <trkpt lat="45.61495" lon="5.27467">
        <ele>225</ele>
        <time>2021-02-28T11:41:02.164Z</time>
      </trkpt>
    </trkseg>
  </trk>
</gpx>